<?xml version="1.0" encoding="UTF-8" standalone="no" ?>
<gpx xmlns="http://www.topografix.com/GPX/1/1" xmlns:xsi="http://www.w3.org/2001/XMLSchema-instance" xsi:schemaLocation="http://www.topografix.com/GPX/1/1 http://www.topografix.com/GPX/1/1/gpx.xsd" version="1.1" creator="VisuGPX - https://www.visugpx.com">
  <metadata>
    <name>SR - Grande Vache - Chartreuse</name>
  </metadata>
  <trk>
    <name><![CDATA[SR - Grande Vache - Chartreuse_1]]></name>
    <trkseg>
      <trkpt lat="45.35784" lon="5.7446">
        <ele>856.5</ele>
        <time>2021-12-19T08:35:12Z</time>
      </trkpt>
      <trkpt lat="45.35784" lon="5.74459">
        <ele>856.5</ele>
        <time>2021-12-19T08:35:13Z</time>
      </trkpt>
      <trkpt lat="45.35784" lon="5.74459">
        <ele>856.5</ele>
        <time>2021-12-19T08:35:14Z</time>
      </trkpt>
      <trkpt lat="45.35783" lon="5.74459">
        <ele>856.5</ele>
        <time>2021-12-19T08:35:15Z</time>
      </trkpt>
      <trkpt lat="45.35783" lon="5.74459">
        <ele>856.6</ele>
        <time>2021-12-19T08:35:16Z</time>
      </trkpt>
      <trkpt lat="45.35783" lon="5.74459">
        <ele>856.6</ele>
        <time>2021-12-19T08:35:17Z</time>
      </trkpt>
      <trkpt lat="45.35783" lon="5.74459">
        <ele>856.6</ele>
        <time>2021-12-19T08:35:18Z</time>
      </trkpt>
      <trkpt lat="45.35783" lon="5.74459">
        <ele>856.6</ele>
        <time>2021-12-19T08:35:19Z</time>
      </trkpt>
      <trkpt lat="45.35782" lon="5.74458">
        <ele>856.7</ele>
        <time>2021-12-19T08:35:20Z</time>
      </trkpt>
      <trkpt lat="45.35782" lon="5.74459">
        <ele>856.7</ele>
        <time>2021-12-19T08:35:21Z</time>
      </trkpt>
      <trkpt lat="45.35782" lon="5.74459">
        <ele>856.7</ele>
        <time>2021-12-19T08:35:22Z</time>
      </trkpt>
      <trkpt lat="45.35782" lon="5.74459">
        <ele>856.7</ele>
        <time>2021-12-19T08:35:23Z</time>
      </trkpt>
      <trkpt lat="45.35781" lon="5.7446">
        <ele>856.9</ele>
        <time>2021-12-19T08:35:24Z</time>
      </trkpt>
      <trkpt lat="45.3578" lon="5.74461">
        <ele>856.9</ele>
        <time>2021-12-19T08:35:25Z</time>
      </trkpt>
      <trkpt lat="45.3578" lon="5.74463">
        <ele>857</ele>
        <time>2021-12-19T08:35:26Z</time>
      </trkpt>
      <trkpt lat="45.35779" lon="5.74465">
        <ele>857.2</ele>
        <time>2021-12-19T08:35:27Z</time>
      </trkpt>
      <trkpt lat="45.35778" lon="5.74466">
        <ele>857.3</ele>
        <time>2021-12-19T08:35:28Z</time>
      </trkpt>
      <trkpt lat="45.35777" lon="5.74468">
        <ele>857.5</ele>
        <time>2021-12-19T08:35:29Z</time>
      </trkpt>
      <trkpt lat="45.35776" lon="5.74469">
        <ele>857.6</ele>
        <time>2021-12-19T08:35:30Z</time>
      </trkpt>
      <trkpt lat="45.35776" lon="5.74471">
        <ele>857.7</ele>
        <time>2021-12-19T08:35:31Z</time>
      </trkpt>
      <trkpt lat="45.35775" lon="5.74472">
        <ele>857.8</ele>
        <time>2021-12-19T08:35:32Z</time>
      </trkpt>
      <trkpt lat="45.35774" lon="5.74473">
        <ele>857.9</ele>
        <time>2021-12-19T08:35:33Z</time>
      </trkpt>
      <trkpt lat="45.35772" lon="5.74474">
        <ele>858.1</ele>
        <time>2021-12-19T08:35:34Z</time>
      </trkpt>
      <trkpt lat="45.35771" lon="5.74476">
        <ele>858.2</ele>
        <time>2021-12-19T08:35:35Z</time>
      </trkpt>
      <trkpt lat="45.3577" lon="5.74477">
        <ele>858.3</ele>
        <time>2021-12-19T08:35:36Z</time>
      </trkpt>
      <trkpt lat="45.3577" lon="5.74478">
        <ele>858.4</ele>
        <time>2021-12-19T08:35:37Z</time>
      </trkpt>
      <trkpt lat="45.35769" lon="5.7448">
        <ele>858.6</ele>
        <time>2021-12-19T08:35:38Z</time>
      </trkpt>
      <trkpt lat="45.35768" lon="5.74481">
        <ele>858.7</ele>
        <time>2021-12-19T08:35:39Z</time>
      </trkpt>
      <trkpt lat="45.35767" lon="5.74482">
        <ele>858.8</ele>
        <time>2021-12-19T08:35:40Z</time>
      </trkpt>
      <trkpt lat="45.35766" lon="5.74483">
        <ele>858.9</ele>
        <time>2021-12-19T08:35:41Z</time>
      </trkpt>
      <trkpt lat="45.35764" lon="5.74485">
        <ele>859.1</ele>
        <time>2021-12-19T08:35:42Z</time>
      </trkpt>
      <trkpt lat="45.35764" lon="5.74486">
        <ele>859.1</ele>
        <time>2021-12-19T08:35:43Z</time>
      </trkpt>
      <trkpt lat="45.35763" lon="5.74488">
        <ele>859.3</ele>
        <time>2021-12-19T08:35:44Z</time>
      </trkpt>
      <trkpt lat="45.35762" lon="5.74489">
        <ele>859.4</ele>
        <time>2021-12-19T08:35:45Z</time>
      </trkpt>
      <trkpt lat="45.35761" lon="5.74491">
        <ele>859.5</ele>
        <time>2021-12-19T08:35:46Z</time>
      </trkpt>
      <trkpt lat="45.3576" lon="5.74492">
        <ele>859.6</ele>
        <time>2021-12-19T08:35:47Z</time>
      </trkpt>
      <trkpt lat="45.35759" lon="5.74493">
        <ele>859.7</ele>
        <time>2021-12-19T08:35:48Z</time>
      </trkpt>
      <trkpt lat="45.35757" lon="5.74495">
        <ele>859.9</ele>
        <time>2021-12-19T08:35:49Z</time>
      </trkpt>
      <trkpt lat="45.35756" lon="5.74496">
        <ele>860</ele>
        <time>2021-12-19T08:35:50Z</time>
      </trkpt>
      <trkpt lat="45.35754" lon="5.74497">
        <ele>860.2</ele>
        <time>2021-12-19T08:35:51Z</time>
      </trkpt>
      <trkpt lat="45.35753" lon="5.74499">
        <ele>860.3</ele>
        <time>2021-12-19T08:35:52Z</time>
      </trkpt>
      <trkpt lat="45.35753" lon="5.745">
        <ele>860.4</ele>
        <time>2021-12-19T08:35:53Z</time>
      </trkpt>
      <trkpt lat="45.35752" lon="5.74501">
        <ele>860.5</ele>
        <time>2021-12-19T08:35:54Z</time>
      </trkpt>
      <trkpt lat="45.35751" lon="5.74502">
        <ele>860.6</ele>
        <time>2021-12-19T08:35:55Z</time>
      </trkpt>
      <trkpt lat="45.3575" lon="5.74503">
        <ele>860.7</ele>
        <time>2021-12-19T08:35:56Z</time>
      </trkpt>
      <trkpt lat="45.35749" lon="5.74504">
        <ele>860.8</ele>
        <time>2021-12-19T08:35:57Z</time>
      </trkpt>
      <trkpt lat="45.35749" lon="5.74505">
        <ele>860.8</ele>
        <time>2021-12-19T08:35:58Z</time>
      </trkpt>
      <trkpt lat="45.35749" lon="5.74506">
        <ele>860.9</ele>
        <time>2021-12-19T08:35:59Z</time>
      </trkpt>
      <trkpt lat="45.35748" lon="5.74507">
        <ele>861</ele>
        <time>2021-12-19T08:36:00Z</time>
      </trkpt>
      <trkpt lat="45.35748" lon="5.74508">
        <ele>861</ele>
        <time>2021-12-19T08:36:01Z</time>
      </trkpt>
      <trkpt lat="45.35747" lon="5.74509">
        <ele>861.1</ele>
        <time>2021-12-19T08:36:02Z</time>
      </trkpt>
      <trkpt lat="45.35746" lon="5.74509">
        <ele>861.2</ele>
        <time>2021-12-19T08:36:03Z</time>
      </trkpt>
      <trkpt lat="45.35746" lon="5.7451">
        <ele>861.2</ele>
        <time>2021-12-19T08:36:04Z</time>
      </trkpt>
      <trkpt lat="45.35745" lon="5.74511">
        <ele>861.3</ele>
        <time>2021-12-19T08:36:05Z</time>
      </trkpt>
      <trkpt lat="45.35744" lon="5.74512">
        <ele>861.4</ele>
        <time>2021-12-19T08:36:06Z</time>
      </trkpt>
      <trkpt lat="45.35744" lon="5.74513">
        <ele>861.5</ele>
        <time>2021-12-19T08:36:07Z</time>
      </trkpt>
      <trkpt lat="45.35743" lon="5.74514">
        <ele>861.6</ele>
        <time>2021-12-19T08:36:08Z</time>
      </trkpt>
      <trkpt lat="45.35743" lon="5.74515">
        <ele>861.7</ele>
        <time>2021-12-19T08:36:09Z</time>
      </trkpt>
      <trkpt lat="45.35742" lon="5.74516">
        <ele>861.8</ele>
        <time>2021-12-19T08:36:10Z</time>
      </trkpt>
      <trkpt lat="45.35742" lon="5.74517">
        <ele>861.8</ele>
        <time>2021-12-19T08:36:11Z</time>
      </trkpt>
      <trkpt lat="45.35741" lon="5.74518">
        <ele>861.9</ele>
        <time>2021-12-19T08:36:12Z</time>
      </trkpt>
      <trkpt lat="45.35741" lon="5.74519">
        <ele>861.9</ele>
        <time>2021-12-19T08:36:13Z</time>
      </trkpt>
      <trkpt lat="45.3574" lon="5.7452">
        <ele>862</ele>
        <time>2021-12-19T08:36:14Z</time>
      </trkpt>
      <trkpt lat="45.3574" lon="5.7452">
        <ele>862.1</ele>
        <time>2021-12-19T08:36:15Z</time>
      </trkpt>
      <trkpt lat="45.35739" lon="5.74521">
        <ele>862.1</ele>
        <time>2021-12-19T08:36:16Z</time>
      </trkpt>
      <trkpt lat="45.35739" lon="5.74522">
        <ele>862.2</ele>
        <time>2021-12-19T08:36:17Z</time>
      </trkpt>
      <trkpt lat="45.35738" lon="5.74523">
        <ele>862.3</ele>
        <time>2021-12-19T08:36:18Z</time>
      </trkpt>
      <trkpt lat="45.35738" lon="5.74524">
        <ele>862.4</ele>
        <time>2021-12-19T08:36:19Z</time>
      </trkpt>
      <trkpt lat="45.35737" lon="5.74525">
        <ele>862.5</ele>
        <time>2021-12-19T08:36:20Z</time>
      </trkpt>
      <trkpt lat="45.35736" lon="5.74526">
        <ele>862.6</ele>
        <time>2021-12-19T08:36:21Z</time>
      </trkpt>
      <trkpt lat="45.35735" lon="5.74527">
        <ele>862.6</ele>
        <time>2021-12-19T08:36:22Z</time>
      </trkpt>
      <trkpt lat="45.35735" lon="5.74528">
        <ele>862.7</ele>
        <time>2021-12-19T08:36:23Z</time>
      </trkpt>
      <trkpt lat="45.35735" lon="5.74529">
        <ele>862.8</ele>
        <time>2021-12-19T08:36:24Z</time>
      </trkpt>
      <trkpt lat="45.35735" lon="5.7453">
        <ele>862.9</ele>
        <time>2021-12-19T08:36:25Z</time>
      </trkpt>
      <trkpt lat="45.35735" lon="5.74531">
        <ele>863</ele>
        <time>2021-12-19T08:36:26Z</time>
      </trkpt>
      <trkpt lat="45.35734" lon="5.74531">
        <ele>863.1</ele>
        <time>2021-12-19T08:36:27Z</time>
      </trkpt>
      <trkpt lat="45.35734" lon="5.74532">
        <ele>863.2</ele>
        <time>2021-12-19T08:36:28Z</time>
      </trkpt>
      <trkpt lat="45.35733" lon="5.74534">
        <ele>863.4</ele>
        <time>2021-12-19T08:36:29Z</time>
      </trkpt>
      <trkpt lat="45.35733" lon="5.74535">
        <ele>863.5</ele>
        <time>2021-12-19T08:36:30Z</time>
      </trkpt>
      <trkpt lat="45.35733" lon="5.74536">
        <ele>863.7</ele>
        <time>2021-12-19T08:36:31Z</time>
      </trkpt>
      <trkpt lat="45.35732" lon="5.74537">
        <ele>863.8</ele>
        <time>2021-12-19T08:36:32Z</time>
      </trkpt>
      <trkpt lat="45.35732" lon="5.74538">
        <ele>864</ele>
        <time>2021-12-19T08:36:33Z</time>
      </trkpt>
      <trkpt lat="45.35731" lon="5.74539">
        <ele>864.1</ele>
        <time>2021-12-19T08:36:34Z</time>
      </trkpt>
      <trkpt lat="45.35731" lon="5.7454">
        <ele>864.3</ele>
        <time>2021-12-19T08:36:35Z</time>
      </trkpt>
      <trkpt lat="45.3573" lon="5.74541">
        <ele>864.4</ele>
        <time>2021-12-19T08:36:36Z</time>
      </trkpt>
      <trkpt lat="45.35729" lon="5.74542">
        <ele>864.6</ele>
        <time>2021-12-19T08:36:37Z</time>
      </trkpt>
      <trkpt lat="45.35729" lon="5.74543">
        <ele>864.7</ele>
        <time>2021-12-19T08:36:38Z</time>
      </trkpt>
      <trkpt lat="45.35728" lon="5.74544">
        <ele>864.9</ele>
        <time>2021-12-19T08:36:39Z</time>
      </trkpt>
      <trkpt lat="45.35727" lon="5.74545">
        <ele>865.1</ele>
        <time>2021-12-19T08:36:40Z</time>
      </trkpt>
      <trkpt lat="45.35726" lon="5.74546">
        <ele>865.2</ele>
        <time>2021-12-19T08:36:41Z</time>
      </trkpt>
      <trkpt lat="45.35725" lon="5.74547">
        <ele>865.4</ele>
        <time>2021-12-19T08:36:42Z</time>
      </trkpt>
      <trkpt lat="45.35725" lon="5.74548">
        <ele>865.5</ele>
        <time>2021-12-19T08:36:43Z</time>
      </trkpt>
      <trkpt lat="45.35724" lon="5.74549">
        <ele>865.7</ele>
        <time>2021-12-19T08:36:44Z</time>
      </trkpt>
      <trkpt lat="45.35724" lon="5.7455">
        <ele>865.8</ele>
        <time>2021-12-19T08:36:45Z</time>
      </trkpt>
      <trkpt lat="45.35723" lon="5.74551">
        <ele>866</ele>
        <time>2021-12-19T08:36:46Z</time>
      </trkpt>
      <trkpt lat="45.35723" lon="5.74552">
        <ele>866.1</ele>
        <time>2021-12-19T08:36:47Z</time>
      </trkpt>
      <trkpt lat="45.35722" lon="5.74553">
        <ele>866.3</ele>
        <time>2021-12-19T08:36:48Z</time>
      </trkpt>
      <trkpt lat="45.35721" lon="5.74555">
        <ele>866.5</ele>
        <time>2021-12-19T08:36:49Z</time>
      </trkpt>
      <trkpt lat="45.3572" lon="5.74555">
        <ele>866.6</ele>
        <time>2021-12-19T08:36:50Z</time>
      </trkpt>
      <trkpt lat="45.35719" lon="5.74557">
        <ele>866.8</ele>
        <time>2021-12-19T08:36:51Z</time>
      </trkpt>
      <trkpt lat="45.35718" lon="5.74558">
        <ele>867</ele>
        <time>2021-12-19T08:36:52Z</time>
      </trkpt>
      <trkpt lat="45.35717" lon="5.74559">
        <ele>867.2</ele>
        <time>2021-12-19T08:36:53Z</time>
      </trkpt>
      <trkpt lat="45.35716" lon="5.7456">
        <ele>867.4</ele>
        <time>2021-12-19T08:36:54Z</time>
      </trkpt>
      <trkpt lat="45.35715" lon="5.74561">
        <ele>867.6</ele>
        <time>2021-12-19T08:36:55Z</time>
      </trkpt>
      <trkpt lat="45.35715" lon="5.74562">
        <ele>867.7</ele>
        <time>2021-12-19T08:36:56Z</time>
      </trkpt>
      <trkpt lat="45.35714" lon="5.74564">
        <ele>867.9</ele>
        <time>2021-12-19T08:36:57Z</time>
      </trkpt>
      <trkpt lat="45.35713" lon="5.74565">
        <ele>868.1</ele>
        <time>2021-12-19T08:36:58Z</time>
      </trkpt>
      <trkpt lat="45.35712" lon="5.74566">
        <ele>868.3</ele>
        <time>2021-12-19T08:36:59Z</time>
      </trkpt>
      <trkpt lat="45.35712" lon="5.74567">
        <ele>868.4</ele>
        <time>2021-12-19T08:37:00Z</time>
      </trkpt>
      <trkpt lat="45.35711" lon="5.74568">
        <ele>868.5</ele>
        <time>2021-12-19T08:37:01Z</time>
      </trkpt>
      <trkpt lat="45.3571" lon="5.74569">
        <ele>868.7</ele>
        <time>2021-12-19T08:37:02Z</time>
      </trkpt>
      <trkpt lat="45.3571" lon="5.74571">
        <ele>868.9</ele>
        <time>2021-12-19T08:37:03Z</time>
      </trkpt>
      <trkpt lat="45.35709" lon="5.74571">
        <ele>869</ele>
        <time>2021-12-19T08:37:04Z</time>
      </trkpt>
      <trkpt lat="45.35709" lon="5.74573">
        <ele>869.2</ele>
        <time>2021-12-19T08:37:05Z</time>
      </trkpt>
      <trkpt lat="45.35708" lon="5.74574">
        <ele>869.3</ele>
        <time>2021-12-19T08:37:06Z</time>
      </trkpt>
      <trkpt lat="45.35708" lon="5.74574">
        <ele>869.4</ele>
        <time>2021-12-19T08:37:07Z</time>
      </trkpt>
      <trkpt lat="45.35707" lon="5.74575">
        <ele>869.6</ele>
        <time>2021-12-19T08:37:08Z</time>
      </trkpt>
      <trkpt lat="45.35706" lon="5.74576">
        <ele>869.7</ele>
        <time>2021-12-19T08:37:09Z</time>
      </trkpt>
      <trkpt lat="45.35706" lon="5.74577">
        <ele>869.9</ele>
        <time>2021-12-19T08:37:10Z</time>
      </trkpt>
      <trkpt lat="45.35705" lon="5.74578">
        <ele>870</ele>
        <time>2021-12-19T08:37:11Z</time>
      </trkpt>
      <trkpt lat="45.35705" lon="5.74579">
        <ele>870.1</ele>
        <time>2021-12-19T08:37:12Z</time>
      </trkpt>
      <trkpt lat="45.35704" lon="5.7458">
        <ele>870.3</ele>
        <time>2021-12-19T08:37:13Z</time>
      </trkpt>
      <trkpt lat="45.35704" lon="5.74581">
        <ele>870.4</ele>
        <time>2021-12-19T08:37:14Z</time>
      </trkpt>
      <trkpt lat="45.35703" lon="5.74581">
        <ele>870.5</ele>
        <time>2021-12-19T08:37:15Z</time>
      </trkpt>
      <trkpt lat="45.35703" lon="5.74583">
        <ele>870.7</ele>
        <time>2021-12-19T08:37:16Z</time>
      </trkpt>
      <trkpt lat="45.35702" lon="5.74583">
        <ele>870.8</ele>
        <time>2021-12-19T08:37:17Z</time>
      </trkpt>
      <trkpt lat="45.35701" lon="5.74585">
        <ele>871</ele>
        <time>2021-12-19T08:37:18Z</time>
      </trkpt>
      <trkpt lat="45.35701" lon="5.74586">
        <ele>871.1</ele>
        <time>2021-12-19T08:37:19Z</time>
      </trkpt>
      <trkpt lat="45.357" lon="5.74587">
        <ele>871.3</ele>
        <time>2021-12-19T08:37:20Z</time>
      </trkpt>
      <trkpt lat="45.357" lon="5.74588">
        <ele>871.4</ele>
        <time>2021-12-19T08:37:21Z</time>
      </trkpt>
      <trkpt lat="45.35699" lon="5.74589">
        <ele>871.6</ele>
        <time>2021-12-19T08:37:22Z</time>
      </trkpt>
      <trkpt lat="45.35699" lon="5.7459">
        <ele>871.7</ele>
        <time>2021-12-19T08:37:23Z</time>
      </trkpt>
      <trkpt lat="45.35698" lon="5.74591">
        <ele>871.8</ele>
        <time>2021-12-19T08:37:24Z</time>
      </trkpt>
      <trkpt lat="45.35698" lon="5.74592">
        <ele>872</ele>
        <time>2021-12-19T08:37:25Z</time>
      </trkpt>
      <trkpt lat="45.35697" lon="5.74593">
        <ele>872.2</ele>
        <time>2021-12-19T08:37:26Z</time>
      </trkpt>
      <trkpt lat="45.35696" lon="5.74594">
        <ele>872.3</ele>
        <time>2021-12-19T08:37:27Z</time>
      </trkpt>
      <trkpt lat="45.35696" lon="5.74596">
        <ele>872.5</ele>
        <time>2021-12-19T08:37:28Z</time>
      </trkpt>
      <trkpt lat="45.35695" lon="5.74596">
        <ele>872.6</ele>
        <time>2021-12-19T08:37:29Z</time>
      </trkpt>
      <trkpt lat="45.35695" lon="5.74597">
        <ele>872.8</ele>
        <time>2021-12-19T08:37:30Z</time>
      </trkpt>
      <trkpt lat="45.35695" lon="5.74599">
        <ele>872.9</ele>
        <time>2021-12-19T08:37:31Z</time>
      </trkpt>
      <trkpt lat="45.35694" lon="5.746">
        <ele>873.1</ele>
        <time>2021-12-19T08:37:32Z</time>
      </trkpt>
      <trkpt lat="45.35693" lon="5.74601">
        <ele>873.2</ele>
        <time>2021-12-19T08:37:33Z</time>
      </trkpt>
      <trkpt lat="45.35693" lon="5.74601">
        <ele>873.3</ele>
        <time>2021-12-19T08:37:34Z</time>
      </trkpt>
      <trkpt lat="45.35692" lon="5.74602">
        <ele>873.5</ele>
        <time>2021-12-19T08:37:35Z</time>
      </trkpt>
      <trkpt lat="45.35692" lon="5.74603">
        <ele>873.6</ele>
        <time>2021-12-19T08:37:36Z</time>
      </trkpt>
      <trkpt lat="45.35691" lon="5.74604">
        <ele>873.7</ele>
        <time>2021-12-19T08:37:37Z</time>
      </trkpt>
      <trkpt lat="45.35691" lon="5.74605">
        <ele>873.8</ele>
        <time>2021-12-19T08:37:38Z</time>
      </trkpt>
      <trkpt lat="45.3569" lon="5.74605">
        <ele>874</ele>
        <time>2021-12-19T08:37:39Z</time>
      </trkpt>
      <trkpt lat="45.3569" lon="5.74606">
        <ele>874.1</ele>
        <time>2021-12-19T08:37:40Z</time>
      </trkpt>
      <trkpt lat="45.35689" lon="5.74607">
        <ele>874.2</ele>
        <time>2021-12-19T08:37:41Z</time>
      </trkpt>
      <trkpt lat="45.35689" lon="5.74608">
        <ele>874.3</ele>
        <time>2021-12-19T08:37:42Z</time>
      </trkpt>
      <trkpt lat="45.35689" lon="5.74608">
        <ele>874.4</ele>
        <time>2021-12-19T08:37:43Z</time>
      </trkpt>
      <trkpt lat="45.35688" lon="5.74609">
        <ele>874.6</ele>
        <time>2021-12-19T08:37:44Z</time>
      </trkpt>
      <trkpt lat="45.35688" lon="5.74611">
        <ele>874.8</ele>
        <time>2021-12-19T08:37:45Z</time>
      </trkpt>
      <trkpt lat="45.35687" lon="5.74612">
        <ele>874.9</ele>
        <time>2021-12-19T08:37:46Z</time>
      </trkpt>
      <trkpt lat="45.35686" lon="5.74613">
        <ele>875.1</ele>
        <time>2021-12-19T08:37:47Z</time>
      </trkpt>
      <trkpt lat="45.35686" lon="5.74614">
        <ele>875.2</ele>
        <time>2021-12-19T08:37:48Z</time>
      </trkpt>
      <trkpt lat="45.35685" lon="5.74614">
        <ele>875.3</ele>
        <time>2021-12-19T08:37:49Z</time>
      </trkpt>
      <trkpt lat="45.35684" lon="5.74615">
        <ele>875.5</ele>
        <time>2021-12-19T08:37:50Z</time>
      </trkpt>
      <trkpt lat="45.35683" lon="5.74616">
        <ele>875.7</ele>
        <time>2021-12-19T08:37:51Z</time>
      </trkpt>
      <trkpt lat="45.35683" lon="5.74617">
        <ele>875.8</ele>
        <time>2021-12-19T08:37:52Z</time>
      </trkpt>
      <trkpt lat="45.35682" lon="5.74618">
        <ele>876</ele>
        <time>2021-12-19T08:37:53Z</time>
      </trkpt>
      <trkpt lat="45.35682" lon="5.74619">
        <ele>876.1</ele>
        <time>2021-12-19T08:37:54Z</time>
      </trkpt>
      <trkpt lat="45.35681" lon="5.7462">
        <ele>876.3</ele>
        <time>2021-12-19T08:37:55Z</time>
      </trkpt>
      <trkpt lat="45.35681" lon="5.74621">
        <ele>876.4</ele>
        <time>2021-12-19T08:37:56Z</time>
      </trkpt>
      <trkpt lat="45.35681" lon="5.74622">
        <ele>876.5</ele>
        <time>2021-12-19T08:37:57Z</time>
      </trkpt>
      <trkpt lat="45.3568" lon="5.74623">
        <ele>876.6</ele>
        <time>2021-12-19T08:37:58Z</time>
      </trkpt>
      <trkpt lat="45.3568" lon="5.74624">
        <ele>876.8</ele>
        <time>2021-12-19T08:37:59Z</time>
      </trkpt>
      <trkpt lat="45.35679" lon="5.74624">
        <ele>876.9</ele>
        <time>2021-12-19T08:38:00Z</time>
      </trkpt>
      <trkpt lat="45.35678" lon="5.74625">
        <ele>877</ele>
        <time>2021-12-19T08:38:01Z</time>
      </trkpt>
      <trkpt lat="45.35678" lon="5.74627">
        <ele>877.2</ele>
        <time>2021-12-19T08:38:02Z</time>
      </trkpt>
      <trkpt lat="45.35678" lon="5.74628">
        <ele>877.4</ele>
        <time>2021-12-19T08:38:03Z</time>
      </trkpt>
      <trkpt lat="45.35678" lon="5.74629">
        <ele>877.5</ele>
        <time>2021-12-19T08:38:04Z</time>
      </trkpt>
      <trkpt lat="45.35677" lon="5.74631">
        <ele>877.8</ele>
        <time>2021-12-19T08:38:05Z</time>
      </trkpt>
      <trkpt lat="45.35677" lon="5.74632">
        <ele>877.9</ele>
        <time>2021-12-19T08:38:06Z</time>
      </trkpt>
      <trkpt lat="45.35676" lon="5.74633">
        <ele>878</ele>
        <time>2021-12-19T08:38:07Z</time>
      </trkpt>
      <trkpt lat="45.35676" lon="5.74634">
        <ele>878.2</ele>
        <time>2021-12-19T08:38:08Z</time>
      </trkpt>
      <trkpt lat="45.35675" lon="5.74635">
        <ele>878.3</ele>
        <time>2021-12-19T08:38:09Z</time>
      </trkpt>
      <trkpt lat="45.35675" lon="5.74636">
        <ele>878.5</ele>
        <time>2021-12-19T08:38:10Z</time>
      </trkpt>
      <trkpt lat="45.35675" lon="5.74637">
        <ele>878.6</ele>
        <time>2021-12-19T08:38:11Z</time>
      </trkpt>
      <trkpt lat="45.35674" lon="5.74638">
        <ele>878.7</ele>
        <time>2021-12-19T08:38:12Z</time>
      </trkpt>
      <trkpt lat="45.35673" lon="5.74639">
        <ele>878.9</ele>
        <time>2021-12-19T08:38:13Z</time>
      </trkpt>
      <trkpt lat="45.35673" lon="5.7464">
        <ele>879.1</ele>
        <time>2021-12-19T08:38:14Z</time>
      </trkpt>
      <trkpt lat="45.35672" lon="5.74641">
        <ele>879.2</ele>
        <time>2021-12-19T08:38:15Z</time>
      </trkpt>
      <trkpt lat="45.35672" lon="5.74642">
        <ele>879.3</ele>
        <time>2021-12-19T08:38:16Z</time>
      </trkpt>
      <trkpt lat="45.35671" lon="5.74643">
        <ele>879.5</ele>
        <time>2021-12-19T08:38:17Z</time>
      </trkpt>
      <trkpt lat="45.3567" lon="5.74643">
        <ele>879.7</ele>
        <time>2021-12-19T08:38:18Z</time>
      </trkpt>
      <trkpt lat="45.35669" lon="5.74644">
        <ele>879.8</ele>
        <time>2021-12-19T08:38:19Z</time>
      </trkpt>
      <trkpt lat="45.35669" lon="5.74646">
        <ele>880</ele>
        <time>2021-12-19T08:38:20Z</time>
      </trkpt>
      <trkpt lat="45.35668" lon="5.74646">
        <ele>880.2</ele>
        <time>2021-12-19T08:38:21Z</time>
      </trkpt>
      <trkpt lat="45.35668" lon="5.74647">
        <ele>880.3</ele>
        <time>2021-12-19T08:38:22Z</time>
      </trkpt>
      <trkpt lat="45.35667" lon="5.74648">
        <ele>880.5</ele>
        <time>2021-12-19T08:38:23Z</time>
      </trkpt>
      <trkpt lat="45.35666" lon="5.74649">
        <ele>880.6</ele>
        <time>2021-12-19T08:38:24Z</time>
      </trkpt>
      <trkpt lat="45.35665" lon="5.7465">
        <ele>880.8</ele>
        <time>2021-12-19T08:38:25Z</time>
      </trkpt>
      <trkpt lat="45.35665" lon="5.74651">
        <ele>880.9</ele>
        <time>2021-12-19T08:38:26Z</time>
      </trkpt>
      <trkpt lat="45.35664" lon="5.74652">
        <ele>881.1</ele>
        <time>2021-12-19T08:38:27Z</time>
      </trkpt>
      <trkpt lat="45.35664" lon="5.74653">
        <ele>881.3</ele>
        <time>2021-12-19T08:38:28Z</time>
      </trkpt>
      <trkpt lat="45.35663" lon="5.74654">
        <ele>881.4</ele>
        <time>2021-12-19T08:38:29Z</time>
      </trkpt>
      <trkpt lat="45.35663" lon="5.74655">
        <ele>881.5</ele>
        <time>2021-12-19T08:38:30Z</time>
      </trkpt>
      <trkpt lat="45.35662" lon="5.74656">
        <ele>881.7</ele>
        <time>2021-12-19T08:38:31Z</time>
      </trkpt>
      <trkpt lat="45.35661" lon="5.74657">
        <ele>881.8</ele>
        <time>2021-12-19T08:38:32Z</time>
      </trkpt>
      <trkpt lat="45.35661" lon="5.74658">
        <ele>882</ele>
        <time>2021-12-19T08:38:33Z</time>
      </trkpt>
      <trkpt lat="45.3566" lon="5.74659">
        <ele>882.2</ele>
        <time>2021-12-19T08:38:34Z</time>
      </trkpt>
      <trkpt lat="45.3566" lon="5.7466">
        <ele>882.3</ele>
        <time>2021-12-19T08:38:35Z</time>
      </trkpt>
      <trkpt lat="45.3566" lon="5.74661">
        <ele>882.4</ele>
        <time>2021-12-19T08:38:36Z</time>
      </trkpt>
      <trkpt lat="45.35659" lon="5.74662">
        <ele>882.6</ele>
        <time>2021-12-19T08:38:37Z</time>
      </trkpt>
      <trkpt lat="45.35658" lon="5.74664">
        <ele>882.8</ele>
        <time>2021-12-19T08:38:38Z</time>
      </trkpt>
      <trkpt lat="45.35658" lon="5.74665">
        <ele>883</ele>
        <time>2021-12-19T08:38:39Z</time>
      </trkpt>
      <trkpt lat="45.35657" lon="5.74666">
        <ele>883.1</ele>
        <time>2021-12-19T08:38:40Z</time>
      </trkpt>
      <trkpt lat="45.35657" lon="5.74667">
        <ele>883.3</ele>
        <time>2021-12-19T08:38:41Z</time>
      </trkpt>
      <trkpt lat="45.35656" lon="5.74669">
        <ele>883.5</ele>
        <time>2021-12-19T08:38:42Z</time>
      </trkpt>
      <trkpt lat="45.35656" lon="5.74669">
        <ele>883.6</ele>
        <time>2021-12-19T08:38:43Z</time>
      </trkpt>
      <trkpt lat="45.35655" lon="5.7467">
        <ele>883.8</ele>
        <time>2021-12-19T08:38:44Z</time>
      </trkpt>
      <trkpt lat="45.35655" lon="5.74672">
        <ele>883.9</ele>
        <time>2021-12-19T08:38:45Z</time>
      </trkpt>
      <trkpt lat="45.35654" lon="5.74673">
        <ele>884.1</ele>
        <time>2021-12-19T08:38:46Z</time>
      </trkpt>
      <trkpt lat="45.35653" lon="5.74674">
        <ele>884.3</ele>
        <time>2021-12-19T08:38:47Z</time>
      </trkpt>
      <trkpt lat="45.35653" lon="5.74675">
        <ele>884.4</ele>
        <time>2021-12-19T08:38:48Z</time>
      </trkpt>
      <trkpt lat="45.35652" lon="5.74676">
        <ele>884.6</ele>
        <time>2021-12-19T08:38:49Z</time>
      </trkpt>
      <trkpt lat="45.35651" lon="5.74677">
        <ele>884.8</ele>
        <time>2021-12-19T08:38:50Z</time>
      </trkpt>
      <trkpt lat="45.35651" lon="5.74678">
        <ele>884.9</ele>
        <time>2021-12-19T08:38:51Z</time>
      </trkpt>
      <trkpt lat="45.35651" lon="5.74679">
        <ele>885</ele>
        <time>2021-12-19T08:38:52Z</time>
      </trkpt>
      <trkpt lat="45.35651" lon="5.7468">
        <ele>885</ele>
        <time>2021-12-19T08:38:53Z</time>
      </trkpt>
      <trkpt lat="45.35651" lon="5.7468">
        <ele>885.1</ele>
        <time>2021-12-19T08:38:54Z</time>
      </trkpt>
      <trkpt lat="45.3565" lon="5.74681">
        <ele>885.2</ele>
        <time>2021-12-19T08:38:55Z</time>
      </trkpt>
      <trkpt lat="45.3565" lon="5.74681">
        <ele>885.3</ele>
        <time>2021-12-19T08:38:56Z</time>
      </trkpt>
      <trkpt lat="45.35649" lon="5.74682">
        <ele>885.5</ele>
        <time>2021-12-19T08:38:57Z</time>
      </trkpt>
      <trkpt lat="45.35649" lon="5.74683">
        <ele>885.6</ele>
        <time>2021-12-19T08:38:58Z</time>
      </trkpt>
      <trkpt lat="45.35648" lon="5.74684">
        <ele>885.7</ele>
        <time>2021-12-19T08:38:59Z</time>
      </trkpt>
      <trkpt lat="45.35648" lon="5.74685">
        <ele>885.8</ele>
        <time>2021-12-19T08:39:00Z</time>
      </trkpt>
      <trkpt lat="45.35648" lon="5.74686">
        <ele>885.9</ele>
        <time>2021-12-19T08:39:01Z</time>
      </trkpt>
      <trkpt lat="45.35648" lon="5.74687">
        <ele>886.1</ele>
        <time>2021-12-19T08:39:02Z</time>
      </trkpt>
      <trkpt lat="45.35647" lon="5.74688">
        <ele>886.2</ele>
        <time>2021-12-19T08:39:03Z</time>
      </trkpt>
      <trkpt lat="45.35647" lon="5.74689">
        <ele>886.3</ele>
        <time>2021-12-19T08:39:04Z</time>
      </trkpt>
      <trkpt lat="45.35646" lon="5.7469">
        <ele>886.5</ele>
        <time>2021-12-19T08:39:05Z</time>
      </trkpt>
      <trkpt lat="45.35646" lon="5.74692">
        <ele>886.7</ele>
        <time>2021-12-19T08:39:06Z</time>
      </trkpt>
      <trkpt lat="45.35645" lon="5.74693">
        <ele>886.8</ele>
        <time>2021-12-19T08:39:07Z</time>
      </trkpt>
      <trkpt lat="45.35645" lon="5.74694">
        <ele>887</ele>
        <time>2021-12-19T08:39:08Z</time>
      </trkpt>
      <trkpt lat="45.35644" lon="5.74696">
        <ele>887.2</ele>
        <time>2021-12-19T08:39:09Z</time>
      </trkpt>
      <trkpt lat="45.35643" lon="5.74698">
        <ele>887.5</ele>
        <time>2021-12-19T08:39:10Z</time>
      </trkpt>
      <trkpt lat="45.35643" lon="5.74699">
        <ele>887.6</ele>
        <time>2021-12-19T08:39:11Z</time>
      </trkpt>
      <trkpt lat="45.35642" lon="5.747">
        <ele>887.8</ele>
        <time>2021-12-19T08:39:12Z</time>
      </trkpt>
      <trkpt lat="45.35641" lon="5.74701">
        <ele>888</ele>
        <time>2021-12-19T08:39:13Z</time>
      </trkpt>
      <trkpt lat="45.3564" lon="5.74701">
        <ele>888.1</ele>
        <time>2021-12-19T08:39:14Z</time>
      </trkpt>
      <trkpt lat="45.35639" lon="5.74702">
        <ele>888.3</ele>
        <time>2021-12-19T08:39:15Z</time>
      </trkpt>
      <trkpt lat="45.35639" lon="5.74703">
        <ele>888.4</ele>
        <time>2021-12-19T08:39:16Z</time>
      </trkpt>
      <trkpt lat="45.35638" lon="5.74704">
        <ele>888.6</ele>
        <time>2021-12-19T08:39:17Z</time>
      </trkpt>
      <trkpt lat="45.35638" lon="5.74705">
        <ele>888.7</ele>
        <time>2021-12-19T08:39:18Z</time>
      </trkpt>
      <trkpt lat="45.35637" lon="5.74706">
        <ele>888.9</ele>
        <time>2021-12-19T08:39:19Z</time>
      </trkpt>
      <trkpt lat="45.35637" lon="5.74707">
        <ele>889</ele>
        <time>2021-12-19T08:39:20Z</time>
      </trkpt>
      <trkpt lat="45.35637" lon="5.74709">
        <ele>889.2</ele>
        <time>2021-12-19T08:39:21Z</time>
      </trkpt>
      <trkpt lat="45.35637" lon="5.7471">
        <ele>889.3</ele>
        <time>2021-12-19T08:39:22Z</time>
      </trkpt>
      <trkpt lat="45.35637" lon="5.74711">
        <ele>889.5</ele>
        <time>2021-12-19T08:39:23Z</time>
      </trkpt>
      <trkpt lat="45.35637" lon="5.74713">
        <ele>889.6</ele>
        <time>2021-12-19T08:39:24Z</time>
      </trkpt>
      <trkpt lat="45.35637" lon="5.74714">
        <ele>889.8</ele>
        <time>2021-12-19T08:39:25Z</time>
      </trkpt>
      <trkpt lat="45.35637" lon="5.74715">
        <ele>889.9</ele>
        <time>2021-12-19T08:39:26Z</time>
      </trkpt>
      <trkpt lat="45.35637" lon="5.74717">
        <ele>890.1</ele>
        <time>2021-12-19T08:39:27Z</time>
      </trkpt>
      <trkpt lat="45.35637" lon="5.74718">
        <ele>890.3</ele>
        <time>2021-12-19T08:39:28Z</time>
      </trkpt>
      <trkpt lat="45.35636" lon="5.74719">
        <ele>890.4</ele>
        <time>2021-12-19T08:39:29Z</time>
      </trkpt>
      <trkpt lat="45.35636" lon="5.74721">
        <ele>890.6</ele>
        <time>2021-12-19T08:39:30Z</time>
      </trkpt>
      <trkpt lat="45.35635" lon="5.74722">
        <ele>890.8</ele>
        <time>2021-12-19T08:39:31Z</time>
      </trkpt>
      <trkpt lat="45.35635" lon="5.74724">
        <ele>891</ele>
        <time>2021-12-19T08:39:32Z</time>
      </trkpt>
      <trkpt lat="45.35635" lon="5.74725">
        <ele>891.1</ele>
        <time>2021-12-19T08:39:33Z</time>
      </trkpt>
      <trkpt lat="45.35634" lon="5.74726">
        <ele>891.2</ele>
        <time>2021-12-19T08:39:34Z</time>
      </trkpt>
      <trkpt lat="45.35634" lon="5.74727">
        <ele>891.4</ele>
        <time>2021-12-19T08:39:35Z</time>
      </trkpt>
      <trkpt lat="45.35634" lon="5.74729">
        <ele>891.6</ele>
        <time>2021-12-19T08:39:36Z</time>
      </trkpt>
      <trkpt lat="45.35633" lon="5.7473">
        <ele>891.8</ele>
        <time>2021-12-19T08:39:37Z</time>
      </trkpt>
      <trkpt lat="45.35633" lon="5.74732">
        <ele>892</ele>
        <time>2021-12-19T08:39:38Z</time>
      </trkpt>
      <trkpt lat="45.35632" lon="5.74733">
        <ele>892.1</ele>
        <time>2021-12-19T08:39:39Z</time>
      </trkpt>
      <trkpt lat="45.35632" lon="5.74734">
        <ele>892.3</ele>
        <time>2021-12-19T08:39:40Z</time>
      </trkpt>
      <trkpt lat="45.35631" lon="5.74736">
        <ele>892.5</ele>
        <time>2021-12-19T08:39:41Z</time>
      </trkpt>
      <trkpt lat="45.3563" lon="5.74737">
        <ele>892.7</ele>
        <time>2021-12-19T08:39:42Z</time>
      </trkpt>
      <trkpt lat="45.35629" lon="5.74738">
        <ele>892.9</ele>
        <time>2021-12-19T08:39:43Z</time>
      </trkpt>
      <trkpt lat="45.35628" lon="5.7474">
        <ele>893.2</ele>
        <time>2021-12-19T08:39:44Z</time>
      </trkpt>
      <trkpt lat="45.35628" lon="5.74741">
        <ele>893.3</ele>
        <time>2021-12-19T08:39:45Z</time>
      </trkpt>
      <trkpt lat="45.35627" lon="5.74742">
        <ele>893.5</ele>
        <time>2021-12-19T08:39:46Z</time>
      </trkpt>
      <trkpt lat="45.35626" lon="5.74743">
        <ele>893.7</ele>
        <time>2021-12-19T08:39:47Z</time>
      </trkpt>
      <trkpt lat="45.35625" lon="5.74744">
        <ele>893.9</ele>
        <time>2021-12-19T08:39:48Z</time>
      </trkpt>
      <trkpt lat="45.35624" lon="5.74745">
        <ele>894.1</ele>
        <time>2021-12-19T08:39:49Z</time>
      </trkpt>
      <trkpt lat="45.35624" lon="5.74746">
        <ele>894.2</ele>
        <time>2021-12-19T08:39:50Z</time>
      </trkpt>
      <trkpt lat="45.35623" lon="5.74747">
        <ele>894.4</ele>
        <time>2021-12-19T08:39:51Z</time>
      </trkpt>
      <trkpt lat="45.35623" lon="5.74748">
        <ele>894.5</ele>
        <time>2021-12-19T08:39:52Z</time>
      </trkpt>
      <trkpt lat="45.35622" lon="5.74749">
        <ele>894.7</ele>
        <time>2021-12-19T08:39:53Z</time>
      </trkpt>
      <trkpt lat="45.35622" lon="5.7475">
        <ele>894.8</ele>
        <time>2021-12-19T08:39:54Z</time>
      </trkpt>
      <trkpt lat="45.35621" lon="5.74751">
        <ele>895</ele>
        <time>2021-12-19T08:39:55Z</time>
      </trkpt>
      <trkpt lat="45.35621" lon="5.74752">
        <ele>895.1</ele>
        <time>2021-12-19T08:39:56Z</time>
      </trkpt>
      <trkpt lat="45.3562" lon="5.74753">
        <ele>895.3</ele>
        <time>2021-12-19T08:39:57Z</time>
      </trkpt>
      <trkpt lat="45.3562" lon="5.74754">
        <ele>895.4</ele>
        <time>2021-12-19T08:39:58Z</time>
      </trkpt>
      <trkpt lat="45.3562" lon="5.74755">
        <ele>895.5</ele>
        <time>2021-12-19T08:39:59Z</time>
      </trkpt>
      <trkpt lat="45.3562" lon="5.74756">
        <ele>895.6</ele>
        <time>2021-12-19T08:40:00Z</time>
      </trkpt>
      <trkpt lat="45.35619" lon="5.74757">
        <ele>895.8</ele>
        <time>2021-12-19T08:40:01Z</time>
      </trkpt>
      <trkpt lat="45.35619" lon="5.74758">
        <ele>895.9</ele>
        <time>2021-12-19T08:40:02Z</time>
      </trkpt>
      <trkpt lat="45.35619" lon="5.7476">
        <ele>896.1</ele>
        <time>2021-12-19T08:40:03Z</time>
      </trkpt>
      <trkpt lat="45.35619" lon="5.74761">
        <ele>896.2</ele>
        <time>2021-12-19T08:40:04Z</time>
      </trkpt>
      <trkpt lat="45.35619" lon="5.74762">
        <ele>896.4</ele>
        <time>2021-12-19T08:40:05Z</time>
      </trkpt>
      <trkpt lat="45.35619" lon="5.74764">
        <ele>896.5</ele>
        <time>2021-12-19T08:40:06Z</time>
      </trkpt>
      <trkpt lat="45.35618" lon="5.74765">
        <ele>896.7</ele>
        <time>2021-12-19T08:40:07Z</time>
      </trkpt>
      <trkpt lat="45.35618" lon="5.74766">
        <ele>896.9</ele>
        <time>2021-12-19T08:40:08Z</time>
      </trkpt>
      <trkpt lat="45.35619" lon="5.74768">
        <ele>897</ele>
        <time>2021-12-19T08:40:09Z</time>
      </trkpt>
      <trkpt lat="45.35619" lon="5.74769">
        <ele>897.2</ele>
        <time>2021-12-19T08:40:10Z</time>
      </trkpt>
      <trkpt lat="45.35619" lon="5.74771">
        <ele>897.4</ele>
        <time>2021-12-19T08:40:11Z</time>
      </trkpt>
      <trkpt lat="45.35618" lon="5.74772">
        <ele>897.6</ele>
        <time>2021-12-19T08:40:12Z</time>
      </trkpt>
      <trkpt lat="45.35618" lon="5.74773">
        <ele>897.7</ele>
        <time>2021-12-19T08:40:13Z</time>
      </trkpt>
      <trkpt lat="45.35617" lon="5.74775">
        <ele>897.9</ele>
        <time>2021-12-19T08:40:14Z</time>
      </trkpt>
      <trkpt lat="45.35617" lon="5.74776">
        <ele>898.1</ele>
        <time>2021-12-19T08:40:15Z</time>
      </trkpt>
      <trkpt lat="45.35616" lon="5.74778">
        <ele>898.3</ele>
        <time>2021-12-19T08:40:16Z</time>
      </trkpt>
      <trkpt lat="45.35615" lon="5.74779">
        <ele>898.6</ele>
        <time>2021-12-19T08:40:17Z</time>
      </trkpt>
      <trkpt lat="45.35615" lon="5.74781">
        <ele>898.7</ele>
        <time>2021-12-19T08:40:18Z</time>
      </trkpt>
      <trkpt lat="45.35615" lon="5.74782">
        <ele>898.9</ele>
        <time>2021-12-19T08:40:19Z</time>
      </trkpt>
      <trkpt lat="45.35614" lon="5.74783">
        <ele>899</ele>
        <time>2021-12-19T08:40:20Z</time>
      </trkpt>
      <trkpt lat="45.35614" lon="5.74784">
        <ele>899.2</ele>
        <time>2021-12-19T08:40:21Z</time>
      </trkpt>
      <trkpt lat="45.35614" lon="5.74786">
        <ele>899.3</ele>
        <time>2021-12-19T08:40:22Z</time>
      </trkpt>
      <trkpt lat="45.35614" lon="5.74787">
        <ele>899.4</ele>
        <time>2021-12-19T08:40:23Z</time>
      </trkpt>
      <trkpt lat="45.35614" lon="5.74787">
        <ele>899.6</ele>
        <time>2021-12-19T08:40:24Z</time>
      </trkpt>
      <trkpt lat="45.35614" lon="5.74788">
        <ele>899.7</ele>
        <time>2021-12-19T08:40:25Z</time>
      </trkpt>
      <trkpt lat="45.35614" lon="5.74789">
        <ele>899.8</ele>
        <time>2021-12-19T08:40:26Z</time>
      </trkpt>
      <trkpt lat="45.35614" lon="5.7479">
        <ele>899.9</ele>
        <time>2021-12-19T08:40:27Z</time>
      </trkpt>
      <trkpt lat="45.35614" lon="5.74792">
        <ele>900.1</ele>
        <time>2021-12-19T08:40:28Z</time>
      </trkpt>
      <trkpt lat="45.35614" lon="5.74793">
        <ele>900.3</ele>
        <time>2021-12-19T08:40:29Z</time>
      </trkpt>
      <trkpt lat="45.35614" lon="5.74795">
        <ele>900.4</ele>
        <time>2021-12-19T08:40:30Z</time>
      </trkpt>
      <trkpt lat="45.35614" lon="5.74795">
        <ele>900.5</ele>
        <time>2021-12-19T08:40:31Z</time>
      </trkpt>
      <trkpt lat="45.35614" lon="5.74795">
        <ele>900.5</ele>
        <time>2021-12-19T08:40:32Z</time>
      </trkpt>
      <trkpt lat="45.35613" lon="5.74795">
        <ele>900.6</ele>
        <time>2021-12-19T08:40:33Z</time>
      </trkpt>
      <trkpt lat="45.35613" lon="5.74796">
        <ele>900.6</ele>
        <time>2021-12-19T08:40:34Z</time>
      </trkpt>
      <trkpt lat="45.35613" lon="5.74796">
        <ele>900.7</ele>
        <time>2021-12-19T08:40:35Z</time>
      </trkpt>
      <trkpt lat="45.35613" lon="5.74796">
        <ele>900.7</ele>
        <time>2021-12-19T08:40:36Z</time>
      </trkpt>
      <trkpt lat="45.35612" lon="5.74796">
        <ele>900.8</ele>
        <time>2021-12-19T08:40:37Z</time>
      </trkpt>
      <trkpt lat="45.35612" lon="5.74797">
        <ele>900.8</ele>
        <time>2021-12-19T08:40:38Z</time>
      </trkpt>
      <trkpt lat="45.35612" lon="5.74797">
        <ele>900.9</ele>
        <time>2021-12-19T08:40:39Z</time>
      </trkpt>
      <trkpt lat="45.35612" lon="5.74797">
        <ele>900.9</ele>
        <time>2021-12-19T08:40:40Z</time>
      </trkpt>
      <trkpt lat="45.35612" lon="5.74797">
        <ele>901</ele>
        <time>2021-12-19T08:40:41Z</time>
      </trkpt>
      <trkpt lat="45.35611" lon="5.74798">
        <ele>901</ele>
        <time>2021-12-19T08:40:42Z</time>
      </trkpt>
      <trkpt lat="45.35611" lon="5.74798">
        <ele>901.1</ele>
        <time>2021-12-19T08:40:43Z</time>
      </trkpt>
      <trkpt lat="45.35611" lon="5.74798">
        <ele>901.1</ele>
        <time>2021-12-19T08:40:44Z</time>
      </trkpt>
      <trkpt lat="45.35611" lon="5.74798">
        <ele>901.2</ele>
        <time>2021-12-19T08:40:45Z</time>
      </trkpt>
      <trkpt lat="45.3561" lon="5.74799">
        <ele>901.2</ele>
        <time>2021-12-19T08:40:46Z</time>
      </trkpt>
      <trkpt lat="45.3561" lon="5.74799">
        <ele>901.3</ele>
        <time>2021-12-19T08:40:47Z</time>
      </trkpt>
      <trkpt lat="45.3561" lon="5.74799">
        <ele>901.3</ele>
        <time>2021-12-19T08:40:48Z</time>
      </trkpt>
      <trkpt lat="45.3561" lon="5.74799">
        <ele>901.4</ele>
        <time>2021-12-19T08:40:49Z</time>
      </trkpt>
      <trkpt lat="45.35609" lon="5.748">
        <ele>901.4</ele>
        <time>2021-12-19T08:40:50Z</time>
      </trkpt>
      <trkpt lat="45.35609" lon="5.748">
        <ele>901.5</ele>
        <time>2021-12-19T08:40:51Z</time>
      </trkpt>
      <trkpt lat="45.35609" lon="5.748">
        <ele>901.5</ele>
        <time>2021-12-19T08:40:52Z</time>
      </trkpt>
      <trkpt lat="45.35609" lon="5.748">
        <ele>901.6</ele>
        <time>2021-12-19T08:40:53Z</time>
      </trkpt>
      <trkpt lat="45.35609" lon="5.74801">
        <ele>901.6</ele>
        <time>2021-12-19T08:40:54Z</time>
      </trkpt>
      <trkpt lat="45.35608" lon="5.74801">
        <ele>901.7</ele>
        <time>2021-12-19T08:40:55Z</time>
      </trkpt>
      <trkpt lat="45.35608" lon="5.74801">
        <ele>901.7</ele>
        <time>2021-12-19T08:40:56Z</time>
      </trkpt>
      <trkpt lat="45.35608" lon="5.74801">
        <ele>901.8</ele>
        <time>2021-12-19T08:40:57Z</time>
      </trkpt>
      <trkpt lat="45.35608" lon="5.74802">
        <ele>901.8</ele>
        <time>2021-12-19T08:40:58Z</time>
      </trkpt>
      <trkpt lat="45.35607" lon="5.74802">
        <ele>901.9</ele>
        <time>2021-12-19T08:40:59Z</time>
      </trkpt>
      <trkpt lat="45.35607" lon="5.74802">
        <ele>901.9</ele>
        <time>2021-12-19T08:41:00Z</time>
      </trkpt>
      <trkpt lat="45.35607" lon="5.74802">
        <ele>902</ele>
        <time>2021-12-19T08:41:01Z</time>
      </trkpt>
      <trkpt lat="45.35607" lon="5.74803">
        <ele>902.1</ele>
        <time>2021-12-19T08:41:02Z</time>
      </trkpt>
      <trkpt lat="45.35606" lon="5.74803">
        <ele>902.1</ele>
        <time>2021-12-19T08:41:03Z</time>
      </trkpt>
      <trkpt lat="45.35606" lon="5.74803">
        <ele>902.2</ele>
        <time>2021-12-19T08:41:04Z</time>
      </trkpt>
      <trkpt lat="45.35606" lon="5.74803">
        <ele>902.2</ele>
        <time>2021-12-19T08:41:05Z</time>
      </trkpt>
      <trkpt lat="45.35606" lon="5.74803">
        <ele>902.3</ele>
        <time>2021-12-19T08:41:06Z</time>
      </trkpt>
      <trkpt lat="45.35606" lon="5.74804">
        <ele>902.3</ele>
        <time>2021-12-19T08:41:07Z</time>
      </trkpt>
      <trkpt lat="45.35605" lon="5.74804">
        <ele>902.4</ele>
        <time>2021-12-19T08:41:08Z</time>
      </trkpt>
      <trkpt lat="45.35605" lon="5.74804">
        <ele>902.4</ele>
        <time>2021-12-19T08:41:09Z</time>
      </trkpt>
      <trkpt lat="45.35605" lon="5.74804">
        <ele>902.5</ele>
        <time>2021-12-19T08:41:10Z</time>
      </trkpt>
      <trkpt lat="45.35605" lon="5.74805">
        <ele>902.5</ele>
        <time>2021-12-19T08:41:11Z</time>
      </trkpt>
      <trkpt lat="45.35604" lon="5.74805">
        <ele>902.6</ele>
        <time>2021-12-19T08:41:12Z</time>
      </trkpt>
      <trkpt lat="45.35604" lon="5.74805">
        <ele>902.6</ele>
        <time>2021-12-19T08:41:13Z</time>
      </trkpt>
      <trkpt lat="45.35604" lon="5.74805">
        <ele>902.7</ele>
        <time>2021-12-19T08:41:14Z</time>
      </trkpt>
      <trkpt lat="45.35604" lon="5.74806">
        <ele>902.7</ele>
        <time>2021-12-19T08:41:15Z</time>
      </trkpt>
      <trkpt lat="45.35603" lon="5.74806">
        <ele>902.8</ele>
        <time>2021-12-19T08:41:16Z</time>
      </trkpt>
      <trkpt lat="45.35603" lon="5.74806">
        <ele>902.9</ele>
        <time>2021-12-19T08:41:17Z</time>
      </trkpt>
      <trkpt lat="45.35603" lon="5.74806">
        <ele>902.9</ele>
        <time>2021-12-19T08:41:18Z</time>
      </trkpt>
      <trkpt lat="45.35603" lon="5.74807">
        <ele>903</ele>
        <time>2021-12-19T08:41:19Z</time>
      </trkpt>
      <trkpt lat="45.35603" lon="5.74807">
        <ele>903</ele>
        <time>2021-12-19T08:41:20Z</time>
      </trkpt>
      <trkpt lat="45.35602" lon="5.74807">
        <ele>903.1</ele>
        <time>2021-12-19T08:41:21Z</time>
      </trkpt>
      <trkpt lat="45.35602" lon="5.74807">
        <ele>903.1</ele>
        <time>2021-12-19T08:41:22Z</time>
      </trkpt>
      <trkpt lat="45.35602" lon="5.74808">
        <ele>903.2</ele>
        <time>2021-12-19T08:41:23Z</time>
      </trkpt>
      <trkpt lat="45.35602" lon="5.74808">
        <ele>903.2</ele>
        <time>2021-12-19T08:41:24Z</time>
      </trkpt>
      <trkpt lat="45.35601" lon="5.74808">
        <ele>903.3</ele>
        <time>2021-12-19T08:41:25Z</time>
      </trkpt>
      <trkpt lat="45.35601" lon="5.74808">
        <ele>903.3</ele>
        <time>2021-12-19T08:41:26Z</time>
      </trkpt>
      <trkpt lat="45.35601" lon="5.74809">
        <ele>903.4</ele>
        <time>2021-12-19T08:41:27Z</time>
      </trkpt>
      <trkpt lat="45.35601" lon="5.74809">
        <ele>903.4</ele>
        <time>2021-12-19T08:41:28Z</time>
      </trkpt>
      <trkpt lat="45.356" lon="5.74809">
        <ele>903.5</ele>
        <time>2021-12-19T08:41:29Z</time>
      </trkpt>
      <trkpt lat="45.356" lon="5.74809">
        <ele>903.5</ele>
        <time>2021-12-19T08:41:30Z</time>
      </trkpt>
      <trkpt lat="45.356" lon="5.7481">
        <ele>903.6</ele>
        <time>2021-12-19T08:41:31Z</time>
      </trkpt>
      <trkpt lat="45.356" lon="5.7481">
        <ele>903.6</ele>
        <time>2021-12-19T08:41:32Z</time>
      </trkpt>
      <trkpt lat="45.356" lon="5.7481">
        <ele>903.7</ele>
        <time>2021-12-19T08:41:33Z</time>
      </trkpt>
      <trkpt lat="45.35599" lon="5.7481">
        <ele>903.8</ele>
        <time>2021-12-19T08:41:34Z</time>
      </trkpt>
      <trkpt lat="45.35599" lon="5.74811">
        <ele>903.8</ele>
        <time>2021-12-19T08:41:35Z</time>
      </trkpt>
      <trkpt lat="45.35599" lon="5.74811">
        <ele>903.9</ele>
        <time>2021-12-19T08:41:36Z</time>
      </trkpt>
      <trkpt lat="45.35599" lon="5.74811">
        <ele>903.9</ele>
        <time>2021-12-19T08:41:37Z</time>
      </trkpt>
      <trkpt lat="45.35598" lon="5.74811">
        <ele>904</ele>
        <time>2021-12-19T08:41:38Z</time>
      </trkpt>
      <trkpt lat="45.35598" lon="5.74812">
        <ele>904</ele>
        <time>2021-12-19T08:41:39Z</time>
      </trkpt>
      <trkpt lat="45.35598" lon="5.74812">
        <ele>904.1</ele>
        <time>2021-12-19T08:41:40Z</time>
      </trkpt>
      <trkpt lat="45.35598" lon="5.74812">
        <ele>904.1</ele>
        <time>2021-12-19T08:41:41Z</time>
      </trkpt>
      <trkpt lat="45.35597" lon="5.74812">
        <ele>904.2</ele>
        <time>2021-12-19T08:41:42Z</time>
      </trkpt>
      <trkpt lat="45.35597" lon="5.74813">
        <ele>904.2</ele>
        <time>2021-12-19T08:41:43Z</time>
      </trkpt>
      <trkpt lat="45.35597" lon="5.74813">
        <ele>904.3</ele>
        <time>2021-12-19T08:41:44Z</time>
      </trkpt>
      <trkpt lat="45.35597" lon="5.74813">
        <ele>904.3</ele>
        <time>2021-12-19T08:41:45Z</time>
      </trkpt>
      <trkpt lat="45.35597" lon="5.74813">
        <ele>904.4</ele>
        <time>2021-12-19T08:41:46Z</time>
      </trkpt>
      <trkpt lat="45.35596" lon="5.74814">
        <ele>904.4</ele>
        <time>2021-12-19T08:41:47Z</time>
      </trkpt>
      <trkpt lat="45.35596" lon="5.74814">
        <ele>904.5</ele>
        <time>2021-12-19T08:41:48Z</time>
      </trkpt>
      <trkpt lat="45.35596" lon="5.74814">
        <ele>904.5</ele>
        <time>2021-12-19T08:41:49Z</time>
      </trkpt>
      <trkpt lat="45.35596" lon="5.74814">
        <ele>904.6</ele>
        <time>2021-12-19T08:41:50Z</time>
      </trkpt>
      <trkpt lat="45.35595" lon="5.74815">
        <ele>904.7</ele>
        <time>2021-12-19T08:41:51Z</time>
      </trkpt>
      <trkpt lat="45.35595" lon="5.74815">
        <ele>904.7</ele>
        <time>2021-12-19T08:41:52Z</time>
      </trkpt>
      <trkpt lat="45.35595" lon="5.74815">
        <ele>904.8</ele>
        <time>2021-12-19T08:41:53Z</time>
      </trkpt>
      <trkpt lat="45.35595" lon="5.74815">
        <ele>904.8</ele>
        <time>2021-12-19T08:41:54Z</time>
      </trkpt>
      <trkpt lat="45.35594" lon="5.74816">
        <ele>904.9</ele>
        <time>2021-12-19T08:41:55Z</time>
      </trkpt>
      <trkpt lat="45.35594" lon="5.74816">
        <ele>904.9</ele>
        <time>2021-12-19T08:41:56Z</time>
      </trkpt>
      <trkpt lat="45.35594" lon="5.74816">
        <ele>905</ele>
        <time>2021-12-19T08:41:57Z</time>
      </trkpt>
      <trkpt lat="45.35594" lon="5.74816">
        <ele>905</ele>
        <time>2021-12-19T08:41:58Z</time>
      </trkpt>
      <trkpt lat="45.35594" lon="5.74817">
        <ele>905.1</ele>
        <time>2021-12-19T08:41:59Z</time>
      </trkpt>
      <trkpt lat="45.35593" lon="5.74817">
        <ele>905.1</ele>
        <time>2021-12-19T08:42:00Z</time>
      </trkpt>
      <trkpt lat="45.35593" lon="5.74817">
        <ele>905.2</ele>
        <time>2021-12-19T08:42:01Z</time>
      </trkpt>
      <trkpt lat="45.35593" lon="5.74817">
        <ele>905.2</ele>
        <time>2021-12-19T08:42:02Z</time>
      </trkpt>
      <trkpt lat="45.35593" lon="5.74818">
        <ele>912.5</ele>
        <time>2021-12-19T08:42:03Z</time>
      </trkpt>
      <trkpt lat="45.35592" lon="5.74818">
        <ele>912.5</ele>
        <time>2021-12-19T08:42:04Z</time>
      </trkpt>
      <trkpt lat="45.35592" lon="5.74818">
        <ele>912.6</ele>
        <time>2021-12-19T08:42:05Z</time>
      </trkpt>
      <trkpt lat="45.35592" lon="5.74818">
        <ele>912.6</ele>
        <time>2021-12-19T08:42:06Z</time>
      </trkpt>
      <trkpt lat="45.35592" lon="5.74819">
        <ele>912.7</ele>
        <time>2021-12-19T08:42:07Z</time>
      </trkpt>
      <trkpt lat="45.35591" lon="5.74819">
        <ele>912.7</ele>
        <time>2021-12-19T08:42:08Z</time>
      </trkpt>
      <trkpt lat="45.35591" lon="5.74819">
        <ele>912.8</ele>
        <time>2021-12-19T08:42:09Z</time>
      </trkpt>
      <trkpt lat="45.35591" lon="5.74819">
        <ele>912.8</ele>
        <time>2021-12-19T08:42:10Z</time>
      </trkpt>
      <trkpt lat="45.35591" lon="5.7482">
        <ele>912.9</ele>
        <time>2021-12-19T08:42:11Z</time>
      </trkpt>
      <trkpt lat="45.35591" lon="5.7482">
        <ele>912.9</ele>
        <time>2021-12-19T08:42:12Z</time>
      </trkpt>
      <trkpt lat="45.3559" lon="5.7482">
        <ele>912.9</ele>
        <time>2021-12-19T08:42:13Z</time>
      </trkpt>
      <trkpt lat="45.3559" lon="5.7482">
        <ele>913</ele>
        <time>2021-12-19T08:42:14Z</time>
      </trkpt>
      <trkpt lat="45.3559" lon="5.74821">
        <ele>913</ele>
        <time>2021-12-19T08:42:15Z</time>
      </trkpt>
      <trkpt lat="45.3559" lon="5.74821">
        <ele>913.1</ele>
        <time>2021-12-19T08:42:16Z</time>
      </trkpt>
      <trkpt lat="45.35589" lon="5.74821">
        <ele>913.1</ele>
        <time>2021-12-19T08:42:17Z</time>
      </trkpt>
      <trkpt lat="45.35589" lon="5.74821">
        <ele>913.1</ele>
        <time>2021-12-19T08:42:18Z</time>
      </trkpt>
      <trkpt lat="45.35589" lon="5.74822">
        <ele>913.2</ele>
        <time>2021-12-19T08:42:19Z</time>
      </trkpt>
      <trkpt lat="45.35589" lon="5.74822">
        <ele>913.2</ele>
        <time>2021-12-19T08:42:20Z</time>
      </trkpt>
      <trkpt lat="45.35588" lon="5.74822">
        <ele>913.3</ele>
        <time>2021-12-19T08:42:21Z</time>
      </trkpt>
      <trkpt lat="45.35588" lon="5.74822">
        <ele>913.3</ele>
        <time>2021-12-19T08:42:22Z</time>
      </trkpt>
      <trkpt lat="45.35588" lon="5.74823">
        <ele>913.4</ele>
        <time>2021-12-19T08:42:23Z</time>
      </trkpt>
      <trkpt lat="45.35588" lon="5.74823">
        <ele>913.4</ele>
        <time>2021-12-19T08:42:24Z</time>
      </trkpt>
      <trkpt lat="45.35588" lon="5.74823">
        <ele>913.4</ele>
        <time>2021-12-19T08:42:25Z</time>
      </trkpt>
      <trkpt lat="45.35587" lon="5.74823">
        <ele>913.5</ele>
        <time>2021-12-19T08:42:26Z</time>
      </trkpt>
      <trkpt lat="45.35587" lon="5.74824">
        <ele>913.5</ele>
        <time>2021-12-19T08:42:27Z</time>
      </trkpt>
      <trkpt lat="45.35587" lon="5.74824">
        <ele>913.6</ele>
        <time>2021-12-19T08:42:28Z</time>
      </trkpt>
      <trkpt lat="45.35587" lon="5.74824">
        <ele>913.6</ele>
        <time>2021-12-19T08:42:29Z</time>
      </trkpt>
      <trkpt lat="45.35586" lon="5.74824">
        <ele>913.7</ele>
        <time>2021-12-19T08:42:30Z</time>
      </trkpt>
      <trkpt lat="45.35586" lon="5.74825">
        <ele>913.7</ele>
        <time>2021-12-19T08:42:31Z</time>
      </trkpt>
      <trkpt lat="45.35586" lon="5.74825">
        <ele>913.7</ele>
        <time>2021-12-19T08:42:32Z</time>
      </trkpt>
      <trkpt lat="45.35586" lon="5.74825">
        <ele>913.8</ele>
        <time>2021-12-19T08:42:33Z</time>
      </trkpt>
      <trkpt lat="45.35585" lon="5.74825">
        <ele>913.8</ele>
        <time>2021-12-19T08:42:34Z</time>
      </trkpt>
      <trkpt lat="45.35585" lon="5.74826">
        <ele>913.9</ele>
        <time>2021-12-19T08:42:35Z</time>
      </trkpt>
      <trkpt lat="45.35585" lon="5.74826">
        <ele>913.9</ele>
        <time>2021-12-19T08:42:36Z</time>
      </trkpt>
      <trkpt lat="45.35585" lon="5.74826">
        <ele>913.9</ele>
        <time>2021-12-19T08:42:37Z</time>
      </trkpt>
      <trkpt lat="45.35585" lon="5.74826">
        <ele>914</ele>
        <time>2021-12-19T08:42:38Z</time>
      </trkpt>
      <trkpt lat="45.35584" lon="5.74827">
        <ele>914</ele>
        <time>2021-12-19T08:42:39Z</time>
      </trkpt>
      <trkpt lat="45.35584" lon="5.74827">
        <ele>914</ele>
        <time>2021-12-19T08:42:40Z</time>
      </trkpt>
      <trkpt lat="45.35584" lon="5.74827">
        <ele>914.1</ele>
        <time>2021-12-19T08:42:41Z</time>
      </trkpt>
      <trkpt lat="45.35584" lon="5.74827">
        <ele>914.1</ele>
        <time>2021-12-19T08:42:42Z</time>
      </trkpt>
      <trkpt lat="45.35583" lon="5.74828">
        <ele>914.2</ele>
        <time>2021-12-19T08:42:43Z</time>
      </trkpt>
      <trkpt lat="45.35583" lon="5.74828">
        <ele>914.2</ele>
        <time>2021-12-19T08:42:44Z</time>
      </trkpt>
      <trkpt lat="45.35583" lon="5.74828">
        <ele>914.2</ele>
        <time>2021-12-19T08:42:45Z</time>
      </trkpt>
      <trkpt lat="45.35583" lon="5.74828">
        <ele>914.3</ele>
        <time>2021-12-19T08:42:46Z</time>
      </trkpt>
      <trkpt lat="45.35582" lon="5.74829">
        <ele>914.3</ele>
        <time>2021-12-19T08:42:47Z</time>
      </trkpt>
      <trkpt lat="45.35582" lon="5.74829">
        <ele>914.3</ele>
        <time>2021-12-19T08:42:48Z</time>
      </trkpt>
      <trkpt lat="45.35582" lon="5.74829">
        <ele>914.4</ele>
        <time>2021-12-19T08:42:49Z</time>
      </trkpt>
      <trkpt lat="45.35582" lon="5.74829">
        <ele>914.4</ele>
        <time>2021-12-19T08:42:50Z</time>
      </trkpt>
      <trkpt lat="45.35582" lon="5.7483">
        <ele>914.4</ele>
        <time>2021-12-19T08:42:51Z</time>
      </trkpt>
      <trkpt lat="45.35581" lon="5.7483">
        <ele>914.5</ele>
        <time>2021-12-19T08:42:52Z</time>
      </trkpt>
      <trkpt lat="45.35581" lon="5.7483">
        <ele>914.5</ele>
        <time>2021-12-19T08:42:53Z</time>
      </trkpt>
      <trkpt lat="45.35581" lon="5.7483">
        <ele>914.6</ele>
        <time>2021-12-19T08:42:54Z</time>
      </trkpt>
      <trkpt lat="45.35581" lon="5.74831">
        <ele>914.6</ele>
        <time>2021-12-19T08:42:55Z</time>
      </trkpt>
      <trkpt lat="45.3558" lon="5.74831">
        <ele>914.6</ele>
        <time>2021-12-19T08:42:56Z</time>
      </trkpt>
      <trkpt lat="45.3558" lon="5.74831">
        <ele>914.7</ele>
        <time>2021-12-19T08:42:57Z</time>
      </trkpt>
      <trkpt lat="45.3558" lon="5.74831">
        <ele>914.7</ele>
        <time>2021-12-19T08:42:58Z</time>
      </trkpt>
      <trkpt lat="45.3558" lon="5.74832">
        <ele>914.7</ele>
        <time>2021-12-19T08:42:59Z</time>
      </trkpt>
      <trkpt lat="45.35579" lon="5.74832">
        <ele>914.8</ele>
        <time>2021-12-19T08:43:00Z</time>
      </trkpt>
      <trkpt lat="45.35579" lon="5.74832">
        <ele>914.8</ele>
        <time>2021-12-19T08:43:01Z</time>
      </trkpt>
      <trkpt lat="45.35579" lon="5.74832">
        <ele>914.8</ele>
        <time>2021-12-19T08:43:02Z</time>
      </trkpt>
      <trkpt lat="45.35579" lon="5.74833">
        <ele>914.9</ele>
        <time>2021-12-19T08:43:03Z</time>
      </trkpt>
      <trkpt lat="45.35579" lon="5.74833">
        <ele>914.9</ele>
        <time>2021-12-19T08:43:04Z</time>
      </trkpt>
      <trkpt lat="45.35578" lon="5.74833">
        <ele>914.9</ele>
        <time>2021-12-19T08:43:05Z</time>
      </trkpt>
      <trkpt lat="45.35578" lon="5.74833">
        <ele>915</ele>
        <time>2021-12-19T08:43:06Z</time>
      </trkpt>
      <trkpt lat="45.35578" lon="5.74834">
        <ele>915</ele>
        <time>2021-12-19T08:43:07Z</time>
      </trkpt>
      <trkpt lat="45.35578" lon="5.74834">
        <ele>915</ele>
        <time>2021-12-19T08:43:08Z</time>
      </trkpt>
      <trkpt lat="45.35577" lon="5.74834">
        <ele>915.1</ele>
        <time>2021-12-19T08:43:09Z</time>
      </trkpt>
      <trkpt lat="45.35577" lon="5.74834">
        <ele>915.1</ele>
        <time>2021-12-19T08:43:10Z</time>
      </trkpt>
      <trkpt lat="45.35577" lon="5.74834">
        <ele>915.1</ele>
        <time>2021-12-19T08:43:11Z</time>
      </trkpt>
      <trkpt lat="45.35577" lon="5.74835">
        <ele>915.2</ele>
        <time>2021-12-19T08:43:12Z</time>
      </trkpt>
      <trkpt lat="45.35576" lon="5.74835">
        <ele>915.2</ele>
        <time>2021-12-19T08:43:13Z</time>
      </trkpt>
      <trkpt lat="45.35576" lon="5.74835">
        <ele>915.2</ele>
        <time>2021-12-19T08:43:14Z</time>
      </trkpt>
      <trkpt lat="45.35576" lon="5.74835">
        <ele>915.3</ele>
        <time>2021-12-19T08:43:15Z</time>
      </trkpt>
      <trkpt lat="45.35576" lon="5.74836">
        <ele>915.3</ele>
        <time>2021-12-19T08:43:16Z</time>
      </trkpt>
      <trkpt lat="45.35576" lon="5.74836">
        <ele>915.3</ele>
        <time>2021-12-19T08:43:17Z</time>
      </trkpt>
      <trkpt lat="45.35575" lon="5.74836">
        <ele>915.4</ele>
        <time>2021-12-19T08:43:18Z</time>
      </trkpt>
      <trkpt lat="45.35575" lon="5.74836">
        <ele>915.4</ele>
        <time>2021-12-19T08:43:19Z</time>
      </trkpt>
      <trkpt lat="45.35575" lon="5.74837">
        <ele>915.4</ele>
        <time>2021-12-19T08:43:20Z</time>
      </trkpt>
      <trkpt lat="45.35575" lon="5.74837">
        <ele>915.5</ele>
        <time>2021-12-19T08:43:21Z</time>
      </trkpt>
      <trkpt lat="45.35574" lon="5.74837">
        <ele>915.5</ele>
        <time>2021-12-19T08:43:22Z</time>
      </trkpt>
      <trkpt lat="45.35574" lon="5.74837">
        <ele>915.5</ele>
        <time>2021-12-19T08:43:23Z</time>
      </trkpt>
      <trkpt lat="45.35574" lon="5.74838">
        <ele>915.6</ele>
        <time>2021-12-19T08:43:24Z</time>
      </trkpt>
      <trkpt lat="45.35574" lon="5.74838">
        <ele>915.6</ele>
        <time>2021-12-19T08:43:25Z</time>
      </trkpt>
      <trkpt lat="45.35573" lon="5.74838">
        <ele>915.6</ele>
        <time>2021-12-19T08:43:26Z</time>
      </trkpt>
      <trkpt lat="45.35573" lon="5.74838">
        <ele>915.7</ele>
        <time>2021-12-19T08:43:27Z</time>
      </trkpt>
      <trkpt lat="45.35573" lon="5.74839">
        <ele>915.7</ele>
        <time>2021-12-19T08:43:28Z</time>
      </trkpt>
      <trkpt lat="45.35573" lon="5.74839">
        <ele>915.7</ele>
        <time>2021-12-19T08:43:29Z</time>
      </trkpt>
      <trkpt lat="45.35573" lon="5.74839">
        <ele>915.8</ele>
        <time>2021-12-19T08:43:30Z</time>
      </trkpt>
      <trkpt lat="45.35572" lon="5.74839">
        <ele>915.8</ele>
        <time>2021-12-19T08:43:31Z</time>
      </trkpt>
      <trkpt lat="45.35572" lon="5.7484">
        <ele>915.8</ele>
        <time>2021-12-19T08:43:32Z</time>
      </trkpt>
      <trkpt lat="45.35572" lon="5.7484">
        <ele>915.8</ele>
        <time>2021-12-19T08:43:33Z</time>
      </trkpt>
      <trkpt lat="45.35572" lon="5.7484">
        <ele>915.9</ele>
        <time>2021-12-19T08:43:34Z</time>
      </trkpt>
      <trkpt lat="45.35571" lon="5.7484">
        <ele>915.9</ele>
        <time>2021-12-19T08:43:35Z</time>
      </trkpt>
      <trkpt lat="45.35571" lon="5.74841">
        <ele>915.9</ele>
        <time>2021-12-19T08:43:36Z</time>
      </trkpt>
      <trkpt lat="45.35571" lon="5.74841">
        <ele>916</ele>
        <time>2021-12-19T08:43:37Z</time>
      </trkpt>
      <trkpt lat="45.35571" lon="5.74841">
        <ele>916</ele>
        <time>2021-12-19T08:43:38Z</time>
      </trkpt>
      <trkpt lat="45.3557" lon="5.74841">
        <ele>916</ele>
        <time>2021-12-19T08:43:39Z</time>
      </trkpt>
      <trkpt lat="45.3557" lon="5.74842">
        <ele>916.1</ele>
        <time>2021-12-19T08:43:40Z</time>
      </trkpt>
      <trkpt lat="45.3557" lon="5.74842">
        <ele>916.1</ele>
        <time>2021-12-19T08:43:41Z</time>
      </trkpt>
      <trkpt lat="45.3557" lon="5.74842">
        <ele>916.1</ele>
        <time>2021-12-19T08:43:42Z</time>
      </trkpt>
      <trkpt lat="45.3557" lon="5.74842">
        <ele>916.2</ele>
        <time>2021-12-19T08:43:43Z</time>
      </trkpt>
      <trkpt lat="45.35569" lon="5.74843">
        <ele>916.2</ele>
        <time>2021-12-19T08:43:44Z</time>
      </trkpt>
      <trkpt lat="45.35569" lon="5.74843">
        <ele>916.2</ele>
        <time>2021-12-19T08:43:45Z</time>
      </trkpt>
      <trkpt lat="45.35569" lon="5.74843">
        <ele>916.3</ele>
        <time>2021-12-19T08:43:46Z</time>
      </trkpt>
      <trkpt lat="45.35569" lon="5.74843">
        <ele>916.3</ele>
        <time>2021-12-19T08:43:47Z</time>
      </trkpt>
      <trkpt lat="45.35568" lon="5.74844">
        <ele>916.3</ele>
        <time>2021-12-19T08:43:48Z</time>
      </trkpt>
      <trkpt lat="45.35568" lon="5.74844">
        <ele>916.3</ele>
        <time>2021-12-19T08:43:49Z</time>
      </trkpt>
      <trkpt lat="45.35568" lon="5.74844">
        <ele>916.4</ele>
        <time>2021-12-19T08:43:50Z</time>
      </trkpt>
      <trkpt lat="45.35568" lon="5.74844">
        <ele>916.4</ele>
        <time>2021-12-19T08:43:51Z</time>
      </trkpt>
      <trkpt lat="45.35567" lon="5.74845">
        <ele>916.4</ele>
        <time>2021-12-19T08:43:52Z</time>
      </trkpt>
      <trkpt lat="45.35567" lon="5.74845">
        <ele>916.5</ele>
        <time>2021-12-19T08:43:53Z</time>
      </trkpt>
      <trkpt lat="45.35567" lon="5.74845">
        <ele>916.5</ele>
        <time>2021-12-19T08:43:54Z</time>
      </trkpt>
      <trkpt lat="45.35567" lon="5.74845">
        <ele>916.5</ele>
        <time>2021-12-19T08:43:55Z</time>
      </trkpt>
      <trkpt lat="45.35567" lon="5.74846">
        <ele>916.5</ele>
        <time>2021-12-19T08:43:56Z</time>
      </trkpt>
      <trkpt lat="45.35566" lon="5.74846">
        <ele>916.6</ele>
        <time>2021-12-19T08:43:57Z</time>
      </trkpt>
      <trkpt lat="45.35566" lon="5.74846">
        <ele>916.6</ele>
        <time>2021-12-19T08:43:58Z</time>
      </trkpt>
      <trkpt lat="45.35566" lon="5.74846">
        <ele>916.6</ele>
        <time>2021-12-19T08:43:59Z</time>
      </trkpt>
      <trkpt lat="45.35566" lon="5.74847">
        <ele>916.7</ele>
        <time>2021-12-19T08:44:00Z</time>
      </trkpt>
      <trkpt lat="45.35565" lon="5.74847">
        <ele>916.7</ele>
        <time>2021-12-19T08:44:01Z</time>
      </trkpt>
      <trkpt lat="45.35565" lon="5.74847">
        <ele>916.7</ele>
        <time>2021-12-19T08:44:02Z</time>
      </trkpt>
      <trkpt lat="45.35565" lon="5.74847">
        <ele>916.7</ele>
        <time>2021-12-19T08:44:03Z</time>
      </trkpt>
      <trkpt lat="45.35565" lon="5.74848">
        <ele>916.8</ele>
        <time>2021-12-19T08:44:04Z</time>
      </trkpt>
      <trkpt lat="45.35564" lon="5.74848">
        <ele>916.8</ele>
        <time>2021-12-19T08:44:05Z</time>
      </trkpt>
      <trkpt lat="45.35564" lon="5.74848">
        <ele>916.8</ele>
        <time>2021-12-19T08:44:06Z</time>
      </trkpt>
      <trkpt lat="45.35564" lon="5.74848">
        <ele>916.8</ele>
        <time>2021-12-19T08:44:07Z</time>
      </trkpt>
      <trkpt lat="45.35564" lon="5.74849">
        <ele>916.9</ele>
        <time>2021-12-19T08:44:08Z</time>
      </trkpt>
      <trkpt lat="45.35564" lon="5.74849">
        <ele>916.9</ele>
        <time>2021-12-19T08:44:09Z</time>
      </trkpt>
      <trkpt lat="45.35563" lon="5.74849">
        <ele>916.9</ele>
        <time>2021-12-19T08:44:10Z</time>
      </trkpt>
      <trkpt lat="45.35563" lon="5.74849">
        <ele>916.9</ele>
        <time>2021-12-19T08:44:11Z</time>
      </trkpt>
      <trkpt lat="45.35563" lon="5.7485">
        <ele>917</ele>
        <time>2021-12-19T08:44:12Z</time>
      </trkpt>
      <trkpt lat="45.35563" lon="5.7485">
        <ele>917</ele>
        <time>2021-12-19T08:44:13Z</time>
      </trkpt>
      <trkpt lat="45.35562" lon="5.7485">
        <ele>917</ele>
        <time>2021-12-19T08:44:14Z</time>
      </trkpt>
      <trkpt lat="45.35562" lon="5.7485">
        <ele>917</ele>
        <time>2021-12-19T08:44:15Z</time>
      </trkpt>
      <trkpt lat="45.35562" lon="5.74851">
        <ele>917.1</ele>
        <time>2021-12-19T08:44:16Z</time>
      </trkpt>
      <trkpt lat="45.35562" lon="5.74851">
        <ele>917.1</ele>
        <time>2021-12-19T08:44:17Z</time>
      </trkpt>
      <trkpt lat="45.35561" lon="5.74851">
        <ele>917.1</ele>
        <time>2021-12-19T08:44:18Z</time>
      </trkpt>
      <trkpt lat="45.35561" lon="5.74851">
        <ele>917.1</ele>
        <time>2021-12-19T08:44:19Z</time>
      </trkpt>
      <trkpt lat="45.35561" lon="5.74852">
        <ele>917.2</ele>
        <time>2021-12-19T08:44:20Z</time>
      </trkpt>
      <trkpt lat="45.35561" lon="5.74852">
        <ele>917.2</ele>
        <time>2021-12-19T08:44:21Z</time>
      </trkpt>
      <trkpt lat="45.35561" lon="5.74852">
        <ele>917.2</ele>
        <time>2021-12-19T08:44:22Z</time>
      </trkpt>
      <trkpt lat="45.3556" lon="5.74852">
        <ele>917.2</ele>
        <time>2021-12-19T08:44:23Z</time>
      </trkpt>
      <trkpt lat="45.3556" lon="5.74853">
        <ele>917.2</ele>
        <time>2021-12-19T08:44:24Z</time>
      </trkpt>
      <trkpt lat="45.3556" lon="5.74853">
        <ele>917.3</ele>
        <time>2021-12-19T08:44:25Z</time>
      </trkpt>
      <trkpt lat="45.3556" lon="5.74853">
        <ele>917.3</ele>
        <time>2021-12-19T08:44:26Z</time>
      </trkpt>
      <trkpt lat="45.35559" lon="5.74853">
        <ele>917.3</ele>
        <time>2021-12-19T08:44:27Z</time>
      </trkpt>
      <trkpt lat="45.35559" lon="5.74854">
        <ele>917.3</ele>
        <time>2021-12-19T08:44:28Z</time>
      </trkpt>
      <trkpt lat="45.35559" lon="5.74854">
        <ele>917.3</ele>
        <time>2021-12-19T08:44:29Z</time>
      </trkpt>
      <trkpt lat="45.35559" lon="5.74854">
        <ele>917.4</ele>
        <time>2021-12-19T08:44:30Z</time>
      </trkpt>
      <trkpt lat="45.35558" lon="5.74854">
        <ele>917.4</ele>
        <time>2021-12-19T08:44:31Z</time>
      </trkpt>
      <trkpt lat="45.35558" lon="5.74855">
        <ele>917.4</ele>
        <time>2021-12-19T08:44:32Z</time>
      </trkpt>
      <trkpt lat="45.35558" lon="5.74855">
        <ele>917.4</ele>
        <time>2021-12-19T08:44:33Z</time>
      </trkpt>
      <trkpt lat="45.35558" lon="5.74855">
        <ele>917.4</ele>
        <time>2021-12-19T08:44:34Z</time>
      </trkpt>
      <trkpt lat="45.35558" lon="5.74855">
        <ele>917.5</ele>
        <time>2021-12-19T08:44:35Z</time>
      </trkpt>
      <trkpt lat="45.35557" lon="5.74856">
        <ele>917.5</ele>
        <time>2021-12-19T08:44:36Z</time>
      </trkpt>
      <trkpt lat="45.35557" lon="5.74856">
        <ele>917.5</ele>
        <time>2021-12-19T08:44:37Z</time>
      </trkpt>
      <trkpt lat="45.35557" lon="5.74856">
        <ele>917.5</ele>
        <time>2021-12-19T08:44:38Z</time>
      </trkpt>
      <trkpt lat="45.35557" lon="5.74856">
        <ele>917.5</ele>
        <time>2021-12-19T08:44:39Z</time>
      </trkpt>
      <trkpt lat="45.35556" lon="5.74857">
        <ele>917.5</ele>
        <time>2021-12-19T08:44:40Z</time>
      </trkpt>
      <trkpt lat="45.35556" lon="5.74857">
        <ele>917.6</ele>
        <time>2021-12-19T08:44:41Z</time>
      </trkpt>
      <trkpt lat="45.35556" lon="5.74857">
        <ele>917.6</ele>
        <time>2021-12-19T08:44:42Z</time>
      </trkpt>
      <trkpt lat="45.35556" lon="5.74857">
        <ele>917.6</ele>
        <time>2021-12-19T08:44:43Z</time>
      </trkpt>
      <trkpt lat="45.35555" lon="5.74858">
        <ele>917.6</ele>
        <time>2021-12-19T08:44:44Z</time>
      </trkpt>
      <trkpt lat="45.35555" lon="5.74858">
        <ele>917.6</ele>
        <time>2021-12-19T08:44:45Z</time>
      </trkpt>
      <trkpt lat="45.35555" lon="5.74858">
        <ele>917.6</ele>
        <time>2021-12-19T08:44:46Z</time>
      </trkpt>
      <trkpt lat="45.35555" lon="5.74858">
        <ele>917.7</ele>
        <time>2021-12-19T08:44:47Z</time>
      </trkpt>
      <trkpt lat="45.35555" lon="5.74859">
        <ele>917.7</ele>
        <time>2021-12-19T08:44:48Z</time>
      </trkpt>
      <trkpt lat="45.35554" lon="5.74859">
        <ele>917.7</ele>
        <time>2021-12-19T08:44:49Z</time>
      </trkpt>
      <trkpt lat="45.35554" lon="5.74859">
        <ele>917.7</ele>
        <time>2021-12-19T08:44:50Z</time>
      </trkpt>
      <trkpt lat="45.35554" lon="5.74859">
        <ele>917.7</ele>
        <time>2021-12-19T08:44:51Z</time>
      </trkpt>
      <trkpt lat="45.35554" lon="5.7486">
        <ele>917.8</ele>
        <time>2021-12-19T08:44:52Z</time>
      </trkpt>
      <trkpt lat="45.35553" lon="5.7486">
        <ele>917.8</ele>
        <time>2021-12-19T08:44:53Z</time>
      </trkpt>
      <trkpt lat="45.35553" lon="5.7486">
        <ele>917.8</ele>
        <time>2021-12-19T08:44:54Z</time>
      </trkpt>
      <trkpt lat="45.35553" lon="5.7486">
        <ele>917.8</ele>
        <time>2021-12-19T08:44:55Z</time>
      </trkpt>
      <trkpt lat="45.35553" lon="5.74861">
        <ele>917.8</ele>
        <time>2021-12-19T08:44:56Z</time>
      </trkpt>
      <trkpt lat="45.35552" lon="5.74861">
        <ele>917.8</ele>
        <time>2021-12-19T08:44:57Z</time>
      </trkpt>
      <trkpt lat="45.35552" lon="5.74861">
        <ele>917.8</ele>
        <time>2021-12-19T08:44:58Z</time>
      </trkpt>
      <trkpt lat="45.35552" lon="5.74861">
        <ele>917.9</ele>
        <time>2021-12-19T08:44:59Z</time>
      </trkpt>
      <trkpt lat="45.35552" lon="5.74862">
        <ele>917.9</ele>
        <time>2021-12-19T08:45:00Z</time>
      </trkpt>
      <trkpt lat="45.35552" lon="5.74862">
        <ele>917.9</ele>
        <time>2021-12-19T08:45:01Z</time>
      </trkpt>
      <trkpt lat="45.35551" lon="5.74862">
        <ele>917.9</ele>
        <time>2021-12-19T08:45:02Z</time>
      </trkpt>
      <trkpt lat="45.35551" lon="5.74862">
        <ele>917.9</ele>
        <time>2021-12-19T08:45:03Z</time>
      </trkpt>
      <trkpt lat="45.35551" lon="5.74863">
        <ele>917.9</ele>
        <time>2021-12-19T08:45:04Z</time>
      </trkpt>
      <trkpt lat="45.35551" lon="5.74863">
        <ele>918</ele>
        <time>2021-12-19T08:45:05Z</time>
      </trkpt>
      <trkpt lat="45.3555" lon="5.74863">
        <ele>918</ele>
        <time>2021-12-19T08:45:06Z</time>
      </trkpt>
      <trkpt lat="45.3555" lon="5.74863">
        <ele>918</ele>
        <time>2021-12-19T08:45:07Z</time>
      </trkpt>
      <trkpt lat="45.3555" lon="5.74864">
        <ele>918</ele>
        <time>2021-12-19T08:45:08Z</time>
      </trkpt>
      <trkpt lat="45.3555" lon="5.74864">
        <ele>918</ele>
        <time>2021-12-19T08:45:09Z</time>
      </trkpt>
      <trkpt lat="45.35549" lon="5.74864">
        <ele>918</ele>
        <time>2021-12-19T08:45:10Z</time>
      </trkpt>
      <trkpt lat="45.35549" lon="5.74864">
        <ele>918.1</ele>
        <time>2021-12-19T08:45:11Z</time>
      </trkpt>
      <trkpt lat="45.35549" lon="5.74865">
        <ele>918.1</ele>
        <time>2021-12-19T08:45:12Z</time>
      </trkpt>
      <trkpt lat="45.35549" lon="5.74865">
        <ele>918.1</ele>
        <time>2021-12-19T08:45:13Z</time>
      </trkpt>
      <trkpt lat="45.35549" lon="5.74865">
        <ele>918.1</ele>
        <time>2021-12-19T08:45:14Z</time>
      </trkpt>
      <trkpt lat="45.35548" lon="5.74865">
        <ele>918.1</ele>
        <time>2021-12-19T08:45:15Z</time>
      </trkpt>
      <trkpt lat="45.35548" lon="5.74866">
        <ele>918.1</ele>
        <time>2021-12-19T08:45:16Z</time>
      </trkpt>
      <trkpt lat="45.35548" lon="5.74866">
        <ele>918.2</ele>
        <time>2021-12-19T08:45:17Z</time>
      </trkpt>
      <trkpt lat="45.35548" lon="5.74866">
        <ele>918.2</ele>
        <time>2021-12-19T08:45:18Z</time>
      </trkpt>
      <trkpt lat="45.35547" lon="5.74866">
        <ele>918.2</ele>
        <time>2021-12-19T08:45:19Z</time>
      </trkpt>
      <trkpt lat="45.35547" lon="5.74866">
        <ele>918.2</ele>
        <time>2021-12-19T08:45:20Z</time>
      </trkpt>
      <trkpt lat="45.35547" lon="5.74867">
        <ele>918.2</ele>
        <time>2021-12-19T08:45:21Z</time>
      </trkpt>
      <trkpt lat="45.35547" lon="5.74867">
        <ele>918.2</ele>
        <time>2021-12-19T08:45:22Z</time>
      </trkpt>
      <trkpt lat="45.35546" lon="5.74867">
        <ele>918.2</ele>
        <time>2021-12-19T08:45:23Z</time>
      </trkpt>
      <trkpt lat="45.35546" lon="5.74867">
        <ele>918.3</ele>
        <time>2021-12-19T08:45:24Z</time>
      </trkpt>
      <trkpt lat="45.35546" lon="5.74868">
        <ele>918.3</ele>
        <time>2021-12-19T08:45:25Z</time>
      </trkpt>
      <trkpt lat="45.35546" lon="5.74868">
        <ele>918.3</ele>
        <time>2021-12-19T08:45:26Z</time>
      </trkpt>
      <trkpt lat="45.35546" lon="5.74868">
        <ele>918.3</ele>
        <time>2021-12-19T08:45:27Z</time>
      </trkpt>
      <trkpt lat="45.35545" lon="5.74868">
        <ele>918.3</ele>
        <time>2021-12-19T08:45:28Z</time>
      </trkpt>
      <trkpt lat="45.35545" lon="5.74869">
        <ele>918.4</ele>
        <time>2021-12-19T08:45:29Z</time>
      </trkpt>
      <trkpt lat="45.35545" lon="5.74869">
        <ele>918.4</ele>
        <time>2021-12-19T08:45:30Z</time>
      </trkpt>
      <trkpt lat="45.35545" lon="5.74869">
        <ele>918.4</ele>
        <time>2021-12-19T08:45:31Z</time>
      </trkpt>
      <trkpt lat="45.35544" lon="5.74869">
        <ele>918.4</ele>
        <time>2021-12-19T08:45:32Z</time>
      </trkpt>
      <trkpt lat="45.35544" lon="5.7487">
        <ele>918.4</ele>
        <time>2021-12-19T08:45:33Z</time>
      </trkpt>
      <trkpt lat="45.35544" lon="5.7487">
        <ele>918.4</ele>
        <time>2021-12-19T08:45:34Z</time>
      </trkpt>
      <trkpt lat="45.35544" lon="5.7487">
        <ele>918.5</ele>
        <time>2021-12-19T08:45:35Z</time>
      </trkpt>
      <trkpt lat="45.35543" lon="5.7487">
        <ele>918.5</ele>
        <time>2021-12-19T08:45:36Z</time>
      </trkpt>
      <trkpt lat="45.35543" lon="5.74871">
        <ele>918.5</ele>
        <time>2021-12-19T08:45:37Z</time>
      </trkpt>
      <trkpt lat="45.35543" lon="5.74871">
        <ele>918.5</ele>
        <time>2021-12-19T08:45:38Z</time>
      </trkpt>
      <trkpt lat="45.35543" lon="5.74871">
        <ele>918.5</ele>
        <time>2021-12-19T08:45:39Z</time>
      </trkpt>
      <trkpt lat="45.35543" lon="5.74871">
        <ele>918.5</ele>
        <time>2021-12-19T08:45:40Z</time>
      </trkpt>
      <trkpt lat="45.35542" lon="5.74872">
        <ele>918.6</ele>
        <time>2021-12-19T08:45:41Z</time>
      </trkpt>
      <trkpt lat="45.35542" lon="5.74872">
        <ele>918.6</ele>
        <time>2021-12-19T08:45:42Z</time>
      </trkpt>
      <trkpt lat="45.35542" lon="5.74872">
        <ele>918.6</ele>
        <time>2021-12-19T08:45:43Z</time>
      </trkpt>
      <trkpt lat="45.35542" lon="5.74872">
        <ele>918.6</ele>
        <time>2021-12-19T08:45:44Z</time>
      </trkpt>
      <trkpt lat="45.35541" lon="5.74873">
        <ele>918.6</ele>
        <time>2021-12-19T08:45:45Z</time>
      </trkpt>
      <trkpt lat="45.35541" lon="5.74873">
        <ele>918.7</ele>
        <time>2021-12-19T08:45:46Z</time>
      </trkpt>
      <trkpt lat="45.35541" lon="5.74873">
        <ele>918.7</ele>
        <time>2021-12-19T08:45:47Z</time>
      </trkpt>
      <trkpt lat="45.35541" lon="5.74873">
        <ele>918.7</ele>
        <time>2021-12-19T08:45:48Z</time>
      </trkpt>
      <trkpt lat="45.3554" lon="5.74874">
        <ele>918.7</ele>
        <time>2021-12-19T08:45:49Z</time>
      </trkpt>
      <trkpt lat="45.3554" lon="5.74874">
        <ele>918.8</ele>
        <time>2021-12-19T08:45:50Z</time>
      </trkpt>
      <trkpt lat="45.3554" lon="5.74874">
        <ele>918.8</ele>
        <time>2021-12-19T08:45:51Z</time>
      </trkpt>
      <trkpt lat="45.3554" lon="5.74874">
        <ele>918.8</ele>
        <time>2021-12-19T08:45:52Z</time>
      </trkpt>
      <trkpt lat="45.3554" lon="5.74875">
        <ele>918.8</ele>
        <time>2021-12-19T08:45:53Z</time>
      </trkpt>
      <trkpt lat="45.35539" lon="5.74875">
        <ele>918.8</ele>
        <time>2021-12-19T08:45:54Z</time>
      </trkpt>
      <trkpt lat="45.35539" lon="5.74875">
        <ele>918.9</ele>
        <time>2021-12-19T08:45:55Z</time>
      </trkpt>
      <trkpt lat="45.35539" lon="5.74875">
        <ele>918.9</ele>
        <time>2021-12-19T08:45:56Z</time>
      </trkpt>
      <trkpt lat="45.35539" lon="5.74876">
        <ele>918.9</ele>
        <time>2021-12-19T08:45:57Z</time>
      </trkpt>
      <trkpt lat="45.35538" lon="5.74876">
        <ele>918.9</ele>
        <time>2021-12-19T08:45:58Z</time>
      </trkpt>
      <trkpt lat="45.35538" lon="5.74876">
        <ele>918.9</ele>
        <time>2021-12-19T08:45:59Z</time>
      </trkpt>
      <trkpt lat="45.35538" lon="5.74876">
        <ele>919</ele>
        <time>2021-12-19T08:46:00Z</time>
      </trkpt>
      <trkpt lat="45.35538" lon="5.74877">
        <ele>919</ele>
        <time>2021-12-19T08:46:01Z</time>
      </trkpt>
      <trkpt lat="45.35537" lon="5.74877">
        <ele>919</ele>
        <time>2021-12-19T08:46:02Z</time>
      </trkpt>
      <trkpt lat="45.35537" lon="5.74877">
        <ele>919</ele>
        <time>2021-12-19T08:46:03Z</time>
      </trkpt>
      <trkpt lat="45.35537" lon="5.74877">
        <ele>919.1</ele>
        <time>2021-12-19T08:46:04Z</time>
      </trkpt>
      <trkpt lat="45.35537" lon="5.74878">
        <ele>919.1</ele>
        <time>2021-12-19T08:46:05Z</time>
      </trkpt>
      <trkpt lat="45.35537" lon="5.74878">
        <ele>919.1</ele>
        <time>2021-12-19T08:46:06Z</time>
      </trkpt>
      <trkpt lat="45.35536" lon="5.74878">
        <ele>919.1</ele>
        <time>2021-12-19T08:46:07Z</time>
      </trkpt>
      <trkpt lat="45.35536" lon="5.74878">
        <ele>919.1</ele>
        <time>2021-12-19T08:46:08Z</time>
      </trkpt>
      <trkpt lat="45.35536" lon="5.74879">
        <ele>919.2</ele>
        <time>2021-12-19T08:46:09Z</time>
      </trkpt>
      <trkpt lat="45.35536" lon="5.74879">
        <ele>919.2</ele>
        <time>2021-12-19T08:46:10Z</time>
      </trkpt>
      <trkpt lat="45.35535" lon="5.74879">
        <ele>919.2</ele>
        <time>2021-12-19T08:46:11Z</time>
      </trkpt>
      <trkpt lat="45.35535" lon="5.74879">
        <ele>919.2</ele>
        <time>2021-12-19T08:46:12Z</time>
      </trkpt>
      <trkpt lat="45.35535" lon="5.7488">
        <ele>919.3</ele>
        <time>2021-12-19T08:46:13Z</time>
      </trkpt>
      <trkpt lat="45.35535" lon="5.7488">
        <ele>919.3</ele>
        <time>2021-12-19T08:46:14Z</time>
      </trkpt>
      <trkpt lat="45.35534" lon="5.7488">
        <ele>919.3</ele>
        <time>2021-12-19T08:46:15Z</time>
      </trkpt>
      <trkpt lat="45.35534" lon="5.7488">
        <ele>919.3</ele>
        <time>2021-12-19T08:46:16Z</time>
      </trkpt>
      <trkpt lat="45.35534" lon="5.74881">
        <ele>919.4</ele>
        <time>2021-12-19T08:46:17Z</time>
      </trkpt>
      <trkpt lat="45.35534" lon="5.74881">
        <ele>919.4</ele>
        <time>2021-12-19T08:46:18Z</time>
      </trkpt>
      <trkpt lat="45.35534" lon="5.74881">
        <ele>919.4</ele>
        <time>2021-12-19T08:46:19Z</time>
      </trkpt>
      <trkpt lat="45.35533" lon="5.74881">
        <ele>919.4</ele>
        <time>2021-12-19T08:46:20Z</time>
      </trkpt>
      <trkpt lat="45.35533" lon="5.74882">
        <ele>919.5</ele>
        <time>2021-12-19T08:46:21Z</time>
      </trkpt>
      <trkpt lat="45.35533" lon="5.74882">
        <ele>919.5</ele>
        <time>2021-12-19T08:46:22Z</time>
      </trkpt>
      <trkpt lat="45.35533" lon="5.74882">
        <ele>919.5</ele>
        <time>2021-12-19T08:46:23Z</time>
      </trkpt>
      <trkpt lat="45.35532" lon="5.74882">
        <ele>919.5</ele>
        <time>2021-12-19T08:46:24Z</time>
      </trkpt>
      <trkpt lat="45.35532" lon="5.74883">
        <ele>919.5</ele>
        <time>2021-12-19T08:46:25Z</time>
      </trkpt>
      <trkpt lat="45.35532" lon="5.74883">
        <ele>919.6</ele>
        <time>2021-12-19T08:46:26Z</time>
      </trkpt>
      <trkpt lat="45.35532" lon="5.74883">
        <ele>919.6</ele>
        <time>2021-12-19T08:46:27Z</time>
      </trkpt>
      <trkpt lat="45.35531" lon="5.74883">
        <ele>919.6</ele>
        <time>2021-12-19T08:46:28Z</time>
      </trkpt>
      <trkpt lat="45.35531" lon="5.74884">
        <ele>919.7</ele>
        <time>2021-12-19T08:46:29Z</time>
      </trkpt>
      <trkpt lat="45.35531" lon="5.74884">
        <ele>919.7</ele>
        <time>2021-12-19T08:46:30Z</time>
      </trkpt>
      <trkpt lat="45.35531" lon="5.74884">
        <ele>919.7</ele>
        <time>2021-12-19T08:46:31Z</time>
      </trkpt>
      <trkpt lat="45.35531" lon="5.74884">
        <ele>919.7</ele>
        <time>2021-12-19T08:46:32Z</time>
      </trkpt>
      <trkpt lat="45.3553" lon="5.74885">
        <ele>919.8</ele>
        <time>2021-12-19T08:46:33Z</time>
      </trkpt>
      <trkpt lat="45.3553" lon="5.74885">
        <ele>919.8</ele>
        <time>2021-12-19T08:46:34Z</time>
      </trkpt>
      <trkpt lat="45.3553" lon="5.74885">
        <ele>919.8</ele>
        <time>2021-12-19T08:46:35Z</time>
      </trkpt>
      <trkpt lat="45.3553" lon="5.74885">
        <ele>919.8</ele>
        <time>2021-12-19T08:46:36Z</time>
      </trkpt>
      <trkpt lat="45.35529" lon="5.74886">
        <ele>919.9</ele>
        <time>2021-12-19T08:46:37Z</time>
      </trkpt>
      <trkpt lat="45.35529" lon="5.74886">
        <ele>919.9</ele>
        <time>2021-12-19T08:46:38Z</time>
      </trkpt>
      <trkpt lat="45.35529" lon="5.74886">
        <ele>919.9</ele>
        <time>2021-12-19T08:46:39Z</time>
      </trkpt>
      <trkpt lat="45.35529" lon="5.74886">
        <ele>919.9</ele>
        <time>2021-12-19T08:46:40Z</time>
      </trkpt>
      <trkpt lat="45.35528" lon="5.74887">
        <ele>920</ele>
        <time>2021-12-19T08:46:41Z</time>
      </trkpt>
      <trkpt lat="45.35528" lon="5.74887">
        <ele>920</ele>
        <time>2021-12-19T08:46:42Z</time>
      </trkpt>
      <trkpt lat="45.35528" lon="5.74887">
        <ele>920</ele>
        <time>2021-12-19T08:46:43Z</time>
      </trkpt>
      <trkpt lat="45.35528" lon="5.74887">
        <ele>920</ele>
        <time>2021-12-19T08:46:44Z</time>
      </trkpt>
      <trkpt lat="45.35528" lon="5.74888">
        <ele>920.1</ele>
        <time>2021-12-19T08:46:45Z</time>
      </trkpt>
      <trkpt lat="45.35527" lon="5.74888">
        <ele>920.1</ele>
        <time>2021-12-19T08:46:46Z</time>
      </trkpt>
      <trkpt lat="45.35527" lon="5.74888">
        <ele>920.1</ele>
        <time>2021-12-19T08:46:47Z</time>
      </trkpt>
      <trkpt lat="45.35527" lon="5.74888">
        <ele>920.2</ele>
        <time>2021-12-19T08:46:48Z</time>
      </trkpt>
      <trkpt lat="45.35527" lon="5.74889">
        <ele>920.2</ele>
        <time>2021-12-19T08:46:49Z</time>
      </trkpt>
      <trkpt lat="45.35526" lon="5.74889">
        <ele>920.2</ele>
        <time>2021-12-19T08:46:50Z</time>
      </trkpt>
      <trkpt lat="45.35526" lon="5.74889">
        <ele>920.2</ele>
        <time>2021-12-19T08:46:51Z</time>
      </trkpt>
      <trkpt lat="45.35526" lon="5.74889">
        <ele>920.3</ele>
        <time>2021-12-19T08:46:52Z</time>
      </trkpt>
      <trkpt lat="45.35526" lon="5.7489">
        <ele>920.3</ele>
        <time>2021-12-19T08:46:53Z</time>
      </trkpt>
      <trkpt lat="45.35525" lon="5.7489">
        <ele>920.3</ele>
        <time>2021-12-19T08:46:54Z</time>
      </trkpt>
      <trkpt lat="45.35525" lon="5.7489">
        <ele>920.3</ele>
        <time>2021-12-19T08:46:55Z</time>
      </trkpt>
      <trkpt lat="45.35525" lon="5.7489">
        <ele>920.4</ele>
        <time>2021-12-19T08:46:56Z</time>
      </trkpt>
      <trkpt lat="45.35525" lon="5.74891">
        <ele>920.4</ele>
        <time>2021-12-19T08:46:57Z</time>
      </trkpt>
      <trkpt lat="45.35525" lon="5.74891">
        <ele>920.4</ele>
        <time>2021-12-19T08:46:58Z</time>
      </trkpt>
      <trkpt lat="45.35524" lon="5.74891">
        <ele>920.4</ele>
        <time>2021-12-19T08:46:59Z</time>
      </trkpt>
      <trkpt lat="45.35524" lon="5.74891">
        <ele>920.5</ele>
        <time>2021-12-19T08:47:00Z</time>
      </trkpt>
      <trkpt lat="45.35524" lon="5.74892">
        <ele>920.5</ele>
        <time>2021-12-19T08:47:01Z</time>
      </trkpt>
      <trkpt lat="45.35524" lon="5.74892">
        <ele>920.5</ele>
        <time>2021-12-19T08:47:02Z</time>
      </trkpt>
      <trkpt lat="45.35523" lon="5.74892">
        <ele>920.6</ele>
        <time>2021-12-19T08:47:03Z</time>
      </trkpt>
      <trkpt lat="45.35523" lon="5.74892">
        <ele>920.6</ele>
        <time>2021-12-19T08:47:04Z</time>
      </trkpt>
      <trkpt lat="45.35523" lon="5.74893">
        <ele>920.6</ele>
        <time>2021-12-19T08:47:05Z</time>
      </trkpt>
      <trkpt lat="45.35523" lon="5.74893">
        <ele>920.6</ele>
        <time>2021-12-19T08:47:06Z</time>
      </trkpt>
      <trkpt lat="45.35522" lon="5.74893">
        <ele>920.7</ele>
        <time>2021-12-19T08:47:07Z</time>
      </trkpt>
      <trkpt lat="45.35522" lon="5.74893">
        <ele>920.7</ele>
        <time>2021-12-19T08:47:08Z</time>
      </trkpt>
      <trkpt lat="45.35522" lon="5.74894">
        <ele>920.7</ele>
        <time>2021-12-19T08:47:09Z</time>
      </trkpt>
      <trkpt lat="45.35522" lon="5.74894">
        <ele>920.7</ele>
        <time>2021-12-19T08:47:10Z</time>
      </trkpt>
      <trkpt lat="45.35522" lon="5.74894">
        <ele>920.8</ele>
        <time>2021-12-19T08:47:11Z</time>
      </trkpt>
      <trkpt lat="45.35521" lon="5.74894">
        <ele>920.8</ele>
        <time>2021-12-19T08:47:12Z</time>
      </trkpt>
      <trkpt lat="45.35521" lon="5.74895">
        <ele>920.8</ele>
        <time>2021-12-19T08:47:13Z</time>
      </trkpt>
      <trkpt lat="45.35521" lon="5.74895">
        <ele>920.8</ele>
        <time>2021-12-19T08:47:14Z</time>
      </trkpt>
      <trkpt lat="45.35521" lon="5.74895">
        <ele>920.9</ele>
        <time>2021-12-19T08:47:15Z</time>
      </trkpt>
      <trkpt lat="45.3552" lon="5.74895">
        <ele>920.9</ele>
        <time>2021-12-19T08:47:16Z</time>
      </trkpt>
      <trkpt lat="45.3552" lon="5.74896">
        <ele>920.9</ele>
        <time>2021-12-19T08:47:17Z</time>
      </trkpt>
      <trkpt lat="45.3552" lon="5.74896">
        <ele>921</ele>
        <time>2021-12-19T08:47:18Z</time>
      </trkpt>
      <trkpt lat="45.3552" lon="5.74896">
        <ele>921</ele>
        <time>2021-12-19T08:47:19Z</time>
      </trkpt>
      <trkpt lat="45.35519" lon="5.74896">
        <ele>921</ele>
        <time>2021-12-19T08:47:20Z</time>
      </trkpt>
      <trkpt lat="45.35519" lon="5.74897">
        <ele>921</ele>
        <time>2021-12-19T08:47:21Z</time>
      </trkpt>
      <trkpt lat="45.35519" lon="5.74897">
        <ele>921.1</ele>
        <time>2021-12-19T08:47:22Z</time>
      </trkpt>
      <trkpt lat="45.35519" lon="5.74897">
        <ele>921.1</ele>
        <time>2021-12-19T08:47:23Z</time>
      </trkpt>
      <trkpt lat="45.35519" lon="5.74897">
        <ele>921.1</ele>
        <time>2021-12-19T08:47:24Z</time>
      </trkpt>
      <trkpt lat="45.35518" lon="5.74897">
        <ele>921.1</ele>
        <time>2021-12-19T08:47:25Z</time>
      </trkpt>
      <trkpt lat="45.35518" lon="5.74898">
        <ele>921.2</ele>
        <time>2021-12-19T08:47:26Z</time>
      </trkpt>
      <trkpt lat="45.35518" lon="5.74898">
        <ele>921.2</ele>
        <time>2021-12-19T08:47:27Z</time>
      </trkpt>
      <trkpt lat="45.35518" lon="5.74898">
        <ele>921.2</ele>
        <time>2021-12-19T08:47:28Z</time>
      </trkpt>
      <trkpt lat="45.35517" lon="5.74898">
        <ele>921.2</ele>
        <time>2021-12-19T08:47:29Z</time>
      </trkpt>
      <trkpt lat="45.35517" lon="5.74899">
        <ele>921.3</ele>
        <time>2021-12-19T08:47:30Z</time>
      </trkpt>
      <trkpt lat="45.35517" lon="5.74899">
        <ele>921.3</ele>
        <time>2021-12-19T08:47:31Z</time>
      </trkpt>
      <trkpt lat="45.35517" lon="5.74899">
        <ele>921.3</ele>
        <time>2021-12-19T08:47:32Z</time>
      </trkpt>
      <trkpt lat="45.35516" lon="5.74899">
        <ele>921.3</ele>
        <time>2021-12-19T08:47:33Z</time>
      </trkpt>
      <trkpt lat="45.35516" lon="5.749">
        <ele>921.4</ele>
        <time>2021-12-19T08:47:34Z</time>
      </trkpt>
      <trkpt lat="45.35516" lon="5.749">
        <ele>921.4</ele>
        <time>2021-12-19T08:47:35Z</time>
      </trkpt>
      <trkpt lat="45.35516" lon="5.749">
        <ele>921.4</ele>
        <time>2021-12-19T08:47:36Z</time>
      </trkpt>
      <trkpt lat="45.35516" lon="5.749">
        <ele>921.4</ele>
        <time>2021-12-19T08:47:37Z</time>
      </trkpt>
      <trkpt lat="45.35515" lon="5.74901">
        <ele>921.5</ele>
        <time>2021-12-19T08:47:38Z</time>
      </trkpt>
      <trkpt lat="45.35515" lon="5.74901">
        <ele>921.5</ele>
        <time>2021-12-19T08:47:39Z</time>
      </trkpt>
      <trkpt lat="45.35515" lon="5.74901">
        <ele>921.5</ele>
        <time>2021-12-19T08:47:40Z</time>
      </trkpt>
      <trkpt lat="45.35515" lon="5.74901">
        <ele>921.5</ele>
        <time>2021-12-19T08:47:41Z</time>
      </trkpt>
      <trkpt lat="45.35514" lon="5.74902">
        <ele>921.6</ele>
        <time>2021-12-19T08:47:42Z</time>
      </trkpt>
      <trkpt lat="45.35514" lon="5.74902">
        <ele>921.6</ele>
        <time>2021-12-19T08:47:43Z</time>
      </trkpt>
      <trkpt lat="45.35514" lon="5.74902">
        <ele>921.6</ele>
        <time>2021-12-19T08:47:44Z</time>
      </trkpt>
      <trkpt lat="45.35514" lon="5.74902">
        <ele>921.6</ele>
        <time>2021-12-19T08:47:45Z</time>
      </trkpt>
      <trkpt lat="45.35513" lon="5.74903">
        <ele>921.7</ele>
        <time>2021-12-19T08:47:46Z</time>
      </trkpt>
      <trkpt lat="45.35513" lon="5.74903">
        <ele>921.7</ele>
        <time>2021-12-19T08:47:47Z</time>
      </trkpt>
      <trkpt lat="45.35513" lon="5.74903">
        <ele>921.7</ele>
        <time>2021-12-19T08:47:48Z</time>
      </trkpt>
      <trkpt lat="45.35513" lon="5.74903">
        <ele>921.7</ele>
        <time>2021-12-19T08:47:49Z</time>
      </trkpt>
      <trkpt lat="45.35513" lon="5.74904">
        <ele>921.8</ele>
        <time>2021-12-19T08:47:50Z</time>
      </trkpt>
      <trkpt lat="45.35512" lon="5.74904">
        <ele>921.8</ele>
        <time>2021-12-19T08:47:51Z</time>
      </trkpt>
      <trkpt lat="45.35512" lon="5.74904">
        <ele>921.8</ele>
        <time>2021-12-19T08:47:52Z</time>
      </trkpt>
      <trkpt lat="45.35512" lon="5.74904">
        <ele>921.8</ele>
        <time>2021-12-19T08:47:53Z</time>
      </trkpt>
      <trkpt lat="45.35512" lon="5.74905">
        <ele>921.9</ele>
        <time>2021-12-19T08:47:54Z</time>
      </trkpt>
      <trkpt lat="45.35511" lon="5.74905">
        <ele>921.9</ele>
        <time>2021-12-19T08:47:55Z</time>
      </trkpt>
      <trkpt lat="45.35511" lon="5.74905">
        <ele>921.9</ele>
        <time>2021-12-19T08:47:56Z</time>
      </trkpt>
      <trkpt lat="45.35511" lon="5.74905">
        <ele>922</ele>
        <time>2021-12-19T08:47:57Z</time>
      </trkpt>
      <trkpt lat="45.35511" lon="5.74906">
        <ele>922</ele>
        <time>2021-12-19T08:47:58Z</time>
      </trkpt>
      <trkpt lat="45.3551" lon="5.74906">
        <ele>922</ele>
        <time>2021-12-19T08:47:59Z</time>
      </trkpt>
      <trkpt lat="45.3551" lon="5.74906">
        <ele>922</ele>
        <time>2021-12-19T08:48:00Z</time>
      </trkpt>
      <trkpt lat="45.3551" lon="5.74906">
        <ele>922.1</ele>
        <time>2021-12-19T08:48:01Z</time>
      </trkpt>
      <trkpt lat="45.3551" lon="5.74907">
        <ele>922.1</ele>
        <time>2021-12-19T08:48:02Z</time>
      </trkpt>
      <trkpt lat="45.3551" lon="5.74907">
        <ele>922.1</ele>
        <time>2021-12-19T08:48:03Z</time>
      </trkpt>
      <trkpt lat="45.35509" lon="5.74907">
        <ele>922.1</ele>
        <time>2021-12-19T08:48:04Z</time>
      </trkpt>
      <trkpt lat="45.35509" lon="5.74907">
        <ele>922.2</ele>
        <time>2021-12-19T08:48:05Z</time>
      </trkpt>
      <trkpt lat="45.35509" lon="5.74908">
        <ele>922.2</ele>
        <time>2021-12-19T08:48:06Z</time>
      </trkpt>
      <trkpt lat="45.35509" lon="5.74908">
        <ele>922.2</ele>
        <time>2021-12-19T08:48:07Z</time>
      </trkpt>
      <trkpt lat="45.35508" lon="5.74908">
        <ele>922.2</ele>
        <time>2021-12-19T08:48:08Z</time>
      </trkpt>
      <trkpt lat="45.35508" lon="5.74908">
        <ele>922.3</ele>
        <time>2021-12-19T08:48:09Z</time>
      </trkpt>
      <trkpt lat="45.35508" lon="5.74909">
        <ele>922.3</ele>
        <time>2021-12-19T08:48:10Z</time>
      </trkpt>
      <trkpt lat="45.35508" lon="5.74909">
        <ele>922.3</ele>
        <time>2021-12-19T08:48:11Z</time>
      </trkpt>
      <trkpt lat="45.35507" lon="5.74909">
        <ele>922.3</ele>
        <time>2021-12-19T08:48:12Z</time>
      </trkpt>
      <trkpt lat="45.35507" lon="5.74909">
        <ele>922.4</ele>
        <time>2021-12-19T08:48:13Z</time>
      </trkpt>
      <trkpt lat="45.35507" lon="5.7491">
        <ele>922.4</ele>
        <time>2021-12-19T08:48:14Z</time>
      </trkpt>
      <trkpt lat="45.35507" lon="5.7491">
        <ele>922.4</ele>
        <time>2021-12-19T08:48:15Z</time>
      </trkpt>
      <trkpt lat="45.35507" lon="5.7491">
        <ele>922.4</ele>
        <time>2021-12-19T08:48:16Z</time>
      </trkpt>
      <trkpt lat="45.35506" lon="5.7491">
        <ele>922.5</ele>
        <time>2021-12-19T08:48:17Z</time>
      </trkpt>
      <trkpt lat="45.35506" lon="5.74911">
        <ele>922.5</ele>
        <time>2021-12-19T08:48:18Z</time>
      </trkpt>
      <trkpt lat="45.35506" lon="5.74911">
        <ele>922.5</ele>
        <time>2021-12-19T08:48:19Z</time>
      </trkpt>
      <trkpt lat="45.35506" lon="5.74911">
        <ele>922.5</ele>
        <time>2021-12-19T08:48:20Z</time>
      </trkpt>
      <trkpt lat="45.35505" lon="5.74911">
        <ele>922.6</ele>
        <time>2021-12-19T08:48:21Z</time>
      </trkpt>
      <trkpt lat="45.35505" lon="5.74912">
        <ele>922.6</ele>
        <time>2021-12-19T08:48:22Z</time>
      </trkpt>
      <trkpt lat="45.35505" lon="5.74912">
        <ele>922.6</ele>
        <time>2021-12-19T08:48:23Z</time>
      </trkpt>
      <trkpt lat="45.35505" lon="5.74912">
        <ele>922.6</ele>
        <time>2021-12-19T08:48:24Z</time>
      </trkpt>
      <trkpt lat="45.35504" lon="5.74912">
        <ele>922.7</ele>
        <time>2021-12-19T08:48:25Z</time>
      </trkpt>
      <trkpt lat="45.35504" lon="5.74913">
        <ele>922.7</ele>
        <time>2021-12-19T08:48:26Z</time>
      </trkpt>
      <trkpt lat="45.35504" lon="5.74913">
        <ele>922.7</ele>
        <time>2021-12-19T08:48:27Z</time>
      </trkpt>
      <trkpt lat="45.35504" lon="5.74913">
        <ele>922.7</ele>
        <time>2021-12-19T08:48:28Z</time>
      </trkpt>
      <trkpt lat="45.35504" lon="5.74913">
        <ele>922.7</ele>
        <time>2021-12-19T08:48:29Z</time>
      </trkpt>
      <trkpt lat="45.35503" lon="5.74914">
        <ele>922.8</ele>
        <time>2021-12-19T08:48:30Z</time>
      </trkpt>
      <trkpt lat="45.35503" lon="5.74914">
        <ele>922.8</ele>
        <time>2021-12-19T08:48:31Z</time>
      </trkpt>
      <trkpt lat="45.35503" lon="5.74914">
        <ele>922.8</ele>
        <time>2021-12-19T08:48:32Z</time>
      </trkpt>
      <trkpt lat="45.35503" lon="5.74914">
        <ele>922.9</ele>
        <time>2021-12-19T08:48:33Z</time>
      </trkpt>
      <trkpt lat="45.35502" lon="5.74915">
        <ele>922.9</ele>
        <time>2021-12-19T08:48:34Z</time>
      </trkpt>
      <trkpt lat="45.35502" lon="5.74915">
        <ele>922.9</ele>
        <time>2021-12-19T08:48:35Z</time>
      </trkpt>
      <trkpt lat="45.35502" lon="5.74915">
        <ele>922.9</ele>
        <time>2021-12-19T08:48:36Z</time>
      </trkpt>
      <trkpt lat="45.35502" lon="5.74915">
        <ele>923</ele>
        <time>2021-12-19T08:48:37Z</time>
      </trkpt>
      <trkpt lat="45.35501" lon="5.74916">
        <ele>923</ele>
        <time>2021-12-19T08:48:38Z</time>
      </trkpt>
      <trkpt lat="45.35501" lon="5.74916">
        <ele>923</ele>
        <time>2021-12-19T08:48:39Z</time>
      </trkpt>
      <trkpt lat="45.35501" lon="5.74916">
        <ele>923</ele>
        <time>2021-12-19T08:48:40Z</time>
      </trkpt>
      <trkpt lat="45.35501" lon="5.74916">
        <ele>923.1</ele>
        <time>2021-12-19T08:48:41Z</time>
      </trkpt>
      <trkpt lat="45.35501" lon="5.74917">
        <ele>923.1</ele>
        <time>2021-12-19T08:48:42Z</time>
      </trkpt>
      <trkpt lat="45.355" lon="5.74917">
        <ele>923.1</ele>
        <time>2021-12-19T08:48:43Z</time>
      </trkpt>
      <trkpt lat="45.355" lon="5.74917">
        <ele>923.1</ele>
        <time>2021-12-19T08:48:44Z</time>
      </trkpt>
      <trkpt lat="45.355" lon="5.74917">
        <ele>923.2</ele>
        <time>2021-12-19T08:48:45Z</time>
      </trkpt>
      <trkpt lat="45.355" lon="5.74918">
        <ele>923.2</ele>
        <time>2021-12-19T08:48:46Z</time>
      </trkpt>
      <trkpt lat="45.35499" lon="5.74918">
        <ele>923.2</ele>
        <time>2021-12-19T08:48:47Z</time>
      </trkpt>
      <trkpt lat="45.35499" lon="5.74918">
        <ele>923.2</ele>
        <time>2021-12-19T08:48:48Z</time>
      </trkpt>
      <trkpt lat="45.35499" lon="5.74918">
        <ele>923.3</ele>
        <time>2021-12-19T08:48:49Z</time>
      </trkpt>
      <trkpt lat="45.35499" lon="5.74919">
        <ele>923.3</ele>
        <time>2021-12-19T08:48:50Z</time>
      </trkpt>
      <trkpt lat="45.35498" lon="5.74919">
        <ele>923.3</ele>
        <time>2021-12-19T08:48:51Z</time>
      </trkpt>
      <trkpt lat="45.35498" lon="5.74919">
        <ele>923.3</ele>
        <time>2021-12-19T08:48:52Z</time>
      </trkpt>
      <trkpt lat="45.35498" lon="5.74919">
        <ele>923.4</ele>
        <time>2021-12-19T08:48:53Z</time>
      </trkpt>
      <trkpt lat="45.35498" lon="5.7492">
        <ele>923.4</ele>
        <time>2021-12-19T08:48:54Z</time>
      </trkpt>
      <trkpt lat="45.35498" lon="5.7492">
        <ele>923.4</ele>
        <time>2021-12-19T08:48:55Z</time>
      </trkpt>
      <trkpt lat="45.35497" lon="5.7492">
        <ele>923.4</ele>
        <time>2021-12-19T08:48:56Z</time>
      </trkpt>
      <trkpt lat="45.35497" lon="5.7492">
        <ele>923.5</ele>
        <time>2021-12-19T08:48:57Z</time>
      </trkpt>
      <trkpt lat="45.35497" lon="5.74921">
        <ele>923.5</ele>
        <time>2021-12-19T08:48:58Z</time>
      </trkpt>
      <trkpt lat="45.35497" lon="5.74921">
        <ele>923.5</ele>
        <time>2021-12-19T08:48:59Z</time>
      </trkpt>
      <trkpt lat="45.35496" lon="5.74921">
        <ele>923.5</ele>
        <time>2021-12-19T08:49:00Z</time>
      </trkpt>
      <trkpt lat="45.35496" lon="5.74921">
        <ele>923.6</ele>
        <time>2021-12-19T08:49:01Z</time>
      </trkpt>
      <trkpt lat="45.35496" lon="5.74922">
        <ele>923.6</ele>
        <time>2021-12-19T08:49:02Z</time>
      </trkpt>
      <trkpt lat="45.35413" lon="5.74973">
        <ele>938</ele>
        <time>2021-12-19T08:49:03Z</time>
      </trkpt>
      <trkpt lat="45.35412" lon="5.74974">
        <ele>937.9</ele>
        <time>2021-12-19T08:49:04Z</time>
      </trkpt>
      <trkpt lat="45.3541" lon="5.74975">
        <ele>937.7</ele>
        <time>2021-12-19T08:49:05Z</time>
      </trkpt>
      <trkpt lat="45.35408" lon="5.74978">
        <ele>937.1</ele>
        <time>2021-12-19T08:49:06Z</time>
      </trkpt>
      <trkpt lat="45.35406" lon="5.74981">
        <ele>936.6</ele>
        <time>2021-12-19T08:49:07Z</time>
      </trkpt>
      <trkpt lat="45.35405" lon="5.74984">
        <ele>936</ele>
        <time>2021-12-19T08:49:08Z</time>
      </trkpt>
      <trkpt lat="45.35404" lon="5.74987">
        <ele>935.5</ele>
        <time>2021-12-19T08:49:09Z</time>
      </trkpt>
      <trkpt lat="45.35403" lon="5.7499">
        <ele>934.9</ele>
        <time>2021-12-19T08:49:10Z</time>
      </trkpt>
      <trkpt lat="45.35399" lon="5.75003">
        <ele>932.7</ele>
        <time>2021-12-19T08:49:11Z</time>
      </trkpt>
      <trkpt lat="45.35397" lon="5.75009">
        <ele>933</ele>
        <time>2021-12-19T08:49:12Z</time>
      </trkpt>
      <trkpt lat="45.35396" lon="5.75012">
        <ele>933</ele>
        <time>2021-12-19T08:49:13Z</time>
      </trkpt>
      <trkpt lat="45.35395" lon="5.75015">
        <ele>933.1</ele>
        <time>2021-12-19T08:49:14Z</time>
      </trkpt>
      <trkpt lat="45.35394" lon="5.75018">
        <ele>933.2</ele>
        <time>2021-12-19T08:49:15Z</time>
      </trkpt>
      <trkpt lat="45.35394" lon="5.75023">
        <ele>933.2</ele>
        <time>2021-12-19T08:49:16Z</time>
      </trkpt>
      <trkpt lat="45.35394" lon="5.75024">
        <ele>933.3</ele>
        <time>2021-12-19T08:49:17Z</time>
      </trkpt>
      <trkpt lat="45.35393" lon="5.75024">
        <ele>933.3</ele>
        <time>2021-12-19T08:49:18Z</time>
      </trkpt>
      <trkpt lat="45.35393" lon="5.75024">
        <ele>933.3</ele>
        <time>2021-12-19T08:49:19Z</time>
      </trkpt>
      <trkpt lat="45.35393" lon="5.75024">
        <ele>933.3</ele>
        <time>2021-12-19T08:49:20Z</time>
      </trkpt>
      <trkpt lat="45.35393" lon="5.75024">
        <ele>933.3</ele>
        <time>2021-12-19T08:49:21Z</time>
      </trkpt>
      <trkpt lat="45.35393" lon="5.75024">
        <ele>933.3</ele>
        <time>2021-12-19T08:49:22Z</time>
      </trkpt>
      <trkpt lat="45.35393" lon="5.75023">
        <ele>933.3</ele>
        <time>2021-12-19T08:49:23Z</time>
      </trkpt>
      <trkpt lat="45.35393" lon="5.75021">
        <ele>933.3</ele>
        <time>2021-12-19T08:49:24Z</time>
      </trkpt>
      <trkpt lat="45.35393" lon="5.7502">
        <ele>933.3</ele>
        <time>2021-12-19T08:49:25Z</time>
      </trkpt>
      <trkpt lat="45.35393" lon="5.75019">
        <ele>933.4</ele>
        <time>2021-12-19T08:49:26Z</time>
      </trkpt>
      <trkpt lat="45.35394" lon="5.75019">
        <ele>933.4</ele>
        <time>2021-12-19T08:49:27Z</time>
      </trkpt>
      <trkpt lat="45.35394" lon="5.75018">
        <ele>933.4</ele>
        <time>2021-12-19T08:49:28Z</time>
      </trkpt>
      <trkpt lat="45.35394" lon="5.75018">
        <ele>933.4</ele>
        <time>2021-12-19T08:49:29Z</time>
      </trkpt>
      <trkpt lat="45.35393" lon="5.75018">
        <ele>933.4</ele>
        <time>2021-12-19T08:49:30Z</time>
      </trkpt>
      <trkpt lat="45.35393" lon="5.75017">
        <ele>933.4</ele>
        <time>2021-12-19T08:49:31Z</time>
      </trkpt>
      <trkpt lat="45.35393" lon="5.75017">
        <ele>933.4</ele>
        <time>2021-12-19T08:49:32Z</time>
      </trkpt>
      <trkpt lat="45.35393" lon="5.75017">
        <ele>933.4</ele>
        <time>2021-12-19T08:49:33Z</time>
      </trkpt>
      <trkpt lat="45.35393" lon="5.75017">
        <ele>933.4</ele>
        <time>2021-12-19T08:49:34Z</time>
      </trkpt>
      <trkpt lat="45.35393" lon="5.75017">
        <ele>933.4</ele>
        <time>2021-12-19T08:49:35Z</time>
      </trkpt>
      <trkpt lat="45.35393" lon="5.75017">
        <ele>933.4</ele>
        <time>2021-12-19T08:49:36Z</time>
      </trkpt>
      <trkpt lat="45.35391" lon="5.75017">
        <ele>933.5</ele>
        <time>2021-12-19T08:49:37Z</time>
      </trkpt>
      <trkpt lat="45.35391" lon="5.75018">
        <ele>933.5</ele>
        <time>2021-12-19T08:49:38Z</time>
      </trkpt>
      <trkpt lat="45.3539" lon="5.75019">
        <ele>933.5</ele>
        <time>2021-12-19T08:49:39Z</time>
      </trkpt>
      <trkpt lat="45.35389" lon="5.75019">
        <ele>933.5</ele>
        <time>2021-12-19T08:49:40Z</time>
      </trkpt>
      <trkpt lat="45.35388" lon="5.75018">
        <ele>933.5</ele>
        <time>2021-12-19T08:49:41Z</time>
      </trkpt>
      <trkpt lat="45.35387" lon="5.75018">
        <ele>933.6</ele>
        <time>2021-12-19T08:49:42Z</time>
      </trkpt>
      <trkpt lat="45.35386" lon="5.75017">
        <ele>933.6</ele>
        <time>2021-12-19T08:49:43Z</time>
      </trkpt>
      <trkpt lat="45.35386" lon="5.75017">
        <ele>933.6</ele>
        <time>2021-12-19T08:49:44Z</time>
      </trkpt>
      <trkpt lat="45.35385" lon="5.75016">
        <ele>933.6</ele>
        <time>2021-12-19T08:49:45Z</time>
      </trkpt>
      <trkpt lat="45.35385" lon="5.75016">
        <ele>933.6</ele>
        <time>2021-12-19T08:49:46Z</time>
      </trkpt>
      <trkpt lat="45.35384" lon="5.75015">
        <ele>933.6</ele>
        <time>2021-12-19T08:49:47Z</time>
      </trkpt>
      <trkpt lat="45.35384" lon="5.75015">
        <ele>933.6</ele>
        <time>2021-12-19T08:49:48Z</time>
      </trkpt>
      <trkpt lat="45.35383" lon="5.75015">
        <ele>933.6</ele>
        <time>2021-12-19T08:49:49Z</time>
      </trkpt>
      <trkpt lat="45.35383" lon="5.75014">
        <ele>933.6</ele>
        <time>2021-12-19T08:49:50Z</time>
      </trkpt>
      <trkpt lat="45.35384" lon="5.75013">
        <ele>933.7</ele>
        <time>2021-12-19T08:49:51Z</time>
      </trkpt>
      <trkpt lat="45.35383" lon="5.75013">
        <ele>933.7</ele>
        <time>2021-12-19T08:49:52Z</time>
      </trkpt>
      <trkpt lat="45.35384" lon="5.75011">
        <ele>933.7</ele>
        <time>2021-12-19T08:49:53Z</time>
      </trkpt>
      <trkpt lat="45.35384" lon="5.7501">
        <ele>933.7</ele>
        <time>2021-12-19T08:49:54Z</time>
      </trkpt>
      <trkpt lat="45.35384" lon="5.7501">
        <ele>933.7</ele>
        <time>2021-12-19T08:49:55Z</time>
      </trkpt>
      <trkpt lat="45.35384" lon="5.7501">
        <ele>933.7</ele>
        <time>2021-12-19T08:49:56Z</time>
      </trkpt>
      <trkpt lat="45.35384" lon="5.7501">
        <ele>933.7</ele>
        <time>2021-12-19T08:49:57Z</time>
      </trkpt>
      <trkpt lat="45.35385" lon="5.7501">
        <ele>933.7</ele>
        <time>2021-12-19T08:49:58Z</time>
      </trkpt>
      <trkpt lat="45.35385" lon="5.7501">
        <ele>933.7</ele>
        <time>2021-12-19T08:49:59Z</time>
      </trkpt>
      <trkpt lat="45.35384" lon="5.75011">
        <ele>933.7</ele>
        <time>2021-12-19T08:50:00Z</time>
      </trkpt>
      <trkpt lat="45.35384" lon="5.75011">
        <ele>933.7</ele>
        <time>2021-12-19T08:50:01Z</time>
      </trkpt>
      <trkpt lat="45.35384" lon="5.75011">
        <ele>933.7</ele>
        <time>2021-12-19T08:50:02Z</time>
      </trkpt>
      <trkpt lat="45.35384" lon="5.75011">
        <ele>933.8</ele>
        <time>2021-12-19T08:50:03Z</time>
      </trkpt>
      <trkpt lat="45.35384" lon="5.75011">
        <ele>933.8</ele>
        <time>2021-12-19T08:50:04Z</time>
      </trkpt>
      <trkpt lat="45.35384" lon="5.75011">
        <ele>933.8</ele>
        <time>2021-12-19T08:50:05Z</time>
      </trkpt>
      <trkpt lat="45.35384" lon="5.75011">
        <ele>933.8</ele>
        <time>2021-12-19T08:50:06Z</time>
      </trkpt>
      <trkpt lat="45.35384" lon="5.75012">
        <ele>933.8</ele>
        <time>2021-12-19T08:50:07Z</time>
      </trkpt>
      <trkpt lat="45.35384" lon="5.75012">
        <ele>933.8</ele>
        <time>2021-12-19T08:50:08Z</time>
      </trkpt>
      <trkpt lat="45.35384" lon="5.75012">
        <ele>933.8</ele>
        <time>2021-12-19T08:50:09Z</time>
      </trkpt>
      <trkpt lat="45.35384" lon="5.75012">
        <ele>933.8</ele>
        <time>2021-12-19T08:50:10Z</time>
      </trkpt>
      <trkpt lat="45.35384" lon="5.75011">
        <ele>933.8</ele>
        <time>2021-12-19T08:50:11Z</time>
      </trkpt>
      <trkpt lat="45.35385" lon="5.75011">
        <ele>933.8</ele>
        <time>2021-12-19T08:50:12Z</time>
      </trkpt>
      <trkpt lat="45.35385" lon="5.75011">
        <ele>933.8</ele>
        <time>2021-12-19T08:50:13Z</time>
      </trkpt>
      <trkpt lat="45.35385" lon="5.75011">
        <ele>933.8</ele>
        <time>2021-12-19T08:50:14Z</time>
      </trkpt>
      <trkpt lat="45.35385" lon="5.75011">
        <ele>933.8</ele>
        <time>2021-12-19T08:50:15Z</time>
      </trkpt>
      <trkpt lat="45.35385" lon="5.75011">
        <ele>933.8</ele>
        <time>2021-12-19T08:50:16Z</time>
      </trkpt>
      <trkpt lat="45.35385" lon="5.75011">
        <ele>933.8</ele>
        <time>2021-12-19T08:50:17Z</time>
      </trkpt>
      <trkpt lat="45.35385" lon="5.75011">
        <ele>933.8</ele>
        <time>2021-12-19T08:50:18Z</time>
      </trkpt>
      <trkpt lat="45.35385" lon="5.75011">
        <ele>933.8</ele>
        <time>2021-12-19T08:50:19Z</time>
      </trkpt>
      <trkpt lat="45.35385" lon="5.75011">
        <ele>933.8</ele>
        <time>2021-12-19T08:50:20Z</time>
      </trkpt>
      <trkpt lat="45.35385" lon="5.75011">
        <ele>933.8</ele>
        <time>2021-12-19T08:50:21Z</time>
      </trkpt>
      <trkpt lat="45.35385" lon="5.75011">
        <ele>933.8</ele>
        <time>2021-12-19T08:50:22Z</time>
      </trkpt>
      <trkpt lat="45.35384" lon="5.75012">
        <ele>933.8</ele>
        <time>2021-12-19T08:50:23Z</time>
      </trkpt>
      <trkpt lat="45.35384" lon="5.75012">
        <ele>933.8</ele>
        <time>2021-12-19T08:50:24Z</time>
      </trkpt>
      <trkpt lat="45.35384" lon="5.75012">
        <ele>933.8</ele>
        <time>2021-12-19T08:50:25Z</time>
      </trkpt>
      <trkpt lat="45.35384" lon="5.75012">
        <ele>933.8</ele>
        <time>2021-12-19T08:50:26Z</time>
      </trkpt>
      <trkpt lat="45.35384" lon="5.75012">
        <ele>933.8</ele>
        <time>2021-12-19T08:50:27Z</time>
      </trkpt>
      <trkpt lat="45.35384" lon="5.75012">
        <ele>933.8</ele>
        <time>2021-12-19T08:50:28Z</time>
      </trkpt>
      <trkpt lat="45.35384" lon="5.75012">
        <ele>933.8</ele>
        <time>2021-12-19T08:50:29Z</time>
      </trkpt>
      <trkpt lat="45.35384" lon="5.75012">
        <ele>933.8</ele>
        <time>2021-12-19T08:50:30Z</time>
      </trkpt>
      <trkpt lat="45.35384" lon="5.75012">
        <ele>933.8</ele>
        <time>2021-12-19T08:50:31Z</time>
      </trkpt>
      <trkpt lat="45.35383" lon="5.75013">
        <ele>933.9</ele>
        <time>2021-12-19T08:50:32Z</time>
      </trkpt>
      <trkpt lat="45.35383" lon="5.75013">
        <ele>933.9</ele>
        <time>2021-12-19T08:50:33Z</time>
      </trkpt>
      <trkpt lat="45.35383" lon="5.75013">
        <ele>933.9</ele>
        <time>2021-12-19T08:50:34Z</time>
      </trkpt>
      <trkpt lat="45.35383" lon="5.75014">
        <ele>933.9</ele>
        <time>2021-12-19T08:50:35Z</time>
      </trkpt>
      <trkpt lat="45.35383" lon="5.75013">
        <ele>933.9</ele>
        <time>2021-12-19T08:50:36Z</time>
      </trkpt>
      <trkpt lat="45.35383" lon="5.75013">
        <ele>933.9</ele>
        <time>2021-12-19T08:50:37Z</time>
      </trkpt>
      <trkpt lat="45.35383" lon="5.75013">
        <ele>933.9</ele>
        <time>2021-12-19T08:50:38Z</time>
      </trkpt>
      <trkpt lat="45.35383" lon="5.75013">
        <ele>933.9</ele>
        <time>2021-12-19T08:50:39Z</time>
      </trkpt>
      <trkpt lat="45.35383" lon="5.75013">
        <ele>933.9</ele>
        <time>2021-12-19T08:50:40Z</time>
      </trkpt>
      <trkpt lat="45.35383" lon="5.75013">
        <ele>933.9</ele>
        <time>2021-12-19T08:50:41Z</time>
      </trkpt>
      <trkpt lat="45.35383" lon="5.75012">
        <ele>933.9</ele>
        <time>2021-12-19T08:50:42Z</time>
      </trkpt>
      <trkpt lat="45.35383" lon="5.75012">
        <ele>933.9</ele>
        <time>2021-12-19T08:50:43Z</time>
      </trkpt>
      <trkpt lat="45.35383" lon="5.75012">
        <ele>933.9</ele>
        <time>2021-12-19T08:50:44Z</time>
      </trkpt>
      <trkpt lat="45.35383" lon="5.75012">
        <ele>933.9</ele>
        <time>2021-12-19T08:50:45Z</time>
      </trkpt>
      <trkpt lat="45.35383" lon="5.75012">
        <ele>933.9</ele>
        <time>2021-12-19T08:50:46Z</time>
      </trkpt>
      <trkpt lat="45.35383" lon="5.75012">
        <ele>933.9</ele>
        <time>2021-12-19T08:50:47Z</time>
      </trkpt>
      <trkpt lat="45.35383" lon="5.75012">
        <ele>933.9</ele>
        <time>2021-12-19T08:50:48Z</time>
      </trkpt>
      <trkpt lat="45.35383" lon="5.75012">
        <ele>933.9</ele>
        <time>2021-12-19T08:50:49Z</time>
      </trkpt>
      <trkpt lat="45.35383" lon="5.75013">
        <ele>933.9</ele>
        <time>2021-12-19T08:50:50Z</time>
      </trkpt>
      <trkpt lat="45.35383" lon="5.75013">
        <ele>933.9</ele>
        <time>2021-12-19T08:50:51Z</time>
      </trkpt>
      <trkpt lat="45.35383" lon="5.75013">
        <ele>933.9</ele>
        <time>2021-12-19T08:50:52Z</time>
      </trkpt>
      <trkpt lat="45.35383" lon="5.75013">
        <ele>933.9</ele>
        <time>2021-12-19T08:50:53Z</time>
      </trkpt>
      <trkpt lat="45.35383" lon="5.75013">
        <ele>933.9</ele>
        <time>2021-12-19T08:50:54Z</time>
      </trkpt>
      <trkpt lat="45.35383" lon="5.75013">
        <ele>933.9</ele>
        <time>2021-12-19T08:50:55Z</time>
      </trkpt>
      <trkpt lat="45.35383" lon="5.75012">
        <ele>933.9</ele>
        <time>2021-12-19T08:50:56Z</time>
      </trkpt>
      <trkpt lat="45.35383" lon="5.75012">
        <ele>934</ele>
        <time>2021-12-19T08:50:57Z</time>
      </trkpt>
      <trkpt lat="45.35383" lon="5.75012">
        <ele>934</ele>
        <time>2021-12-19T08:50:58Z</time>
      </trkpt>
      <trkpt lat="45.35383" lon="5.75012">
        <ele>934</ele>
        <time>2021-12-19T08:50:59Z</time>
      </trkpt>
      <trkpt lat="45.35383" lon="5.75012">
        <ele>934</ele>
        <time>2021-12-19T08:51:00Z</time>
      </trkpt>
      <trkpt lat="45.35383" lon="5.75012">
        <ele>934</ele>
        <time>2021-12-19T08:51:01Z</time>
      </trkpt>
      <trkpt lat="45.35383" lon="5.75011">
        <ele>934</ele>
        <time>2021-12-19T08:51:02Z</time>
      </trkpt>
      <trkpt lat="45.35383" lon="5.75011">
        <ele>934</ele>
        <time>2021-12-19T08:51:03Z</time>
      </trkpt>
      <trkpt lat="45.35383" lon="5.75011">
        <ele>934</ele>
        <time>2021-12-19T08:51:04Z</time>
      </trkpt>
      <trkpt lat="45.35383" lon="5.7501">
        <ele>934</ele>
        <time>2021-12-19T08:51:05Z</time>
      </trkpt>
      <trkpt lat="45.35384" lon="5.7501">
        <ele>934</ele>
        <time>2021-12-19T08:51:06Z</time>
      </trkpt>
      <trkpt lat="45.35383" lon="5.75011">
        <ele>934</ele>
        <time>2021-12-19T08:51:07Z</time>
      </trkpt>
      <trkpt lat="45.35383" lon="5.75011">
        <ele>934</ele>
        <time>2021-12-19T08:51:08Z</time>
      </trkpt>
      <trkpt lat="45.35383" lon="5.75011">
        <ele>934</ele>
        <time>2021-12-19T08:51:09Z</time>
      </trkpt>
      <trkpt lat="45.35383" lon="5.75011">
        <ele>934</ele>
        <time>2021-12-19T08:51:10Z</time>
      </trkpt>
      <trkpt lat="45.35383" lon="5.75011">
        <ele>934</ele>
        <time>2021-12-19T08:51:11Z</time>
      </trkpt>
      <trkpt lat="45.35383" lon="5.75011">
        <ele>934</ele>
        <time>2021-12-19T08:51:12Z</time>
      </trkpt>
      <trkpt lat="45.35383" lon="5.75011">
        <ele>934</ele>
        <time>2021-12-19T08:51:13Z</time>
      </trkpt>
      <trkpt lat="45.35383" lon="5.7501">
        <ele>934</ele>
        <time>2021-12-19T08:51:14Z</time>
      </trkpt>
      <trkpt lat="45.35383" lon="5.7501">
        <ele>934</ele>
        <time>2021-12-19T08:51:15Z</time>
      </trkpt>
      <trkpt lat="45.35383" lon="5.7501">
        <ele>934</ele>
        <time>2021-12-19T08:51:16Z</time>
      </trkpt>
      <trkpt lat="45.35383" lon="5.75009">
        <ele>934</ele>
        <time>2021-12-19T08:51:17Z</time>
      </trkpt>
      <trkpt lat="45.35384" lon="5.75009">
        <ele>934</ele>
        <time>2021-12-19T08:51:18Z</time>
      </trkpt>
      <trkpt lat="45.35383" lon="5.75009">
        <ele>934</ele>
        <time>2021-12-19T08:51:19Z</time>
      </trkpt>
      <trkpt lat="45.35383" lon="5.75009">
        <ele>934</ele>
        <time>2021-12-19T08:51:20Z</time>
      </trkpt>
      <trkpt lat="45.35383" lon="5.75009">
        <ele>934</ele>
        <time>2021-12-19T08:51:21Z</time>
      </trkpt>
      <trkpt lat="45.35384" lon="5.75008">
        <ele>934.1</ele>
        <time>2021-12-19T08:51:22Z</time>
      </trkpt>
      <trkpt lat="45.35384" lon="5.75008">
        <ele>934.1</ele>
        <time>2021-12-19T08:51:23Z</time>
      </trkpt>
      <trkpt lat="45.35384" lon="5.75007">
        <ele>934.1</ele>
        <time>2021-12-19T08:51:24Z</time>
      </trkpt>
      <trkpt lat="45.35384" lon="5.75007">
        <ele>934.1</ele>
        <time>2021-12-19T08:51:25Z</time>
      </trkpt>
      <trkpt lat="45.35384" lon="5.75008">
        <ele>934.1</ele>
        <time>2021-12-19T08:51:26Z</time>
      </trkpt>
      <trkpt lat="45.35384" lon="5.75007">
        <ele>934.1</ele>
        <time>2021-12-19T08:51:27Z</time>
      </trkpt>
      <trkpt lat="45.35384" lon="5.75006">
        <ele>934.1</ele>
        <time>2021-12-19T08:51:28Z</time>
      </trkpt>
      <trkpt lat="45.35383" lon="5.75006">
        <ele>934.1</ele>
        <time>2021-12-19T08:51:29Z</time>
      </trkpt>
      <trkpt lat="45.35382" lon="5.75005">
        <ele>934.1</ele>
        <time>2021-12-19T08:51:30Z</time>
      </trkpt>
      <trkpt lat="45.35381" lon="5.75005">
        <ele>934.2</ele>
        <time>2021-12-19T08:51:31Z</time>
      </trkpt>
      <trkpt lat="45.3538" lon="5.75005">
        <ele>934.2</ele>
        <time>2021-12-19T08:51:32Z</time>
      </trkpt>
      <trkpt lat="45.3538" lon="5.75005">
        <ele>934.2</ele>
        <time>2021-12-19T08:51:33Z</time>
      </trkpt>
      <trkpt lat="45.35379" lon="5.75004">
        <ele>934.2</ele>
        <time>2021-12-19T08:51:34Z</time>
      </trkpt>
      <trkpt lat="45.35378" lon="5.75004">
        <ele>934.2</ele>
        <time>2021-12-19T08:51:35Z</time>
      </trkpt>
      <trkpt lat="45.35377" lon="5.75003">
        <ele>934.2</ele>
        <time>2021-12-19T08:51:36Z</time>
      </trkpt>
      <trkpt lat="45.35376" lon="5.75002">
        <ele>934.3</ele>
        <time>2021-12-19T08:51:37Z</time>
      </trkpt>
      <trkpt lat="45.35376" lon="5.75002">
        <ele>934.3</ele>
        <time>2021-12-19T08:51:38Z</time>
      </trkpt>
      <trkpt lat="45.35375" lon="5.75001">
        <ele>934.3</ele>
        <time>2021-12-19T08:51:39Z</time>
      </trkpt>
      <trkpt lat="45.35375" lon="5.75001">
        <ele>934.3</ele>
        <time>2021-12-19T08:51:40Z</time>
      </trkpt>
      <trkpt lat="45.35374" lon="5.75">
        <ele>934.3</ele>
        <time>2021-12-19T08:51:41Z</time>
      </trkpt>
      <trkpt lat="45.35373" lon="5.75">
        <ele>934.3</ele>
        <time>2021-12-19T08:51:42Z</time>
      </trkpt>
      <trkpt lat="45.35373" lon="5.75">
        <ele>934.3</ele>
        <time>2021-12-19T08:51:43Z</time>
      </trkpt>
      <trkpt lat="45.35372" lon="5.74999">
        <ele>934.4</ele>
        <time>2021-12-19T08:51:44Z</time>
      </trkpt>
      <trkpt lat="45.35372" lon="5.74999">
        <ele>934.4</ele>
        <time>2021-12-19T08:51:45Z</time>
      </trkpt>
      <trkpt lat="45.35371" lon="5.74998">
        <ele>934.4</ele>
        <time>2021-12-19T08:51:46Z</time>
      </trkpt>
      <trkpt lat="45.35371" lon="5.74998">
        <ele>934.4</ele>
        <time>2021-12-19T08:51:47Z</time>
      </trkpt>
      <trkpt lat="45.35371" lon="5.74998">
        <ele>934.4</ele>
        <time>2021-12-19T08:51:48Z</time>
      </trkpt>
      <trkpt lat="45.35371" lon="5.74998">
        <ele>934.4</ele>
        <time>2021-12-19T08:51:49Z</time>
      </trkpt>
      <trkpt lat="45.35371" lon="5.74997">
        <ele>934.4</ele>
        <time>2021-12-19T08:51:50Z</time>
      </trkpt>
      <trkpt lat="45.35372" lon="5.74997">
        <ele>934.4</ele>
        <time>2021-12-19T08:51:51Z</time>
      </trkpt>
      <trkpt lat="45.35372" lon="5.74997">
        <ele>934.4</ele>
        <time>2021-12-19T08:51:52Z</time>
      </trkpt>
      <trkpt lat="45.35372" lon="5.74997">
        <ele>934.4</ele>
        <time>2021-12-19T08:51:53Z</time>
      </trkpt>
      <trkpt lat="45.35372" lon="5.74996">
        <ele>934.4</ele>
        <time>2021-12-19T08:51:54Z</time>
      </trkpt>
      <trkpt lat="45.35372" lon="5.74996">
        <ele>934.4</ele>
        <time>2021-12-19T08:51:55Z</time>
      </trkpt>
      <trkpt lat="45.35372" lon="5.74995">
        <ele>934.4</ele>
        <time>2021-12-19T08:51:56Z</time>
      </trkpt>
      <trkpt lat="45.35372" lon="5.74995">
        <ele>934.4</ele>
        <time>2021-12-19T08:51:57Z</time>
      </trkpt>
      <trkpt lat="45.35372" lon="5.74995">
        <ele>934.4</ele>
        <time>2021-12-19T08:51:58Z</time>
      </trkpt>
      <trkpt lat="45.35372" lon="5.74995">
        <ele>934.4</ele>
        <time>2021-12-19T08:51:59Z</time>
      </trkpt>
      <trkpt lat="45.35372" lon="5.74995">
        <ele>934.4</ele>
        <time>2021-12-19T08:52:00Z</time>
      </trkpt>
      <trkpt lat="45.35372" lon="5.74994">
        <ele>934.5</ele>
        <time>2021-12-19T08:52:01Z</time>
      </trkpt>
      <trkpt lat="45.35372" lon="5.74994">
        <ele>934.5</ele>
        <time>2021-12-19T08:52:02Z</time>
      </trkpt>
      <trkpt lat="45.35372" lon="5.74993">
        <ele>934.5</ele>
        <time>2021-12-19T08:52:03Z</time>
      </trkpt>
      <trkpt lat="45.35372" lon="5.74993">
        <ele>934.5</ele>
        <time>2021-12-19T08:52:04Z</time>
      </trkpt>
      <trkpt lat="45.35371" lon="5.74993">
        <ele>934.5</ele>
        <time>2021-12-19T08:52:05Z</time>
      </trkpt>
      <trkpt lat="45.35371" lon="5.74992">
        <ele>934.5</ele>
        <time>2021-12-19T08:52:06Z</time>
      </trkpt>
      <trkpt lat="45.3537" lon="5.74991">
        <ele>934.5</ele>
        <time>2021-12-19T08:52:07Z</time>
      </trkpt>
      <trkpt lat="45.3537" lon="5.7499">
        <ele>934.5</ele>
        <time>2021-12-19T08:52:08Z</time>
      </trkpt>
      <trkpt lat="45.3537" lon="5.74988">
        <ele>934.6</ele>
        <time>2021-12-19T08:52:09Z</time>
      </trkpt>
      <trkpt lat="45.35369" lon="5.74988">
        <ele>934.6</ele>
        <time>2021-12-19T08:52:10Z</time>
      </trkpt>
      <trkpt lat="45.35369" lon="5.74988">
        <ele>934.6</ele>
        <time>2021-12-19T08:52:11Z</time>
      </trkpt>
      <trkpt lat="45.35369" lon="5.74988">
        <ele>934.6</ele>
        <time>2021-12-19T08:52:12Z</time>
      </trkpt>
      <trkpt lat="45.35368" lon="5.7499">
        <ele>934.6</ele>
        <time>2021-12-19T08:52:13Z</time>
      </trkpt>
      <trkpt lat="45.35368" lon="5.7499">
        <ele>934.6</ele>
        <time>2021-12-19T08:52:14Z</time>
      </trkpt>
      <trkpt lat="45.35368" lon="5.74991">
        <ele>934.6</ele>
        <time>2021-12-19T08:52:15Z</time>
      </trkpt>
      <trkpt lat="45.35368" lon="5.74991">
        <ele>934.6</ele>
        <time>2021-12-19T08:52:16Z</time>
      </trkpt>
      <trkpt lat="45.35368" lon="5.74991">
        <ele>934.6</ele>
        <time>2021-12-19T08:52:17Z</time>
      </trkpt>
      <trkpt lat="45.35368" lon="5.74991">
        <ele>934.6</ele>
        <time>2021-12-19T08:52:18Z</time>
      </trkpt>
      <trkpt lat="45.35367" lon="5.7499">
        <ele>934.6</ele>
        <time>2021-12-19T08:52:19Z</time>
      </trkpt>
      <trkpt lat="45.35367" lon="5.7499">
        <ele>934.7</ele>
        <time>2021-12-19T08:52:20Z</time>
      </trkpt>
      <trkpt lat="45.35366" lon="5.74989">
        <ele>934.7</ele>
        <time>2021-12-19T08:52:21Z</time>
      </trkpt>
      <trkpt lat="45.35366" lon="5.74988">
        <ele>934.7</ele>
        <time>2021-12-19T08:52:22Z</time>
      </trkpt>
      <trkpt lat="45.35365" lon="5.74987">
        <ele>934.7</ele>
        <time>2021-12-19T08:52:23Z</time>
      </trkpt>
      <trkpt lat="45.35364" lon="5.74987">
        <ele>934.7</ele>
        <time>2021-12-19T08:52:24Z</time>
      </trkpt>
      <trkpt lat="45.35364" lon="5.74986">
        <ele>934.7</ele>
        <time>2021-12-19T08:52:25Z</time>
      </trkpt>
      <trkpt lat="45.35363" lon="5.74986">
        <ele>934.7</ele>
        <time>2021-12-19T08:52:26Z</time>
      </trkpt>
      <trkpt lat="45.35363" lon="5.74985">
        <ele>934.8</ele>
        <time>2021-12-19T08:52:27Z</time>
      </trkpt>
      <trkpt lat="45.35363" lon="5.74985">
        <ele>934.8</ele>
        <time>2021-12-19T08:52:28Z</time>
      </trkpt>
      <trkpt lat="45.35362" lon="5.74984">
        <ele>934.8</ele>
        <time>2021-12-19T08:52:29Z</time>
      </trkpt>
      <trkpt lat="45.35362" lon="5.74983">
        <ele>934.8</ele>
        <time>2021-12-19T08:52:30Z</time>
      </trkpt>
      <trkpt lat="45.35362" lon="5.74982">
        <ele>934.8</ele>
        <time>2021-12-19T08:52:31Z</time>
      </trkpt>
      <trkpt lat="45.35361" lon="5.74981">
        <ele>934.8</ele>
        <time>2021-12-19T08:52:32Z</time>
      </trkpt>
      <trkpt lat="45.35361" lon="5.74981">
        <ele>934.8</ele>
        <time>2021-12-19T08:52:33Z</time>
      </trkpt>
      <trkpt lat="45.3536" lon="5.74979">
        <ele>934.9</ele>
        <time>2021-12-19T08:52:34Z</time>
      </trkpt>
      <trkpt lat="45.35359" lon="5.74978">
        <ele>934.9</ele>
        <time>2021-12-19T08:52:35Z</time>
      </trkpt>
      <trkpt lat="45.35358" lon="5.74977">
        <ele>934.9</ele>
        <time>2021-12-19T08:52:36Z</time>
      </trkpt>
      <trkpt lat="45.35357" lon="5.74977">
        <ele>934.9</ele>
        <time>2021-12-19T08:52:37Z</time>
      </trkpt>
      <trkpt lat="45.35357" lon="5.74977">
        <ele>934.9</ele>
        <time>2021-12-19T08:52:38Z</time>
      </trkpt>
      <trkpt lat="45.35357" lon="5.74975">
        <ele>935</ele>
        <time>2021-12-19T08:52:39Z</time>
      </trkpt>
      <trkpt lat="45.35356" lon="5.74975">
        <ele>935</ele>
        <time>2021-12-19T08:52:40Z</time>
      </trkpt>
      <trkpt lat="45.35356" lon="5.74974">
        <ele>935</ele>
        <time>2021-12-19T08:52:41Z</time>
      </trkpt>
      <trkpt lat="45.35356" lon="5.74974">
        <ele>935</ele>
        <time>2021-12-19T08:52:42Z</time>
      </trkpt>
      <trkpt lat="45.35355" lon="5.74973">
        <ele>935</ele>
        <time>2021-12-19T08:52:43Z</time>
      </trkpt>
      <trkpt lat="45.35355" lon="5.74972">
        <ele>935</ele>
        <time>2021-12-19T08:52:44Z</time>
      </trkpt>
      <trkpt lat="45.35355" lon="5.74972">
        <ele>935</ele>
        <time>2021-12-19T08:52:45Z</time>
      </trkpt>
      <trkpt lat="45.35355" lon="5.74971">
        <ele>935</ele>
        <time>2021-12-19T08:52:46Z</time>
      </trkpt>
      <trkpt lat="45.35355" lon="5.74971">
        <ele>935</ele>
        <time>2021-12-19T08:52:47Z</time>
      </trkpt>
      <trkpt lat="45.35355" lon="5.74971">
        <ele>935</ele>
        <time>2021-12-19T08:52:48Z</time>
      </trkpt>
      <trkpt lat="45.35355" lon="5.74971">
        <ele>935</ele>
        <time>2021-12-19T08:52:49Z</time>
      </trkpt>
      <trkpt lat="45.35355" lon="5.74971">
        <ele>935</ele>
        <time>2021-12-19T08:52:50Z</time>
      </trkpt>
      <trkpt lat="45.35354" lon="5.74971">
        <ele>935</ele>
        <time>2021-12-19T08:52:51Z</time>
      </trkpt>
      <trkpt lat="45.35354" lon="5.74971">
        <ele>935</ele>
        <time>2021-12-19T08:52:52Z</time>
      </trkpt>
      <trkpt lat="45.35354" lon="5.74971">
        <ele>935</ele>
        <time>2021-12-19T08:52:53Z</time>
      </trkpt>
      <trkpt lat="45.35355" lon="5.7497">
        <ele>935.1</ele>
        <time>2021-12-19T08:52:54Z</time>
      </trkpt>
      <trkpt lat="45.35355" lon="5.74969">
        <ele>935.1</ele>
        <time>2021-12-19T08:52:55Z</time>
      </trkpt>
      <trkpt lat="45.35355" lon="5.74969">
        <ele>935.1</ele>
        <time>2021-12-19T08:52:56Z</time>
      </trkpt>
      <trkpt lat="45.35355" lon="5.74969">
        <ele>935.1</ele>
        <time>2021-12-19T08:52:57Z</time>
      </trkpt>
      <trkpt lat="45.35355" lon="5.74969">
        <ele>935.1</ele>
        <time>2021-12-19T08:52:58Z</time>
      </trkpt>
      <trkpt lat="45.35355" lon="5.74969">
        <ele>935.1</ele>
        <time>2021-12-19T08:52:59Z</time>
      </trkpt>
      <trkpt lat="45.35355" lon="5.74969">
        <ele>935.1</ele>
        <time>2021-12-19T08:53:00Z</time>
      </trkpt>
      <trkpt lat="45.35355" lon="5.74969">
        <ele>935.1</ele>
        <time>2021-12-19T08:53:01Z</time>
      </trkpt>
      <trkpt lat="45.35355" lon="5.74969">
        <ele>935.1</ele>
        <time>2021-12-19T08:53:02Z</time>
      </trkpt>
      <trkpt lat="45.35355" lon="5.74969">
        <ele>935.1</ele>
        <time>2021-12-19T08:53:03Z</time>
      </trkpt>
      <trkpt lat="45.35355" lon="5.74969">
        <ele>935.1</ele>
        <time>2021-12-19T08:53:04Z</time>
      </trkpt>
      <trkpt lat="45.35355" lon="5.74969">
        <ele>935.1</ele>
        <time>2021-12-19T08:53:05Z</time>
      </trkpt>
      <trkpt lat="45.35355" lon="5.74969">
        <ele>935.1</ele>
        <time>2021-12-19T08:53:06Z</time>
      </trkpt>
      <trkpt lat="45.35355" lon="5.74969">
        <ele>935.1</ele>
        <time>2021-12-19T08:53:07Z</time>
      </trkpt>
      <trkpt lat="45.35355" lon="5.74969">
        <ele>935.1</ele>
        <time>2021-12-19T08:53:08Z</time>
      </trkpt>
      <trkpt lat="45.35355" lon="5.74969">
        <ele>935.1</ele>
        <time>2021-12-19T08:53:09Z</time>
      </trkpt>
      <trkpt lat="45.35355" lon="5.74969">
        <ele>935.1</ele>
        <time>2021-12-19T08:53:10Z</time>
      </trkpt>
      <trkpt lat="45.35355" lon="5.74969">
        <ele>935.1</ele>
        <time>2021-12-19T08:53:11Z</time>
      </trkpt>
      <trkpt lat="45.35355" lon="5.74969">
        <ele>935.1</ele>
        <time>2021-12-19T08:53:12Z</time>
      </trkpt>
      <trkpt lat="45.35355" lon="5.74969">
        <ele>935.1</ele>
        <time>2021-12-19T08:53:13Z</time>
      </trkpt>
      <trkpt lat="45.35354" lon="5.74969">
        <ele>935.1</ele>
        <time>2021-12-19T08:53:14Z</time>
      </trkpt>
      <trkpt lat="45.35354" lon="5.74969">
        <ele>935.1</ele>
        <time>2021-12-19T08:53:15Z</time>
      </trkpt>
      <trkpt lat="45.35354" lon="5.74969">
        <ele>935.1</ele>
        <time>2021-12-19T08:53:16Z</time>
      </trkpt>
      <trkpt lat="45.35354" lon="5.74969">
        <ele>935.1</ele>
        <time>2021-12-19T08:53:17Z</time>
      </trkpt>
      <trkpt lat="45.35354" lon="5.74969">
        <ele>935.1</ele>
        <time>2021-12-19T08:53:18Z</time>
      </trkpt>
      <trkpt lat="45.35354" lon="5.74969">
        <ele>935.1</ele>
        <time>2021-12-19T08:53:19Z</time>
      </trkpt>
      <trkpt lat="45.35354" lon="5.74969">
        <ele>935.1</ele>
        <time>2021-12-19T08:53:20Z</time>
      </trkpt>
      <trkpt lat="45.35354" lon="5.74969">
        <ele>935.1</ele>
        <time>2021-12-19T08:53:21Z</time>
      </trkpt>
      <trkpt lat="45.35354" lon="5.74968">
        <ele>935.1</ele>
        <time>2021-12-19T08:53:22Z</time>
      </trkpt>
      <trkpt lat="45.35354" lon="5.74968">
        <ele>935.1</ele>
        <time>2021-12-19T08:53:23Z</time>
      </trkpt>
      <trkpt lat="45.35354" lon="5.74968">
        <ele>935.1</ele>
        <time>2021-12-19T08:53:24Z</time>
      </trkpt>
      <trkpt lat="45.35354" lon="5.74968">
        <ele>935.1</ele>
        <time>2021-12-19T08:53:25Z</time>
      </trkpt>
      <trkpt lat="45.35354" lon="5.74969">
        <ele>935.1</ele>
        <time>2021-12-19T08:53:26Z</time>
      </trkpt>
      <trkpt lat="45.35354" lon="5.74969">
        <ele>935.1</ele>
        <time>2021-12-19T08:53:27Z</time>
      </trkpt>
      <trkpt lat="45.35354" lon="5.74969">
        <ele>935.1</ele>
        <time>2021-12-19T08:53:28Z</time>
      </trkpt>
      <trkpt lat="45.35354" lon="5.74969">
        <ele>935.1</ele>
        <time>2021-12-19T08:53:29Z</time>
      </trkpt>
      <trkpt lat="45.35354" lon="5.74969">
        <ele>935.1</ele>
        <time>2021-12-19T08:53:30Z</time>
      </trkpt>
      <trkpt lat="45.35354" lon="5.74969">
        <ele>935.1</ele>
        <time>2021-12-19T08:53:31Z</time>
      </trkpt>
      <trkpt lat="45.35354" lon="5.74969">
        <ele>935.1</ele>
        <time>2021-12-19T08:53:32Z</time>
      </trkpt>
      <trkpt lat="45.35354" lon="5.74969">
        <ele>935.1</ele>
        <time>2021-12-19T08:53:33Z</time>
      </trkpt>
      <trkpt lat="45.35354" lon="5.74968">
        <ele>935.1</ele>
        <time>2021-12-19T08:53:34Z</time>
      </trkpt>
      <trkpt lat="45.35354" lon="5.74968">
        <ele>935.1</ele>
        <time>2021-12-19T08:53:35Z</time>
      </trkpt>
      <trkpt lat="45.35354" lon="5.74969">
        <ele>935.1</ele>
        <time>2021-12-19T08:53:36Z</time>
      </trkpt>
      <trkpt lat="45.35354" lon="5.74969">
        <ele>935.1</ele>
        <time>2021-12-19T08:53:37Z</time>
      </trkpt>
      <trkpt lat="45.35354" lon="5.74969">
        <ele>935.1</ele>
        <time>2021-12-19T08:53:38Z</time>
      </trkpt>
      <trkpt lat="45.35354" lon="5.74968">
        <ele>935.1</ele>
        <time>2021-12-19T08:53:39Z</time>
      </trkpt>
      <trkpt lat="45.35354" lon="5.74968">
        <ele>935.1</ele>
        <time>2021-12-19T08:53:40Z</time>
      </trkpt>
      <trkpt lat="45.35354" lon="5.74968">
        <ele>935.1</ele>
        <time>2021-12-19T08:53:41Z</time>
      </trkpt>
      <trkpt lat="45.35354" lon="5.74968">
        <ele>935.1</ele>
        <time>2021-12-19T08:53:42Z</time>
      </trkpt>
      <trkpt lat="45.35354" lon="5.74968">
        <ele>935.1</ele>
        <time>2021-12-19T08:53:43Z</time>
      </trkpt>
      <trkpt lat="45.35354" lon="5.74968">
        <ele>935.1</ele>
        <time>2021-12-19T08:53:44Z</time>
      </trkpt>
      <trkpt lat="45.35354" lon="5.74968">
        <ele>935.1</ele>
        <time>2021-12-19T08:53:45Z</time>
      </trkpt>
      <trkpt lat="45.35354" lon="5.74968">
        <ele>935.1</ele>
        <time>2021-12-19T08:53:46Z</time>
      </trkpt>
      <trkpt lat="45.35354" lon="5.74968">
        <ele>935.1</ele>
        <time>2021-12-19T08:53:47Z</time>
      </trkpt>
      <trkpt lat="45.35354" lon="5.74968">
        <ele>935.1</ele>
        <time>2021-12-19T08:53:48Z</time>
      </trkpt>
      <trkpt lat="45.35354" lon="5.74968">
        <ele>935.1</ele>
        <time>2021-12-19T08:53:49Z</time>
      </trkpt>
      <trkpt lat="45.35354" lon="5.74968">
        <ele>935.1</ele>
        <time>2021-12-19T08:53:50Z</time>
      </trkpt>
      <trkpt lat="45.35354" lon="5.74968">
        <ele>935.1</ele>
        <time>2021-12-19T08:53:51Z</time>
      </trkpt>
      <trkpt lat="45.35354" lon="5.74968">
        <ele>935.1</ele>
        <time>2021-12-19T08:53:52Z</time>
      </trkpt>
      <trkpt lat="45.35354" lon="5.74968">
        <ele>935.1</ele>
        <time>2021-12-19T08:53:53Z</time>
      </trkpt>
      <trkpt lat="45.35354" lon="5.74968">
        <ele>935.1</ele>
        <time>2021-12-19T08:53:54Z</time>
      </trkpt>
      <trkpt lat="45.35354" lon="5.74968">
        <ele>935.1</ele>
        <time>2021-12-19T08:53:55Z</time>
      </trkpt>
      <trkpt lat="45.35354" lon="5.74968">
        <ele>935.1</ele>
        <time>2021-12-19T08:53:56Z</time>
      </trkpt>
      <trkpt lat="45.35354" lon="5.74968">
        <ele>935.1</ele>
        <time>2021-12-19T08:53:57Z</time>
      </trkpt>
      <trkpt lat="45.35354" lon="5.74968">
        <ele>935.1</ele>
        <time>2021-12-19T08:53:58Z</time>
      </trkpt>
      <trkpt lat="45.35354" lon="5.74968">
        <ele>935.1</ele>
        <time>2021-12-19T08:53:59Z</time>
      </trkpt>
      <trkpt lat="45.35354" lon="5.74968">
        <ele>935.1</ele>
        <time>2021-12-19T08:54:00Z</time>
      </trkpt>
      <trkpt lat="45.35354" lon="5.74968">
        <ele>935.1</ele>
        <time>2021-12-19T08:54:01Z</time>
      </trkpt>
      <trkpt lat="45.35354" lon="5.74968">
        <ele>935.1</ele>
        <time>2021-12-19T08:54:02Z</time>
      </trkpt>
      <trkpt lat="45.35354" lon="5.74968">
        <ele>935.1</ele>
        <time>2021-12-19T08:54:03Z</time>
      </trkpt>
      <trkpt lat="45.35354" lon="5.74968">
        <ele>935.1</ele>
        <time>2021-12-19T08:54:04Z</time>
      </trkpt>
      <trkpt lat="45.35354" lon="5.74968">
        <ele>935.1</ele>
        <time>2021-12-19T08:54:05Z</time>
      </trkpt>
      <trkpt lat="45.35354" lon="5.74968">
        <ele>935.1</ele>
        <time>2021-12-19T08:54:06Z</time>
      </trkpt>
      <trkpt lat="45.35354" lon="5.74968">
        <ele>935.1</ele>
        <time>2021-12-19T08:54:07Z</time>
      </trkpt>
      <trkpt lat="45.35354" lon="5.74968">
        <ele>935.1</ele>
        <time>2021-12-19T08:54:08Z</time>
      </trkpt>
      <trkpt lat="45.35354" lon="5.74968">
        <ele>935.1</ele>
        <time>2021-12-19T08:54:09Z</time>
      </trkpt>
      <trkpt lat="45.35354" lon="5.74968">
        <ele>935.1</ele>
        <time>2021-12-19T08:54:10Z</time>
      </trkpt>
      <trkpt lat="45.35354" lon="5.74968">
        <ele>935.1</ele>
        <time>2021-12-19T08:54:11Z</time>
      </trkpt>
      <trkpt lat="45.35354" lon="5.74968">
        <ele>935.1</ele>
        <time>2021-12-19T08:54:12Z</time>
      </trkpt>
      <trkpt lat="45.35354" lon="5.74968">
        <ele>935.1</ele>
        <time>2021-12-19T08:54:13Z</time>
      </trkpt>
      <trkpt lat="45.35354" lon="5.74968">
        <ele>935.1</ele>
        <time>2021-12-19T08:54:14Z</time>
      </trkpt>
      <trkpt lat="45.35354" lon="5.74968">
        <ele>935.1</ele>
        <time>2021-12-19T08:54:15Z</time>
      </trkpt>
      <trkpt lat="45.35354" lon="5.74968">
        <ele>935.1</ele>
        <time>2021-12-19T08:54:16Z</time>
      </trkpt>
      <trkpt lat="45.35354" lon="5.74968">
        <ele>935.1</ele>
        <time>2021-12-19T08:54:17Z</time>
      </trkpt>
      <trkpt lat="45.35354" lon="5.74968">
        <ele>935.2</ele>
        <time>2021-12-19T08:54:18Z</time>
      </trkpt>
      <trkpt lat="45.35354" lon="5.74968">
        <ele>935.2</ele>
        <time>2021-12-19T08:54:19Z</time>
      </trkpt>
      <trkpt lat="45.35354" lon="5.74968">
        <ele>935.2</ele>
        <time>2021-12-19T08:54:20Z</time>
      </trkpt>
      <trkpt lat="45.35354" lon="5.74967">
        <ele>935.2</ele>
        <time>2021-12-19T08:54:21Z</time>
      </trkpt>
      <trkpt lat="45.35353" lon="5.74967">
        <ele>935.2</ele>
        <time>2021-12-19T08:54:22Z</time>
      </trkpt>
      <trkpt lat="45.35353" lon="5.74966">
        <ele>935.2</ele>
        <time>2021-12-19T08:54:23Z</time>
      </trkpt>
      <trkpt lat="45.35353" lon="5.74966">
        <ele>935.2</ele>
        <time>2021-12-19T08:54:24Z</time>
      </trkpt>
      <trkpt lat="45.35353" lon="5.74965">
        <ele>935.2</ele>
        <time>2021-12-19T08:54:25Z</time>
      </trkpt>
      <trkpt lat="45.35352" lon="5.74965">
        <ele>935.2</ele>
        <time>2021-12-19T08:54:26Z</time>
      </trkpt>
      <trkpt lat="45.35352" lon="5.74965">
        <ele>935.2</ele>
        <time>2021-12-19T08:54:27Z</time>
      </trkpt>
      <trkpt lat="45.35353" lon="5.74965">
        <ele>935.2</ele>
        <time>2021-12-19T08:54:28Z</time>
      </trkpt>
      <trkpt lat="45.35353" lon="5.74965">
        <ele>935.2</ele>
        <time>2021-12-19T08:54:29Z</time>
      </trkpt>
      <trkpt lat="45.35353" lon="5.74965">
        <ele>935.2</ele>
        <time>2021-12-19T08:54:30Z</time>
      </trkpt>
      <trkpt lat="45.35352" lon="5.74965">
        <ele>935.2</ele>
        <time>2021-12-19T08:54:31Z</time>
      </trkpt>
      <trkpt lat="45.35353" lon="5.74965">
        <ele>935.2</ele>
        <time>2021-12-19T08:54:32Z</time>
      </trkpt>
      <trkpt lat="45.35353" lon="5.74965">
        <ele>935.2</ele>
        <time>2021-12-19T08:54:33Z</time>
      </trkpt>
      <trkpt lat="45.35353" lon="5.74965">
        <ele>935.2</ele>
        <time>2021-12-19T08:54:34Z</time>
      </trkpt>
      <trkpt lat="45.35353" lon="5.74965">
        <ele>935.2</ele>
        <time>2021-12-19T08:54:35Z</time>
      </trkpt>
      <trkpt lat="45.35353" lon="5.74965">
        <ele>935.2</ele>
        <time>2021-12-19T08:54:36Z</time>
      </trkpt>
      <trkpt lat="45.35353" lon="5.74965">
        <ele>935.2</ele>
        <time>2021-12-19T08:54:37Z</time>
      </trkpt>
      <trkpt lat="45.35353" lon="5.74965">
        <ele>935.2</ele>
        <time>2021-12-19T08:54:38Z</time>
      </trkpt>
      <trkpt lat="45.35353" lon="5.74965">
        <ele>935.2</ele>
        <time>2021-12-19T08:54:39Z</time>
      </trkpt>
      <trkpt lat="45.35353" lon="5.74965">
        <ele>935.2</ele>
        <time>2021-12-19T08:54:40Z</time>
      </trkpt>
      <trkpt lat="45.35353" lon="5.74965">
        <ele>935.2</ele>
        <time>2021-12-19T08:54:41Z</time>
      </trkpt>
      <trkpt lat="45.35352" lon="5.74965">
        <ele>935.2</ele>
        <time>2021-12-19T08:54:42Z</time>
      </trkpt>
      <trkpt lat="45.35352" lon="5.74965">
        <ele>935.2</ele>
        <time>2021-12-19T08:54:43Z</time>
      </trkpt>
      <trkpt lat="45.35352" lon="5.74966">
        <ele>935.3</ele>
        <time>2021-12-19T08:54:44Z</time>
      </trkpt>
      <trkpt lat="45.35352" lon="5.74966">
        <ele>935.3</ele>
        <time>2021-12-19T08:54:45Z</time>
      </trkpt>
      <trkpt lat="45.35352" lon="5.74966">
        <ele>935.3</ele>
        <time>2021-12-19T08:54:46Z</time>
      </trkpt>
      <trkpt lat="45.35352" lon="5.74967">
        <ele>935.3</ele>
        <time>2021-12-19T08:54:47Z</time>
      </trkpt>
      <trkpt lat="45.35352" lon="5.74967">
        <ele>935.3</ele>
        <time>2021-12-19T08:54:48Z</time>
      </trkpt>
      <trkpt lat="45.35352" lon="5.74967">
        <ele>935.3</ele>
        <time>2021-12-19T08:54:49Z</time>
      </trkpt>
      <trkpt lat="45.35352" lon="5.74967">
        <ele>935.3</ele>
        <time>2021-12-19T08:54:50Z</time>
      </trkpt>
      <trkpt lat="45.35352" lon="5.74967">
        <ele>935.3</ele>
        <time>2021-12-19T08:54:51Z</time>
      </trkpt>
      <trkpt lat="45.35352" lon="5.74967">
        <ele>935.3</ele>
        <time>2021-12-19T08:54:52Z</time>
      </trkpt>
      <trkpt lat="45.35352" lon="5.74966">
        <ele>935.3</ele>
        <time>2021-12-19T08:54:53Z</time>
      </trkpt>
      <trkpt lat="45.35352" lon="5.74967">
        <ele>935.3</ele>
        <time>2021-12-19T08:54:54Z</time>
      </trkpt>
      <trkpt lat="45.35352" lon="5.74966">
        <ele>935.3</ele>
        <time>2021-12-19T08:54:55Z</time>
      </trkpt>
      <trkpt lat="45.35352" lon="5.74967">
        <ele>935.3</ele>
        <time>2021-12-19T08:54:56Z</time>
      </trkpt>
      <trkpt lat="45.35352" lon="5.74967">
        <ele>935.3</ele>
        <time>2021-12-19T08:54:57Z</time>
      </trkpt>
      <trkpt lat="45.35353" lon="5.74968">
        <ele>935.3</ele>
        <time>2021-12-19T08:54:58Z</time>
      </trkpt>
      <trkpt lat="45.35353" lon="5.74969">
        <ele>935.3</ele>
        <time>2021-12-19T08:54:59Z</time>
      </trkpt>
      <trkpt lat="45.35354" lon="5.74971">
        <ele>935.3</ele>
        <time>2021-12-19T08:55:00Z</time>
      </trkpt>
      <trkpt lat="45.35354" lon="5.74972">
        <ele>935.4</ele>
        <time>2021-12-19T08:55:01Z</time>
      </trkpt>
      <trkpt lat="45.35355" lon="5.74972">
        <ele>935.4</ele>
        <time>2021-12-19T08:55:02Z</time>
      </trkpt>
      <trkpt lat="45.35355" lon="5.74974">
        <ele>935.4</ele>
        <time>2021-12-19T08:55:03Z</time>
      </trkpt>
      <trkpt lat="45.35355" lon="5.74975">
        <ele>935.4</ele>
        <time>2021-12-19T08:55:04Z</time>
      </trkpt>
      <trkpt lat="45.35356" lon="5.74976">
        <ele>935.4</ele>
        <time>2021-12-19T08:55:05Z</time>
      </trkpt>
      <trkpt lat="45.35356" lon="5.74977">
        <ele>935.5</ele>
        <time>2021-12-19T08:55:06Z</time>
      </trkpt>
      <trkpt lat="45.35357" lon="5.74979">
        <ele>935.5</ele>
        <time>2021-12-19T08:55:07Z</time>
      </trkpt>
      <trkpt lat="45.35358" lon="5.7498">
        <ele>935.6</ele>
        <time>2021-12-19T08:55:08Z</time>
      </trkpt>
      <trkpt lat="45.35359" lon="5.74982">
        <ele>935.6</ele>
        <time>2021-12-19T08:55:09Z</time>
      </trkpt>
      <trkpt lat="45.3536" lon="5.74982">
        <ele>935.6</ele>
        <time>2021-12-19T08:55:10Z</time>
      </trkpt>
      <trkpt lat="45.3536" lon="5.74983">
        <ele>935.6</ele>
        <time>2021-12-19T08:55:11Z</time>
      </trkpt>
      <trkpt lat="45.35362" lon="5.74984">
        <ele>935.7</ele>
        <time>2021-12-19T08:55:12Z</time>
      </trkpt>
      <trkpt lat="45.35362" lon="5.74985">
        <ele>935.7</ele>
        <time>2021-12-19T08:55:13Z</time>
      </trkpt>
      <trkpt lat="45.35363" lon="5.74986">
        <ele>935.7</ele>
        <time>2021-12-19T08:55:14Z</time>
      </trkpt>
      <trkpt lat="45.35365" lon="5.74987">
        <ele>935.8</ele>
        <time>2021-12-19T08:55:15Z</time>
      </trkpt>
      <trkpt lat="45.35366" lon="5.74988">
        <ele>935.8</ele>
        <time>2021-12-19T08:55:16Z</time>
      </trkpt>
      <trkpt lat="45.35367" lon="5.74989">
        <ele>935.8</ele>
        <time>2021-12-19T08:55:17Z</time>
      </trkpt>
      <trkpt lat="45.35368" lon="5.7499">
        <ele>935.8</ele>
        <time>2021-12-19T08:55:18Z</time>
      </trkpt>
      <trkpt lat="45.35369" lon="5.7499">
        <ele>935.8</ele>
        <time>2021-12-19T08:55:19Z</time>
      </trkpt>
      <trkpt lat="45.3537" lon="5.74991">
        <ele>935.9</ele>
        <time>2021-12-19T08:55:20Z</time>
      </trkpt>
      <trkpt lat="45.3537" lon="5.74992">
        <ele>935.9</ele>
        <time>2021-12-19T08:55:21Z</time>
      </trkpt>
      <trkpt lat="45.35371" lon="5.74992">
        <ele>935.9</ele>
        <time>2021-12-19T08:55:22Z</time>
      </trkpt>
      <trkpt lat="45.35371" lon="5.74992">
        <ele>935.9</ele>
        <time>2021-12-19T08:55:23Z</time>
      </trkpt>
      <trkpt lat="45.35371" lon="5.74992">
        <ele>935.9</ele>
        <time>2021-12-19T08:55:24Z</time>
      </trkpt>
      <trkpt lat="45.35371" lon="5.74991">
        <ele>935.9</ele>
        <time>2021-12-19T08:55:25Z</time>
      </trkpt>
      <trkpt lat="45.35371" lon="5.74991">
        <ele>935.9</ele>
        <time>2021-12-19T08:55:26Z</time>
      </trkpt>
      <trkpt lat="45.35371" lon="5.74991">
        <ele>935.9</ele>
        <time>2021-12-19T08:55:27Z</time>
      </trkpt>
      <trkpt lat="45.35372" lon="5.74991">
        <ele>935.9</ele>
        <time>2021-12-19T08:55:28Z</time>
      </trkpt>
      <trkpt lat="45.35372" lon="5.74991">
        <ele>936</ele>
        <time>2021-12-19T08:55:29Z</time>
      </trkpt>
      <trkpt lat="45.35372" lon="5.74991">
        <ele>936</ele>
        <time>2021-12-19T08:55:30Z</time>
      </trkpt>
      <trkpt lat="45.35372" lon="5.7499">
        <ele>936</ele>
        <time>2021-12-19T08:55:31Z</time>
      </trkpt>
      <trkpt lat="45.35372" lon="5.7499">
        <ele>936</ele>
        <time>2021-12-19T08:55:32Z</time>
      </trkpt>
      <trkpt lat="45.35373" lon="5.7499">
        <ele>936</ele>
        <time>2021-12-19T08:55:33Z</time>
      </trkpt>
      <trkpt lat="45.35373" lon="5.7499">
        <ele>936</ele>
        <time>2021-12-19T08:55:34Z</time>
      </trkpt>
      <trkpt lat="45.35372" lon="5.7499">
        <ele>936</ele>
        <time>2021-12-19T08:55:35Z</time>
      </trkpt>
      <trkpt lat="45.35372" lon="5.74989">
        <ele>936</ele>
        <time>2021-12-19T08:55:36Z</time>
      </trkpt>
      <trkpt lat="45.35372" lon="5.74989">
        <ele>936</ele>
        <time>2021-12-19T08:55:37Z</time>
      </trkpt>
      <trkpt lat="45.35372" lon="5.74989">
        <ele>936</ele>
        <time>2021-12-19T08:55:38Z</time>
      </trkpt>
      <trkpt lat="45.35371" lon="5.74989">
        <ele>936</ele>
        <time>2021-12-19T08:55:39Z</time>
      </trkpt>
      <trkpt lat="45.3537" lon="5.74988">
        <ele>936.1</ele>
        <time>2021-12-19T08:55:40Z</time>
      </trkpt>
      <trkpt lat="45.35368" lon="5.74988">
        <ele>936.1</ele>
        <time>2021-12-19T08:55:41Z</time>
      </trkpt>
      <trkpt lat="45.35367" lon="5.74987">
        <ele>936.1</ele>
        <time>2021-12-19T08:55:42Z</time>
      </trkpt>
      <trkpt lat="45.35366" lon="5.74987">
        <ele>936.2</ele>
        <time>2021-12-19T08:55:43Z</time>
      </trkpt>
      <trkpt lat="45.35365" lon="5.74986">
        <ele>936.2</ele>
        <time>2021-12-19T08:55:44Z</time>
      </trkpt>
      <trkpt lat="45.35364" lon="5.74985">
        <ele>936.2</ele>
        <time>2021-12-19T08:55:45Z</time>
      </trkpt>
      <trkpt lat="45.35363" lon="5.74985">
        <ele>936.2</ele>
        <time>2021-12-19T08:55:46Z</time>
      </trkpt>
      <trkpt lat="45.35363" lon="5.74984">
        <ele>936.2</ele>
        <time>2021-12-19T08:55:47Z</time>
      </trkpt>
      <trkpt lat="45.35362" lon="5.74984">
        <ele>936.3</ele>
        <time>2021-12-19T08:55:48Z</time>
      </trkpt>
      <trkpt lat="45.35362" lon="5.74984">
        <ele>936.3</ele>
        <time>2021-12-19T08:55:49Z</time>
      </trkpt>
      <trkpt lat="45.35361" lon="5.74984">
        <ele>936.3</ele>
        <time>2021-12-19T08:55:50Z</time>
      </trkpt>
      <trkpt lat="45.35361" lon="5.74984">
        <ele>936.3</ele>
        <time>2021-12-19T08:55:51Z</time>
      </trkpt>
      <trkpt lat="45.35361" lon="5.74983">
        <ele>936.3</ele>
        <time>2021-12-19T08:55:52Z</time>
      </trkpt>
      <trkpt lat="45.3536" lon="5.74983">
        <ele>936.3</ele>
        <time>2021-12-19T08:55:53Z</time>
      </trkpt>
      <trkpt lat="45.3536" lon="5.74984">
        <ele>936.4</ele>
        <time>2021-12-19T08:55:54Z</time>
      </trkpt>
      <trkpt lat="45.3536" lon="5.74983">
        <ele>936.4</ele>
        <time>2021-12-19T08:55:55Z</time>
      </trkpt>
      <trkpt lat="45.35359" lon="5.74983">
        <ele>936.4</ele>
        <time>2021-12-19T08:55:56Z</time>
      </trkpt>
      <trkpt lat="45.35358" lon="5.74982">
        <ele>936.4</ele>
        <time>2021-12-19T08:55:57Z</time>
      </trkpt>
      <trkpt lat="45.35358" lon="5.74982">
        <ele>936.4</ele>
        <time>2021-12-19T08:55:58Z</time>
      </trkpt>
      <trkpt lat="45.35357" lon="5.7498">
        <ele>936.4</ele>
        <time>2021-12-19T08:55:59Z</time>
      </trkpt>
      <trkpt lat="45.35356" lon="5.7498">
        <ele>936.4</ele>
        <time>2021-12-19T08:56:00Z</time>
      </trkpt>
      <trkpt lat="45.35356" lon="5.74978">
        <ele>936.5</ele>
        <time>2021-12-19T08:56:01Z</time>
      </trkpt>
      <trkpt lat="45.35355" lon="5.74978">
        <ele>936.5</ele>
        <time>2021-12-19T08:56:02Z</time>
      </trkpt>
      <trkpt lat="45.35354" lon="5.74978">
        <ele>936.6</ele>
        <time>2021-12-19T08:56:03Z</time>
      </trkpt>
      <trkpt lat="45.35354" lon="5.74978">
        <ele>936.6</ele>
        <time>2021-12-19T08:56:04Z</time>
      </trkpt>
      <trkpt lat="45.35354" lon="5.74977">
        <ele>936.6</ele>
        <time>2021-12-19T08:56:05Z</time>
      </trkpt>
      <trkpt lat="45.35354" lon="5.74977">
        <ele>936.6</ele>
        <time>2021-12-19T08:56:06Z</time>
      </trkpt>
      <trkpt lat="45.35353" lon="5.74976">
        <ele>936.6</ele>
        <time>2021-12-19T08:56:07Z</time>
      </trkpt>
      <trkpt lat="45.35353" lon="5.74976">
        <ele>936.6</ele>
        <time>2021-12-19T08:56:08Z</time>
      </trkpt>
      <trkpt lat="45.35353" lon="5.74975">
        <ele>936.6</ele>
        <time>2021-12-19T08:56:09Z</time>
      </trkpt>
      <trkpt lat="45.35353" lon="5.74974">
        <ele>936.6</ele>
        <time>2021-12-19T08:56:10Z</time>
      </trkpt>
      <trkpt lat="45.35352" lon="5.74973">
        <ele>936.7</ele>
        <time>2021-12-19T08:56:11Z</time>
      </trkpt>
      <trkpt lat="45.35352" lon="5.74971">
        <ele>936.7</ele>
        <time>2021-12-19T08:56:12Z</time>
      </trkpt>
      <trkpt lat="45.35352" lon="5.7497">
        <ele>936.7</ele>
        <time>2021-12-19T08:56:13Z</time>
      </trkpt>
      <trkpt lat="45.35351" lon="5.74969">
        <ele>936.7</ele>
        <time>2021-12-19T08:56:14Z</time>
      </trkpt>
      <trkpt lat="45.3535" lon="5.74968">
        <ele>936.7</ele>
        <time>2021-12-19T08:56:15Z</time>
      </trkpt>
      <trkpt lat="45.3535" lon="5.74967">
        <ele>936.8</ele>
        <time>2021-12-19T08:56:16Z</time>
      </trkpt>
      <trkpt lat="45.3535" lon="5.74966">
        <ele>936.8</ele>
        <time>2021-12-19T08:56:17Z</time>
      </trkpt>
      <trkpt lat="45.3535" lon="5.74966">
        <ele>936.8</ele>
        <time>2021-12-19T08:56:18Z</time>
      </trkpt>
      <trkpt lat="45.3535" lon="5.74966">
        <ele>936.8</ele>
        <time>2021-12-19T08:56:19Z</time>
      </trkpt>
      <trkpt lat="45.3535" lon="5.74965">
        <ele>936.8</ele>
        <time>2021-12-19T08:56:20Z</time>
      </trkpt>
      <trkpt lat="45.3535" lon="5.74965">
        <ele>936.8</ele>
        <time>2021-12-19T08:56:21Z</time>
      </trkpt>
      <trkpt lat="45.3535" lon="5.74965">
        <ele>936.8</ele>
        <time>2021-12-19T08:56:22Z</time>
      </trkpt>
      <trkpt lat="45.3535" lon="5.74965">
        <ele>936.9</ele>
        <time>2021-12-19T08:56:23Z</time>
      </trkpt>
      <trkpt lat="45.3535" lon="5.74965">
        <ele>936.9</ele>
        <time>2021-12-19T08:56:24Z</time>
      </trkpt>
      <trkpt lat="45.35351" lon="5.74965">
        <ele>936.9</ele>
        <time>2021-12-19T08:56:25Z</time>
      </trkpt>
      <trkpt lat="45.35351" lon="5.74965">
        <ele>936.9</ele>
        <time>2021-12-19T08:56:26Z</time>
      </trkpt>
      <trkpt lat="45.35351" lon="5.74965">
        <ele>936.9</ele>
        <time>2021-12-19T08:56:27Z</time>
      </trkpt>
      <trkpt lat="45.35351" lon="5.74965">
        <ele>936.9</ele>
        <time>2021-12-19T08:56:28Z</time>
      </trkpt>
      <trkpt lat="45.35351" lon="5.74965">
        <ele>936.9</ele>
        <time>2021-12-19T08:56:29Z</time>
      </trkpt>
      <trkpt lat="45.35352" lon="5.74965">
        <ele>936.9</ele>
        <time>2021-12-19T08:56:30Z</time>
      </trkpt>
      <trkpt lat="45.35352" lon="5.74965">
        <ele>936.9</ele>
        <time>2021-12-19T08:56:31Z</time>
      </trkpt>
      <trkpt lat="45.35352" lon="5.74965">
        <ele>936.9</ele>
        <time>2021-12-19T08:56:32Z</time>
      </trkpt>
      <trkpt lat="45.35352" lon="5.74965">
        <ele>937</ele>
        <time>2021-12-19T08:56:33Z</time>
      </trkpt>
      <trkpt lat="45.35352" lon="5.74964">
        <ele>937</ele>
        <time>2021-12-19T08:56:34Z</time>
      </trkpt>
      <trkpt lat="45.35352" lon="5.74964">
        <ele>937</ele>
        <time>2021-12-19T08:56:35Z</time>
      </trkpt>
      <trkpt lat="45.35352" lon="5.74964">
        <ele>937</ele>
        <time>2021-12-19T08:56:36Z</time>
      </trkpt>
      <trkpt lat="45.35351" lon="5.74965">
        <ele>937</ele>
        <time>2021-12-19T08:56:37Z</time>
      </trkpt>
      <trkpt lat="45.35351" lon="5.74965">
        <ele>937</ele>
        <time>2021-12-19T08:56:38Z</time>
      </trkpt>
      <trkpt lat="45.35351" lon="5.74965">
        <ele>937</ele>
        <time>2021-12-19T08:56:39Z</time>
      </trkpt>
      <trkpt lat="45.35351" lon="5.74965">
        <ele>937</ele>
        <time>2021-12-19T08:56:40Z</time>
      </trkpt>
      <trkpt lat="45.35351" lon="5.74965">
        <ele>937</ele>
        <time>2021-12-19T08:56:41Z</time>
      </trkpt>
      <trkpt lat="45.3535" lon="5.74966">
        <ele>937</ele>
        <time>2021-12-19T08:56:42Z</time>
      </trkpt>
      <trkpt lat="45.3535" lon="5.74966">
        <ele>937</ele>
        <time>2021-12-19T08:56:43Z</time>
      </trkpt>
      <trkpt lat="45.3535" lon="5.74966">
        <ele>937</ele>
        <time>2021-12-19T08:56:44Z</time>
      </trkpt>
      <trkpt lat="45.3535" lon="5.74966">
        <ele>937</ele>
        <time>2021-12-19T08:56:45Z</time>
      </trkpt>
      <trkpt lat="45.3535" lon="5.74965">
        <ele>937</ele>
        <time>2021-12-19T08:56:46Z</time>
      </trkpt>
      <trkpt lat="45.3535" lon="5.74965">
        <ele>937</ele>
        <time>2021-12-19T08:56:47Z</time>
      </trkpt>
      <trkpt lat="45.3535" lon="5.74965">
        <ele>937</ele>
        <time>2021-12-19T08:56:48Z</time>
      </trkpt>
      <trkpt lat="45.3535" lon="5.74965">
        <ele>937</ele>
        <time>2021-12-19T08:56:49Z</time>
      </trkpt>
      <trkpt lat="45.3535" lon="5.74965">
        <ele>937</ele>
        <time>2021-12-19T08:56:50Z</time>
      </trkpt>
      <trkpt lat="45.3535" lon="5.74965">
        <ele>937</ele>
        <time>2021-12-19T08:56:51Z</time>
      </trkpt>
      <trkpt lat="45.3535" lon="5.74965">
        <ele>937.1</ele>
        <time>2021-12-19T08:56:52Z</time>
      </trkpt>
      <trkpt lat="45.3535" lon="5.74965">
        <ele>937.1</ele>
        <time>2021-12-19T08:56:53Z</time>
      </trkpt>
      <trkpt lat="45.3535" lon="5.74965">
        <ele>937.1</ele>
        <time>2021-12-19T08:56:54Z</time>
      </trkpt>
      <trkpt lat="45.3535" lon="5.74965">
        <ele>937.1</ele>
        <time>2021-12-19T08:56:55Z</time>
      </trkpt>
      <trkpt lat="45.3535" lon="5.74964">
        <ele>937.1</ele>
        <time>2021-12-19T08:56:56Z</time>
      </trkpt>
      <trkpt lat="45.35351" lon="5.74964">
        <ele>937.1</ele>
        <time>2021-12-19T08:56:57Z</time>
      </trkpt>
      <trkpt lat="45.35351" lon="5.74964">
        <ele>937.1</ele>
        <time>2021-12-19T08:56:58Z</time>
      </trkpt>
      <trkpt lat="45.3535" lon="5.74964">
        <ele>937.1</ele>
        <time>2021-12-19T08:56:59Z</time>
      </trkpt>
      <trkpt lat="45.3535" lon="5.74963">
        <ele>937.1</ele>
        <time>2021-12-19T08:57:00Z</time>
      </trkpt>
      <trkpt lat="45.3535" lon="5.74962">
        <ele>937.1</ele>
        <time>2021-12-19T08:57:01Z</time>
      </trkpt>
      <trkpt lat="45.35348" lon="5.74962">
        <ele>937.1</ele>
        <time>2021-12-19T08:57:02Z</time>
      </trkpt>
      <trkpt lat="45.35348" lon="5.74961">
        <ele>937.2</ele>
        <time>2021-12-19T08:57:03Z</time>
      </trkpt>
      <trkpt lat="45.35347" lon="5.7496">
        <ele>937.2</ele>
        <time>2021-12-19T08:57:04Z</time>
      </trkpt>
      <trkpt lat="45.35346" lon="5.74959">
        <ele>937.2</ele>
        <time>2021-12-19T08:57:05Z</time>
      </trkpt>
      <trkpt lat="45.35346" lon="5.74958">
        <ele>937.2</ele>
        <time>2021-12-19T08:57:06Z</time>
      </trkpt>
      <trkpt lat="45.35345" lon="5.74958">
        <ele>937.3</ele>
        <time>2021-12-19T08:57:07Z</time>
      </trkpt>
      <trkpt lat="45.35345" lon="5.74958">
        <ele>937.3</ele>
        <time>2021-12-19T08:57:08Z</time>
      </trkpt>
      <trkpt lat="45.35344" lon="5.74958">
        <ele>937.3</ele>
        <time>2021-12-19T08:57:09Z</time>
      </trkpt>
      <trkpt lat="45.35344" lon="5.74957">
        <ele>937.3</ele>
        <time>2021-12-19T08:57:10Z</time>
      </trkpt>
      <trkpt lat="45.35343" lon="5.74957">
        <ele>937.3</ele>
        <time>2021-12-19T08:57:11Z</time>
      </trkpt>
      <trkpt lat="45.35343" lon="5.74955">
        <ele>937.3</ele>
        <time>2021-12-19T08:57:12Z</time>
      </trkpt>
      <trkpt lat="45.35343" lon="5.74953">
        <ele>937.4</ele>
        <time>2021-12-19T08:57:13Z</time>
      </trkpt>
      <trkpt lat="45.35343" lon="5.74951">
        <ele>937.4</ele>
        <time>2021-12-19T08:57:14Z</time>
      </trkpt>
      <trkpt lat="45.35343" lon="5.74951">
        <ele>937.4</ele>
        <time>2021-12-19T08:57:15Z</time>
      </trkpt>
      <trkpt lat="45.35342" lon="5.7495">
        <ele>937.4</ele>
        <time>2021-12-19T08:57:16Z</time>
      </trkpt>
      <trkpt lat="45.35342" lon="5.74949">
        <ele>937.5</ele>
        <time>2021-12-19T08:57:17Z</time>
      </trkpt>
      <trkpt lat="45.35341" lon="5.74948">
        <ele>937.5</ele>
        <time>2021-12-19T08:57:18Z</time>
      </trkpt>
      <trkpt lat="45.3534" lon="5.74948">
        <ele>937.5</ele>
        <time>2021-12-19T08:57:19Z</time>
      </trkpt>
      <trkpt lat="45.35339" lon="5.74947">
        <ele>937.5</ele>
        <time>2021-12-19T08:57:20Z</time>
      </trkpt>
      <trkpt lat="45.35339" lon="5.74946">
        <ele>937.5</ele>
        <time>2021-12-19T08:57:21Z</time>
      </trkpt>
      <trkpt lat="45.35338" lon="5.74945">
        <ele>937.6</ele>
        <time>2021-12-19T08:57:22Z</time>
      </trkpt>
      <trkpt lat="45.35338" lon="5.74944">
        <ele>937.6</ele>
        <time>2021-12-19T08:57:23Z</time>
      </trkpt>
      <trkpt lat="45.35337" lon="5.74944">
        <ele>937.6</ele>
        <time>2021-12-19T08:57:24Z</time>
      </trkpt>
      <trkpt lat="45.35337" lon="5.74943">
        <ele>937.6</ele>
        <time>2021-12-19T08:57:25Z</time>
      </trkpt>
      <trkpt lat="45.35336" lon="5.74943">
        <ele>937.6</ele>
        <time>2021-12-19T08:57:26Z</time>
      </trkpt>
      <trkpt lat="45.35336" lon="5.74942">
        <ele>937.6</ele>
        <time>2021-12-19T08:57:27Z</time>
      </trkpt>
      <trkpt lat="45.35336" lon="5.74941">
        <ele>937.7</ele>
        <time>2021-12-19T08:57:28Z</time>
      </trkpt>
      <trkpt lat="45.35335" lon="5.74941">
        <ele>937.7</ele>
        <time>2021-12-19T08:57:29Z</time>
      </trkpt>
      <trkpt lat="45.35335" lon="5.7494">
        <ele>937.7</ele>
        <time>2021-12-19T08:57:30Z</time>
      </trkpt>
      <trkpt lat="45.35334" lon="5.7494">
        <ele>937.7</ele>
        <time>2021-12-19T08:57:31Z</time>
      </trkpt>
      <trkpt lat="45.35334" lon="5.7494">
        <ele>937.7</ele>
        <time>2021-12-19T08:57:32Z</time>
      </trkpt>
      <trkpt lat="45.35334" lon="5.74939">
        <ele>937.7</ele>
        <time>2021-12-19T08:57:33Z</time>
      </trkpt>
      <trkpt lat="45.35333" lon="5.74939">
        <ele>937.7</ele>
        <time>2021-12-19T08:57:34Z</time>
      </trkpt>
      <trkpt lat="45.35333" lon="5.74939">
        <ele>937.7</ele>
        <time>2021-12-19T08:57:35Z</time>
      </trkpt>
      <trkpt lat="45.35333" lon="5.74939">
        <ele>937.7</ele>
        <time>2021-12-19T08:57:36Z</time>
      </trkpt>
      <trkpt lat="45.35333" lon="5.74939">
        <ele>937.7</ele>
        <time>2021-12-19T08:57:37Z</time>
      </trkpt>
      <trkpt lat="45.35332" lon="5.74939">
        <ele>937.7</ele>
        <time>2021-12-19T08:57:38Z</time>
      </trkpt>
      <trkpt lat="45.35332" lon="5.74939">
        <ele>937.7</ele>
        <time>2021-12-19T08:57:39Z</time>
      </trkpt>
      <trkpt lat="45.35332" lon="5.74938">
        <ele>937.8</ele>
        <time>2021-12-19T08:57:40Z</time>
      </trkpt>
      <trkpt lat="45.35332" lon="5.74938">
        <ele>937.8</ele>
        <time>2021-12-19T08:57:41Z</time>
      </trkpt>
      <trkpt lat="45.35331" lon="5.74937">
        <ele>937.8</ele>
        <time>2021-12-19T08:57:42Z</time>
      </trkpt>
      <trkpt lat="45.3533" lon="5.74937">
        <ele>937.8</ele>
        <time>2021-12-19T08:57:43Z</time>
      </trkpt>
      <trkpt lat="45.3533" lon="5.74937">
        <ele>937.8</ele>
        <time>2021-12-19T08:57:44Z</time>
      </trkpt>
      <trkpt lat="45.3533" lon="5.74936">
        <ele>937.8</ele>
        <time>2021-12-19T08:57:45Z</time>
      </trkpt>
      <trkpt lat="45.3533" lon="5.74936">
        <ele>937.8</ele>
        <time>2021-12-19T08:57:46Z</time>
      </trkpt>
      <trkpt lat="45.3533" lon="5.74936">
        <ele>937.8</ele>
        <time>2021-12-19T08:57:47Z</time>
      </trkpt>
      <trkpt lat="45.3533" lon="5.74936">
        <ele>937.8</ele>
        <time>2021-12-19T08:57:48Z</time>
      </trkpt>
      <trkpt lat="45.3533" lon="5.74937">
        <ele>937.8</ele>
        <time>2021-12-19T08:57:49Z</time>
      </trkpt>
      <trkpt lat="45.3533" lon="5.74937">
        <ele>937.8</ele>
        <time>2021-12-19T08:57:50Z</time>
      </trkpt>
      <trkpt lat="45.3533" lon="5.74936">
        <ele>937.8</ele>
        <time>2021-12-19T08:57:51Z</time>
      </trkpt>
      <trkpt lat="45.3533" lon="5.74936">
        <ele>937.8</ele>
        <time>2021-12-19T08:57:52Z</time>
      </trkpt>
      <trkpt lat="45.3533" lon="5.74936">
        <ele>937.8</ele>
        <time>2021-12-19T08:57:53Z</time>
      </trkpt>
      <trkpt lat="45.3533" lon="5.74936">
        <ele>937.8</ele>
        <time>2021-12-19T08:57:54Z</time>
      </trkpt>
      <trkpt lat="45.3533" lon="5.74935">
        <ele>937.8</ele>
        <time>2021-12-19T08:57:55Z</time>
      </trkpt>
      <trkpt lat="45.3533" lon="5.74935">
        <ele>937.8</ele>
        <time>2021-12-19T08:57:56Z</time>
      </trkpt>
      <trkpt lat="45.3533" lon="5.74935">
        <ele>937.8</ele>
        <time>2021-12-19T08:57:57Z</time>
      </trkpt>
      <trkpt lat="45.3533" lon="5.74934">
        <ele>937.9</ele>
        <time>2021-12-19T08:57:58Z</time>
      </trkpt>
      <trkpt lat="45.3533" lon="5.74934">
        <ele>937.9</ele>
        <time>2021-12-19T08:57:59Z</time>
      </trkpt>
      <trkpt lat="45.35329" lon="5.74934">
        <ele>937.9</ele>
        <time>2021-12-19T08:58:00Z</time>
      </trkpt>
      <trkpt lat="45.35329" lon="5.74933">
        <ele>937.9</ele>
        <time>2021-12-19T08:58:01Z</time>
      </trkpt>
      <trkpt lat="45.35328" lon="5.74932">
        <ele>937.9</ele>
        <time>2021-12-19T08:58:02Z</time>
      </trkpt>
      <trkpt lat="45.35328" lon="5.74932">
        <ele>937.9</ele>
        <time>2021-12-19T08:58:03Z</time>
      </trkpt>
      <trkpt lat="45.35327" lon="5.74931">
        <ele>937.9</ele>
        <time>2021-12-19T08:58:04Z</time>
      </trkpt>
      <trkpt lat="45.35326" lon="5.74929">
        <ele>938</ele>
        <time>2021-12-19T08:58:05Z</time>
      </trkpt>
      <trkpt lat="45.35326" lon="5.74928">
        <ele>938</ele>
        <time>2021-12-19T08:58:06Z</time>
      </trkpt>
      <trkpt lat="45.35324" lon="5.74928">
        <ele>938</ele>
        <time>2021-12-19T08:58:07Z</time>
      </trkpt>
      <trkpt lat="45.35323" lon="5.74927">
        <ele>938</ele>
        <time>2021-12-19T08:58:08Z</time>
      </trkpt>
      <trkpt lat="45.35322" lon="5.74927">
        <ele>938.1</ele>
        <time>2021-12-19T08:58:09Z</time>
      </trkpt>
      <trkpt lat="45.35322" lon="5.74926">
        <ele>938.1</ele>
        <time>2021-12-19T08:58:10Z</time>
      </trkpt>
      <trkpt lat="45.35321" lon="5.74926">
        <ele>938.1</ele>
        <time>2021-12-19T08:58:11Z</time>
      </trkpt>
      <trkpt lat="45.3532" lon="5.74925">
        <ele>938.1</ele>
        <time>2021-12-19T08:58:12Z</time>
      </trkpt>
      <trkpt lat="45.35319" lon="5.74925">
        <ele>938.1</ele>
        <time>2021-12-19T08:58:13Z</time>
      </trkpt>
      <trkpt lat="45.35319" lon="5.74924">
        <ele>938.1</ele>
        <time>2021-12-19T08:58:14Z</time>
      </trkpt>
      <trkpt lat="45.35318" lon="5.74923">
        <ele>938.2</ele>
        <time>2021-12-19T08:58:15Z</time>
      </trkpt>
      <trkpt lat="45.35317" lon="5.74922">
        <ele>938.2</ele>
        <time>2021-12-19T08:58:16Z</time>
      </trkpt>
      <trkpt lat="45.35317" lon="5.74921">
        <ele>938.2</ele>
        <time>2021-12-19T08:58:17Z</time>
      </trkpt>
      <trkpt lat="45.35316" lon="5.7492">
        <ele>938.2</ele>
        <time>2021-12-19T08:58:18Z</time>
      </trkpt>
      <trkpt lat="45.35315" lon="5.7492">
        <ele>938.2</ele>
        <time>2021-12-19T08:58:19Z</time>
      </trkpt>
      <trkpt lat="45.35314" lon="5.74919">
        <ele>938.3</ele>
        <time>2021-12-19T08:58:20Z</time>
      </trkpt>
      <trkpt lat="45.35313" lon="5.74918">
        <ele>938.3</ele>
        <time>2021-12-19T08:58:21Z</time>
      </trkpt>
      <trkpt lat="45.35313" lon="5.74917">
        <ele>938.3</ele>
        <time>2021-12-19T08:58:22Z</time>
      </trkpt>
      <trkpt lat="45.35312" lon="5.74916">
        <ele>938.3</ele>
        <time>2021-12-19T08:58:23Z</time>
      </trkpt>
      <trkpt lat="45.35311" lon="5.74915">
        <ele>938.3</ele>
        <time>2021-12-19T08:58:24Z</time>
      </trkpt>
      <trkpt lat="45.35311" lon="5.74914">
        <ele>938.4</ele>
        <time>2021-12-19T08:58:25Z</time>
      </trkpt>
      <trkpt lat="45.3531" lon="5.74913">
        <ele>938.4</ele>
        <time>2021-12-19T08:58:26Z</time>
      </trkpt>
      <trkpt lat="45.35309" lon="5.74912">
        <ele>938.4</ele>
        <time>2021-12-19T08:58:27Z</time>
      </trkpt>
      <trkpt lat="45.35308" lon="5.74911">
        <ele>938.4</ele>
        <time>2021-12-19T08:58:28Z</time>
      </trkpt>
      <trkpt lat="45.35307" lon="5.7491">
        <ele>938.4</ele>
        <time>2021-12-19T08:58:29Z</time>
      </trkpt>
      <trkpt lat="45.35306" lon="5.74909">
        <ele>938.5</ele>
        <time>2021-12-19T08:58:30Z</time>
      </trkpt>
      <trkpt lat="45.35305" lon="5.74909">
        <ele>938.5</ele>
        <time>2021-12-19T08:58:31Z</time>
      </trkpt>
      <trkpt lat="45.35305" lon="5.74908">
        <ele>938.5</ele>
        <time>2021-12-19T08:58:32Z</time>
      </trkpt>
      <trkpt lat="45.35304" lon="5.74906">
        <ele>938.5</ele>
        <time>2021-12-19T08:58:33Z</time>
      </trkpt>
      <trkpt lat="45.35303" lon="5.74905">
        <ele>938.5</ele>
        <time>2021-12-19T08:58:34Z</time>
      </trkpt>
      <trkpt lat="45.35302" lon="5.74904">
        <ele>938.6</ele>
        <time>2021-12-19T08:58:35Z</time>
      </trkpt>
      <trkpt lat="45.35301" lon="5.74904">
        <ele>938.6</ele>
        <time>2021-12-19T08:58:36Z</time>
      </trkpt>
      <trkpt lat="45.353" lon="5.74903">
        <ele>938.6</ele>
        <time>2021-12-19T08:58:37Z</time>
      </trkpt>
      <trkpt lat="45.35299" lon="5.74903">
        <ele>938.6</ele>
        <time>2021-12-19T08:58:38Z</time>
      </trkpt>
      <trkpt lat="45.35298" lon="5.74903">
        <ele>938.6</ele>
        <time>2021-12-19T08:58:39Z</time>
      </trkpt>
      <trkpt lat="45.35297" lon="5.74902">
        <ele>938.7</ele>
        <time>2021-12-19T08:58:40Z</time>
      </trkpt>
      <trkpt lat="45.35297" lon="5.74902">
        <ele>938.7</ele>
        <time>2021-12-19T08:58:41Z</time>
      </trkpt>
      <trkpt lat="45.35296" lon="5.74901">
        <ele>938.7</ele>
        <time>2021-12-19T08:58:42Z</time>
      </trkpt>
      <trkpt lat="45.35295" lon="5.749">
        <ele>938.7</ele>
        <time>2021-12-19T08:58:43Z</time>
      </trkpt>
      <trkpt lat="45.35295" lon="5.74899">
        <ele>938.7</ele>
        <time>2021-12-19T08:58:44Z</time>
      </trkpt>
      <trkpt lat="45.35294" lon="5.74898">
        <ele>938.7</ele>
        <time>2021-12-19T08:58:45Z</time>
      </trkpt>
      <trkpt lat="45.35293" lon="5.74898">
        <ele>938.8</ele>
        <time>2021-12-19T08:58:46Z</time>
      </trkpt>
      <trkpt lat="45.35293" lon="5.74897">
        <ele>938.8</ele>
        <time>2021-12-19T08:58:47Z</time>
      </trkpt>
      <trkpt lat="45.35292" lon="5.74896">
        <ele>938.8</ele>
        <time>2021-12-19T08:58:48Z</time>
      </trkpt>
      <trkpt lat="45.35291" lon="5.74895">
        <ele>938.8</ele>
        <time>2021-12-19T08:58:49Z</time>
      </trkpt>
      <trkpt lat="45.3529" lon="5.74894">
        <ele>938.8</ele>
        <time>2021-12-19T08:58:50Z</time>
      </trkpt>
      <trkpt lat="45.35289" lon="5.74893">
        <ele>938.9</ele>
        <time>2021-12-19T08:58:51Z</time>
      </trkpt>
      <trkpt lat="45.35289" lon="5.74892">
        <ele>938.9</ele>
        <time>2021-12-19T08:58:52Z</time>
      </trkpt>
      <trkpt lat="45.35288" lon="5.74891">
        <ele>938.9</ele>
        <time>2021-12-19T08:58:53Z</time>
      </trkpt>
      <trkpt lat="45.35288" lon="5.7489">
        <ele>938.9</ele>
        <time>2021-12-19T08:58:54Z</time>
      </trkpt>
      <trkpt lat="45.35287" lon="5.74889">
        <ele>938.9</ele>
        <time>2021-12-19T08:58:55Z</time>
      </trkpt>
      <trkpt lat="45.35286" lon="5.74888">
        <ele>939</ele>
        <time>2021-12-19T08:58:56Z</time>
      </trkpt>
      <trkpt lat="45.35286" lon="5.74886">
        <ele>939</ele>
        <time>2021-12-19T08:58:57Z</time>
      </trkpt>
      <trkpt lat="45.35286" lon="5.74886">
        <ele>939</ele>
        <time>2021-12-19T08:58:58Z</time>
      </trkpt>
      <trkpt lat="45.35285" lon="5.74886">
        <ele>939</ele>
        <time>2021-12-19T08:58:59Z</time>
      </trkpt>
      <trkpt lat="45.35285" lon="5.74886">
        <ele>939</ele>
        <time>2021-12-19T08:59:00Z</time>
      </trkpt>
      <trkpt lat="45.35285" lon="5.74886">
        <ele>939</ele>
        <time>2021-12-19T08:59:01Z</time>
      </trkpt>
      <trkpt lat="45.35284" lon="5.74886">
        <ele>939</ele>
        <time>2021-12-19T08:59:02Z</time>
      </trkpt>
      <trkpt lat="45.35283" lon="5.74884">
        <ele>939</ele>
        <time>2021-12-19T08:59:03Z</time>
      </trkpt>
      <trkpt lat="45.35283" lon="5.74884">
        <ele>939.1</ele>
        <time>2021-12-19T08:59:04Z</time>
      </trkpt>
      <trkpt lat="45.35282" lon="5.74883">
        <ele>939.1</ele>
        <time>2021-12-19T08:59:05Z</time>
      </trkpt>
      <trkpt lat="45.35281" lon="5.74882">
        <ele>939.1</ele>
        <time>2021-12-19T08:59:06Z</time>
      </trkpt>
      <trkpt lat="45.3528" lon="5.74881">
        <ele>939.1</ele>
        <time>2021-12-19T08:59:07Z</time>
      </trkpt>
      <trkpt lat="45.3528" lon="5.74881">
        <ele>939.1</ele>
        <time>2021-12-19T08:59:08Z</time>
      </trkpt>
      <trkpt lat="45.3528" lon="5.7488">
        <ele>939.1</ele>
        <time>2021-12-19T08:59:09Z</time>
      </trkpt>
      <trkpt lat="45.3528" lon="5.7488">
        <ele>939.1</ele>
        <time>2021-12-19T08:59:10Z</time>
      </trkpt>
      <trkpt lat="45.3528" lon="5.74879">
        <ele>939.2</ele>
        <time>2021-12-19T08:59:11Z</time>
      </trkpt>
      <trkpt lat="45.35279" lon="5.74879">
        <ele>939.2</ele>
        <time>2021-12-19T08:59:12Z</time>
      </trkpt>
      <trkpt lat="45.35279" lon="5.74878">
        <ele>939.2</ele>
        <time>2021-12-19T08:59:13Z</time>
      </trkpt>
      <trkpt lat="45.35279" lon="5.74878">
        <ele>939.2</ele>
        <time>2021-12-19T08:59:14Z</time>
      </trkpt>
      <trkpt lat="45.35279" lon="5.74878">
        <ele>939.2</ele>
        <time>2021-12-19T08:59:15Z</time>
      </trkpt>
      <trkpt lat="45.35279" lon="5.74878">
        <ele>939.2</ele>
        <time>2021-12-19T08:59:16Z</time>
      </trkpt>
      <trkpt lat="45.35279" lon="5.74878">
        <ele>939.2</ele>
        <time>2021-12-19T08:59:17Z</time>
      </trkpt>
      <trkpt lat="45.3528" lon="5.74878">
        <ele>939.2</ele>
        <time>2021-12-19T08:59:18Z</time>
      </trkpt>
      <trkpt lat="45.3528" lon="5.74877">
        <ele>939.2</ele>
        <time>2021-12-19T08:59:19Z</time>
      </trkpt>
      <trkpt lat="45.3528" lon="5.74877">
        <ele>939.2</ele>
        <time>2021-12-19T08:59:20Z</time>
      </trkpt>
      <trkpt lat="45.3528" lon="5.74877">
        <ele>939.2</ele>
        <time>2021-12-19T08:59:21Z</time>
      </trkpt>
      <trkpt lat="45.3528" lon="5.74877">
        <ele>939.2</ele>
        <time>2021-12-19T08:59:22Z</time>
      </trkpt>
      <trkpt lat="45.3528" lon="5.74877">
        <ele>939.2</ele>
        <time>2021-12-19T08:59:23Z</time>
      </trkpt>
      <trkpt lat="45.3528" lon="5.74877">
        <ele>939.2</ele>
        <time>2021-12-19T08:59:24Z</time>
      </trkpt>
      <trkpt lat="45.3528" lon="5.74877">
        <ele>939.2</ele>
        <time>2021-12-19T08:59:25Z</time>
      </trkpt>
      <trkpt lat="45.3528" lon="5.74877">
        <ele>939.2</ele>
        <time>2021-12-19T08:59:26Z</time>
      </trkpt>
      <trkpt lat="45.3528" lon="5.74877">
        <ele>939.2</ele>
        <time>2021-12-19T08:59:27Z</time>
      </trkpt>
      <trkpt lat="45.3528" lon="5.74876">
        <ele>939.2</ele>
        <time>2021-12-19T08:59:28Z</time>
      </trkpt>
      <trkpt lat="45.35281" lon="5.74876">
        <ele>939.2</ele>
        <time>2021-12-19T08:59:29Z</time>
      </trkpt>
      <trkpt lat="45.35281" lon="5.74876">
        <ele>939.2</ele>
        <time>2021-12-19T08:59:30Z</time>
      </trkpt>
      <trkpt lat="45.35281" lon="5.74876">
        <ele>939.2</ele>
        <time>2021-12-19T08:59:31Z</time>
      </trkpt>
      <trkpt lat="45.35281" lon="5.74876">
        <ele>939.2</ele>
        <time>2021-12-19T08:59:32Z</time>
      </trkpt>
      <trkpt lat="45.35281" lon="5.74876">
        <ele>939.3</ele>
        <time>2021-12-19T08:59:33Z</time>
      </trkpt>
      <trkpt lat="45.35281" lon="5.74876">
        <ele>939.3</ele>
        <time>2021-12-19T08:59:34Z</time>
      </trkpt>
      <trkpt lat="45.35281" lon="5.74876">
        <ele>939.3</ele>
        <time>2021-12-19T08:59:35Z</time>
      </trkpt>
      <trkpt lat="45.35281" lon="5.74875">
        <ele>939.3</ele>
        <time>2021-12-19T08:59:36Z</time>
      </trkpt>
      <trkpt lat="45.35281" lon="5.74875">
        <ele>939.3</ele>
        <time>2021-12-19T08:59:37Z</time>
      </trkpt>
      <trkpt lat="45.35281" lon="5.74874">
        <ele>939.3</ele>
        <time>2021-12-19T08:59:38Z</time>
      </trkpt>
      <trkpt lat="45.35281" lon="5.74875">
        <ele>939.3</ele>
        <time>2021-12-19T08:59:39Z</time>
      </trkpt>
      <trkpt lat="45.35281" lon="5.74874">
        <ele>939.3</ele>
        <time>2021-12-19T08:59:40Z</time>
      </trkpt>
      <trkpt lat="45.3528" lon="5.74875">
        <ele>939.3</ele>
        <time>2021-12-19T08:59:41Z</time>
      </trkpt>
      <trkpt lat="45.3528" lon="5.74875">
        <ele>939.3</ele>
        <time>2021-12-19T08:59:42Z</time>
      </trkpt>
      <trkpt lat="45.3528" lon="5.74874">
        <ele>939.3</ele>
        <time>2021-12-19T08:59:43Z</time>
      </trkpt>
      <trkpt lat="45.3528" lon="5.74874">
        <ele>939.3</ele>
        <time>2021-12-19T08:59:44Z</time>
      </trkpt>
      <trkpt lat="45.3528" lon="5.74873">
        <ele>939.4</ele>
        <time>2021-12-19T08:59:45Z</time>
      </trkpt>
      <trkpt lat="45.3528" lon="5.74873">
        <ele>939.4</ele>
        <time>2021-12-19T08:59:46Z</time>
      </trkpt>
      <trkpt lat="45.35279" lon="5.74872">
        <ele>939.4</ele>
        <time>2021-12-19T08:59:47Z</time>
      </trkpt>
      <trkpt lat="45.35279" lon="5.74872">
        <ele>939.4</ele>
        <time>2021-12-19T08:59:48Z</time>
      </trkpt>
      <trkpt lat="45.35278" lon="5.74871">
        <ele>939.4</ele>
        <time>2021-12-19T08:59:49Z</time>
      </trkpt>
      <trkpt lat="45.35277" lon="5.74871">
        <ele>939.4</ele>
        <time>2021-12-19T08:59:50Z</time>
      </trkpt>
      <trkpt lat="45.35277" lon="5.74869">
        <ele>939.4</ele>
        <time>2021-12-19T08:59:51Z</time>
      </trkpt>
      <trkpt lat="45.35276" lon="5.74869">
        <ele>939.4</ele>
        <time>2021-12-19T08:59:52Z</time>
      </trkpt>
      <trkpt lat="45.35275" lon="5.74867">
        <ele>939.5</ele>
        <time>2021-12-19T08:59:53Z</time>
      </trkpt>
      <trkpt lat="45.35274" lon="5.74866">
        <ele>939.5</ele>
        <time>2021-12-19T08:59:54Z</time>
      </trkpt>
      <trkpt lat="45.35273" lon="5.74865">
        <ele>939.5</ele>
        <time>2021-12-19T08:59:55Z</time>
      </trkpt>
      <trkpt lat="45.35272" lon="5.74864">
        <ele>939.5</ele>
        <time>2021-12-19T08:59:56Z</time>
      </trkpt>
      <trkpt lat="45.35271" lon="5.74863">
        <ele>939.5</ele>
        <time>2021-12-19T08:59:57Z</time>
      </trkpt>
      <trkpt lat="45.3527" lon="5.74861">
        <ele>939.6</ele>
        <time>2021-12-19T08:59:58Z</time>
      </trkpt>
      <trkpt lat="45.35269" lon="5.7486">
        <ele>939.6</ele>
        <time>2021-12-19T08:59:59Z</time>
      </trkpt>
      <trkpt lat="45.35269" lon="5.7486">
        <ele>939.6</ele>
        <time>2021-12-19T09:00:00Z</time>
      </trkpt>
      <trkpt lat="45.35267" lon="5.74859">
        <ele>939.6</ele>
        <time>2021-12-19T09:00:01Z</time>
      </trkpt>
      <trkpt lat="45.35267" lon="5.74858">
        <ele>939.6</ele>
        <time>2021-12-19T09:00:02Z</time>
      </trkpt>
      <trkpt lat="45.35266" lon="5.74858">
        <ele>939.7</ele>
        <time>2021-12-19T09:00:03Z</time>
      </trkpt>
      <trkpt lat="45.35265" lon="5.74857">
        <ele>939.7</ele>
        <time>2021-12-19T09:00:04Z</time>
      </trkpt>
      <trkpt lat="45.35264" lon="5.74856">
        <ele>939.7</ele>
        <time>2021-12-19T09:00:05Z</time>
      </trkpt>
      <trkpt lat="45.35263" lon="5.74854">
        <ele>939.7</ele>
        <time>2021-12-19T09:00:06Z</time>
      </trkpt>
      <trkpt lat="45.35262" lon="5.74853">
        <ele>939.7</ele>
        <time>2021-12-19T09:00:07Z</time>
      </trkpt>
      <trkpt lat="45.35261" lon="5.74852">
        <ele>939.8</ele>
        <time>2021-12-19T09:00:08Z</time>
      </trkpt>
      <trkpt lat="45.35261" lon="5.7485">
        <ele>939.8</ele>
        <time>2021-12-19T09:00:09Z</time>
      </trkpt>
      <trkpt lat="45.3526" lon="5.74848">
        <ele>939.8</ele>
        <time>2021-12-19T09:00:10Z</time>
      </trkpt>
      <trkpt lat="45.3526" lon="5.74847">
        <ele>939.8</ele>
        <time>2021-12-19T09:00:11Z</time>
      </trkpt>
      <trkpt lat="45.3526" lon="5.74845">
        <ele>939.8</ele>
        <time>2021-12-19T09:00:12Z</time>
      </trkpt>
      <trkpt lat="45.35259" lon="5.74844">
        <ele>940</ele>
        <time>2021-12-19T09:00:13Z</time>
      </trkpt>
      <trkpt lat="45.35258" lon="5.74843">
        <ele>940</ele>
        <time>2021-12-19T09:00:14Z</time>
      </trkpt>
      <trkpt lat="45.35258" lon="5.74842">
        <ele>940.1</ele>
        <time>2021-12-19T09:00:15Z</time>
      </trkpt>
      <trkpt lat="45.35257" lon="5.74841">
        <ele>940.1</ele>
        <time>2021-12-19T09:00:16Z</time>
      </trkpt>
      <trkpt lat="45.35257" lon="5.74841">
        <ele>940.1</ele>
        <time>2021-12-19T09:00:17Z</time>
      </trkpt>
      <trkpt lat="45.35256" lon="5.7484">
        <ele>940.1</ele>
        <time>2021-12-19T09:00:18Z</time>
      </trkpt>
      <trkpt lat="45.35256" lon="5.74839">
        <ele>940.2</ele>
        <time>2021-12-19T09:00:19Z</time>
      </trkpt>
      <trkpt lat="45.35255" lon="5.74838">
        <ele>940.2</ele>
        <time>2021-12-19T09:00:20Z</time>
      </trkpt>
      <trkpt lat="45.35254" lon="5.74837">
        <ele>940.2</ele>
        <time>2021-12-19T09:00:21Z</time>
      </trkpt>
      <trkpt lat="45.35254" lon="5.74835">
        <ele>940.3</ele>
        <time>2021-12-19T09:00:22Z</time>
      </trkpt>
      <trkpt lat="45.35253" lon="5.74834">
        <ele>940.3</ele>
        <time>2021-12-19T09:00:23Z</time>
      </trkpt>
      <trkpt lat="45.35253" lon="5.74834">
        <ele>940.3</ele>
        <time>2021-12-19T09:00:24Z</time>
      </trkpt>
      <trkpt lat="45.35252" lon="5.74834">
        <ele>940.3</ele>
        <time>2021-12-19T09:00:25Z</time>
      </trkpt>
      <trkpt lat="45.35252" lon="5.74833">
        <ele>940.4</ele>
        <time>2021-12-19T09:00:26Z</time>
      </trkpt>
      <trkpt lat="45.35251" lon="5.74833">
        <ele>940.4</ele>
        <time>2021-12-19T09:00:27Z</time>
      </trkpt>
      <trkpt lat="45.3525" lon="5.74832">
        <ele>940.4</ele>
        <time>2021-12-19T09:00:28Z</time>
      </trkpt>
      <trkpt lat="45.3525" lon="5.74831">
        <ele>940.4</ele>
        <time>2021-12-19T09:00:29Z</time>
      </trkpt>
      <trkpt lat="45.35249" lon="5.74831">
        <ele>940.5</ele>
        <time>2021-12-19T09:00:30Z</time>
      </trkpt>
      <trkpt lat="45.35248" lon="5.7483">
        <ele>940.5</ele>
        <time>2021-12-19T09:00:31Z</time>
      </trkpt>
      <trkpt lat="45.35247" lon="5.7483">
        <ele>940.5</ele>
        <time>2021-12-19T09:00:32Z</time>
      </trkpt>
      <trkpt lat="45.35246" lon="5.7483">
        <ele>940.6</ele>
        <time>2021-12-19T09:00:33Z</time>
      </trkpt>
      <trkpt lat="45.35246" lon="5.74829">
        <ele>940.6</ele>
        <time>2021-12-19T09:00:34Z</time>
      </trkpt>
      <trkpt lat="45.35245" lon="5.74829">
        <ele>940.6</ele>
        <time>2021-12-19T09:00:35Z</time>
      </trkpt>
      <trkpt lat="45.35244" lon="5.74829">
        <ele>940.6</ele>
        <time>2021-12-19T09:00:36Z</time>
      </trkpt>
      <trkpt lat="45.35244" lon="5.7483">
        <ele>940.6</ele>
        <time>2021-12-19T09:00:37Z</time>
      </trkpt>
      <trkpt lat="45.35244" lon="5.74831">
        <ele>940.7</ele>
        <time>2021-12-19T09:00:38Z</time>
      </trkpt>
      <trkpt lat="45.35243" lon="5.74832">
        <ele>940.7</ele>
        <time>2021-12-19T09:00:39Z</time>
      </trkpt>
      <trkpt lat="45.35243" lon="5.74833">
        <ele>940.7</ele>
        <time>2021-12-19T09:00:40Z</time>
      </trkpt>
      <trkpt lat="45.35243" lon="5.74834">
        <ele>940.7</ele>
        <time>2021-12-19T09:00:41Z</time>
      </trkpt>
      <trkpt lat="45.35243" lon="5.74834">
        <ele>940.7</ele>
        <time>2021-12-19T09:00:42Z</time>
      </trkpt>
      <trkpt lat="45.35243" lon="5.74835">
        <ele>940.7</ele>
        <time>2021-12-19T09:00:43Z</time>
      </trkpt>
      <trkpt lat="45.35243" lon="5.74835">
        <ele>940.8</ele>
        <time>2021-12-19T09:00:44Z</time>
      </trkpt>
      <trkpt lat="45.35242" lon="5.74836">
        <ele>940.8</ele>
        <time>2021-12-19T09:00:45Z</time>
      </trkpt>
      <trkpt lat="45.35242" lon="5.74836">
        <ele>940.8</ele>
        <time>2021-12-19T09:00:46Z</time>
      </trkpt>
      <trkpt lat="45.35242" lon="5.74837">
        <ele>940.8</ele>
        <time>2021-12-19T09:00:47Z</time>
      </trkpt>
      <trkpt lat="45.35242" lon="5.74839">
        <ele>940.8</ele>
        <time>2021-12-19T09:00:48Z</time>
      </trkpt>
      <trkpt lat="45.35241" lon="5.7484">
        <ele>940.9</ele>
        <time>2021-12-19T09:00:49Z</time>
      </trkpt>
      <trkpt lat="45.35241" lon="5.74841">
        <ele>940.9</ele>
        <time>2021-12-19T09:00:50Z</time>
      </trkpt>
      <trkpt lat="45.35241" lon="5.74842">
        <ele>940.9</ele>
        <time>2021-12-19T09:00:51Z</time>
      </trkpt>
      <trkpt lat="45.35241" lon="5.74843">
        <ele>941</ele>
        <time>2021-12-19T09:00:52Z</time>
      </trkpt>
      <trkpt lat="45.3524" lon="5.74844">
        <ele>941</ele>
        <time>2021-12-19T09:00:53Z</time>
      </trkpt>
      <trkpt lat="45.3524" lon="5.74845">
        <ele>941</ele>
        <time>2021-12-19T09:00:54Z</time>
      </trkpt>
      <trkpt lat="45.3524" lon="5.74846">
        <ele>941</ele>
        <time>2021-12-19T09:00:55Z</time>
      </trkpt>
      <trkpt lat="45.3524" lon="5.74847">
        <ele>941</ele>
        <time>2021-12-19T09:00:56Z</time>
      </trkpt>
      <trkpt lat="45.35239" lon="5.74849">
        <ele>941.1</ele>
        <time>2021-12-19T09:00:57Z</time>
      </trkpt>
      <trkpt lat="45.35239" lon="5.74851">
        <ele>941.1</ele>
        <time>2021-12-19T09:00:58Z</time>
      </trkpt>
      <trkpt lat="45.35238" lon="5.74853">
        <ele>941.2</ele>
        <time>2021-12-19T09:00:59Z</time>
      </trkpt>
      <trkpt lat="45.35238" lon="5.74855">
        <ele>941.2</ele>
        <time>2021-12-19T09:01:00Z</time>
      </trkpt>
      <trkpt lat="45.35238" lon="5.74856">
        <ele>941.3</ele>
        <time>2021-12-19T09:01:01Z</time>
      </trkpt>
      <trkpt lat="45.35238" lon="5.74857">
        <ele>941.3</ele>
        <time>2021-12-19T09:01:02Z</time>
      </trkpt>
      <trkpt lat="45.35238" lon="5.74859">
        <ele>941.3</ele>
        <time>2021-12-19T09:01:03Z</time>
      </trkpt>
      <trkpt lat="45.35237" lon="5.74859">
        <ele>941.3</ele>
        <time>2021-12-19T09:01:04Z</time>
      </trkpt>
      <trkpt lat="45.35236" lon="5.7486">
        <ele>941.4</ele>
        <time>2021-12-19T09:01:05Z</time>
      </trkpt>
      <trkpt lat="45.35236" lon="5.7486">
        <ele>941.4</ele>
        <time>2021-12-19T09:01:06Z</time>
      </trkpt>
      <trkpt lat="45.35235" lon="5.7486">
        <ele>941.4</ele>
        <time>2021-12-19T09:01:07Z</time>
      </trkpt>
      <trkpt lat="45.35235" lon="5.7486">
        <ele>941.4</ele>
        <time>2021-12-19T09:01:08Z</time>
      </trkpt>
      <trkpt lat="45.35234" lon="5.7486">
        <ele>941.4</ele>
        <time>2021-12-19T09:01:09Z</time>
      </trkpt>
      <trkpt lat="45.35233" lon="5.74861">
        <ele>941.5</ele>
        <time>2021-12-19T09:01:10Z</time>
      </trkpt>
      <trkpt lat="45.35233" lon="5.7486">
        <ele>941.5</ele>
        <time>2021-12-19T09:01:11Z</time>
      </trkpt>
      <trkpt lat="45.35232" lon="5.7486">
        <ele>941.5</ele>
        <time>2021-12-19T09:01:12Z</time>
      </trkpt>
      <trkpt lat="45.35232" lon="5.74859">
        <ele>941.5</ele>
        <time>2021-12-19T09:01:13Z</time>
      </trkpt>
      <trkpt lat="45.35231" lon="5.74858">
        <ele>941.6</ele>
        <time>2021-12-19T09:01:14Z</time>
      </trkpt>
      <trkpt lat="45.35231" lon="5.74858">
        <ele>941.6</ele>
        <time>2021-12-19T09:01:15Z</time>
      </trkpt>
      <trkpt lat="45.35231" lon="5.74857">
        <ele>941.6</ele>
        <time>2021-12-19T09:01:16Z</time>
      </trkpt>
      <trkpt lat="45.35229" lon="5.74855">
        <ele>941.6</ele>
        <time>2021-12-19T09:01:17Z</time>
      </trkpt>
      <trkpt lat="45.35227" lon="5.74853">
        <ele>941.7</ele>
        <time>2021-12-19T09:01:18Z</time>
      </trkpt>
      <trkpt lat="45.35225" lon="5.74852">
        <ele>941.8</ele>
        <time>2021-12-19T09:01:19Z</time>
      </trkpt>
      <trkpt lat="45.35223" lon="5.74851">
        <ele>941.9</ele>
        <time>2021-12-19T09:01:20Z</time>
      </trkpt>
      <trkpt lat="45.35219" lon="5.7485">
        <ele>942</ele>
        <time>2021-12-19T09:01:21Z</time>
      </trkpt>
      <trkpt lat="45.35216" lon="5.74849">
        <ele>942.1</ele>
        <time>2021-12-19T09:01:22Z</time>
      </trkpt>
      <trkpt lat="45.35214" lon="5.74848">
        <ele>942.1</ele>
        <time>2021-12-19T09:01:23Z</time>
      </trkpt>
      <trkpt lat="45.35211" lon="5.74844">
        <ele>942.2</ele>
        <time>2021-12-19T09:01:24Z</time>
      </trkpt>
      <trkpt lat="45.35209" lon="5.7484">
        <ele>942.3</ele>
        <time>2021-12-19T09:01:25Z</time>
      </trkpt>
      <trkpt lat="45.3521" lon="5.74833">
        <ele>942.5</ele>
        <time>2021-12-19T09:01:26Z</time>
      </trkpt>
      <trkpt lat="45.35208" lon="5.74832">
        <ele>942.6</ele>
        <time>2021-12-19T09:01:27Z</time>
      </trkpt>
      <trkpt lat="45.35208" lon="5.74827">
        <ele>942.7</ele>
        <time>2021-12-19T09:01:28Z</time>
      </trkpt>
      <trkpt lat="45.35207" lon="5.74825">
        <ele>942.7</ele>
        <time>2021-12-19T09:01:29Z</time>
      </trkpt>
      <trkpt lat="45.35206" lon="5.74826">
        <ele>942.8</ele>
        <time>2021-12-19T09:01:30Z</time>
      </trkpt>
      <trkpt lat="45.35205" lon="5.74825">
        <ele>942.8</ele>
        <time>2021-12-19T09:01:31Z</time>
      </trkpt>
      <trkpt lat="45.35204" lon="5.74823">
        <ele>942.8</ele>
        <time>2021-12-19T09:01:32Z</time>
      </trkpt>
      <trkpt lat="45.35203" lon="5.74824">
        <ele>942.9</ele>
        <time>2021-12-19T09:01:33Z</time>
      </trkpt>
      <trkpt lat="45.35201" lon="5.74826">
        <ele>943</ele>
        <time>2021-12-19T09:01:34Z</time>
      </trkpt>
      <trkpt lat="45.35201" lon="5.74826">
        <ele>943</ele>
        <time>2021-12-19T09:01:35Z</time>
      </trkpt>
      <trkpt lat="45.35201" lon="5.74825">
        <ele>943</ele>
        <time>2021-12-19T09:01:36Z</time>
      </trkpt>
      <trkpt lat="45.35202" lon="5.74823">
        <ele>943</ele>
        <time>2021-12-19T09:01:37Z</time>
      </trkpt>
      <trkpt lat="45.35202" lon="5.74822">
        <ele>943.1</ele>
        <time>2021-12-19T09:01:38Z</time>
      </trkpt>
      <trkpt lat="45.35203" lon="5.74821">
        <ele>943.1</ele>
        <time>2021-12-19T09:01:39Z</time>
      </trkpt>
      <trkpt lat="45.35203" lon="5.7482">
        <ele>943.1</ele>
        <time>2021-12-19T09:01:40Z</time>
      </trkpt>
      <trkpt lat="45.35203" lon="5.7482">
        <ele>943.1</ele>
        <time>2021-12-19T09:01:41Z</time>
      </trkpt>
      <trkpt lat="45.35204" lon="5.74819">
        <ele>943.1</ele>
        <time>2021-12-19T09:01:42Z</time>
      </trkpt>
      <trkpt lat="45.35205" lon="5.74817">
        <ele>943.2</ele>
        <time>2021-12-19T09:01:43Z</time>
      </trkpt>
      <trkpt lat="45.35205" lon="5.74816">
        <ele>943.2</ele>
        <time>2021-12-19T09:01:44Z</time>
      </trkpt>
      <trkpt lat="45.35206" lon="5.74814">
        <ele>943.3</ele>
        <time>2021-12-19T09:01:45Z</time>
      </trkpt>
      <trkpt lat="45.35205" lon="5.74814">
        <ele>943.3</ele>
        <time>2021-12-19T09:01:46Z</time>
      </trkpt>
      <trkpt lat="45.35205" lon="5.74813">
        <ele>943.3</ele>
        <time>2021-12-19T09:01:47Z</time>
      </trkpt>
      <trkpt lat="45.35205" lon="5.74812">
        <ele>943.3</ele>
        <time>2021-12-19T09:01:48Z</time>
      </trkpt>
      <trkpt lat="45.35205" lon="5.74811">
        <ele>943.3</ele>
        <time>2021-12-19T09:01:49Z</time>
      </trkpt>
      <trkpt lat="45.35205" lon="5.74811">
        <ele>943.3</ele>
        <time>2021-12-19T09:01:50Z</time>
      </trkpt>
      <trkpt lat="45.35205" lon="5.7481">
        <ele>943.3</ele>
        <time>2021-12-19T09:01:51Z</time>
      </trkpt>
      <trkpt lat="45.35205" lon="5.7481">
        <ele>943.4</ele>
        <time>2021-12-19T09:01:52Z</time>
      </trkpt>
      <trkpt lat="45.35205" lon="5.7481">
        <ele>943.4</ele>
        <time>2021-12-19T09:01:53Z</time>
      </trkpt>
      <trkpt lat="45.35204" lon="5.7481">
        <ele>943.4</ele>
        <time>2021-12-19T09:01:54Z</time>
      </trkpt>
      <trkpt lat="45.35204" lon="5.74811">
        <ele>943.4</ele>
        <time>2021-12-19T09:01:55Z</time>
      </trkpt>
      <trkpt lat="45.35204" lon="5.74811">
        <ele>943.4</ele>
        <time>2021-12-19T09:01:56Z</time>
      </trkpt>
      <trkpt lat="45.35204" lon="5.74811">
        <ele>943.4</ele>
        <time>2021-12-19T09:01:57Z</time>
      </trkpt>
      <trkpt lat="45.35204" lon="5.74811">
        <ele>943.4</ele>
        <time>2021-12-19T09:01:58Z</time>
      </trkpt>
      <trkpt lat="45.35204" lon="5.74811">
        <ele>943.4</ele>
        <time>2021-12-19T09:01:59Z</time>
      </trkpt>
      <trkpt lat="45.35204" lon="5.74811">
        <ele>943.4</ele>
        <time>2021-12-19T09:02:00Z</time>
      </trkpt>
      <trkpt lat="45.35205" lon="5.7481">
        <ele>943.4</ele>
        <time>2021-12-19T09:02:01Z</time>
      </trkpt>
      <trkpt lat="45.35205" lon="5.7481">
        <ele>943.4</ele>
        <time>2021-12-19T09:02:02Z</time>
      </trkpt>
      <trkpt lat="45.35205" lon="5.7481">
        <ele>943.4</ele>
        <time>2021-12-19T09:02:03Z</time>
      </trkpt>
      <trkpt lat="45.35205" lon="5.7481">
        <ele>943.5</ele>
        <time>2021-12-19T09:02:04Z</time>
      </trkpt>
      <trkpt lat="45.35205" lon="5.74809">
        <ele>943.5</ele>
        <time>2021-12-19T09:02:05Z</time>
      </trkpt>
      <trkpt lat="45.35205" lon="5.74809">
        <ele>943.5</ele>
        <time>2021-12-19T09:02:06Z</time>
      </trkpt>
      <trkpt lat="45.35205" lon="5.74809">
        <ele>943.5</ele>
        <time>2021-12-19T09:02:07Z</time>
      </trkpt>
      <trkpt lat="45.35205" lon="5.74809">
        <ele>943.5</ele>
        <time>2021-12-19T09:02:08Z</time>
      </trkpt>
      <trkpt lat="45.35205" lon="5.74809">
        <ele>943.5</ele>
        <time>2021-12-19T09:02:09Z</time>
      </trkpt>
      <trkpt lat="45.35205" lon="5.74809">
        <ele>943.5</ele>
        <time>2021-12-19T09:02:10Z</time>
      </trkpt>
      <trkpt lat="45.35205" lon="5.74809">
        <ele>943.5</ele>
        <time>2021-12-19T09:02:11Z</time>
      </trkpt>
      <trkpt lat="45.35205" lon="5.74809">
        <ele>943.5</ele>
        <time>2021-12-19T09:02:12Z</time>
      </trkpt>
      <trkpt lat="45.35205" lon="5.74809">
        <ele>943.5</ele>
        <time>2021-12-19T09:02:13Z</time>
      </trkpt>
      <trkpt lat="45.35205" lon="5.74809">
        <ele>943.5</ele>
        <time>2021-12-19T09:02:14Z</time>
      </trkpt>
      <trkpt lat="45.35205" lon="5.74809">
        <ele>943.5</ele>
        <time>2021-12-19T09:02:15Z</time>
      </trkpt>
      <trkpt lat="45.35205" lon="5.74809">
        <ele>943.5</ele>
        <time>2021-12-19T09:02:16Z</time>
      </trkpt>
      <trkpt lat="45.35205" lon="5.74809">
        <ele>943.5</ele>
        <time>2021-12-19T09:02:17Z</time>
      </trkpt>
      <trkpt lat="45.35205" lon="5.74809">
        <ele>943.5</ele>
        <time>2021-12-19T09:02:18Z</time>
      </trkpt>
      <trkpt lat="45.35205" lon="5.74809">
        <ele>943.5</ele>
        <time>2021-12-19T09:02:19Z</time>
      </trkpt>
      <trkpt lat="45.35205" lon="5.74809">
        <ele>943.5</ele>
        <time>2021-12-19T09:02:20Z</time>
      </trkpt>
      <trkpt lat="45.35205" lon="5.7481">
        <ele>943.5</ele>
        <time>2021-12-19T09:02:21Z</time>
      </trkpt>
      <trkpt lat="45.35204" lon="5.74809">
        <ele>943.5</ele>
        <time>2021-12-19T09:02:22Z</time>
      </trkpt>
      <trkpt lat="45.35204" lon="5.7481">
        <ele>943.5</ele>
        <time>2021-12-19T09:02:23Z</time>
      </trkpt>
      <trkpt lat="45.35205" lon="5.74809">
        <ele>943.5</ele>
        <time>2021-12-19T09:02:24Z</time>
      </trkpt>
      <trkpt lat="45.35205" lon="5.74809">
        <ele>943.6</ele>
        <time>2021-12-19T09:02:25Z</time>
      </trkpt>
      <trkpt lat="45.35205" lon="5.74809">
        <ele>943.6</ele>
        <time>2021-12-19T09:02:26Z</time>
      </trkpt>
      <trkpt lat="45.35205" lon="5.74809">
        <ele>943.6</ele>
        <time>2021-12-19T09:02:27Z</time>
      </trkpt>
      <trkpt lat="45.35205" lon="5.74808">
        <ele>943.6</ele>
        <time>2021-12-19T09:02:28Z</time>
      </trkpt>
      <trkpt lat="45.35206" lon="5.74808">
        <ele>943.6</ele>
        <time>2021-12-19T09:02:29Z</time>
      </trkpt>
      <trkpt lat="45.35206" lon="5.74808">
        <ele>943.6</ele>
        <time>2021-12-19T09:02:30Z</time>
      </trkpt>
      <trkpt lat="45.35206" lon="5.74808">
        <ele>943.6</ele>
        <time>2021-12-19T09:02:31Z</time>
      </trkpt>
      <trkpt lat="45.35206" lon="5.74807">
        <ele>943.6</ele>
        <time>2021-12-19T09:02:32Z</time>
      </trkpt>
      <trkpt lat="45.35206" lon="5.74808">
        <ele>943.6</ele>
        <time>2021-12-19T09:02:33Z</time>
      </trkpt>
      <trkpt lat="45.35206" lon="5.74808">
        <ele>943.6</ele>
        <time>2021-12-19T09:02:34Z</time>
      </trkpt>
      <trkpt lat="45.35206" lon="5.74807">
        <ele>943.6</ele>
        <time>2021-12-19T09:02:35Z</time>
      </trkpt>
      <trkpt lat="45.35207" lon="5.74806">
        <ele>943.7</ele>
        <time>2021-12-19T09:02:36Z</time>
      </trkpt>
      <trkpt lat="45.35207" lon="5.74806">
        <ele>943.7</ele>
        <time>2021-12-19T09:02:37Z</time>
      </trkpt>
      <trkpt lat="45.35208" lon="5.74806">
        <ele>943.7</ele>
        <time>2021-12-19T09:02:38Z</time>
      </trkpt>
      <trkpt lat="45.35208" lon="5.74806">
        <ele>943.7</ele>
        <time>2021-12-19T09:02:39Z</time>
      </trkpt>
      <trkpt lat="45.35208" lon="5.74806">
        <ele>943.7</ele>
        <time>2021-12-19T09:02:40Z</time>
      </trkpt>
      <trkpt lat="45.35208" lon="5.74806">
        <ele>943.7</ele>
        <time>2021-12-19T09:02:41Z</time>
      </trkpt>
      <trkpt lat="45.35208" lon="5.74807">
        <ele>943.7</ele>
        <time>2021-12-19T09:02:42Z</time>
      </trkpt>
      <trkpt lat="45.35208" lon="5.74807">
        <ele>943.7</ele>
        <time>2021-12-19T09:02:43Z</time>
      </trkpt>
      <trkpt lat="45.35208" lon="5.74808">
        <ele>943.8</ele>
        <time>2021-12-19T09:02:44Z</time>
      </trkpt>
      <trkpt lat="45.35208" lon="5.74808">
        <ele>943.8</ele>
        <time>2021-12-19T09:02:45Z</time>
      </trkpt>
      <trkpt lat="45.35208" lon="5.74808">
        <ele>943.8</ele>
        <time>2021-12-19T09:02:46Z</time>
      </trkpt>
      <trkpt lat="45.35208" lon="5.74808">
        <ele>943.8</ele>
        <time>2021-12-19T09:02:47Z</time>
      </trkpt>
      <trkpt lat="45.35207" lon="5.74808">
        <ele>943.8</ele>
        <time>2021-12-19T09:02:48Z</time>
      </trkpt>
      <trkpt lat="45.35207" lon="5.74808">
        <ele>943.8</ele>
        <time>2021-12-19T09:02:49Z</time>
      </trkpt>
      <trkpt lat="45.35207" lon="5.74808">
        <ele>943.8</ele>
        <time>2021-12-19T09:02:50Z</time>
      </trkpt>
      <trkpt lat="45.35207" lon="5.74808">
        <ele>943.8</ele>
        <time>2021-12-19T09:02:51Z</time>
      </trkpt>
      <trkpt lat="45.35208" lon="5.74809">
        <ele>943.8</ele>
        <time>2021-12-19T09:02:52Z</time>
      </trkpt>
      <trkpt lat="45.35208" lon="5.74809">
        <ele>943.8</ele>
        <time>2021-12-19T09:02:53Z</time>
      </trkpt>
      <trkpt lat="45.35208" lon="5.74809">
        <ele>943.8</ele>
        <time>2021-12-19T09:02:54Z</time>
      </trkpt>
      <trkpt lat="45.35207" lon="5.7481">
        <ele>943.9</ele>
        <time>2021-12-19T09:02:55Z</time>
      </trkpt>
      <trkpt lat="45.35208" lon="5.74811">
        <ele>943.9</ele>
        <time>2021-12-19T09:02:56Z</time>
      </trkpt>
      <trkpt lat="45.35208" lon="5.7481">
        <ele>943.9</ele>
        <time>2021-12-19T09:02:57Z</time>
      </trkpt>
      <trkpt lat="45.35208" lon="5.7481">
        <ele>943.9</ele>
        <time>2021-12-19T09:02:58Z</time>
      </trkpt>
      <trkpt lat="45.35208" lon="5.74809">
        <ele>943.9</ele>
        <time>2021-12-19T09:02:59Z</time>
      </trkpt>
      <trkpt lat="45.35209" lon="5.74809">
        <ele>943.9</ele>
        <time>2021-12-19T09:03:00Z</time>
      </trkpt>
      <trkpt lat="45.35209" lon="5.74808">
        <ele>943.9</ele>
        <time>2021-12-19T09:03:01Z</time>
      </trkpt>
      <trkpt lat="45.3521" lon="5.74808">
        <ele>944</ele>
        <time>2021-12-19T09:03:02Z</time>
      </trkpt>
      <trkpt lat="45.35211" lon="5.74808">
        <ele>944</ele>
        <time>2021-12-19T09:03:03Z</time>
      </trkpt>
      <trkpt lat="45.35211" lon="5.74807">
        <ele>944</ele>
        <time>2021-12-19T09:03:04Z</time>
      </trkpt>
      <trkpt lat="45.35212" lon="5.74807">
        <ele>944</ele>
        <time>2021-12-19T09:03:05Z</time>
      </trkpt>
      <trkpt lat="45.35213" lon="5.74807">
        <ele>944.1</ele>
        <time>2021-12-19T09:03:06Z</time>
      </trkpt>
      <trkpt lat="45.35213" lon="5.74806">
        <ele>944.1</ele>
        <time>2021-12-19T09:03:07Z</time>
      </trkpt>
      <trkpt lat="45.35214" lon="5.74805">
        <ele>944.5</ele>
        <time>2021-12-19T09:03:08Z</time>
      </trkpt>
      <trkpt lat="45.35214" lon="5.74804">
        <ele>944.6</ele>
        <time>2021-12-19T09:03:09Z</time>
      </trkpt>
      <trkpt lat="45.35215" lon="5.74804">
        <ele>944.6</ele>
        <time>2021-12-19T09:03:10Z</time>
      </trkpt>
      <trkpt lat="45.35215" lon="5.74802">
        <ele>944.7</ele>
        <time>2021-12-19T09:03:11Z</time>
      </trkpt>
      <trkpt lat="45.35216" lon="5.74801">
        <ele>944.7</ele>
        <time>2021-12-19T09:03:12Z</time>
      </trkpt>
      <trkpt lat="45.35216" lon="5.74801">
        <ele>944.7</ele>
        <time>2021-12-19T09:03:13Z</time>
      </trkpt>
      <trkpt lat="45.35215" lon="5.74802">
        <ele>944.8</ele>
        <time>2021-12-19T09:03:14Z</time>
      </trkpt>
      <trkpt lat="45.35215" lon="5.74803">
        <ele>944.8</ele>
        <time>2021-12-19T09:03:15Z</time>
      </trkpt>
      <trkpt lat="45.35213" lon="5.74806">
        <ele>945</ele>
        <time>2021-12-19T09:03:16Z</time>
      </trkpt>
      <trkpt lat="45.35211" lon="5.74809">
        <ele>945.2</ele>
        <time>2021-12-19T09:03:17Z</time>
      </trkpt>
      <trkpt lat="45.3521" lon="5.7481">
        <ele>945.2</ele>
        <time>2021-12-19T09:03:18Z</time>
      </trkpt>
      <trkpt lat="45.3521" lon="5.74811">
        <ele>945.2</ele>
        <time>2021-12-19T09:03:19Z</time>
      </trkpt>
      <trkpt lat="45.3521" lon="5.74811">
        <ele>945.2</ele>
        <time>2021-12-19T09:03:20Z</time>
      </trkpt>
      <trkpt lat="45.35209" lon="5.74811">
        <ele>945.3</ele>
        <time>2021-12-19T09:03:21Z</time>
      </trkpt>
      <trkpt lat="45.3521" lon="5.7481">
        <ele>945.3</ele>
        <time>2021-12-19T09:03:22Z</time>
      </trkpt>
      <trkpt lat="45.3521" lon="5.7481">
        <ele>945.3</ele>
        <time>2021-12-19T09:03:23Z</time>
      </trkpt>
      <trkpt lat="45.3521" lon="5.74811">
        <ele>945.3</ele>
        <time>2021-12-19T09:03:24Z</time>
      </trkpt>
      <trkpt lat="45.3521" lon="5.7481">
        <ele>945.4</ele>
        <time>2021-12-19T09:03:25Z</time>
      </trkpt>
      <trkpt lat="45.35211" lon="5.74809">
        <ele>945.4</ele>
        <time>2021-12-19T09:03:26Z</time>
      </trkpt>
      <trkpt lat="45.35211" lon="5.74809">
        <ele>945.5</ele>
        <time>2021-12-19T09:03:27Z</time>
      </trkpt>
      <trkpt lat="45.35211" lon="5.74808">
        <ele>945.5</ele>
        <time>2021-12-19T09:03:28Z</time>
      </trkpt>
      <trkpt lat="45.35212" lon="5.74807">
        <ele>945.6</ele>
        <time>2021-12-19T09:03:29Z</time>
      </trkpt>
      <trkpt lat="45.35213" lon="5.74806">
        <ele>945.6</ele>
        <time>2021-12-19T09:03:30Z</time>
      </trkpt>
      <trkpt lat="45.35213" lon="5.74805">
        <ele>945.7</ele>
        <time>2021-12-19T09:03:31Z</time>
      </trkpt>
      <trkpt lat="45.35213" lon="5.74805">
        <ele>945.7</ele>
        <time>2021-12-19T09:03:32Z</time>
      </trkpt>
      <trkpt lat="45.35214" lon="5.74805">
        <ele>945.7</ele>
        <time>2021-12-19T09:03:33Z</time>
      </trkpt>
      <trkpt lat="45.35214" lon="5.74804">
        <ele>945.8</ele>
        <time>2021-12-19T09:03:34Z</time>
      </trkpt>
      <trkpt lat="45.35215" lon="5.74803">
        <ele>945.8</ele>
        <time>2021-12-19T09:03:35Z</time>
      </trkpt>
      <trkpt lat="45.35215" lon="5.74803">
        <ele>945.8</ele>
        <time>2021-12-19T09:03:36Z</time>
      </trkpt>
      <trkpt lat="45.35215" lon="5.74803">
        <ele>945.8</ele>
        <time>2021-12-19T09:03:37Z</time>
      </trkpt>
      <trkpt lat="45.35215" lon="5.74802">
        <ele>945.9</ele>
        <time>2021-12-19T09:03:38Z</time>
      </trkpt>
      <trkpt lat="45.35214" lon="5.74803">
        <ele>945.9</ele>
        <time>2021-12-19T09:03:39Z</time>
      </trkpt>
      <trkpt lat="45.35214" lon="5.74803">
        <ele>946</ele>
        <time>2021-12-19T09:03:40Z</time>
      </trkpt>
      <trkpt lat="45.35213" lon="5.74803">
        <ele>946</ele>
        <time>2021-12-19T09:03:41Z</time>
      </trkpt>
      <trkpt lat="45.35213" lon="5.74803">
        <ele>946</ele>
        <time>2021-12-19T09:03:42Z</time>
      </trkpt>
      <trkpt lat="45.35213" lon="5.74803">
        <ele>946</ele>
        <time>2021-12-19T09:03:43Z</time>
      </trkpt>
      <trkpt lat="45.35212" lon="5.74804">
        <ele>946.1</ele>
        <time>2021-12-19T09:03:44Z</time>
      </trkpt>
      <trkpt lat="45.35211" lon="5.74805">
        <ele>946.1</ele>
        <time>2021-12-19T09:03:45Z</time>
      </trkpt>
      <trkpt lat="45.3521" lon="5.74805">
        <ele>946.2</ele>
        <time>2021-12-19T09:03:46Z</time>
      </trkpt>
      <trkpt lat="45.35209" lon="5.74806">
        <ele>946.3</ele>
        <time>2021-12-19T09:03:47Z</time>
      </trkpt>
      <trkpt lat="45.35207" lon="5.74808">
        <ele>946.4</ele>
        <time>2021-12-19T09:03:48Z</time>
      </trkpt>
      <trkpt lat="45.35206" lon="5.74809">
        <ele>946.4</ele>
        <time>2021-12-19T09:03:49Z</time>
      </trkpt>
      <trkpt lat="45.35206" lon="5.7481">
        <ele>946.5</ele>
        <time>2021-12-19T09:03:50Z</time>
      </trkpt>
      <trkpt lat="45.35205" lon="5.74811">
        <ele>946.5</ele>
        <time>2021-12-19T09:03:51Z</time>
      </trkpt>
      <trkpt lat="45.35204" lon="5.74811">
        <ele>946.5</ele>
        <time>2021-12-19T09:03:52Z</time>
      </trkpt>
      <trkpt lat="45.35204" lon="5.74812">
        <ele>946.6</ele>
        <time>2021-12-19T09:03:53Z</time>
      </trkpt>
      <trkpt lat="45.35203" lon="5.74812">
        <ele>946.6</ele>
        <time>2021-12-19T09:03:54Z</time>
      </trkpt>
      <trkpt lat="45.35203" lon="5.74812">
        <ele>946.6</ele>
        <time>2021-12-19T09:03:55Z</time>
      </trkpt>
      <trkpt lat="45.35202" lon="5.74813">
        <ele>946.7</ele>
        <time>2021-12-19T09:03:56Z</time>
      </trkpt>
      <trkpt lat="45.35202" lon="5.74813">
        <ele>946.7</ele>
        <time>2021-12-19T09:03:57Z</time>
      </trkpt>
      <trkpt lat="45.35202" lon="5.74813">
        <ele>946.7</ele>
        <time>2021-12-19T09:03:58Z</time>
      </trkpt>
      <trkpt lat="45.35202" lon="5.74813">
        <ele>946.7</ele>
        <time>2021-12-19T09:03:59Z</time>
      </trkpt>
      <trkpt lat="45.35202" lon="5.74813">
        <ele>946.7</ele>
        <time>2021-12-19T09:04:00Z</time>
      </trkpt>
      <trkpt lat="45.35202" lon="5.74813">
        <ele>946.7</ele>
        <time>2021-12-19T09:04:01Z</time>
      </trkpt>
      <trkpt lat="45.35202" lon="5.74813">
        <ele>946.7</ele>
        <time>2021-12-19T09:04:02Z</time>
      </trkpt>
      <trkpt lat="45.35202" lon="5.74813">
        <ele>946.7</ele>
        <time>2021-12-19T09:04:03Z</time>
      </trkpt>
      <trkpt lat="45.35202" lon="5.74813">
        <ele>946.7</ele>
        <time>2021-12-19T09:04:04Z</time>
      </trkpt>
      <trkpt lat="45.35201" lon="5.74814">
        <ele>946.8</ele>
        <time>2021-12-19T09:04:05Z</time>
      </trkpt>
      <trkpt lat="45.35201" lon="5.74814">
        <ele>946.8</ele>
        <time>2021-12-19T09:04:06Z</time>
      </trkpt>
      <trkpt lat="45.35201" lon="5.74815">
        <ele>946.8</ele>
        <time>2021-12-19T09:04:07Z</time>
      </trkpt>
      <trkpt lat="45.35201" lon="5.74815">
        <ele>946.8</ele>
        <time>2021-12-19T09:04:08Z</time>
      </trkpt>
      <trkpt lat="45.35201" lon="5.74815">
        <ele>946.8</ele>
        <time>2021-12-19T09:04:09Z</time>
      </trkpt>
      <trkpt lat="45.35201" lon="5.74815">
        <ele>946.8</ele>
        <time>2021-12-19T09:04:10Z</time>
      </trkpt>
      <trkpt lat="45.35201" lon="5.74815">
        <ele>946.9</ele>
        <time>2021-12-19T09:04:11Z</time>
      </trkpt>
      <trkpt lat="45.35201" lon="5.74815">
        <ele>946.9</ele>
        <time>2021-12-19T09:04:12Z</time>
      </trkpt>
      <trkpt lat="45.35201" lon="5.74815">
        <ele>946.9</ele>
        <time>2021-12-19T09:04:13Z</time>
      </trkpt>
      <trkpt lat="45.35201" lon="5.74814">
        <ele>946.9</ele>
        <time>2021-12-19T09:04:14Z</time>
      </trkpt>
      <trkpt lat="45.35201" lon="5.74815">
        <ele>946.9</ele>
        <time>2021-12-19T09:04:15Z</time>
      </trkpt>
      <trkpt lat="45.35201" lon="5.74814">
        <ele>946.9</ele>
        <time>2021-12-19T09:04:16Z</time>
      </trkpt>
      <trkpt lat="45.35201" lon="5.74814">
        <ele>946.9</ele>
        <time>2021-12-19T09:04:17Z</time>
      </trkpt>
      <trkpt lat="45.352" lon="5.74814">
        <ele>946.9</ele>
        <time>2021-12-19T09:04:18Z</time>
      </trkpt>
      <trkpt lat="45.352" lon="5.74814">
        <ele>946.9</ele>
        <time>2021-12-19T09:04:19Z</time>
      </trkpt>
      <trkpt lat="45.352" lon="5.74814">
        <ele>947</ele>
        <time>2021-12-19T09:04:20Z</time>
      </trkpt>
      <trkpt lat="45.35199" lon="5.74814">
        <ele>947</ele>
        <time>2021-12-19T09:04:21Z</time>
      </trkpt>
      <trkpt lat="45.35199" lon="5.74814">
        <ele>947</ele>
        <time>2021-12-19T09:04:22Z</time>
      </trkpt>
      <trkpt lat="45.35199" lon="5.74814">
        <ele>947</ele>
        <time>2021-12-19T09:04:23Z</time>
      </trkpt>
      <trkpt lat="45.35199" lon="5.74814">
        <ele>947</ele>
        <time>2021-12-19T09:04:24Z</time>
      </trkpt>
      <trkpt lat="45.35199" lon="5.74813">
        <ele>947</ele>
        <time>2021-12-19T09:04:25Z</time>
      </trkpt>
      <trkpt lat="45.35199" lon="5.74814">
        <ele>947</ele>
        <time>2021-12-19T09:04:26Z</time>
      </trkpt>
      <trkpt lat="45.35201" lon="5.74812">
        <ele>947.1</ele>
        <time>2021-12-19T09:04:27Z</time>
      </trkpt>
      <trkpt lat="45.35202" lon="5.74811">
        <ele>947.2</ele>
        <time>2021-12-19T09:04:28Z</time>
      </trkpt>
      <trkpt lat="45.35203" lon="5.74811">
        <ele>947.2</ele>
        <time>2021-12-19T09:04:29Z</time>
      </trkpt>
      <trkpt lat="45.35203" lon="5.74811">
        <ele>947.2</ele>
        <time>2021-12-19T09:04:30Z</time>
      </trkpt>
      <trkpt lat="45.35203" lon="5.74811">
        <ele>947.3</ele>
        <time>2021-12-19T09:04:31Z</time>
      </trkpt>
      <trkpt lat="45.35203" lon="5.74811">
        <ele>947.3</ele>
        <time>2021-12-19T09:04:32Z</time>
      </trkpt>
      <trkpt lat="45.35204" lon="5.74811">
        <ele>947.3</ele>
        <time>2021-12-19T09:04:33Z</time>
      </trkpt>
      <trkpt lat="45.35204" lon="5.74811">
        <ele>947.3</ele>
        <time>2021-12-19T09:04:34Z</time>
      </trkpt>
      <trkpt lat="45.35205" lon="5.74811">
        <ele>947.4</ele>
        <time>2021-12-19T09:04:35Z</time>
      </trkpt>
      <trkpt lat="45.35205" lon="5.7481">
        <ele>947.4</ele>
        <time>2021-12-19T09:04:36Z</time>
      </trkpt>
      <trkpt lat="45.35205" lon="5.7481">
        <ele>947.4</ele>
        <time>2021-12-19T09:04:37Z</time>
      </trkpt>
      <trkpt lat="45.35206" lon="5.74809">
        <ele>947.5</ele>
        <time>2021-12-19T09:04:38Z</time>
      </trkpt>
      <trkpt lat="45.35206" lon="5.7481">
        <ele>947.5</ele>
        <time>2021-12-19T09:04:39Z</time>
      </trkpt>
      <trkpt lat="45.35205" lon="5.7481">
        <ele>947.5</ele>
        <time>2021-12-19T09:04:40Z</time>
      </trkpt>
      <trkpt lat="45.35205" lon="5.74811">
        <ele>947.5</ele>
        <time>2021-12-19T09:04:41Z</time>
      </trkpt>
      <trkpt lat="45.35205" lon="5.74811">
        <ele>947.5</ele>
        <time>2021-12-19T09:04:42Z</time>
      </trkpt>
      <trkpt lat="45.35205" lon="5.74811">
        <ele>947.6</ele>
        <time>2021-12-19T09:04:43Z</time>
      </trkpt>
      <trkpt lat="45.35205" lon="5.74811">
        <ele>947.6</ele>
        <time>2021-12-19T09:04:44Z</time>
      </trkpt>
      <trkpt lat="45.35205" lon="5.74811">
        <ele>947.6</ele>
        <time>2021-12-19T09:04:45Z</time>
      </trkpt>
      <trkpt lat="45.35205" lon="5.74811">
        <ele>947.6</ele>
        <time>2021-12-19T09:04:46Z</time>
      </trkpt>
      <trkpt lat="45.35205" lon="5.74811">
        <ele>947.6</ele>
        <time>2021-12-19T09:04:47Z</time>
      </trkpt>
      <trkpt lat="45.35205" lon="5.7481">
        <ele>947.6</ele>
        <time>2021-12-19T09:04:48Z</time>
      </trkpt>
      <trkpt lat="45.35205" lon="5.7481">
        <ele>947.6</ele>
        <time>2021-12-19T09:04:49Z</time>
      </trkpt>
      <trkpt lat="45.35205" lon="5.7481">
        <ele>947.6</ele>
        <time>2021-12-19T09:04:50Z</time>
      </trkpt>
      <trkpt lat="45.35205" lon="5.7481">
        <ele>947.6</ele>
        <time>2021-12-19T09:04:51Z</time>
      </trkpt>
      <trkpt lat="45.35205" lon="5.7481">
        <ele>947.7</ele>
        <time>2021-12-19T09:04:52Z</time>
      </trkpt>
      <trkpt lat="45.35205" lon="5.74809">
        <ele>947.7</ele>
        <time>2021-12-19T09:04:53Z</time>
      </trkpt>
      <trkpt lat="45.35205" lon="5.74809">
        <ele>947.7</ele>
        <time>2021-12-19T09:04:54Z</time>
      </trkpt>
      <trkpt lat="45.35204" lon="5.74808">
        <ele>947.7</ele>
        <time>2021-12-19T09:04:55Z</time>
      </trkpt>
      <trkpt lat="45.35203" lon="5.74809">
        <ele>947.8</ele>
        <time>2021-12-19T09:04:56Z</time>
      </trkpt>
      <trkpt lat="45.35204" lon="5.74808">
        <ele>947.8</ele>
        <time>2021-12-19T09:04:57Z</time>
      </trkpt>
      <trkpt lat="45.35204" lon="5.74807">
        <ele>947.8</ele>
        <time>2021-12-19T09:04:58Z</time>
      </trkpt>
      <trkpt lat="45.35204" lon="5.74807">
        <ele>947.8</ele>
        <time>2021-12-19T09:04:59Z</time>
      </trkpt>
      <trkpt lat="45.35204" lon="5.74807">
        <ele>947.9</ele>
        <time>2021-12-19T09:05:00Z</time>
      </trkpt>
      <trkpt lat="45.35204" lon="5.74806">
        <ele>947.9</ele>
        <time>2021-12-19T09:05:01Z</time>
      </trkpt>
      <trkpt lat="45.35205" lon="5.74807">
        <ele>947.9</ele>
        <time>2021-12-19T09:05:02Z</time>
      </trkpt>
      <trkpt lat="45.35205" lon="5.74807">
        <ele>947.9</ele>
        <time>2021-12-19T09:05:03Z</time>
      </trkpt>
      <trkpt lat="45.35205" lon="5.74807">
        <ele>947.9</ele>
        <time>2021-12-19T09:05:04Z</time>
      </trkpt>
      <trkpt lat="45.35205" lon="5.74808">
        <ele>948</ele>
        <time>2021-12-19T09:05:05Z</time>
      </trkpt>
      <trkpt lat="45.35205" lon="5.74808">
        <ele>948</ele>
        <time>2021-12-19T09:05:06Z</time>
      </trkpt>
      <trkpt lat="45.35205" lon="5.74808">
        <ele>948</ele>
        <time>2021-12-19T09:05:07Z</time>
      </trkpt>
      <trkpt lat="45.35204" lon="5.74809">
        <ele>948</ele>
        <time>2021-12-19T09:05:08Z</time>
      </trkpt>
      <trkpt lat="45.35205" lon="5.74809">
        <ele>948</ele>
        <time>2021-12-19T09:05:09Z</time>
      </trkpt>
      <trkpt lat="45.35204" lon="5.7481">
        <ele>948.1</ele>
        <time>2021-12-19T09:05:10Z</time>
      </trkpt>
      <trkpt lat="45.35204" lon="5.7481">
        <ele>948.1</ele>
        <time>2021-12-19T09:05:11Z</time>
      </trkpt>
      <trkpt lat="45.35204" lon="5.7481">
        <ele>948.1</ele>
        <time>2021-12-19T09:05:12Z</time>
      </trkpt>
      <trkpt lat="45.35204" lon="5.7481">
        <ele>948.1</ele>
        <time>2021-12-19T09:05:13Z</time>
      </trkpt>
      <trkpt lat="45.35203" lon="5.74811">
        <ele>948.2</ele>
        <time>2021-12-19T09:05:14Z</time>
      </trkpt>
      <trkpt lat="45.35203" lon="5.74812">
        <ele>948.2</ele>
        <time>2021-12-19T09:05:15Z</time>
      </trkpt>
      <trkpt lat="45.35203" lon="5.74813">
        <ele>948.2</ele>
        <time>2021-12-19T09:05:16Z</time>
      </trkpt>
      <trkpt lat="45.35203" lon="5.74813">
        <ele>948.3</ele>
        <time>2021-12-19T09:05:17Z</time>
      </trkpt>
      <trkpt lat="45.35203" lon="5.74812">
        <ele>948.3</ele>
        <time>2021-12-19T09:05:18Z</time>
      </trkpt>
      <trkpt lat="45.35203" lon="5.74812">
        <ele>948.3</ele>
        <time>2021-12-19T09:05:19Z</time>
      </trkpt>
      <trkpt lat="45.35203" lon="5.74812">
        <ele>948.3</ele>
        <time>2021-12-19T09:05:20Z</time>
      </trkpt>
      <trkpt lat="45.35203" lon="5.74812">
        <ele>948.3</ele>
        <time>2021-12-19T09:05:21Z</time>
      </trkpt>
      <trkpt lat="45.35203" lon="5.74812">
        <ele>948.3</ele>
        <time>2021-12-19T09:05:22Z</time>
      </trkpt>
      <trkpt lat="45.35203" lon="5.74812">
        <ele>948.3</ele>
        <time>2021-12-19T09:05:23Z</time>
      </trkpt>
      <trkpt lat="45.35203" lon="5.74812">
        <ele>948.3</ele>
        <time>2021-12-19T09:05:24Z</time>
      </trkpt>
      <trkpt lat="45.35203" lon="5.74812">
        <ele>948.4</ele>
        <time>2021-12-19T09:05:25Z</time>
      </trkpt>
      <trkpt lat="45.35203" lon="5.74812">
        <ele>948.4</ele>
        <time>2021-12-19T09:05:26Z</time>
      </trkpt>
      <trkpt lat="45.35203" lon="5.74813">
        <ele>948.4</ele>
        <time>2021-12-19T09:05:27Z</time>
      </trkpt>
      <trkpt lat="45.35203" lon="5.74813">
        <ele>948.4</ele>
        <time>2021-12-19T09:05:28Z</time>
      </trkpt>
      <trkpt lat="45.35203" lon="5.74813">
        <ele>948.4</ele>
        <time>2021-12-19T09:05:29Z</time>
      </trkpt>
      <trkpt lat="45.35203" lon="5.74813">
        <ele>948.4</ele>
        <time>2021-12-19T09:05:30Z</time>
      </trkpt>
      <trkpt lat="45.35204" lon="5.74812">
        <ele>948.5</ele>
        <time>2021-12-19T09:05:31Z</time>
      </trkpt>
      <trkpt lat="45.35204" lon="5.74812">
        <ele>948.5</ele>
        <time>2021-12-19T09:05:32Z</time>
      </trkpt>
      <trkpt lat="45.35205" lon="5.7481">
        <ele>948.6</ele>
        <time>2021-12-19T09:05:33Z</time>
      </trkpt>
      <trkpt lat="45.35205" lon="5.74811">
        <ele>948.6</ele>
        <time>2021-12-19T09:05:34Z</time>
      </trkpt>
      <trkpt lat="45.35206" lon="5.7481">
        <ele>948.6</ele>
        <time>2021-12-19T09:05:35Z</time>
      </trkpt>
      <trkpt lat="45.35206" lon="5.7481">
        <ele>948.6</ele>
        <time>2021-12-19T09:05:36Z</time>
      </trkpt>
      <trkpt lat="45.35206" lon="5.7481">
        <ele>948.7</ele>
        <time>2021-12-19T09:05:37Z</time>
      </trkpt>
      <trkpt lat="45.35206" lon="5.7481">
        <ele>948.7</ele>
        <time>2021-12-19T09:05:38Z</time>
      </trkpt>
      <trkpt lat="45.35206" lon="5.7481">
        <ele>948.7</ele>
        <time>2021-12-19T09:05:39Z</time>
      </trkpt>
      <trkpt lat="45.35206" lon="5.7481">
        <ele>948.7</ele>
        <time>2021-12-19T09:05:40Z</time>
      </trkpt>
      <trkpt lat="45.35206" lon="5.7481">
        <ele>948.7</ele>
        <time>2021-12-19T09:05:41Z</time>
      </trkpt>
      <trkpt lat="45.35206" lon="5.7481">
        <ele>948.7</ele>
        <time>2021-12-19T09:05:42Z</time>
      </trkpt>
      <trkpt lat="45.35206" lon="5.7481">
        <ele>948.7</ele>
        <time>2021-12-19T09:05:43Z</time>
      </trkpt>
      <trkpt lat="45.35206" lon="5.7481">
        <ele>948.7</ele>
        <time>2021-12-19T09:05:44Z</time>
      </trkpt>
      <trkpt lat="45.35206" lon="5.7481">
        <ele>948.7</ele>
        <time>2021-12-19T09:05:45Z</time>
      </trkpt>
      <trkpt lat="45.35206" lon="5.7481">
        <ele>948.7</ele>
        <time>2021-12-19T09:05:46Z</time>
      </trkpt>
      <trkpt lat="45.35206" lon="5.7481">
        <ele>948.7</ele>
        <time>2021-12-19T09:05:47Z</time>
      </trkpt>
      <trkpt lat="45.35206" lon="5.7481">
        <ele>948.7</ele>
        <time>2021-12-19T09:05:48Z</time>
      </trkpt>
      <trkpt lat="45.35206" lon="5.7481">
        <ele>948.7</ele>
        <time>2021-12-19T09:05:49Z</time>
      </trkpt>
      <trkpt lat="45.35206" lon="5.7481">
        <ele>948.8</ele>
        <time>2021-12-19T09:05:50Z</time>
      </trkpt>
      <trkpt lat="45.35205" lon="5.74811">
        <ele>948.8</ele>
        <time>2021-12-19T09:05:51Z</time>
      </trkpt>
      <trkpt lat="45.35205" lon="5.74811">
        <ele>948.8</ele>
        <time>2021-12-19T09:05:52Z</time>
      </trkpt>
      <trkpt lat="45.35205" lon="5.74812">
        <ele>948.8</ele>
        <time>2021-12-19T09:05:53Z</time>
      </trkpt>
      <trkpt lat="45.35205" lon="5.74812">
        <ele>948.8</ele>
        <time>2021-12-19T09:05:54Z</time>
      </trkpt>
      <trkpt lat="45.35206" lon="5.74812">
        <ele>948.9</ele>
        <time>2021-12-19T09:05:55Z</time>
      </trkpt>
      <trkpt lat="45.35206" lon="5.74812">
        <ele>948.9</ele>
        <time>2021-12-19T09:05:56Z</time>
      </trkpt>
      <trkpt lat="45.35206" lon="5.74812">
        <ele>948.9</ele>
        <time>2021-12-19T09:05:57Z</time>
      </trkpt>
      <trkpt lat="45.35206" lon="5.74812">
        <ele>948.9</ele>
        <time>2021-12-19T09:05:58Z</time>
      </trkpt>
      <trkpt lat="45.35206" lon="5.74811">
        <ele>948.9</ele>
        <time>2021-12-19T09:05:59Z</time>
      </trkpt>
      <trkpt lat="45.35206" lon="5.74811">
        <ele>948.9</ele>
        <time>2021-12-19T09:06:00Z</time>
      </trkpt>
      <trkpt lat="45.35206" lon="5.74811">
        <ele>948.9</ele>
        <time>2021-12-19T09:06:01Z</time>
      </trkpt>
      <trkpt lat="45.35206" lon="5.74811">
        <ele>948.9</ele>
        <time>2021-12-19T09:06:02Z</time>
      </trkpt>
      <trkpt lat="45.35206" lon="5.74811">
        <ele>948.9</ele>
        <time>2021-12-19T09:06:03Z</time>
      </trkpt>
      <trkpt lat="45.35206" lon="5.74811">
        <ele>948.9</ele>
        <time>2021-12-19T09:06:04Z</time>
      </trkpt>
      <trkpt lat="45.35206" lon="5.74811">
        <ele>948.9</ele>
        <time>2021-12-19T09:06:05Z</time>
      </trkpt>
      <trkpt lat="45.35207" lon="5.74811">
        <ele>948.9</ele>
        <time>2021-12-19T09:06:06Z</time>
      </trkpt>
      <trkpt lat="45.35207" lon="5.74811">
        <ele>949</ele>
        <time>2021-12-19T09:06:07Z</time>
      </trkpt>
      <trkpt lat="45.35207" lon="5.74811">
        <ele>949</ele>
        <time>2021-12-19T09:06:08Z</time>
      </trkpt>
      <trkpt lat="45.35207" lon="5.74811">
        <ele>949</ele>
        <time>2021-12-19T09:06:09Z</time>
      </trkpt>
      <trkpt lat="45.35207" lon="5.74811">
        <ele>949</ele>
        <time>2021-12-19T09:06:10Z</time>
      </trkpt>
      <trkpt lat="45.35207" lon="5.74811">
        <ele>949</ele>
        <time>2021-12-19T09:06:11Z</time>
      </trkpt>
      <trkpt lat="45.35207" lon="5.74811">
        <ele>949</ele>
        <time>2021-12-19T09:06:12Z</time>
      </trkpt>
      <trkpt lat="45.35207" lon="5.74811">
        <ele>949</ele>
        <time>2021-12-19T09:06:13Z</time>
      </trkpt>
      <trkpt lat="45.35207" lon="5.74811">
        <ele>949</ele>
        <time>2021-12-19T09:06:14Z</time>
      </trkpt>
      <trkpt lat="45.35207" lon="5.74812">
        <ele>949</ele>
        <time>2021-12-19T09:06:15Z</time>
      </trkpt>
      <trkpt lat="45.35206" lon="5.74812">
        <ele>949.1</ele>
        <time>2021-12-19T09:06:16Z</time>
      </trkpt>
      <trkpt lat="45.35206" lon="5.74812">
        <ele>949.1</ele>
        <time>2021-12-19T09:06:17Z</time>
      </trkpt>
      <trkpt lat="45.35206" lon="5.74811">
        <ele>949.1</ele>
        <time>2021-12-19T09:06:18Z</time>
      </trkpt>
      <trkpt lat="45.35206" lon="5.74811">
        <ele>949.1</ele>
        <time>2021-12-19T09:06:19Z</time>
      </trkpt>
      <trkpt lat="45.35206" lon="5.74811">
        <ele>949.1</ele>
        <time>2021-12-19T09:06:20Z</time>
      </trkpt>
      <trkpt lat="45.35206" lon="5.74811">
        <ele>949.1</ele>
        <time>2021-12-19T09:06:21Z</time>
      </trkpt>
      <trkpt lat="45.35206" lon="5.7481">
        <ele>949.1</ele>
        <time>2021-12-19T09:06:22Z</time>
      </trkpt>
      <trkpt lat="45.35206" lon="5.7481">
        <ele>949.1</ele>
        <time>2021-12-19T09:06:23Z</time>
      </trkpt>
      <trkpt lat="45.35205" lon="5.74811">
        <ele>949.2</ele>
        <time>2021-12-19T09:06:24Z</time>
      </trkpt>
      <trkpt lat="45.35205" lon="5.74809">
        <ele>949.3</ele>
        <time>2021-12-19T09:06:25Z</time>
      </trkpt>
      <trkpt lat="45.35203" lon="5.74809">
        <ele>949.3</ele>
        <time>2021-12-19T09:06:26Z</time>
      </trkpt>
      <trkpt lat="45.35203" lon="5.74808">
        <ele>949.4</ele>
        <time>2021-12-19T09:06:27Z</time>
      </trkpt>
      <trkpt lat="45.35202" lon="5.74807">
        <ele>949.5</ele>
        <time>2021-12-19T09:06:28Z</time>
      </trkpt>
      <trkpt lat="45.35201" lon="5.74807">
        <ele>949.5</ele>
        <time>2021-12-19T09:06:29Z</time>
      </trkpt>
      <trkpt lat="45.352" lon="5.74807">
        <ele>949.6</ele>
        <time>2021-12-19T09:06:30Z</time>
      </trkpt>
      <trkpt lat="45.35199" lon="5.74806">
        <ele>949.7</ele>
        <time>2021-12-19T09:06:31Z</time>
      </trkpt>
      <trkpt lat="45.35198" lon="5.74805">
        <ele>949.7</ele>
        <time>2021-12-19T09:06:32Z</time>
      </trkpt>
      <trkpt lat="45.35197" lon="5.74804">
        <ele>949.8</ele>
        <time>2021-12-19T09:06:33Z</time>
      </trkpt>
      <trkpt lat="45.35197" lon="5.74803">
        <ele>949.8</ele>
        <time>2021-12-19T09:06:34Z</time>
      </trkpt>
      <trkpt lat="45.35196" lon="5.74802">
        <ele>949.9</ele>
        <time>2021-12-19T09:06:35Z</time>
      </trkpt>
      <trkpt lat="45.35195" lon="5.74801">
        <ele>950</ele>
        <time>2021-12-19T09:06:36Z</time>
      </trkpt>
      <trkpt lat="45.35194" lon="5.748">
        <ele>950</ele>
        <time>2021-12-19T09:06:37Z</time>
      </trkpt>
      <trkpt lat="45.35193" lon="5.74799">
        <ele>950.1</ele>
        <time>2021-12-19T09:06:38Z</time>
      </trkpt>
      <trkpt lat="45.35192" lon="5.74798">
        <ele>950.2</ele>
        <time>2021-12-19T09:06:39Z</time>
      </trkpt>
      <trkpt lat="45.35192" lon="5.74797">
        <ele>950.2</ele>
        <time>2021-12-19T09:06:40Z</time>
      </trkpt>
      <trkpt lat="45.35191" lon="5.74796">
        <ele>950.3</ele>
        <time>2021-12-19T09:06:41Z</time>
      </trkpt>
      <trkpt lat="45.3519" lon="5.74795">
        <ele>950.4</ele>
        <time>2021-12-19T09:06:42Z</time>
      </trkpt>
      <trkpt lat="45.35189" lon="5.74794">
        <ele>950.4</ele>
        <time>2021-12-19T09:06:43Z</time>
      </trkpt>
      <trkpt lat="45.35188" lon="5.74793">
        <ele>950.5</ele>
        <time>2021-12-19T09:06:44Z</time>
      </trkpt>
      <trkpt lat="45.35188" lon="5.74791">
        <ele>950.6</ele>
        <time>2021-12-19T09:06:45Z</time>
      </trkpt>
      <trkpt lat="45.35188" lon="5.7479">
        <ele>950.6</ele>
        <time>2021-12-19T09:06:46Z</time>
      </trkpt>
      <trkpt lat="45.35186" lon="5.7479">
        <ele>950.7</ele>
        <time>2021-12-19T09:06:47Z</time>
      </trkpt>
      <trkpt lat="45.35186" lon="5.74789">
        <ele>950.7</ele>
        <time>2021-12-19T09:06:48Z</time>
      </trkpt>
      <trkpt lat="45.35185" lon="5.74788">
        <ele>950.8</ele>
        <time>2021-12-19T09:06:49Z</time>
      </trkpt>
      <trkpt lat="45.35183" lon="5.74787">
        <ele>950.9</ele>
        <time>2021-12-19T09:06:50Z</time>
      </trkpt>
      <trkpt lat="45.35183" lon="5.74787">
        <ele>950.9</ele>
        <time>2021-12-19T09:06:51Z</time>
      </trkpt>
      <trkpt lat="45.35181" lon="5.74786">
        <ele>951</ele>
        <time>2021-12-19T09:06:52Z</time>
      </trkpt>
      <trkpt lat="45.3518" lon="5.74786">
        <ele>951</ele>
        <time>2021-12-19T09:06:53Z</time>
      </trkpt>
      <trkpt lat="45.35179" lon="5.74785">
        <ele>951.1</ele>
        <time>2021-12-19T09:06:54Z</time>
      </trkpt>
      <trkpt lat="45.35178" lon="5.74784">
        <ele>951.1</ele>
        <time>2021-12-19T09:06:55Z</time>
      </trkpt>
      <trkpt lat="45.35177" lon="5.74783">
        <ele>951.2</ele>
        <time>2021-12-19T09:06:56Z</time>
      </trkpt>
      <trkpt lat="45.35176" lon="5.74783">
        <ele>951.3</ele>
        <time>2021-12-19T09:06:57Z</time>
      </trkpt>
      <trkpt lat="45.35175" lon="5.74782">
        <ele>951.3</ele>
        <time>2021-12-19T09:06:58Z</time>
      </trkpt>
      <trkpt lat="45.35173" lon="5.74782">
        <ele>951.4</ele>
        <time>2021-12-19T09:06:59Z</time>
      </trkpt>
      <trkpt lat="45.35172" lon="5.74781">
        <ele>951.4</ele>
        <time>2021-12-19T09:07:00Z</time>
      </trkpt>
      <trkpt lat="45.35171" lon="5.7478">
        <ele>951.5</ele>
        <time>2021-12-19T09:07:01Z</time>
      </trkpt>
      <trkpt lat="45.3517" lon="5.74779">
        <ele>951.5</ele>
        <time>2021-12-19T09:07:02Z</time>
      </trkpt>
      <trkpt lat="45.35169" lon="5.74779">
        <ele>951.6</ele>
        <time>2021-12-19T09:07:03Z</time>
      </trkpt>
      <trkpt lat="45.35168" lon="5.74778">
        <ele>951.6</ele>
        <time>2021-12-19T09:07:04Z</time>
      </trkpt>
      <trkpt lat="45.35167" lon="5.74777">
        <ele>951.7</ele>
        <time>2021-12-19T09:07:05Z</time>
      </trkpt>
      <trkpt lat="45.35167" lon="5.74776">
        <ele>951.7</ele>
        <time>2021-12-19T09:07:06Z</time>
      </trkpt>
      <trkpt lat="45.35166" lon="5.74775">
        <ele>951.8</ele>
        <time>2021-12-19T09:07:07Z</time>
      </trkpt>
      <trkpt lat="45.35165" lon="5.74774">
        <ele>951.8</ele>
        <time>2021-12-19T09:07:08Z</time>
      </trkpt>
      <trkpt lat="45.35164" lon="5.74773">
        <ele>951.9</ele>
        <time>2021-12-19T09:07:09Z</time>
      </trkpt>
      <trkpt lat="45.35163" lon="5.74773">
        <ele>951.9</ele>
        <time>2021-12-19T09:07:10Z</time>
      </trkpt>
      <trkpt lat="45.35162" lon="5.74771">
        <ele>952</ele>
        <time>2021-12-19T09:07:11Z</time>
      </trkpt>
      <trkpt lat="45.35161" lon="5.7477">
        <ele>952</ele>
        <time>2021-12-19T09:07:12Z</time>
      </trkpt>
      <trkpt lat="45.3516" lon="5.74769">
        <ele>952.1</ele>
        <time>2021-12-19T09:07:13Z</time>
      </trkpt>
      <trkpt lat="45.35159" lon="5.74769">
        <ele>952.1</ele>
        <time>2021-12-19T09:07:14Z</time>
      </trkpt>
      <trkpt lat="45.35159" lon="5.74768">
        <ele>952.1</ele>
        <time>2021-12-19T09:07:15Z</time>
      </trkpt>
      <trkpt lat="45.35159" lon="5.74767">
        <ele>952.2</ele>
        <time>2021-12-19T09:07:16Z</time>
      </trkpt>
      <trkpt lat="45.35158" lon="5.74766">
        <ele>952.2</ele>
        <time>2021-12-19T09:07:17Z</time>
      </trkpt>
      <trkpt lat="45.35158" lon="5.74766">
        <ele>952.2</ele>
        <time>2021-12-19T09:07:18Z</time>
      </trkpt>
      <trkpt lat="45.35158" lon="5.74765">
        <ele>952.2</ele>
        <time>2021-12-19T09:07:19Z</time>
      </trkpt>
      <trkpt lat="45.35158" lon="5.74765">
        <ele>952.2</ele>
        <time>2021-12-19T09:07:20Z</time>
      </trkpt>
      <trkpt lat="45.35158" lon="5.74765">
        <ele>952.2</ele>
        <time>2021-12-19T09:07:21Z</time>
      </trkpt>
      <trkpt lat="45.35158" lon="5.74765">
        <ele>952.3</ele>
        <time>2021-12-19T09:07:22Z</time>
      </trkpt>
      <trkpt lat="45.35158" lon="5.74764">
        <ele>952.3</ele>
        <time>2021-12-19T09:07:23Z</time>
      </trkpt>
      <trkpt lat="45.35158" lon="5.74764">
        <ele>952.3</ele>
        <time>2021-12-19T09:07:24Z</time>
      </trkpt>
      <trkpt lat="45.35158" lon="5.74764">
        <ele>952.3</ele>
        <time>2021-12-19T09:07:25Z</time>
      </trkpt>
      <trkpt lat="45.35158" lon="5.74764">
        <ele>952.3</ele>
        <time>2021-12-19T09:07:26Z</time>
      </trkpt>
      <trkpt lat="45.35158" lon="5.74763">
        <ele>952.3</ele>
        <time>2021-12-19T09:07:27Z</time>
      </trkpt>
      <trkpt lat="45.35158" lon="5.74763">
        <ele>952.3</ele>
        <time>2021-12-19T09:07:28Z</time>
      </trkpt>
      <trkpt lat="45.35159" lon="5.74763">
        <ele>952.3</ele>
        <time>2021-12-19T09:07:29Z</time>
      </trkpt>
      <trkpt lat="45.35159" lon="5.74763">
        <ele>952.4</ele>
        <time>2021-12-19T09:07:30Z</time>
      </trkpt>
      <trkpt lat="45.35159" lon="5.74762">
        <ele>952.4</ele>
        <time>2021-12-19T09:07:31Z</time>
      </trkpt>
      <trkpt lat="45.35159" lon="5.74762">
        <ele>952.4</ele>
        <time>2021-12-19T09:07:32Z</time>
      </trkpt>
      <trkpt lat="45.35159" lon="5.74762">
        <ele>952.4</ele>
        <time>2021-12-19T09:07:33Z</time>
      </trkpt>
      <trkpt lat="45.35159" lon="5.74762">
        <ele>952.4</ele>
        <time>2021-12-19T09:07:34Z</time>
      </trkpt>
      <trkpt lat="45.35159" lon="5.74763">
        <ele>952.4</ele>
        <time>2021-12-19T09:07:35Z</time>
      </trkpt>
      <trkpt lat="45.35159" lon="5.74762">
        <ele>952.4</ele>
        <time>2021-12-19T09:07:36Z</time>
      </trkpt>
      <trkpt lat="45.35159" lon="5.74762">
        <ele>952.4</ele>
        <time>2021-12-19T09:07:37Z</time>
      </trkpt>
      <trkpt lat="45.35159" lon="5.74762">
        <ele>952.4</ele>
        <time>2021-12-19T09:07:38Z</time>
      </trkpt>
      <trkpt lat="45.35159" lon="5.74762">
        <ele>952.4</ele>
        <time>2021-12-19T09:07:39Z</time>
      </trkpt>
      <trkpt lat="45.35159" lon="5.74762">
        <ele>952.4</ele>
        <time>2021-12-19T09:07:40Z</time>
      </trkpt>
      <trkpt lat="45.35159" lon="5.74762">
        <ele>952.4</ele>
        <time>2021-12-19T09:07:41Z</time>
      </trkpt>
      <trkpt lat="45.35159" lon="5.74762">
        <ele>952.4</ele>
        <time>2021-12-19T09:07:42Z</time>
      </trkpt>
      <trkpt lat="45.35159" lon="5.74762">
        <ele>952.4</ele>
        <time>2021-12-19T09:07:43Z</time>
      </trkpt>
      <trkpt lat="45.35159" lon="5.74762">
        <ele>952.4</ele>
        <time>2021-12-19T09:07:44Z</time>
      </trkpt>
      <trkpt lat="45.35159" lon="5.74762">
        <ele>952.4</ele>
        <time>2021-12-19T09:07:45Z</time>
      </trkpt>
      <trkpt lat="45.35159" lon="5.74762">
        <ele>952.4</ele>
        <time>2021-12-19T09:07:46Z</time>
      </trkpt>
      <trkpt lat="45.35159" lon="5.74762">
        <ele>952.4</ele>
        <time>2021-12-19T09:07:47Z</time>
      </trkpt>
      <trkpt lat="45.35159" lon="5.74762">
        <ele>952.4</ele>
        <time>2021-12-19T09:07:48Z</time>
      </trkpt>
      <trkpt lat="45.35159" lon="5.74762">
        <ele>952.4</ele>
        <time>2021-12-19T09:07:49Z</time>
      </trkpt>
      <trkpt lat="45.35159" lon="5.74762">
        <ele>952.4</ele>
        <time>2021-12-19T09:07:50Z</time>
      </trkpt>
      <trkpt lat="45.35159" lon="5.74762">
        <ele>952.4</ele>
        <time>2021-12-19T09:07:51Z</time>
      </trkpt>
      <trkpt lat="45.35159" lon="5.74762">
        <ele>952.4</ele>
        <time>2021-12-19T09:07:52Z</time>
      </trkpt>
      <trkpt lat="45.35159" lon="5.74763">
        <ele>952.5</ele>
        <time>2021-12-19T09:07:53Z</time>
      </trkpt>
      <trkpt lat="45.3516" lon="5.74763">
        <ele>952.5</ele>
        <time>2021-12-19T09:07:54Z</time>
      </trkpt>
      <trkpt lat="45.3516" lon="5.74763">
        <ele>952.5</ele>
        <time>2021-12-19T09:07:55Z</time>
      </trkpt>
      <trkpt lat="45.3516" lon="5.74763">
        <ele>952.5</ele>
        <time>2021-12-19T09:07:56Z</time>
      </trkpt>
      <trkpt lat="45.3516" lon="5.74763">
        <ele>952.5</ele>
        <time>2021-12-19T09:07:57Z</time>
      </trkpt>
      <trkpt lat="45.3516" lon="5.74763">
        <ele>952.5</ele>
        <time>2021-12-19T09:07:58Z</time>
      </trkpt>
      <trkpt lat="45.3516" lon="5.74763">
        <ele>952.5</ele>
        <time>2021-12-19T09:07:59Z</time>
      </trkpt>
      <trkpt lat="45.3516" lon="5.74763">
        <ele>952.5</ele>
        <time>2021-12-19T09:08:00Z</time>
      </trkpt>
      <trkpt lat="45.3516" lon="5.74763">
        <ele>952.5</ele>
        <time>2021-12-19T09:08:01Z</time>
      </trkpt>
      <trkpt lat="45.3516" lon="5.74763">
        <ele>952.5</ele>
        <time>2021-12-19T09:08:02Z</time>
      </trkpt>
      <trkpt lat="45.3516" lon="5.74763">
        <ele>952.5</ele>
        <time>2021-12-19T09:08:03Z</time>
      </trkpt>
      <trkpt lat="45.3516" lon="5.74764">
        <ele>952.6</ele>
        <time>2021-12-19T09:08:04Z</time>
      </trkpt>
      <trkpt lat="45.3516" lon="5.74764">
        <ele>952.6</ele>
        <time>2021-12-19T09:08:05Z</time>
      </trkpt>
      <trkpt lat="45.3516" lon="5.74764">
        <ele>952.6</ele>
        <time>2021-12-19T09:08:06Z</time>
      </trkpt>
      <trkpt lat="45.3516" lon="5.74764">
        <ele>952.6</ele>
        <time>2021-12-19T09:08:07Z</time>
      </trkpt>
      <trkpt lat="45.35161" lon="5.74764">
        <ele>952.6</ele>
        <time>2021-12-19T09:08:08Z</time>
      </trkpt>
      <trkpt lat="45.3516" lon="5.74764">
        <ele>952.6</ele>
        <time>2021-12-19T09:08:09Z</time>
      </trkpt>
      <trkpt lat="45.3516" lon="5.74764">
        <ele>952.6</ele>
        <time>2021-12-19T09:08:10Z</time>
      </trkpt>
      <trkpt lat="45.3516" lon="5.74764">
        <ele>952.7</ele>
        <time>2021-12-19T09:08:11Z</time>
      </trkpt>
      <trkpt lat="45.3516" lon="5.74764">
        <ele>952.7</ele>
        <time>2021-12-19T09:08:12Z</time>
      </trkpt>
      <trkpt lat="45.3516" lon="5.74764">
        <ele>952.7</ele>
        <time>2021-12-19T09:08:13Z</time>
      </trkpt>
      <trkpt lat="45.3516" lon="5.74764">
        <ele>952.7</ele>
        <time>2021-12-19T09:08:14Z</time>
      </trkpt>
      <trkpt lat="45.3516" lon="5.74764">
        <ele>952.7</ele>
        <time>2021-12-19T09:08:15Z</time>
      </trkpt>
      <trkpt lat="45.3516" lon="5.74764">
        <ele>952.7</ele>
        <time>2021-12-19T09:08:16Z</time>
      </trkpt>
      <trkpt lat="45.35161" lon="5.74763">
        <ele>952.7</ele>
        <time>2021-12-19T09:08:17Z</time>
      </trkpt>
      <trkpt lat="45.35161" lon="5.74763">
        <ele>952.7</ele>
        <time>2021-12-19T09:08:18Z</time>
      </trkpt>
      <trkpt lat="45.35161" lon="5.74763">
        <ele>952.7</ele>
        <time>2021-12-19T09:08:19Z</time>
      </trkpt>
      <trkpt lat="45.3516" lon="5.74763">
        <ele>952.7</ele>
        <time>2021-12-19T09:08:20Z</time>
      </trkpt>
      <trkpt lat="45.3516" lon="5.74764">
        <ele>952.8</ele>
        <time>2021-12-19T09:08:21Z</time>
      </trkpt>
      <trkpt lat="45.3516" lon="5.74763">
        <ele>952.8</ele>
        <time>2021-12-19T09:08:22Z</time>
      </trkpt>
      <trkpt lat="45.3516" lon="5.74764">
        <ele>952.8</ele>
        <time>2021-12-19T09:08:23Z</time>
      </trkpt>
      <trkpt lat="45.3516" lon="5.74764">
        <ele>952.8</ele>
        <time>2021-12-19T09:08:24Z</time>
      </trkpt>
      <trkpt lat="45.35159" lon="5.74764">
        <ele>952.8</ele>
        <time>2021-12-19T09:08:25Z</time>
      </trkpt>
      <trkpt lat="45.35159" lon="5.74764">
        <ele>952.8</ele>
        <time>2021-12-19T09:08:26Z</time>
      </trkpt>
      <trkpt lat="45.35159" lon="5.74764">
        <ele>952.8</ele>
        <time>2021-12-19T09:08:27Z</time>
      </trkpt>
      <trkpt lat="45.35159" lon="5.74765">
        <ele>952.8</ele>
        <time>2021-12-19T09:08:28Z</time>
      </trkpt>
      <trkpt lat="45.35159" lon="5.74765">
        <ele>952.9</ele>
        <time>2021-12-19T09:08:29Z</time>
      </trkpt>
      <trkpt lat="45.35158" lon="5.74766">
        <ele>952.9</ele>
        <time>2021-12-19T09:08:30Z</time>
      </trkpt>
      <trkpt lat="45.35158" lon="5.74766">
        <ele>952.9</ele>
        <time>2021-12-19T09:08:31Z</time>
      </trkpt>
      <trkpt lat="45.35158" lon="5.74765">
        <ele>952.9</ele>
        <time>2021-12-19T09:08:32Z</time>
      </trkpt>
      <trkpt lat="45.35158" lon="5.74766">
        <ele>952.9</ele>
        <time>2021-12-19T09:08:33Z</time>
      </trkpt>
      <trkpt lat="45.35158" lon="5.74766">
        <ele>952.9</ele>
        <time>2021-12-19T09:08:34Z</time>
      </trkpt>
      <trkpt lat="45.35158" lon="5.74766">
        <ele>952.9</ele>
        <time>2021-12-19T09:08:35Z</time>
      </trkpt>
      <trkpt lat="45.35158" lon="5.74766">
        <ele>952.9</ele>
        <time>2021-12-19T09:08:36Z</time>
      </trkpt>
      <trkpt lat="45.35158" lon="5.74766">
        <ele>952.9</ele>
        <time>2021-12-19T09:08:37Z</time>
      </trkpt>
      <trkpt lat="45.35158" lon="5.74766">
        <ele>953</ele>
        <time>2021-12-19T09:08:38Z</time>
      </trkpt>
      <trkpt lat="45.35158" lon="5.74766">
        <ele>953</ele>
        <time>2021-12-19T09:08:39Z</time>
      </trkpt>
      <trkpt lat="45.35158" lon="5.74767">
        <ele>953</ele>
        <time>2021-12-19T09:08:40Z</time>
      </trkpt>
      <trkpt lat="45.35158" lon="5.74766">
        <ele>953</ele>
        <time>2021-12-19T09:08:41Z</time>
      </trkpt>
      <trkpt lat="45.35158" lon="5.74766">
        <ele>953</ele>
        <time>2021-12-19T09:08:42Z</time>
      </trkpt>
      <trkpt lat="45.35158" lon="5.74766">
        <ele>953</ele>
        <time>2021-12-19T09:08:43Z</time>
      </trkpt>
      <trkpt lat="45.35158" lon="5.74766">
        <ele>953</ele>
        <time>2021-12-19T09:08:44Z</time>
      </trkpt>
      <trkpt lat="45.35158" lon="5.74766">
        <ele>953</ele>
        <time>2021-12-19T09:08:45Z</time>
      </trkpt>
      <trkpt lat="45.35158" lon="5.74766">
        <ele>953</ele>
        <time>2021-12-19T09:08:46Z</time>
      </trkpt>
      <trkpt lat="45.35158" lon="5.74766">
        <ele>953</ele>
        <time>2021-12-19T09:08:47Z</time>
      </trkpt>
      <trkpt lat="45.35158" lon="5.74766">
        <ele>953</ele>
        <time>2021-12-19T09:08:48Z</time>
      </trkpt>
      <trkpt lat="45.35158" lon="5.74766">
        <ele>953</ele>
        <time>2021-12-19T09:08:49Z</time>
      </trkpt>
      <trkpt lat="45.35158" lon="5.74766">
        <ele>953</ele>
        <time>2021-12-19T09:08:50Z</time>
      </trkpt>
      <trkpt lat="45.35158" lon="5.74766">
        <ele>953.1</ele>
        <time>2021-12-19T09:08:51Z</time>
      </trkpt>
      <trkpt lat="45.35158" lon="5.74766">
        <ele>953.1</ele>
        <time>2021-12-19T09:08:52Z</time>
      </trkpt>
      <trkpt lat="45.35158" lon="5.74766">
        <ele>953.1</ele>
        <time>2021-12-19T09:08:53Z</time>
      </trkpt>
      <trkpt lat="45.35158" lon="5.74766">
        <ele>953.1</ele>
        <time>2021-12-19T09:08:54Z</time>
      </trkpt>
      <trkpt lat="45.35158" lon="5.74766">
        <ele>953.1</ele>
        <time>2021-12-19T09:08:55Z</time>
      </trkpt>
      <trkpt lat="45.35158" lon="5.74766">
        <ele>953.1</ele>
        <time>2021-12-19T09:08:56Z</time>
      </trkpt>
      <trkpt lat="45.35158" lon="5.74766">
        <ele>953.1</ele>
        <time>2021-12-19T09:08:57Z</time>
      </trkpt>
      <trkpt lat="45.35158" lon="5.74765">
        <ele>953.1</ele>
        <time>2021-12-19T09:08:58Z</time>
      </trkpt>
      <trkpt lat="45.35158" lon="5.74765">
        <ele>953.1</ele>
        <time>2021-12-19T09:08:59Z</time>
      </trkpt>
      <trkpt lat="45.35158" lon="5.74765">
        <ele>953.1</ele>
        <time>2021-12-19T09:09:00Z</time>
      </trkpt>
      <trkpt lat="45.35158" lon="5.74764">
        <ele>953.1</ele>
        <time>2021-12-19T09:09:01Z</time>
      </trkpt>
      <trkpt lat="45.35158" lon="5.74765">
        <ele>953.1</ele>
        <time>2021-12-19T09:09:02Z</time>
      </trkpt>
      <trkpt lat="45.35158" lon="5.74765">
        <ele>953.1</ele>
        <time>2021-12-19T09:09:03Z</time>
      </trkpt>
      <trkpt lat="45.35158" lon="5.74765">
        <ele>953.1</ele>
        <time>2021-12-19T09:09:04Z</time>
      </trkpt>
      <trkpt lat="45.35158" lon="5.74765">
        <ele>953.1</ele>
        <time>2021-12-19T09:09:05Z</time>
      </trkpt>
      <trkpt lat="45.35158" lon="5.74765">
        <ele>953.2</ele>
        <time>2021-12-19T09:09:06Z</time>
      </trkpt>
      <trkpt lat="45.35158" lon="5.74765">
        <ele>953.2</ele>
        <time>2021-12-19T09:09:07Z</time>
      </trkpt>
      <trkpt lat="45.35158" lon="5.74765">
        <ele>953.2</ele>
        <time>2021-12-19T09:09:08Z</time>
      </trkpt>
      <trkpt lat="45.35158" lon="5.74765">
        <ele>953.2</ele>
        <time>2021-12-19T09:09:09Z</time>
      </trkpt>
      <trkpt lat="45.35158" lon="5.74766">
        <ele>953.2</ele>
        <time>2021-12-19T09:09:10Z</time>
      </trkpt>
      <trkpt lat="45.35158" lon="5.74766">
        <ele>953.2</ele>
        <time>2021-12-19T09:09:11Z</time>
      </trkpt>
      <trkpt lat="45.35158" lon="5.74766">
        <ele>953.2</ele>
        <time>2021-12-19T09:09:12Z</time>
      </trkpt>
      <trkpt lat="45.35159" lon="5.74766">
        <ele>953.2</ele>
        <time>2021-12-19T09:09:13Z</time>
      </trkpt>
      <trkpt lat="45.35159" lon="5.74766">
        <ele>953.2</ele>
        <time>2021-12-19T09:09:14Z</time>
      </trkpt>
      <trkpt lat="45.35159" lon="5.74767">
        <ele>953.2</ele>
        <time>2021-12-19T09:09:15Z</time>
      </trkpt>
      <trkpt lat="45.35159" lon="5.74767">
        <ele>953.2</ele>
        <time>2021-12-19T09:09:16Z</time>
      </trkpt>
      <trkpt lat="45.35159" lon="5.74767">
        <ele>953.2</ele>
        <time>2021-12-19T09:09:17Z</time>
      </trkpt>
      <trkpt lat="45.35159" lon="5.74768">
        <ele>953.3</ele>
        <time>2021-12-19T09:09:18Z</time>
      </trkpt>
      <trkpt lat="45.35159" lon="5.74768">
        <ele>953.3</ele>
        <time>2021-12-19T09:09:19Z</time>
      </trkpt>
      <trkpt lat="45.35159" lon="5.74767">
        <ele>953.3</ele>
        <time>2021-12-19T09:09:20Z</time>
      </trkpt>
      <trkpt lat="45.35159" lon="5.74768">
        <ele>953.3</ele>
        <time>2021-12-19T09:09:21Z</time>
      </trkpt>
      <trkpt lat="45.35159" lon="5.74768">
        <ele>953.3</ele>
        <time>2021-12-19T09:09:22Z</time>
      </trkpt>
      <trkpt lat="45.35159" lon="5.74768">
        <ele>953.3</ele>
        <time>2021-12-19T09:09:23Z</time>
      </trkpt>
      <trkpt lat="45.35159" lon="5.74768">
        <ele>953.3</ele>
        <time>2021-12-19T09:09:24Z</time>
      </trkpt>
      <trkpt lat="45.35159" lon="5.74769">
        <ele>953.3</ele>
        <time>2021-12-19T09:09:25Z</time>
      </trkpt>
      <trkpt lat="45.35159" lon="5.74769">
        <ele>953.3</ele>
        <time>2021-12-19T09:09:26Z</time>
      </trkpt>
      <trkpt lat="45.35158" lon="5.74769">
        <ele>953.3</ele>
        <time>2021-12-19T09:09:27Z</time>
      </trkpt>
      <trkpt lat="45.35158" lon="5.74769">
        <ele>953.3</ele>
        <time>2021-12-19T09:09:28Z</time>
      </trkpt>
      <trkpt lat="45.35158" lon="5.74768">
        <ele>953.4</ele>
        <time>2021-12-19T09:09:29Z</time>
      </trkpt>
      <trkpt lat="45.35157" lon="5.74768">
        <ele>953.4</ele>
        <time>2021-12-19T09:09:30Z</time>
      </trkpt>
      <trkpt lat="45.35157" lon="5.74768">
        <ele>953.4</ele>
        <time>2021-12-19T09:09:31Z</time>
      </trkpt>
      <trkpt lat="45.35157" lon="5.74768">
        <ele>953.4</ele>
        <time>2021-12-19T09:09:32Z</time>
      </trkpt>
      <trkpt lat="45.35157" lon="5.74768">
        <ele>953.4</ele>
        <time>2021-12-19T09:09:33Z</time>
      </trkpt>
      <trkpt lat="45.35157" lon="5.74768">
        <ele>953.4</ele>
        <time>2021-12-19T09:09:34Z</time>
      </trkpt>
      <trkpt lat="45.35157" lon="5.74767">
        <ele>953.4</ele>
        <time>2021-12-19T09:09:35Z</time>
      </trkpt>
      <trkpt lat="45.35156" lon="5.74767">
        <ele>953.4</ele>
        <time>2021-12-19T09:09:36Z</time>
      </trkpt>
      <trkpt lat="45.35156" lon="5.74766">
        <ele>953.4</ele>
        <time>2021-12-19T09:09:37Z</time>
      </trkpt>
      <trkpt lat="45.35156" lon="5.74766">
        <ele>953.5</ele>
        <time>2021-12-19T09:09:38Z</time>
      </trkpt>
      <trkpt lat="45.35156" lon="5.74765">
        <ele>953.5</ele>
        <time>2021-12-19T09:09:39Z</time>
      </trkpt>
      <trkpt lat="45.35155" lon="5.74765">
        <ele>953.5</ele>
        <time>2021-12-19T09:09:40Z</time>
      </trkpt>
      <trkpt lat="45.35155" lon="5.74765">
        <ele>953.5</ele>
        <time>2021-12-19T09:09:41Z</time>
      </trkpt>
      <trkpt lat="45.35154" lon="5.74764">
        <ele>953.6</ele>
        <time>2021-12-19T09:09:42Z</time>
      </trkpt>
      <trkpt lat="45.35154" lon="5.74764">
        <ele>953.6</ele>
        <time>2021-12-19T09:09:43Z</time>
      </trkpt>
      <trkpt lat="45.35154" lon="5.74763">
        <ele>953.6</ele>
        <time>2021-12-19T09:09:44Z</time>
      </trkpt>
      <trkpt lat="45.35153" lon="5.74762">
        <ele>953.6</ele>
        <time>2021-12-19T09:09:45Z</time>
      </trkpt>
      <trkpt lat="45.35152" lon="5.74761">
        <ele>953.7</ele>
        <time>2021-12-19T09:09:46Z</time>
      </trkpt>
      <trkpt lat="45.35152" lon="5.74759">
        <ele>953.7</ele>
        <time>2021-12-19T09:09:47Z</time>
      </trkpt>
      <trkpt lat="45.35151" lon="5.74758">
        <ele>953.8</ele>
        <time>2021-12-19T09:09:48Z</time>
      </trkpt>
      <trkpt lat="45.35151" lon="5.74756">
        <ele>953.8</ele>
        <time>2021-12-19T09:09:49Z</time>
      </trkpt>
      <trkpt lat="45.3515" lon="5.74755">
        <ele>953.9</ele>
        <time>2021-12-19T09:09:50Z</time>
      </trkpt>
      <trkpt lat="45.35149" lon="5.74753">
        <ele>953.9</ele>
        <time>2021-12-19T09:09:51Z</time>
      </trkpt>
      <trkpt lat="45.35149" lon="5.74752">
        <ele>954</ele>
        <time>2021-12-19T09:09:52Z</time>
      </trkpt>
      <trkpt lat="45.35148" lon="5.7475">
        <ele>954</ele>
        <time>2021-12-19T09:09:53Z</time>
      </trkpt>
      <trkpt lat="45.35148" lon="5.74748">
        <ele>954.1</ele>
        <time>2021-12-19T09:09:54Z</time>
      </trkpt>
      <trkpt lat="45.35147" lon="5.74747">
        <ele>954.1</ele>
        <time>2021-12-19T09:09:55Z</time>
      </trkpt>
      <trkpt lat="45.35146" lon="5.74745">
        <ele>954.2</ele>
        <time>2021-12-19T09:09:56Z</time>
      </trkpt>
      <trkpt lat="45.35146" lon="5.74744">
        <ele>954.2</ele>
        <time>2021-12-19T09:09:57Z</time>
      </trkpt>
      <trkpt lat="45.35145" lon="5.74742">
        <ele>954.3</ele>
        <time>2021-12-19T09:09:58Z</time>
      </trkpt>
      <trkpt lat="45.35144" lon="5.74741">
        <ele>954.4</ele>
        <time>2021-12-19T09:09:59Z</time>
      </trkpt>
      <trkpt lat="45.35144" lon="5.74738">
        <ele>954.4</ele>
        <time>2021-12-19T09:10:00Z</time>
      </trkpt>
      <trkpt lat="45.35143" lon="5.74737">
        <ele>954.5</ele>
        <time>2021-12-19T09:10:01Z</time>
      </trkpt>
      <trkpt lat="45.35142" lon="5.74735">
        <ele>954.5</ele>
        <time>2021-12-19T09:10:02Z</time>
      </trkpt>
      <trkpt lat="45.35141" lon="5.74733">
        <ele>954.6</ele>
        <time>2021-12-19T09:10:03Z</time>
      </trkpt>
      <trkpt lat="45.35141" lon="5.74732">
        <ele>954.7</ele>
        <time>2021-12-19T09:10:04Z</time>
      </trkpt>
      <trkpt lat="45.35139" lon="5.74731">
        <ele>954.7</ele>
        <time>2021-12-19T09:10:05Z</time>
      </trkpt>
      <trkpt lat="45.35138" lon="5.7473">
        <ele>954.8</ele>
        <time>2021-12-19T09:10:06Z</time>
      </trkpt>
      <trkpt lat="45.35138" lon="5.74729">
        <ele>954.8</ele>
        <time>2021-12-19T09:10:07Z</time>
      </trkpt>
      <trkpt lat="45.35137" lon="5.74727">
        <ele>954.9</ele>
        <time>2021-12-19T09:10:08Z</time>
      </trkpt>
      <trkpt lat="45.35136" lon="5.74726">
        <ele>954.9</ele>
        <time>2021-12-19T09:10:09Z</time>
      </trkpt>
      <trkpt lat="45.35135" lon="5.74725">
        <ele>955</ele>
        <time>2021-12-19T09:10:10Z</time>
      </trkpt>
      <trkpt lat="45.35135" lon="5.74724">
        <ele>955</ele>
        <time>2021-12-19T09:10:11Z</time>
      </trkpt>
      <trkpt lat="45.35135" lon="5.74723">
        <ele>955.1</ele>
        <time>2021-12-19T09:10:12Z</time>
      </trkpt>
      <trkpt lat="45.35135" lon="5.74723">
        <ele>955.1</ele>
        <time>2021-12-19T09:10:13Z</time>
      </trkpt>
      <trkpt lat="45.35136" lon="5.74723">
        <ele>955.1</ele>
        <time>2021-12-19T09:10:14Z</time>
      </trkpt>
      <trkpt lat="45.35136" lon="5.74722">
        <ele>955.1</ele>
        <time>2021-12-19T09:10:15Z</time>
      </trkpt>
      <trkpt lat="45.35135" lon="5.74723">
        <ele>955.2</ele>
        <time>2021-12-19T09:10:16Z</time>
      </trkpt>
      <trkpt lat="45.35135" lon="5.74723">
        <ele>955.2</ele>
        <time>2021-12-19T09:10:17Z</time>
      </trkpt>
      <trkpt lat="45.35135" lon="5.74723">
        <ele>955.2</ele>
        <time>2021-12-19T09:10:18Z</time>
      </trkpt>
      <trkpt lat="45.35135" lon="5.74723">
        <ele>955.2</ele>
        <time>2021-12-19T09:10:19Z</time>
      </trkpt>
      <trkpt lat="45.35135" lon="5.74723">
        <ele>955.2</ele>
        <time>2021-12-19T09:10:20Z</time>
      </trkpt>
      <trkpt lat="45.35135" lon="5.74723">
        <ele>955.2</ele>
        <time>2021-12-19T09:10:21Z</time>
      </trkpt>
      <trkpt lat="45.35135" lon="5.74723">
        <ele>955.2</ele>
        <time>2021-12-19T09:10:22Z</time>
      </trkpt>
      <trkpt lat="45.35135" lon="5.74723">
        <ele>955.2</ele>
        <time>2021-12-19T09:10:23Z</time>
      </trkpt>
      <trkpt lat="45.35135" lon="5.74723">
        <ele>955.2</ele>
        <time>2021-12-19T09:10:24Z</time>
      </trkpt>
      <trkpt lat="45.35135" lon="5.74723">
        <ele>955.2</ele>
        <time>2021-12-19T09:10:25Z</time>
      </trkpt>
      <trkpt lat="45.35135" lon="5.74723">
        <ele>955.2</ele>
        <time>2021-12-19T09:10:26Z</time>
      </trkpt>
      <trkpt lat="45.35135" lon="5.74723">
        <ele>955.2</ele>
        <time>2021-12-19T09:10:27Z</time>
      </trkpt>
      <trkpt lat="45.35135" lon="5.74723">
        <ele>955.3</ele>
        <time>2021-12-19T09:10:28Z</time>
      </trkpt>
      <trkpt lat="45.35135" lon="5.74723">
        <ele>955.3</ele>
        <time>2021-12-19T09:10:29Z</time>
      </trkpt>
      <trkpt lat="45.35135" lon="5.74723">
        <ele>955.3</ele>
        <time>2021-12-19T09:10:30Z</time>
      </trkpt>
      <trkpt lat="45.35135" lon="5.74723">
        <ele>955.3</ele>
        <time>2021-12-19T09:10:31Z</time>
      </trkpt>
      <trkpt lat="45.35135" lon="5.74723">
        <ele>955.3</ele>
        <time>2021-12-19T09:10:32Z</time>
      </trkpt>
      <trkpt lat="45.35135" lon="5.74723">
        <ele>955.3</ele>
        <time>2021-12-19T09:10:33Z</time>
      </trkpt>
      <trkpt lat="45.35135" lon="5.74723">
        <ele>955.3</ele>
        <time>2021-12-19T09:10:34Z</time>
      </trkpt>
      <trkpt lat="45.35135" lon="5.74722">
        <ele>955.3</ele>
        <time>2021-12-19T09:10:35Z</time>
      </trkpt>
      <trkpt lat="45.35135" lon="5.74722">
        <ele>955.3</ele>
        <time>2021-12-19T09:10:36Z</time>
      </trkpt>
      <trkpt lat="45.35135" lon="5.74722">
        <ele>955.3</ele>
        <time>2021-12-19T09:10:37Z</time>
      </trkpt>
      <trkpt lat="45.35135" lon="5.74722">
        <ele>955.3</ele>
        <time>2021-12-19T09:10:38Z</time>
      </trkpt>
      <trkpt lat="45.35135" lon="5.74722">
        <ele>955.3</ele>
        <time>2021-12-19T09:10:39Z</time>
      </trkpt>
      <trkpt lat="45.35135" lon="5.74722">
        <ele>955.3</ele>
        <time>2021-12-19T09:10:40Z</time>
      </trkpt>
      <trkpt lat="45.35135" lon="5.74722">
        <ele>955.3</ele>
        <time>2021-12-19T09:10:41Z</time>
      </trkpt>
      <trkpt lat="45.35135" lon="5.74721">
        <ele>955.3</ele>
        <time>2021-12-19T09:10:42Z</time>
      </trkpt>
      <trkpt lat="45.35135" lon="5.74721">
        <ele>955.3</ele>
        <time>2021-12-19T09:10:43Z</time>
      </trkpt>
      <trkpt lat="45.35135" lon="5.7472">
        <ele>955.3</ele>
        <time>2021-12-19T09:10:44Z</time>
      </trkpt>
      <trkpt lat="45.35135" lon="5.7472">
        <ele>955.4</ele>
        <time>2021-12-19T09:10:45Z</time>
      </trkpt>
      <trkpt lat="45.35135" lon="5.7472">
        <ele>955.4</ele>
        <time>2021-12-19T09:10:46Z</time>
      </trkpt>
      <trkpt lat="45.35135" lon="5.7472">
        <ele>955.4</ele>
        <time>2021-12-19T09:10:47Z</time>
      </trkpt>
      <trkpt lat="45.35135" lon="5.7472">
        <ele>955.4</ele>
        <time>2021-12-19T09:10:48Z</time>
      </trkpt>
      <trkpt lat="45.35134" lon="5.7472">
        <ele>955.4</ele>
        <time>2021-12-19T09:10:49Z</time>
      </trkpt>
      <trkpt lat="45.35134" lon="5.7472">
        <ele>955.4</ele>
        <time>2021-12-19T09:10:50Z</time>
      </trkpt>
      <trkpt lat="45.35134" lon="5.7472">
        <ele>955.4</ele>
        <time>2021-12-19T09:10:51Z</time>
      </trkpt>
      <trkpt lat="45.35134" lon="5.7472">
        <ele>955.4</ele>
        <time>2021-12-19T09:10:52Z</time>
      </trkpt>
      <trkpt lat="45.35134" lon="5.7472">
        <ele>955.4</ele>
        <time>2021-12-19T09:10:53Z</time>
      </trkpt>
      <trkpt lat="45.35134" lon="5.7472">
        <ele>955.4</ele>
        <time>2021-12-19T09:10:54Z</time>
      </trkpt>
      <trkpt lat="45.35134" lon="5.7472">
        <ele>955.4</ele>
        <time>2021-12-19T09:10:55Z</time>
      </trkpt>
      <trkpt lat="45.35134" lon="5.7472">
        <ele>955.4</ele>
        <time>2021-12-19T09:10:56Z</time>
      </trkpt>
      <trkpt lat="45.35134" lon="5.7472">
        <ele>955.4</ele>
        <time>2021-12-19T09:10:57Z</time>
      </trkpt>
      <trkpt lat="45.35134" lon="5.7472">
        <ele>955.4</ele>
        <time>2021-12-19T09:10:58Z</time>
      </trkpt>
      <trkpt lat="45.35134" lon="5.7472">
        <ele>955.4</ele>
        <time>2021-12-19T09:10:59Z</time>
      </trkpt>
      <trkpt lat="45.35134" lon="5.7472">
        <ele>955.4</ele>
        <time>2021-12-19T09:11:00Z</time>
      </trkpt>
      <trkpt lat="45.35134" lon="5.7472">
        <ele>955.4</ele>
        <time>2021-12-19T09:11:01Z</time>
      </trkpt>
      <trkpt lat="45.35134" lon="5.7472">
        <ele>955.4</ele>
        <time>2021-12-19T09:11:02Z</time>
      </trkpt>
      <trkpt lat="45.35134" lon="5.7472">
        <ele>955.4</ele>
        <time>2021-12-19T09:11:03Z</time>
      </trkpt>
      <trkpt lat="45.35134" lon="5.7472">
        <ele>955.4</ele>
        <time>2021-12-19T09:11:04Z</time>
      </trkpt>
      <trkpt lat="45.35134" lon="5.7472">
        <ele>955.4</ele>
        <time>2021-12-19T09:11:05Z</time>
      </trkpt>
      <trkpt lat="45.35134" lon="5.74719">
        <ele>955.4</ele>
        <time>2021-12-19T09:11:06Z</time>
      </trkpt>
      <trkpt lat="45.35133" lon="5.74719">
        <ele>955.5</ele>
        <time>2021-12-19T09:11:07Z</time>
      </trkpt>
      <trkpt lat="45.35133" lon="5.74719">
        <ele>955.5</ele>
        <time>2021-12-19T09:11:08Z</time>
      </trkpt>
      <trkpt lat="45.35133" lon="5.74718">
        <ele>955.5</ele>
        <time>2021-12-19T09:11:09Z</time>
      </trkpt>
      <trkpt lat="45.35133" lon="5.74718">
        <ele>955.5</ele>
        <time>2021-12-19T09:11:10Z</time>
      </trkpt>
      <trkpt lat="45.35133" lon="5.74718">
        <ele>955.5</ele>
        <time>2021-12-19T09:11:11Z</time>
      </trkpt>
      <trkpt lat="45.35133" lon="5.74717">
        <ele>955.6</ele>
        <time>2021-12-19T09:11:12Z</time>
      </trkpt>
      <trkpt lat="45.35133" lon="5.74717">
        <ele>955.6</ele>
        <time>2021-12-19T09:11:13Z</time>
      </trkpt>
      <trkpt lat="45.35133" lon="5.74717">
        <ele>955.6</ele>
        <time>2021-12-19T09:11:14Z</time>
      </trkpt>
      <trkpt lat="45.35133" lon="5.74717">
        <ele>955.6</ele>
        <time>2021-12-19T09:11:15Z</time>
      </trkpt>
      <trkpt lat="45.35132" lon="5.74718">
        <ele>955.6</ele>
        <time>2021-12-19T09:11:16Z</time>
      </trkpt>
      <trkpt lat="45.35132" lon="5.74717">
        <ele>955.6</ele>
        <time>2021-12-19T09:11:17Z</time>
      </trkpt>
      <trkpt lat="45.35132" lon="5.74717">
        <ele>955.6</ele>
        <time>2021-12-19T09:11:18Z</time>
      </trkpt>
      <trkpt lat="45.35132" lon="5.74717">
        <ele>955.6</ele>
        <time>2021-12-19T09:11:19Z</time>
      </trkpt>
      <trkpt lat="45.35132" lon="5.74717">
        <ele>955.6</ele>
        <time>2021-12-19T09:11:20Z</time>
      </trkpt>
      <trkpt lat="45.35132" lon="5.74717">
        <ele>955.6</ele>
        <time>2021-12-19T09:11:21Z</time>
      </trkpt>
      <trkpt lat="45.35132" lon="5.74717">
        <ele>955.6</ele>
        <time>2021-12-19T09:11:22Z</time>
      </trkpt>
      <trkpt lat="45.35132" lon="5.74717">
        <ele>955.6</ele>
        <time>2021-12-19T09:11:23Z</time>
      </trkpt>
      <trkpt lat="45.35132" lon="5.74718">
        <ele>955.7</ele>
        <time>2021-12-19T09:11:24Z</time>
      </trkpt>
      <trkpt lat="45.35132" lon="5.74718">
        <ele>955.7</ele>
        <time>2021-12-19T09:11:25Z</time>
      </trkpt>
      <trkpt lat="45.35132" lon="5.74718">
        <ele>955.7</ele>
        <time>2021-12-19T09:11:26Z</time>
      </trkpt>
      <trkpt lat="45.35132" lon="5.74718">
        <ele>955.7</ele>
        <time>2021-12-19T09:11:27Z</time>
      </trkpt>
      <trkpt lat="45.35132" lon="5.74718">
        <ele>955.7</ele>
        <time>2021-12-19T09:11:28Z</time>
      </trkpt>
      <trkpt lat="45.35132" lon="5.74718">
        <ele>955.7</ele>
        <time>2021-12-19T09:11:29Z</time>
      </trkpt>
      <trkpt lat="45.35132" lon="5.74718">
        <ele>955.7</ele>
        <time>2021-12-19T09:11:30Z</time>
      </trkpt>
      <trkpt lat="45.35132" lon="5.74718">
        <ele>955.7</ele>
        <time>2021-12-19T09:11:31Z</time>
      </trkpt>
      <trkpt lat="45.35132" lon="5.74718">
        <ele>955.7</ele>
        <time>2021-12-19T09:11:32Z</time>
      </trkpt>
      <trkpt lat="45.35132" lon="5.74718">
        <ele>955.7</ele>
        <time>2021-12-19T09:11:33Z</time>
      </trkpt>
      <trkpt lat="45.35132" lon="5.74718">
        <ele>955.7</ele>
        <time>2021-12-19T09:11:34Z</time>
      </trkpt>
      <trkpt lat="45.35132" lon="5.74718">
        <ele>955.7</ele>
        <time>2021-12-19T09:11:35Z</time>
      </trkpt>
      <trkpt lat="45.35132" lon="5.74718">
        <ele>955.7</ele>
        <time>2021-12-19T09:11:36Z</time>
      </trkpt>
      <trkpt lat="45.35132" lon="5.74718">
        <ele>955.7</ele>
        <time>2021-12-19T09:11:37Z</time>
      </trkpt>
      <trkpt lat="45.35132" lon="5.74718">
        <ele>955.7</ele>
        <time>2021-12-19T09:11:38Z</time>
      </trkpt>
      <trkpt lat="45.35132" lon="5.74718">
        <ele>955.7</ele>
        <time>2021-12-19T09:11:39Z</time>
      </trkpt>
      <trkpt lat="45.35132" lon="5.74717">
        <ele>955.8</ele>
        <time>2021-12-19T09:11:40Z</time>
      </trkpt>
      <trkpt lat="45.35132" lon="5.74717">
        <ele>955.8</ele>
        <time>2021-12-19T09:11:41Z</time>
      </trkpt>
      <trkpt lat="45.35132" lon="5.74717">
        <ele>955.8</ele>
        <time>2021-12-19T09:11:42Z</time>
      </trkpt>
      <trkpt lat="45.35132" lon="5.74717">
        <ele>955.8</ele>
        <time>2021-12-19T09:11:43Z</time>
      </trkpt>
      <trkpt lat="45.35132" lon="5.74716">
        <ele>955.8</ele>
        <time>2021-12-19T09:11:44Z</time>
      </trkpt>
      <trkpt lat="45.35132" lon="5.74716">
        <ele>955.8</ele>
        <time>2021-12-19T09:11:45Z</time>
      </trkpt>
      <trkpt lat="45.35132" lon="5.74716">
        <ele>955.8</ele>
        <time>2021-12-19T09:11:46Z</time>
      </trkpt>
      <trkpt lat="45.35132" lon="5.74716">
        <ele>955.8</ele>
        <time>2021-12-19T09:11:47Z</time>
      </trkpt>
      <trkpt lat="45.35132" lon="5.74716">
        <ele>955.8</ele>
        <time>2021-12-19T09:11:48Z</time>
      </trkpt>
      <trkpt lat="45.35132" lon="5.74716">
        <ele>955.8</ele>
        <time>2021-12-19T09:11:49Z</time>
      </trkpt>
      <trkpt lat="45.35132" lon="5.74716">
        <ele>955.8</ele>
        <time>2021-12-19T09:11:50Z</time>
      </trkpt>
      <trkpt lat="45.35132" lon="5.74716">
        <ele>955.8</ele>
        <time>2021-12-19T09:11:51Z</time>
      </trkpt>
      <trkpt lat="45.35132" lon="5.74715">
        <ele>955.8</ele>
        <time>2021-12-19T09:11:52Z</time>
      </trkpt>
      <trkpt lat="45.35132" lon="5.74715">
        <ele>955.8</ele>
        <time>2021-12-19T09:11:53Z</time>
      </trkpt>
      <trkpt lat="45.35132" lon="5.74715">
        <ele>955.8</ele>
        <time>2021-12-19T09:11:54Z</time>
      </trkpt>
      <trkpt lat="45.35132" lon="5.74715">
        <ele>955.9</ele>
        <time>2021-12-19T09:11:55Z</time>
      </trkpt>
      <trkpt lat="45.35132" lon="5.74714">
        <ele>955.9</ele>
        <time>2021-12-19T09:11:56Z</time>
      </trkpt>
      <trkpt lat="45.35132" lon="5.74714">
        <ele>955.9</ele>
        <time>2021-12-19T09:11:57Z</time>
      </trkpt>
      <trkpt lat="45.35131" lon="5.74713">
        <ele>955.9</ele>
        <time>2021-12-19T09:11:58Z</time>
      </trkpt>
      <trkpt lat="45.35131" lon="5.74714">
        <ele>956</ele>
        <time>2021-12-19T09:11:59Z</time>
      </trkpt>
      <trkpt lat="45.35132" lon="5.74712">
        <ele>956.1</ele>
        <time>2021-12-19T09:12:00Z</time>
      </trkpt>
      <trkpt lat="45.35131" lon="5.74711">
        <ele>956.1</ele>
        <time>2021-12-19T09:12:01Z</time>
      </trkpt>
      <trkpt lat="45.35131" lon="5.7471">
        <ele>956.2</ele>
        <time>2021-12-19T09:12:02Z</time>
      </trkpt>
      <trkpt lat="45.3513" lon="5.74709">
        <ele>956.2</ele>
        <time>2021-12-19T09:12:03Z</time>
      </trkpt>
      <trkpt lat="45.3513" lon="5.74709">
        <ele>956.2</ele>
        <time>2021-12-19T09:12:04Z</time>
      </trkpt>
      <trkpt lat="45.35129" lon="5.74707">
        <ele>956.3</ele>
        <time>2021-12-19T09:12:05Z</time>
      </trkpt>
      <trkpt lat="45.35128" lon="5.74706">
        <ele>956.4</ele>
        <time>2021-12-19T09:12:06Z</time>
      </trkpt>
      <trkpt lat="45.35127" lon="5.74705">
        <ele>956.4</ele>
        <time>2021-12-19T09:12:07Z</time>
      </trkpt>
      <trkpt lat="45.35127" lon="5.74704">
        <ele>956.5</ele>
        <time>2021-12-19T09:12:08Z</time>
      </trkpt>
      <trkpt lat="45.35126" lon="5.74704">
        <ele>956.5</ele>
        <time>2021-12-19T09:12:09Z</time>
      </trkpt>
      <trkpt lat="45.35125" lon="5.74703">
        <ele>956.6</ele>
        <time>2021-12-19T09:12:10Z</time>
      </trkpt>
      <trkpt lat="45.35124" lon="5.74703">
        <ele>956.6</ele>
        <time>2021-12-19T09:12:11Z</time>
      </trkpt>
      <trkpt lat="45.35123" lon="5.74702">
        <ele>956.7</ele>
        <time>2021-12-19T09:12:12Z</time>
      </trkpt>
      <trkpt lat="45.35123" lon="5.74701">
        <ele>956.7</ele>
        <time>2021-12-19T09:12:13Z</time>
      </trkpt>
      <trkpt lat="45.35122" lon="5.747">
        <ele>956.8</ele>
        <time>2021-12-19T09:12:14Z</time>
      </trkpt>
      <trkpt lat="45.35121" lon="5.74699">
        <ele>956.8</ele>
        <time>2021-12-19T09:12:15Z</time>
      </trkpt>
      <trkpt lat="45.35121" lon="5.74698">
        <ele>956.9</ele>
        <time>2021-12-19T09:12:16Z</time>
      </trkpt>
      <trkpt lat="45.3512" lon="5.74697">
        <ele>956.9</ele>
        <time>2021-12-19T09:12:17Z</time>
      </trkpt>
      <trkpt lat="45.3512" lon="5.74696">
        <ele>956.9</ele>
        <time>2021-12-19T09:12:18Z</time>
      </trkpt>
      <trkpt lat="45.35119" lon="5.74694">
        <ele>957</ele>
        <time>2021-12-19T09:12:19Z</time>
      </trkpt>
      <trkpt lat="45.35119" lon="5.74694">
        <ele>957.1</ele>
        <time>2021-12-19T09:12:20Z</time>
      </trkpt>
      <trkpt lat="45.35118" lon="5.74693">
        <ele>957.1</ele>
        <time>2021-12-19T09:12:21Z</time>
      </trkpt>
      <trkpt lat="45.35118" lon="5.74693">
        <ele>957.1</ele>
        <time>2021-12-19T09:12:22Z</time>
      </trkpt>
      <trkpt lat="45.35117" lon="5.74693">
        <ele>957.1</ele>
        <time>2021-12-19T09:12:23Z</time>
      </trkpt>
      <trkpt lat="45.35117" lon="5.74693">
        <ele>957.1</ele>
        <time>2021-12-19T09:12:24Z</time>
      </trkpt>
      <trkpt lat="45.35117" lon="5.74693">
        <ele>957.2</ele>
        <time>2021-12-19T09:12:25Z</time>
      </trkpt>
      <trkpt lat="45.35116" lon="5.74693">
        <ele>957.2</ele>
        <time>2021-12-19T09:12:26Z</time>
      </trkpt>
      <trkpt lat="45.35115" lon="5.74692">
        <ele>957.2</ele>
        <time>2021-12-19T09:12:27Z</time>
      </trkpt>
      <trkpt lat="45.35114" lon="5.74692">
        <ele>957.3</ele>
        <time>2021-12-19T09:12:28Z</time>
      </trkpt>
      <trkpt lat="45.35114" lon="5.74691">
        <ele>957.3</ele>
        <time>2021-12-19T09:12:29Z</time>
      </trkpt>
      <trkpt lat="45.35113" lon="5.7469">
        <ele>957.4</ele>
        <time>2021-12-19T09:12:30Z</time>
      </trkpt>
      <trkpt lat="45.35112" lon="5.74689">
        <ele>957.4</ele>
        <time>2021-12-19T09:12:31Z</time>
      </trkpt>
      <trkpt lat="45.35112" lon="5.74689">
        <ele>957.5</ele>
        <time>2021-12-19T09:12:32Z</time>
      </trkpt>
      <trkpt lat="45.35111" lon="5.74688">
        <ele>957.6</ele>
        <time>2021-12-19T09:12:33Z</time>
      </trkpt>
      <trkpt lat="45.3511" lon="5.74687">
        <ele>957.6</ele>
        <time>2021-12-19T09:12:34Z</time>
      </trkpt>
      <trkpt lat="45.35109" lon="5.74686">
        <ele>957.7</ele>
        <time>2021-12-19T09:12:35Z</time>
      </trkpt>
      <trkpt lat="45.35108" lon="5.74685">
        <ele>957.7</ele>
        <time>2021-12-19T09:12:36Z</time>
      </trkpt>
      <trkpt lat="45.35107" lon="5.74685">
        <ele>957.8</ele>
        <time>2021-12-19T09:12:37Z</time>
      </trkpt>
      <trkpt lat="45.35107" lon="5.74684">
        <ele>957.8</ele>
        <time>2021-12-19T09:12:38Z</time>
      </trkpt>
      <trkpt lat="45.35106" lon="5.74683">
        <ele>957.9</ele>
        <time>2021-12-19T09:12:39Z</time>
      </trkpt>
      <trkpt lat="45.35105" lon="5.74682">
        <ele>957.9</ele>
        <time>2021-12-19T09:12:40Z</time>
      </trkpt>
      <trkpt lat="45.35105" lon="5.74681">
        <ele>958</ele>
        <time>2021-12-19T09:12:41Z</time>
      </trkpt>
      <trkpt lat="45.35104" lon="5.7468">
        <ele>958.1</ele>
        <time>2021-12-19T09:12:42Z</time>
      </trkpt>
      <trkpt lat="45.35103" lon="5.74679">
        <ele>958.1</ele>
        <time>2021-12-19T09:12:43Z</time>
      </trkpt>
      <trkpt lat="45.35102" lon="5.74678">
        <ele>958.2</ele>
        <time>2021-12-19T09:12:44Z</time>
      </trkpt>
      <trkpt lat="45.35101" lon="5.74677">
        <ele>958.2</ele>
        <time>2021-12-19T09:12:45Z</time>
      </trkpt>
      <trkpt lat="45.35101" lon="5.74675">
        <ele>958.3</ele>
        <time>2021-12-19T09:12:46Z</time>
      </trkpt>
      <trkpt lat="45.351" lon="5.74674">
        <ele>958.4</ele>
        <time>2021-12-19T09:12:47Z</time>
      </trkpt>
      <trkpt lat="45.35099" lon="5.74674">
        <ele>958.4</ele>
        <time>2021-12-19T09:12:48Z</time>
      </trkpt>
      <trkpt lat="45.35098" lon="5.74673">
        <ele>958.5</ele>
        <time>2021-12-19T09:12:49Z</time>
      </trkpt>
      <trkpt lat="45.35098" lon="5.74672">
        <ele>958.5</ele>
        <time>2021-12-19T09:12:50Z</time>
      </trkpt>
      <trkpt lat="45.35097" lon="5.74671">
        <ele>958.6</ele>
        <time>2021-12-19T09:12:51Z</time>
      </trkpt>
      <trkpt lat="45.35096" lon="5.74671">
        <ele>958.7</ele>
        <time>2021-12-19T09:12:52Z</time>
      </trkpt>
      <trkpt lat="45.35096" lon="5.74669">
        <ele>958.7</ele>
        <time>2021-12-19T09:12:53Z</time>
      </trkpt>
      <trkpt lat="45.35095" lon="5.74669">
        <ele>958.8</ele>
        <time>2021-12-19T09:12:54Z</time>
      </trkpt>
      <trkpt lat="45.35094" lon="5.74668">
        <ele>958.8</ele>
        <time>2021-12-19T09:12:55Z</time>
      </trkpt>
      <trkpt lat="45.35093" lon="5.74668">
        <ele>958.9</ele>
        <time>2021-12-19T09:12:56Z</time>
      </trkpt>
      <trkpt lat="45.35093" lon="5.74667">
        <ele>958.9</ele>
        <time>2021-12-19T09:12:57Z</time>
      </trkpt>
      <trkpt lat="45.35092" lon="5.74666">
        <ele>959</ele>
        <time>2021-12-19T09:12:58Z</time>
      </trkpt>
      <trkpt lat="45.35091" lon="5.74666">
        <ele>959.1</ele>
        <time>2021-12-19T09:12:59Z</time>
      </trkpt>
      <trkpt lat="45.3509" lon="5.74665">
        <ele>959.1</ele>
        <time>2021-12-19T09:13:00Z</time>
      </trkpt>
      <trkpt lat="45.35089" lon="5.74664">
        <ele>959.2</ele>
        <time>2021-12-19T09:13:01Z</time>
      </trkpt>
      <trkpt lat="45.35088" lon="5.74664">
        <ele>959.2</ele>
        <time>2021-12-19T09:13:02Z</time>
      </trkpt>
      <trkpt lat="45.35088" lon="5.74663">
        <ele>959.3</ele>
        <time>2021-12-19T09:13:03Z</time>
      </trkpt>
      <trkpt lat="45.35087" lon="5.74662">
        <ele>959.3</ele>
        <time>2021-12-19T09:13:04Z</time>
      </trkpt>
      <trkpt lat="45.35086" lon="5.74662">
        <ele>959.4</ele>
        <time>2021-12-19T09:13:05Z</time>
      </trkpt>
      <trkpt lat="45.35085" lon="5.74661">
        <ele>959.5</ele>
        <time>2021-12-19T09:13:06Z</time>
      </trkpt>
      <trkpt lat="45.35084" lon="5.74661">
        <ele>959.5</ele>
        <time>2021-12-19T09:13:07Z</time>
      </trkpt>
      <trkpt lat="45.35083" lon="5.7466">
        <ele>959.6</ele>
        <time>2021-12-19T09:13:08Z</time>
      </trkpt>
      <trkpt lat="45.35083" lon="5.74659">
        <ele>959.6</ele>
        <time>2021-12-19T09:13:09Z</time>
      </trkpt>
      <trkpt lat="45.35082" lon="5.74658">
        <ele>959.7</ele>
        <time>2021-12-19T09:13:10Z</time>
      </trkpt>
      <trkpt lat="45.35081" lon="5.74657">
        <ele>959.8</ele>
        <time>2021-12-19T09:13:11Z</time>
      </trkpt>
      <trkpt lat="45.35081" lon="5.74656">
        <ele>959.8</ele>
        <time>2021-12-19T09:13:12Z</time>
      </trkpt>
      <trkpt lat="45.3508" lon="5.74654">
        <ele>959.9</ele>
        <time>2021-12-19T09:13:13Z</time>
      </trkpt>
      <trkpt lat="45.3508" lon="5.74653">
        <ele>959.9</ele>
        <time>2021-12-19T09:13:14Z</time>
      </trkpt>
      <trkpt lat="45.35079" lon="5.74652">
        <ele>960</ele>
        <time>2021-12-19T09:13:15Z</time>
      </trkpt>
      <trkpt lat="45.35078" lon="5.74651">
        <ele>960.1</ele>
        <time>2021-12-19T09:13:16Z</time>
      </trkpt>
      <trkpt lat="45.35078" lon="5.7465">
        <ele>960.1</ele>
        <time>2021-12-19T09:13:17Z</time>
      </trkpt>
      <trkpt lat="45.35077" lon="5.74648">
        <ele>960.2</ele>
        <time>2021-12-19T09:13:18Z</time>
      </trkpt>
      <trkpt lat="45.35076" lon="5.74647">
        <ele>960.3</ele>
        <time>2021-12-19T09:13:19Z</time>
      </trkpt>
      <trkpt lat="45.35076" lon="5.74646">
        <ele>960.3</ele>
        <time>2021-12-19T09:13:20Z</time>
      </trkpt>
      <trkpt lat="45.35075" lon="5.74645">
        <ele>960.4</ele>
        <time>2021-12-19T09:13:21Z</time>
      </trkpt>
      <trkpt lat="45.35074" lon="5.74645">
        <ele>960.5</ele>
        <time>2021-12-19T09:13:22Z</time>
      </trkpt>
      <trkpt lat="45.35074" lon="5.74644">
        <ele>960.5</ele>
        <time>2021-12-19T09:13:23Z</time>
      </trkpt>
      <trkpt lat="45.35072" lon="5.74644">
        <ele>960.6</ele>
        <time>2021-12-19T09:13:24Z</time>
      </trkpt>
      <trkpt lat="45.35071" lon="5.74643">
        <ele>960.6</ele>
        <time>2021-12-19T09:13:25Z</time>
      </trkpt>
      <trkpt lat="45.3507" lon="5.74642">
        <ele>960.7</ele>
        <time>2021-12-19T09:13:26Z</time>
      </trkpt>
      <trkpt lat="45.3507" lon="5.74641">
        <ele>960.8</ele>
        <time>2021-12-19T09:13:27Z</time>
      </trkpt>
      <trkpt lat="45.35069" lon="5.7464">
        <ele>960.8</ele>
        <time>2021-12-19T09:13:28Z</time>
      </trkpt>
      <trkpt lat="45.35068" lon="5.74639">
        <ele>960.9</ele>
        <time>2021-12-19T09:13:29Z</time>
      </trkpt>
      <trkpt lat="45.35068" lon="5.74638">
        <ele>961</ele>
        <time>2021-12-19T09:13:30Z</time>
      </trkpt>
      <trkpt lat="45.35067" lon="5.74637">
        <ele>961</ele>
        <time>2021-12-19T09:13:31Z</time>
      </trkpt>
      <trkpt lat="45.35066" lon="5.74637">
        <ele>961.1</ele>
        <time>2021-12-19T09:13:32Z</time>
      </trkpt>
      <trkpt lat="45.35065" lon="5.74636">
        <ele>961.1</ele>
        <time>2021-12-19T09:13:33Z</time>
      </trkpt>
      <trkpt lat="45.35065" lon="5.74635">
        <ele>961.2</ele>
        <time>2021-12-19T09:13:34Z</time>
      </trkpt>
      <trkpt lat="45.35064" lon="5.74634">
        <ele>961.2</ele>
        <time>2021-12-19T09:13:35Z</time>
      </trkpt>
      <trkpt lat="45.35064" lon="5.74634">
        <ele>961.3</ele>
        <time>2021-12-19T09:13:36Z</time>
      </trkpt>
      <trkpt lat="45.35063" lon="5.74633">
        <ele>961.3</ele>
        <time>2021-12-19T09:13:37Z</time>
      </trkpt>
      <trkpt lat="45.35062" lon="5.74633">
        <ele>961.4</ele>
        <time>2021-12-19T09:13:38Z</time>
      </trkpt>
      <trkpt lat="45.35061" lon="5.74632">
        <ele>961.4</ele>
        <time>2021-12-19T09:13:39Z</time>
      </trkpt>
      <trkpt lat="45.35061" lon="5.74631">
        <ele>961.5</ele>
        <time>2021-12-19T09:13:40Z</time>
      </trkpt>
      <trkpt lat="45.3506" lon="5.74631">
        <ele>961.5</ele>
        <time>2021-12-19T09:13:41Z</time>
      </trkpt>
      <trkpt lat="45.35059" lon="5.7463">
        <ele>961.6</ele>
        <time>2021-12-19T09:13:42Z</time>
      </trkpt>
      <trkpt lat="45.35059" lon="5.74629">
        <ele>961.7</ele>
        <time>2021-12-19T09:13:43Z</time>
      </trkpt>
      <trkpt lat="45.35058" lon="5.74628">
        <ele>961.7</ele>
        <time>2021-12-19T09:13:44Z</time>
      </trkpt>
      <trkpt lat="45.35057" lon="5.74628">
        <ele>961.8</ele>
        <time>2021-12-19T09:13:45Z</time>
      </trkpt>
      <trkpt lat="45.35057" lon="5.74627">
        <ele>961.8</ele>
        <time>2021-12-19T09:13:46Z</time>
      </trkpt>
      <trkpt lat="45.35056" lon="5.74626">
        <ele>961.9</ele>
        <time>2021-12-19T09:13:47Z</time>
      </trkpt>
      <trkpt lat="45.35055" lon="5.74625">
        <ele>961.9</ele>
        <time>2021-12-19T09:13:48Z</time>
      </trkpt>
      <trkpt lat="45.35054" lon="5.74625">
        <ele>962</ele>
        <time>2021-12-19T09:13:49Z</time>
      </trkpt>
      <trkpt lat="45.35054" lon="5.74623">
        <ele>962.1</ele>
        <time>2021-12-19T09:13:50Z</time>
      </trkpt>
      <trkpt lat="45.35053" lon="5.74622">
        <ele>962.2</ele>
        <time>2021-12-19T09:13:51Z</time>
      </trkpt>
      <trkpt lat="45.35052" lon="5.74622">
        <ele>962.2</ele>
        <time>2021-12-19T09:13:52Z</time>
      </trkpt>
      <trkpt lat="45.35051" lon="5.74621">
        <ele>962.3</ele>
        <time>2021-12-19T09:13:53Z</time>
      </trkpt>
      <trkpt lat="45.3505" lon="5.7462">
        <ele>962.4</ele>
        <time>2021-12-19T09:13:54Z</time>
      </trkpt>
      <trkpt lat="45.3505" lon="5.74619">
        <ele>962.4</ele>
        <time>2021-12-19T09:13:55Z</time>
      </trkpt>
      <trkpt lat="45.35049" lon="5.74618">
        <ele>962.5</ele>
        <time>2021-12-19T09:13:56Z</time>
      </trkpt>
      <trkpt lat="45.35048" lon="5.74617">
        <ele>962.6</ele>
        <time>2021-12-19T09:13:57Z</time>
      </trkpt>
      <trkpt lat="45.35048" lon="5.74616">
        <ele>962.6</ele>
        <time>2021-12-19T09:13:58Z</time>
      </trkpt>
      <trkpt lat="45.35047" lon="5.74614">
        <ele>962.7</ele>
        <time>2021-12-19T09:13:59Z</time>
      </trkpt>
      <trkpt lat="45.35046" lon="5.74614">
        <ele>962.8</ele>
        <time>2021-12-19T09:14:00Z</time>
      </trkpt>
      <trkpt lat="45.35045" lon="5.74613">
        <ele>962.9</ele>
        <time>2021-12-19T09:14:01Z</time>
      </trkpt>
      <trkpt lat="45.35044" lon="5.74612">
        <ele>962.9</ele>
        <time>2021-12-19T09:14:02Z</time>
      </trkpt>
      <trkpt lat="45.35043" lon="5.74612">
        <ele>963</ele>
        <time>2021-12-19T09:14:03Z</time>
      </trkpt>
      <trkpt lat="45.35042" lon="5.74611">
        <ele>963.1</ele>
        <time>2021-12-19T09:14:04Z</time>
      </trkpt>
      <trkpt lat="45.35041" lon="5.7461">
        <ele>963.2</ele>
        <time>2021-12-19T09:14:05Z</time>
      </trkpt>
      <trkpt lat="45.3504" lon="5.7461">
        <ele>963.2</ele>
        <time>2021-12-19T09:14:06Z</time>
      </trkpt>
      <trkpt lat="45.35039" lon="5.74609">
        <ele>963.3</ele>
        <time>2021-12-19T09:14:07Z</time>
      </trkpt>
      <trkpt lat="45.35038" lon="5.74609">
        <ele>963.4</ele>
        <time>2021-12-19T09:14:08Z</time>
      </trkpt>
      <trkpt lat="45.35037" lon="5.74608">
        <ele>963.5</ele>
        <time>2021-12-19T09:14:09Z</time>
      </trkpt>
      <trkpt lat="45.35036" lon="5.74608">
        <ele>963.5</ele>
        <time>2021-12-19T09:14:10Z</time>
      </trkpt>
      <trkpt lat="45.35035" lon="5.74608">
        <ele>963.6</ele>
        <time>2021-12-19T09:14:11Z</time>
      </trkpt>
      <trkpt lat="45.35034" lon="5.74607">
        <ele>963.7</ele>
        <time>2021-12-19T09:14:12Z</time>
      </trkpt>
      <trkpt lat="45.35033" lon="5.74607">
        <ele>963.7</ele>
        <time>2021-12-19T09:14:13Z</time>
      </trkpt>
      <trkpt lat="45.35032" lon="5.74606">
        <ele>963.8</ele>
        <time>2021-12-19T09:14:14Z</time>
      </trkpt>
      <trkpt lat="45.35031" lon="5.74605">
        <ele>963.8</ele>
        <time>2021-12-19T09:14:15Z</time>
      </trkpt>
      <trkpt lat="45.3503" lon="5.74605">
        <ele>963.9</ele>
        <time>2021-12-19T09:14:16Z</time>
      </trkpt>
      <trkpt lat="45.35029" lon="5.74605">
        <ele>964</ele>
        <time>2021-12-19T09:14:17Z</time>
      </trkpt>
      <trkpt lat="45.35028" lon="5.74605">
        <ele>964</ele>
        <time>2021-12-19T09:14:18Z</time>
      </trkpt>
      <trkpt lat="45.35027" lon="5.74604">
        <ele>964.1</ele>
        <time>2021-12-19T09:14:19Z</time>
      </trkpt>
      <trkpt lat="45.35026" lon="5.74604">
        <ele>964.1</ele>
        <time>2021-12-19T09:14:20Z</time>
      </trkpt>
      <trkpt lat="45.35026" lon="5.74603">
        <ele>964.2</ele>
        <time>2021-12-19T09:14:21Z</time>
      </trkpt>
      <trkpt lat="45.35025" lon="5.74602">
        <ele>964.2</ele>
        <time>2021-12-19T09:14:22Z</time>
      </trkpt>
      <trkpt lat="45.35024" lon="5.74601">
        <ele>964.3</ele>
        <time>2021-12-19T09:14:23Z</time>
      </trkpt>
      <trkpt lat="45.35023" lon="5.746">
        <ele>964.4</ele>
        <time>2021-12-19T09:14:24Z</time>
      </trkpt>
      <trkpt lat="45.35022" lon="5.746">
        <ele>964.4</ele>
        <time>2021-12-19T09:14:25Z</time>
      </trkpt>
      <trkpt lat="45.35021" lon="5.74599">
        <ele>964.4</ele>
        <time>2021-12-19T09:14:26Z</time>
      </trkpt>
      <trkpt lat="45.3502" lon="5.74599">
        <ele>964.5</ele>
        <time>2021-12-19T09:14:27Z</time>
      </trkpt>
      <trkpt lat="45.3502" lon="5.74598">
        <ele>964.5</ele>
        <time>2021-12-19T09:14:28Z</time>
      </trkpt>
      <trkpt lat="45.35019" lon="5.74597">
        <ele>964.6</ele>
        <time>2021-12-19T09:14:29Z</time>
      </trkpt>
      <trkpt lat="45.35018" lon="5.74597">
        <ele>964.6</ele>
        <time>2021-12-19T09:14:30Z</time>
      </trkpt>
      <trkpt lat="45.35018" lon="5.74596">
        <ele>964.7</ele>
        <time>2021-12-19T09:14:31Z</time>
      </trkpt>
      <trkpt lat="45.35017" lon="5.74595">
        <ele>964.6</ele>
        <time>2021-12-19T09:14:32Z</time>
      </trkpt>
      <trkpt lat="45.35016" lon="5.74594">
        <ele>964.7</ele>
        <time>2021-12-19T09:14:33Z</time>
      </trkpt>
      <trkpt lat="45.35015" lon="5.74593">
        <ele>964.7</ele>
        <time>2021-12-19T09:14:34Z</time>
      </trkpt>
      <trkpt lat="45.35015" lon="5.74592">
        <ele>964.8</ele>
        <time>2021-12-19T09:14:35Z</time>
      </trkpt>
      <trkpt lat="45.35014" lon="5.7459">
        <ele>964.7</ele>
        <time>2021-12-19T09:14:36Z</time>
      </trkpt>
      <trkpt lat="45.35013" lon="5.7459">
        <ele>964.8</ele>
        <time>2021-12-19T09:14:37Z</time>
      </trkpt>
      <trkpt lat="45.35012" lon="5.74589">
        <ele>964.8</ele>
        <time>2021-12-19T09:14:38Z</time>
      </trkpt>
      <trkpt lat="45.3501" lon="5.74589">
        <ele>964.9</ele>
        <time>2021-12-19T09:14:39Z</time>
      </trkpt>
      <trkpt lat="45.35009" lon="5.74588">
        <ele>965</ele>
        <time>2021-12-19T09:14:40Z</time>
      </trkpt>
      <trkpt lat="45.35008" lon="5.74587">
        <ele>964.9</ele>
        <time>2021-12-19T09:14:41Z</time>
      </trkpt>
      <trkpt lat="45.35007" lon="5.74587">
        <ele>964.9</ele>
        <time>2021-12-19T09:14:42Z</time>
      </trkpt>
      <trkpt lat="45.35007" lon="5.74587">
        <ele>965</ele>
        <time>2021-12-19T09:14:43Z</time>
      </trkpt>
      <trkpt lat="45.35006" lon="5.74586">
        <ele>965</ele>
        <time>2021-12-19T09:14:44Z</time>
      </trkpt>
      <trkpt lat="45.35005" lon="5.74585">
        <ele>965</ele>
        <time>2021-12-19T09:14:45Z</time>
      </trkpt>
      <trkpt lat="45.35004" lon="5.74585">
        <ele>965</ele>
        <time>2021-12-19T09:14:46Z</time>
      </trkpt>
      <trkpt lat="45.35003" lon="5.74584">
        <ele>965.1</ele>
        <time>2021-12-19T09:14:47Z</time>
      </trkpt>
      <trkpt lat="45.35003" lon="5.74583">
        <ele>965.1</ele>
        <time>2021-12-19T09:14:48Z</time>
      </trkpt>
      <trkpt lat="45.35002" lon="5.74582">
        <ele>965.2</ele>
        <time>2021-12-19T09:14:49Z</time>
      </trkpt>
      <trkpt lat="45.35001" lon="5.74582">
        <ele>965.2</ele>
        <time>2021-12-19T09:14:50Z</time>
      </trkpt>
      <trkpt lat="45.35" lon="5.74581">
        <ele>965.2</ele>
        <time>2021-12-19T09:14:51Z</time>
      </trkpt>
      <trkpt lat="45.34999" lon="5.7458">
        <ele>965.2</ele>
        <time>2021-12-19T09:14:52Z</time>
      </trkpt>
      <trkpt lat="45.34998" lon="5.7458">
        <ele>965.2</ele>
        <time>2021-12-19T09:14:53Z</time>
      </trkpt>
      <trkpt lat="45.34998" lon="5.74579">
        <ele>965.3</ele>
        <time>2021-12-19T09:14:54Z</time>
      </trkpt>
      <trkpt lat="45.34996" lon="5.74579">
        <ele>965.4</ele>
        <time>2021-12-19T09:14:55Z</time>
      </trkpt>
      <trkpt lat="45.34995" lon="5.74579">
        <ele>965.4</ele>
        <time>2021-12-19T09:14:56Z</time>
      </trkpt>
      <trkpt lat="45.34994" lon="5.74579">
        <ele>965.5</ele>
        <time>2021-12-19T09:14:57Z</time>
      </trkpt>
      <trkpt lat="45.34993" lon="5.74578">
        <ele>965.5</ele>
        <time>2021-12-19T09:14:58Z</time>
      </trkpt>
      <trkpt lat="45.34991" lon="5.74577">
        <ele>965.5</ele>
        <time>2021-12-19T09:14:59Z</time>
      </trkpt>
      <trkpt lat="45.34991" lon="5.74577">
        <ele>965.5</ele>
        <time>2021-12-19T09:15:00Z</time>
      </trkpt>
      <trkpt lat="45.3499" lon="5.74575">
        <ele>965.6</ele>
        <time>2021-12-19T09:15:01Z</time>
      </trkpt>
      <trkpt lat="45.34989" lon="5.74575">
        <ele>965.6</ele>
        <time>2021-12-19T09:15:02Z</time>
      </trkpt>
      <trkpt lat="45.34988" lon="5.74575">
        <ele>965.7</ele>
        <time>2021-12-19T09:15:03Z</time>
      </trkpt>
      <trkpt lat="45.34987" lon="5.74574">
        <ele>965.8</ele>
        <time>2021-12-19T09:15:04Z</time>
      </trkpt>
      <trkpt lat="45.34986" lon="5.74573">
        <ele>965.8</ele>
        <time>2021-12-19T09:15:05Z</time>
      </trkpt>
      <trkpt lat="45.34985" lon="5.74572">
        <ele>965.8</ele>
        <time>2021-12-19T09:15:06Z</time>
      </trkpt>
      <trkpt lat="45.34984" lon="5.74571">
        <ele>965.8</ele>
        <time>2021-12-19T09:15:07Z</time>
      </trkpt>
      <trkpt lat="45.34983" lon="5.74571">
        <ele>965.9</ele>
        <time>2021-12-19T09:15:08Z</time>
      </trkpt>
      <trkpt lat="45.34983" lon="5.7457">
        <ele>965.9</ele>
        <time>2021-12-19T09:15:09Z</time>
      </trkpt>
      <trkpt lat="45.34981" lon="5.74568">
        <ele>966</ele>
        <time>2021-12-19T09:15:10Z</time>
      </trkpt>
      <trkpt lat="45.3498" lon="5.74568">
        <ele>966</ele>
        <time>2021-12-19T09:15:11Z</time>
      </trkpt>
      <trkpt lat="45.34979" lon="5.74568">
        <ele>966</ele>
        <time>2021-12-19T09:15:12Z</time>
      </trkpt>
      <trkpt lat="45.34979" lon="5.74567">
        <ele>966.1</ele>
        <time>2021-12-19T09:15:13Z</time>
      </trkpt>
      <trkpt lat="45.34978" lon="5.74566">
        <ele>966.1</ele>
        <time>2021-12-19T09:15:14Z</time>
      </trkpt>
      <trkpt lat="45.34977" lon="5.74566">
        <ele>966.1</ele>
        <time>2021-12-19T09:15:15Z</time>
      </trkpt>
      <trkpt lat="45.34975" lon="5.74566">
        <ele>966.2</ele>
        <time>2021-12-19T09:15:16Z</time>
      </trkpt>
      <trkpt lat="45.34974" lon="5.74565">
        <ele>966.2</ele>
        <time>2021-12-19T09:15:17Z</time>
      </trkpt>
      <trkpt lat="45.34973" lon="5.74565">
        <ele>966.3</ele>
        <time>2021-12-19T09:15:18Z</time>
      </trkpt>
      <trkpt lat="45.34972" lon="5.74565">
        <ele>966.3</ele>
        <time>2021-12-19T09:15:19Z</time>
      </trkpt>
      <trkpt lat="45.34971" lon="5.74565">
        <ele>966.4</ele>
        <time>2021-12-19T09:15:20Z</time>
      </trkpt>
      <trkpt lat="45.3497" lon="5.74565">
        <ele>966.4</ele>
        <time>2021-12-19T09:15:21Z</time>
      </trkpt>
      <trkpt lat="45.34969" lon="5.74564">
        <ele>966.4</ele>
        <time>2021-12-19T09:15:22Z</time>
      </trkpt>
      <trkpt lat="45.34969" lon="5.74563">
        <ele>966.5</ele>
        <time>2021-12-19T09:15:23Z</time>
      </trkpt>
      <trkpt lat="45.34968" lon="5.74563">
        <ele>966.5</ele>
        <time>2021-12-19T09:15:24Z</time>
      </trkpt>
      <trkpt lat="45.34966" lon="5.74564">
        <ele>966.5</ele>
        <time>2021-12-19T09:15:25Z</time>
      </trkpt>
      <trkpt lat="45.34965" lon="5.74563">
        <ele>966.6</ele>
        <time>2021-12-19T09:15:26Z</time>
      </trkpt>
      <trkpt lat="45.34964" lon="5.74562">
        <ele>966.6</ele>
        <time>2021-12-19T09:15:27Z</time>
      </trkpt>
      <trkpt lat="45.34963" lon="5.74562">
        <ele>966.6</ele>
        <time>2021-12-19T09:15:28Z</time>
      </trkpt>
      <trkpt lat="45.34963" lon="5.7456">
        <ele>966.7</ele>
        <time>2021-12-19T09:15:29Z</time>
      </trkpt>
      <trkpt lat="45.34963" lon="5.74559">
        <ele>966.7</ele>
        <time>2021-12-19T09:15:30Z</time>
      </trkpt>
      <trkpt lat="45.34962" lon="5.74558">
        <ele>966.8</ele>
        <time>2021-12-19T09:15:31Z</time>
      </trkpt>
      <trkpt lat="45.34961" lon="5.74557">
        <ele>966.8</ele>
        <time>2021-12-19T09:15:32Z</time>
      </trkpt>
      <trkpt lat="45.3496" lon="5.74557">
        <ele>966.9</ele>
        <time>2021-12-19T09:15:33Z</time>
      </trkpt>
      <trkpt lat="45.34959" lon="5.74556">
        <ele>966.9</ele>
        <time>2021-12-19T09:15:34Z</time>
      </trkpt>
      <trkpt lat="45.34959" lon="5.74555">
        <ele>966.9</ele>
        <time>2021-12-19T09:15:35Z</time>
      </trkpt>
      <trkpt lat="45.34958" lon="5.74554">
        <ele>967</ele>
        <time>2021-12-19T09:15:36Z</time>
      </trkpt>
      <trkpt lat="45.34958" lon="5.74554">
        <ele>967</ele>
        <time>2021-12-19T09:15:37Z</time>
      </trkpt>
      <trkpt lat="45.34957" lon="5.74553">
        <ele>966.9</ele>
        <time>2021-12-19T09:15:38Z</time>
      </trkpt>
      <trkpt lat="45.34957" lon="5.74552">
        <ele>967</ele>
        <time>2021-12-19T09:15:39Z</time>
      </trkpt>
      <trkpt lat="45.34956" lon="5.74551">
        <ele>967</ele>
        <time>2021-12-19T09:15:40Z</time>
      </trkpt>
      <trkpt lat="45.34956" lon="5.7455">
        <ele>967.1</ele>
        <time>2021-12-19T09:15:41Z</time>
      </trkpt>
      <trkpt lat="45.34955" lon="5.74549">
        <ele>967.2</ele>
        <time>2021-12-19T09:15:42Z</time>
      </trkpt>
      <trkpt lat="45.34954" lon="5.74548">
        <ele>967.2</ele>
        <time>2021-12-19T09:15:43Z</time>
      </trkpt>
      <trkpt lat="45.34954" lon="5.74547">
        <ele>967.2</ele>
        <time>2021-12-19T09:15:44Z</time>
      </trkpt>
      <trkpt lat="45.34953" lon="5.74547">
        <ele>967.2</ele>
        <time>2021-12-19T09:15:45Z</time>
      </trkpt>
      <trkpt lat="45.34952" lon="5.74546">
        <ele>967.3</ele>
        <time>2021-12-19T09:15:46Z</time>
      </trkpt>
      <trkpt lat="45.34951" lon="5.74545">
        <ele>967.3</ele>
        <time>2021-12-19T09:15:47Z</time>
      </trkpt>
      <trkpt lat="45.34951" lon="5.74544">
        <ele>967.4</ele>
        <time>2021-12-19T09:15:48Z</time>
      </trkpt>
      <trkpt lat="45.3495" lon="5.74544">
        <ele>967.4</ele>
        <time>2021-12-19T09:15:49Z</time>
      </trkpt>
      <trkpt lat="45.34949" lon="5.74543">
        <ele>967.4</ele>
        <time>2021-12-19T09:15:50Z</time>
      </trkpt>
      <trkpt lat="45.34948" lon="5.74541">
        <ele>967.5</ele>
        <time>2021-12-19T09:15:51Z</time>
      </trkpt>
      <trkpt lat="45.34947" lon="5.7454">
        <ele>967.5</ele>
        <time>2021-12-19T09:15:52Z</time>
      </trkpt>
      <trkpt lat="45.34946" lon="5.7454">
        <ele>967.6</ele>
        <time>2021-12-19T09:15:53Z</time>
      </trkpt>
      <trkpt lat="45.34945" lon="5.7454">
        <ele>967.6</ele>
        <time>2021-12-19T09:15:54Z</time>
      </trkpt>
      <trkpt lat="45.34945" lon="5.74539">
        <ele>967.7</ele>
        <time>2021-12-19T09:15:55Z</time>
      </trkpt>
      <trkpt lat="45.34944" lon="5.74538">
        <ele>967.7</ele>
        <time>2021-12-19T09:15:56Z</time>
      </trkpt>
      <trkpt lat="45.34943" lon="5.74537">
        <ele>967.8</ele>
        <time>2021-12-19T09:15:57Z</time>
      </trkpt>
      <trkpt lat="45.34943" lon="5.74536">
        <ele>967.7</ele>
        <time>2021-12-19T09:15:58Z</time>
      </trkpt>
      <trkpt lat="45.34942" lon="5.74535">
        <ele>967.8</ele>
        <time>2021-12-19T09:15:59Z</time>
      </trkpt>
      <trkpt lat="45.34941" lon="5.74534">
        <ele>967.8</ele>
        <time>2021-12-19T09:16:00Z</time>
      </trkpt>
      <trkpt lat="45.34941" lon="5.74533">
        <ele>967.9</ele>
        <time>2021-12-19T09:16:01Z</time>
      </trkpt>
      <trkpt lat="45.3494" lon="5.74532">
        <ele>967.9</ele>
        <time>2021-12-19T09:16:02Z</time>
      </trkpt>
      <trkpt lat="45.3494" lon="5.74531">
        <ele>967.9</ele>
        <time>2021-12-19T09:16:03Z</time>
      </trkpt>
      <trkpt lat="45.34939" lon="5.7453">
        <ele>968</ele>
        <time>2021-12-19T09:16:04Z</time>
      </trkpt>
      <trkpt lat="45.34938" lon="5.7453">
        <ele>968</ele>
        <time>2021-12-19T09:16:05Z</time>
      </trkpt>
      <trkpt lat="45.34937" lon="5.74529">
        <ele>968</ele>
        <time>2021-12-19T09:16:06Z</time>
      </trkpt>
      <trkpt lat="45.34936" lon="5.74528">
        <ele>968.1</ele>
        <time>2021-12-19T09:16:07Z</time>
      </trkpt>
      <trkpt lat="45.34935" lon="5.74527">
        <ele>968.1</ele>
        <time>2021-12-19T09:16:08Z</time>
      </trkpt>
      <trkpt lat="45.34934" lon="5.74526">
        <ele>968.2</ele>
        <time>2021-12-19T09:16:09Z</time>
      </trkpt>
      <trkpt lat="45.34933" lon="5.74525">
        <ele>968.3</ele>
        <time>2021-12-19T09:16:10Z</time>
      </trkpt>
      <trkpt lat="45.34932" lon="5.74524">
        <ele>968.3</ele>
        <time>2021-12-19T09:16:11Z</time>
      </trkpt>
      <trkpt lat="45.34932" lon="5.74523">
        <ele>968.4</ele>
        <time>2021-12-19T09:16:12Z</time>
      </trkpt>
      <trkpt lat="45.34931" lon="5.74523">
        <ele>968.4</ele>
        <time>2021-12-19T09:16:13Z</time>
      </trkpt>
      <trkpt lat="45.3493" lon="5.74521">
        <ele>968.5</ele>
        <time>2021-12-19T09:16:14Z</time>
      </trkpt>
      <trkpt lat="45.3493" lon="5.7452">
        <ele>968.5</ele>
        <time>2021-12-19T09:16:15Z</time>
      </trkpt>
      <trkpt lat="45.34929" lon="5.74519">
        <ele>968.6</ele>
        <time>2021-12-19T09:16:16Z</time>
      </trkpt>
      <trkpt lat="45.34929" lon="5.74517">
        <ele>968.7</ele>
        <time>2021-12-19T09:16:17Z</time>
      </trkpt>
      <trkpt lat="45.34928" lon="5.74516">
        <ele>968.7</ele>
        <time>2021-12-19T09:16:18Z</time>
      </trkpt>
      <trkpt lat="45.34928" lon="5.74514">
        <ele>968.8</ele>
        <time>2021-12-19T09:16:19Z</time>
      </trkpt>
      <trkpt lat="45.34927" lon="5.74513">
        <ele>968.9</ele>
        <time>2021-12-19T09:16:20Z</time>
      </trkpt>
      <trkpt lat="45.34927" lon="5.74511">
        <ele>968.9</ele>
        <time>2021-12-19T09:16:21Z</time>
      </trkpt>
      <trkpt lat="45.34926" lon="5.7451">
        <ele>969</ele>
        <time>2021-12-19T09:16:22Z</time>
      </trkpt>
      <trkpt lat="45.34925" lon="5.74508">
        <ele>969.1</ele>
        <time>2021-12-19T09:16:23Z</time>
      </trkpt>
      <trkpt lat="45.34925" lon="5.74507">
        <ele>969.1</ele>
        <time>2021-12-19T09:16:24Z</time>
      </trkpt>
      <trkpt lat="45.34924" lon="5.74505">
        <ele>969.2</ele>
        <time>2021-12-19T09:16:25Z</time>
      </trkpt>
      <trkpt lat="45.34924" lon="5.74504">
        <ele>969.3</ele>
        <time>2021-12-19T09:16:26Z</time>
      </trkpt>
      <trkpt lat="45.34923" lon="5.74502">
        <ele>969.3</ele>
        <time>2021-12-19T09:16:27Z</time>
      </trkpt>
      <trkpt lat="45.34922" lon="5.74501">
        <ele>969.4</ele>
        <time>2021-12-19T09:16:28Z</time>
      </trkpt>
      <trkpt lat="45.34921" lon="5.745">
        <ele>969.5</ele>
        <time>2021-12-19T09:16:29Z</time>
      </trkpt>
      <trkpt lat="45.3492" lon="5.74499">
        <ele>969.5</ele>
        <time>2021-12-19T09:16:30Z</time>
      </trkpt>
      <trkpt lat="45.34919" lon="5.74498">
        <ele>969.6</ele>
        <time>2021-12-19T09:16:31Z</time>
      </trkpt>
      <trkpt lat="45.34918" lon="5.74497">
        <ele>969.6</ele>
        <time>2021-12-19T09:16:32Z</time>
      </trkpt>
      <trkpt lat="45.34918" lon="5.74495">
        <ele>969.7</ele>
        <time>2021-12-19T09:16:33Z</time>
      </trkpt>
      <trkpt lat="45.34917" lon="5.74495">
        <ele>969.8</ele>
        <time>2021-12-19T09:16:34Z</time>
      </trkpt>
      <trkpt lat="45.34916" lon="5.74494">
        <ele>969.8</ele>
        <time>2021-12-19T09:16:35Z</time>
      </trkpt>
      <trkpt lat="45.34915" lon="5.74492">
        <ele>969.9</ele>
        <time>2021-12-19T09:16:36Z</time>
      </trkpt>
      <trkpt lat="45.34915" lon="5.74491">
        <ele>969.9</ele>
        <time>2021-12-19T09:16:37Z</time>
      </trkpt>
      <trkpt lat="45.34914" lon="5.7449">
        <ele>970</ele>
        <time>2021-12-19T09:16:38Z</time>
      </trkpt>
      <trkpt lat="45.34913" lon="5.74489">
        <ele>970</ele>
        <time>2021-12-19T09:16:39Z</time>
      </trkpt>
      <trkpt lat="45.34913" lon="5.74488">
        <ele>970</ele>
        <time>2021-12-19T09:16:40Z</time>
      </trkpt>
      <trkpt lat="45.34912" lon="5.74487">
        <ele>970.1</ele>
        <time>2021-12-19T09:16:41Z</time>
      </trkpt>
      <trkpt lat="45.34912" lon="5.74485">
        <ele>970.1</ele>
        <time>2021-12-19T09:16:42Z</time>
      </trkpt>
      <trkpt lat="45.34911" lon="5.74484">
        <ele>970.2</ele>
        <time>2021-12-19T09:16:43Z</time>
      </trkpt>
      <trkpt lat="45.3491" lon="5.74484">
        <ele>970.2</ele>
        <time>2021-12-19T09:16:44Z</time>
      </trkpt>
      <trkpt lat="45.34909" lon="5.74483">
        <ele>970.3</ele>
        <time>2021-12-19T09:16:45Z</time>
      </trkpt>
      <trkpt lat="45.34908" lon="5.74481">
        <ele>970.3</ele>
        <time>2021-12-19T09:16:46Z</time>
      </trkpt>
      <trkpt lat="45.34908" lon="5.7448">
        <ele>970.4</ele>
        <time>2021-12-19T09:16:47Z</time>
      </trkpt>
      <trkpt lat="45.34907" lon="5.74478">
        <ele>970.4</ele>
        <time>2021-12-19T09:16:48Z</time>
      </trkpt>
      <trkpt lat="45.34906" lon="5.74478">
        <ele>970.5</ele>
        <time>2021-12-19T09:16:49Z</time>
      </trkpt>
      <trkpt lat="45.34905" lon="5.74477">
        <ele>970.5</ele>
        <time>2021-12-19T09:16:50Z</time>
      </trkpt>
      <trkpt lat="45.34904" lon="5.74476">
        <ele>970.5</ele>
        <time>2021-12-19T09:16:51Z</time>
      </trkpt>
      <trkpt lat="45.34904" lon="5.74476">
        <ele>970.5</ele>
        <time>2021-12-19T09:16:52Z</time>
      </trkpt>
      <trkpt lat="45.34904" lon="5.74475">
        <ele>970.5</ele>
        <time>2021-12-19T09:16:53Z</time>
      </trkpt>
      <trkpt lat="45.34904" lon="5.74475">
        <ele>970.6</ele>
        <time>2021-12-19T09:16:54Z</time>
      </trkpt>
      <trkpt lat="45.34903" lon="5.74475">
        <ele>970.6</ele>
        <time>2021-12-19T09:16:55Z</time>
      </trkpt>
      <trkpt lat="45.34903" lon="5.74475">
        <ele>970.6</ele>
        <time>2021-12-19T09:16:56Z</time>
      </trkpt>
      <trkpt lat="45.34903" lon="5.74474">
        <ele>970.6</ele>
        <time>2021-12-19T09:16:57Z</time>
      </trkpt>
      <trkpt lat="45.34903" lon="5.74474">
        <ele>970.6</ele>
        <time>2021-12-19T09:16:58Z</time>
      </trkpt>
      <trkpt lat="45.34903" lon="5.74473">
        <ele>970.6</ele>
        <time>2021-12-19T09:16:59Z</time>
      </trkpt>
      <trkpt lat="45.34903" lon="5.74472">
        <ele>970.6</ele>
        <time>2021-12-19T09:17:00Z</time>
      </trkpt>
      <trkpt lat="45.34903" lon="5.74471">
        <ele>970.7</ele>
        <time>2021-12-19T09:17:01Z</time>
      </trkpt>
      <trkpt lat="45.34904" lon="5.74471">
        <ele>970.7</ele>
        <time>2021-12-19T09:17:02Z</time>
      </trkpt>
      <trkpt lat="45.34903" lon="5.74472">
        <ele>970.7</ele>
        <time>2021-12-19T09:17:03Z</time>
      </trkpt>
      <trkpt lat="45.34903" lon="5.74472">
        <ele>970.7</ele>
        <time>2021-12-19T09:17:04Z</time>
      </trkpt>
      <trkpt lat="45.34903" lon="5.74473">
        <ele>970.7</ele>
        <time>2021-12-19T09:17:05Z</time>
      </trkpt>
      <trkpt lat="45.34903" lon="5.74473">
        <ele>970.7</ele>
        <time>2021-12-19T09:17:06Z</time>
      </trkpt>
      <trkpt lat="45.34904" lon="5.74472">
        <ele>970.7</ele>
        <time>2021-12-19T09:17:07Z</time>
      </trkpt>
      <trkpt lat="45.34904" lon="5.74472">
        <ele>970.7</ele>
        <time>2021-12-19T09:17:08Z</time>
      </trkpt>
      <trkpt lat="45.34904" lon="5.74472">
        <ele>970.7</ele>
        <time>2021-12-19T09:17:09Z</time>
      </trkpt>
      <trkpt lat="45.34904" lon="5.74472">
        <ele>970.7</ele>
        <time>2021-12-19T09:17:10Z</time>
      </trkpt>
      <trkpt lat="45.34904" lon="5.74472">
        <ele>970.7</ele>
        <time>2021-12-19T09:17:11Z</time>
      </trkpt>
      <trkpt lat="45.34904" lon="5.74472">
        <ele>970.7</ele>
        <time>2021-12-19T09:17:12Z</time>
      </trkpt>
      <trkpt lat="45.34904" lon="5.74472">
        <ele>970.8</ele>
        <time>2021-12-19T09:17:13Z</time>
      </trkpt>
      <trkpt lat="45.34904" lon="5.74472">
        <ele>970.8</ele>
        <time>2021-12-19T09:17:14Z</time>
      </trkpt>
      <trkpt lat="45.34904" lon="5.74472">
        <ele>970.8</ele>
        <time>2021-12-19T09:17:15Z</time>
      </trkpt>
      <trkpt lat="45.34904" lon="5.74472">
        <ele>970.8</ele>
        <time>2021-12-19T09:17:16Z</time>
      </trkpt>
      <trkpt lat="45.34904" lon="5.74472">
        <ele>970.8</ele>
        <time>2021-12-19T09:17:17Z</time>
      </trkpt>
      <trkpt lat="45.34904" lon="5.74472">
        <ele>970.8</ele>
        <time>2021-12-19T09:17:18Z</time>
      </trkpt>
      <trkpt lat="45.34904" lon="5.74472">
        <ele>970.8</ele>
        <time>2021-12-19T09:17:19Z</time>
      </trkpt>
      <trkpt lat="45.34904" lon="5.74472">
        <ele>970.8</ele>
        <time>2021-12-19T09:17:20Z</time>
      </trkpt>
      <trkpt lat="45.34904" lon="5.74472">
        <ele>970.8</ele>
        <time>2021-12-19T09:17:21Z</time>
      </trkpt>
      <trkpt lat="45.34904" lon="5.74472">
        <ele>970.8</ele>
        <time>2021-12-19T09:17:22Z</time>
      </trkpt>
      <trkpt lat="45.34904" lon="5.74472">
        <ele>970.8</ele>
        <time>2021-12-19T09:17:23Z</time>
      </trkpt>
      <trkpt lat="45.34904" lon="5.74472">
        <ele>970.8</ele>
        <time>2021-12-19T09:17:24Z</time>
      </trkpt>
      <trkpt lat="45.34903" lon="5.74472">
        <ele>970.9</ele>
        <time>2021-12-19T09:17:25Z</time>
      </trkpt>
      <trkpt lat="45.34903" lon="5.74472">
        <ele>970.9</ele>
        <time>2021-12-19T09:17:26Z</time>
      </trkpt>
      <trkpt lat="45.34903" lon="5.74472">
        <ele>970.9</ele>
        <time>2021-12-19T09:17:27Z</time>
      </trkpt>
      <trkpt lat="45.34902" lon="5.74472">
        <ele>970.9</ele>
        <time>2021-12-19T09:17:28Z</time>
      </trkpt>
      <trkpt lat="45.34902" lon="5.74472">
        <ele>970.9</ele>
        <time>2021-12-19T09:17:29Z</time>
      </trkpt>
      <trkpt lat="45.34902" lon="5.74472">
        <ele>970.9</ele>
        <time>2021-12-19T09:17:30Z</time>
      </trkpt>
      <trkpt lat="45.34902" lon="5.74471">
        <ele>970.9</ele>
        <time>2021-12-19T09:17:31Z</time>
      </trkpt>
      <trkpt lat="45.34902" lon="5.74472">
        <ele>970.9</ele>
        <time>2021-12-19T09:17:32Z</time>
      </trkpt>
      <trkpt lat="45.34901" lon="5.74473">
        <ele>971</ele>
        <time>2021-12-19T09:17:33Z</time>
      </trkpt>
      <trkpt lat="45.349" lon="5.74475">
        <ele>971</ele>
        <time>2021-12-19T09:17:34Z</time>
      </trkpt>
      <trkpt lat="45.349" lon="5.74475">
        <ele>971</ele>
        <time>2021-12-19T09:17:35Z</time>
      </trkpt>
      <trkpt lat="45.34899" lon="5.74476">
        <ele>971</ele>
        <time>2021-12-19T09:17:36Z</time>
      </trkpt>
      <trkpt lat="45.34899" lon="5.74477">
        <ele>971.1</ele>
        <time>2021-12-19T09:17:37Z</time>
      </trkpt>
      <trkpt lat="45.34899" lon="5.74477">
        <ele>971.1</ele>
        <time>2021-12-19T09:17:38Z</time>
      </trkpt>
      <trkpt lat="45.34898" lon="5.74477">
        <ele>971.1</ele>
        <time>2021-12-19T09:17:39Z</time>
      </trkpt>
      <trkpt lat="45.34898" lon="5.74477">
        <ele>971.1</ele>
        <time>2021-12-19T09:17:40Z</time>
      </trkpt>
      <trkpt lat="45.34898" lon="5.74477">
        <ele>971.1</ele>
        <time>2021-12-19T09:17:41Z</time>
      </trkpt>
      <trkpt lat="45.34898" lon="5.74476">
        <ele>971.1</ele>
        <time>2021-12-19T09:17:42Z</time>
      </trkpt>
      <trkpt lat="45.34899" lon="5.74476">
        <ele>971.1</ele>
        <time>2021-12-19T09:17:43Z</time>
      </trkpt>
      <trkpt lat="45.34899" lon="5.74475">
        <ele>971.1</ele>
        <time>2021-12-19T09:17:44Z</time>
      </trkpt>
      <trkpt lat="45.34899" lon="5.74475">
        <ele>971.1</ele>
        <time>2021-12-19T09:17:45Z</time>
      </trkpt>
      <trkpt lat="45.34899" lon="5.74475">
        <ele>971.1</ele>
        <time>2021-12-19T09:17:46Z</time>
      </trkpt>
      <trkpt lat="45.34899" lon="5.74475">
        <ele>971.1</ele>
        <time>2021-12-19T09:17:47Z</time>
      </trkpt>
      <trkpt lat="45.34899" lon="5.74475">
        <ele>971.2</ele>
        <time>2021-12-19T09:17:48Z</time>
      </trkpt>
      <trkpt lat="45.34899" lon="5.74474">
        <ele>971.2</ele>
        <time>2021-12-19T09:17:49Z</time>
      </trkpt>
      <trkpt lat="45.349" lon="5.74473">
        <ele>971.2</ele>
        <time>2021-12-19T09:17:50Z</time>
      </trkpt>
      <trkpt lat="45.349" lon="5.74473">
        <ele>971.2</ele>
        <time>2021-12-19T09:17:51Z</time>
      </trkpt>
      <trkpt lat="45.34899" lon="5.74473">
        <ele>971.2</ele>
        <time>2021-12-19T09:17:52Z</time>
      </trkpt>
      <trkpt lat="45.34899" lon="5.74472">
        <ele>971.2</ele>
        <time>2021-12-19T09:17:53Z</time>
      </trkpt>
      <trkpt lat="45.34899" lon="5.74472">
        <ele>971.2</ele>
        <time>2021-12-19T09:17:54Z</time>
      </trkpt>
      <trkpt lat="45.34899" lon="5.74472">
        <ele>971.2</ele>
        <time>2021-12-19T09:17:55Z</time>
      </trkpt>
      <trkpt lat="45.34899" lon="5.74472">
        <ele>971.3</ele>
        <time>2021-12-19T09:17:56Z</time>
      </trkpt>
      <trkpt lat="45.34899" lon="5.74471">
        <ele>971.3</ele>
        <time>2021-12-19T09:17:57Z</time>
      </trkpt>
      <trkpt lat="45.34899" lon="5.7447">
        <ele>971.3</ele>
        <time>2021-12-19T09:17:58Z</time>
      </trkpt>
      <trkpt lat="45.349" lon="5.74469">
        <ele>971.3</ele>
        <time>2021-12-19T09:17:59Z</time>
      </trkpt>
      <trkpt lat="45.349" lon="5.74468">
        <ele>971.3</ele>
        <time>2021-12-19T09:18:00Z</time>
      </trkpt>
      <trkpt lat="45.34901" lon="5.74468">
        <ele>971.4</ele>
        <time>2021-12-19T09:18:01Z</time>
      </trkpt>
      <trkpt lat="45.34901" lon="5.74468">
        <ele>971.4</ele>
        <time>2021-12-19T09:18:02Z</time>
      </trkpt>
      <trkpt lat="45.34901" lon="5.74469">
        <ele>971.4</ele>
        <time>2021-12-19T09:18:03Z</time>
      </trkpt>
      <trkpt lat="45.34901" lon="5.74469">
        <ele>971.4</ele>
        <time>2021-12-19T09:18:04Z</time>
      </trkpt>
      <trkpt lat="45.34901" lon="5.74469">
        <ele>971.4</ele>
        <time>2021-12-19T09:18:05Z</time>
      </trkpt>
      <trkpt lat="45.34901" lon="5.74468">
        <ele>971.4</ele>
        <time>2021-12-19T09:18:06Z</time>
      </trkpt>
      <trkpt lat="45.34901" lon="5.74468">
        <ele>971.4</ele>
        <time>2021-12-19T09:18:07Z</time>
      </trkpt>
      <trkpt lat="45.34902" lon="5.74468">
        <ele>971.4</ele>
        <time>2021-12-19T09:18:08Z</time>
      </trkpt>
      <trkpt lat="45.34902" lon="5.74467">
        <ele>971.4</ele>
        <time>2021-12-19T09:18:09Z</time>
      </trkpt>
      <trkpt lat="45.34902" lon="5.74467">
        <ele>971.4</ele>
        <time>2021-12-19T09:18:10Z</time>
      </trkpt>
      <trkpt lat="45.34902" lon="5.74468">
        <ele>971.4</ele>
        <time>2021-12-19T09:18:11Z</time>
      </trkpt>
      <trkpt lat="45.34902" lon="5.74468">
        <ele>971.4</ele>
        <time>2021-12-19T09:18:12Z</time>
      </trkpt>
      <trkpt lat="45.34902" lon="5.74469">
        <ele>971.5</ele>
        <time>2021-12-19T09:18:13Z</time>
      </trkpt>
      <trkpt lat="45.34901" lon="5.74471">
        <ele>971.5</ele>
        <time>2021-12-19T09:18:14Z</time>
      </trkpt>
      <trkpt lat="45.349" lon="5.74472">
        <ele>971.5</ele>
        <time>2021-12-19T09:18:15Z</time>
      </trkpt>
      <trkpt lat="45.34899" lon="5.74475">
        <ele>971.5</ele>
        <time>2021-12-19T09:18:16Z</time>
      </trkpt>
      <trkpt lat="45.34897" lon="5.74477">
        <ele>971.6</ele>
        <time>2021-12-19T09:18:17Z</time>
      </trkpt>
      <trkpt lat="45.34896" lon="5.74478">
        <ele>971.6</ele>
        <time>2021-12-19T09:18:18Z</time>
      </trkpt>
      <trkpt lat="45.34896" lon="5.74478">
        <ele>971.6</ele>
        <time>2021-12-19T09:18:19Z</time>
      </trkpt>
      <trkpt lat="45.34895" lon="5.74479">
        <ele>971.6</ele>
        <time>2021-12-19T09:18:20Z</time>
      </trkpt>
      <trkpt lat="45.34895" lon="5.74479">
        <ele>971.6</ele>
        <time>2021-12-19T09:18:21Z</time>
      </trkpt>
      <trkpt lat="45.34895" lon="5.74479">
        <ele>971.6</ele>
        <time>2021-12-19T09:18:22Z</time>
      </trkpt>
      <trkpt lat="45.34894" lon="5.74479">
        <ele>971.6</ele>
        <time>2021-12-19T09:18:23Z</time>
      </trkpt>
      <trkpt lat="45.34894" lon="5.74479">
        <ele>971.6</ele>
        <time>2021-12-19T09:18:24Z</time>
      </trkpt>
      <trkpt lat="45.34893" lon="5.74479">
        <ele>971.6</ele>
        <time>2021-12-19T09:18:25Z</time>
      </trkpt>
      <trkpt lat="45.34893" lon="5.74479">
        <ele>971.6</ele>
        <time>2021-12-19T09:18:26Z</time>
      </trkpt>
      <trkpt lat="45.34893" lon="5.74479">
        <ele>971.6</ele>
        <time>2021-12-19T09:18:27Z</time>
      </trkpt>
      <trkpt lat="45.34893" lon="5.74479">
        <ele>971.6</ele>
        <time>2021-12-19T09:18:28Z</time>
      </trkpt>
      <trkpt lat="45.34893" lon="5.74479">
        <ele>971.6</ele>
        <time>2021-12-19T09:18:29Z</time>
      </trkpt>
      <trkpt lat="45.34893" lon="5.74479">
        <ele>971.6</ele>
        <time>2021-12-19T09:18:30Z</time>
      </trkpt>
      <trkpt lat="45.34893" lon="5.74479">
        <ele>971.6</ele>
        <time>2021-12-19T09:18:31Z</time>
      </trkpt>
      <trkpt lat="45.34893" lon="5.7448">
        <ele>971.6</ele>
        <time>2021-12-19T09:18:32Z</time>
      </trkpt>
      <trkpt lat="45.34894" lon="5.74479">
        <ele>971.6</ele>
        <time>2021-12-19T09:18:33Z</time>
      </trkpt>
      <trkpt lat="45.34895" lon="5.74479">
        <ele>971.6</ele>
        <time>2021-12-19T09:18:34Z</time>
      </trkpt>
      <trkpt lat="45.34895" lon="5.74477">
        <ele>971.7</ele>
        <time>2021-12-19T09:18:35Z</time>
      </trkpt>
      <trkpt lat="45.34896" lon="5.74477">
        <ele>971.7</ele>
        <time>2021-12-19T09:18:36Z</time>
      </trkpt>
      <trkpt lat="45.34896" lon="5.74477">
        <ele>971.7</ele>
        <time>2021-12-19T09:18:37Z</time>
      </trkpt>
      <trkpt lat="45.34897" lon="5.74475">
        <ele>971.7</ele>
        <time>2021-12-19T09:18:38Z</time>
      </trkpt>
      <trkpt lat="45.34898" lon="5.74475">
        <ele>971.7</ele>
        <time>2021-12-19T09:18:39Z</time>
      </trkpt>
      <trkpt lat="45.34898" lon="5.74474">
        <ele>971.7</ele>
        <time>2021-12-19T09:18:40Z</time>
      </trkpt>
      <trkpt lat="45.34899" lon="5.74473">
        <ele>971.7</ele>
        <time>2021-12-19T09:18:41Z</time>
      </trkpt>
      <trkpt lat="45.349" lon="5.74473">
        <ele>971.7</ele>
        <time>2021-12-19T09:18:42Z</time>
      </trkpt>
      <trkpt lat="45.349" lon="5.74472">
        <ele>971.7</ele>
        <time>2021-12-19T09:18:43Z</time>
      </trkpt>
      <trkpt lat="45.349" lon="5.74472">
        <ele>971.7</ele>
        <time>2021-12-19T09:18:44Z</time>
      </trkpt>
      <trkpt lat="45.34901" lon="5.74472">
        <ele>971.7</ele>
        <time>2021-12-19T09:18:45Z</time>
      </trkpt>
      <trkpt lat="45.34901" lon="5.74471">
        <ele>971.7</ele>
        <time>2021-12-19T09:18:46Z</time>
      </trkpt>
      <trkpt lat="45.34901" lon="5.74472">
        <ele>971.7</ele>
        <time>2021-12-19T09:18:47Z</time>
      </trkpt>
      <trkpt lat="45.34902" lon="5.74472">
        <ele>971.7</ele>
        <time>2021-12-19T09:18:48Z</time>
      </trkpt>
      <trkpt lat="45.34902" lon="5.74472">
        <ele>971.7</ele>
        <time>2021-12-19T09:18:49Z</time>
      </trkpt>
      <trkpt lat="45.34902" lon="5.74472">
        <ele>971.7</ele>
        <time>2021-12-19T09:18:50Z</time>
      </trkpt>
      <trkpt lat="45.34902" lon="5.74471">
        <ele>971.7</ele>
        <time>2021-12-19T09:18:51Z</time>
      </trkpt>
      <trkpt lat="45.34902" lon="5.74471">
        <ele>971.8</ele>
        <time>2021-12-19T09:18:52Z</time>
      </trkpt>
      <trkpt lat="45.34902" lon="5.74471">
        <ele>971.8</ele>
        <time>2021-12-19T09:18:53Z</time>
      </trkpt>
      <trkpt lat="45.34902" lon="5.74471">
        <ele>971.8</ele>
        <time>2021-12-19T09:18:54Z</time>
      </trkpt>
      <trkpt lat="45.34902" lon="5.74471">
        <ele>971.8</ele>
        <time>2021-12-19T09:18:55Z</time>
      </trkpt>
      <trkpt lat="45.34902" lon="5.74471">
        <ele>971.8</ele>
        <time>2021-12-19T09:18:56Z</time>
      </trkpt>
      <trkpt lat="45.34902" lon="5.74471">
        <ele>971.8</ele>
        <time>2021-12-19T09:18:57Z</time>
      </trkpt>
      <trkpt lat="45.34903" lon="5.74471">
        <ele>971.8</ele>
        <time>2021-12-19T09:18:58Z</time>
      </trkpt>
      <trkpt lat="45.34902" lon="5.74471">
        <ele>971.8</ele>
        <time>2021-12-19T09:18:59Z</time>
      </trkpt>
      <trkpt lat="45.34903" lon="5.74471">
        <ele>971.8</ele>
        <time>2021-12-19T09:19:00Z</time>
      </trkpt>
      <trkpt lat="45.34903" lon="5.7447">
        <ele>971.8</ele>
        <time>2021-12-19T09:19:01Z</time>
      </trkpt>
      <trkpt lat="45.34903" lon="5.7447">
        <ele>971.8</ele>
        <time>2021-12-19T09:19:02Z</time>
      </trkpt>
      <trkpt lat="45.34903" lon="5.74469">
        <ele>971.8</ele>
        <time>2021-12-19T09:19:03Z</time>
      </trkpt>
      <trkpt lat="45.34902" lon="5.74469">
        <ele>971.8</ele>
        <time>2021-12-19T09:19:04Z</time>
      </trkpt>
      <trkpt lat="45.34902" lon="5.74468">
        <ele>971.8</ele>
        <time>2021-12-19T09:19:05Z</time>
      </trkpt>
      <trkpt lat="45.34902" lon="5.74467">
        <ele>971.9</ele>
        <time>2021-12-19T09:19:06Z</time>
      </trkpt>
      <trkpt lat="45.34902" lon="5.74466">
        <ele>971.9</ele>
        <time>2021-12-19T09:19:07Z</time>
      </trkpt>
      <trkpt lat="45.34901" lon="5.74465">
        <ele>971.9</ele>
        <time>2021-12-19T09:19:08Z</time>
      </trkpt>
      <trkpt lat="45.34901" lon="5.74464">
        <ele>971.9</ele>
        <time>2021-12-19T09:19:09Z</time>
      </trkpt>
      <trkpt lat="45.34901" lon="5.74463">
        <ele>971.9</ele>
        <time>2021-12-19T09:19:10Z</time>
      </trkpt>
      <trkpt lat="45.349" lon="5.74463">
        <ele>971.9</ele>
        <time>2021-12-19T09:19:11Z</time>
      </trkpt>
      <trkpt lat="45.349" lon="5.74461">
        <ele>972</ele>
        <time>2021-12-19T09:19:12Z</time>
      </trkpt>
      <trkpt lat="45.34899" lon="5.7446">
        <ele>972</ele>
        <time>2021-12-19T09:19:13Z</time>
      </trkpt>
      <trkpt lat="45.34898" lon="5.7446">
        <ele>972</ele>
        <time>2021-12-19T09:19:14Z</time>
      </trkpt>
      <trkpt lat="45.34897" lon="5.74459">
        <ele>972</ele>
        <time>2021-12-19T09:19:15Z</time>
      </trkpt>
      <trkpt lat="45.34896" lon="5.74458">
        <ele>972.1</ele>
        <time>2021-12-19T09:19:16Z</time>
      </trkpt>
      <trkpt lat="45.34895" lon="5.74457">
        <ele>972.1</ele>
        <time>2021-12-19T09:19:17Z</time>
      </trkpt>
      <trkpt lat="45.34894" lon="5.74456">
        <ele>972.1</ele>
        <time>2021-12-19T09:19:18Z</time>
      </trkpt>
      <trkpt lat="45.34894" lon="5.74455">
        <ele>972.1</ele>
        <time>2021-12-19T09:19:19Z</time>
      </trkpt>
      <trkpt lat="45.34893" lon="5.74454">
        <ele>972.2</ele>
        <time>2021-12-19T09:19:20Z</time>
      </trkpt>
      <trkpt lat="45.34892" lon="5.74453">
        <ele>972.2</ele>
        <time>2021-12-19T09:19:21Z</time>
      </trkpt>
      <trkpt lat="45.34891" lon="5.74453">
        <ele>972.2</ele>
        <time>2021-12-19T09:19:22Z</time>
      </trkpt>
      <trkpt lat="45.34889" lon="5.74453">
        <ele>972.2</ele>
        <time>2021-12-19T09:19:23Z</time>
      </trkpt>
      <trkpt lat="45.34889" lon="5.74452">
        <ele>972.2</ele>
        <time>2021-12-19T09:19:24Z</time>
      </trkpt>
      <trkpt lat="45.34888" lon="5.74451">
        <ele>972.2</ele>
        <time>2021-12-19T09:19:25Z</time>
      </trkpt>
      <trkpt lat="45.34886" lon="5.7445">
        <ele>972.2</ele>
        <time>2021-12-19T09:19:26Z</time>
      </trkpt>
      <trkpt lat="45.34885" lon="5.7445">
        <ele>972.3</ele>
        <time>2021-12-19T09:19:27Z</time>
      </trkpt>
      <trkpt lat="45.34884" lon="5.74449">
        <ele>972.3</ele>
        <time>2021-12-19T09:19:28Z</time>
      </trkpt>
      <trkpt lat="45.34883" lon="5.74449">
        <ele>972.3</ele>
        <time>2021-12-19T09:19:29Z</time>
      </trkpt>
      <trkpt lat="45.34883" lon="5.74449">
        <ele>972.3</ele>
        <time>2021-12-19T09:19:30Z</time>
      </trkpt>
      <trkpt lat="45.34882" lon="5.74449">
        <ele>972.3</ele>
        <time>2021-12-19T09:19:31Z</time>
      </trkpt>
      <trkpt lat="45.34881" lon="5.74449">
        <ele>972.3</ele>
        <time>2021-12-19T09:19:32Z</time>
      </trkpt>
      <trkpt lat="45.3488" lon="5.74449">
        <ele>972.3</ele>
        <time>2021-12-19T09:19:33Z</time>
      </trkpt>
      <trkpt lat="45.34879" lon="5.7445">
        <ele>972.3</ele>
        <time>2021-12-19T09:19:34Z</time>
      </trkpt>
      <trkpt lat="45.34878" lon="5.74451">
        <ele>972.3</ele>
        <time>2021-12-19T09:19:35Z</time>
      </trkpt>
      <trkpt lat="45.34877" lon="5.74451">
        <ele>972.2</ele>
        <time>2021-12-19T09:19:36Z</time>
      </trkpt>
      <trkpt lat="45.34876" lon="5.74451">
        <ele>972.2</ele>
        <time>2021-12-19T09:19:37Z</time>
      </trkpt>
      <trkpt lat="45.34876" lon="5.74452">
        <ele>972.2</ele>
        <time>2021-12-19T09:19:38Z</time>
      </trkpt>
      <trkpt lat="45.34875" lon="5.74453">
        <ele>972.2</ele>
        <time>2021-12-19T09:19:39Z</time>
      </trkpt>
      <trkpt lat="45.34875" lon="5.74454">
        <ele>972.2</ele>
        <time>2021-12-19T09:19:40Z</time>
      </trkpt>
      <trkpt lat="45.34875" lon="5.74454">
        <ele>972.2</ele>
        <time>2021-12-19T09:19:41Z</time>
      </trkpt>
      <trkpt lat="45.34874" lon="5.74455">
        <ele>972.2</ele>
        <time>2021-12-19T09:19:42Z</time>
      </trkpt>
      <trkpt lat="45.34874" lon="5.74456">
        <ele>972.2</ele>
        <time>2021-12-19T09:19:43Z</time>
      </trkpt>
      <trkpt lat="45.34874" lon="5.74456">
        <ele>972.2</ele>
        <time>2021-12-19T09:19:44Z</time>
      </trkpt>
      <trkpt lat="45.34873" lon="5.74457">
        <ele>972.2</ele>
        <time>2021-12-19T09:19:45Z</time>
      </trkpt>
      <trkpt lat="45.34873" lon="5.74457">
        <ele>972.2</ele>
        <time>2021-12-19T09:19:46Z</time>
      </trkpt>
      <trkpt lat="45.34873" lon="5.74457">
        <ele>972.2</ele>
        <time>2021-12-19T09:19:47Z</time>
      </trkpt>
      <trkpt lat="45.34872" lon="5.74457">
        <ele>972.2</ele>
        <time>2021-12-19T09:19:48Z</time>
      </trkpt>
      <trkpt lat="45.34872" lon="5.74458">
        <ele>972.2</ele>
        <time>2021-12-19T09:19:49Z</time>
      </trkpt>
      <trkpt lat="45.34872" lon="5.74459">
        <ele>972.2</ele>
        <time>2021-12-19T09:19:50Z</time>
      </trkpt>
      <trkpt lat="45.34872" lon="5.74459">
        <ele>972.2</ele>
        <time>2021-12-19T09:19:51Z</time>
      </trkpt>
      <trkpt lat="45.34872" lon="5.7446">
        <ele>972.2</ele>
        <time>2021-12-19T09:19:52Z</time>
      </trkpt>
      <trkpt lat="45.34872" lon="5.74462">
        <ele>972.2</ele>
        <time>2021-12-19T09:19:53Z</time>
      </trkpt>
      <trkpt lat="45.34872" lon="5.74463">
        <ele>972.2</ele>
        <time>2021-12-19T09:19:54Z</time>
      </trkpt>
      <trkpt lat="45.34871" lon="5.74465">
        <ele>972.2</ele>
        <time>2021-12-19T09:19:55Z</time>
      </trkpt>
      <trkpt lat="45.34871" lon="5.74467">
        <ele>972.2</ele>
        <time>2021-12-19T09:19:56Z</time>
      </trkpt>
      <trkpt lat="45.34871" lon="5.74469">
        <ele>972.2</ele>
        <time>2021-12-19T09:19:57Z</time>
      </trkpt>
      <trkpt lat="45.34871" lon="5.7447">
        <ele>972.2</ele>
        <time>2021-12-19T09:19:58Z</time>
      </trkpt>
      <trkpt lat="45.34871" lon="5.74472">
        <ele>972.2</ele>
        <time>2021-12-19T09:19:59Z</time>
      </trkpt>
      <trkpt lat="45.34872" lon="5.74473">
        <ele>972.2</ele>
        <time>2021-12-19T09:20:00Z</time>
      </trkpt>
      <trkpt lat="45.34872" lon="5.74475">
        <ele>972.1</ele>
        <time>2021-12-19T09:20:01Z</time>
      </trkpt>
      <trkpt lat="45.34873" lon="5.74477">
        <ele>972.1</ele>
        <time>2021-12-19T09:20:02Z</time>
      </trkpt>
      <trkpt lat="45.34873" lon="5.74479">
        <ele>972.1</ele>
        <time>2021-12-19T09:20:03Z</time>
      </trkpt>
      <trkpt lat="45.34873" lon="5.74481">
        <ele>972.1</ele>
        <time>2021-12-19T09:20:04Z</time>
      </trkpt>
      <trkpt lat="45.34874" lon="5.74482">
        <ele>972.1</ele>
        <time>2021-12-19T09:20:05Z</time>
      </trkpt>
      <trkpt lat="45.34875" lon="5.74484">
        <ele>972.1</ele>
        <time>2021-12-19T09:20:06Z</time>
      </trkpt>
      <trkpt lat="45.34876" lon="5.74485">
        <ele>972.1</ele>
        <time>2021-12-19T09:20:07Z</time>
      </trkpt>
      <trkpt lat="45.34876" lon="5.74487">
        <ele>972.1</ele>
        <time>2021-12-19T09:20:08Z</time>
      </trkpt>
      <trkpt lat="45.34877" lon="5.74488">
        <ele>972.1</ele>
        <time>2021-12-19T09:20:09Z</time>
      </trkpt>
      <trkpt lat="45.34877" lon="5.74489">
        <ele>972.1</ele>
        <time>2021-12-19T09:20:10Z</time>
      </trkpt>
      <trkpt lat="45.34878" lon="5.74491">
        <ele>972.1</ele>
        <time>2021-12-19T09:20:11Z</time>
      </trkpt>
      <trkpt lat="45.34879" lon="5.74492">
        <ele>972.1</ele>
        <time>2021-12-19T09:20:12Z</time>
      </trkpt>
      <trkpt lat="45.3488" lon="5.74494">
        <ele>972.1</ele>
        <time>2021-12-19T09:20:13Z</time>
      </trkpt>
      <trkpt lat="45.3488" lon="5.74495">
        <ele>972.1</ele>
        <time>2021-12-19T09:20:14Z</time>
      </trkpt>
      <trkpt lat="45.34881" lon="5.74496">
        <ele>972.1</ele>
        <time>2021-12-19T09:20:15Z</time>
      </trkpt>
      <trkpt lat="45.34882" lon="5.74497">
        <ele>972.1</ele>
        <time>2021-12-19T09:20:16Z</time>
      </trkpt>
      <trkpt lat="45.34883" lon="5.74498">
        <ele>972.1</ele>
        <time>2021-12-19T09:20:17Z</time>
      </trkpt>
      <trkpt lat="45.34883" lon="5.74499">
        <ele>972.1</ele>
        <time>2021-12-19T09:20:18Z</time>
      </trkpt>
      <trkpt lat="45.34883" lon="5.745">
        <ele>972.1</ele>
        <time>2021-12-19T09:20:19Z</time>
      </trkpt>
      <trkpt lat="45.34884" lon="5.74501">
        <ele>972</ele>
        <time>2021-12-19T09:20:20Z</time>
      </trkpt>
      <trkpt lat="45.34885" lon="5.74503">
        <ele>972</ele>
        <time>2021-12-19T09:20:21Z</time>
      </trkpt>
      <trkpt lat="45.34886" lon="5.74504">
        <ele>972</ele>
        <time>2021-12-19T09:20:22Z</time>
      </trkpt>
      <trkpt lat="45.34886" lon="5.74505">
        <ele>972</ele>
        <time>2021-12-19T09:20:23Z</time>
      </trkpt>
      <trkpt lat="45.34886" lon="5.74507">
        <ele>972</ele>
        <time>2021-12-19T09:20:24Z</time>
      </trkpt>
      <trkpt lat="45.34887" lon="5.74508">
        <ele>972</ele>
        <time>2021-12-19T09:20:25Z</time>
      </trkpt>
      <trkpt lat="45.34889" lon="5.74509">
        <ele>972</ele>
        <time>2021-12-19T09:20:26Z</time>
      </trkpt>
      <trkpt lat="45.3489" lon="5.7451">
        <ele>972</ele>
        <time>2021-12-19T09:20:27Z</time>
      </trkpt>
      <trkpt lat="45.34891" lon="5.74511">
        <ele>972</ele>
        <time>2021-12-19T09:20:28Z</time>
      </trkpt>
      <trkpt lat="45.34892" lon="5.74512">
        <ele>972</ele>
        <time>2021-12-19T09:20:29Z</time>
      </trkpt>
      <trkpt lat="45.34893" lon="5.74513">
        <ele>972</ele>
        <time>2021-12-19T09:20:30Z</time>
      </trkpt>
      <trkpt lat="45.34894" lon="5.74514">
        <ele>972</ele>
        <time>2021-12-19T09:20:31Z</time>
      </trkpt>
      <trkpt lat="45.34894" lon="5.74516">
        <ele>972</ele>
        <time>2021-12-19T09:20:32Z</time>
      </trkpt>
      <trkpt lat="45.34895" lon="5.74517">
        <ele>972</ele>
        <time>2021-12-19T09:20:33Z</time>
      </trkpt>
      <trkpt lat="45.34895" lon="5.74519">
        <ele>972</ele>
        <time>2021-12-19T09:20:34Z</time>
      </trkpt>
      <trkpt lat="45.34895" lon="5.74521">
        <ele>972</ele>
        <time>2021-12-19T09:20:35Z</time>
      </trkpt>
      <trkpt lat="45.34896" lon="5.74522">
        <ele>972</ele>
        <time>2021-12-19T09:20:36Z</time>
      </trkpt>
      <trkpt lat="45.34896" lon="5.74524">
        <ele>972</ele>
        <time>2021-12-19T09:20:37Z</time>
      </trkpt>
      <trkpt lat="45.34897" lon="5.74525">
        <ele>972</ele>
        <time>2021-12-19T09:20:38Z</time>
      </trkpt>
      <trkpt lat="45.34898" lon="5.74526">
        <ele>972</ele>
        <time>2021-12-19T09:20:39Z</time>
      </trkpt>
      <trkpt lat="45.34899" lon="5.74528">
        <ele>972</ele>
        <time>2021-12-19T09:20:40Z</time>
      </trkpt>
      <trkpt lat="45.34899" lon="5.74529">
        <ele>972</ele>
        <time>2021-12-19T09:20:41Z</time>
      </trkpt>
      <trkpt lat="45.34899" lon="5.74531">
        <ele>972</ele>
        <time>2021-12-19T09:20:42Z</time>
      </trkpt>
      <trkpt lat="45.349" lon="5.74533">
        <ele>972</ele>
        <time>2021-12-19T09:20:43Z</time>
      </trkpt>
      <trkpt lat="45.349" lon="5.74534">
        <ele>972</ele>
        <time>2021-12-19T09:20:44Z</time>
      </trkpt>
      <trkpt lat="45.34901" lon="5.74536">
        <ele>972</ele>
        <time>2021-12-19T09:20:45Z</time>
      </trkpt>
      <trkpt lat="45.34901" lon="5.74538">
        <ele>972</ele>
        <time>2021-12-19T09:20:46Z</time>
      </trkpt>
      <trkpt lat="45.34902" lon="5.74539">
        <ele>972</ele>
        <time>2021-12-19T09:20:47Z</time>
      </trkpt>
      <trkpt lat="45.34902" lon="5.74541">
        <ele>972</ele>
        <time>2021-12-19T09:20:48Z</time>
      </trkpt>
      <trkpt lat="45.34902" lon="5.74543">
        <ele>972</ele>
        <time>2021-12-19T09:20:49Z</time>
      </trkpt>
      <trkpt lat="45.34903" lon="5.74544">
        <ele>972</ele>
        <time>2021-12-19T09:20:50Z</time>
      </trkpt>
      <trkpt lat="45.34903" lon="5.74546">
        <ele>972</ele>
        <time>2021-12-19T09:20:51Z</time>
      </trkpt>
      <trkpt lat="45.34904" lon="5.74548">
        <ele>972</ele>
        <time>2021-12-19T09:20:52Z</time>
      </trkpt>
      <trkpt lat="45.34904" lon="5.7455">
        <ele>972</ele>
        <time>2021-12-19T09:20:53Z</time>
      </trkpt>
      <trkpt lat="45.34904" lon="5.74552">
        <ele>972</ele>
        <time>2021-12-19T09:20:54Z</time>
      </trkpt>
      <trkpt lat="45.34905" lon="5.74554">
        <ele>972</ele>
        <time>2021-12-19T09:20:55Z</time>
      </trkpt>
      <trkpt lat="45.34905" lon="5.74555">
        <ele>972</ele>
        <time>2021-12-19T09:20:56Z</time>
      </trkpt>
      <trkpt lat="45.34906" lon="5.74557">
        <ele>972</ele>
        <time>2021-12-19T09:20:57Z</time>
      </trkpt>
      <trkpt lat="45.34906" lon="5.74559">
        <ele>972</ele>
        <time>2021-12-19T09:20:58Z</time>
      </trkpt>
      <trkpt lat="45.34907" lon="5.7456">
        <ele>972</ele>
        <time>2021-12-19T09:20:59Z</time>
      </trkpt>
      <trkpt lat="45.34907" lon="5.74562">
        <ele>972</ele>
        <time>2021-12-19T09:21:00Z</time>
      </trkpt>
      <trkpt lat="45.34908" lon="5.74563">
        <ele>972</ele>
        <time>2021-12-19T09:21:01Z</time>
      </trkpt>
      <trkpt lat="45.34909" lon="5.74565">
        <ele>972</ele>
        <time>2021-12-19T09:21:02Z</time>
      </trkpt>
      <trkpt lat="45.3491" lon="5.74566">
        <ele>972</ele>
        <time>2021-12-19T09:21:03Z</time>
      </trkpt>
      <trkpt lat="45.3491" lon="5.74568">
        <ele>972</ele>
        <time>2021-12-19T09:21:04Z</time>
      </trkpt>
      <trkpt lat="45.34911" lon="5.7457">
        <ele>972</ele>
        <time>2021-12-19T09:21:05Z</time>
      </trkpt>
      <trkpt lat="45.34911" lon="5.74571">
        <ele>972</ele>
        <time>2021-12-19T09:21:06Z</time>
      </trkpt>
      <trkpt lat="45.34912" lon="5.74572">
        <ele>972</ele>
        <time>2021-12-19T09:21:07Z</time>
      </trkpt>
      <trkpt lat="45.34912" lon="5.74573">
        <ele>972</ele>
        <time>2021-12-19T09:21:08Z</time>
      </trkpt>
      <trkpt lat="45.34913" lon="5.74575">
        <ele>972</ele>
        <time>2021-12-19T09:21:09Z</time>
      </trkpt>
      <trkpt lat="45.34913" lon="5.74576">
        <ele>972</ele>
        <time>2021-12-19T09:21:10Z</time>
      </trkpt>
      <trkpt lat="45.34914" lon="5.74578">
        <ele>972</ele>
        <time>2021-12-19T09:21:11Z</time>
      </trkpt>
      <trkpt lat="45.34915" lon="5.74579">
        <ele>972</ele>
        <time>2021-12-19T09:21:12Z</time>
      </trkpt>
      <trkpt lat="45.34915" lon="5.74581">
        <ele>972</ele>
        <time>2021-12-19T09:21:13Z</time>
      </trkpt>
      <trkpt lat="45.34916" lon="5.74582">
        <ele>972</ele>
        <time>2021-12-19T09:21:14Z</time>
      </trkpt>
      <trkpt lat="45.34916" lon="5.74583">
        <ele>972</ele>
        <time>2021-12-19T09:21:15Z</time>
      </trkpt>
      <trkpt lat="45.34916" lon="5.74585">
        <ele>972</ele>
        <time>2021-12-19T09:21:16Z</time>
      </trkpt>
      <trkpt lat="45.34916" lon="5.74586">
        <ele>972</ele>
        <time>2021-12-19T09:21:17Z</time>
      </trkpt>
      <trkpt lat="45.34916" lon="5.74589">
        <ele>972</ele>
        <time>2021-12-19T09:21:18Z</time>
      </trkpt>
      <trkpt lat="45.34916" lon="5.7459">
        <ele>972</ele>
        <time>2021-12-19T09:21:19Z</time>
      </trkpt>
      <trkpt lat="45.34916" lon="5.74592">
        <ele>972</ele>
        <time>2021-12-19T09:21:20Z</time>
      </trkpt>
      <trkpt lat="45.34916" lon="5.74594">
        <ele>972</ele>
        <time>2021-12-19T09:21:21Z</time>
      </trkpt>
      <trkpt lat="45.34916" lon="5.74596">
        <ele>972</ele>
        <time>2021-12-19T09:21:22Z</time>
      </trkpt>
      <trkpt lat="45.34916" lon="5.74598">
        <ele>972</ele>
        <time>2021-12-19T09:21:23Z</time>
      </trkpt>
      <trkpt lat="45.34916" lon="5.746">
        <ele>972</ele>
        <time>2021-12-19T09:21:24Z</time>
      </trkpt>
      <trkpt lat="45.34915" lon="5.74602">
        <ele>972</ele>
        <time>2021-12-19T09:21:25Z</time>
      </trkpt>
      <trkpt lat="45.34916" lon="5.74603">
        <ele>972</ele>
        <time>2021-12-19T09:21:26Z</time>
      </trkpt>
      <trkpt lat="45.34916" lon="5.74605">
        <ele>972</ele>
        <time>2021-12-19T09:21:27Z</time>
      </trkpt>
      <trkpt lat="45.34916" lon="5.74607">
        <ele>972</ele>
        <time>2021-12-19T09:21:28Z</time>
      </trkpt>
      <trkpt lat="45.34916" lon="5.74608">
        <ele>972</ele>
        <time>2021-12-19T09:21:29Z</time>
      </trkpt>
      <trkpt lat="45.34916" lon="5.7461">
        <ele>972</ele>
        <time>2021-12-19T09:21:30Z</time>
      </trkpt>
      <trkpt lat="45.34917" lon="5.74612">
        <ele>972</ele>
        <time>2021-12-19T09:21:31Z</time>
      </trkpt>
      <trkpt lat="45.34917" lon="5.74613">
        <ele>972</ele>
        <time>2021-12-19T09:21:32Z</time>
      </trkpt>
      <trkpt lat="45.34918" lon="5.74615">
        <ele>972</ele>
        <time>2021-12-19T09:21:33Z</time>
      </trkpt>
      <trkpt lat="45.34917" lon="5.74617">
        <ele>972</ele>
        <time>2021-12-19T09:21:34Z</time>
      </trkpt>
      <trkpt lat="45.34917" lon="5.74619">
        <ele>972</ele>
        <time>2021-12-19T09:21:35Z</time>
      </trkpt>
      <trkpt lat="45.34917" lon="5.7462">
        <ele>972</ele>
        <time>2021-12-19T09:21:36Z</time>
      </trkpt>
      <trkpt lat="45.34917" lon="5.74622">
        <ele>972</ele>
        <time>2021-12-19T09:21:37Z</time>
      </trkpt>
      <trkpt lat="45.34917" lon="5.74624">
        <ele>972</ele>
        <time>2021-12-19T09:21:38Z</time>
      </trkpt>
      <trkpt lat="45.34916" lon="5.74625">
        <ele>972</ele>
        <time>2021-12-19T09:21:39Z</time>
      </trkpt>
      <trkpt lat="45.34915" lon="5.74627">
        <ele>972</ele>
        <time>2021-12-19T09:21:40Z</time>
      </trkpt>
      <trkpt lat="45.34915" lon="5.74629">
        <ele>971.9</ele>
        <time>2021-12-19T09:21:41Z</time>
      </trkpt>
      <trkpt lat="45.34915" lon="5.74631">
        <ele>971.9</ele>
        <time>2021-12-19T09:21:42Z</time>
      </trkpt>
      <trkpt lat="45.34914" lon="5.74633">
        <ele>971.9</ele>
        <time>2021-12-19T09:21:43Z</time>
      </trkpt>
      <trkpt lat="45.34913" lon="5.74635">
        <ele>971.9</ele>
        <time>2021-12-19T09:21:44Z</time>
      </trkpt>
      <trkpt lat="45.34913" lon="5.74637">
        <ele>971.9</ele>
        <time>2021-12-19T09:21:45Z</time>
      </trkpt>
      <trkpt lat="45.34912" lon="5.74639">
        <ele>971.8</ele>
        <time>2021-12-19T09:21:46Z</time>
      </trkpt>
      <trkpt lat="45.34912" lon="5.74641">
        <ele>971.8</ele>
        <time>2021-12-19T09:21:47Z</time>
      </trkpt>
      <trkpt lat="45.34912" lon="5.74642">
        <ele>971.8</ele>
        <time>2021-12-19T09:21:48Z</time>
      </trkpt>
      <trkpt lat="45.34912" lon="5.74644">
        <ele>971.7</ele>
        <time>2021-12-19T09:21:49Z</time>
      </trkpt>
      <trkpt lat="45.34911" lon="5.74646">
        <ele>971.7</ele>
        <time>2021-12-19T09:21:50Z</time>
      </trkpt>
      <trkpt lat="45.34911" lon="5.74648">
        <ele>971.7</ele>
        <time>2021-12-19T09:21:51Z</time>
      </trkpt>
      <trkpt lat="45.34911" lon="5.7465">
        <ele>971.7</ele>
        <time>2021-12-19T09:21:52Z</time>
      </trkpt>
      <trkpt lat="45.3491" lon="5.74651">
        <ele>971.6</ele>
        <time>2021-12-19T09:21:53Z</time>
      </trkpt>
      <trkpt lat="45.3491" lon="5.74653">
        <ele>971.6</ele>
        <time>2021-12-19T09:21:54Z</time>
      </trkpt>
      <trkpt lat="45.34909" lon="5.74655">
        <ele>971.6</ele>
        <time>2021-12-19T09:21:55Z</time>
      </trkpt>
      <trkpt lat="45.34909" lon="5.74656">
        <ele>971.6</ele>
        <time>2021-12-19T09:21:56Z</time>
      </trkpt>
      <trkpt lat="45.34908" lon="5.74658">
        <ele>971.6</ele>
        <time>2021-12-19T09:21:57Z</time>
      </trkpt>
      <trkpt lat="45.34908" lon="5.7466">
        <ele>971.6</ele>
        <time>2021-12-19T09:21:58Z</time>
      </trkpt>
      <trkpt lat="45.34907" lon="5.74661">
        <ele>971.5</ele>
        <time>2021-12-19T09:21:59Z</time>
      </trkpt>
      <trkpt lat="45.34907" lon="5.74663">
        <ele>971.5</ele>
        <time>2021-12-19T09:22:00Z</time>
      </trkpt>
      <trkpt lat="45.34907" lon="5.74665">
        <ele>971.5</ele>
        <time>2021-12-19T09:22:01Z</time>
      </trkpt>
      <trkpt lat="45.34906" lon="5.74666">
        <ele>971.5</ele>
        <time>2021-12-19T09:22:02Z</time>
      </trkpt>
      <trkpt lat="45.34906" lon="5.74668">
        <ele>971.5</ele>
        <time>2021-12-19T09:22:03Z</time>
      </trkpt>
      <trkpt lat="45.34906" lon="5.74669">
        <ele>971.5</ele>
        <time>2021-12-19T09:22:04Z</time>
      </trkpt>
      <trkpt lat="45.34907" lon="5.74671">
        <ele>971.5</ele>
        <time>2021-12-19T09:22:05Z</time>
      </trkpt>
      <trkpt lat="45.34907" lon="5.74673">
        <ele>971.4</ele>
        <time>2021-12-19T09:22:06Z</time>
      </trkpt>
      <trkpt lat="45.34907" lon="5.74675">
        <ele>971.4</ele>
        <time>2021-12-19T09:22:07Z</time>
      </trkpt>
      <trkpt lat="45.34907" lon="5.74677">
        <ele>971.4</ele>
        <time>2021-12-19T09:22:08Z</time>
      </trkpt>
      <trkpt lat="45.34907" lon="5.74678">
        <ele>971.4</ele>
        <time>2021-12-19T09:22:09Z</time>
      </trkpt>
      <trkpt lat="45.34907" lon="5.7468">
        <ele>971.4</ele>
        <time>2021-12-19T09:22:10Z</time>
      </trkpt>
      <trkpt lat="45.34907" lon="5.74682">
        <ele>971.4</ele>
        <time>2021-12-19T09:22:11Z</time>
      </trkpt>
      <trkpt lat="45.34907" lon="5.74683">
        <ele>971.4</ele>
        <time>2021-12-19T09:22:12Z</time>
      </trkpt>
      <trkpt lat="45.34907" lon="5.74685">
        <ele>971.4</ele>
        <time>2021-12-19T09:22:13Z</time>
      </trkpt>
      <trkpt lat="45.34907" lon="5.74687">
        <ele>971.4</ele>
        <time>2021-12-19T09:22:14Z</time>
      </trkpt>
      <trkpt lat="45.34907" lon="5.74688">
        <ele>971.4</ele>
        <time>2021-12-19T09:22:15Z</time>
      </trkpt>
      <trkpt lat="45.34907" lon="5.7469">
        <ele>971.4</ele>
        <time>2021-12-19T09:22:16Z</time>
      </trkpt>
      <trkpt lat="45.34907" lon="5.74692">
        <ele>971.3</ele>
        <time>2021-12-19T09:22:17Z</time>
      </trkpt>
      <trkpt lat="45.34907" lon="5.74694">
        <ele>971.3</ele>
        <time>2021-12-19T09:22:18Z</time>
      </trkpt>
      <trkpt lat="45.34907" lon="5.74695">
        <ele>971.3</ele>
        <time>2021-12-19T09:22:19Z</time>
      </trkpt>
      <trkpt lat="45.34906" lon="5.74697">
        <ele>971.3</ele>
        <time>2021-12-19T09:22:20Z</time>
      </trkpt>
      <trkpt lat="45.34906" lon="5.74699">
        <ele>971.3</ele>
        <time>2021-12-19T09:22:21Z</time>
      </trkpt>
      <trkpt lat="45.34906" lon="5.747">
        <ele>971.3</ele>
        <time>2021-12-19T09:22:22Z</time>
      </trkpt>
      <trkpt lat="45.34907" lon="5.74702">
        <ele>971.3</ele>
        <time>2021-12-19T09:22:23Z</time>
      </trkpt>
      <trkpt lat="45.34907" lon="5.74703">
        <ele>971.3</ele>
        <time>2021-12-19T09:22:24Z</time>
      </trkpt>
      <trkpt lat="45.34906" lon="5.74705">
        <ele>971.3</ele>
        <time>2021-12-19T09:22:25Z</time>
      </trkpt>
      <trkpt lat="45.34906" lon="5.74707">
        <ele>971.3</ele>
        <time>2021-12-19T09:22:26Z</time>
      </trkpt>
      <trkpt lat="45.34906" lon="5.74708">
        <ele>971.3</ele>
        <time>2021-12-19T09:22:27Z</time>
      </trkpt>
      <trkpt lat="45.34906" lon="5.7471">
        <ele>971.3</ele>
        <time>2021-12-19T09:22:28Z</time>
      </trkpt>
      <trkpt lat="45.34906" lon="5.74712">
        <ele>971.3</ele>
        <time>2021-12-19T09:22:29Z</time>
      </trkpt>
      <trkpt lat="45.34906" lon="5.74713">
        <ele>971.3</ele>
        <time>2021-12-19T09:22:30Z</time>
      </trkpt>
      <trkpt lat="45.34906" lon="5.74715">
        <ele>971.3</ele>
        <time>2021-12-19T09:22:31Z</time>
      </trkpt>
      <trkpt lat="45.34906" lon="5.74716">
        <ele>971.3</ele>
        <time>2021-12-19T09:22:32Z</time>
      </trkpt>
      <trkpt lat="45.34907" lon="5.74718">
        <ele>971.3</ele>
        <time>2021-12-19T09:22:33Z</time>
      </trkpt>
      <trkpt lat="45.34907" lon="5.74719">
        <ele>971.3</ele>
        <time>2021-12-19T09:22:34Z</time>
      </trkpt>
      <trkpt lat="45.34907" lon="5.74721">
        <ele>971.3</ele>
        <time>2021-12-19T09:22:35Z</time>
      </trkpt>
      <trkpt lat="45.34907" lon="5.74722">
        <ele>971.2</ele>
        <time>2021-12-19T09:22:36Z</time>
      </trkpt>
      <trkpt lat="45.34908" lon="5.74724">
        <ele>971.2</ele>
        <time>2021-12-19T09:22:37Z</time>
      </trkpt>
      <trkpt lat="45.34908" lon="5.74725">
        <ele>971.2</ele>
        <time>2021-12-19T09:22:38Z</time>
      </trkpt>
      <trkpt lat="45.34908" lon="5.74726">
        <ele>971.2</ele>
        <time>2021-12-19T09:22:39Z</time>
      </trkpt>
      <trkpt lat="45.34908" lon="5.74728">
        <ele>971.2</ele>
        <time>2021-12-19T09:22:40Z</time>
      </trkpt>
      <trkpt lat="45.34909" lon="5.7473">
        <ele>971.2</ele>
        <time>2021-12-19T09:22:41Z</time>
      </trkpt>
      <trkpt lat="45.34909" lon="5.74731">
        <ele>971.2</ele>
        <time>2021-12-19T09:22:42Z</time>
      </trkpt>
      <trkpt lat="45.34909" lon="5.74733">
        <ele>971.2</ele>
        <time>2021-12-19T09:22:43Z</time>
      </trkpt>
      <trkpt lat="45.34909" lon="5.74734">
        <ele>971.2</ele>
        <time>2021-12-19T09:22:44Z</time>
      </trkpt>
      <trkpt lat="45.34909" lon="5.74735">
        <ele>971.2</ele>
        <time>2021-12-19T09:22:45Z</time>
      </trkpt>
      <trkpt lat="45.3491" lon="5.74737">
        <ele>971.2</ele>
        <time>2021-12-19T09:22:46Z</time>
      </trkpt>
      <trkpt lat="45.3491" lon="5.74738">
        <ele>971.2</ele>
        <time>2021-12-19T09:22:47Z</time>
      </trkpt>
      <trkpt lat="45.3491" lon="5.7474">
        <ele>971.2</ele>
        <time>2021-12-19T09:22:48Z</time>
      </trkpt>
      <trkpt lat="45.3491" lon="5.74742">
        <ele>971.2</ele>
        <time>2021-12-19T09:22:49Z</time>
      </trkpt>
      <trkpt lat="45.3491" lon="5.74743">
        <ele>971.2</ele>
        <time>2021-12-19T09:22:50Z</time>
      </trkpt>
      <trkpt lat="45.3491" lon="5.74745">
        <ele>971.2</ele>
        <time>2021-12-19T09:22:51Z</time>
      </trkpt>
      <trkpt lat="45.3491" lon="5.74747">
        <ele>971.2</ele>
        <time>2021-12-19T09:22:52Z</time>
      </trkpt>
      <trkpt lat="45.34909" lon="5.74748">
        <ele>971.2</ele>
        <time>2021-12-19T09:22:53Z</time>
      </trkpt>
      <trkpt lat="45.3491" lon="5.7475">
        <ele>971.2</ele>
        <time>2021-12-19T09:22:54Z</time>
      </trkpt>
      <trkpt lat="45.3491" lon="5.74752">
        <ele>971.1</ele>
        <time>2021-12-19T09:22:55Z</time>
      </trkpt>
      <trkpt lat="45.34911" lon="5.74753">
        <ele>971.1</ele>
        <time>2021-12-19T09:22:56Z</time>
      </trkpt>
      <trkpt lat="45.34911" lon="5.74755">
        <ele>971.1</ele>
        <time>2021-12-19T09:22:57Z</time>
      </trkpt>
      <trkpt lat="45.34911" lon="5.74756">
        <ele>971.1</ele>
        <time>2021-12-19T09:22:58Z</time>
      </trkpt>
      <trkpt lat="45.34911" lon="5.74758">
        <ele>971.1</ele>
        <time>2021-12-19T09:22:59Z</time>
      </trkpt>
      <trkpt lat="45.34912" lon="5.7476">
        <ele>971.1</ele>
        <time>2021-12-19T09:23:00Z</time>
      </trkpt>
      <trkpt lat="45.34912" lon="5.74761">
        <ele>971.1</ele>
        <time>2021-12-19T09:23:01Z</time>
      </trkpt>
      <trkpt lat="45.34912" lon="5.74763">
        <ele>971.1</ele>
        <time>2021-12-19T09:23:02Z</time>
      </trkpt>
      <trkpt lat="45.34912" lon="5.74764">
        <ele>971.1</ele>
        <time>2021-12-19T09:23:03Z</time>
      </trkpt>
      <trkpt lat="45.34912" lon="5.74766">
        <ele>971.1</ele>
        <time>2021-12-19T09:23:04Z</time>
      </trkpt>
      <trkpt lat="45.34913" lon="5.74768">
        <ele>971.1</ele>
        <time>2021-12-19T09:23:05Z</time>
      </trkpt>
      <trkpt lat="45.34913" lon="5.7477">
        <ele>971.1</ele>
        <time>2021-12-19T09:23:06Z</time>
      </trkpt>
      <trkpt lat="45.34913" lon="5.74772">
        <ele>971.1</ele>
        <time>2021-12-19T09:23:07Z</time>
      </trkpt>
      <trkpt lat="45.34913" lon="5.74774">
        <ele>971</ele>
        <time>2021-12-19T09:23:08Z</time>
      </trkpt>
      <trkpt lat="45.34914" lon="5.74775">
        <ele>971</ele>
        <time>2021-12-19T09:23:09Z</time>
      </trkpt>
      <trkpt lat="45.34914" lon="5.74777">
        <ele>971</ele>
        <time>2021-12-19T09:23:10Z</time>
      </trkpt>
      <trkpt lat="45.34914" lon="5.74778">
        <ele>971</ele>
        <time>2021-12-19T09:23:11Z</time>
      </trkpt>
      <trkpt lat="45.34914" lon="5.7478">
        <ele>971</ele>
        <time>2021-12-19T09:23:12Z</time>
      </trkpt>
      <trkpt lat="45.34914" lon="5.74782">
        <ele>971</ele>
        <time>2021-12-19T09:23:13Z</time>
      </trkpt>
      <trkpt lat="45.34914" lon="5.74783">
        <ele>971</ele>
        <time>2021-12-19T09:23:14Z</time>
      </trkpt>
      <trkpt lat="45.34914" lon="5.74785">
        <ele>971</ele>
        <time>2021-12-19T09:23:15Z</time>
      </trkpt>
      <trkpt lat="45.34915" lon="5.74786">
        <ele>971</ele>
        <time>2021-12-19T09:23:16Z</time>
      </trkpt>
      <trkpt lat="45.34915" lon="5.74788">
        <ele>971</ele>
        <time>2021-12-19T09:23:17Z</time>
      </trkpt>
      <trkpt lat="45.34915" lon="5.7479">
        <ele>970.9</ele>
        <time>2021-12-19T09:23:18Z</time>
      </trkpt>
      <trkpt lat="45.34915" lon="5.74792">
        <ele>970.9</ele>
        <time>2021-12-19T09:23:19Z</time>
      </trkpt>
      <trkpt lat="45.34916" lon="5.74793">
        <ele>970.9</ele>
        <time>2021-12-19T09:23:20Z</time>
      </trkpt>
      <trkpt lat="45.34916" lon="5.74795">
        <ele>970.9</ele>
        <time>2021-12-19T09:23:21Z</time>
      </trkpt>
      <trkpt lat="45.34916" lon="5.74796">
        <ele>970.9</ele>
        <time>2021-12-19T09:23:22Z</time>
      </trkpt>
      <trkpt lat="45.34917" lon="5.74798">
        <ele>970.9</ele>
        <time>2021-12-19T09:23:23Z</time>
      </trkpt>
      <trkpt lat="45.34917" lon="5.74799">
        <ele>970.9</ele>
        <time>2021-12-19T09:23:24Z</time>
      </trkpt>
      <trkpt lat="45.34917" lon="5.74801">
        <ele>970.9</ele>
        <time>2021-12-19T09:23:25Z</time>
      </trkpt>
      <trkpt lat="45.34917" lon="5.74803">
        <ele>970.9</ele>
        <time>2021-12-19T09:23:26Z</time>
      </trkpt>
      <trkpt lat="45.34917" lon="5.74805">
        <ele>970.8</ele>
        <time>2021-12-19T09:23:27Z</time>
      </trkpt>
      <trkpt lat="45.34917" lon="5.74806">
        <ele>970.8</ele>
        <time>2021-12-19T09:23:28Z</time>
      </trkpt>
      <trkpt lat="45.34917" lon="5.74808">
        <ele>970.8</ele>
        <time>2021-12-19T09:23:29Z</time>
      </trkpt>
      <trkpt lat="45.34918" lon="5.7481">
        <ele>970.8</ele>
        <time>2021-12-19T09:23:30Z</time>
      </trkpt>
      <trkpt lat="45.34919" lon="5.74811">
        <ele>970.8</ele>
        <time>2021-12-19T09:23:31Z</time>
      </trkpt>
      <trkpt lat="45.34919" lon="5.74813">
        <ele>970.8</ele>
        <time>2021-12-19T09:23:32Z</time>
      </trkpt>
      <trkpt lat="45.34919" lon="5.74814">
        <ele>970.8</ele>
        <time>2021-12-19T09:23:33Z</time>
      </trkpt>
      <trkpt lat="45.34919" lon="5.74816">
        <ele>970.8</ele>
        <time>2021-12-19T09:23:34Z</time>
      </trkpt>
      <trkpt lat="45.3492" lon="5.74817">
        <ele>970.8</ele>
        <time>2021-12-19T09:23:35Z</time>
      </trkpt>
      <trkpt lat="45.3492" lon="5.74819">
        <ele>970.7</ele>
        <time>2021-12-19T09:23:36Z</time>
      </trkpt>
      <trkpt lat="45.3492" lon="5.7482">
        <ele>970.7</ele>
        <time>2021-12-19T09:23:37Z</time>
      </trkpt>
      <trkpt lat="45.34921" lon="5.74822">
        <ele>970.7</ele>
        <time>2021-12-19T09:23:38Z</time>
      </trkpt>
      <trkpt lat="45.34921" lon="5.74823">
        <ele>970.7</ele>
        <time>2021-12-19T09:23:39Z</time>
      </trkpt>
      <trkpt lat="45.34921" lon="5.74825">
        <ele>970.7</ele>
        <time>2021-12-19T09:23:40Z</time>
      </trkpt>
      <trkpt lat="45.34922" lon="5.74826">
        <ele>970.7</ele>
        <time>2021-12-19T09:23:41Z</time>
      </trkpt>
      <trkpt lat="45.34922" lon="5.74828">
        <ele>970.7</ele>
        <time>2021-12-19T09:23:42Z</time>
      </trkpt>
      <trkpt lat="45.34922" lon="5.7483">
        <ele>970.7</ele>
        <time>2021-12-19T09:23:43Z</time>
      </trkpt>
      <trkpt lat="45.34923" lon="5.74831">
        <ele>970.7</ele>
        <time>2021-12-19T09:23:44Z</time>
      </trkpt>
      <trkpt lat="45.34923" lon="5.74833">
        <ele>970.6</ele>
        <time>2021-12-19T09:23:45Z</time>
      </trkpt>
      <trkpt lat="45.34923" lon="5.74835">
        <ele>970.6</ele>
        <time>2021-12-19T09:23:46Z</time>
      </trkpt>
      <trkpt lat="45.34923" lon="5.74837">
        <ele>970.6</ele>
        <time>2021-12-19T09:23:47Z</time>
      </trkpt>
      <trkpt lat="45.34924" lon="5.74839">
        <ele>970.6</ele>
        <time>2021-12-19T09:23:48Z</time>
      </trkpt>
      <trkpt lat="45.34924" lon="5.7484">
        <ele>970.6</ele>
        <time>2021-12-19T09:23:49Z</time>
      </trkpt>
      <trkpt lat="45.34924" lon="5.74842">
        <ele>970.6</ele>
        <time>2021-12-19T09:23:50Z</time>
      </trkpt>
      <trkpt lat="45.34924" lon="5.74844">
        <ele>970.6</ele>
        <time>2021-12-19T09:23:51Z</time>
      </trkpt>
      <trkpt lat="45.34924" lon="5.74845">
        <ele>970.6</ele>
        <time>2021-12-19T09:23:52Z</time>
      </trkpt>
      <trkpt lat="45.34924" lon="5.74848">
        <ele>970.5</ele>
        <time>2021-12-19T09:23:53Z</time>
      </trkpt>
      <trkpt lat="45.34924" lon="5.74849">
        <ele>970.5</ele>
        <time>2021-12-19T09:23:54Z</time>
      </trkpt>
      <trkpt lat="45.34924" lon="5.74851">
        <ele>970.5</ele>
        <time>2021-12-19T09:23:55Z</time>
      </trkpt>
      <trkpt lat="45.34924" lon="5.74853">
        <ele>970.5</ele>
        <time>2021-12-19T09:23:56Z</time>
      </trkpt>
      <trkpt lat="45.34924" lon="5.74855">
        <ele>970.5</ele>
        <time>2021-12-19T09:23:57Z</time>
      </trkpt>
      <trkpt lat="45.34923" lon="5.74858">
        <ele>970.5</ele>
        <time>2021-12-19T09:23:58Z</time>
      </trkpt>
      <trkpt lat="45.34924" lon="5.7486">
        <ele>970.4</ele>
        <time>2021-12-19T09:23:59Z</time>
      </trkpt>
      <trkpt lat="45.34923" lon="5.74862">
        <ele>970.4</ele>
        <time>2021-12-19T09:24:00Z</time>
      </trkpt>
      <trkpt lat="45.34923" lon="5.74864">
        <ele>970.4</ele>
        <time>2021-12-19T09:24:01Z</time>
      </trkpt>
      <trkpt lat="45.34924" lon="5.74866">
        <ele>970.4</ele>
        <time>2021-12-19T09:24:02Z</time>
      </trkpt>
      <trkpt lat="45.34924" lon="5.74868">
        <ele>970.4</ele>
        <time>2021-12-19T09:24:03Z</time>
      </trkpt>
      <trkpt lat="45.34923" lon="5.74869">
        <ele>970.4</ele>
        <time>2021-12-19T09:24:04Z</time>
      </trkpt>
      <trkpt lat="45.34924" lon="5.74871">
        <ele>970.3</ele>
        <time>2021-12-19T09:24:05Z</time>
      </trkpt>
      <trkpt lat="45.34924" lon="5.74873">
        <ele>970.3</ele>
        <time>2021-12-19T09:24:06Z</time>
      </trkpt>
      <trkpt lat="45.34924" lon="5.74875">
        <ele>970.3</ele>
        <time>2021-12-19T09:24:07Z</time>
      </trkpt>
      <trkpt lat="45.34923" lon="5.74876">
        <ele>970.3</ele>
        <time>2021-12-19T09:24:08Z</time>
      </trkpt>
      <trkpt lat="45.34923" lon="5.74878">
        <ele>970.3</ele>
        <time>2021-12-19T09:24:09Z</time>
      </trkpt>
      <trkpt lat="45.34923" lon="5.7488">
        <ele>970.3</ele>
        <time>2021-12-19T09:24:10Z</time>
      </trkpt>
      <trkpt lat="45.34922" lon="5.74881">
        <ele>970.3</ele>
        <time>2021-12-19T09:24:11Z</time>
      </trkpt>
      <trkpt lat="45.34921" lon="5.74883">
        <ele>970.3</ele>
        <time>2021-12-19T09:24:12Z</time>
      </trkpt>
      <trkpt lat="45.34922" lon="5.74885">
        <ele>970.2</ele>
        <time>2021-12-19T09:24:13Z</time>
      </trkpt>
      <trkpt lat="45.34922" lon="5.74886">
        <ele>970.2</ele>
        <time>2021-12-19T09:24:14Z</time>
      </trkpt>
      <trkpt lat="45.34921" lon="5.74888">
        <ele>970.2</ele>
        <time>2021-12-19T09:24:15Z</time>
      </trkpt>
      <trkpt lat="45.3492" lon="5.7489">
        <ele>970.2</ele>
        <time>2021-12-19T09:24:16Z</time>
      </trkpt>
      <trkpt lat="45.34919" lon="5.74891">
        <ele>970.2</ele>
        <time>2021-12-19T09:24:17Z</time>
      </trkpt>
      <trkpt lat="45.34919" lon="5.74893">
        <ele>970.2</ele>
        <time>2021-12-19T09:24:18Z</time>
      </trkpt>
      <trkpt lat="45.34918" lon="5.74894">
        <ele>970.2</ele>
        <time>2021-12-19T09:24:19Z</time>
      </trkpt>
      <trkpt lat="45.34917" lon="5.74896">
        <ele>970.2</ele>
        <time>2021-12-19T09:24:20Z</time>
      </trkpt>
      <trkpt lat="45.34916" lon="5.74898">
        <ele>970.1</ele>
        <time>2021-12-19T09:24:21Z</time>
      </trkpt>
      <trkpt lat="45.34915" lon="5.74899">
        <ele>970.1</ele>
        <time>2021-12-19T09:24:22Z</time>
      </trkpt>
      <trkpt lat="45.34914" lon="5.74901">
        <ele>970.1</ele>
        <time>2021-12-19T09:24:23Z</time>
      </trkpt>
      <trkpt lat="45.34913" lon="5.74902">
        <ele>970.1</ele>
        <time>2021-12-19T09:24:24Z</time>
      </trkpt>
      <trkpt lat="45.34912" lon="5.74904">
        <ele>970.1</ele>
        <time>2021-12-19T09:24:25Z</time>
      </trkpt>
      <trkpt lat="45.34911" lon="5.74906">
        <ele>970.1</ele>
        <time>2021-12-19T09:24:26Z</time>
      </trkpt>
      <trkpt lat="45.34909" lon="5.74907">
        <ele>970.1</ele>
        <time>2021-12-19T09:24:27Z</time>
      </trkpt>
      <trkpt lat="45.34908" lon="5.74908">
        <ele>970</ele>
        <time>2021-12-19T09:24:28Z</time>
      </trkpt>
      <trkpt lat="45.34907" lon="5.7491">
        <ele>970</ele>
        <time>2021-12-19T09:24:29Z</time>
      </trkpt>
      <trkpt lat="45.34906" lon="5.74911">
        <ele>970</ele>
        <time>2021-12-19T09:24:30Z</time>
      </trkpt>
      <trkpt lat="45.34905" lon="5.74912">
        <ele>970</ele>
        <time>2021-12-19T09:24:31Z</time>
      </trkpt>
      <trkpt lat="45.34904" lon="5.74913">
        <ele>970</ele>
        <time>2021-12-19T09:24:32Z</time>
      </trkpt>
      <trkpt lat="45.34903" lon="5.74914">
        <ele>970</ele>
        <time>2021-12-19T09:24:33Z</time>
      </trkpt>
      <trkpt lat="45.34901" lon="5.74915">
        <ele>970</ele>
        <time>2021-12-19T09:24:34Z</time>
      </trkpt>
      <trkpt lat="45.349" lon="5.74916">
        <ele>970</ele>
        <time>2021-12-19T09:24:35Z</time>
      </trkpt>
      <trkpt lat="45.34899" lon="5.74917">
        <ele>970</ele>
        <time>2021-12-19T09:24:36Z</time>
      </trkpt>
      <trkpt lat="45.34897" lon="5.74918">
        <ele>970</ele>
        <time>2021-12-19T09:24:37Z</time>
      </trkpt>
      <trkpt lat="45.34896" lon="5.74919">
        <ele>969.9</ele>
        <time>2021-12-19T09:24:38Z</time>
      </trkpt>
      <trkpt lat="45.34895" lon="5.74919">
        <ele>969.9</ele>
        <time>2021-12-19T09:24:39Z</time>
      </trkpt>
      <trkpt lat="45.34893" lon="5.7492">
        <ele>969.9</ele>
        <time>2021-12-19T09:24:40Z</time>
      </trkpt>
      <trkpt lat="45.34892" lon="5.74921">
        <ele>969.9</ele>
        <time>2021-12-19T09:24:41Z</time>
      </trkpt>
      <trkpt lat="45.3489" lon="5.74922">
        <ele>969.9</ele>
        <time>2021-12-19T09:24:42Z</time>
      </trkpt>
      <trkpt lat="45.34889" lon="5.74922">
        <ele>969.9</ele>
        <time>2021-12-19T09:24:43Z</time>
      </trkpt>
      <trkpt lat="45.34887" lon="5.74923">
        <ele>969.9</ele>
        <time>2021-12-19T09:24:44Z</time>
      </trkpt>
      <trkpt lat="45.34886" lon="5.74923">
        <ele>969.9</ele>
        <time>2021-12-19T09:24:45Z</time>
      </trkpt>
      <trkpt lat="45.34885" lon="5.74924">
        <ele>969.9</ele>
        <time>2021-12-19T09:24:46Z</time>
      </trkpt>
      <trkpt lat="45.34883" lon="5.74925">
        <ele>969.8</ele>
        <time>2021-12-19T09:24:47Z</time>
      </trkpt>
      <trkpt lat="45.34882" lon="5.74925">
        <ele>969.8</ele>
        <time>2021-12-19T09:24:48Z</time>
      </trkpt>
      <trkpt lat="45.34881" lon="5.74926">
        <ele>969.8</ele>
        <time>2021-12-19T09:24:49Z</time>
      </trkpt>
      <trkpt lat="45.3488" lon="5.74926">
        <ele>969.8</ele>
        <time>2021-12-19T09:24:50Z</time>
      </trkpt>
      <trkpt lat="45.34879" lon="5.74927">
        <ele>969.8</ele>
        <time>2021-12-19T09:24:51Z</time>
      </trkpt>
      <trkpt lat="45.34877" lon="5.74928">
        <ele>969.8</ele>
        <time>2021-12-19T09:24:52Z</time>
      </trkpt>
      <trkpt lat="45.34876" lon="5.74929">
        <ele>969.8</ele>
        <time>2021-12-19T09:24:53Z</time>
      </trkpt>
      <trkpt lat="45.34875" lon="5.74931">
        <ele>969.8</ele>
        <time>2021-12-19T09:24:54Z</time>
      </trkpt>
      <trkpt lat="45.34874" lon="5.74932">
        <ele>969.7</ele>
        <time>2021-12-19T09:24:55Z</time>
      </trkpt>
      <trkpt lat="45.34873" lon="5.74933">
        <ele>969.7</ele>
        <time>2021-12-19T09:24:56Z</time>
      </trkpt>
      <trkpt lat="45.34872" lon="5.74935">
        <ele>969.7</ele>
        <time>2021-12-19T09:24:57Z</time>
      </trkpt>
      <trkpt lat="45.34871" lon="5.74935">
        <ele>969.7</ele>
        <time>2021-12-19T09:24:58Z</time>
      </trkpt>
      <trkpt lat="45.3487" lon="5.74936">
        <ele>969.7</ele>
        <time>2021-12-19T09:24:59Z</time>
      </trkpt>
      <trkpt lat="45.34869" lon="5.74937">
        <ele>969.7</ele>
        <time>2021-12-19T09:25:00Z</time>
      </trkpt>
      <trkpt lat="45.34869" lon="5.74938">
        <ele>969.7</ele>
        <time>2021-12-19T09:25:01Z</time>
      </trkpt>
      <trkpt lat="45.34868" lon="5.74938">
        <ele>969.7</ele>
        <time>2021-12-19T09:25:02Z</time>
      </trkpt>
      <trkpt lat="45.34867" lon="5.74939">
        <ele>969.7</ele>
        <time>2021-12-19T09:25:03Z</time>
      </trkpt>
      <trkpt lat="45.34867" lon="5.74939">
        <ele>969.7</ele>
        <time>2021-12-19T09:25:04Z</time>
      </trkpt>
      <trkpt lat="45.34866" lon="5.7494">
        <ele>969.7</ele>
        <time>2021-12-19T09:25:05Z</time>
      </trkpt>
      <trkpt lat="45.34865" lon="5.7494">
        <ele>969.7</ele>
        <time>2021-12-19T09:25:06Z</time>
      </trkpt>
      <trkpt lat="45.34864" lon="5.74941">
        <ele>969.6</ele>
        <time>2021-12-19T09:25:07Z</time>
      </trkpt>
      <trkpt lat="45.34862" lon="5.74942">
        <ele>969.6</ele>
        <time>2021-12-19T09:25:08Z</time>
      </trkpt>
      <trkpt lat="45.34861" lon="5.74942">
        <ele>969.6</ele>
        <time>2021-12-19T09:25:09Z</time>
      </trkpt>
      <trkpt lat="45.3486" lon="5.74943">
        <ele>969.6</ele>
        <time>2021-12-19T09:25:10Z</time>
      </trkpt>
      <trkpt lat="45.34859" lon="5.74944">
        <ele>969.6</ele>
        <time>2021-12-19T09:25:11Z</time>
      </trkpt>
      <trkpt lat="45.34858" lon="5.74944">
        <ele>969.6</ele>
        <time>2021-12-19T09:25:12Z</time>
      </trkpt>
      <trkpt lat="45.34857" lon="5.74946">
        <ele>969.6</ele>
        <time>2021-12-19T09:25:13Z</time>
      </trkpt>
      <trkpt lat="45.34857" lon="5.74946">
        <ele>969.6</ele>
        <time>2021-12-19T09:25:14Z</time>
      </trkpt>
      <trkpt lat="45.34856" lon="5.74947">
        <ele>969.6</ele>
        <time>2021-12-19T09:25:15Z</time>
      </trkpt>
      <trkpt lat="45.34855" lon="5.74947">
        <ele>969.6</ele>
        <time>2021-12-19T09:25:16Z</time>
      </trkpt>
      <trkpt lat="45.34855" lon="5.74947">
        <ele>969.6</ele>
        <time>2021-12-19T09:25:17Z</time>
      </trkpt>
      <trkpt lat="45.34853" lon="5.74948">
        <ele>969.6</ele>
        <time>2021-12-19T09:25:18Z</time>
      </trkpt>
      <trkpt lat="45.34852" lon="5.74948">
        <ele>970.3</ele>
        <time>2021-12-19T09:25:19Z</time>
      </trkpt>
      <trkpt lat="45.34852" lon="5.74948">
        <ele>970.4</ele>
        <time>2021-12-19T09:25:20Z</time>
      </trkpt>
      <trkpt lat="45.34851" lon="5.74948">
        <ele>970.5</ele>
        <time>2021-12-19T09:25:21Z</time>
      </trkpt>
      <trkpt lat="45.3485" lon="5.74948">
        <ele>970.6</ele>
        <time>2021-12-19T09:25:22Z</time>
      </trkpt>
      <trkpt lat="45.34849" lon="5.74948">
        <ele>970.7</ele>
        <time>2021-12-19T09:25:23Z</time>
      </trkpt>
      <trkpt lat="45.34848" lon="5.74948">
        <ele>970.8</ele>
        <time>2021-12-19T09:25:24Z</time>
      </trkpt>
      <trkpt lat="45.34847" lon="5.74949">
        <ele>970.9</ele>
        <time>2021-12-19T09:25:25Z</time>
      </trkpt>
      <trkpt lat="45.34847" lon="5.74949">
        <ele>971</ele>
        <time>2021-12-19T09:25:26Z</time>
      </trkpt>
      <trkpt lat="45.34846" lon="5.74949">
        <ele>971.1</ele>
        <time>2021-12-19T09:25:27Z</time>
      </trkpt>
      <trkpt lat="45.34845" lon="5.74948">
        <ele>971.2</ele>
        <time>2021-12-19T09:25:28Z</time>
      </trkpt>
      <trkpt lat="45.34844" lon="5.74948">
        <ele>971.3</ele>
        <time>2021-12-19T09:25:29Z</time>
      </trkpt>
      <trkpt lat="45.34843" lon="5.74948">
        <ele>971.4</ele>
        <time>2021-12-19T09:25:30Z</time>
      </trkpt>
      <trkpt lat="45.34843" lon="5.74947">
        <ele>971.5</ele>
        <time>2021-12-19T09:25:31Z</time>
      </trkpt>
      <trkpt lat="45.34842" lon="5.74947">
        <ele>971.6</ele>
        <time>2021-12-19T09:25:32Z</time>
      </trkpt>
      <trkpt lat="45.34842" lon="5.74946">
        <ele>971.7</ele>
        <time>2021-12-19T09:25:33Z</time>
      </trkpt>
      <trkpt lat="45.34841" lon="5.74946">
        <ele>971.7</ele>
        <time>2021-12-19T09:25:34Z</time>
      </trkpt>
      <trkpt lat="45.34841" lon="5.74946">
        <ele>971.8</ele>
        <time>2021-12-19T09:25:35Z</time>
      </trkpt>
      <trkpt lat="45.34841" lon="5.74945">
        <ele>971.8</ele>
        <time>2021-12-19T09:25:36Z</time>
      </trkpt>
      <trkpt lat="45.34841" lon="5.74944">
        <ele>971.9</ele>
        <time>2021-12-19T09:25:37Z</time>
      </trkpt>
      <trkpt lat="45.3484" lon="5.74943">
        <ele>972</ele>
        <time>2021-12-19T09:25:38Z</time>
      </trkpt>
      <trkpt lat="45.3484" lon="5.74942">
        <ele>972.1</ele>
        <time>2021-12-19T09:25:39Z</time>
      </trkpt>
      <trkpt lat="45.34841" lon="5.7494">
        <ele>972.2</ele>
        <time>2021-12-19T09:25:40Z</time>
      </trkpt>
      <trkpt lat="45.34841" lon="5.74939">
        <ele>972.3</ele>
        <time>2021-12-19T09:25:41Z</time>
      </trkpt>
      <trkpt lat="45.34841" lon="5.74938">
        <ele>972.4</ele>
        <time>2021-12-19T09:25:42Z</time>
      </trkpt>
      <trkpt lat="45.34841" lon="5.74936">
        <ele>972.6</ele>
        <time>2021-12-19T09:25:43Z</time>
      </trkpt>
      <trkpt lat="45.34841" lon="5.74935">
        <ele>972.7</ele>
        <time>2021-12-19T09:25:44Z</time>
      </trkpt>
      <trkpt lat="45.34842" lon="5.74934">
        <ele>972.8</ele>
        <time>2021-12-19T09:25:45Z</time>
      </trkpt>
      <trkpt lat="45.34842" lon="5.74932">
        <ele>972.9</ele>
        <time>2021-12-19T09:25:46Z</time>
      </trkpt>
      <trkpt lat="45.34842" lon="5.74931">
        <ele>973</ele>
        <time>2021-12-19T09:25:47Z</time>
      </trkpt>
      <trkpt lat="45.34843" lon="5.7493">
        <ele>973.1</ele>
        <time>2021-12-19T09:25:48Z</time>
      </trkpt>
      <trkpt lat="45.34843" lon="5.74929">
        <ele>973.2</ele>
        <time>2021-12-19T09:25:49Z</time>
      </trkpt>
      <trkpt lat="45.34843" lon="5.74928">
        <ele>973.3</ele>
        <time>2021-12-19T09:25:50Z</time>
      </trkpt>
      <trkpt lat="45.34843" lon="5.74927">
        <ele>973.4</ele>
        <time>2021-12-19T09:25:51Z</time>
      </trkpt>
      <trkpt lat="45.34842" lon="5.74926">
        <ele>973.5</ele>
        <time>2021-12-19T09:25:52Z</time>
      </trkpt>
      <trkpt lat="45.34843" lon="5.74924">
        <ele>973.5</ele>
        <time>2021-12-19T09:25:53Z</time>
      </trkpt>
      <trkpt lat="45.34843" lon="5.74923">
        <ele>973.7</ele>
        <time>2021-12-19T09:25:54Z</time>
      </trkpt>
      <trkpt lat="45.34843" lon="5.74922">
        <ele>973.8</ele>
        <time>2021-12-19T09:25:55Z</time>
      </trkpt>
      <trkpt lat="45.34843" lon="5.7492">
        <ele>973.9</ele>
        <time>2021-12-19T09:25:56Z</time>
      </trkpt>
      <trkpt lat="45.34843" lon="5.74919">
        <ele>974</ele>
        <time>2021-12-19T09:25:57Z</time>
      </trkpt>
      <trkpt lat="45.34844" lon="5.74917">
        <ele>974.1</ele>
        <time>2021-12-19T09:25:58Z</time>
      </trkpt>
      <trkpt lat="45.34844" lon="5.74916">
        <ele>974.2</ele>
        <time>2021-12-19T09:25:59Z</time>
      </trkpt>
      <trkpt lat="45.34844" lon="5.74915">
        <ele>974.3</ele>
        <time>2021-12-19T09:26:00Z</time>
      </trkpt>
      <trkpt lat="45.34844" lon="5.74913">
        <ele>974.4</ele>
        <time>2021-12-19T09:26:01Z</time>
      </trkpt>
      <trkpt lat="45.34844" lon="5.74912">
        <ele>974.5</ele>
        <time>2021-12-19T09:26:02Z</time>
      </trkpt>
      <trkpt lat="45.34844" lon="5.74911">
        <ele>974.6</ele>
        <time>2021-12-19T09:26:03Z</time>
      </trkpt>
      <trkpt lat="45.34844" lon="5.74909">
        <ele>974.7</ele>
        <time>2021-12-19T09:26:04Z</time>
      </trkpt>
      <trkpt lat="45.34844" lon="5.74908">
        <ele>974.8</ele>
        <time>2021-12-19T09:26:05Z</time>
      </trkpt>
      <trkpt lat="45.34844" lon="5.74906">
        <ele>974.9</ele>
        <time>2021-12-19T09:26:06Z</time>
      </trkpt>
      <trkpt lat="45.34844" lon="5.74905">
        <ele>975</ele>
        <time>2021-12-19T09:26:07Z</time>
      </trkpt>
      <trkpt lat="45.34844" lon="5.74904">
        <ele>975.1</ele>
        <time>2021-12-19T09:26:08Z</time>
      </trkpt>
      <trkpt lat="45.34845" lon="5.74903">
        <ele>975.2</ele>
        <time>2021-12-19T09:26:09Z</time>
      </trkpt>
      <trkpt lat="45.34845" lon="5.74901">
        <ele>975.3</ele>
        <time>2021-12-19T09:26:10Z</time>
      </trkpt>
      <trkpt lat="45.34845" lon="5.749">
        <ele>975.4</ele>
        <time>2021-12-19T09:26:11Z</time>
      </trkpt>
      <trkpt lat="45.34845" lon="5.74898">
        <ele>975.5</ele>
        <time>2021-12-19T09:26:12Z</time>
      </trkpt>
      <trkpt lat="45.34845" lon="5.74897">
        <ele>975.5</ele>
        <time>2021-12-19T09:26:13Z</time>
      </trkpt>
      <trkpt lat="45.34845" lon="5.74896">
        <ele>975.6</ele>
        <time>2021-12-19T09:26:14Z</time>
      </trkpt>
      <trkpt lat="45.34845" lon="5.74895">
        <ele>975.7</ele>
        <time>2021-12-19T09:26:15Z</time>
      </trkpt>
      <trkpt lat="45.34845" lon="5.74894">
        <ele>975.8</ele>
        <time>2021-12-19T09:26:16Z</time>
      </trkpt>
      <trkpt lat="45.34846" lon="5.74893">
        <ele>975.9</ele>
        <time>2021-12-19T09:26:17Z</time>
      </trkpt>
      <trkpt lat="45.34846" lon="5.74892">
        <ele>975.9</ele>
        <time>2021-12-19T09:26:18Z</time>
      </trkpt>
      <trkpt lat="45.34845" lon="5.74891">
        <ele>976</ele>
        <time>2021-12-19T09:26:19Z</time>
      </trkpt>
      <trkpt lat="45.34846" lon="5.7489">
        <ele>976</ele>
        <time>2021-12-19T09:26:20Z</time>
      </trkpt>
      <trkpt lat="45.34847" lon="5.74889">
        <ele>976.2</ele>
        <time>2021-12-19T09:26:21Z</time>
      </trkpt>
      <trkpt lat="45.34848" lon="5.74889">
        <ele>976.2</ele>
        <time>2021-12-19T09:26:22Z</time>
      </trkpt>
      <trkpt lat="45.34848" lon="5.74888">
        <ele>976.3</ele>
        <time>2021-12-19T09:26:23Z</time>
      </trkpt>
      <trkpt lat="45.34849" lon="5.74887">
        <ele>976.4</ele>
        <time>2021-12-19T09:26:24Z</time>
      </trkpt>
      <trkpt lat="45.34849" lon="5.74886">
        <ele>976.4</ele>
        <time>2021-12-19T09:26:25Z</time>
      </trkpt>
      <trkpt lat="45.34849" lon="5.74885">
        <ele>976.5</ele>
        <time>2021-12-19T09:26:26Z</time>
      </trkpt>
      <trkpt lat="45.3485" lon="5.74884">
        <ele>976.6</ele>
        <time>2021-12-19T09:26:27Z</time>
      </trkpt>
      <trkpt lat="45.3485" lon="5.74882">
        <ele>976.7</ele>
        <time>2021-12-19T09:26:28Z</time>
      </trkpt>
      <trkpt lat="45.34851" lon="5.74881">
        <ele>976.8</ele>
        <time>2021-12-19T09:26:29Z</time>
      </trkpt>
      <trkpt lat="45.34852" lon="5.74879">
        <ele>976.9</ele>
        <time>2021-12-19T09:26:30Z</time>
      </trkpt>
      <trkpt lat="45.34852" lon="5.74878">
        <ele>977</ele>
        <time>2021-12-19T09:26:31Z</time>
      </trkpt>
      <trkpt lat="45.34852" lon="5.74877">
        <ele>977.1</ele>
        <time>2021-12-19T09:26:32Z</time>
      </trkpt>
      <trkpt lat="45.34853" lon="5.74876">
        <ele>977.2</ele>
        <time>2021-12-19T09:26:33Z</time>
      </trkpt>
      <trkpt lat="45.34853" lon="5.74875">
        <ele>977.2</ele>
        <time>2021-12-19T09:26:34Z</time>
      </trkpt>
      <trkpt lat="45.34854" lon="5.74874">
        <ele>977.3</ele>
        <time>2021-12-19T09:26:35Z</time>
      </trkpt>
      <trkpt lat="45.34854" lon="5.74873">
        <ele>977.4</ele>
        <time>2021-12-19T09:26:36Z</time>
      </trkpt>
      <trkpt lat="45.34855" lon="5.74873">
        <ele>977.4</ele>
        <time>2021-12-19T09:26:37Z</time>
      </trkpt>
      <trkpt lat="45.34855" lon="5.74872">
        <ele>977.5</ele>
        <time>2021-12-19T09:26:38Z</time>
      </trkpt>
      <trkpt lat="45.34855" lon="5.74871">
        <ele>977.5</ele>
        <time>2021-12-19T09:26:39Z</time>
      </trkpt>
      <trkpt lat="45.34856" lon="5.74871">
        <ele>977.6</ele>
        <time>2021-12-19T09:26:40Z</time>
      </trkpt>
      <trkpt lat="45.34856" lon="5.7487">
        <ele>977.6</ele>
        <time>2021-12-19T09:26:41Z</time>
      </trkpt>
      <trkpt lat="45.34856" lon="5.7487">
        <ele>977.6</ele>
        <time>2021-12-19T09:26:42Z</time>
      </trkpt>
      <trkpt lat="45.34856" lon="5.74869">
        <ele>977.7</ele>
        <time>2021-12-19T09:26:43Z</time>
      </trkpt>
      <trkpt lat="45.34857" lon="5.74869">
        <ele>977.7</ele>
        <time>2021-12-19T09:26:44Z</time>
      </trkpt>
      <trkpt lat="45.34857" lon="5.74869">
        <ele>977.8</ele>
        <time>2021-12-19T09:26:45Z</time>
      </trkpt>
      <trkpt lat="45.34857" lon="5.74868">
        <ele>977.8</ele>
        <time>2021-12-19T09:26:46Z</time>
      </trkpt>
      <trkpt lat="45.34857" lon="5.74868">
        <ele>977.8</ele>
        <time>2021-12-19T09:26:47Z</time>
      </trkpt>
      <trkpt lat="45.34858" lon="5.74867">
        <ele>977.9</ele>
        <time>2021-12-19T09:26:48Z</time>
      </trkpt>
      <trkpt lat="45.34858" lon="5.74866">
        <ele>977.9</ele>
        <time>2021-12-19T09:26:49Z</time>
      </trkpt>
      <trkpt lat="45.34859" lon="5.74866">
        <ele>978.1</ele>
        <time>2021-12-19T09:26:50Z</time>
      </trkpt>
      <trkpt lat="45.34859" lon="5.74865">
        <ele>978.4</ele>
        <time>2021-12-19T09:26:51Z</time>
      </trkpt>
      <trkpt lat="45.34859" lon="5.74864">
        <ele>978.6</ele>
        <time>2021-12-19T09:26:52Z</time>
      </trkpt>
      <trkpt lat="45.34859" lon="5.74863">
        <ele>978.9</ele>
        <time>2021-12-19T09:26:53Z</time>
      </trkpt>
      <trkpt lat="45.3486" lon="5.74862">
        <ele>979.1</ele>
        <time>2021-12-19T09:26:54Z</time>
      </trkpt>
      <trkpt lat="45.3486" lon="5.74861">
        <ele>979.4</ele>
        <time>2021-12-19T09:26:55Z</time>
      </trkpt>
      <trkpt lat="45.3486" lon="5.7486">
        <ele>979.7</ele>
        <time>2021-12-19T09:26:56Z</time>
      </trkpt>
      <trkpt lat="45.3486" lon="5.74858">
        <ele>980.2</ele>
        <time>2021-12-19T09:26:57Z</time>
      </trkpt>
      <trkpt lat="45.34861" lon="5.74857">
        <ele>980.5</ele>
        <time>2021-12-19T09:26:58Z</time>
      </trkpt>
      <trkpt lat="45.34862" lon="5.74855">
        <ele>981</ele>
        <time>2021-12-19T09:26:59Z</time>
      </trkpt>
      <trkpt lat="45.34862" lon="5.74854">
        <ele>981.3</ele>
        <time>2021-12-19T09:27:00Z</time>
      </trkpt>
      <trkpt lat="45.34863" lon="5.74853">
        <ele>981.6</ele>
        <time>2021-12-19T09:27:01Z</time>
      </trkpt>
      <trkpt lat="45.34863" lon="5.74853">
        <ele>981.8</ele>
        <time>2021-12-19T09:27:02Z</time>
      </trkpt>
      <trkpt lat="45.34864" lon="5.74852">
        <ele>982.1</ele>
        <time>2021-12-19T09:27:03Z</time>
      </trkpt>
      <trkpt lat="45.34865" lon="5.74852">
        <ele>982.3</ele>
        <time>2021-12-19T09:27:04Z</time>
      </trkpt>
      <trkpt lat="45.34865" lon="5.74851">
        <ele>982.5</ele>
        <time>2021-12-19T09:27:05Z</time>
      </trkpt>
      <trkpt lat="45.34866" lon="5.74851">
        <ele>982.8</ele>
        <time>2021-12-19T09:27:06Z</time>
      </trkpt>
      <trkpt lat="45.34867" lon="5.7485">
        <ele>983.1</ele>
        <time>2021-12-19T09:27:07Z</time>
      </trkpt>
      <trkpt lat="45.34867" lon="5.74849">
        <ele>983.3</ele>
        <time>2021-12-19T09:27:08Z</time>
      </trkpt>
      <trkpt lat="45.34868" lon="5.74849">
        <ele>983.5</ele>
        <time>2021-12-19T09:27:09Z</time>
      </trkpt>
      <trkpt lat="45.34869" lon="5.74848">
        <ele>983.8</ele>
        <time>2021-12-19T09:27:10Z</time>
      </trkpt>
      <trkpt lat="45.34869" lon="5.74847">
        <ele>984</ele>
        <time>2021-12-19T09:27:11Z</time>
      </trkpt>
      <trkpt lat="45.3487" lon="5.74847">
        <ele>984.2</ele>
        <time>2021-12-19T09:27:12Z</time>
      </trkpt>
      <trkpt lat="45.3487" lon="5.74847">
        <ele>984.4</ele>
        <time>2021-12-19T09:27:13Z</time>
      </trkpt>
      <trkpt lat="45.34871" lon="5.74846">
        <ele>984.6</ele>
        <time>2021-12-19T09:27:14Z</time>
      </trkpt>
      <trkpt lat="45.34871" lon="5.74846">
        <ele>984.7</ele>
        <time>2021-12-19T09:27:15Z</time>
      </trkpt>
      <trkpt lat="45.34871" lon="5.74846">
        <ele>984.7</ele>
        <time>2021-12-19T09:27:16Z</time>
      </trkpt>
      <trkpt lat="45.34871" lon="5.74845">
        <ele>984.8</ele>
        <time>2021-12-19T09:27:17Z</time>
      </trkpt>
      <trkpt lat="45.34872" lon="5.74845">
        <ele>985.1</ele>
        <time>2021-12-19T09:27:18Z</time>
      </trkpt>
      <trkpt lat="45.34872" lon="5.74845">
        <ele>985.2</ele>
        <time>2021-12-19T09:27:19Z</time>
      </trkpt>
      <trkpt lat="45.34872" lon="5.74845">
        <ele>985.3</ele>
        <time>2021-12-19T09:27:20Z</time>
      </trkpt>
      <trkpt lat="45.34873" lon="5.74845">
        <ele>985.6</ele>
        <time>2021-12-19T09:27:21Z</time>
      </trkpt>
      <trkpt lat="45.34873" lon="5.74845">
        <ele>985.6</ele>
        <time>2021-12-19T09:27:22Z</time>
      </trkpt>
      <trkpt lat="45.34873" lon="5.74845">
        <ele>985.8</ele>
        <time>2021-12-19T09:27:23Z</time>
      </trkpt>
      <trkpt lat="45.34873" lon="5.74844">
        <ele>985.9</ele>
        <time>2021-12-19T09:27:24Z</time>
      </trkpt>
      <trkpt lat="45.34873" lon="5.74843">
        <ele>986.1</ele>
        <time>2021-12-19T09:27:25Z</time>
      </trkpt>
      <trkpt lat="45.34873" lon="5.74843">
        <ele>986.2</ele>
        <time>2021-12-19T09:27:26Z</time>
      </trkpt>
      <trkpt lat="45.34873" lon="5.74842">
        <ele>986.4</ele>
        <time>2021-12-19T09:27:27Z</time>
      </trkpt>
      <trkpt lat="45.34874" lon="5.7484">
        <ele>986.7</ele>
        <time>2021-12-19T09:27:28Z</time>
      </trkpt>
      <trkpt lat="45.34874" lon="5.74839">
        <ele>987.1</ele>
        <time>2021-12-19T09:27:29Z</time>
      </trkpt>
      <trkpt lat="45.34874" lon="5.74837">
        <ele>987.4</ele>
        <time>2021-12-19T09:27:30Z</time>
      </trkpt>
      <trkpt lat="45.34875" lon="5.74836">
        <ele>987.6</ele>
        <time>2021-12-19T09:27:31Z</time>
      </trkpt>
      <trkpt lat="45.34875" lon="5.74835">
        <ele>987.8</ele>
        <time>2021-12-19T09:27:32Z</time>
      </trkpt>
      <trkpt lat="45.34875" lon="5.74834">
        <ele>988</ele>
        <time>2021-12-19T09:27:33Z</time>
      </trkpt>
      <trkpt lat="45.34876" lon="5.74834">
        <ele>988</ele>
        <time>2021-12-19T09:27:34Z</time>
      </trkpt>
      <trkpt lat="45.34876" lon="5.74834">
        <ele>988.1</ele>
        <time>2021-12-19T09:27:35Z</time>
      </trkpt>
      <trkpt lat="45.34876" lon="5.74834">
        <ele>988.1</ele>
        <time>2021-12-19T09:27:36Z</time>
      </trkpt>
      <trkpt lat="45.34876" lon="5.74833">
        <ele>988.2</ele>
        <time>2021-12-19T09:27:37Z</time>
      </trkpt>
      <trkpt lat="45.34876" lon="5.74833">
        <ele>988.3</ele>
        <time>2021-12-19T09:27:38Z</time>
      </trkpt>
      <trkpt lat="45.34876" lon="5.74833">
        <ele>988.3</ele>
        <time>2021-12-19T09:27:39Z</time>
      </trkpt>
      <trkpt lat="45.34876" lon="5.74832">
        <ele>988.4</ele>
        <time>2021-12-19T09:27:40Z</time>
      </trkpt>
      <trkpt lat="45.34876" lon="5.74831">
        <ele>988.6</ele>
        <time>2021-12-19T09:27:41Z</time>
      </trkpt>
      <trkpt lat="45.34876" lon="5.74831">
        <ele>988.7</ele>
        <time>2021-12-19T09:27:42Z</time>
      </trkpt>
      <trkpt lat="45.34876" lon="5.7483">
        <ele>988.9</ele>
        <time>2021-12-19T09:27:43Z</time>
      </trkpt>
      <trkpt lat="45.34876" lon="5.74829">
        <ele>989</ele>
        <time>2021-12-19T09:27:44Z</time>
      </trkpt>
      <trkpt lat="45.34877" lon="5.74829">
        <ele>989.1</ele>
        <time>2021-12-19T09:27:45Z</time>
      </trkpt>
      <trkpt lat="45.34877" lon="5.74829">
        <ele>989.1</ele>
        <time>2021-12-19T09:27:46Z</time>
      </trkpt>
      <trkpt lat="45.34877" lon="5.74829">
        <ele>989.1</ele>
        <time>2021-12-19T09:27:47Z</time>
      </trkpt>
      <trkpt lat="45.34877" lon="5.74829">
        <ele>989.1</ele>
        <time>2021-12-19T09:27:48Z</time>
      </trkpt>
      <trkpt lat="45.34877" lon="5.74828">
        <ele>989.1</ele>
        <time>2021-12-19T09:27:49Z</time>
      </trkpt>
      <trkpt lat="45.34877" lon="5.74828">
        <ele>989.1</ele>
        <time>2021-12-19T09:27:50Z</time>
      </trkpt>
      <trkpt lat="45.34877" lon="5.74828">
        <ele>989.2</ele>
        <time>2021-12-19T09:27:51Z</time>
      </trkpt>
      <trkpt lat="45.34877" lon="5.74828">
        <ele>989.2</ele>
        <time>2021-12-19T09:27:52Z</time>
      </trkpt>
      <trkpt lat="45.34877" lon="5.74828">
        <ele>989.2</ele>
        <time>2021-12-19T09:27:53Z</time>
      </trkpt>
      <trkpt lat="45.34877" lon="5.74828">
        <ele>989.3</ele>
        <time>2021-12-19T09:27:54Z</time>
      </trkpt>
      <trkpt lat="45.34877" lon="5.74828">
        <ele>989.3</ele>
        <time>2021-12-19T09:27:55Z</time>
      </trkpt>
      <trkpt lat="45.34877" lon="5.74828">
        <ele>989.4</ele>
        <time>2021-12-19T09:27:56Z</time>
      </trkpt>
      <trkpt lat="45.34877" lon="5.74828">
        <ele>989.4</ele>
        <time>2021-12-19T09:27:57Z</time>
      </trkpt>
      <trkpt lat="45.34877" lon="5.74828">
        <ele>989.4</ele>
        <time>2021-12-19T09:27:58Z</time>
      </trkpt>
      <trkpt lat="45.34877" lon="5.74828">
        <ele>989.4</ele>
        <time>2021-12-19T09:27:59Z</time>
      </trkpt>
      <trkpt lat="45.34877" lon="5.74828">
        <ele>989.4</ele>
        <time>2021-12-19T09:28:00Z</time>
      </trkpt>
      <trkpt lat="45.34877" lon="5.74827">
        <ele>989.5</ele>
        <time>2021-12-19T09:28:01Z</time>
      </trkpt>
      <trkpt lat="45.34878" lon="5.74828">
        <ele>989.5</ele>
        <time>2021-12-19T09:28:02Z</time>
      </trkpt>
      <trkpt lat="45.34878" lon="5.74828">
        <ele>989.5</ele>
        <time>2021-12-19T09:28:03Z</time>
      </trkpt>
      <trkpt lat="45.34878" lon="5.74828">
        <ele>989.5</ele>
        <time>2021-12-19T09:28:04Z</time>
      </trkpt>
      <trkpt lat="45.34878" lon="5.74828">
        <ele>989.5</ele>
        <time>2021-12-19T09:28:05Z</time>
      </trkpt>
      <trkpt lat="45.34878" lon="5.74828">
        <ele>989.5</ele>
        <time>2021-12-19T09:28:06Z</time>
      </trkpt>
      <trkpt lat="45.34878" lon="5.74828">
        <ele>989.5</ele>
        <time>2021-12-19T09:28:07Z</time>
      </trkpt>
      <trkpt lat="45.34878" lon="5.74828">
        <ele>989.5</ele>
        <time>2021-12-19T09:28:08Z</time>
      </trkpt>
      <trkpt lat="45.34878" lon="5.74828">
        <ele>989.6</ele>
        <time>2021-12-19T09:28:09Z</time>
      </trkpt>
      <trkpt lat="45.34878" lon="5.74828">
        <ele>989.6</ele>
        <time>2021-12-19T09:28:10Z</time>
      </trkpt>
      <trkpt lat="45.34878" lon="5.74828">
        <ele>989.6</ele>
        <time>2021-12-19T09:28:11Z</time>
      </trkpt>
      <trkpt lat="45.34878" lon="5.74828">
        <ele>989.6</ele>
        <time>2021-12-19T09:28:12Z</time>
      </trkpt>
      <trkpt lat="45.34878" lon="5.74827">
        <ele>989.7</ele>
        <time>2021-12-19T09:28:13Z</time>
      </trkpt>
      <trkpt lat="45.34878" lon="5.74827">
        <ele>989.8</ele>
        <time>2021-12-19T09:28:14Z</time>
      </trkpt>
      <trkpt lat="45.34878" lon="5.74825">
        <ele>990</ele>
        <time>2021-12-19T09:28:15Z</time>
      </trkpt>
      <trkpt lat="45.34879" lon="5.74824">
        <ele>990.1</ele>
        <time>2021-12-19T09:28:16Z</time>
      </trkpt>
      <trkpt lat="45.34879" lon="5.74823">
        <ele>990.3</ele>
        <time>2021-12-19T09:28:17Z</time>
      </trkpt>
      <trkpt lat="45.34879" lon="5.74822">
        <ele>990.5</ele>
        <time>2021-12-19T09:28:18Z</time>
      </trkpt>
      <trkpt lat="45.34879" lon="5.74821">
        <ele>990.6</ele>
        <time>2021-12-19T09:28:19Z</time>
      </trkpt>
      <trkpt lat="45.34879" lon="5.74819">
        <ele>990.9</ele>
        <time>2021-12-19T09:28:20Z</time>
      </trkpt>
      <trkpt lat="45.34879" lon="5.74817">
        <ele>991.1</ele>
        <time>2021-12-19T09:28:21Z</time>
      </trkpt>
      <trkpt lat="45.34879" lon="5.74816">
        <ele>991.3</ele>
        <time>2021-12-19T09:28:22Z</time>
      </trkpt>
      <trkpt lat="45.34879" lon="5.74815">
        <ele>991.5</ele>
        <time>2021-12-19T09:28:23Z</time>
      </trkpt>
      <trkpt lat="45.3488" lon="5.74814">
        <ele>991.6</ele>
        <time>2021-12-19T09:28:24Z</time>
      </trkpt>
      <trkpt lat="45.3488" lon="5.74813">
        <ele>991.7</ele>
        <time>2021-12-19T09:28:25Z</time>
      </trkpt>
      <trkpt lat="45.3488" lon="5.74812">
        <ele>991.9</ele>
        <time>2021-12-19T09:28:26Z</time>
      </trkpt>
      <trkpt lat="45.34879" lon="5.74811">
        <ele>992</ele>
        <time>2021-12-19T09:28:27Z</time>
      </trkpt>
      <trkpt lat="45.34879" lon="5.7481">
        <ele>992.2</ele>
        <time>2021-12-19T09:28:28Z</time>
      </trkpt>
      <trkpt lat="45.34879" lon="5.74809">
        <ele>992.3</ele>
        <time>2021-12-19T09:28:29Z</time>
      </trkpt>
      <trkpt lat="45.34879" lon="5.74809">
        <ele>992.4</ele>
        <time>2021-12-19T09:28:30Z</time>
      </trkpt>
      <trkpt lat="45.34878" lon="5.74808">
        <ele>992.5</ele>
        <time>2021-12-19T09:28:31Z</time>
      </trkpt>
      <trkpt lat="45.34877" lon="5.74808">
        <ele>992.7</ele>
        <time>2021-12-19T09:28:32Z</time>
      </trkpt>
      <trkpt lat="45.34877" lon="5.74807">
        <ele>992.8</ele>
        <time>2021-12-19T09:28:33Z</time>
      </trkpt>
      <trkpt lat="45.34877" lon="5.74806">
        <ele>992.9</ele>
        <time>2021-12-19T09:28:34Z</time>
      </trkpt>
      <trkpt lat="45.34876" lon="5.74805">
        <ele>993.1</ele>
        <time>2021-12-19T09:28:35Z</time>
      </trkpt>
      <trkpt lat="45.34876" lon="5.74804">
        <ele>993.2</ele>
        <time>2021-12-19T09:28:36Z</time>
      </trkpt>
      <trkpt lat="45.34875" lon="5.74803">
        <ele>993.4</ele>
        <time>2021-12-19T09:28:37Z</time>
      </trkpt>
      <trkpt lat="45.34875" lon="5.74802">
        <ele>993.5</ele>
        <time>2021-12-19T09:28:38Z</time>
      </trkpt>
      <trkpt lat="45.34874" lon="5.74801">
        <ele>993.7</ele>
        <time>2021-12-19T09:28:39Z</time>
      </trkpt>
      <trkpt lat="45.34874" lon="5.748">
        <ele>993.9</ele>
        <time>2021-12-19T09:28:40Z</time>
      </trkpt>
      <trkpt lat="45.34874" lon="5.74799">
        <ele>994.1</ele>
        <time>2021-12-19T09:28:41Z</time>
      </trkpt>
      <trkpt lat="45.34874" lon="5.74798">
        <ele>994.3</ele>
        <time>2021-12-19T09:28:42Z</time>
      </trkpt>
      <trkpt lat="45.34873" lon="5.74796">
        <ele>994.5</ele>
        <time>2021-12-19T09:28:43Z</time>
      </trkpt>
      <trkpt lat="45.34872" lon="5.74795">
        <ele>994.7</ele>
        <time>2021-12-19T09:28:44Z</time>
      </trkpt>
      <trkpt lat="45.34872" lon="5.74794">
        <ele>994.8</ele>
        <time>2021-12-19T09:28:45Z</time>
      </trkpt>
      <trkpt lat="45.34872" lon="5.74793">
        <ele>995</ele>
        <time>2021-12-19T09:28:46Z</time>
      </trkpt>
      <trkpt lat="45.34872" lon="5.74792">
        <ele>995.1</ele>
        <time>2021-12-19T09:28:47Z</time>
      </trkpt>
      <trkpt lat="45.34871" lon="5.74791">
        <ele>995.3</ele>
        <time>2021-12-19T09:28:48Z</time>
      </trkpt>
      <trkpt lat="45.34871" lon="5.74789">
        <ele>995.5</ele>
        <time>2021-12-19T09:28:49Z</time>
      </trkpt>
      <trkpt lat="45.34871" lon="5.74788">
        <ele>995.6</ele>
        <time>2021-12-19T09:28:50Z</time>
      </trkpt>
      <trkpt lat="45.3487" lon="5.74787">
        <ele>995.9</ele>
        <time>2021-12-19T09:28:51Z</time>
      </trkpt>
      <trkpt lat="45.34869" lon="5.74786">
        <ele>996</ele>
        <time>2021-12-19T09:28:52Z</time>
      </trkpt>
      <trkpt lat="45.34869" lon="5.74785">
        <ele>996.2</ele>
        <time>2021-12-19T09:28:53Z</time>
      </trkpt>
      <trkpt lat="45.34869" lon="5.74784">
        <ele>996.3</ele>
        <time>2021-12-19T09:28:54Z</time>
      </trkpt>
      <trkpt lat="45.34869" lon="5.74783">
        <ele>996.5</ele>
        <time>2021-12-19T09:28:55Z</time>
      </trkpt>
      <trkpt lat="45.34868" lon="5.74781">
        <ele>996.8</ele>
        <time>2021-12-19T09:28:56Z</time>
      </trkpt>
      <trkpt lat="45.34868" lon="5.7478">
        <ele>996.9</ele>
        <time>2021-12-19T09:28:57Z</time>
      </trkpt>
      <trkpt lat="45.34868" lon="5.74779">
        <ele>997.1</ele>
        <time>2021-12-19T09:28:58Z</time>
      </trkpt>
      <trkpt lat="45.34867" lon="5.74778">
        <ele>997.3</ele>
        <time>2021-12-19T09:28:59Z</time>
      </trkpt>
      <trkpt lat="45.34867" lon="5.74776">
        <ele>997.4</ele>
        <time>2021-12-19T09:29:00Z</time>
      </trkpt>
      <trkpt lat="45.34867" lon="5.74775">
        <ele>997.6</ele>
        <time>2021-12-19T09:29:01Z</time>
      </trkpt>
      <trkpt lat="45.34867" lon="5.74774">
        <ele>997.8</ele>
        <time>2021-12-19T09:29:02Z</time>
      </trkpt>
      <trkpt lat="45.34867" lon="5.74773">
        <ele>997.9</ele>
        <time>2021-12-19T09:29:03Z</time>
      </trkpt>
      <trkpt lat="45.34867" lon="5.74772">
        <ele>998.1</ele>
        <time>2021-12-19T09:29:04Z</time>
      </trkpt>
      <trkpt lat="45.34867" lon="5.74771">
        <ele>998.3</ele>
        <time>2021-12-19T09:29:05Z</time>
      </trkpt>
      <trkpt lat="45.34867" lon="5.7477">
        <ele>998.4</ele>
        <time>2021-12-19T09:29:06Z</time>
      </trkpt>
      <trkpt lat="45.34867" lon="5.74768">
        <ele>998.6</ele>
        <time>2021-12-19T09:29:07Z</time>
      </trkpt>
      <trkpt lat="45.34866" lon="5.74767">
        <ele>998.7</ele>
        <time>2021-12-19T09:29:08Z</time>
      </trkpt>
      <trkpt lat="45.34866" lon="5.74766">
        <ele>998.9</ele>
        <time>2021-12-19T09:29:09Z</time>
      </trkpt>
      <trkpt lat="45.34866" lon="5.74765">
        <ele>999.1</ele>
        <time>2021-12-19T09:29:10Z</time>
      </trkpt>
      <trkpt lat="45.34866" lon="5.74763">
        <ele>999.3</ele>
        <time>2021-12-19T09:29:11Z</time>
      </trkpt>
      <trkpt lat="45.34866" lon="5.74762">
        <ele>999.4</ele>
        <time>2021-12-19T09:29:12Z</time>
      </trkpt>
      <trkpt lat="45.34865" lon="5.74761">
        <ele>999.6</ele>
        <time>2021-12-19T09:29:13Z</time>
      </trkpt>
      <trkpt lat="45.34865" lon="5.74759">
        <ele>999.9</ele>
        <time>2021-12-19T09:29:14Z</time>
      </trkpt>
      <trkpt lat="45.34865" lon="5.74758">
        <ele>1000</ele>
        <time>2021-12-19T09:29:15Z</time>
      </trkpt>
      <trkpt lat="45.34864" lon="5.74757">
        <ele>1000.2</ele>
        <time>2021-12-19T09:29:16Z</time>
      </trkpt>
      <trkpt lat="45.34864" lon="5.74757">
        <ele>1000.2</ele>
        <time>2021-12-19T09:29:17Z</time>
      </trkpt>
      <trkpt lat="45.34864" lon="5.74757">
        <ele>1000.2</ele>
        <time>2021-12-19T09:29:18Z</time>
      </trkpt>
      <trkpt lat="45.34864" lon="5.74757">
        <ele>1000.3</ele>
        <time>2021-12-19T09:29:19Z</time>
      </trkpt>
      <trkpt lat="45.34864" lon="5.74757">
        <ele>1000.3</ele>
        <time>2021-12-19T09:29:20Z</time>
      </trkpt>
      <trkpt lat="45.34865" lon="5.74757">
        <ele>1000.4</ele>
        <time>2021-12-19T09:29:21Z</time>
      </trkpt>
      <trkpt lat="45.34865" lon="5.74757">
        <ele>1000.5</ele>
        <time>2021-12-19T09:29:22Z</time>
      </trkpt>
      <trkpt lat="45.34865" lon="5.74757">
        <ele>1000.5</ele>
        <time>2021-12-19T09:29:23Z</time>
      </trkpt>
      <trkpt lat="45.34866" lon="5.74757">
        <ele>1000.6</ele>
        <time>2021-12-19T09:29:24Z</time>
      </trkpt>
      <trkpt lat="45.34866" lon="5.74757">
        <ele>1000.6</ele>
        <time>2021-12-19T09:29:25Z</time>
      </trkpt>
      <trkpt lat="45.34866" lon="5.74757">
        <ele>1000.6</ele>
        <time>2021-12-19T09:29:26Z</time>
      </trkpt>
      <trkpt lat="45.34866" lon="5.74756">
        <ele>1000.7</ele>
        <time>2021-12-19T09:29:27Z</time>
      </trkpt>
      <trkpt lat="45.34866" lon="5.74756">
        <ele>1000.8</ele>
        <time>2021-12-19T09:29:28Z</time>
      </trkpt>
      <trkpt lat="45.34865" lon="5.74755">
        <ele>1000.9</ele>
        <time>2021-12-19T09:29:29Z</time>
      </trkpt>
      <trkpt lat="45.34865" lon="5.74754">
        <ele>1001.1</ele>
        <time>2021-12-19T09:29:30Z</time>
      </trkpt>
      <trkpt lat="45.34864" lon="5.74753">
        <ele>1001.2</ele>
        <time>2021-12-19T09:29:31Z</time>
      </trkpt>
      <trkpt lat="45.34864" lon="5.74752">
        <ele>1001.4</ele>
        <time>2021-12-19T09:29:32Z</time>
      </trkpt>
      <trkpt lat="45.34863" lon="5.74751">
        <ele>1001.6</ele>
        <time>2021-12-19T09:29:33Z</time>
      </trkpt>
      <trkpt lat="45.34863" lon="5.7475">
        <ele>1001.7</ele>
        <time>2021-12-19T09:29:34Z</time>
      </trkpt>
      <trkpt lat="45.34862" lon="5.74749">
        <ele>1001.9</ele>
        <time>2021-12-19T09:29:35Z</time>
      </trkpt>
      <trkpt lat="45.34861" lon="5.74748">
        <ele>1002.1</ele>
        <time>2021-12-19T09:29:36Z</time>
      </trkpt>
      <trkpt lat="45.34861" lon="5.74747">
        <ele>1002.3</ele>
        <time>2021-12-19T09:29:37Z</time>
      </trkpt>
      <trkpt lat="45.3486" lon="5.74745">
        <ele>1002.5</ele>
        <time>2021-12-19T09:29:38Z</time>
      </trkpt>
      <trkpt lat="45.3486" lon="5.74743">
        <ele>1002.7</ele>
        <time>2021-12-19T09:29:39Z</time>
      </trkpt>
      <trkpt lat="45.34859" lon="5.74742">
        <ele>1002.9</ele>
        <time>2021-12-19T09:29:40Z</time>
      </trkpt>
      <trkpt lat="45.34859" lon="5.7474">
        <ele>1003.1</ele>
        <time>2021-12-19T09:29:41Z</time>
      </trkpt>
      <trkpt lat="45.34858" lon="5.74739">
        <ele>1003.3</ele>
        <time>2021-12-19T09:29:42Z</time>
      </trkpt>
      <trkpt lat="45.34857" lon="5.74738">
        <ele>1003.4</ele>
        <time>2021-12-19T09:29:43Z</time>
      </trkpt>
      <trkpt lat="45.34857" lon="5.74736">
        <ele>1003.6</ele>
        <time>2021-12-19T09:29:44Z</time>
      </trkpt>
      <trkpt lat="45.34857" lon="5.74735">
        <ele>1003.8</ele>
        <time>2021-12-19T09:29:45Z</time>
      </trkpt>
      <trkpt lat="45.34856" lon="5.74733">
        <ele>1004</ele>
        <time>2021-12-19T09:29:46Z</time>
      </trkpt>
      <trkpt lat="45.34855" lon="5.74732">
        <ele>1004.2</ele>
        <time>2021-12-19T09:29:47Z</time>
      </trkpt>
      <trkpt lat="45.34854" lon="5.74731">
        <ele>1004.3</ele>
        <time>2021-12-19T09:29:48Z</time>
      </trkpt>
      <trkpt lat="45.34853" lon="5.7473">
        <ele>1004.5</ele>
        <time>2021-12-19T09:29:49Z</time>
      </trkpt>
      <trkpt lat="45.34853" lon="5.74729">
        <ele>1004.6</ele>
        <time>2021-12-19T09:29:50Z</time>
      </trkpt>
      <trkpt lat="45.34852" lon="5.74728">
        <ele>1004.8</ele>
        <time>2021-12-19T09:29:51Z</time>
      </trkpt>
      <trkpt lat="45.34851" lon="5.74727">
        <ele>1004.9</ele>
        <time>2021-12-19T09:29:52Z</time>
      </trkpt>
      <trkpt lat="45.34851" lon="5.74726">
        <ele>1005.1</ele>
        <time>2021-12-19T09:29:53Z</time>
      </trkpt>
      <trkpt lat="45.3485" lon="5.74724">
        <ele>1005.2</ele>
        <time>2021-12-19T09:29:54Z</time>
      </trkpt>
      <trkpt lat="45.34849" lon="5.74723">
        <ele>1005.4</ele>
        <time>2021-12-19T09:29:55Z</time>
      </trkpt>
      <trkpt lat="45.34848" lon="5.74722">
        <ele>1005.5</ele>
        <time>2021-12-19T09:29:56Z</time>
      </trkpt>
      <trkpt lat="45.34847" lon="5.74721">
        <ele>1005.7</ele>
        <time>2021-12-19T09:29:57Z</time>
      </trkpt>
      <trkpt lat="45.34847" lon="5.74719">
        <ele>1005.9</ele>
        <time>2021-12-19T09:29:58Z</time>
      </trkpt>
      <trkpt lat="45.34847" lon="5.74718">
        <ele>1006</ele>
        <time>2021-12-19T09:29:59Z</time>
      </trkpt>
      <trkpt lat="45.34846" lon="5.74716">
        <ele>1006.2</ele>
        <time>2021-12-19T09:30:00Z</time>
      </trkpt>
      <trkpt lat="45.34846" lon="5.74715">
        <ele>1006.3</ele>
        <time>2021-12-19T09:30:01Z</time>
      </trkpt>
      <trkpt lat="45.34846" lon="5.74714">
        <ele>1006.4</ele>
        <time>2021-12-19T09:30:02Z</time>
      </trkpt>
      <trkpt lat="45.34846" lon="5.74712">
        <ele>1006.6</ele>
        <time>2021-12-19T09:30:03Z</time>
      </trkpt>
      <trkpt lat="45.34847" lon="5.74711">
        <ele>1006.7</ele>
        <time>2021-12-19T09:30:04Z</time>
      </trkpt>
      <trkpt lat="45.34847" lon="5.74709">
        <ele>1006.9</ele>
        <time>2021-12-19T09:30:05Z</time>
      </trkpt>
      <trkpt lat="45.34847" lon="5.74708">
        <ele>1007.1</ele>
        <time>2021-12-19T09:30:06Z</time>
      </trkpt>
      <trkpt lat="45.34848" lon="5.74706">
        <ele>1007.2</ele>
        <time>2021-12-19T09:30:07Z</time>
      </trkpt>
      <trkpt lat="45.34848" lon="5.74704">
        <ele>1007.4</ele>
        <time>2021-12-19T09:30:08Z</time>
      </trkpt>
      <trkpt lat="45.34848" lon="5.74703">
        <ele>1007.5</ele>
        <time>2021-12-19T09:30:09Z</time>
      </trkpt>
      <trkpt lat="45.34848" lon="5.74702">
        <ele>1007.6</ele>
        <time>2021-12-19T09:30:10Z</time>
      </trkpt>
      <trkpt lat="45.34848" lon="5.747">
        <ele>1007.8</ele>
        <time>2021-12-19T09:30:11Z</time>
      </trkpt>
      <trkpt lat="45.34847" lon="5.74699">
        <ele>1007.9</ele>
        <time>2021-12-19T09:30:12Z</time>
      </trkpt>
      <trkpt lat="45.34847" lon="5.74698">
        <ele>1008.1</ele>
        <time>2021-12-19T09:30:13Z</time>
      </trkpt>
      <trkpt lat="45.34847" lon="5.74697">
        <ele>1008.2</ele>
        <time>2021-12-19T09:30:14Z</time>
      </trkpt>
      <trkpt lat="45.34846" lon="5.74696">
        <ele>1008.3</ele>
        <time>2021-12-19T09:30:15Z</time>
      </trkpt>
      <trkpt lat="45.34846" lon="5.74694">
        <ele>1008.5</ele>
        <time>2021-12-19T09:30:16Z</time>
      </trkpt>
      <trkpt lat="45.34845" lon="5.74693">
        <ele>1008.6</ele>
        <time>2021-12-19T09:30:17Z</time>
      </trkpt>
      <trkpt lat="45.34845" lon="5.74692">
        <ele>1008.8</ele>
        <time>2021-12-19T09:30:18Z</time>
      </trkpt>
      <trkpt lat="45.34844" lon="5.74691">
        <ele>1008.9</ele>
        <time>2021-12-19T09:30:19Z</time>
      </trkpt>
      <trkpt lat="45.34844" lon="5.74689">
        <ele>1009.1</ele>
        <time>2021-12-19T09:30:20Z</time>
      </trkpt>
      <trkpt lat="45.34843" lon="5.74688">
        <ele>1009.2</ele>
        <time>2021-12-19T09:30:21Z</time>
      </trkpt>
      <trkpt lat="45.34843" lon="5.74687">
        <ele>1009.4</ele>
        <time>2021-12-19T09:30:22Z</time>
      </trkpt>
      <trkpt lat="45.34843" lon="5.74686">
        <ele>1009.7</ele>
        <time>2021-12-19T09:30:23Z</time>
      </trkpt>
      <trkpt lat="45.34842" lon="5.74684">
        <ele>1009.9</ele>
        <time>2021-12-19T09:30:24Z</time>
      </trkpt>
      <trkpt lat="45.34842" lon="5.74683">
        <ele>1010.1</ele>
        <time>2021-12-19T09:30:25Z</time>
      </trkpt>
      <trkpt lat="45.34841" lon="5.74682">
        <ele>1010.3</ele>
        <time>2021-12-19T09:30:26Z</time>
      </trkpt>
      <trkpt lat="45.34841" lon="5.7468">
        <ele>1010.6</ele>
        <time>2021-12-19T09:30:27Z</time>
      </trkpt>
      <trkpt lat="45.3484" lon="5.74679">
        <ele>1010.8</ele>
        <time>2021-12-19T09:30:28Z</time>
      </trkpt>
      <trkpt lat="45.3484" lon="5.74678">
        <ele>1011</ele>
        <time>2021-12-19T09:30:29Z</time>
      </trkpt>
      <trkpt lat="45.34839" lon="5.74677">
        <ele>1011.2</ele>
        <time>2021-12-19T09:30:30Z</time>
      </trkpt>
      <trkpt lat="45.34839" lon="5.74675">
        <ele>1011.4</ele>
        <time>2021-12-19T09:30:31Z</time>
      </trkpt>
      <trkpt lat="45.34838" lon="5.74674">
        <ele>1011.6</ele>
        <time>2021-12-19T09:30:32Z</time>
      </trkpt>
      <trkpt lat="45.34838" lon="5.74673">
        <ele>1011.8</ele>
        <time>2021-12-19T09:30:33Z</time>
      </trkpt>
      <trkpt lat="45.34837" lon="5.74672">
        <ele>1012</ele>
        <time>2021-12-19T09:30:34Z</time>
      </trkpt>
      <trkpt lat="45.34837" lon="5.7467">
        <ele>1012.2</ele>
        <time>2021-12-19T09:30:35Z</time>
      </trkpt>
      <trkpt lat="45.34837" lon="5.74669">
        <ele>1012.4</ele>
        <time>2021-12-19T09:30:36Z</time>
      </trkpt>
      <trkpt lat="45.34836" lon="5.74667">
        <ele>1012.6</ele>
        <time>2021-12-19T09:30:37Z</time>
      </trkpt>
      <trkpt lat="45.34836" lon="5.74666">
        <ele>1012.9</ele>
        <time>2021-12-19T09:30:38Z</time>
      </trkpt>
      <trkpt lat="45.34836" lon="5.74664">
        <ele>1013.1</ele>
        <time>2021-12-19T09:30:39Z</time>
      </trkpt>
      <trkpt lat="45.34835" lon="5.74663">
        <ele>1013.3</ele>
        <time>2021-12-19T09:30:40Z</time>
      </trkpt>
      <trkpt lat="45.34835" lon="5.74661">
        <ele>1013.6</ele>
        <time>2021-12-19T09:30:41Z</time>
      </trkpt>
      <trkpt lat="45.34835" lon="5.7466">
        <ele>1013.8</ele>
        <time>2021-12-19T09:30:42Z</time>
      </trkpt>
      <trkpt lat="45.34834" lon="5.74658">
        <ele>1014</ele>
        <time>2021-12-19T09:30:43Z</time>
      </trkpt>
      <trkpt lat="45.34833" lon="5.74657">
        <ele>1014.2</ele>
        <time>2021-12-19T09:30:44Z</time>
      </trkpt>
      <trkpt lat="45.34833" lon="5.74656">
        <ele>1014.5</ele>
        <time>2021-12-19T09:30:45Z</time>
      </trkpt>
      <trkpt lat="45.34832" lon="5.74654">
        <ele>1014.7</ele>
        <time>2021-12-19T09:30:46Z</time>
      </trkpt>
      <trkpt lat="45.34832" lon="5.74653">
        <ele>1014.9</ele>
        <time>2021-12-19T09:30:47Z</time>
      </trkpt>
      <trkpt lat="45.34831" lon="5.74651">
        <ele>1015.2</ele>
        <time>2021-12-19T09:30:48Z</time>
      </trkpt>
      <trkpt lat="45.34831" lon="5.7465">
        <ele>1015.4</ele>
        <time>2021-12-19T09:30:49Z</time>
      </trkpt>
      <trkpt lat="45.34831" lon="5.74648">
        <ele>1015.6</ele>
        <time>2021-12-19T09:30:50Z</time>
      </trkpt>
      <trkpt lat="45.34831" lon="5.74646">
        <ele>1015.9</ele>
        <time>2021-12-19T09:30:51Z</time>
      </trkpt>
      <trkpt lat="45.34831" lon="5.74644">
        <ele>1016.1</ele>
        <time>2021-12-19T09:30:52Z</time>
      </trkpt>
      <trkpt lat="45.3483" lon="5.74643">
        <ele>1016.4</ele>
        <time>2021-12-19T09:30:53Z</time>
      </trkpt>
      <trkpt lat="45.3483" lon="5.74641">
        <ele>1016.6</ele>
        <time>2021-12-19T09:30:54Z</time>
      </trkpt>
      <trkpt lat="45.3483" lon="5.74639">
        <ele>1016.9</ele>
        <time>2021-12-19T09:30:55Z</time>
      </trkpt>
      <trkpt lat="45.3483" lon="5.74637">
        <ele>1017.2</ele>
        <time>2021-12-19T09:30:56Z</time>
      </trkpt>
      <trkpt lat="45.34829" lon="5.74636">
        <ele>1017.4</ele>
        <time>2021-12-19T09:30:57Z</time>
      </trkpt>
      <trkpt lat="45.34828" lon="5.74635">
        <ele>1017.6</ele>
        <time>2021-12-19T09:30:58Z</time>
      </trkpt>
      <trkpt lat="45.34828" lon="5.74633">
        <ele>1017.9</ele>
        <time>2021-12-19T09:30:59Z</time>
      </trkpt>
      <trkpt lat="45.34827" lon="5.74632">
        <ele>1018.1</ele>
        <time>2021-12-19T09:31:00Z</time>
      </trkpt>
      <trkpt lat="45.34827" lon="5.7463">
        <ele>1018.3</ele>
        <time>2021-12-19T09:31:01Z</time>
      </trkpt>
      <trkpt lat="45.34827" lon="5.74629">
        <ele>1018.6</ele>
        <time>2021-12-19T09:31:02Z</time>
      </trkpt>
      <trkpt lat="45.34826" lon="5.74627">
        <ele>1018.8</ele>
        <time>2021-12-19T09:31:03Z</time>
      </trkpt>
      <trkpt lat="45.34826" lon="5.74626">
        <ele>1019</ele>
        <time>2021-12-19T09:31:04Z</time>
      </trkpt>
      <trkpt lat="45.34825" lon="5.74624">
        <ele>1019.3</ele>
        <time>2021-12-19T09:31:05Z</time>
      </trkpt>
      <trkpt lat="45.34825" lon="5.74623">
        <ele>1019.5</ele>
        <time>2021-12-19T09:31:06Z</time>
      </trkpt>
      <trkpt lat="45.34824" lon="5.74621">
        <ele>1019.7</ele>
        <time>2021-12-19T09:31:07Z</time>
      </trkpt>
      <trkpt lat="45.34824" lon="5.7462">
        <ele>1019.9</ele>
        <time>2021-12-19T09:31:08Z</time>
      </trkpt>
      <trkpt lat="45.34824" lon="5.74619">
        <ele>1020.1</ele>
        <time>2021-12-19T09:31:09Z</time>
      </trkpt>
      <trkpt lat="45.34823" lon="5.74617">
        <ele>1020.4</ele>
        <time>2021-12-19T09:31:10Z</time>
      </trkpt>
      <trkpt lat="45.34823" lon="5.74616">
        <ele>1020.6</ele>
        <time>2021-12-19T09:31:11Z</time>
      </trkpt>
      <trkpt lat="45.34823" lon="5.74614">
        <ele>1020.8</ele>
        <time>2021-12-19T09:31:12Z</time>
      </trkpt>
      <trkpt lat="45.34823" lon="5.74613">
        <ele>1020.9</ele>
        <time>2021-12-19T09:31:13Z</time>
      </trkpt>
      <trkpt lat="45.34822" lon="5.74612">
        <ele>1021.1</ele>
        <time>2021-12-19T09:31:14Z</time>
      </trkpt>
      <trkpt lat="45.34823" lon="5.74611">
        <ele>1021.3</ele>
        <time>2021-12-19T09:31:15Z</time>
      </trkpt>
      <trkpt lat="45.34823" lon="5.7461">
        <ele>1021.4</ele>
        <time>2021-12-19T09:31:16Z</time>
      </trkpt>
      <trkpt lat="45.34822" lon="5.74608">
        <ele>1021.7</ele>
        <time>2021-12-19T09:31:17Z</time>
      </trkpt>
      <trkpt lat="45.34822" lon="5.74607">
        <ele>1021.9</ele>
        <time>2021-12-19T09:31:18Z</time>
      </trkpt>
      <trkpt lat="45.34822" lon="5.74606">
        <ele>1022</ele>
        <time>2021-12-19T09:31:19Z</time>
      </trkpt>
      <trkpt lat="45.34822" lon="5.74604">
        <ele>1022.2</ele>
        <time>2021-12-19T09:31:20Z</time>
      </trkpt>
      <trkpt lat="45.34823" lon="5.74603">
        <ele>1022.4</ele>
        <time>2021-12-19T09:31:21Z</time>
      </trkpt>
      <trkpt lat="45.34823" lon="5.74601">
        <ele>1022.7</ele>
        <time>2021-12-19T09:31:22Z</time>
      </trkpt>
      <trkpt lat="45.34823" lon="5.746">
        <ele>1022.9</ele>
        <time>2021-12-19T09:31:23Z</time>
      </trkpt>
      <trkpt lat="45.34824" lon="5.74598">
        <ele>1023.1</ele>
        <time>2021-12-19T09:31:24Z</time>
      </trkpt>
      <trkpt lat="45.34823" lon="5.74597">
        <ele>1023.3</ele>
        <time>2021-12-19T09:31:25Z</time>
      </trkpt>
      <trkpt lat="45.34823" lon="5.74596">
        <ele>1023.5</ele>
        <time>2021-12-19T09:31:26Z</time>
      </trkpt>
      <trkpt lat="45.34824" lon="5.74595">
        <ele>1023.6</ele>
        <time>2021-12-19T09:31:27Z</time>
      </trkpt>
      <trkpt lat="45.34823" lon="5.74594">
        <ele>1023.8</ele>
        <time>2021-12-19T09:31:28Z</time>
      </trkpt>
      <trkpt lat="45.34823" lon="5.74593">
        <ele>1024</ele>
        <time>2021-12-19T09:31:29Z</time>
      </trkpt>
      <trkpt lat="45.34824" lon="5.74591">
        <ele>1024.2</ele>
        <time>2021-12-19T09:31:30Z</time>
      </trkpt>
      <trkpt lat="45.34824" lon="5.7459">
        <ele>1024.4</ele>
        <time>2021-12-19T09:31:31Z</time>
      </trkpt>
      <trkpt lat="45.34824" lon="5.74589">
        <ele>1024.6</ele>
        <time>2021-12-19T09:31:32Z</time>
      </trkpt>
      <trkpt lat="45.34824" lon="5.74587">
        <ele>1024.8</ele>
        <time>2021-12-19T09:31:33Z</time>
      </trkpt>
      <trkpt lat="45.34824" lon="5.74586">
        <ele>1024.9</ele>
        <time>2021-12-19T09:31:34Z</time>
      </trkpt>
      <trkpt lat="45.34824" lon="5.74585">
        <ele>1025.1</ele>
        <time>2021-12-19T09:31:35Z</time>
      </trkpt>
      <trkpt lat="45.34824" lon="5.74584">
        <ele>1025.3</ele>
        <time>2021-12-19T09:31:36Z</time>
      </trkpt>
      <trkpt lat="45.34824" lon="5.74582">
        <ele>1025.5</ele>
        <time>2021-12-19T09:31:37Z</time>
      </trkpt>
      <trkpt lat="45.34823" lon="5.74581">
        <ele>1025.7</ele>
        <time>2021-12-19T09:31:38Z</time>
      </trkpt>
      <trkpt lat="45.34823" lon="5.7458">
        <ele>1025.9</ele>
        <time>2021-12-19T09:31:39Z</time>
      </trkpt>
      <trkpt lat="45.34823" lon="5.74578">
        <ele>1026.1</ele>
        <time>2021-12-19T09:31:40Z</time>
      </trkpt>
      <trkpt lat="45.34824" lon="5.74577">
        <ele>1026.2</ele>
        <time>2021-12-19T09:31:41Z</time>
      </trkpt>
      <trkpt lat="45.34823" lon="5.74576">
        <ele>1026.4</ele>
        <time>2021-12-19T09:31:42Z</time>
      </trkpt>
      <trkpt lat="45.34823" lon="5.74576">
        <ele>1026.4</ele>
        <time>2021-12-19T09:31:43Z</time>
      </trkpt>
      <trkpt lat="45.34823" lon="5.74575">
        <ele>1026.5</ele>
        <time>2021-12-19T09:31:44Z</time>
      </trkpt>
      <trkpt lat="45.34822" lon="5.74574">
        <ele>1026.8</ele>
        <time>2021-12-19T09:31:45Z</time>
      </trkpt>
      <trkpt lat="45.34822" lon="5.74573">
        <ele>1026.9</ele>
        <time>2021-12-19T09:31:46Z</time>
      </trkpt>
      <trkpt lat="45.34822" lon="5.74573">
        <ele>1027.1</ele>
        <time>2021-12-19T09:31:47Z</time>
      </trkpt>
      <trkpt lat="45.34822" lon="5.74572">
        <ele>1027.2</ele>
        <time>2021-12-19T09:31:48Z</time>
      </trkpt>
      <trkpt lat="45.34823" lon="5.74571">
        <ele>1027.4</ele>
        <time>2021-12-19T09:31:49Z</time>
      </trkpt>
      <trkpt lat="45.34823" lon="5.7457">
        <ele>1027.5</ele>
        <time>2021-12-19T09:31:50Z</time>
      </trkpt>
      <trkpt lat="45.34823" lon="5.74569">
        <ele>1027.7</ele>
        <time>2021-12-19T09:31:51Z</time>
      </trkpt>
      <trkpt lat="45.34823" lon="5.74568">
        <ele>1027.9</ele>
        <time>2021-12-19T09:31:52Z</time>
      </trkpt>
      <trkpt lat="45.34823" lon="5.74566">
        <ele>1028.1</ele>
        <time>2021-12-19T09:31:53Z</time>
      </trkpt>
      <trkpt lat="45.34823" lon="5.74565">
        <ele>1028.3</ele>
        <time>2021-12-19T09:31:54Z</time>
      </trkpt>
      <trkpt lat="45.34824" lon="5.74562">
        <ele>1028.7</ele>
        <time>2021-12-19T09:31:55Z</time>
      </trkpt>
      <trkpt lat="45.34823" lon="5.74561">
        <ele>1028.9</ele>
        <time>2021-12-19T09:31:56Z</time>
      </trkpt>
      <trkpt lat="45.34823" lon="5.74559">
        <ele>1029.2</ele>
        <time>2021-12-19T09:31:57Z</time>
      </trkpt>
      <trkpt lat="45.34822" lon="5.74557">
        <ele>1029.5</ele>
        <time>2021-12-19T09:31:58Z</time>
      </trkpt>
      <trkpt lat="45.34822" lon="5.74555">
        <ele>1029.7</ele>
        <time>2021-12-19T09:31:59Z</time>
      </trkpt>
      <trkpt lat="45.34821" lon="5.74553">
        <ele>1030.1</ele>
        <time>2021-12-19T09:32:00Z</time>
      </trkpt>
      <trkpt lat="45.34821" lon="5.74551">
        <ele>1030.3</ele>
        <time>2021-12-19T09:32:01Z</time>
      </trkpt>
      <trkpt lat="45.34821" lon="5.7455">
        <ele>1030.5</ele>
        <time>2021-12-19T09:32:02Z</time>
      </trkpt>
      <trkpt lat="45.34821" lon="5.74548">
        <ele>1030.7</ele>
        <time>2021-12-19T09:32:03Z</time>
      </trkpt>
      <trkpt lat="45.34821" lon="5.74547">
        <ele>1030.9</ele>
        <time>2021-12-19T09:32:04Z</time>
      </trkpt>
      <trkpt lat="45.34821" lon="5.74546">
        <ele>1031</ele>
        <time>2021-12-19T09:32:05Z</time>
      </trkpt>
      <trkpt lat="45.34821" lon="5.74544">
        <ele>1031.3</ele>
        <time>2021-12-19T09:32:06Z</time>
      </trkpt>
      <trkpt lat="45.34821" lon="5.74543">
        <ele>1031.5</ele>
        <time>2021-12-19T09:32:07Z</time>
      </trkpt>
      <trkpt lat="45.34821" lon="5.74542">
        <ele>1031.7</ele>
        <time>2021-12-19T09:32:08Z</time>
      </trkpt>
      <trkpt lat="45.34822" lon="5.7454">
        <ele>1031.9</ele>
        <time>2021-12-19T09:32:09Z</time>
      </trkpt>
      <trkpt lat="45.34822" lon="5.74539">
        <ele>1032.1</ele>
        <time>2021-12-19T09:32:10Z</time>
      </trkpt>
      <trkpt lat="45.34822" lon="5.74538">
        <ele>1032.2</ele>
        <time>2021-12-19T09:32:11Z</time>
      </trkpt>
      <trkpt lat="45.34821" lon="5.74537">
        <ele>1032.4</ele>
        <time>2021-12-19T09:32:12Z</time>
      </trkpt>
      <trkpt lat="45.34822" lon="5.74536">
        <ele>1032.5</ele>
        <time>2021-12-19T09:32:13Z</time>
      </trkpt>
      <trkpt lat="45.34822" lon="5.74536">
        <ele>1032.6</ele>
        <time>2021-12-19T09:32:14Z</time>
      </trkpt>
      <trkpt lat="45.34822" lon="5.74535">
        <ele>1032.7</ele>
        <time>2021-12-19T09:32:15Z</time>
      </trkpt>
      <trkpt lat="45.34823" lon="5.74535">
        <ele>1032.8</ele>
        <time>2021-12-19T09:32:16Z</time>
      </trkpt>
      <trkpt lat="45.34823" lon="5.74535">
        <ele>1032.9</ele>
        <time>2021-12-19T09:32:17Z</time>
      </trkpt>
      <trkpt lat="45.34824" lon="5.74534">
        <ele>1033</ele>
        <time>2021-12-19T09:32:18Z</time>
      </trkpt>
      <trkpt lat="45.34824" lon="5.74534">
        <ele>1033.1</ele>
        <time>2021-12-19T09:32:19Z</time>
      </trkpt>
      <trkpt lat="45.34824" lon="5.74534">
        <ele>1033.2</ele>
        <time>2021-12-19T09:32:20Z</time>
      </trkpt>
      <trkpt lat="45.34824" lon="5.74533">
        <ele>1033.2</ele>
        <time>2021-12-19T09:32:21Z</time>
      </trkpt>
      <trkpt lat="45.34824" lon="5.74533">
        <ele>1033.3</ele>
        <time>2021-12-19T09:32:22Z</time>
      </trkpt>
      <trkpt lat="45.34824" lon="5.74533">
        <ele>1033.4</ele>
        <time>2021-12-19T09:32:23Z</time>
      </trkpt>
      <trkpt lat="45.34824" lon="5.74532">
        <ele>1033.4</ele>
        <time>2021-12-19T09:32:24Z</time>
      </trkpt>
      <trkpt lat="45.34824" lon="5.74531">
        <ele>1033.6</ele>
        <time>2021-12-19T09:32:25Z</time>
      </trkpt>
      <trkpt lat="45.34824" lon="5.74531">
        <ele>1033.7</ele>
        <time>2021-12-19T09:32:26Z</time>
      </trkpt>
      <trkpt lat="45.34824" lon="5.74529">
        <ele>1033.9</ele>
        <time>2021-12-19T09:32:27Z</time>
      </trkpt>
      <trkpt lat="45.34823" lon="5.74528">
        <ele>1034</ele>
        <time>2021-12-19T09:32:28Z</time>
      </trkpt>
      <trkpt lat="45.34823" lon="5.74527">
        <ele>1034.3</ele>
        <time>2021-12-19T09:32:29Z</time>
      </trkpt>
      <trkpt lat="45.34823" lon="5.74526">
        <ele>1034.4</ele>
        <time>2021-12-19T09:32:30Z</time>
      </trkpt>
      <trkpt lat="45.34822" lon="5.74524">
        <ele>1034.7</ele>
        <time>2021-12-19T09:32:31Z</time>
      </trkpt>
      <trkpt lat="45.34822" lon="5.74523">
        <ele>1034.9</ele>
        <time>2021-12-19T09:32:32Z</time>
      </trkpt>
      <trkpt lat="45.34822" lon="5.74521">
        <ele>1035.1</ele>
        <time>2021-12-19T09:32:33Z</time>
      </trkpt>
      <trkpt lat="45.34822" lon="5.7452">
        <ele>1035.2</ele>
        <time>2021-12-19T09:32:34Z</time>
      </trkpt>
      <trkpt lat="45.34821" lon="5.74519">
        <ele>1035.4</ele>
        <time>2021-12-19T09:32:35Z</time>
      </trkpt>
      <trkpt lat="45.34821" lon="5.74518">
        <ele>1035.5</ele>
        <time>2021-12-19T09:32:36Z</time>
      </trkpt>
      <trkpt lat="45.3482" lon="5.74517">
        <ele>1035.7</ele>
        <time>2021-12-19T09:32:37Z</time>
      </trkpt>
      <trkpt lat="45.3482" lon="5.74516">
        <ele>1035.9</ele>
        <time>2021-12-19T09:32:38Z</time>
      </trkpt>
      <trkpt lat="45.34819" lon="5.74515">
        <ele>1036.1</ele>
        <time>2021-12-19T09:32:39Z</time>
      </trkpt>
      <trkpt lat="45.34819" lon="5.74515">
        <ele>1036.2</ele>
        <time>2021-12-19T09:32:40Z</time>
      </trkpt>
      <trkpt lat="45.34819" lon="5.74514">
        <ele>1036.3</ele>
        <time>2021-12-19T09:32:41Z</time>
      </trkpt>
      <trkpt lat="45.34819" lon="5.74513">
        <ele>1036.4</ele>
        <time>2021-12-19T09:32:42Z</time>
      </trkpt>
      <trkpt lat="45.34819" lon="5.74512">
        <ele>1036.5</ele>
        <time>2021-12-19T09:32:43Z</time>
      </trkpt>
      <trkpt lat="45.34818" lon="5.74512">
        <ele>1036.7</ele>
        <time>2021-12-19T09:32:44Z</time>
      </trkpt>
      <trkpt lat="45.34818" lon="5.74511">
        <ele>1036.8</ele>
        <time>2021-12-19T09:32:45Z</time>
      </trkpt>
      <trkpt lat="45.34817" lon="5.7451">
        <ele>1037</ele>
        <time>2021-12-19T09:32:46Z</time>
      </trkpt>
      <trkpt lat="45.34817" lon="5.74509">
        <ele>1037.2</ele>
        <time>2021-12-19T09:32:47Z</time>
      </trkpt>
      <trkpt lat="45.34817" lon="5.74508">
        <ele>1037.3</ele>
        <time>2021-12-19T09:32:48Z</time>
      </trkpt>
      <trkpt lat="45.34816" lon="5.74507">
        <ele>1037.4</ele>
        <time>2021-12-19T09:32:49Z</time>
      </trkpt>
      <trkpt lat="45.34816" lon="5.74507">
        <ele>1037.6</ele>
        <time>2021-12-19T09:32:50Z</time>
      </trkpt>
      <trkpt lat="45.34815" lon="5.74506">
        <ele>1037.7</ele>
        <time>2021-12-19T09:32:51Z</time>
      </trkpt>
      <trkpt lat="45.34815" lon="5.74505">
        <ele>1037.9</ele>
        <time>2021-12-19T09:32:52Z</time>
      </trkpt>
      <trkpt lat="45.34816" lon="5.74504">
        <ele>1038</ele>
        <time>2021-12-19T09:32:53Z</time>
      </trkpt>
      <trkpt lat="45.34815" lon="5.74504">
        <ele>1038.1</ele>
        <time>2021-12-19T09:32:54Z</time>
      </trkpt>
      <trkpt lat="45.34815" lon="5.74503">
        <ele>1038.2</ele>
        <time>2021-12-19T09:32:55Z</time>
      </trkpt>
      <trkpt lat="45.34814" lon="5.74502">
        <ele>1038.3</ele>
        <time>2021-12-19T09:32:56Z</time>
      </trkpt>
      <trkpt lat="45.34814" lon="5.74502">
        <ele>1038.5</ele>
        <time>2021-12-19T09:32:57Z</time>
      </trkpt>
      <trkpt lat="45.34814" lon="5.74501">
        <ele>1038.6</ele>
        <time>2021-12-19T09:32:58Z</time>
      </trkpt>
      <trkpt lat="45.34814" lon="5.745">
        <ele>1038.7</ele>
        <time>2021-12-19T09:32:59Z</time>
      </trkpt>
      <trkpt lat="45.34813" lon="5.74499">
        <ele>1038.9</ele>
        <time>2021-12-19T09:33:00Z</time>
      </trkpt>
      <trkpt lat="45.34813" lon="5.74498">
        <ele>1039.1</ele>
        <time>2021-12-19T09:33:01Z</time>
      </trkpt>
      <trkpt lat="45.34812" lon="5.74497">
        <ele>1039.2</ele>
        <time>2021-12-19T09:33:02Z</time>
      </trkpt>
      <trkpt lat="45.34812" lon="5.74497">
        <ele>1039.3</ele>
        <time>2021-12-19T09:33:03Z</time>
      </trkpt>
      <trkpt lat="45.34811" lon="5.74497">
        <ele>1039.4</ele>
        <time>2021-12-19T09:33:04Z</time>
      </trkpt>
      <trkpt lat="45.34812" lon="5.74496">
        <ele>1039.5</ele>
        <time>2021-12-19T09:33:05Z</time>
      </trkpt>
      <trkpt lat="45.34811" lon="5.74495">
        <ele>1039.6</ele>
        <time>2021-12-19T09:33:06Z</time>
      </trkpt>
      <trkpt lat="45.34811" lon="5.74494">
        <ele>1039.8</ele>
        <time>2021-12-19T09:33:07Z</time>
      </trkpt>
      <trkpt lat="45.34811" lon="5.74493">
        <ele>1039.9</ele>
        <time>2021-12-19T09:33:08Z</time>
      </trkpt>
      <trkpt lat="45.34811" lon="5.74492">
        <ele>1040.1</ele>
        <time>2021-12-19T09:33:09Z</time>
      </trkpt>
      <trkpt lat="45.34811" lon="5.74492">
        <ele>1040.2</ele>
        <time>2021-12-19T09:33:10Z</time>
      </trkpt>
      <trkpt lat="45.34812" lon="5.74491">
        <ele>1040.3</ele>
        <time>2021-12-19T09:33:11Z</time>
      </trkpt>
      <trkpt lat="45.34811" lon="5.7449">
        <ele>1040.4</ele>
        <time>2021-12-19T09:33:12Z</time>
      </trkpt>
      <trkpt lat="45.34811" lon="5.74489">
        <ele>1040.6</ele>
        <time>2021-12-19T09:33:13Z</time>
      </trkpt>
      <trkpt lat="45.3481" lon="5.74488">
        <ele>1040.8</ele>
        <time>2021-12-19T09:33:14Z</time>
      </trkpt>
      <trkpt lat="45.3481" lon="5.74488">
        <ele>1040.9</ele>
        <time>2021-12-19T09:33:15Z</time>
      </trkpt>
      <trkpt lat="45.34809" lon="5.74486">
        <ele>1041.1</ele>
        <time>2021-12-19T09:33:16Z</time>
      </trkpt>
      <trkpt lat="45.34809" lon="5.74486">
        <ele>1041.3</ele>
        <time>2021-12-19T09:33:17Z</time>
      </trkpt>
      <trkpt lat="45.34808" lon="5.74485">
        <ele>1041.4</ele>
        <time>2021-12-19T09:33:18Z</time>
      </trkpt>
      <trkpt lat="45.34808" lon="5.74484">
        <ele>1041.6</ele>
        <time>2021-12-19T09:33:19Z</time>
      </trkpt>
      <trkpt lat="45.34807" lon="5.74483">
        <ele>1041.8</ele>
        <time>2021-12-19T09:33:20Z</time>
      </trkpt>
      <trkpt lat="45.34807" lon="5.74482">
        <ele>1041.9</ele>
        <time>2021-12-19T09:33:21Z</time>
      </trkpt>
      <trkpt lat="45.34807" lon="5.74481">
        <ele>1042</ele>
        <time>2021-12-19T09:33:22Z</time>
      </trkpt>
      <trkpt lat="45.34806" lon="5.7448">
        <ele>1042.2</ele>
        <time>2021-12-19T09:33:23Z</time>
      </trkpt>
      <trkpt lat="45.34806" lon="5.7448">
        <ele>1042.4</ele>
        <time>2021-12-19T09:33:24Z</time>
      </trkpt>
      <trkpt lat="45.34805" lon="5.74479">
        <ele>1042.5</ele>
        <time>2021-12-19T09:33:25Z</time>
      </trkpt>
      <trkpt lat="45.34805" lon="5.74478">
        <ele>1042.6</ele>
        <time>2021-12-19T09:33:26Z</time>
      </trkpt>
      <trkpt lat="45.34804" lon="5.74478">
        <ele>1042.7</ele>
        <time>2021-12-19T09:33:27Z</time>
      </trkpt>
      <trkpt lat="45.34804" lon="5.74477">
        <ele>1042.8</ele>
        <time>2021-12-19T09:33:28Z</time>
      </trkpt>
      <trkpt lat="45.34803" lon="5.74477">
        <ele>1043</ele>
        <time>2021-12-19T09:33:29Z</time>
      </trkpt>
      <trkpt lat="45.34803" lon="5.74476">
        <ele>1043.2</ele>
        <time>2021-12-19T09:33:30Z</time>
      </trkpt>
      <trkpt lat="45.34802" lon="5.74476">
        <ele>1043.3</ele>
        <time>2021-12-19T09:33:31Z</time>
      </trkpt>
      <trkpt lat="45.34802" lon="5.74476">
        <ele>1043.4</ele>
        <time>2021-12-19T09:33:32Z</time>
      </trkpt>
      <trkpt lat="45.34801" lon="5.74475">
        <ele>1043.5</ele>
        <time>2021-12-19T09:33:33Z</time>
      </trkpt>
      <trkpt lat="45.34801" lon="5.74474">
        <ele>1043.7</ele>
        <time>2021-12-19T09:33:34Z</time>
      </trkpt>
      <trkpt lat="45.348" lon="5.74473">
        <ele>1043.9</ele>
        <time>2021-12-19T09:33:35Z</time>
      </trkpt>
      <trkpt lat="45.348" lon="5.74472">
        <ele>1044.1</ele>
        <time>2021-12-19T09:33:36Z</time>
      </trkpt>
      <trkpt lat="45.34799" lon="5.74471">
        <ele>1044.2</ele>
        <time>2021-12-19T09:33:37Z</time>
      </trkpt>
      <trkpt lat="45.34799" lon="5.74471">
        <ele>1044.3</ele>
        <time>2021-12-19T09:33:38Z</time>
      </trkpt>
      <trkpt lat="45.34799" lon="5.7447">
        <ele>1044.4</ele>
        <time>2021-12-19T09:33:39Z</time>
      </trkpt>
      <trkpt lat="45.34798" lon="5.74469">
        <ele>1044.6</ele>
        <time>2021-12-19T09:33:40Z</time>
      </trkpt>
      <trkpt lat="45.34798" lon="5.74468">
        <ele>1044.8</ele>
        <time>2021-12-19T09:33:41Z</time>
      </trkpt>
      <trkpt lat="45.34797" lon="5.74467">
        <ele>1045</ele>
        <time>2021-12-19T09:33:42Z</time>
      </trkpt>
      <trkpt lat="45.34796" lon="5.74466">
        <ele>1045.1</ele>
        <time>2021-12-19T09:33:43Z</time>
      </trkpt>
      <trkpt lat="45.34796" lon="5.74465">
        <ele>1045.4</ele>
        <time>2021-12-19T09:33:44Z</time>
      </trkpt>
      <trkpt lat="45.34796" lon="5.74464">
        <ele>1045.5</ele>
        <time>2021-12-19T09:33:45Z</time>
      </trkpt>
      <trkpt lat="45.34795" lon="5.74463">
        <ele>1045.7</ele>
        <time>2021-12-19T09:33:46Z</time>
      </trkpt>
      <trkpt lat="45.34795" lon="5.74462">
        <ele>1045.9</ele>
        <time>2021-12-19T09:33:47Z</time>
      </trkpt>
      <trkpt lat="45.34794" lon="5.7446">
        <ele>1046.2</ele>
        <time>2021-12-19T09:33:48Z</time>
      </trkpt>
      <trkpt lat="45.34794" lon="5.74459">
        <ele>1046.4</ele>
        <time>2021-12-19T09:33:49Z</time>
      </trkpt>
      <trkpt lat="45.34793" lon="5.74458">
        <ele>1046.6</ele>
        <time>2021-12-19T09:33:50Z</time>
      </trkpt>
      <trkpt lat="45.34793" lon="5.74456">
        <ele>1046.8</ele>
        <time>2021-12-19T09:33:51Z</time>
      </trkpt>
      <trkpt lat="45.34792" lon="5.74455">
        <ele>1047</ele>
        <time>2021-12-19T09:33:52Z</time>
      </trkpt>
      <trkpt lat="45.34792" lon="5.74454">
        <ele>1047.2</ele>
        <time>2021-12-19T09:33:53Z</time>
      </trkpt>
      <trkpt lat="45.34792" lon="5.74452">
        <ele>1047.4</ele>
        <time>2021-12-19T09:33:54Z</time>
      </trkpt>
      <trkpt lat="45.34791" lon="5.74451">
        <ele>1047.6</ele>
        <time>2021-12-19T09:33:55Z</time>
      </trkpt>
      <trkpt lat="45.34791" lon="5.7445">
        <ele>1047.8</ele>
        <time>2021-12-19T09:33:56Z</time>
      </trkpt>
      <trkpt lat="45.34791" lon="5.74448">
        <ele>1047.9</ele>
        <time>2021-12-19T09:33:57Z</time>
      </trkpt>
      <trkpt lat="45.34791" lon="5.74447">
        <ele>1048.1</ele>
        <time>2021-12-19T09:33:58Z</time>
      </trkpt>
      <trkpt lat="45.3479" lon="5.74446">
        <ele>1048.3</ele>
        <time>2021-12-19T09:33:59Z</time>
      </trkpt>
      <trkpt lat="45.3479" lon="5.74445">
        <ele>1048.4</ele>
        <time>2021-12-19T09:34:00Z</time>
      </trkpt>
      <trkpt lat="45.3479" lon="5.74444">
        <ele>1048.6</ele>
        <time>2021-12-19T09:34:01Z</time>
      </trkpt>
      <trkpt lat="45.34789" lon="5.74443">
        <ele>1048.8</ele>
        <time>2021-12-19T09:34:02Z</time>
      </trkpt>
      <trkpt lat="45.34789" lon="5.74442">
        <ele>1049</ele>
        <time>2021-12-19T09:34:03Z</time>
      </trkpt>
      <trkpt lat="45.34788" lon="5.74441">
        <ele>1049.2</ele>
        <time>2021-12-19T09:34:04Z</time>
      </trkpt>
      <trkpt lat="45.34788" lon="5.7444">
        <ele>1049.3</ele>
        <time>2021-12-19T09:34:05Z</time>
      </trkpt>
      <trkpt lat="45.34788" lon="5.74439">
        <ele>1049.5</ele>
        <time>2021-12-19T09:34:06Z</time>
      </trkpt>
      <trkpt lat="45.34787" lon="5.74437">
        <ele>1049.7</ele>
        <time>2021-12-19T09:34:07Z</time>
      </trkpt>
      <trkpt lat="45.34787" lon="5.74436">
        <ele>1049.9</ele>
        <time>2021-12-19T09:34:08Z</time>
      </trkpt>
      <trkpt lat="45.34787" lon="5.74435">
        <ele>1050.1</ele>
        <time>2021-12-19T09:34:09Z</time>
      </trkpt>
      <trkpt lat="45.34787" lon="5.74434">
        <ele>1050.2</ele>
        <time>2021-12-19T09:34:10Z</time>
      </trkpt>
      <trkpt lat="45.34787" lon="5.74433">
        <ele>1050.4</ele>
        <time>2021-12-19T09:34:11Z</time>
      </trkpt>
      <trkpt lat="45.34786" lon="5.74432">
        <ele>1050.5</ele>
        <time>2021-12-19T09:34:12Z</time>
      </trkpt>
      <trkpt lat="45.34786" lon="5.74431">
        <ele>1050.7</ele>
        <time>2021-12-19T09:34:13Z</time>
      </trkpt>
      <trkpt lat="45.34786" lon="5.7443">
        <ele>1050.9</ele>
        <time>2021-12-19T09:34:14Z</time>
      </trkpt>
      <trkpt lat="45.34785" lon="5.7443">
        <ele>1051</ele>
        <time>2021-12-19T09:34:15Z</time>
      </trkpt>
      <trkpt lat="45.34785" lon="5.74429">
        <ele>1051.1</ele>
        <time>2021-12-19T09:34:16Z</time>
      </trkpt>
      <trkpt lat="45.34785" lon="5.74428">
        <ele>1051.3</ele>
        <time>2021-12-19T09:34:17Z</time>
      </trkpt>
      <trkpt lat="45.34785" lon="5.74427">
        <ele>1051.4</ele>
        <time>2021-12-19T09:34:18Z</time>
      </trkpt>
      <trkpt lat="45.34785" lon="5.74426">
        <ele>1051.5</ele>
        <time>2021-12-19T09:34:19Z</time>
      </trkpt>
      <trkpt lat="45.34784" lon="5.74425">
        <ele>1051.6</ele>
        <time>2021-12-19T09:34:20Z</time>
      </trkpt>
      <trkpt lat="45.34784" lon="5.74425">
        <ele>1051.8</ele>
        <time>2021-12-19T09:34:21Z</time>
      </trkpt>
      <trkpt lat="45.34784" lon="5.74424">
        <ele>1052</ele>
        <time>2021-12-19T09:34:22Z</time>
      </trkpt>
      <trkpt lat="45.34783" lon="5.74424">
        <ele>1052</ele>
        <time>2021-12-19T09:34:23Z</time>
      </trkpt>
      <trkpt lat="45.34784" lon="5.74423">
        <ele>1052.1</ele>
        <time>2021-12-19T09:34:24Z</time>
      </trkpt>
      <trkpt lat="45.34783" lon="5.74422">
        <ele>1052.3</ele>
        <time>2021-12-19T09:34:25Z</time>
      </trkpt>
      <trkpt lat="45.34783" lon="5.74422">
        <ele>1052.5</ele>
        <time>2021-12-19T09:34:26Z</time>
      </trkpt>
      <trkpt lat="45.34782" lon="5.74421">
        <ele>1052.6</ele>
        <time>2021-12-19T09:34:27Z</time>
      </trkpt>
      <trkpt lat="45.34782" lon="5.74421">
        <ele>1052.7</ele>
        <time>2021-12-19T09:34:28Z</time>
      </trkpt>
      <trkpt lat="45.34781" lon="5.7442">
        <ele>1052.9</ele>
        <time>2021-12-19T09:34:29Z</time>
      </trkpt>
      <trkpt lat="45.34781" lon="5.74419">
        <ele>1053.1</ele>
        <time>2021-12-19T09:34:30Z</time>
      </trkpt>
      <trkpt lat="45.34781" lon="5.74418">
        <ele>1053.2</ele>
        <time>2021-12-19T09:34:31Z</time>
      </trkpt>
      <trkpt lat="45.3478" lon="5.74418">
        <ele>1053.4</ele>
        <time>2021-12-19T09:34:32Z</time>
      </trkpt>
      <trkpt lat="45.3478" lon="5.74417">
        <ele>1053.5</ele>
        <time>2021-12-19T09:34:33Z</time>
      </trkpt>
      <trkpt lat="45.34779" lon="5.74416">
        <ele>1053.7</ele>
        <time>2021-12-19T09:34:34Z</time>
      </trkpt>
      <trkpt lat="45.34779" lon="5.74415">
        <ele>1053.9</ele>
        <time>2021-12-19T09:34:35Z</time>
      </trkpt>
      <trkpt lat="45.34778" lon="5.74414">
        <ele>1054.1</ele>
        <time>2021-12-19T09:34:36Z</time>
      </trkpt>
      <trkpt lat="45.34778" lon="5.74413">
        <ele>1054.3</ele>
        <time>2021-12-19T09:34:37Z</time>
      </trkpt>
      <trkpt lat="45.34777" lon="5.74412">
        <ele>1054.4</ele>
        <time>2021-12-19T09:34:38Z</time>
      </trkpt>
      <trkpt lat="45.34777" lon="5.74411">
        <ele>1054.6</ele>
        <time>2021-12-19T09:34:39Z</time>
      </trkpt>
      <trkpt lat="45.34777" lon="5.7441">
        <ele>1054.7</ele>
        <time>2021-12-19T09:34:40Z</time>
      </trkpt>
      <trkpt lat="45.34776" lon="5.74409">
        <ele>1054.9</ele>
        <time>2021-12-19T09:34:41Z</time>
      </trkpt>
      <trkpt lat="45.34776" lon="5.74409">
        <ele>1055.1</ele>
        <time>2021-12-19T09:34:42Z</time>
      </trkpt>
      <trkpt lat="45.34776" lon="5.74408">
        <ele>1055.2</ele>
        <time>2021-12-19T09:34:43Z</time>
      </trkpt>
      <trkpt lat="45.34775" lon="5.74407">
        <ele>1055.4</ele>
        <time>2021-12-19T09:34:44Z</time>
      </trkpt>
      <trkpt lat="45.34775" lon="5.74406">
        <ele>1055.5</ele>
        <time>2021-12-19T09:34:45Z</time>
      </trkpt>
      <trkpt lat="45.34774" lon="5.74406">
        <ele>1055.7</ele>
        <time>2021-12-19T09:34:46Z</time>
      </trkpt>
      <trkpt lat="45.34774" lon="5.74405">
        <ele>1055.8</ele>
        <time>2021-12-19T09:34:47Z</time>
      </trkpt>
      <trkpt lat="45.34773" lon="5.74404">
        <ele>1056</ele>
        <time>2021-12-19T09:34:48Z</time>
      </trkpt>
      <trkpt lat="45.34773" lon="5.74404">
        <ele>1056.2</ele>
        <time>2021-12-19T09:34:49Z</time>
      </trkpt>
      <trkpt lat="45.34773" lon="5.74403">
        <ele>1056.4</ele>
        <time>2021-12-19T09:34:50Z</time>
      </trkpt>
      <trkpt lat="45.34772" lon="5.74402">
        <ele>1056.5</ele>
        <time>2021-12-19T09:34:51Z</time>
      </trkpt>
      <trkpt lat="45.34772" lon="5.744">
        <ele>1056.7</ele>
        <time>2021-12-19T09:34:52Z</time>
      </trkpt>
      <trkpt lat="45.34772" lon="5.74399">
        <ele>1056.9</ele>
        <time>2021-12-19T09:34:53Z</time>
      </trkpt>
      <trkpt lat="45.34772" lon="5.74398">
        <ele>1057</ele>
        <time>2021-12-19T09:34:54Z</time>
      </trkpt>
      <trkpt lat="45.34771" lon="5.74398">
        <ele>1057.2</ele>
        <time>2021-12-19T09:34:55Z</time>
      </trkpt>
      <trkpt lat="45.34772" lon="5.74396">
        <ele>1057.5</ele>
        <time>2021-12-19T09:34:56Z</time>
      </trkpt>
      <trkpt lat="45.34772" lon="5.74394">
        <ele>1057.7</ele>
        <time>2021-12-19T09:34:57Z</time>
      </trkpt>
      <trkpt lat="45.34772" lon="5.74393">
        <ele>1057.9</ele>
        <time>2021-12-19T09:34:58Z</time>
      </trkpt>
      <trkpt lat="45.34772" lon="5.74392">
        <ele>1058.1</ele>
        <time>2021-12-19T09:34:59Z</time>
      </trkpt>
      <trkpt lat="45.34772" lon="5.74391">
        <ele>1058.3</ele>
        <time>2021-12-19T09:35:00Z</time>
      </trkpt>
      <trkpt lat="45.34772" lon="5.7439">
        <ele>1058.4</ele>
        <time>2021-12-19T09:35:01Z</time>
      </trkpt>
      <trkpt lat="45.34772" lon="5.74389">
        <ele>1058.6</ele>
        <time>2021-12-19T09:35:02Z</time>
      </trkpt>
      <trkpt lat="45.34771" lon="5.74388">
        <ele>1058.8</ele>
        <time>2021-12-19T09:35:03Z</time>
      </trkpt>
      <trkpt lat="45.34771" lon="5.74387">
        <ele>1059</ele>
        <time>2021-12-19T09:35:04Z</time>
      </trkpt>
      <trkpt lat="45.34771" lon="5.74386">
        <ele>1059.2</ele>
        <time>2021-12-19T09:35:05Z</time>
      </trkpt>
      <trkpt lat="45.3477" lon="5.74385">
        <ele>1059.4</ele>
        <time>2021-12-19T09:35:06Z</time>
      </trkpt>
      <trkpt lat="45.3477" lon="5.74383">
        <ele>1059.6</ele>
        <time>2021-12-19T09:35:07Z</time>
      </trkpt>
      <trkpt lat="45.3477" lon="5.74382">
        <ele>1059.8</ele>
        <time>2021-12-19T09:35:08Z</time>
      </trkpt>
      <trkpt lat="45.34769" lon="5.74381">
        <ele>1060</ele>
        <time>2021-12-19T09:35:09Z</time>
      </trkpt>
      <trkpt lat="45.34769" lon="5.74379">
        <ele>1060.3</ele>
        <time>2021-12-19T09:35:10Z</time>
      </trkpt>
      <trkpt lat="45.34769" lon="5.74378">
        <ele>1060.5</ele>
        <time>2021-12-19T09:35:11Z</time>
      </trkpt>
      <trkpt lat="45.34768" lon="5.74377">
        <ele>1060.6</ele>
        <time>2021-12-19T09:35:12Z</time>
      </trkpt>
      <trkpt lat="45.34768" lon="5.74376">
        <ele>1060.9</ele>
        <time>2021-12-19T09:35:13Z</time>
      </trkpt>
      <trkpt lat="45.34768" lon="5.74375">
        <ele>1061.1</ele>
        <time>2021-12-19T09:35:14Z</time>
      </trkpt>
      <trkpt lat="45.34768" lon="5.74374">
        <ele>1061.2</ele>
        <time>2021-12-19T09:35:15Z</time>
      </trkpt>
      <trkpt lat="45.34768" lon="5.74373">
        <ele>1061.3</ele>
        <time>2021-12-19T09:35:16Z</time>
      </trkpt>
      <trkpt lat="45.34768" lon="5.74372">
        <ele>1061.5</ele>
        <time>2021-12-19T09:35:17Z</time>
      </trkpt>
      <trkpt lat="45.34767" lon="5.74371">
        <ele>1061.7</ele>
        <time>2021-12-19T09:35:18Z</time>
      </trkpt>
      <trkpt lat="45.34767" lon="5.7437">
        <ele>1062</ele>
        <time>2021-12-19T09:35:19Z</time>
      </trkpt>
      <trkpt lat="45.34767" lon="5.74369">
        <ele>1062.1</ele>
        <time>2021-12-19T09:35:20Z</time>
      </trkpt>
      <trkpt lat="45.34767" lon="5.74368">
        <ele>1062.2</ele>
        <time>2021-12-19T09:35:21Z</time>
      </trkpt>
      <trkpt lat="45.34767" lon="5.74367">
        <ele>1062.3</ele>
        <time>2021-12-19T09:35:22Z</time>
      </trkpt>
      <trkpt lat="45.34767" lon="5.74366">
        <ele>1062.4</ele>
        <time>2021-12-19T09:35:23Z</time>
      </trkpt>
      <trkpt lat="45.34767" lon="5.74365">
        <ele>1062.6</ele>
        <time>2021-12-19T09:35:24Z</time>
      </trkpt>
      <trkpt lat="45.34766" lon="5.74365">
        <ele>1062.8</ele>
        <time>2021-12-19T09:35:25Z</time>
      </trkpt>
      <trkpt lat="45.34766" lon="5.74364">
        <ele>1063</ele>
        <time>2021-12-19T09:35:26Z</time>
      </trkpt>
      <trkpt lat="45.34765" lon="5.74364">
        <ele>1063.1</ele>
        <time>2021-12-19T09:35:27Z</time>
      </trkpt>
      <trkpt lat="45.34765" lon="5.74363">
        <ele>1063.3</ele>
        <time>2021-12-19T09:35:28Z</time>
      </trkpt>
      <trkpt lat="45.34764" lon="5.74363">
        <ele>1063.5</ele>
        <time>2021-12-19T09:35:29Z</time>
      </trkpt>
      <trkpt lat="45.34763" lon="5.74362">
        <ele>1063.7</ele>
        <time>2021-12-19T09:35:30Z</time>
      </trkpt>
      <trkpt lat="45.34763" lon="5.74361">
        <ele>1063.8</ele>
        <time>2021-12-19T09:35:31Z</time>
      </trkpt>
      <trkpt lat="45.34763" lon="5.7436">
        <ele>1063.9</ele>
        <time>2021-12-19T09:35:32Z</time>
      </trkpt>
      <trkpt lat="45.34762" lon="5.7436">
        <ele>1064.1</ele>
        <time>2021-12-19T09:35:33Z</time>
      </trkpt>
      <trkpt lat="45.34762" lon="5.74359">
        <ele>1064.2</ele>
        <time>2021-12-19T09:35:34Z</time>
      </trkpt>
      <trkpt lat="45.34761" lon="5.74358">
        <ele>1064.4</ele>
        <time>2021-12-19T09:35:35Z</time>
      </trkpt>
      <trkpt lat="45.34761" lon="5.74358">
        <ele>1064.5</ele>
        <time>2021-12-19T09:35:36Z</time>
      </trkpt>
      <trkpt lat="45.3476" lon="5.74357">
        <ele>1064.7</ele>
        <time>2021-12-19T09:35:37Z</time>
      </trkpt>
      <trkpt lat="45.3476" lon="5.74356">
        <ele>1064.8</ele>
        <time>2021-12-19T09:35:38Z</time>
      </trkpt>
      <trkpt lat="45.3476" lon="5.74355">
        <ele>1065</ele>
        <time>2021-12-19T09:35:39Z</time>
      </trkpt>
      <trkpt lat="45.34759" lon="5.74355">
        <ele>1065.2</ele>
        <time>2021-12-19T09:35:40Z</time>
      </trkpt>
      <trkpt lat="45.34759" lon="5.74354">
        <ele>1065.3</ele>
        <time>2021-12-19T09:35:41Z</time>
      </trkpt>
      <trkpt lat="45.34758" lon="5.74353">
        <ele>1065.5</ele>
        <time>2021-12-19T09:35:42Z</time>
      </trkpt>
      <trkpt lat="45.34758" lon="5.74353">
        <ele>1065.5</ele>
        <time>2021-12-19T09:35:43Z</time>
      </trkpt>
      <trkpt lat="45.34758" lon="5.74352">
        <ele>1065.6</ele>
        <time>2021-12-19T09:35:44Z</time>
      </trkpt>
      <trkpt lat="45.34758" lon="5.74352">
        <ele>1065.8</ele>
        <time>2021-12-19T09:35:45Z</time>
      </trkpt>
      <trkpt lat="45.34757" lon="5.74351">
        <ele>1065.9</ele>
        <time>2021-12-19T09:35:46Z</time>
      </trkpt>
      <trkpt lat="45.34757" lon="5.74351">
        <ele>1066.1</ele>
        <time>2021-12-19T09:35:47Z</time>
      </trkpt>
      <trkpt lat="45.34756" lon="5.7435">
        <ele>1066.2</ele>
        <time>2021-12-19T09:35:48Z</time>
      </trkpt>
      <trkpt lat="45.34756" lon="5.7435">
        <ele>1066.3</ele>
        <time>2021-12-19T09:35:49Z</time>
      </trkpt>
      <trkpt lat="45.34756" lon="5.74349">
        <ele>1066.4</ele>
        <time>2021-12-19T09:35:50Z</time>
      </trkpt>
      <trkpt lat="45.34756" lon="5.74348">
        <ele>1066.5</ele>
        <time>2021-12-19T09:35:51Z</time>
      </trkpt>
      <trkpt lat="45.34755" lon="5.74348">
        <ele>1066.7</ele>
        <time>2021-12-19T09:35:52Z</time>
      </trkpt>
      <trkpt lat="45.34755" lon="5.74347">
        <ele>1066.8</ele>
        <time>2021-12-19T09:35:53Z</time>
      </trkpt>
      <trkpt lat="45.34755" lon="5.74346">
        <ele>1066.9</ele>
        <time>2021-12-19T09:35:54Z</time>
      </trkpt>
      <trkpt lat="45.34754" lon="5.74345">
        <ele>1067.1</ele>
        <time>2021-12-19T09:35:55Z</time>
      </trkpt>
      <trkpt lat="45.34754" lon="5.74344">
        <ele>1067.2</ele>
        <time>2021-12-19T09:35:56Z</time>
      </trkpt>
      <trkpt lat="45.34754" lon="5.74343">
        <ele>1067.4</ele>
        <time>2021-12-19T09:35:57Z</time>
      </trkpt>
      <trkpt lat="45.34754" lon="5.74343">
        <ele>1067.4</ele>
        <time>2021-12-19T09:35:58Z</time>
      </trkpt>
      <trkpt lat="45.34754" lon="5.74342">
        <ele>1067.6</ele>
        <time>2021-12-19T09:35:59Z</time>
      </trkpt>
      <trkpt lat="45.34753" lon="5.74342">
        <ele>1067.7</ele>
        <time>2021-12-19T09:36:00Z</time>
      </trkpt>
      <trkpt lat="45.34753" lon="5.74342">
        <ele>1067.8</ele>
        <time>2021-12-19T09:36:01Z</time>
      </trkpt>
      <trkpt lat="45.34753" lon="5.74341">
        <ele>1067.9</ele>
        <time>2021-12-19T09:36:02Z</time>
      </trkpt>
      <trkpt lat="45.34752" lon="5.74341">
        <ele>1068.1</ele>
        <time>2021-12-19T09:36:03Z</time>
      </trkpt>
      <trkpt lat="45.34752" lon="5.7434">
        <ele>1068.2</ele>
        <time>2021-12-19T09:36:04Z</time>
      </trkpt>
      <trkpt lat="45.34752" lon="5.74339">
        <ele>1068.3</ele>
        <time>2021-12-19T09:36:05Z</time>
      </trkpt>
      <trkpt lat="45.34753" lon="5.74339">
        <ele>1068.4</ele>
        <time>2021-12-19T09:36:06Z</time>
      </trkpt>
      <trkpt lat="45.34753" lon="5.74338">
        <ele>1068.5</ele>
        <time>2021-12-19T09:36:07Z</time>
      </trkpt>
      <trkpt lat="45.34753" lon="5.74337">
        <ele>1068.6</ele>
        <time>2021-12-19T09:36:08Z</time>
      </trkpt>
      <trkpt lat="45.34753" lon="5.74337">
        <ele>1068.7</ele>
        <time>2021-12-19T09:36:09Z</time>
      </trkpt>
      <trkpt lat="45.34753" lon="5.74336">
        <ele>1068.9</ele>
        <time>2021-12-19T09:36:10Z</time>
      </trkpt>
      <trkpt lat="45.34753" lon="5.74335">
        <ele>1069</ele>
        <time>2021-12-19T09:36:11Z</time>
      </trkpt>
      <trkpt lat="45.34753" lon="5.74334">
        <ele>1069.1</ele>
        <time>2021-12-19T09:36:12Z</time>
      </trkpt>
      <trkpt lat="45.34753" lon="5.74334">
        <ele>1069.2</ele>
        <time>2021-12-19T09:36:13Z</time>
      </trkpt>
      <trkpt lat="45.34753" lon="5.74333">
        <ele>1069.3</ele>
        <time>2021-12-19T09:36:14Z</time>
      </trkpt>
      <trkpt lat="45.34753" lon="5.74333">
        <ele>1069.4</ele>
        <time>2021-12-19T09:36:15Z</time>
      </trkpt>
      <trkpt lat="45.34753" lon="5.74333">
        <ele>1069.4</ele>
        <time>2021-12-19T09:36:16Z</time>
      </trkpt>
      <trkpt lat="45.34752" lon="5.74332">
        <ele>1069.5</ele>
        <time>2021-12-19T09:36:17Z</time>
      </trkpt>
      <trkpt lat="45.34752" lon="5.74332">
        <ele>1069.7</ele>
        <time>2021-12-19T09:36:18Z</time>
      </trkpt>
      <trkpt lat="45.34751" lon="5.74331">
        <ele>1069.8</ele>
        <time>2021-12-19T09:36:19Z</time>
      </trkpt>
      <trkpt lat="45.3475" lon="5.7433">
        <ele>1070</ele>
        <time>2021-12-19T09:36:20Z</time>
      </trkpt>
      <trkpt lat="45.3475" lon="5.7433">
        <ele>1070.2</ele>
        <time>2021-12-19T09:36:21Z</time>
      </trkpt>
      <trkpt lat="45.3475" lon="5.74329">
        <ele>1070.2</ele>
        <time>2021-12-19T09:36:22Z</time>
      </trkpt>
      <trkpt lat="45.34749" lon="5.74329">
        <ele>1070.4</ele>
        <time>2021-12-19T09:36:23Z</time>
      </trkpt>
      <trkpt lat="45.34748" lon="5.74328">
        <ele>1070.5</ele>
        <time>2021-12-19T09:36:24Z</time>
      </trkpt>
      <trkpt lat="45.34748" lon="5.74328">
        <ele>1070.7</ele>
        <time>2021-12-19T09:36:25Z</time>
      </trkpt>
      <trkpt lat="45.34748" lon="5.74327">
        <ele>1070.8</ele>
        <time>2021-12-19T09:36:26Z</time>
      </trkpt>
      <trkpt lat="45.34748" lon="5.74326">
        <ele>1071</ele>
        <time>2021-12-19T09:36:27Z</time>
      </trkpt>
      <trkpt lat="45.34747" lon="5.74325">
        <ele>1071.1</ele>
        <time>2021-12-19T09:36:28Z</time>
      </trkpt>
      <trkpt lat="45.34747" lon="5.74325">
        <ele>1071.2</ele>
        <time>2021-12-19T09:36:29Z</time>
      </trkpt>
      <trkpt lat="45.34747" lon="5.74324">
        <ele>1071.3</ele>
        <time>2021-12-19T09:36:30Z</time>
      </trkpt>
      <trkpt lat="45.34747" lon="5.74323">
        <ele>1071.4</ele>
        <time>2021-12-19T09:36:31Z</time>
      </trkpt>
      <trkpt lat="45.34747" lon="5.74323">
        <ele>1071.5</ele>
        <time>2021-12-19T09:36:32Z</time>
      </trkpt>
      <trkpt lat="45.34746" lon="5.74323">
        <ele>1071.6</ele>
        <time>2021-12-19T09:36:33Z</time>
      </trkpt>
      <trkpt lat="45.34746" lon="5.74322">
        <ele>1071.7</ele>
        <time>2021-12-19T09:36:34Z</time>
      </trkpt>
      <trkpt lat="45.34746" lon="5.74322">
        <ele>1071.8</ele>
        <time>2021-12-19T09:36:35Z</time>
      </trkpt>
      <trkpt lat="45.34746" lon="5.74322">
        <ele>1071.8</ele>
        <time>2021-12-19T09:36:36Z</time>
      </trkpt>
      <trkpt lat="45.34746" lon="5.74321">
        <ele>1071.9</ele>
        <time>2021-12-19T09:36:37Z</time>
      </trkpt>
      <trkpt lat="45.34745" lon="5.74321">
        <ele>1072</ele>
        <time>2021-12-19T09:36:38Z</time>
      </trkpt>
      <trkpt lat="45.34745" lon="5.7432">
        <ele>1072.1</ele>
        <time>2021-12-19T09:36:39Z</time>
      </trkpt>
      <trkpt lat="45.34745" lon="5.7432">
        <ele>1072.2</ele>
        <time>2021-12-19T09:36:40Z</time>
      </trkpt>
      <trkpt lat="45.34744" lon="5.7432">
        <ele>1072.3</ele>
        <time>2021-12-19T09:36:41Z</time>
      </trkpt>
      <trkpt lat="45.34744" lon="5.74319">
        <ele>1072.4</ele>
        <time>2021-12-19T09:36:42Z</time>
      </trkpt>
      <trkpt lat="45.34744" lon="5.74319">
        <ele>1072.5</ele>
        <time>2021-12-19T09:36:43Z</time>
      </trkpt>
      <trkpt lat="45.34744" lon="5.74318">
        <ele>1072.6</ele>
        <time>2021-12-19T09:36:44Z</time>
      </trkpt>
      <trkpt lat="45.34743" lon="5.74318">
        <ele>1072.6</ele>
        <time>2021-12-19T09:36:45Z</time>
      </trkpt>
      <trkpt lat="45.34743" lon="5.74318">
        <ele>1072.6</ele>
        <time>2021-12-19T09:36:46Z</time>
      </trkpt>
      <trkpt lat="45.34743" lon="5.74318">
        <ele>1072.7</ele>
        <time>2021-12-19T09:36:47Z</time>
      </trkpt>
      <trkpt lat="45.34744" lon="5.74318">
        <ele>1072.8</ele>
        <time>2021-12-19T09:36:48Z</time>
      </trkpt>
      <trkpt lat="45.34744" lon="5.74317">
        <ele>1072.9</ele>
        <time>2021-12-19T09:36:49Z</time>
      </trkpt>
      <trkpt lat="45.34744" lon="5.74316">
        <ele>1073</ele>
        <time>2021-12-19T09:36:50Z</time>
      </trkpt>
      <trkpt lat="45.34744" lon="5.74315">
        <ele>1073.1</ele>
        <time>2021-12-19T09:36:51Z</time>
      </trkpt>
      <trkpt lat="45.34744" lon="5.74315">
        <ele>1073.2</ele>
        <time>2021-12-19T09:36:52Z</time>
      </trkpt>
      <trkpt lat="45.34744" lon="5.74315">
        <ele>1073.2</ele>
        <time>2021-12-19T09:36:53Z</time>
      </trkpt>
      <trkpt lat="45.34743" lon="5.74314">
        <ele>1073.4</ele>
        <time>2021-12-19T09:36:54Z</time>
      </trkpt>
      <trkpt lat="45.34742" lon="5.74313">
        <ele>1073.5</ele>
        <time>2021-12-19T09:36:55Z</time>
      </trkpt>
      <trkpt lat="45.34742" lon="5.74313">
        <ele>1073.7</ele>
        <time>2021-12-19T09:36:56Z</time>
      </trkpt>
      <trkpt lat="45.34742" lon="5.74312">
        <ele>1073.8</ele>
        <time>2021-12-19T09:36:57Z</time>
      </trkpt>
      <trkpt lat="45.34741" lon="5.74312">
        <ele>1073.9</ele>
        <time>2021-12-19T09:36:58Z</time>
      </trkpt>
      <trkpt lat="45.3474" lon="5.74312">
        <ele>1074.1</ele>
        <time>2021-12-19T09:36:59Z</time>
      </trkpt>
      <trkpt lat="45.3474" lon="5.74311">
        <ele>1074.1</ele>
        <time>2021-12-19T09:37:00Z</time>
      </trkpt>
      <trkpt lat="45.3474" lon="5.74311">
        <ele>1074.2</ele>
        <time>2021-12-19T09:37:01Z</time>
      </trkpt>
      <trkpt lat="45.34739" lon="5.7431">
        <ele>1074.4</ele>
        <time>2021-12-19T09:37:02Z</time>
      </trkpt>
      <trkpt lat="45.34739" lon="5.7431">
        <ele>1074.5</ele>
        <time>2021-12-19T09:37:03Z</time>
      </trkpt>
      <trkpt lat="45.34738" lon="5.74309">
        <ele>1074.6</ele>
        <time>2021-12-19T09:37:04Z</time>
      </trkpt>
      <trkpt lat="45.34739" lon="5.74308">
        <ele>1074.8</ele>
        <time>2021-12-19T09:37:05Z</time>
      </trkpt>
      <trkpt lat="45.34739" lon="5.74308">
        <ele>1074.8</ele>
        <time>2021-12-19T09:37:06Z</time>
      </trkpt>
      <trkpt lat="45.34739" lon="5.74308">
        <ele>1074.9</ele>
        <time>2021-12-19T09:37:07Z</time>
      </trkpt>
      <trkpt lat="45.3474" lon="5.74308">
        <ele>1074.9</ele>
        <time>2021-12-19T09:37:08Z</time>
      </trkpt>
      <trkpt lat="45.3474" lon="5.74308">
        <ele>1075</ele>
        <time>2021-12-19T09:37:09Z</time>
      </trkpt>
      <trkpt lat="45.3474" lon="5.74308">
        <ele>1075</ele>
        <time>2021-12-19T09:37:10Z</time>
      </trkpt>
      <trkpt lat="45.3474" lon="5.74308">
        <ele>1075</ele>
        <time>2021-12-19T09:37:11Z</time>
      </trkpt>
      <trkpt lat="45.3474" lon="5.74308">
        <ele>1075.1</ele>
        <time>2021-12-19T09:37:12Z</time>
      </trkpt>
      <trkpt lat="45.3474" lon="5.74308">
        <ele>1075.1</ele>
        <time>2021-12-19T09:37:13Z</time>
      </trkpt>
      <trkpt lat="45.3474" lon="5.74308">
        <ele>1075.2</ele>
        <time>2021-12-19T09:37:14Z</time>
      </trkpt>
      <trkpt lat="45.3474" lon="5.74307">
        <ele>1075.2</ele>
        <time>2021-12-19T09:37:15Z</time>
      </trkpt>
      <trkpt lat="45.3474" lon="5.74307">
        <ele>1075.3</ele>
        <time>2021-12-19T09:37:16Z</time>
      </trkpt>
      <trkpt lat="45.3474" lon="5.74307">
        <ele>1075.3</ele>
        <time>2021-12-19T09:37:17Z</time>
      </trkpt>
      <trkpt lat="45.3474" lon="5.74307">
        <ele>1075.4</ele>
        <time>2021-12-19T09:37:18Z</time>
      </trkpt>
      <trkpt lat="45.3474" lon="5.74307">
        <ele>1075.4</ele>
        <time>2021-12-19T09:37:19Z</time>
      </trkpt>
      <trkpt lat="45.3474" lon="5.74307">
        <ele>1075.4</ele>
        <time>2021-12-19T09:37:20Z</time>
      </trkpt>
      <trkpt lat="45.3474" lon="5.74307">
        <ele>1075.5</ele>
        <time>2021-12-19T09:37:21Z</time>
      </trkpt>
      <trkpt lat="45.3474" lon="5.74307">
        <ele>1075.5</ele>
        <time>2021-12-19T09:37:22Z</time>
      </trkpt>
      <trkpt lat="45.3474" lon="5.74307">
        <ele>1075.5</ele>
        <time>2021-12-19T09:37:23Z</time>
      </trkpt>
      <trkpt lat="45.3474" lon="5.74307">
        <ele>1075.5</ele>
        <time>2021-12-19T09:37:24Z</time>
      </trkpt>
      <trkpt lat="45.3474" lon="5.74307">
        <ele>1075.5</ele>
        <time>2021-12-19T09:37:25Z</time>
      </trkpt>
      <trkpt lat="45.3474" lon="5.74307">
        <ele>1075.6</ele>
        <time>2021-12-19T09:37:26Z</time>
      </trkpt>
      <trkpt lat="45.3474" lon="5.74307">
        <ele>1075.6</ele>
        <time>2021-12-19T09:37:27Z</time>
      </trkpt>
      <trkpt lat="45.3474" lon="5.74307">
        <ele>1075.6</ele>
        <time>2021-12-19T09:37:28Z</time>
      </trkpt>
      <trkpt lat="45.3474" lon="5.74307">
        <ele>1075.7</ele>
        <time>2021-12-19T09:37:29Z</time>
      </trkpt>
      <trkpt lat="45.34739" lon="5.74307">
        <ele>1075.8</ele>
        <time>2021-12-19T09:37:30Z</time>
      </trkpt>
      <trkpt lat="45.34739" lon="5.74306">
        <ele>1075.9</ele>
        <time>2021-12-19T09:37:31Z</time>
      </trkpt>
      <trkpt lat="45.34739" lon="5.74306">
        <ele>1076</ele>
        <time>2021-12-19T09:37:32Z</time>
      </trkpt>
      <trkpt lat="45.34738" lon="5.74305">
        <ele>1076.1</ele>
        <time>2021-12-19T09:37:33Z</time>
      </trkpt>
      <trkpt lat="45.34738" lon="5.74305">
        <ele>1076.2</ele>
        <time>2021-12-19T09:37:34Z</time>
      </trkpt>
      <trkpt lat="45.34737" lon="5.74305">
        <ele>1076.3</ele>
        <time>2021-12-19T09:37:35Z</time>
      </trkpt>
      <trkpt lat="45.34737" lon="5.74304">
        <ele>1076.5</ele>
        <time>2021-12-19T09:37:36Z</time>
      </trkpt>
      <trkpt lat="45.34736" lon="5.74304">
        <ele>1076.6</ele>
        <time>2021-12-19T09:37:37Z</time>
      </trkpt>
      <trkpt lat="45.34736" lon="5.74303">
        <ele>1076.8</ele>
        <time>2021-12-19T09:37:38Z</time>
      </trkpt>
      <trkpt lat="45.34735" lon="5.74302">
        <ele>1077</ele>
        <time>2021-12-19T09:37:39Z</time>
      </trkpt>
      <trkpt lat="45.34734" lon="5.74301">
        <ele>1077.1</ele>
        <time>2021-12-19T09:37:40Z</time>
      </trkpt>
      <trkpt lat="45.34734" lon="5.74301">
        <ele>1077.2</ele>
        <time>2021-12-19T09:37:41Z</time>
      </trkpt>
      <trkpt lat="45.34733" lon="5.74301">
        <ele>1077.4</ele>
        <time>2021-12-19T09:37:42Z</time>
      </trkpt>
      <trkpt lat="45.34733" lon="5.743">
        <ele>1077.5</ele>
        <time>2021-12-19T09:37:43Z</time>
      </trkpt>
      <trkpt lat="45.34733" lon="5.74299">
        <ele>1077.7</ele>
        <time>2021-12-19T09:37:44Z</time>
      </trkpt>
      <trkpt lat="45.34733" lon="5.74299">
        <ele>1077.7</ele>
        <time>2021-12-19T09:37:45Z</time>
      </trkpt>
      <trkpt lat="45.34733" lon="5.74299">
        <ele>1077.8</ele>
        <time>2021-12-19T09:37:46Z</time>
      </trkpt>
      <trkpt lat="45.34732" lon="5.74298">
        <ele>1077.9</ele>
        <time>2021-12-19T09:37:47Z</time>
      </trkpt>
      <trkpt lat="45.34732" lon="5.74298">
        <ele>1078</ele>
        <time>2021-12-19T09:37:48Z</time>
      </trkpt>
      <trkpt lat="45.34731" lon="5.74299">
        <ele>1078.1</ele>
        <time>2021-12-19T09:37:49Z</time>
      </trkpt>
      <trkpt lat="45.34731" lon="5.74299">
        <ele>1078.2</ele>
        <time>2021-12-19T09:37:50Z</time>
      </trkpt>
      <trkpt lat="45.34731" lon="5.743">
        <ele>1078.3</ele>
        <time>2021-12-19T09:37:51Z</time>
      </trkpt>
      <trkpt lat="45.3473" lon="5.743">
        <ele>1078.4</ele>
        <time>2021-12-19T09:37:52Z</time>
      </trkpt>
      <trkpt lat="45.3473" lon="5.743">
        <ele>1078.5</ele>
        <time>2021-12-19T09:37:53Z</time>
      </trkpt>
      <trkpt lat="45.34729" lon="5.743">
        <ele>1078.6</ele>
        <time>2021-12-19T09:37:54Z</time>
      </trkpt>
      <trkpt lat="45.34729" lon="5.743">
        <ele>1078.8</ele>
        <time>2021-12-19T09:37:55Z</time>
      </trkpt>
      <trkpt lat="45.34728" lon="5.743">
        <ele>1078.9</ele>
        <time>2021-12-19T09:37:56Z</time>
      </trkpt>
      <trkpt lat="45.34727" lon="5.74301">
        <ele>1079.1</ele>
        <time>2021-12-19T09:37:57Z</time>
      </trkpt>
      <trkpt lat="45.34727" lon="5.74301">
        <ele>1079.1</ele>
        <time>2021-12-19T09:37:58Z</time>
      </trkpt>
      <trkpt lat="45.34727" lon="5.74301">
        <ele>1079.2</ele>
        <time>2021-12-19T09:37:59Z</time>
      </trkpt>
      <trkpt lat="45.34726" lon="5.74301">
        <ele>1079.3</ele>
        <time>2021-12-19T09:38:00Z</time>
      </trkpt>
      <trkpt lat="45.34725" lon="5.74301">
        <ele>1079.5</ele>
        <time>2021-12-19T09:38:01Z</time>
      </trkpt>
      <trkpt lat="45.34725" lon="5.74302">
        <ele>1079.6</ele>
        <time>2021-12-19T09:38:02Z</time>
      </trkpt>
      <trkpt lat="45.34725" lon="5.74302">
        <ele>1079.7</ele>
        <time>2021-12-19T09:38:03Z</time>
      </trkpt>
      <trkpt lat="45.34725" lon="5.74303">
        <ele>1079.9</ele>
        <time>2021-12-19T09:38:04Z</time>
      </trkpt>
      <trkpt lat="45.34725" lon="5.74303">
        <ele>1079.9</ele>
        <time>2021-12-19T09:38:05Z</time>
      </trkpt>
      <trkpt lat="45.34724" lon="5.74304">
        <ele>1080</ele>
        <time>2021-12-19T09:38:06Z</time>
      </trkpt>
      <trkpt lat="45.34724" lon="5.74304">
        <ele>1080.1</ele>
        <time>2021-12-19T09:38:07Z</time>
      </trkpt>
      <trkpt lat="45.34725" lon="5.74304">
        <ele>1080.2</ele>
        <time>2021-12-19T09:38:08Z</time>
      </trkpt>
      <trkpt lat="45.34725" lon="5.74304">
        <ele>1080.2</ele>
        <time>2021-12-19T09:38:09Z</time>
      </trkpt>
      <trkpt lat="45.34725" lon="5.74304">
        <ele>1080.3</ele>
        <time>2021-12-19T09:38:10Z</time>
      </trkpt>
      <trkpt lat="45.34725" lon="5.74304">
        <ele>1080.3</ele>
        <time>2021-12-19T09:38:11Z</time>
      </trkpt>
      <trkpt lat="45.34726" lon="5.74305">
        <ele>1080.4</ele>
        <time>2021-12-19T09:38:12Z</time>
      </trkpt>
      <trkpt lat="45.34725" lon="5.74305">
        <ele>1080.5</ele>
        <time>2021-12-19T09:38:13Z</time>
      </trkpt>
      <trkpt lat="45.34725" lon="5.74306">
        <ele>1080.7</ele>
        <time>2021-12-19T09:38:14Z</time>
      </trkpt>
      <trkpt lat="45.34725" lon="5.74306">
        <ele>1080.8</ele>
        <time>2021-12-19T09:38:15Z</time>
      </trkpt>
      <trkpt lat="45.34726" lon="5.74307">
        <ele>1080.9</ele>
        <time>2021-12-19T09:38:16Z</time>
      </trkpt>
      <trkpt lat="45.34726" lon="5.74308">
        <ele>1081.1</ele>
        <time>2021-12-19T09:38:17Z</time>
      </trkpt>
      <trkpt lat="45.34726" lon="5.74309">
        <ele>1081.3</ele>
        <time>2021-12-19T09:38:18Z</time>
      </trkpt>
      <trkpt lat="45.34726" lon="5.7431">
        <ele>1081.4</ele>
        <time>2021-12-19T09:38:19Z</time>
      </trkpt>
      <trkpt lat="45.34725" lon="5.74311">
        <ele>1081.5</ele>
        <time>2021-12-19T09:38:20Z</time>
      </trkpt>
      <trkpt lat="45.34725" lon="5.74311">
        <ele>1081.6</ele>
        <time>2021-12-19T09:38:21Z</time>
      </trkpt>
      <trkpt lat="45.34725" lon="5.74312">
        <ele>1081.8</ele>
        <time>2021-12-19T09:38:22Z</time>
      </trkpt>
      <trkpt lat="45.34724" lon="5.74313">
        <ele>1081.9</ele>
        <time>2021-12-19T09:38:23Z</time>
      </trkpt>
      <trkpt lat="45.34724" lon="5.74314">
        <ele>1082.1</ele>
        <time>2021-12-19T09:38:24Z</time>
      </trkpt>
      <trkpt lat="45.34723" lon="5.74314">
        <ele>1082.2</ele>
        <time>2021-12-19T09:38:25Z</time>
      </trkpt>
      <trkpt lat="45.34723" lon="5.74315">
        <ele>1082.4</ele>
        <time>2021-12-19T09:38:26Z</time>
      </trkpt>
      <trkpt lat="45.34722" lon="5.74316">
        <ele>1082.5</ele>
        <time>2021-12-19T09:38:27Z</time>
      </trkpt>
      <trkpt lat="45.34722" lon="5.74316">
        <ele>1082.7</ele>
        <time>2021-12-19T09:38:28Z</time>
      </trkpt>
      <trkpt lat="45.34721" lon="5.74317">
        <ele>1082.8</ele>
        <time>2021-12-19T09:38:29Z</time>
      </trkpt>
      <trkpt lat="45.34721" lon="5.74318">
        <ele>1083</ele>
        <time>2021-12-19T09:38:30Z</time>
      </trkpt>
      <trkpt lat="45.34721" lon="5.74319">
        <ele>1083.2</ele>
        <time>2021-12-19T09:38:31Z</time>
      </trkpt>
      <trkpt lat="45.34721" lon="5.7432">
        <ele>1083.3</ele>
        <time>2021-12-19T09:38:32Z</time>
      </trkpt>
      <trkpt lat="45.34721" lon="5.7432">
        <ele>1083.4</ele>
        <time>2021-12-19T09:38:33Z</time>
      </trkpt>
      <trkpt lat="45.34721" lon="5.74322">
        <ele>1083.6</ele>
        <time>2021-12-19T09:38:34Z</time>
      </trkpt>
      <trkpt lat="45.34721" lon="5.74322">
        <ele>1083.7</ele>
        <time>2021-12-19T09:38:35Z</time>
      </trkpt>
      <trkpt lat="45.3472" lon="5.74323">
        <ele>1083.8</ele>
        <time>2021-12-19T09:38:36Z</time>
      </trkpt>
      <trkpt lat="45.34721" lon="5.74324">
        <ele>1084</ele>
        <time>2021-12-19T09:38:37Z</time>
      </trkpt>
      <trkpt lat="45.3472" lon="5.74324">
        <ele>1084.1</ele>
        <time>2021-12-19T09:38:38Z</time>
      </trkpt>
      <trkpt lat="45.3472" lon="5.74325">
        <ele>1084.2</ele>
        <time>2021-12-19T09:38:39Z</time>
      </trkpt>
      <trkpt lat="45.3472" lon="5.74326">
        <ele>1084.3</ele>
        <time>2021-12-19T09:38:40Z</time>
      </trkpt>
      <trkpt lat="45.3472" lon="5.74327">
        <ele>1084.4</ele>
        <time>2021-12-19T09:38:41Z</time>
      </trkpt>
      <trkpt lat="45.34719" lon="5.74327">
        <ele>1084.5</ele>
        <time>2021-12-19T09:38:42Z</time>
      </trkpt>
      <trkpt lat="45.34719" lon="5.74328">
        <ele>1084.6</ele>
        <time>2021-12-19T09:38:43Z</time>
      </trkpt>
      <trkpt lat="45.34718" lon="5.74328">
        <ele>1084.8</ele>
        <time>2021-12-19T09:38:44Z</time>
      </trkpt>
      <trkpt lat="45.34717" lon="5.74328">
        <ele>1085</ele>
        <time>2021-12-19T09:38:45Z</time>
      </trkpt>
      <trkpt lat="45.34717" lon="5.74329">
        <ele>1085.1</ele>
        <time>2021-12-19T09:38:46Z</time>
      </trkpt>
      <trkpt lat="45.34717" lon="5.74329">
        <ele>1085.1</ele>
        <time>2021-12-19T09:38:47Z</time>
      </trkpt>
      <trkpt lat="45.34716" lon="5.7433">
        <ele>1085.4</ele>
        <time>2021-12-19T09:38:48Z</time>
      </trkpt>
      <trkpt lat="45.34716" lon="5.74331">
        <ele>1085.5</ele>
        <time>2021-12-19T09:38:49Z</time>
      </trkpt>
      <trkpt lat="45.34716" lon="5.74331">
        <ele>1085.6</ele>
        <time>2021-12-19T09:38:50Z</time>
      </trkpt>
      <trkpt lat="45.34715" lon="5.74332">
        <ele>1085.8</ele>
        <time>2021-12-19T09:38:51Z</time>
      </trkpt>
      <trkpt lat="45.34715" lon="5.74333">
        <ele>1086</ele>
        <time>2021-12-19T09:38:52Z</time>
      </trkpt>
      <trkpt lat="45.34715" lon="5.74334">
        <ele>1086.1</ele>
        <time>2021-12-19T09:38:53Z</time>
      </trkpt>
      <trkpt lat="45.34715" lon="5.74335">
        <ele>1086.3</ele>
        <time>2021-12-19T09:38:54Z</time>
      </trkpt>
      <trkpt lat="45.34714" lon="5.74336">
        <ele>1086.4</ele>
        <time>2021-12-19T09:38:55Z</time>
      </trkpt>
      <trkpt lat="45.34714" lon="5.74337">
        <ele>1086.6</ele>
        <time>2021-12-19T09:38:56Z</time>
      </trkpt>
      <trkpt lat="45.34714" lon="5.74339">
        <ele>1086.8</ele>
        <time>2021-12-19T09:38:57Z</time>
      </trkpt>
      <trkpt lat="45.34714" lon="5.7434">
        <ele>1087</ele>
        <time>2021-12-19T09:38:58Z</time>
      </trkpt>
      <trkpt lat="45.34714" lon="5.74341">
        <ele>1087.2</ele>
        <time>2021-12-19T09:38:59Z</time>
      </trkpt>
      <trkpt lat="45.34715" lon="5.74342">
        <ele>1087.3</ele>
        <time>2021-12-19T09:39:00Z</time>
      </trkpt>
      <trkpt lat="45.34714" lon="5.74343">
        <ele>1087.4</ele>
        <time>2021-12-19T09:39:01Z</time>
      </trkpt>
      <trkpt lat="45.34714" lon="5.74344">
        <ele>1087.6</ele>
        <time>2021-12-19T09:39:02Z</time>
      </trkpt>
      <trkpt lat="45.34714" lon="5.74344">
        <ele>1087.7</ele>
        <time>2021-12-19T09:39:03Z</time>
      </trkpt>
      <trkpt lat="45.34714" lon="5.74345">
        <ele>1087.8</ele>
        <time>2021-12-19T09:39:04Z</time>
      </trkpt>
      <trkpt lat="45.34713" lon="5.74346">
        <ele>1088</ele>
        <time>2021-12-19T09:39:05Z</time>
      </trkpt>
      <trkpt lat="45.34714" lon="5.74347">
        <ele>1088.2</ele>
        <time>2021-12-19T09:39:06Z</time>
      </trkpt>
      <trkpt lat="45.34713" lon="5.74348">
        <ele>1088.4</ele>
        <time>2021-12-19T09:39:07Z</time>
      </trkpt>
      <trkpt lat="45.34713" lon="5.74349">
        <ele>1088.5</ele>
        <time>2021-12-19T09:39:08Z</time>
      </trkpt>
      <trkpt lat="45.34713" lon="5.74351">
        <ele>1088.7</ele>
        <time>2021-12-19T09:39:09Z</time>
      </trkpt>
      <trkpt lat="45.34713" lon="5.74352">
        <ele>1088.9</ele>
        <time>2021-12-19T09:39:10Z</time>
      </trkpt>
      <trkpt lat="45.34713" lon="5.74353">
        <ele>1089</ele>
        <time>2021-12-19T09:39:11Z</time>
      </trkpt>
      <trkpt lat="45.34713" lon="5.74354">
        <ele>1089.2</ele>
        <time>2021-12-19T09:39:12Z</time>
      </trkpt>
      <trkpt lat="45.34713" lon="5.74355">
        <ele>1089.4</ele>
        <time>2021-12-19T09:39:13Z</time>
      </trkpt>
      <trkpt lat="45.34713" lon="5.74356">
        <ele>1089.6</ele>
        <time>2021-12-19T09:39:14Z</time>
      </trkpt>
      <trkpt lat="45.34714" lon="5.74357">
        <ele>1089.8</ele>
        <time>2021-12-19T09:39:15Z</time>
      </trkpt>
      <trkpt lat="45.34714" lon="5.74358">
        <ele>1089.9</ele>
        <time>2021-12-19T09:39:16Z</time>
      </trkpt>
      <trkpt lat="45.34714" lon="5.7436">
        <ele>1090.1</ele>
        <time>2021-12-19T09:39:17Z</time>
      </trkpt>
      <trkpt lat="45.34714" lon="5.7436">
        <ele>1090.2</ele>
        <time>2021-12-19T09:39:18Z</time>
      </trkpt>
      <trkpt lat="45.34713" lon="5.74361">
        <ele>1090.4</ele>
        <time>2021-12-19T09:39:19Z</time>
      </trkpt>
      <trkpt lat="45.34713" lon="5.74363">
        <ele>1090.6</ele>
        <time>2021-12-19T09:39:20Z</time>
      </trkpt>
      <trkpt lat="45.34713" lon="5.74364">
        <ele>1090.8</ele>
        <time>2021-12-19T09:39:21Z</time>
      </trkpt>
      <trkpt lat="45.34712" lon="5.74365">
        <ele>1090.9</ele>
        <time>2021-12-19T09:39:22Z</time>
      </trkpt>
      <trkpt lat="45.34712" lon="5.74365">
        <ele>1091.1</ele>
        <time>2021-12-19T09:39:23Z</time>
      </trkpt>
      <trkpt lat="45.34711" lon="5.74366">
        <ele>1091.3</ele>
        <time>2021-12-19T09:39:24Z</time>
      </trkpt>
      <trkpt lat="45.34711" lon="5.74367">
        <ele>1091.5</ele>
        <time>2021-12-19T09:39:25Z</time>
      </trkpt>
      <trkpt lat="45.3471" lon="5.74368">
        <ele>1091.7</ele>
        <time>2021-12-19T09:39:26Z</time>
      </trkpt>
      <trkpt lat="45.3471" lon="5.7437">
        <ele>1091.9</ele>
        <time>2021-12-19T09:39:27Z</time>
      </trkpt>
      <trkpt lat="45.34709" lon="5.74371">
        <ele>1092.1</ele>
        <time>2021-12-19T09:39:28Z</time>
      </trkpt>
      <trkpt lat="45.34709" lon="5.74372">
        <ele>1092.3</ele>
        <time>2021-12-19T09:39:29Z</time>
      </trkpt>
      <trkpt lat="45.34708" lon="5.74373">
        <ele>1092.6</ele>
        <time>2021-12-19T09:39:30Z</time>
      </trkpt>
      <trkpt lat="45.34707" lon="5.74374">
        <ele>1092.8</ele>
        <time>2021-12-19T09:39:31Z</time>
      </trkpt>
      <trkpt lat="45.34706" lon="5.74375">
        <ele>1093</ele>
        <time>2021-12-19T09:39:32Z</time>
      </trkpt>
      <trkpt lat="45.34706" lon="5.74376">
        <ele>1093.2</ele>
        <time>2021-12-19T09:39:33Z</time>
      </trkpt>
      <trkpt lat="45.34705" lon="5.74377">
        <ele>1093.4</ele>
        <time>2021-12-19T09:39:34Z</time>
      </trkpt>
      <trkpt lat="45.34705" lon="5.74378">
        <ele>1093.5</ele>
        <time>2021-12-19T09:39:35Z</time>
      </trkpt>
      <trkpt lat="45.34705" lon="5.74379">
        <ele>1093.6</ele>
        <time>2021-12-19T09:39:36Z</time>
      </trkpt>
      <trkpt lat="45.34705" lon="5.7438">
        <ele>1093.8</ele>
        <time>2021-12-19T09:39:37Z</time>
      </trkpt>
      <trkpt lat="45.34705" lon="5.7438">
        <ele>1093.9</ele>
        <time>2021-12-19T09:39:38Z</time>
      </trkpt>
      <trkpt lat="45.34705" lon="5.74382">
        <ele>1094.1</ele>
        <time>2021-12-19T09:39:39Z</time>
      </trkpt>
      <trkpt lat="45.34704" lon="5.74383">
        <ele>1094.3</ele>
        <time>2021-12-19T09:39:40Z</time>
      </trkpt>
      <trkpt lat="45.34703" lon="5.74383">
        <ele>1094.6</ele>
        <time>2021-12-19T09:39:41Z</time>
      </trkpt>
      <trkpt lat="45.34703" lon="5.74384">
        <ele>1094.7</ele>
        <time>2021-12-19T09:39:42Z</time>
      </trkpt>
      <trkpt lat="45.34702" lon="5.74385">
        <ele>1094.9</ele>
        <time>2021-12-19T09:39:43Z</time>
      </trkpt>
      <trkpt lat="45.34702" lon="5.74386">
        <ele>1095.1</ele>
        <time>2021-12-19T09:39:44Z</time>
      </trkpt>
      <trkpt lat="45.34702" lon="5.74387">
        <ele>1095.3</ele>
        <time>2021-12-19T09:39:45Z</time>
      </trkpt>
      <trkpt lat="45.34701" lon="5.74388">
        <ele>1095.4</ele>
        <time>2021-12-19T09:39:46Z</time>
      </trkpt>
      <trkpt lat="45.34701" lon="5.74388">
        <ele>1095.5</ele>
        <time>2021-12-19T09:39:47Z</time>
      </trkpt>
      <trkpt lat="45.34701" lon="5.7439">
        <ele>1095.7</ele>
        <time>2021-12-19T09:39:48Z</time>
      </trkpt>
      <trkpt lat="45.34701" lon="5.7439">
        <ele>1095.7</ele>
        <time>2021-12-19T09:39:49Z</time>
      </trkpt>
      <trkpt lat="45.34701" lon="5.74391">
        <ele>1095.9</ele>
        <time>2021-12-19T09:39:50Z</time>
      </trkpt>
      <trkpt lat="45.347" lon="5.74391">
        <ele>1096</ele>
        <time>2021-12-19T09:39:51Z</time>
      </trkpt>
      <trkpt lat="45.347" lon="5.74392">
        <ele>1096</ele>
        <time>2021-12-19T09:39:52Z</time>
      </trkpt>
      <trkpt lat="45.347" lon="5.74393">
        <ele>1096.2</ele>
        <time>2021-12-19T09:39:53Z</time>
      </trkpt>
      <trkpt lat="45.347" lon="5.74393">
        <ele>1096.3</ele>
        <time>2021-12-19T09:39:54Z</time>
      </trkpt>
      <trkpt lat="45.347" lon="5.74394">
        <ele>1096.4</ele>
        <time>2021-12-19T09:39:55Z</time>
      </trkpt>
      <trkpt lat="45.34701" lon="5.74395">
        <ele>1096.6</ele>
        <time>2021-12-19T09:39:56Z</time>
      </trkpt>
      <trkpt lat="45.34702" lon="5.74396">
        <ele>1096.7</ele>
        <time>2021-12-19T09:39:57Z</time>
      </trkpt>
      <trkpt lat="45.34702" lon="5.74396">
        <ele>1096.9</ele>
        <time>2021-12-19T09:39:58Z</time>
      </trkpt>
      <trkpt lat="45.34702" lon="5.74397">
        <ele>1097</ele>
        <time>2021-12-19T09:39:59Z</time>
      </trkpt>
      <trkpt lat="45.34702" lon="5.74398">
        <ele>1097.2</ele>
        <time>2021-12-19T09:40:00Z</time>
      </trkpt>
      <trkpt lat="45.34701" lon="5.744">
        <ele>1097.4</ele>
        <time>2021-12-19T09:40:01Z</time>
      </trkpt>
      <trkpt lat="45.34701" lon="5.74401">
        <ele>1097.6</ele>
        <time>2021-12-19T09:40:02Z</time>
      </trkpt>
      <trkpt lat="45.347" lon="5.74402">
        <ele>1097.8</ele>
        <time>2021-12-19T09:40:03Z</time>
      </trkpt>
      <trkpt lat="45.347" lon="5.74403">
        <ele>1097.9</ele>
        <time>2021-12-19T09:40:04Z</time>
      </trkpt>
      <trkpt lat="45.347" lon="5.74404">
        <ele>1098.1</ele>
        <time>2021-12-19T09:40:05Z</time>
      </trkpt>
      <trkpt lat="45.34699" lon="5.74405">
        <ele>1098.3</ele>
        <time>2021-12-19T09:40:06Z</time>
      </trkpt>
      <trkpt lat="45.34698" lon="5.74405">
        <ele>1098.5</ele>
        <time>2021-12-19T09:40:07Z</time>
      </trkpt>
      <trkpt lat="45.34697" lon="5.74406">
        <ele>1098.6</ele>
        <time>2021-12-19T09:40:08Z</time>
      </trkpt>
      <trkpt lat="45.34697" lon="5.74406">
        <ele>1098.8</ele>
        <time>2021-12-19T09:40:09Z</time>
      </trkpt>
      <trkpt lat="45.34696" lon="5.74407">
        <ele>1098.9</ele>
        <time>2021-12-19T09:40:10Z</time>
      </trkpt>
      <trkpt lat="45.34696" lon="5.74408">
        <ele>1099.1</ele>
        <time>2021-12-19T09:40:11Z</time>
      </trkpt>
      <trkpt lat="45.34696" lon="5.74409">
        <ele>1099.2</ele>
        <time>2021-12-19T09:40:12Z</time>
      </trkpt>
      <trkpt lat="45.34695" lon="5.74409">
        <ele>1099.4</ele>
        <time>2021-12-19T09:40:13Z</time>
      </trkpt>
      <trkpt lat="45.34695" lon="5.7441">
        <ele>1099.5</ele>
        <time>2021-12-19T09:40:14Z</time>
      </trkpt>
      <trkpt lat="45.34694" lon="5.74411">
        <ele>1099.6</ele>
        <time>2021-12-19T09:40:15Z</time>
      </trkpt>
      <trkpt lat="45.34693" lon="5.74411">
        <ele>1099.8</ele>
        <time>2021-12-19T09:40:16Z</time>
      </trkpt>
      <trkpt lat="45.34693" lon="5.74412">
        <ele>1099.9</ele>
        <time>2021-12-19T09:40:17Z</time>
      </trkpt>
      <trkpt lat="45.34692" lon="5.74412">
        <ele>1100.1</ele>
        <time>2021-12-19T09:40:18Z</time>
      </trkpt>
      <trkpt lat="45.34692" lon="5.74412">
        <ele>1100.2</ele>
        <time>2021-12-19T09:40:19Z</time>
      </trkpt>
      <trkpt lat="45.34691" lon="5.74413">
        <ele>1100.3</ele>
        <time>2021-12-19T09:40:20Z</time>
      </trkpt>
      <trkpt lat="45.34691" lon="5.74413">
        <ele>1100.5</ele>
        <time>2021-12-19T09:40:21Z</time>
      </trkpt>
      <trkpt lat="45.3469" lon="5.74413">
        <ele>1100.5</ele>
        <time>2021-12-19T09:40:22Z</time>
      </trkpt>
      <trkpt lat="45.34689" lon="5.74413">
        <ele>1100.7</ele>
        <time>2021-12-19T09:40:23Z</time>
      </trkpt>
      <trkpt lat="45.34688" lon="5.74413">
        <ele>1100.9</ele>
        <time>2021-12-19T09:40:24Z</time>
      </trkpt>
      <trkpt lat="45.34688" lon="5.74413">
        <ele>1101</ele>
        <time>2021-12-19T09:40:25Z</time>
      </trkpt>
      <trkpt lat="45.34687" lon="5.74413">
        <ele>1101.1</ele>
        <time>2021-12-19T09:40:26Z</time>
      </trkpt>
      <trkpt lat="45.34687" lon="5.74413">
        <ele>1101.2</ele>
        <time>2021-12-19T09:40:27Z</time>
      </trkpt>
      <trkpt lat="45.34686" lon="5.74413">
        <ele>1101.3</ele>
        <time>2021-12-19T09:40:28Z</time>
      </trkpt>
      <trkpt lat="45.34686" lon="5.74413">
        <ele>1101.5</ele>
        <time>2021-12-19T09:40:29Z</time>
      </trkpt>
      <trkpt lat="45.34686" lon="5.74412">
        <ele>1101.5</ele>
        <time>2021-12-19T09:40:30Z</time>
      </trkpt>
      <trkpt lat="45.34685" lon="5.74413">
        <ele>1101.7</ele>
        <time>2021-12-19T09:40:31Z</time>
      </trkpt>
      <trkpt lat="45.34684" lon="5.74412">
        <ele>1101.8</ele>
        <time>2021-12-19T09:40:32Z</time>
      </trkpt>
      <trkpt lat="45.34684" lon="5.74412">
        <ele>1102</ele>
        <time>2021-12-19T09:40:33Z</time>
      </trkpt>
      <trkpt lat="45.34683" lon="5.74411">
        <ele>1102.1</ele>
        <time>2021-12-19T09:40:34Z</time>
      </trkpt>
      <trkpt lat="45.34683" lon="5.7441">
        <ele>1102.3</ele>
        <time>2021-12-19T09:40:35Z</time>
      </trkpt>
      <trkpt lat="45.34682" lon="5.74409">
        <ele>1102.5</ele>
        <time>2021-12-19T09:40:36Z</time>
      </trkpt>
      <trkpt lat="45.34681" lon="5.74409">
        <ele>1102.7</ele>
        <time>2021-12-19T09:40:37Z</time>
      </trkpt>
      <trkpt lat="45.3468" lon="5.74408">
        <ele>1102.9</ele>
        <time>2021-12-19T09:40:38Z</time>
      </trkpt>
      <trkpt lat="45.34679" lon="5.74407">
        <ele>1103.1</ele>
        <time>2021-12-19T09:40:39Z</time>
      </trkpt>
      <trkpt lat="45.34679" lon="5.74406">
        <ele>1103.3</ele>
        <time>2021-12-19T09:40:40Z</time>
      </trkpt>
      <trkpt lat="45.34678" lon="5.74406">
        <ele>1103.5</ele>
        <time>2021-12-19T09:40:41Z</time>
      </trkpt>
      <trkpt lat="45.34677" lon="5.74405">
        <ele>1103.8</ele>
        <time>2021-12-19T09:40:42Z</time>
      </trkpt>
      <trkpt lat="45.34676" lon="5.74404">
        <ele>1104</ele>
        <time>2021-12-19T09:40:43Z</time>
      </trkpt>
      <trkpt lat="45.34675" lon="5.74403">
        <ele>1104.2</ele>
        <time>2021-12-19T09:40:44Z</time>
      </trkpt>
      <trkpt lat="45.34675" lon="5.74402">
        <ele>1104.3</ele>
        <time>2021-12-19T09:40:45Z</time>
      </trkpt>
      <trkpt lat="45.34674" lon="5.74401">
        <ele>1104.5</ele>
        <time>2021-12-19T09:40:46Z</time>
      </trkpt>
      <trkpt lat="45.34674" lon="5.744">
        <ele>1104.7</ele>
        <time>2021-12-19T09:40:47Z</time>
      </trkpt>
      <trkpt lat="45.34674" lon="5.74399">
        <ele>1104.8</ele>
        <time>2021-12-19T09:40:48Z</time>
      </trkpt>
      <trkpt lat="45.34674" lon="5.74398">
        <ele>1104.9</ele>
        <time>2021-12-19T09:40:49Z</time>
      </trkpt>
      <trkpt lat="45.34673" lon="5.74398">
        <ele>1105.1</ele>
        <time>2021-12-19T09:40:50Z</time>
      </trkpt>
      <trkpt lat="45.34673" lon="5.74397">
        <ele>1105.2</ele>
        <time>2021-12-19T09:40:51Z</time>
      </trkpt>
      <trkpt lat="45.34673" lon="5.74395">
        <ele>1105.4</ele>
        <time>2021-12-19T09:40:52Z</time>
      </trkpt>
      <trkpt lat="45.34673" lon="5.74394">
        <ele>1105.5</ele>
        <time>2021-12-19T09:40:53Z</time>
      </trkpt>
      <trkpt lat="45.34673" lon="5.74393">
        <ele>1105.7</ele>
        <time>2021-12-19T09:40:54Z</time>
      </trkpt>
      <trkpt lat="45.34672" lon="5.74392">
        <ele>1106</ele>
        <time>2021-12-19T09:40:55Z</time>
      </trkpt>
      <trkpt lat="45.34672" lon="5.74391">
        <ele>1106.1</ele>
        <time>2021-12-19T09:40:56Z</time>
      </trkpt>
      <trkpt lat="45.34671" lon="5.7439">
        <ele>1106.3</ele>
        <time>2021-12-19T09:40:57Z</time>
      </trkpt>
      <trkpt lat="45.3467" lon="5.74389">
        <ele>1106.6</ele>
        <time>2021-12-19T09:40:58Z</time>
      </trkpt>
      <trkpt lat="45.3467" lon="5.74387">
        <ele>1106.8</ele>
        <time>2021-12-19T09:40:59Z</time>
      </trkpt>
      <trkpt lat="45.3467" lon="5.74386">
        <ele>1106.9</ele>
        <time>2021-12-19T09:41:00Z</time>
      </trkpt>
      <trkpt lat="45.34669" lon="5.74385">
        <ele>1107.1</ele>
        <time>2021-12-19T09:41:01Z</time>
      </trkpt>
      <trkpt lat="45.34669" lon="5.74385">
        <ele>1107.3</ele>
        <time>2021-12-19T09:41:02Z</time>
      </trkpt>
      <trkpt lat="45.34668" lon="5.74384">
        <ele>1107.4</ele>
        <time>2021-12-19T09:41:03Z</time>
      </trkpt>
      <trkpt lat="45.34668" lon="5.74383">
        <ele>1107.5</ele>
        <time>2021-12-19T09:41:04Z</time>
      </trkpt>
      <trkpt lat="45.34668" lon="5.74383">
        <ele>1107.6</ele>
        <time>2021-12-19T09:41:05Z</time>
      </trkpt>
      <trkpt lat="45.34667" lon="5.74382">
        <ele>1107.8</ele>
        <time>2021-12-19T09:41:06Z</time>
      </trkpt>
      <trkpt lat="45.34667" lon="5.74381">
        <ele>1107.9</ele>
        <time>2021-12-19T09:41:07Z</time>
      </trkpt>
      <trkpt lat="45.34667" lon="5.7438">
        <ele>1108</ele>
        <time>2021-12-19T09:41:08Z</time>
      </trkpt>
      <trkpt lat="45.34667" lon="5.7438">
        <ele>1108.1</ele>
        <time>2021-12-19T09:41:09Z</time>
      </trkpt>
      <trkpt lat="45.34666" lon="5.74379">
        <ele>1108.3</ele>
        <time>2021-12-19T09:41:10Z</time>
      </trkpt>
      <trkpt lat="45.34667" lon="5.74378">
        <ele>1108.4</ele>
        <time>2021-12-19T09:41:11Z</time>
      </trkpt>
      <trkpt lat="45.34666" lon="5.74376">
        <ele>1108.6</ele>
        <time>2021-12-19T09:41:12Z</time>
      </trkpt>
      <trkpt lat="45.34666" lon="5.74375">
        <ele>1108.8</ele>
        <time>2021-12-19T09:41:13Z</time>
      </trkpt>
      <trkpt lat="45.34666" lon="5.74374">
        <ele>1109</ele>
        <time>2021-12-19T09:41:14Z</time>
      </trkpt>
      <trkpt lat="45.34666" lon="5.74373">
        <ele>1109.2</ele>
        <time>2021-12-19T09:41:15Z</time>
      </trkpt>
      <trkpt lat="45.34666" lon="5.74371">
        <ele>1109.4</ele>
        <time>2021-12-19T09:41:16Z</time>
      </trkpt>
      <trkpt lat="45.34666" lon="5.7437">
        <ele>1109.5</ele>
        <time>2021-12-19T09:41:17Z</time>
      </trkpt>
      <trkpt lat="45.34665" lon="5.74369">
        <ele>1109.8</ele>
        <time>2021-12-19T09:41:18Z</time>
      </trkpt>
      <trkpt lat="45.34665" lon="5.74368">
        <ele>1109.9</ele>
        <time>2021-12-19T09:41:19Z</time>
      </trkpt>
      <trkpt lat="45.34665" lon="5.74367">
        <ele>1110.1</ele>
        <time>2021-12-19T09:41:20Z</time>
      </trkpt>
      <trkpt lat="45.34664" lon="5.74365">
        <ele>1110.4</ele>
        <time>2021-12-19T09:41:21Z</time>
      </trkpt>
      <trkpt lat="45.34663" lon="5.74363">
        <ele>1110.7</ele>
        <time>2021-12-19T09:41:22Z</time>
      </trkpt>
      <trkpt lat="45.34662" lon="5.74362">
        <ele>1110.9</ele>
        <time>2021-12-19T09:41:23Z</time>
      </trkpt>
      <trkpt lat="45.34662" lon="5.74361">
        <ele>1111.1</ele>
        <time>2021-12-19T09:41:24Z</time>
      </trkpt>
      <trkpt lat="45.34662" lon="5.7436">
        <ele>1111.3</ele>
        <time>2021-12-19T09:41:25Z</time>
      </trkpt>
      <trkpt lat="45.34661" lon="5.74358">
        <ele>1111.7</ele>
        <time>2021-12-19T09:41:26Z</time>
      </trkpt>
      <trkpt lat="45.3466" lon="5.74356">
        <ele>1111.9</ele>
        <time>2021-12-19T09:41:27Z</time>
      </trkpt>
      <trkpt lat="45.34659" lon="5.74355">
        <ele>1112.1</ele>
        <time>2021-12-19T09:41:28Z</time>
      </trkpt>
      <trkpt lat="45.34659" lon="5.74353">
        <ele>1112.4</ele>
        <time>2021-12-19T09:41:29Z</time>
      </trkpt>
      <trkpt lat="45.34659" lon="5.74352">
        <ele>1112.7</ele>
        <time>2021-12-19T09:41:30Z</time>
      </trkpt>
      <trkpt lat="45.34658" lon="5.7435">
        <ele>1112.9</ele>
        <time>2021-12-19T09:41:31Z</time>
      </trkpt>
      <trkpt lat="45.34658" lon="5.74349">
        <ele>1113.2</ele>
        <time>2021-12-19T09:41:32Z</time>
      </trkpt>
      <trkpt lat="45.34658" lon="5.74347">
        <ele>1113.5</ele>
        <time>2021-12-19T09:41:33Z</time>
      </trkpt>
      <trkpt lat="45.34657" lon="5.74345">
        <ele>1113.7</ele>
        <time>2021-12-19T09:41:34Z</time>
      </trkpt>
      <trkpt lat="45.34657" lon="5.74344">
        <ele>1113.9</ele>
        <time>2021-12-19T09:41:35Z</time>
      </trkpt>
      <trkpt lat="45.34656" lon="5.74342">
        <ele>1114.2</ele>
        <time>2021-12-19T09:41:36Z</time>
      </trkpt>
      <trkpt lat="45.34656" lon="5.7434">
        <ele>1114.5</ele>
        <time>2021-12-19T09:41:37Z</time>
      </trkpt>
      <trkpt lat="45.34655" lon="5.74339">
        <ele>1114.7</ele>
        <time>2021-12-19T09:41:38Z</time>
      </trkpt>
      <trkpt lat="45.34655" lon="5.74338">
        <ele>1114.9</ele>
        <time>2021-12-19T09:41:39Z</time>
      </trkpt>
      <trkpt lat="45.34655" lon="5.74337">
        <ele>1115</ele>
        <time>2021-12-19T09:41:40Z</time>
      </trkpt>
      <trkpt lat="45.34654" lon="5.74336">
        <ele>1115.2</ele>
        <time>2021-12-19T09:41:41Z</time>
      </trkpt>
      <trkpt lat="45.34654" lon="5.74335">
        <ele>1115.4</ele>
        <time>2021-12-19T09:41:42Z</time>
      </trkpt>
      <trkpt lat="45.34653" lon="5.74334">
        <ele>1115.5</ele>
        <time>2021-12-19T09:41:43Z</time>
      </trkpt>
      <trkpt lat="45.34653" lon="5.74334">
        <ele>1115.6</ele>
        <time>2021-12-19T09:41:44Z</time>
      </trkpt>
      <trkpt lat="45.34654" lon="5.74333">
        <ele>1115.7</ele>
        <time>2021-12-19T09:41:45Z</time>
      </trkpt>
      <trkpt lat="45.34654" lon="5.74333">
        <ele>1115.8</ele>
        <time>2021-12-19T09:41:46Z</time>
      </trkpt>
      <trkpt lat="45.34654" lon="5.74333">
        <ele>1115.8</ele>
        <time>2021-12-19T09:41:47Z</time>
      </trkpt>
      <trkpt lat="45.34654" lon="5.74332">
        <ele>1115.8</ele>
        <time>2021-12-19T09:41:48Z</time>
      </trkpt>
      <trkpt lat="45.34654" lon="5.74332">
        <ele>1115.9</ele>
        <time>2021-12-19T09:41:49Z</time>
      </trkpt>
      <trkpt lat="45.34654" lon="5.74331">
        <ele>1116</ele>
        <time>2021-12-19T09:41:50Z</time>
      </trkpt>
      <trkpt lat="45.34654" lon="5.74331">
        <ele>1116</ele>
        <time>2021-12-19T09:41:51Z</time>
      </trkpt>
      <trkpt lat="45.34654" lon="5.74331">
        <ele>1116.1</ele>
        <time>2021-12-19T09:41:52Z</time>
      </trkpt>
      <trkpt lat="45.34653" lon="5.74331">
        <ele>1116.1</ele>
        <time>2021-12-19T09:41:53Z</time>
      </trkpt>
      <trkpt lat="45.34653" lon="5.74331">
        <ele>1116.2</ele>
        <time>2021-12-19T09:41:54Z</time>
      </trkpt>
      <trkpt lat="45.34653" lon="5.74331">
        <ele>1116.2</ele>
        <time>2021-12-19T09:41:55Z</time>
      </trkpt>
      <trkpt lat="45.34653" lon="5.74331">
        <ele>1116.2</ele>
        <time>2021-12-19T09:41:56Z</time>
      </trkpt>
      <trkpt lat="45.34653" lon="5.74331">
        <ele>1116.2</ele>
        <time>2021-12-19T09:41:57Z</time>
      </trkpt>
      <trkpt lat="45.34653" lon="5.74331">
        <ele>1116.2</ele>
        <time>2021-12-19T09:41:58Z</time>
      </trkpt>
      <trkpt lat="45.34653" lon="5.74331">
        <ele>1116.2</ele>
        <time>2021-12-19T09:41:59Z</time>
      </trkpt>
      <trkpt lat="45.34653" lon="5.74331">
        <ele>1116.3</ele>
        <time>2021-12-19T09:42:00Z</time>
      </trkpt>
      <trkpt lat="45.34653" lon="5.74331">
        <ele>1116.3</ele>
        <time>2021-12-19T09:42:01Z</time>
      </trkpt>
      <trkpt lat="45.34653" lon="5.7433">
        <ele>1116.3</ele>
        <time>2021-12-19T09:42:02Z</time>
      </trkpt>
      <trkpt lat="45.34653" lon="5.7433">
        <ele>1116.3</ele>
        <time>2021-12-19T09:42:03Z</time>
      </trkpt>
      <trkpt lat="45.34654" lon="5.7433">
        <ele>1116.4</ele>
        <time>2021-12-19T09:42:04Z</time>
      </trkpt>
      <trkpt lat="45.34654" lon="5.7433">
        <ele>1116.4</ele>
        <time>2021-12-19T09:42:05Z</time>
      </trkpt>
      <trkpt lat="45.34654" lon="5.7433">
        <ele>1116.4</ele>
        <time>2021-12-19T09:42:06Z</time>
      </trkpt>
      <trkpt lat="45.34653" lon="5.7433">
        <ele>1116.5</ele>
        <time>2021-12-19T09:42:07Z</time>
      </trkpt>
      <trkpt lat="45.34654" lon="5.7433">
        <ele>1116.5</ele>
        <time>2021-12-19T09:42:08Z</time>
      </trkpt>
      <trkpt lat="45.34654" lon="5.74329">
        <ele>1116.6</ele>
        <time>2021-12-19T09:42:09Z</time>
      </trkpt>
      <trkpt lat="45.34655" lon="5.74329">
        <ele>1116.8</ele>
        <time>2021-12-19T09:42:10Z</time>
      </trkpt>
      <trkpt lat="45.34655" lon="5.74329">
        <ele>1116.9</ele>
        <time>2021-12-19T09:42:11Z</time>
      </trkpt>
      <trkpt lat="45.34656" lon="5.74328">
        <ele>1117</ele>
        <time>2021-12-19T09:42:12Z</time>
      </trkpt>
      <trkpt lat="45.34656" lon="5.74328">
        <ele>1117.1</ele>
        <time>2021-12-19T09:42:13Z</time>
      </trkpt>
      <trkpt lat="45.34656" lon="5.74328">
        <ele>1117.2</ele>
        <time>2021-12-19T09:42:14Z</time>
      </trkpt>
      <trkpt lat="45.34656" lon="5.74327">
        <ele>1117.3</ele>
        <time>2021-12-19T09:42:15Z</time>
      </trkpt>
      <trkpt lat="45.34656" lon="5.74326">
        <ele>1117.4</ele>
        <time>2021-12-19T09:42:16Z</time>
      </trkpt>
      <trkpt lat="45.34657" lon="5.74326">
        <ele>1117.5</ele>
        <time>2021-12-19T09:42:17Z</time>
      </trkpt>
      <trkpt lat="45.34657" lon="5.74326">
        <ele>1117.6</ele>
        <time>2021-12-19T09:42:18Z</time>
      </trkpt>
      <trkpt lat="45.34657" lon="5.74325">
        <ele>1117.7</ele>
        <time>2021-12-19T09:42:19Z</time>
      </trkpt>
      <trkpt lat="45.34658" lon="5.74325">
        <ele>1117.7</ele>
        <time>2021-12-19T09:42:20Z</time>
      </trkpt>
      <trkpt lat="45.34657" lon="5.74325">
        <ele>1117.8</ele>
        <time>2021-12-19T09:42:21Z</time>
      </trkpt>
      <trkpt lat="45.34658" lon="5.74325">
        <ele>1117.8</ele>
        <time>2021-12-19T09:42:22Z</time>
      </trkpt>
      <trkpt lat="45.34658" lon="5.74325">
        <ele>1117.8</ele>
        <time>2021-12-19T09:42:23Z</time>
      </trkpt>
      <trkpt lat="45.34658" lon="5.74325">
        <ele>1117.8</ele>
        <time>2021-12-19T09:42:24Z</time>
      </trkpt>
      <trkpt lat="45.34658" lon="5.74325">
        <ele>1117.8</ele>
        <time>2021-12-19T09:42:25Z</time>
      </trkpt>
      <trkpt lat="45.34658" lon="5.74325">
        <ele>1117.8</ele>
        <time>2021-12-19T09:42:26Z</time>
      </trkpt>
      <trkpt lat="45.34658" lon="5.74325">
        <ele>1117.8</ele>
        <time>2021-12-19T09:42:27Z</time>
      </trkpt>
      <trkpt lat="45.34658" lon="5.74325">
        <ele>1117.8</ele>
        <time>2021-12-19T09:42:28Z</time>
      </trkpt>
      <trkpt lat="45.34658" lon="5.74325">
        <ele>1117.8</ele>
        <time>2021-12-19T09:42:29Z</time>
      </trkpt>
      <trkpt lat="45.34658" lon="5.74325">
        <ele>1117.8</ele>
        <time>2021-12-19T09:42:30Z</time>
      </trkpt>
      <trkpt lat="45.34658" lon="5.74325">
        <ele>1117.9</ele>
        <time>2021-12-19T09:42:31Z</time>
      </trkpt>
      <trkpt lat="45.34658" lon="5.74324">
        <ele>1117.9</ele>
        <time>2021-12-19T09:42:32Z</time>
      </trkpt>
      <trkpt lat="45.34658" lon="5.74324">
        <ele>1117.9</ele>
        <time>2021-12-19T09:42:33Z</time>
      </trkpt>
      <trkpt lat="45.34658" lon="5.74324">
        <ele>1118</ele>
        <time>2021-12-19T09:42:34Z</time>
      </trkpt>
      <trkpt lat="45.34658" lon="5.74324">
        <ele>1118</ele>
        <time>2021-12-19T09:42:35Z</time>
      </trkpt>
      <trkpt lat="45.34658" lon="5.74324">
        <ele>1118.1</ele>
        <time>2021-12-19T09:42:36Z</time>
      </trkpt>
      <trkpt lat="45.34659" lon="5.74324">
        <ele>1118.2</ele>
        <time>2021-12-19T09:42:37Z</time>
      </trkpt>
      <trkpt lat="45.34659" lon="5.74324">
        <ele>1118.2</ele>
        <time>2021-12-19T09:42:38Z</time>
      </trkpt>
      <trkpt lat="45.34659" lon="5.74324">
        <ele>1118.2</ele>
        <time>2021-12-19T09:42:39Z</time>
      </trkpt>
      <trkpt lat="45.34659" lon="5.74324">
        <ele>1118.2</ele>
        <time>2021-12-19T09:42:40Z</time>
      </trkpt>
      <trkpt lat="45.34659" lon="5.74323">
        <ele>1118.3</ele>
        <time>2021-12-19T09:42:41Z</time>
      </trkpt>
      <trkpt lat="45.34659" lon="5.74323">
        <ele>1118.3</ele>
        <time>2021-12-19T09:42:42Z</time>
      </trkpt>
      <trkpt lat="45.34659" lon="5.74323">
        <ele>1118.3</ele>
        <time>2021-12-19T09:42:43Z</time>
      </trkpt>
      <trkpt lat="45.34659" lon="5.74323">
        <ele>1118.4</ele>
        <time>2021-12-19T09:42:44Z</time>
      </trkpt>
      <trkpt lat="45.34659" lon="5.74323">
        <ele>1118.4</ele>
        <time>2021-12-19T09:42:45Z</time>
      </trkpt>
      <trkpt lat="45.34659" lon="5.74323">
        <ele>1118.4</ele>
        <time>2021-12-19T09:42:46Z</time>
      </trkpt>
      <trkpt lat="45.34659" lon="5.74322">
        <ele>1118.4</ele>
        <time>2021-12-19T09:42:47Z</time>
      </trkpt>
      <trkpt lat="45.34659" lon="5.74322">
        <ele>1118.5</ele>
        <time>2021-12-19T09:42:48Z</time>
      </trkpt>
      <trkpt lat="45.34659" lon="5.74322">
        <ele>1118.5</ele>
        <time>2021-12-19T09:42:49Z</time>
      </trkpt>
      <trkpt lat="45.34659" lon="5.74321">
        <ele>1118.6</ele>
        <time>2021-12-19T09:42:50Z</time>
      </trkpt>
      <trkpt lat="45.34658" lon="5.74322">
        <ele>1118.7</ele>
        <time>2021-12-19T09:42:51Z</time>
      </trkpt>
      <trkpt lat="45.34659" lon="5.74321">
        <ele>1118.7</ele>
        <time>2021-12-19T09:42:52Z</time>
      </trkpt>
      <trkpt lat="45.34658" lon="5.74321">
        <ele>1118.8</ele>
        <time>2021-12-19T09:42:53Z</time>
      </trkpt>
      <trkpt lat="45.34658" lon="5.74321">
        <ele>1118.8</ele>
        <time>2021-12-19T09:42:54Z</time>
      </trkpt>
      <trkpt lat="45.34658" lon="5.74321">
        <ele>1118.9</ele>
        <time>2021-12-19T09:42:55Z</time>
      </trkpt>
      <trkpt lat="45.34658" lon="5.7432">
        <ele>1118.9</ele>
        <time>2021-12-19T09:42:56Z</time>
      </trkpt>
      <trkpt lat="45.34658" lon="5.7432">
        <ele>1118.9</ele>
        <time>2021-12-19T09:42:57Z</time>
      </trkpt>
      <trkpt lat="45.34659" lon="5.7432">
        <ele>1119</ele>
        <time>2021-12-19T09:42:58Z</time>
      </trkpt>
      <trkpt lat="45.34659" lon="5.7432">
        <ele>1119.1</ele>
        <time>2021-12-19T09:42:59Z</time>
      </trkpt>
      <trkpt lat="45.34659" lon="5.7432">
        <ele>1119.1</ele>
        <time>2021-12-19T09:43:00Z</time>
      </trkpt>
      <trkpt lat="45.34659" lon="5.7432">
        <ele>1119.1</ele>
        <time>2021-12-19T09:43:01Z</time>
      </trkpt>
      <trkpt lat="45.34658" lon="5.7432">
        <ele>1119.1</ele>
        <time>2021-12-19T09:43:02Z</time>
      </trkpt>
      <trkpt lat="45.34658" lon="5.7432">
        <ele>1119.1</ele>
        <time>2021-12-19T09:43:03Z</time>
      </trkpt>
      <trkpt lat="45.34658" lon="5.74319">
        <ele>1119.2</ele>
        <time>2021-12-19T09:43:04Z</time>
      </trkpt>
      <trkpt lat="45.34658" lon="5.74319">
        <ele>1119.2</ele>
        <time>2021-12-19T09:43:05Z</time>
      </trkpt>
      <trkpt lat="45.34658" lon="5.7432">
        <ele>1119.2</ele>
        <time>2021-12-19T09:43:06Z</time>
      </trkpt>
      <trkpt lat="45.34658" lon="5.7432">
        <ele>1119.2</ele>
        <time>2021-12-19T09:43:07Z</time>
      </trkpt>
      <trkpt lat="45.34658" lon="5.74319">
        <ele>1119.3</ele>
        <time>2021-12-19T09:43:08Z</time>
      </trkpt>
      <trkpt lat="45.34658" lon="5.74319">
        <ele>1119.3</ele>
        <time>2021-12-19T09:43:09Z</time>
      </trkpt>
      <trkpt lat="45.34658" lon="5.74318">
        <ele>1119.4</ele>
        <time>2021-12-19T09:43:10Z</time>
      </trkpt>
      <trkpt lat="45.34658" lon="5.74318">
        <ele>1119.6</ele>
        <time>2021-12-19T09:43:11Z</time>
      </trkpt>
      <trkpt lat="45.34658" lon="5.74317">
        <ele>1119.6</ele>
        <time>2021-12-19T09:43:12Z</time>
      </trkpt>
      <trkpt lat="45.34657" lon="5.74317">
        <ele>1119.8</ele>
        <time>2021-12-19T09:43:13Z</time>
      </trkpt>
      <trkpt lat="45.34657" lon="5.74316">
        <ele>1119.9</ele>
        <time>2021-12-19T09:43:14Z</time>
      </trkpt>
      <trkpt lat="45.34657" lon="5.74315">
        <ele>1120</ele>
        <time>2021-12-19T09:43:15Z</time>
      </trkpt>
      <trkpt lat="45.34657" lon="5.74314">
        <ele>1120.1</ele>
        <time>2021-12-19T09:43:16Z</time>
      </trkpt>
      <trkpt lat="45.34657" lon="5.74314">
        <ele>1120.2</ele>
        <time>2021-12-19T09:43:17Z</time>
      </trkpt>
      <trkpt lat="45.34657" lon="5.74313">
        <ele>1120.3</ele>
        <time>2021-12-19T09:43:18Z</time>
      </trkpt>
      <trkpt lat="45.34656" lon="5.74312">
        <ele>1120.4</ele>
        <time>2021-12-19T09:43:19Z</time>
      </trkpt>
      <trkpt lat="45.34657" lon="5.74311">
        <ele>1120.6</ele>
        <time>2021-12-19T09:43:20Z</time>
      </trkpt>
      <trkpt lat="45.34656" lon="5.74311">
        <ele>1120.7</ele>
        <time>2021-12-19T09:43:21Z</time>
      </trkpt>
      <trkpt lat="45.34656" lon="5.7431">
        <ele>1120.8</ele>
        <time>2021-12-19T09:43:22Z</time>
      </trkpt>
      <trkpt lat="45.34656" lon="5.7431">
        <ele>1120.9</ele>
        <time>2021-12-19T09:43:23Z</time>
      </trkpt>
      <trkpt lat="45.34656" lon="5.74309">
        <ele>1121</ele>
        <time>2021-12-19T09:43:24Z</time>
      </trkpt>
      <trkpt lat="45.34655" lon="5.74308">
        <ele>1121.2</ele>
        <time>2021-12-19T09:43:25Z</time>
      </trkpt>
      <trkpt lat="45.34656" lon="5.74307">
        <ele>1121.3</ele>
        <time>2021-12-19T09:43:26Z</time>
      </trkpt>
      <trkpt lat="45.34655" lon="5.74307">
        <ele>1121.4</ele>
        <time>2021-12-19T09:43:27Z</time>
      </trkpt>
      <trkpt lat="45.34655" lon="5.74306">
        <ele>1121.5</ele>
        <time>2021-12-19T09:43:28Z</time>
      </trkpt>
      <trkpt lat="45.34655" lon="5.74305">
        <ele>1121.7</ele>
        <time>2021-12-19T09:43:29Z</time>
      </trkpt>
      <trkpt lat="45.34655" lon="5.74304">
        <ele>1121.8</ele>
        <time>2021-12-19T09:43:30Z</time>
      </trkpt>
      <trkpt lat="45.34655" lon="5.74303">
        <ele>1121.9</ele>
        <time>2021-12-19T09:43:31Z</time>
      </trkpt>
      <trkpt lat="45.34654" lon="5.74302">
        <ele>1122.1</ele>
        <time>2021-12-19T09:43:32Z</time>
      </trkpt>
      <trkpt lat="45.34654" lon="5.74301">
        <ele>1122.2</ele>
        <time>2021-12-19T09:43:33Z</time>
      </trkpt>
      <trkpt lat="45.34654" lon="5.743">
        <ele>1122.4</ele>
        <time>2021-12-19T09:43:34Z</time>
      </trkpt>
      <trkpt lat="45.34654" lon="5.743">
        <ele>1122.5</ele>
        <time>2021-12-19T09:43:35Z</time>
      </trkpt>
      <trkpt lat="45.34654" lon="5.74299">
        <ele>1122.6</ele>
        <time>2021-12-19T09:43:36Z</time>
      </trkpt>
      <trkpt lat="45.34654" lon="5.74297">
        <ele>1122.8</ele>
        <time>2021-12-19T09:43:37Z</time>
      </trkpt>
      <trkpt lat="45.34654" lon="5.74296">
        <ele>1123</ele>
        <time>2021-12-19T09:43:38Z</time>
      </trkpt>
      <trkpt lat="45.34654" lon="5.74294">
        <ele>1123.3</ele>
        <time>2021-12-19T09:43:39Z</time>
      </trkpt>
      <trkpt lat="45.34655" lon="5.74293">
        <ele>1123.5</ele>
        <time>2021-12-19T09:43:40Z</time>
      </trkpt>
      <trkpt lat="45.34656" lon="5.74292">
        <ele>1123.7</ele>
        <time>2021-12-19T09:43:41Z</time>
      </trkpt>
      <trkpt lat="45.34656" lon="5.74291">
        <ele>1123.8</ele>
        <time>2021-12-19T09:43:42Z</time>
      </trkpt>
      <trkpt lat="45.34656" lon="5.7429">
        <ele>1124</ele>
        <time>2021-12-19T09:43:43Z</time>
      </trkpt>
      <trkpt lat="45.34656" lon="5.74289">
        <ele>1124.1</ele>
        <time>2021-12-19T09:43:44Z</time>
      </trkpt>
      <trkpt lat="45.34657" lon="5.74288">
        <ele>1124.3</ele>
        <time>2021-12-19T09:43:45Z</time>
      </trkpt>
      <trkpt lat="45.34657" lon="5.74287">
        <ele>1124.5</ele>
        <time>2021-12-19T09:43:46Z</time>
      </trkpt>
      <trkpt lat="45.34657" lon="5.74286">
        <ele>1124.6</ele>
        <time>2021-12-19T09:43:47Z</time>
      </trkpt>
      <trkpt lat="45.34657" lon="5.74285">
        <ele>1124.7</ele>
        <time>2021-12-19T09:43:48Z</time>
      </trkpt>
      <trkpt lat="45.34657" lon="5.74285">
        <ele>1124.8</ele>
        <time>2021-12-19T09:43:49Z</time>
      </trkpt>
      <trkpt lat="45.34657" lon="5.74284">
        <ele>1124.9</ele>
        <time>2021-12-19T09:43:50Z</time>
      </trkpt>
      <trkpt lat="45.34657" lon="5.74283">
        <ele>1125.1</ele>
        <time>2021-12-19T09:43:51Z</time>
      </trkpt>
      <trkpt lat="45.34657" lon="5.74282">
        <ele>1125.3</ele>
        <time>2021-12-19T09:43:52Z</time>
      </trkpt>
      <trkpt lat="45.34657" lon="5.74281">
        <ele>1125.4</ele>
        <time>2021-12-19T09:43:53Z</time>
      </trkpt>
      <trkpt lat="45.34658" lon="5.7428">
        <ele>1125.6</ele>
        <time>2021-12-19T09:43:54Z</time>
      </trkpt>
      <trkpt lat="45.34658" lon="5.74279">
        <ele>1125.7</ele>
        <time>2021-12-19T09:43:55Z</time>
      </trkpt>
      <trkpt lat="45.34658" lon="5.74278">
        <ele>1125.9</ele>
        <time>2021-12-19T09:43:56Z</time>
      </trkpt>
      <trkpt lat="45.34658" lon="5.74277">
        <ele>1126</ele>
        <time>2021-12-19T09:43:57Z</time>
      </trkpt>
      <trkpt lat="45.34658" lon="5.74276">
        <ele>1126.1</ele>
        <time>2021-12-19T09:43:58Z</time>
      </trkpt>
      <trkpt lat="45.34658" lon="5.74276">
        <ele>1126.2</ele>
        <time>2021-12-19T09:43:59Z</time>
      </trkpt>
      <trkpt lat="45.34659" lon="5.74275">
        <ele>1126.4</ele>
        <time>2021-12-19T09:44:00Z</time>
      </trkpt>
      <trkpt lat="45.34658" lon="5.74274">
        <ele>1126.5</ele>
        <time>2021-12-19T09:44:01Z</time>
      </trkpt>
      <trkpt lat="45.34658" lon="5.74273">
        <ele>1126.6</ele>
        <time>2021-12-19T09:44:02Z</time>
      </trkpt>
      <trkpt lat="45.34658" lon="5.74273">
        <ele>1126.7</ele>
        <time>2021-12-19T09:44:03Z</time>
      </trkpt>
      <trkpt lat="45.34658" lon="5.74272">
        <ele>1126.8</ele>
        <time>2021-12-19T09:44:04Z</time>
      </trkpt>
      <trkpt lat="45.34658" lon="5.74271">
        <ele>1127</ele>
        <time>2021-12-19T09:44:05Z</time>
      </trkpt>
      <trkpt lat="45.34658" lon="5.7427">
        <ele>1127.2</ele>
        <time>2021-12-19T09:44:06Z</time>
      </trkpt>
      <trkpt lat="45.34658" lon="5.74269">
        <ele>1127.3</ele>
        <time>2021-12-19T09:44:07Z</time>
      </trkpt>
      <trkpt lat="45.34657" lon="5.74268">
        <ele>1127.5</ele>
        <time>2021-12-19T09:44:08Z</time>
      </trkpt>
      <trkpt lat="45.34658" lon="5.74266">
        <ele>1127.7</ele>
        <time>2021-12-19T09:44:09Z</time>
      </trkpt>
      <trkpt lat="45.34658" lon="5.74265">
        <ele>1127.8</ele>
        <time>2021-12-19T09:44:10Z</time>
      </trkpt>
      <trkpt lat="45.34658" lon="5.74264">
        <ele>1128</ele>
        <time>2021-12-19T09:44:11Z</time>
      </trkpt>
      <trkpt lat="45.34658" lon="5.74263">
        <ele>1128.2</ele>
        <time>2021-12-19T09:44:12Z</time>
      </trkpt>
      <trkpt lat="45.34658" lon="5.74261">
        <ele>1128.4</ele>
        <time>2021-12-19T09:44:13Z</time>
      </trkpt>
      <trkpt lat="45.34658" lon="5.7426">
        <ele>1128.6</ele>
        <time>2021-12-19T09:44:14Z</time>
      </trkpt>
      <trkpt lat="45.34658" lon="5.74259">
        <ele>1128.8</ele>
        <time>2021-12-19T09:44:15Z</time>
      </trkpt>
      <trkpt lat="45.34658" lon="5.74257">
        <ele>1129</ele>
        <time>2021-12-19T09:44:16Z</time>
      </trkpt>
      <trkpt lat="45.34658" lon="5.74256">
        <ele>1129.2</ele>
        <time>2021-12-19T09:44:17Z</time>
      </trkpt>
      <trkpt lat="45.34658" lon="5.74255">
        <ele>1129.3</ele>
        <time>2021-12-19T09:44:18Z</time>
      </trkpt>
      <trkpt lat="45.34658" lon="5.74254">
        <ele>1129.5</ele>
        <time>2021-12-19T09:44:19Z</time>
      </trkpt>
      <trkpt lat="45.34658" lon="5.74253">
        <ele>1129.7</ele>
        <time>2021-12-19T09:44:20Z</time>
      </trkpt>
      <trkpt lat="45.34657" lon="5.74252">
        <ele>1129.9</ele>
        <time>2021-12-19T09:44:21Z</time>
      </trkpt>
      <trkpt lat="45.34657" lon="5.7425">
        <ele>1130.1</ele>
        <time>2021-12-19T09:44:22Z</time>
      </trkpt>
      <trkpt lat="45.34657" lon="5.7425">
        <ele>1130.2</ele>
        <time>2021-12-19T09:44:23Z</time>
      </trkpt>
      <trkpt lat="45.34657" lon="5.74249">
        <ele>1130.3</ele>
        <time>2021-12-19T09:44:24Z</time>
      </trkpt>
      <trkpt lat="45.34657" lon="5.74248">
        <ele>1130.5</ele>
        <time>2021-12-19T09:44:25Z</time>
      </trkpt>
      <trkpt lat="45.34657" lon="5.74247">
        <ele>1130.5</ele>
        <time>2021-12-19T09:44:26Z</time>
      </trkpt>
      <trkpt lat="45.34658" lon="5.74247">
        <ele>1130.7</ele>
        <time>2021-12-19T09:44:27Z</time>
      </trkpt>
      <trkpt lat="45.34658" lon="5.74246">
        <ele>1130.8</ele>
        <time>2021-12-19T09:44:28Z</time>
      </trkpt>
      <trkpt lat="45.34658" lon="5.74244">
        <ele>1131.1</ele>
        <time>2021-12-19T09:44:29Z</time>
      </trkpt>
      <trkpt lat="45.34658" lon="5.74243">
        <ele>1131.2</ele>
        <time>2021-12-19T09:44:30Z</time>
      </trkpt>
      <trkpt lat="45.34658" lon="5.74242">
        <ele>1131.4</ele>
        <time>2021-12-19T09:44:31Z</time>
      </trkpt>
      <trkpt lat="45.34658" lon="5.7424">
        <ele>1131.6</ele>
        <time>2021-12-19T09:44:32Z</time>
      </trkpt>
      <trkpt lat="45.34657" lon="5.74239">
        <ele>1131.9</ele>
        <time>2021-12-19T09:44:33Z</time>
      </trkpt>
      <trkpt lat="45.34657" lon="5.74238">
        <ele>1132</ele>
        <time>2021-12-19T09:44:34Z</time>
      </trkpt>
      <trkpt lat="45.34657" lon="5.74236">
        <ele>1132.2</ele>
        <time>2021-12-19T09:44:35Z</time>
      </trkpt>
      <trkpt lat="45.34657" lon="5.74235">
        <ele>1132.4</ele>
        <time>2021-12-19T09:44:36Z</time>
      </trkpt>
      <trkpt lat="45.34657" lon="5.74234">
        <ele>1132.5</ele>
        <time>2021-12-19T09:44:37Z</time>
      </trkpt>
      <trkpt lat="45.34657" lon="5.74233">
        <ele>1132.7</ele>
        <time>2021-12-19T09:44:38Z</time>
      </trkpt>
      <trkpt lat="45.34658" lon="5.74231">
        <ele>1133</ele>
        <time>2021-12-19T09:44:39Z</time>
      </trkpt>
      <trkpt lat="45.34658" lon="5.7423">
        <ele>1133.1</ele>
        <time>2021-12-19T09:44:40Z</time>
      </trkpt>
      <trkpt lat="45.34658" lon="5.74229">
        <ele>1133.3</ele>
        <time>2021-12-19T09:44:41Z</time>
      </trkpt>
      <trkpt lat="45.34658" lon="5.74228">
        <ele>1133.5</ele>
        <time>2021-12-19T09:44:42Z</time>
      </trkpt>
      <trkpt lat="45.34658" lon="5.74227">
        <ele>1133.6</ele>
        <time>2021-12-19T09:44:43Z</time>
      </trkpt>
      <trkpt lat="45.34659" lon="5.74226">
        <ele>1133.8</ele>
        <time>2021-12-19T09:44:44Z</time>
      </trkpt>
      <trkpt lat="45.34659" lon="5.74225">
        <ele>1134</ele>
        <time>2021-12-19T09:44:45Z</time>
      </trkpt>
      <trkpt lat="45.34659" lon="5.74223">
        <ele>1134.2</ele>
        <time>2021-12-19T09:44:46Z</time>
      </trkpt>
      <trkpt lat="45.34659" lon="5.74222">
        <ele>1134.4</ele>
        <time>2021-12-19T09:44:47Z</time>
      </trkpt>
      <trkpt lat="45.34659" lon="5.7422">
        <ele>1134.6</ele>
        <time>2021-12-19T09:44:48Z</time>
      </trkpt>
      <trkpt lat="45.3466" lon="5.74219">
        <ele>1134.9</ele>
        <time>2021-12-19T09:44:49Z</time>
      </trkpt>
      <trkpt lat="45.3466" lon="5.74217">
        <ele>1135.1</ele>
        <time>2021-12-19T09:44:50Z</time>
      </trkpt>
      <trkpt lat="45.34661" lon="5.74217">
        <ele>1135.3</ele>
        <time>2021-12-19T09:44:51Z</time>
      </trkpt>
      <trkpt lat="45.34661" lon="5.74215">
        <ele>1135.5</ele>
        <time>2021-12-19T09:44:52Z</time>
      </trkpt>
      <trkpt lat="45.34661" lon="5.74214">
        <ele>1135.7</ele>
        <time>2021-12-19T09:44:53Z</time>
      </trkpt>
      <trkpt lat="45.34661" lon="5.74212">
        <ele>1135.9</ele>
        <time>2021-12-19T09:44:54Z</time>
      </trkpt>
      <trkpt lat="45.34661" lon="5.74211">
        <ele>1136.1</ele>
        <time>2021-12-19T09:44:55Z</time>
      </trkpt>
      <trkpt lat="45.34661" lon="5.7421">
        <ele>1136.3</ele>
        <time>2021-12-19T09:44:56Z</time>
      </trkpt>
      <trkpt lat="45.34661" lon="5.74209">
        <ele>1136.4</ele>
        <time>2021-12-19T09:44:57Z</time>
      </trkpt>
      <trkpt lat="45.34661" lon="5.74207">
        <ele>1136.7</ele>
        <time>2021-12-19T09:44:58Z</time>
      </trkpt>
      <trkpt lat="45.34661" lon="5.74206">
        <ele>1136.8</ele>
        <time>2021-12-19T09:44:59Z</time>
      </trkpt>
      <trkpt lat="45.34661" lon="5.74205">
        <ele>1137.1</ele>
        <time>2021-12-19T09:45:00Z</time>
      </trkpt>
      <trkpt lat="45.34661" lon="5.74203">
        <ele>1137.3</ele>
        <time>2021-12-19T09:45:01Z</time>
      </trkpt>
      <trkpt lat="45.34662" lon="5.74202">
        <ele>1137.5</ele>
        <time>2021-12-19T09:45:02Z</time>
      </trkpt>
      <trkpt lat="45.34662" lon="5.742">
        <ele>1137.7</ele>
        <time>2021-12-19T09:45:03Z</time>
      </trkpt>
      <trkpt lat="45.34663" lon="5.74199">
        <ele>1138</ele>
        <time>2021-12-19T09:45:04Z</time>
      </trkpt>
      <trkpt lat="45.34663" lon="5.74197">
        <ele>1138.3</ele>
        <time>2021-12-19T09:45:05Z</time>
      </trkpt>
      <trkpt lat="45.34664" lon="5.74195">
        <ele>1138.5</ele>
        <time>2021-12-19T09:45:06Z</time>
      </trkpt>
      <trkpt lat="45.34664" lon="5.74194">
        <ele>1138.7</ele>
        <time>2021-12-19T09:45:07Z</time>
      </trkpt>
      <trkpt lat="45.34665" lon="5.74193">
        <ele>1139</ele>
        <time>2021-12-19T09:45:08Z</time>
      </trkpt>
      <trkpt lat="45.34665" lon="5.74191">
        <ele>1139.2</ele>
        <time>2021-12-19T09:45:09Z</time>
      </trkpt>
      <trkpt lat="45.34666" lon="5.7419">
        <ele>1139.4</ele>
        <time>2021-12-19T09:45:10Z</time>
      </trkpt>
      <trkpt lat="45.34666" lon="5.74189">
        <ele>1139.6</ele>
        <time>2021-12-19T09:45:11Z</time>
      </trkpt>
      <trkpt lat="45.34667" lon="5.74187">
        <ele>1139.8</ele>
        <time>2021-12-19T09:45:12Z</time>
      </trkpt>
      <trkpt lat="45.34668" lon="5.74186">
        <ele>1140.1</ele>
        <time>2021-12-19T09:45:13Z</time>
      </trkpt>
      <trkpt lat="45.34668" lon="5.74184">
        <ele>1140.4</ele>
        <time>2021-12-19T09:45:14Z</time>
      </trkpt>
      <trkpt lat="45.34669" lon="5.74183">
        <ele>1140.6</ele>
        <time>2021-12-19T09:45:15Z</time>
      </trkpt>
      <trkpt lat="45.34668" lon="5.74181">
        <ele>1140.8</ele>
        <time>2021-12-19T09:45:16Z</time>
      </trkpt>
      <trkpt lat="45.34668" lon="5.7418">
        <ele>1141</ele>
        <time>2021-12-19T09:45:17Z</time>
      </trkpt>
      <trkpt lat="45.34669" lon="5.74178">
        <ele>1141.3</ele>
        <time>2021-12-19T09:45:18Z</time>
      </trkpt>
      <trkpt lat="45.3467" lon="5.74177">
        <ele>1141.5</ele>
        <time>2021-12-19T09:45:19Z</time>
      </trkpt>
      <trkpt lat="45.3467" lon="5.74175">
        <ele>1141.8</ele>
        <time>2021-12-19T09:45:20Z</time>
      </trkpt>
      <trkpt lat="45.34671" lon="5.74174">
        <ele>1142.1</ele>
        <time>2021-12-19T09:45:21Z</time>
      </trkpt>
      <trkpt lat="45.34672" lon="5.74173">
        <ele>1142.3</ele>
        <time>2021-12-19T09:45:22Z</time>
      </trkpt>
      <trkpt lat="45.34672" lon="5.74171">
        <ele>1142.5</ele>
        <time>2021-12-19T09:45:23Z</time>
      </trkpt>
      <trkpt lat="45.34673" lon="5.74171">
        <ele>1142.7</ele>
        <time>2021-12-19T09:45:24Z</time>
      </trkpt>
      <trkpt lat="45.34674" lon="5.7417">
        <ele>1142.9</ele>
        <time>2021-12-19T09:45:25Z</time>
      </trkpt>
      <trkpt lat="45.34675" lon="5.74169">
        <ele>1143.1</ele>
        <time>2021-12-19T09:45:26Z</time>
      </trkpt>
      <trkpt lat="45.34676" lon="5.74168">
        <ele>1143.4</ele>
        <time>2021-12-19T09:45:27Z</time>
      </trkpt>
      <trkpt lat="45.34677" lon="5.74167">
        <ele>1143.6</ele>
        <time>2021-12-19T09:45:28Z</time>
      </trkpt>
      <trkpt lat="45.34678" lon="5.74167">
        <ele>1143.9</ele>
        <time>2021-12-19T09:45:29Z</time>
      </trkpt>
      <trkpt lat="45.34679" lon="5.74166">
        <ele>1144.1</ele>
        <time>2021-12-19T09:45:30Z</time>
      </trkpt>
      <trkpt lat="45.34679" lon="5.74165">
        <ele>1144.3</ele>
        <time>2021-12-19T09:45:31Z</time>
      </trkpt>
      <trkpt lat="45.3468" lon="5.74164">
        <ele>1144.5</ele>
        <time>2021-12-19T09:45:32Z</time>
      </trkpt>
      <trkpt lat="45.34681" lon="5.74163">
        <ele>1144.7</ele>
        <time>2021-12-19T09:45:33Z</time>
      </trkpt>
      <trkpt lat="45.34681" lon="5.74161">
        <ele>1144.9</ele>
        <time>2021-12-19T09:45:34Z</time>
      </trkpt>
      <trkpt lat="45.34682" lon="5.7416">
        <ele>1145.1</ele>
        <time>2021-12-19T09:45:35Z</time>
      </trkpt>
      <trkpt lat="45.34682" lon="5.74159">
        <ele>1145.4</ele>
        <time>2021-12-19T09:45:36Z</time>
      </trkpt>
      <trkpt lat="45.34683" lon="5.74157">
        <ele>1145.6</ele>
        <time>2021-12-19T09:45:37Z</time>
      </trkpt>
      <trkpt lat="45.34683" lon="5.74156">
        <ele>1145.8</ele>
        <time>2021-12-19T09:45:38Z</time>
      </trkpt>
      <trkpt lat="45.34683" lon="5.74155">
        <ele>1146</ele>
        <time>2021-12-19T09:45:39Z</time>
      </trkpt>
      <trkpt lat="45.34683" lon="5.74153">
        <ele>1146.2</ele>
        <time>2021-12-19T09:45:40Z</time>
      </trkpt>
      <trkpt lat="45.34683" lon="5.74151">
        <ele>1146.5</ele>
        <time>2021-12-19T09:45:41Z</time>
      </trkpt>
      <trkpt lat="45.34684" lon="5.7415">
        <ele>1146.7</ele>
        <time>2021-12-19T09:45:42Z</time>
      </trkpt>
      <trkpt lat="45.34684" lon="5.74149">
        <ele>1146.8</ele>
        <time>2021-12-19T09:45:43Z</time>
      </trkpt>
      <trkpt lat="45.34684" lon="5.74148">
        <ele>1147</ele>
        <time>2021-12-19T09:45:44Z</time>
      </trkpt>
      <trkpt lat="45.34685" lon="5.74147">
        <ele>1147.2</ele>
        <time>2021-12-19T09:45:45Z</time>
      </trkpt>
      <trkpt lat="45.34686" lon="5.74146">
        <ele>1147.4</ele>
        <time>2021-12-19T09:45:46Z</time>
      </trkpt>
      <trkpt lat="45.34686" lon="5.74145">
        <ele>1147.6</ele>
        <time>2021-12-19T09:45:47Z</time>
      </trkpt>
      <trkpt lat="45.34687" lon="5.74145">
        <ele>1147.8</ele>
        <time>2021-12-19T09:45:48Z</time>
      </trkpt>
      <trkpt lat="45.34687" lon="5.74144">
        <ele>1147.9</ele>
        <time>2021-12-19T09:45:49Z</time>
      </trkpt>
      <trkpt lat="45.34688" lon="5.74143">
        <ele>1148</ele>
        <time>2021-12-19T09:45:50Z</time>
      </trkpt>
      <trkpt lat="45.34688" lon="5.74142">
        <ele>1148.2</ele>
        <time>2021-12-19T09:45:51Z</time>
      </trkpt>
      <trkpt lat="45.34688" lon="5.74141">
        <ele>1148.4</ele>
        <time>2021-12-19T09:45:52Z</time>
      </trkpt>
      <trkpt lat="45.34688" lon="5.7414">
        <ele>1148.5</ele>
        <time>2021-12-19T09:45:53Z</time>
      </trkpt>
      <trkpt lat="45.34688" lon="5.74139">
        <ele>1148.7</ele>
        <time>2021-12-19T09:45:54Z</time>
      </trkpt>
      <trkpt lat="45.34689" lon="5.74138">
        <ele>1148.8</ele>
        <time>2021-12-19T09:45:55Z</time>
      </trkpt>
      <trkpt lat="45.3469" lon="5.74138">
        <ele>1149</ele>
        <time>2021-12-19T09:45:56Z</time>
      </trkpt>
      <trkpt lat="45.3469" lon="5.74136">
        <ele>1149.2</ele>
        <time>2021-12-19T09:45:57Z</time>
      </trkpt>
      <trkpt lat="45.3469" lon="5.74136">
        <ele>1149.3</ele>
        <time>2021-12-19T09:45:58Z</time>
      </trkpt>
      <trkpt lat="45.3469" lon="5.74135">
        <ele>1149.4</ele>
        <time>2021-12-19T09:45:59Z</time>
      </trkpt>
      <trkpt lat="45.3469" lon="5.74134">
        <ele>1149.6</ele>
        <time>2021-12-19T09:46:00Z</time>
      </trkpt>
      <trkpt lat="45.3469" lon="5.74133">
        <ele>1149.7</ele>
        <time>2021-12-19T09:46:01Z</time>
      </trkpt>
      <trkpt lat="45.3469" lon="5.74132">
        <ele>1149.8</ele>
        <time>2021-12-19T09:46:02Z</time>
      </trkpt>
      <trkpt lat="45.3469" lon="5.74131">
        <ele>1150</ele>
        <time>2021-12-19T09:46:03Z</time>
      </trkpt>
      <trkpt lat="45.3469" lon="5.7413">
        <ele>1150.2</ele>
        <time>2021-12-19T09:46:04Z</time>
      </trkpt>
      <trkpt lat="45.3469" lon="5.74129">
        <ele>1150.3</ele>
        <time>2021-12-19T09:46:05Z</time>
      </trkpt>
      <trkpt lat="45.3469" lon="5.74128">
        <ele>1150.5</ele>
        <time>2021-12-19T09:46:06Z</time>
      </trkpt>
      <trkpt lat="45.34689" lon="5.74127">
        <ele>1150.6</ele>
        <time>2021-12-19T09:46:07Z</time>
      </trkpt>
      <trkpt lat="45.3469" lon="5.74126">
        <ele>1150.8</ele>
        <time>2021-12-19T09:46:08Z</time>
      </trkpt>
      <trkpt lat="45.3469" lon="5.74125">
        <ele>1150.9</ele>
        <time>2021-12-19T09:46:09Z</time>
      </trkpt>
      <trkpt lat="45.3469" lon="5.74124">
        <ele>1151</ele>
        <time>2021-12-19T09:46:10Z</time>
      </trkpt>
      <trkpt lat="45.3469" lon="5.74124">
        <ele>1151.1</ele>
        <time>2021-12-19T09:46:11Z</time>
      </trkpt>
      <trkpt lat="45.34691" lon="5.74123">
        <ele>1151.3</ele>
        <time>2021-12-19T09:46:12Z</time>
      </trkpt>
      <trkpt lat="45.34691" lon="5.74121">
        <ele>1151.5</ele>
        <time>2021-12-19T09:46:13Z</time>
      </trkpt>
      <trkpt lat="45.34692" lon="5.7412">
        <ele>1151.7</ele>
        <time>2021-12-19T09:46:14Z</time>
      </trkpt>
      <trkpt lat="45.34692" lon="5.74119">
        <ele>1151.9</ele>
        <time>2021-12-19T09:46:15Z</time>
      </trkpt>
      <trkpt lat="45.34693" lon="5.74118">
        <ele>1152.1</ele>
        <time>2021-12-19T09:46:16Z</time>
      </trkpt>
      <trkpt lat="45.34693" lon="5.74117">
        <ele>1152.2</ele>
        <time>2021-12-19T09:46:17Z</time>
      </trkpt>
      <trkpt lat="45.34693" lon="5.74116">
        <ele>1152.4</ele>
        <time>2021-12-19T09:46:18Z</time>
      </trkpt>
      <trkpt lat="45.34693" lon="5.74115">
        <ele>1152.6</ele>
        <time>2021-12-19T09:46:19Z</time>
      </trkpt>
      <trkpt lat="45.34693" lon="5.74114">
        <ele>1152.7</ele>
        <time>2021-12-19T09:46:20Z</time>
      </trkpt>
      <trkpt lat="45.34693" lon="5.74112">
        <ele>1152.9</ele>
        <time>2021-12-19T09:46:21Z</time>
      </trkpt>
      <trkpt lat="45.34694" lon="5.74111">
        <ele>1153.1</ele>
        <time>2021-12-19T09:46:22Z</time>
      </trkpt>
      <trkpt lat="45.34694" lon="5.7411">
        <ele>1153.4</ele>
        <time>2021-12-19T09:46:23Z</time>
      </trkpt>
      <trkpt lat="45.34695" lon="5.74108">
        <ele>1153.6</ele>
        <time>2021-12-19T09:46:24Z</time>
      </trkpt>
      <trkpt lat="45.34695" lon="5.74106">
        <ele>1153.8</ele>
        <time>2021-12-19T09:46:25Z</time>
      </trkpt>
      <trkpt lat="45.34695" lon="5.74105">
        <ele>1154</ele>
        <time>2021-12-19T09:46:26Z</time>
      </trkpt>
      <trkpt lat="45.34696" lon="5.74104">
        <ele>1154.2</ele>
        <time>2021-12-19T09:46:27Z</time>
      </trkpt>
      <trkpt lat="45.34696" lon="5.74103">
        <ele>1154.4</ele>
        <time>2021-12-19T09:46:28Z</time>
      </trkpt>
      <trkpt lat="45.34696" lon="5.74102">
        <ele>1154.6</ele>
        <time>2021-12-19T09:46:29Z</time>
      </trkpt>
      <trkpt lat="45.34696" lon="5.741">
        <ele>1154.8</ele>
        <time>2021-12-19T09:46:30Z</time>
      </trkpt>
      <trkpt lat="45.34697" lon="5.74099">
        <ele>1155</ele>
        <time>2021-12-19T09:46:31Z</time>
      </trkpt>
      <trkpt lat="45.34698" lon="5.74097">
        <ele>1155.2</ele>
        <time>2021-12-19T09:46:32Z</time>
      </trkpt>
      <trkpt lat="45.34698" lon="5.74096">
        <ele>1155.5</ele>
        <time>2021-12-19T09:46:33Z</time>
      </trkpt>
      <trkpt lat="45.34698" lon="5.74095">
        <ele>1155.6</ele>
        <time>2021-12-19T09:46:34Z</time>
      </trkpt>
      <trkpt lat="45.34699" lon="5.74094">
        <ele>1155.8</ele>
        <time>2021-12-19T09:46:35Z</time>
      </trkpt>
      <trkpt lat="45.34699" lon="5.74094">
        <ele>1155.9</ele>
        <time>2021-12-19T09:46:36Z</time>
      </trkpt>
      <trkpt lat="45.347" lon="5.74094">
        <ele>1156.1</ele>
        <time>2021-12-19T09:46:37Z</time>
      </trkpt>
      <trkpt lat="45.347" lon="5.74093">
        <ele>1156.2</ele>
        <time>2021-12-19T09:46:38Z</time>
      </trkpt>
      <trkpt lat="45.34701" lon="5.74092">
        <ele>1156.3</ele>
        <time>2021-12-19T09:46:39Z</time>
      </trkpt>
      <trkpt lat="45.34701" lon="5.74092">
        <ele>1156.4</ele>
        <time>2021-12-19T09:46:40Z</time>
      </trkpt>
      <trkpt lat="45.34701" lon="5.74092">
        <ele>1156.5</ele>
        <time>2021-12-19T09:46:41Z</time>
      </trkpt>
      <trkpt lat="45.34702" lon="5.74091">
        <ele>1156.6</ele>
        <time>2021-12-19T09:46:42Z</time>
      </trkpt>
      <trkpt lat="45.34702" lon="5.74091">
        <ele>1156.6</ele>
        <time>2021-12-19T09:46:43Z</time>
      </trkpt>
      <trkpt lat="45.34702" lon="5.74091">
        <ele>1156.7</ele>
        <time>2021-12-19T09:46:44Z</time>
      </trkpt>
      <trkpt lat="45.34702" lon="5.74091">
        <ele>1156.8</ele>
        <time>2021-12-19T09:46:45Z</time>
      </trkpt>
      <trkpt lat="45.34703" lon="5.7409">
        <ele>1156.9</ele>
        <time>2021-12-19T09:46:46Z</time>
      </trkpt>
      <trkpt lat="45.34703" lon="5.7409">
        <ele>1156.9</ele>
        <time>2021-12-19T09:46:47Z</time>
      </trkpt>
      <trkpt lat="45.34704" lon="5.7409">
        <ele>1157</ele>
        <time>2021-12-19T09:46:48Z</time>
      </trkpt>
      <trkpt lat="45.34704" lon="5.7409">
        <ele>1157.1</ele>
        <time>2021-12-19T09:46:49Z</time>
      </trkpt>
      <trkpt lat="45.34704" lon="5.7409">
        <ele>1157.2</ele>
        <time>2021-12-19T09:46:50Z</time>
      </trkpt>
      <trkpt lat="45.34705" lon="5.74091">
        <ele>1157.2</ele>
        <time>2021-12-19T09:46:51Z</time>
      </trkpt>
      <trkpt lat="45.34704" lon="5.7409">
        <ele>1157.3</ele>
        <time>2021-12-19T09:46:52Z</time>
      </trkpt>
      <trkpt lat="45.34705" lon="5.7409">
        <ele>1157.3</ele>
        <time>2021-12-19T09:46:53Z</time>
      </trkpt>
      <trkpt lat="45.34705" lon="5.74089">
        <ele>1157.5</ele>
        <time>2021-12-19T09:46:54Z</time>
      </trkpt>
      <trkpt lat="45.34706" lon="5.74089">
        <ele>1157.8</ele>
        <time>2021-12-19T09:46:55Z</time>
      </trkpt>
      <trkpt lat="45.34707" lon="5.74089">
        <ele>1157.9</ele>
        <time>2021-12-19T09:46:56Z</time>
      </trkpt>
      <trkpt lat="45.34707" lon="5.74089">
        <ele>1157.9</ele>
        <time>2021-12-19T09:46:57Z</time>
      </trkpt>
      <trkpt lat="45.34707" lon="5.74089">
        <ele>1158</ele>
        <time>2021-12-19T09:46:58Z</time>
      </trkpt>
      <trkpt lat="45.34708" lon="5.74089">
        <ele>1158</ele>
        <time>2021-12-19T09:46:59Z</time>
      </trkpt>
      <trkpt lat="45.34708" lon="5.74089">
        <ele>1158.1</ele>
        <time>2021-12-19T09:47:00Z</time>
      </trkpt>
      <trkpt lat="45.34708" lon="5.74089">
        <ele>1158.1</ele>
        <time>2021-12-19T09:47:01Z</time>
      </trkpt>
      <trkpt lat="45.34708" lon="5.74089">
        <ele>1158.1</ele>
        <time>2021-12-19T09:47:02Z</time>
      </trkpt>
      <trkpt lat="45.34708" lon="5.74089">
        <ele>1158.2</ele>
        <time>2021-12-19T09:47:03Z</time>
      </trkpt>
      <trkpt lat="45.34708" lon="5.74089">
        <ele>1158.2</ele>
        <time>2021-12-19T09:47:04Z</time>
      </trkpt>
      <trkpt lat="45.34708" lon="5.74089">
        <ele>1158.3</ele>
        <time>2021-12-19T09:47:05Z</time>
      </trkpt>
      <trkpt lat="45.34708" lon="5.74089">
        <ele>1158.3</ele>
        <time>2021-12-19T09:47:06Z</time>
      </trkpt>
      <trkpt lat="45.34708" lon="5.74089">
        <ele>1158.4</ele>
        <time>2021-12-19T09:47:07Z</time>
      </trkpt>
      <trkpt lat="45.34708" lon="5.74089">
        <ele>1158.4</ele>
        <time>2021-12-19T09:47:08Z</time>
      </trkpt>
      <trkpt lat="45.34708" lon="5.74088">
        <ele>1158.6</ele>
        <time>2021-12-19T09:47:09Z</time>
      </trkpt>
      <trkpt lat="45.34709" lon="5.74088">
        <ele>1158.7</ele>
        <time>2021-12-19T09:47:10Z</time>
      </trkpt>
      <trkpt lat="45.34709" lon="5.74087">
        <ele>1158.8</ele>
        <time>2021-12-19T09:47:11Z</time>
      </trkpt>
      <trkpt lat="45.3471" lon="5.74087">
        <ele>1158.9</ele>
        <time>2021-12-19T09:47:12Z</time>
      </trkpt>
      <trkpt lat="45.3471" lon="5.74087">
        <ele>1159</ele>
        <time>2021-12-19T09:47:13Z</time>
      </trkpt>
      <trkpt lat="45.3471" lon="5.74086">
        <ele>1159.1</ele>
        <time>2021-12-19T09:47:14Z</time>
      </trkpt>
      <trkpt lat="45.34711" lon="5.74085">
        <ele>1159.2</ele>
        <time>2021-12-19T09:47:15Z</time>
      </trkpt>
      <trkpt lat="45.34711" lon="5.74085">
        <ele>1159.3</ele>
        <time>2021-12-19T09:47:16Z</time>
      </trkpt>
      <trkpt lat="45.34712" lon="5.74084">
        <ele>1159.5</ele>
        <time>2021-12-19T09:47:17Z</time>
      </trkpt>
      <trkpt lat="45.34712" lon="5.74083">
        <ele>1159.6</ele>
        <time>2021-12-19T09:47:18Z</time>
      </trkpt>
      <trkpt lat="45.34712" lon="5.74083">
        <ele>1159.7</ele>
        <time>2021-12-19T09:47:19Z</time>
      </trkpt>
      <trkpt lat="45.34712" lon="5.74082">
        <ele>1159.8</ele>
        <time>2021-12-19T09:47:20Z</time>
      </trkpt>
      <trkpt lat="45.34712" lon="5.74082">
        <ele>1159.9</ele>
        <time>2021-12-19T09:47:21Z</time>
      </trkpt>
      <trkpt lat="45.34713" lon="5.74082">
        <ele>1160</ele>
        <time>2021-12-19T09:47:22Z</time>
      </trkpt>
      <trkpt lat="45.34713" lon="5.74082">
        <ele>1160</ele>
        <time>2021-12-19T09:47:23Z</time>
      </trkpt>
      <trkpt lat="45.34713" lon="5.74081">
        <ele>1160.1</ele>
        <time>2021-12-19T09:47:24Z</time>
      </trkpt>
      <trkpt lat="45.34714" lon="5.74081">
        <ele>1160.2</ele>
        <time>2021-12-19T09:47:25Z</time>
      </trkpt>
      <trkpt lat="45.34714" lon="5.7408">
        <ele>1160.3</ele>
        <time>2021-12-19T09:47:26Z</time>
      </trkpt>
      <trkpt lat="45.34715" lon="5.7408">
        <ele>1160.5</ele>
        <time>2021-12-19T09:47:27Z</time>
      </trkpt>
      <trkpt lat="45.34715" lon="5.74079">
        <ele>1160.6</ele>
        <time>2021-12-19T09:47:28Z</time>
      </trkpt>
      <trkpt lat="45.34716" lon="5.74078">
        <ele>1160.7</ele>
        <time>2021-12-19T09:47:29Z</time>
      </trkpt>
      <trkpt lat="45.34716" lon="5.74078">
        <ele>1160.9</ele>
        <time>2021-12-19T09:47:30Z</time>
      </trkpt>
      <trkpt lat="45.34717" lon="5.74077">
        <ele>1161.1</ele>
        <time>2021-12-19T09:47:31Z</time>
      </trkpt>
      <trkpt lat="45.34717" lon="5.74076">
        <ele>1161.2</ele>
        <time>2021-12-19T09:47:32Z</time>
      </trkpt>
      <trkpt lat="45.34717" lon="5.74075">
        <ele>1161.4</ele>
        <time>2021-12-19T09:47:33Z</time>
      </trkpt>
      <trkpt lat="45.34717" lon="5.74074">
        <ele>1161.5</ele>
        <time>2021-12-19T09:47:34Z</time>
      </trkpt>
      <trkpt lat="45.34717" lon="5.74074">
        <ele>1161.5</ele>
        <time>2021-12-19T09:47:35Z</time>
      </trkpt>
      <trkpt lat="45.34718" lon="5.74073">
        <ele>1161.6</ele>
        <time>2021-12-19T09:47:36Z</time>
      </trkpt>
      <trkpt lat="45.34718" lon="5.74073">
        <ele>1161.7</ele>
        <time>2021-12-19T09:47:37Z</time>
      </trkpt>
      <trkpt lat="45.34718" lon="5.74072">
        <ele>1161.8</ele>
        <time>2021-12-19T09:47:38Z</time>
      </trkpt>
      <trkpt lat="45.34718" lon="5.74072">
        <ele>1161.9</ele>
        <time>2021-12-19T09:47:39Z</time>
      </trkpt>
      <trkpt lat="45.34719" lon="5.74071">
        <ele>1162.1</ele>
        <time>2021-12-19T09:47:40Z</time>
      </trkpt>
      <trkpt lat="45.34719" lon="5.7407">
        <ele>1162.2</ele>
        <time>2021-12-19T09:47:41Z</time>
      </trkpt>
      <trkpt lat="45.34719" lon="5.74069">
        <ele>1162.3</ele>
        <time>2021-12-19T09:47:42Z</time>
      </trkpt>
      <trkpt lat="45.34719" lon="5.74069">
        <ele>1162.4</ele>
        <time>2021-12-19T09:47:43Z</time>
      </trkpt>
      <trkpt lat="45.34719" lon="5.74068">
        <ele>1162.5</ele>
        <time>2021-12-19T09:47:44Z</time>
      </trkpt>
      <trkpt lat="45.34719" lon="5.74066">
        <ele>1162.7</ele>
        <time>2021-12-19T09:47:45Z</time>
      </trkpt>
      <trkpt lat="45.34719" lon="5.74065">
        <ele>1162.9</ele>
        <time>2021-12-19T09:47:46Z</time>
      </trkpt>
      <trkpt lat="45.34719" lon="5.74064">
        <ele>1163.1</ele>
        <time>2021-12-19T09:47:47Z</time>
      </trkpt>
      <trkpt lat="45.34719" lon="5.74063">
        <ele>1163.2</ele>
        <time>2021-12-19T09:47:48Z</time>
      </trkpt>
      <trkpt lat="45.34719" lon="5.74062">
        <ele>1163.4</ele>
        <time>2021-12-19T09:47:49Z</time>
      </trkpt>
      <trkpt lat="45.3472" lon="5.74061">
        <ele>1163.6</ele>
        <time>2021-12-19T09:47:50Z</time>
      </trkpt>
      <trkpt lat="45.3472" lon="5.7406">
        <ele>1163.7</ele>
        <time>2021-12-19T09:47:51Z</time>
      </trkpt>
      <trkpt lat="45.34721" lon="5.74059">
        <ele>1164</ele>
        <time>2021-12-19T09:47:52Z</time>
      </trkpt>
      <trkpt lat="45.34722" lon="5.74058">
        <ele>1164.1</ele>
        <time>2021-12-19T09:47:53Z</time>
      </trkpt>
      <trkpt lat="45.34722" lon="5.74057">
        <ele>1164.3</ele>
        <time>2021-12-19T09:47:54Z</time>
      </trkpt>
      <trkpt lat="45.34723" lon="5.74057">
        <ele>1164.5</ele>
        <time>2021-12-19T09:47:55Z</time>
      </trkpt>
      <trkpt lat="45.34724" lon="5.74055">
        <ele>1164.8</ele>
        <time>2021-12-19T09:47:56Z</time>
      </trkpt>
      <trkpt lat="45.34725" lon="5.74054">
        <ele>1165</ele>
        <time>2021-12-19T09:47:57Z</time>
      </trkpt>
      <trkpt lat="45.34726" lon="5.74053">
        <ele>1165.2</ele>
        <time>2021-12-19T09:47:58Z</time>
      </trkpt>
      <trkpt lat="45.34727" lon="5.74053">
        <ele>1165.5</ele>
        <time>2021-12-19T09:47:59Z</time>
      </trkpt>
      <trkpt lat="45.34727" lon="5.74052">
        <ele>1165.7</ele>
        <time>2021-12-19T09:48:00Z</time>
      </trkpt>
      <trkpt lat="45.34729" lon="5.74051">
        <ele>1166</ele>
        <time>2021-12-19T09:48:01Z</time>
      </trkpt>
      <trkpt lat="45.34729" lon="5.7405">
        <ele>1166.2</ele>
        <time>2021-12-19T09:48:02Z</time>
      </trkpt>
      <trkpt lat="45.3473" lon="5.74049">
        <ele>1166.4</ele>
        <time>2021-12-19T09:48:03Z</time>
      </trkpt>
      <trkpt lat="45.34731" lon="5.74047">
        <ele>1166.7</ele>
        <time>2021-12-19T09:48:04Z</time>
      </trkpt>
      <trkpt lat="45.34732" lon="5.74045">
        <ele>1167</ele>
        <time>2021-12-19T09:48:05Z</time>
      </trkpt>
      <trkpt lat="45.34733" lon="5.74045">
        <ele>1167.2</ele>
        <time>2021-12-19T09:48:06Z</time>
      </trkpt>
      <trkpt lat="45.34734" lon="5.74044">
        <ele>1167.5</ele>
        <time>2021-12-19T09:48:07Z</time>
      </trkpt>
      <trkpt lat="45.34735" lon="5.74043">
        <ele>1167.7</ele>
        <time>2021-12-19T09:48:08Z</time>
      </trkpt>
      <trkpt lat="45.34736" lon="5.74043">
        <ele>1168</ele>
        <time>2021-12-19T09:48:09Z</time>
      </trkpt>
      <trkpt lat="45.34737" lon="5.74042">
        <ele>1168.2</ele>
        <time>2021-12-19T09:48:10Z</time>
      </trkpt>
      <trkpt lat="45.34738" lon="5.74041">
        <ele>1168.5</ele>
        <time>2021-12-19T09:48:11Z</time>
      </trkpt>
      <trkpt lat="45.34739" lon="5.74041">
        <ele>1168.6</ele>
        <time>2021-12-19T09:48:12Z</time>
      </trkpt>
      <trkpt lat="45.3474" lon="5.7404">
        <ele>1168.9</ele>
        <time>2021-12-19T09:48:13Z</time>
      </trkpt>
      <trkpt lat="45.34741" lon="5.74039">
        <ele>1169.1</ele>
        <time>2021-12-19T09:48:14Z</time>
      </trkpt>
      <trkpt lat="45.34742" lon="5.74038">
        <ele>1169.3</ele>
        <time>2021-12-19T09:48:15Z</time>
      </trkpt>
      <trkpt lat="45.34743" lon="5.74037">
        <ele>1169.5</ele>
        <time>2021-12-19T09:48:16Z</time>
      </trkpt>
      <trkpt lat="45.34744" lon="5.74036">
        <ele>1169.8</ele>
        <time>2021-12-19T09:48:17Z</time>
      </trkpt>
      <trkpt lat="45.34744" lon="5.74035">
        <ele>1170</ele>
        <time>2021-12-19T09:48:18Z</time>
      </trkpt>
      <trkpt lat="45.34744" lon="5.74034">
        <ele>1170.1</ele>
        <time>2021-12-19T09:48:19Z</time>
      </trkpt>
      <trkpt lat="45.34744" lon="5.74034">
        <ele>1170.2</ele>
        <time>2021-12-19T09:48:20Z</time>
      </trkpt>
      <trkpt lat="45.34744" lon="5.74034">
        <ele>1170.2</ele>
        <time>2021-12-19T09:48:21Z</time>
      </trkpt>
      <trkpt lat="45.34744" lon="5.74034">
        <ele>1170.3</ele>
        <time>2021-12-19T09:48:22Z</time>
      </trkpt>
      <trkpt lat="45.34744" lon="5.74033">
        <ele>1170.4</ele>
        <time>2021-12-19T09:48:23Z</time>
      </trkpt>
      <trkpt lat="45.34743" lon="5.74033">
        <ele>1170.5</ele>
        <time>2021-12-19T09:48:24Z</time>
      </trkpt>
      <trkpt lat="45.34742" lon="5.74032">
        <ele>1170.7</ele>
        <time>2021-12-19T09:48:25Z</time>
      </trkpt>
      <trkpt lat="45.34742" lon="5.74031">
        <ele>1170.8</ele>
        <time>2021-12-19T09:48:26Z</time>
      </trkpt>
      <trkpt lat="45.34741" lon="5.74031">
        <ele>1170.9</ele>
        <time>2021-12-19T09:48:27Z</time>
      </trkpt>
      <trkpt lat="45.34741" lon="5.7403">
        <ele>1171.1</ele>
        <time>2021-12-19T09:48:28Z</time>
      </trkpt>
      <trkpt lat="45.34741" lon="5.74029">
        <ele>1171.2</ele>
        <time>2021-12-19T09:48:29Z</time>
      </trkpt>
      <trkpt lat="45.34742" lon="5.74028">
        <ele>1171.3</ele>
        <time>2021-12-19T09:48:30Z</time>
      </trkpt>
      <trkpt lat="45.34741" lon="5.74027">
        <ele>1171.5</ele>
        <time>2021-12-19T09:48:31Z</time>
      </trkpt>
      <trkpt lat="45.34741" lon="5.74027">
        <ele>1171.6</ele>
        <time>2021-12-19T09:48:32Z</time>
      </trkpt>
      <trkpt lat="45.3474" lon="5.74026">
        <ele>1171.8</ele>
        <time>2021-12-19T09:48:33Z</time>
      </trkpt>
      <trkpt lat="45.3474" lon="5.74025">
        <ele>1171.9</ele>
        <time>2021-12-19T09:48:34Z</time>
      </trkpt>
      <trkpt lat="45.34739" lon="5.74025">
        <ele>1172.1</ele>
        <time>2021-12-19T09:48:35Z</time>
      </trkpt>
      <trkpt lat="45.34738" lon="5.74024">
        <ele>1172.3</ele>
        <time>2021-12-19T09:48:36Z</time>
      </trkpt>
      <trkpt lat="45.34738" lon="5.74023">
        <ele>1172.4</ele>
        <time>2021-12-19T09:48:37Z</time>
      </trkpt>
      <trkpt lat="45.34737" lon="5.74023">
        <ele>1172.6</ele>
        <time>2021-12-19T09:48:38Z</time>
      </trkpt>
      <trkpt lat="45.34736" lon="5.74022">
        <ele>1172.8</ele>
        <time>2021-12-19T09:48:39Z</time>
      </trkpt>
      <trkpt lat="45.34736" lon="5.74021">
        <ele>1172.9</ele>
        <time>2021-12-19T09:48:40Z</time>
      </trkpt>
      <trkpt lat="45.34736" lon="5.7402">
        <ele>1173.1</ele>
        <time>2021-12-19T09:48:41Z</time>
      </trkpt>
      <trkpt lat="45.34735" lon="5.74019">
        <ele>1173.2</ele>
        <time>2021-12-19T09:48:42Z</time>
      </trkpt>
      <trkpt lat="45.34735" lon="5.74019">
        <ele>1173.3</ele>
        <time>2021-12-19T09:48:43Z</time>
      </trkpt>
      <trkpt lat="45.34735" lon="5.74018">
        <ele>1173.5</ele>
        <time>2021-12-19T09:48:44Z</time>
      </trkpt>
      <trkpt lat="45.34735" lon="5.74017">
        <ele>1173.6</ele>
        <time>2021-12-19T09:48:45Z</time>
      </trkpt>
      <trkpt lat="45.34735" lon="5.74015">
        <ele>1173.9</ele>
        <time>2021-12-19T09:48:46Z</time>
      </trkpt>
      <trkpt lat="45.34735" lon="5.74013">
        <ele>1174.1</ele>
        <time>2021-12-19T09:48:47Z</time>
      </trkpt>
      <trkpt lat="45.34735" lon="5.74012">
        <ele>1174.3</ele>
        <time>2021-12-19T09:48:48Z</time>
      </trkpt>
      <trkpt lat="45.34734" lon="5.74011">
        <ele>1174.5</ele>
        <time>2021-12-19T09:48:49Z</time>
      </trkpt>
      <trkpt lat="45.34734" lon="5.74009">
        <ele>1174.7</ele>
        <time>2021-12-19T09:48:50Z</time>
      </trkpt>
      <trkpt lat="45.34734" lon="5.74008">
        <ele>1174.9</ele>
        <time>2021-12-19T09:48:51Z</time>
      </trkpt>
      <trkpt lat="45.34734" lon="5.74007">
        <ele>1175.1</ele>
        <time>2021-12-19T09:48:52Z</time>
      </trkpt>
      <trkpt lat="45.34734" lon="5.74005">
        <ele>1175.3</ele>
        <time>2021-12-19T09:48:53Z</time>
      </trkpt>
      <trkpt lat="45.34734" lon="5.74004">
        <ele>1175.4</ele>
        <time>2021-12-19T09:48:54Z</time>
      </trkpt>
      <trkpt lat="45.34734" lon="5.74003">
        <ele>1175.6</ele>
        <time>2021-12-19T09:48:55Z</time>
      </trkpt>
      <trkpt lat="45.34734" lon="5.74002">
        <ele>1175.7</ele>
        <time>2021-12-19T09:48:56Z</time>
      </trkpt>
      <trkpt lat="45.34734" lon="5.74002">
        <ele>1175.8</ele>
        <time>2021-12-19T09:48:57Z</time>
      </trkpt>
      <trkpt lat="45.34734" lon="5.74001">
        <ele>1176</ele>
        <time>2021-12-19T09:48:58Z</time>
      </trkpt>
      <trkpt lat="45.34733" lon="5.74">
        <ele>1176.1</ele>
        <time>2021-12-19T09:48:59Z</time>
      </trkpt>
      <trkpt lat="45.34734" lon="5.73999">
        <ele>1176.3</ele>
        <time>2021-12-19T09:49:00Z</time>
      </trkpt>
      <trkpt lat="45.34734" lon="5.73997">
        <ele>1176.5</ele>
        <time>2021-12-19T09:49:01Z</time>
      </trkpt>
      <trkpt lat="45.34734" lon="5.73996">
        <ele>1176.7</ele>
        <time>2021-12-19T09:49:02Z</time>
      </trkpt>
      <trkpt lat="45.34734" lon="5.73995">
        <ele>1176.9</ele>
        <time>2021-12-19T09:49:03Z</time>
      </trkpt>
      <trkpt lat="45.34734" lon="5.73994">
        <ele>1177</ele>
        <time>2021-12-19T09:49:04Z</time>
      </trkpt>
      <trkpt lat="45.34734" lon="5.73992">
        <ele>1177.2</ele>
        <time>2021-12-19T09:49:05Z</time>
      </trkpt>
      <trkpt lat="45.34734" lon="5.73991">
        <ele>1177.4</ele>
        <time>2021-12-19T09:49:06Z</time>
      </trkpt>
      <trkpt lat="45.34735" lon="5.7399">
        <ele>1177.6</ele>
        <time>2021-12-19T09:49:07Z</time>
      </trkpt>
      <trkpt lat="45.34735" lon="5.73988">
        <ele>1177.8</ele>
        <time>2021-12-19T09:49:08Z</time>
      </trkpt>
      <trkpt lat="45.34735" lon="5.73987">
        <ele>1178</ele>
        <time>2021-12-19T09:49:09Z</time>
      </trkpt>
      <trkpt lat="45.34736" lon="5.73986">
        <ele>1178.2</ele>
        <time>2021-12-19T09:49:10Z</time>
      </trkpt>
      <trkpt lat="45.34737" lon="5.73985">
        <ele>1178.5</ele>
        <time>2021-12-19T09:49:11Z</time>
      </trkpt>
      <trkpt lat="45.34737" lon="5.73984">
        <ele>1178.7</ele>
        <time>2021-12-19T09:49:12Z</time>
      </trkpt>
      <trkpt lat="45.34736" lon="5.73982">
        <ele>1178.9</ele>
        <time>2021-12-19T09:49:13Z</time>
      </trkpt>
      <trkpt lat="45.34737" lon="5.73981">
        <ele>1179.1</ele>
        <time>2021-12-19T09:49:14Z</time>
      </trkpt>
      <trkpt lat="45.34737" lon="5.73979">
        <ele>1179.3</ele>
        <time>2021-12-19T09:49:15Z</time>
      </trkpt>
      <trkpt lat="45.34737" lon="5.73978">
        <ele>1179.5</ele>
        <time>2021-12-19T09:49:16Z</time>
      </trkpt>
      <trkpt lat="45.34737" lon="5.73976">
        <ele>1179.7</ele>
        <time>2021-12-19T09:49:17Z</time>
      </trkpt>
      <trkpt lat="45.34737" lon="5.73975">
        <ele>1179.9</ele>
        <time>2021-12-19T09:49:18Z</time>
      </trkpt>
      <trkpt lat="45.34737" lon="5.73974">
        <ele>1180.1</ele>
        <time>2021-12-19T09:49:19Z</time>
      </trkpt>
      <trkpt lat="45.34737" lon="5.73973">
        <ele>1180.3</ele>
        <time>2021-12-19T09:49:20Z</time>
      </trkpt>
      <trkpt lat="45.34737" lon="5.73971">
        <ele>1180.5</ele>
        <time>2021-12-19T09:49:21Z</time>
      </trkpt>
      <trkpt lat="45.34738" lon="5.7397">
        <ele>1180.7</ele>
        <time>2021-12-19T09:49:22Z</time>
      </trkpt>
      <trkpt lat="45.34737" lon="5.73969">
        <ele>1180.8</ele>
        <time>2021-12-19T09:49:23Z</time>
      </trkpt>
      <trkpt lat="45.34737" lon="5.73968">
        <ele>1181</ele>
        <time>2021-12-19T09:49:24Z</time>
      </trkpt>
      <trkpt lat="45.34738" lon="5.73967">
        <ele>1181.2</ele>
        <time>2021-12-19T09:49:25Z</time>
      </trkpt>
      <trkpt lat="45.34738" lon="5.73966">
        <ele>1181.3</ele>
        <time>2021-12-19T09:49:26Z</time>
      </trkpt>
      <trkpt lat="45.34737" lon="5.73965">
        <ele>1181.4</ele>
        <time>2021-12-19T09:49:27Z</time>
      </trkpt>
      <trkpt lat="45.34737" lon="5.73964">
        <ele>1181.6</ele>
        <time>2021-12-19T09:49:28Z</time>
      </trkpt>
      <trkpt lat="45.34737" lon="5.73963">
        <ele>1181.8</ele>
        <time>2021-12-19T09:49:29Z</time>
      </trkpt>
      <trkpt lat="45.34736" lon="5.73962">
        <ele>1181.9</ele>
        <time>2021-12-19T09:49:30Z</time>
      </trkpt>
      <trkpt lat="45.34736" lon="5.73961">
        <ele>1182.1</ele>
        <time>2021-12-19T09:49:31Z</time>
      </trkpt>
      <trkpt lat="45.34735" lon="5.7396">
        <ele>1182.4</ele>
        <time>2021-12-19T09:49:32Z</time>
      </trkpt>
      <trkpt lat="45.34735" lon="5.73959">
        <ele>1182.5</ele>
        <time>2021-12-19T09:49:33Z</time>
      </trkpt>
      <trkpt lat="45.34735" lon="5.73958">
        <ele>1182.6</ele>
        <time>2021-12-19T09:49:34Z</time>
      </trkpt>
      <trkpt lat="45.34734" lon="5.73957">
        <ele>1182.8</ele>
        <time>2021-12-19T09:49:35Z</time>
      </trkpt>
      <trkpt lat="45.34734" lon="5.73956">
        <ele>1182.9</ele>
        <time>2021-12-19T09:49:36Z</time>
      </trkpt>
      <trkpt lat="45.34734" lon="5.73956">
        <ele>1183</ele>
        <time>2021-12-19T09:49:37Z</time>
      </trkpt>
      <trkpt lat="45.34734" lon="5.73955">
        <ele>1183.1</ele>
        <time>2021-12-19T09:49:38Z</time>
      </trkpt>
      <trkpt lat="45.34733" lon="5.73954">
        <ele>1183.3</ele>
        <time>2021-12-19T09:49:39Z</time>
      </trkpt>
      <trkpt lat="45.34734" lon="5.73954">
        <ele>1183.4</ele>
        <time>2021-12-19T09:49:40Z</time>
      </trkpt>
      <trkpt lat="45.34733" lon="5.73953">
        <ele>1183.5</ele>
        <time>2021-12-19T09:49:41Z</time>
      </trkpt>
      <trkpt lat="45.34734" lon="5.73951">
        <ele>1183.7</ele>
        <time>2021-12-19T09:49:42Z</time>
      </trkpt>
      <trkpt lat="45.34733" lon="5.73951">
        <ele>1183.9</ele>
        <time>2021-12-19T09:49:43Z</time>
      </trkpt>
      <trkpt lat="45.34734" lon="5.7395">
        <ele>1184</ele>
        <time>2021-12-19T09:49:44Z</time>
      </trkpt>
      <trkpt lat="45.34734" lon="5.73948">
        <ele>1184.2</ele>
        <time>2021-12-19T09:49:45Z</time>
      </trkpt>
      <trkpt lat="45.34734" lon="5.73947">
        <ele>1184.4</ele>
        <time>2021-12-19T09:49:46Z</time>
      </trkpt>
      <trkpt lat="45.34735" lon="5.73946">
        <ele>1184.6</ele>
        <time>2021-12-19T09:49:47Z</time>
      </trkpt>
      <trkpt lat="45.34735" lon="5.73945">
        <ele>1184.7</ele>
        <time>2021-12-19T09:49:48Z</time>
      </trkpt>
      <trkpt lat="45.34735" lon="5.73944">
        <ele>1184.9</ele>
        <time>2021-12-19T09:49:49Z</time>
      </trkpt>
      <trkpt lat="45.34736" lon="5.73942">
        <ele>1185.2</ele>
        <time>2021-12-19T09:49:50Z</time>
      </trkpt>
      <trkpt lat="45.34736" lon="5.73941">
        <ele>1185.4</ele>
        <time>2021-12-19T09:49:51Z</time>
      </trkpt>
      <trkpt lat="45.34737" lon="5.73939">
        <ele>1185.7</ele>
        <time>2021-12-19T09:49:52Z</time>
      </trkpt>
      <trkpt lat="45.34738" lon="5.73938">
        <ele>1186</ele>
        <time>2021-12-19T09:49:53Z</time>
      </trkpt>
      <trkpt lat="45.34739" lon="5.73936">
        <ele>1186.2</ele>
        <time>2021-12-19T09:49:54Z</time>
      </trkpt>
      <trkpt lat="45.3474" lon="5.73935">
        <ele>1186.5</ele>
        <time>2021-12-19T09:49:55Z</time>
      </trkpt>
      <trkpt lat="45.34741" lon="5.73934">
        <ele>1186.7</ele>
        <time>2021-12-19T09:49:56Z</time>
      </trkpt>
      <trkpt lat="45.34741" lon="5.73933">
        <ele>1186.9</ele>
        <time>2021-12-19T09:49:57Z</time>
      </trkpt>
      <trkpt lat="45.34742" lon="5.73932">
        <ele>1187.2</ele>
        <time>2021-12-19T09:49:58Z</time>
      </trkpt>
      <trkpt lat="45.34743" lon="5.73931">
        <ele>1187.4</ele>
        <time>2021-12-19T09:49:59Z</time>
      </trkpt>
      <trkpt lat="45.34743" lon="5.7393">
        <ele>1187.5</ele>
        <time>2021-12-19T09:50:00Z</time>
      </trkpt>
      <trkpt lat="45.34743" lon="5.7393">
        <ele>1187.6</ele>
        <time>2021-12-19T09:50:01Z</time>
      </trkpt>
      <trkpt lat="45.34743" lon="5.73929">
        <ele>1187.8</ele>
        <time>2021-12-19T09:50:02Z</time>
      </trkpt>
      <trkpt lat="45.34743" lon="5.73927">
        <ele>1187.9</ele>
        <time>2021-12-19T09:50:03Z</time>
      </trkpt>
      <trkpt lat="45.34744" lon="5.73927">
        <ele>1188</ele>
        <time>2021-12-19T09:50:04Z</time>
      </trkpt>
      <trkpt lat="45.34744" lon="5.73926">
        <ele>1188.1</ele>
        <time>2021-12-19T09:50:05Z</time>
      </trkpt>
      <trkpt lat="45.34744" lon="5.73926">
        <ele>1188.1</ele>
        <time>2021-12-19T09:50:06Z</time>
      </trkpt>
      <trkpt lat="45.34743" lon="5.73926">
        <ele>1188.2</ele>
        <time>2021-12-19T09:50:07Z</time>
      </trkpt>
      <trkpt lat="45.34744" lon="5.73926">
        <ele>1188.2</ele>
        <time>2021-12-19T09:50:08Z</time>
      </trkpt>
      <trkpt lat="45.34744" lon="5.73926">
        <ele>1188.3</ele>
        <time>2021-12-19T09:50:09Z</time>
      </trkpt>
      <trkpt lat="45.34744" lon="5.73925">
        <ele>1188.4</ele>
        <time>2021-12-19T09:50:10Z</time>
      </trkpt>
      <trkpt lat="45.34744" lon="5.73925">
        <ele>1188.4</ele>
        <time>2021-12-19T09:50:11Z</time>
      </trkpt>
      <trkpt lat="45.34744" lon="5.73924">
        <ele>1188.5</ele>
        <time>2021-12-19T09:50:12Z</time>
      </trkpt>
      <trkpt lat="45.34745" lon="5.73924">
        <ele>1188.6</ele>
        <time>2021-12-19T09:50:13Z</time>
      </trkpt>
      <trkpt lat="45.34745" lon="5.73924">
        <ele>1188.7</ele>
        <time>2021-12-19T09:50:14Z</time>
      </trkpt>
      <trkpt lat="45.34745" lon="5.73923">
        <ele>1188.9</ele>
        <time>2021-12-19T09:50:15Z</time>
      </trkpt>
      <trkpt lat="45.34745" lon="5.73921">
        <ele>1189.1</ele>
        <time>2021-12-19T09:50:16Z</time>
      </trkpt>
      <trkpt lat="45.34745" lon="5.73921">
        <ele>1189.2</ele>
        <time>2021-12-19T09:50:17Z</time>
      </trkpt>
      <trkpt lat="45.34745" lon="5.7392">
        <ele>1189.3</ele>
        <time>2021-12-19T09:50:18Z</time>
      </trkpt>
      <trkpt lat="45.34745" lon="5.73919">
        <ele>1189.4</ele>
        <time>2021-12-19T09:50:19Z</time>
      </trkpt>
      <trkpt lat="45.34745" lon="5.73918">
        <ele>1189.6</ele>
        <time>2021-12-19T09:50:20Z</time>
      </trkpt>
      <trkpt lat="45.34745" lon="5.73917">
        <ele>1189.8</ele>
        <time>2021-12-19T09:50:21Z</time>
      </trkpt>
      <trkpt lat="45.34745" lon="5.73915">
        <ele>1190</ele>
        <time>2021-12-19T09:50:22Z</time>
      </trkpt>
      <trkpt lat="45.34745" lon="5.73914">
        <ele>1190.2</ele>
        <time>2021-12-19T09:50:23Z</time>
      </trkpt>
      <trkpt lat="45.34746" lon="5.73913">
        <ele>1190.4</ele>
        <time>2021-12-19T09:50:24Z</time>
      </trkpt>
      <trkpt lat="45.34747" lon="5.73911">
        <ele>1190.6</ele>
        <time>2021-12-19T09:50:25Z</time>
      </trkpt>
      <trkpt lat="45.34747" lon="5.7391">
        <ele>1190.8</ele>
        <time>2021-12-19T09:50:26Z</time>
      </trkpt>
      <trkpt lat="45.34747" lon="5.73909">
        <ele>1191</ele>
        <time>2021-12-19T09:50:27Z</time>
      </trkpt>
      <trkpt lat="45.34748" lon="5.73908">
        <ele>1191.1</ele>
        <time>2021-12-19T09:50:28Z</time>
      </trkpt>
      <trkpt lat="45.34748" lon="5.73907">
        <ele>1191.3</ele>
        <time>2021-12-19T09:50:29Z</time>
      </trkpt>
      <trkpt lat="45.34749" lon="5.73906">
        <ele>1191.5</ele>
        <time>2021-12-19T09:50:30Z</time>
      </trkpt>
      <trkpt lat="45.34749" lon="5.73905">
        <ele>1191.7</ele>
        <time>2021-12-19T09:50:31Z</time>
      </trkpt>
      <trkpt lat="45.3475" lon="5.73904">
        <ele>1191.9</ele>
        <time>2021-12-19T09:50:32Z</time>
      </trkpt>
      <trkpt lat="45.3475" lon="5.73903">
        <ele>1192.1</ele>
        <time>2021-12-19T09:50:33Z</time>
      </trkpt>
      <trkpt lat="45.34751" lon="5.73902">
        <ele>1192.3</ele>
        <time>2021-12-19T09:50:34Z</time>
      </trkpt>
      <trkpt lat="45.34752" lon="5.73901">
        <ele>1192.5</ele>
        <time>2021-12-19T09:50:35Z</time>
      </trkpt>
      <trkpt lat="45.34753" lon="5.73899">
        <ele>1192.8</ele>
        <time>2021-12-19T09:50:36Z</time>
      </trkpt>
      <trkpt lat="45.34753" lon="5.73898">
        <ele>1193</ele>
        <time>2021-12-19T09:50:37Z</time>
      </trkpt>
      <trkpt lat="45.34754" lon="5.73897">
        <ele>1193.2</ele>
        <time>2021-12-19T09:50:38Z</time>
      </trkpt>
      <trkpt lat="45.34754" lon="5.73896">
        <ele>1193.4</ele>
        <time>2021-12-19T09:50:39Z</time>
      </trkpt>
      <trkpt lat="45.34755" lon="5.73895">
        <ele>1193.6</ele>
        <time>2021-12-19T09:50:40Z</time>
      </trkpt>
      <trkpt lat="45.34756" lon="5.73894">
        <ele>1193.9</ele>
        <time>2021-12-19T09:50:41Z</time>
      </trkpt>
      <trkpt lat="45.34757" lon="5.73892">
        <ele>1194.1</ele>
        <time>2021-12-19T09:50:42Z</time>
      </trkpt>
      <trkpt lat="45.34758" lon="5.73891">
        <ele>1194.4</ele>
        <time>2021-12-19T09:50:43Z</time>
      </trkpt>
      <trkpt lat="45.34758" lon="5.7389">
        <ele>1194.6</ele>
        <time>2021-12-19T09:50:44Z</time>
      </trkpt>
      <trkpt lat="45.34759" lon="5.73889">
        <ele>1194.8</ele>
        <time>2021-12-19T09:50:45Z</time>
      </trkpt>
      <trkpt lat="45.34759" lon="5.73888">
        <ele>1195</ele>
        <time>2021-12-19T09:50:46Z</time>
      </trkpt>
      <trkpt lat="45.34759" lon="5.73886">
        <ele>1195.3</ele>
        <time>2021-12-19T09:50:47Z</time>
      </trkpt>
      <trkpt lat="45.3476" lon="5.73885">
        <ele>1195.5</ele>
        <time>2021-12-19T09:50:48Z</time>
      </trkpt>
      <trkpt lat="45.34761" lon="5.73883">
        <ele>1195.7</ele>
        <time>2021-12-19T09:50:49Z</time>
      </trkpt>
      <trkpt lat="45.34761" lon="5.73882">
        <ele>1196</ele>
        <time>2021-12-19T09:50:50Z</time>
      </trkpt>
      <trkpt lat="45.34762" lon="5.7388">
        <ele>1196.2</ele>
        <time>2021-12-19T09:50:51Z</time>
      </trkpt>
      <trkpt lat="45.34762" lon="5.73879">
        <ele>1196.4</ele>
        <time>2021-12-19T09:50:52Z</time>
      </trkpt>
      <trkpt lat="45.34763" lon="5.73878">
        <ele>1196.6</ele>
        <time>2021-12-19T09:50:53Z</time>
      </trkpt>
      <trkpt lat="45.34763" lon="5.73876">
        <ele>1196.9</ele>
        <time>2021-12-19T09:50:54Z</time>
      </trkpt>
      <trkpt lat="45.34764" lon="5.73875">
        <ele>1197.1</ele>
        <time>2021-12-19T09:50:55Z</time>
      </trkpt>
      <trkpt lat="45.34764" lon="5.73874">
        <ele>1197.2</ele>
        <time>2021-12-19T09:50:56Z</time>
      </trkpt>
      <trkpt lat="45.34764" lon="5.73873">
        <ele>1197.3</ele>
        <time>2021-12-19T09:50:57Z</time>
      </trkpt>
      <trkpt lat="45.34764" lon="5.73873">
        <ele>1197.4</ele>
        <time>2021-12-19T09:50:58Z</time>
      </trkpt>
      <trkpt lat="45.34765" lon="5.73872">
        <ele>1197.6</ele>
        <time>2021-12-19T09:50:59Z</time>
      </trkpt>
      <trkpt lat="45.34764" lon="5.73871">
        <ele>1197.8</ele>
        <time>2021-12-19T09:51:00Z</time>
      </trkpt>
      <trkpt lat="45.34765" lon="5.73869">
        <ele>1198</ele>
        <time>2021-12-19T09:51:01Z</time>
      </trkpt>
      <trkpt lat="45.34765" lon="5.73869">
        <ele>1198.1</ele>
        <time>2021-12-19T09:51:02Z</time>
      </trkpt>
      <trkpt lat="45.34765" lon="5.73867">
        <ele>1198.3</ele>
        <time>2021-12-19T09:51:03Z</time>
      </trkpt>
      <trkpt lat="45.34765" lon="5.73866">
        <ele>1198.4</ele>
        <time>2021-12-19T09:51:04Z</time>
      </trkpt>
      <trkpt lat="45.34765" lon="5.73864">
        <ele>1198.7</ele>
        <time>2021-12-19T09:51:05Z</time>
      </trkpt>
      <trkpt lat="45.34764" lon="5.73863">
        <ele>1198.9</ele>
        <time>2021-12-19T09:51:06Z</time>
      </trkpt>
      <trkpt lat="45.34765" lon="5.73862">
        <ele>1199.1</ele>
        <time>2021-12-19T09:51:07Z</time>
      </trkpt>
      <trkpt lat="45.34764" lon="5.73861">
        <ele>1199.3</ele>
        <time>2021-12-19T09:51:08Z</time>
      </trkpt>
      <trkpt lat="45.34765" lon="5.73859">
        <ele>1199.5</ele>
        <time>2021-12-19T09:51:09Z</time>
      </trkpt>
      <trkpt lat="45.34764" lon="5.73858">
        <ele>1199.7</ele>
        <time>2021-12-19T09:51:10Z</time>
      </trkpt>
      <trkpt lat="45.34765" lon="5.73856">
        <ele>1199.9</ele>
        <time>2021-12-19T09:51:11Z</time>
      </trkpt>
      <trkpt lat="45.34765" lon="5.73855">
        <ele>1200.1</ele>
        <time>2021-12-19T09:51:12Z</time>
      </trkpt>
      <trkpt lat="45.34766" lon="5.73854">
        <ele>1200.3</ele>
        <time>2021-12-19T09:51:13Z</time>
      </trkpt>
      <trkpt lat="45.34766" lon="5.73853">
        <ele>1200.5</ele>
        <time>2021-12-19T09:51:14Z</time>
      </trkpt>
      <trkpt lat="45.34766" lon="5.73852">
        <ele>1200.6</ele>
        <time>2021-12-19T09:51:15Z</time>
      </trkpt>
      <trkpt lat="45.34766" lon="5.73851">
        <ele>1200.8</ele>
        <time>2021-12-19T09:51:16Z</time>
      </trkpt>
      <trkpt lat="45.34766" lon="5.73851">
        <ele>1200.8</ele>
        <time>2021-12-19T09:51:17Z</time>
      </trkpt>
      <trkpt lat="45.34767" lon="5.7385">
        <ele>1201</ele>
        <time>2021-12-19T09:51:18Z</time>
      </trkpt>
      <trkpt lat="45.34767" lon="5.73849">
        <ele>1201</ele>
        <time>2021-12-19T09:51:19Z</time>
      </trkpt>
      <trkpt lat="45.34766" lon="5.73849">
        <ele>1201.1</ele>
        <time>2021-12-19T09:51:20Z</time>
      </trkpt>
      <trkpt lat="45.34766" lon="5.7385">
        <ele>1201.2</ele>
        <time>2021-12-19T09:51:21Z</time>
      </trkpt>
      <trkpt lat="45.34765" lon="5.7385">
        <ele>1201.3</ele>
        <time>2021-12-19T09:51:22Z</time>
      </trkpt>
      <trkpt lat="45.34765" lon="5.73849">
        <ele>1201.4</ele>
        <time>2021-12-19T09:51:23Z</time>
      </trkpt>
      <trkpt lat="45.34764" lon="5.7385">
        <ele>1201.5</ele>
        <time>2021-12-19T09:51:24Z</time>
      </trkpt>
      <trkpt lat="45.34764" lon="5.73849">
        <ele>1201.6</ele>
        <time>2021-12-19T09:51:25Z</time>
      </trkpt>
      <trkpt lat="45.34764" lon="5.73849">
        <ele>1201.6</ele>
        <time>2021-12-19T09:51:26Z</time>
      </trkpt>
      <trkpt lat="45.34764" lon="5.73849">
        <ele>1201.7</ele>
        <time>2021-12-19T09:51:27Z</time>
      </trkpt>
      <trkpt lat="45.34764" lon="5.73848">
        <ele>1201.8</ele>
        <time>2021-12-19T09:51:28Z</time>
      </trkpt>
      <trkpt lat="45.34765" lon="5.73847">
        <ele>1202</ele>
        <time>2021-12-19T09:51:29Z</time>
      </trkpt>
      <trkpt lat="45.34766" lon="5.73846">
        <ele>1202.2</ele>
        <time>2021-12-19T09:51:30Z</time>
      </trkpt>
      <trkpt lat="45.34767" lon="5.73846">
        <ele>1202.4</ele>
        <time>2021-12-19T09:51:31Z</time>
      </trkpt>
      <trkpt lat="45.34768" lon="5.73845">
        <ele>1202.6</ele>
        <time>2021-12-19T09:51:32Z</time>
      </trkpt>
      <trkpt lat="45.34769" lon="5.73844">
        <ele>1202.9</ele>
        <time>2021-12-19T09:51:33Z</time>
      </trkpt>
      <trkpt lat="45.34769" lon="5.73845">
        <ele>1203</ele>
        <time>2021-12-19T09:51:34Z</time>
      </trkpt>
      <trkpt lat="45.34769" lon="5.73845">
        <ele>1203</ele>
        <time>2021-12-19T09:51:35Z</time>
      </trkpt>
      <trkpt lat="45.3477" lon="5.73844">
        <ele>1203.1</ele>
        <time>2021-12-19T09:51:36Z</time>
      </trkpt>
      <trkpt lat="45.3477" lon="5.73844">
        <ele>1203.1</ele>
        <time>2021-12-19T09:51:37Z</time>
      </trkpt>
      <trkpt lat="45.34769" lon="5.73844">
        <ele>1203.2</ele>
        <time>2021-12-19T09:51:38Z</time>
      </trkpt>
      <trkpt lat="45.34769" lon="5.73844">
        <ele>1203.3</ele>
        <time>2021-12-19T09:51:39Z</time>
      </trkpt>
      <trkpt lat="45.3477" lon="5.73843">
        <ele>1203.5</ele>
        <time>2021-12-19T09:51:40Z</time>
      </trkpt>
      <trkpt lat="45.3477" lon="5.73842">
        <ele>1203.5</ele>
        <time>2021-12-19T09:51:41Z</time>
      </trkpt>
      <trkpt lat="45.3477" lon="5.73842">
        <ele>1203.6</ele>
        <time>2021-12-19T09:51:42Z</time>
      </trkpt>
      <trkpt lat="45.3477" lon="5.73841">
        <ele>1203.7</ele>
        <time>2021-12-19T09:51:43Z</time>
      </trkpt>
      <trkpt lat="45.34771" lon="5.7384">
        <ele>1203.8</ele>
        <time>2021-12-19T09:51:44Z</time>
      </trkpt>
      <trkpt lat="45.34771" lon="5.73839">
        <ele>1204</ele>
        <time>2021-12-19T09:51:45Z</time>
      </trkpt>
      <trkpt lat="45.3477" lon="5.7384">
        <ele>1204.2</ele>
        <time>2021-12-19T09:51:46Z</time>
      </trkpt>
      <trkpt lat="45.3477" lon="5.73839">
        <ele>1204.4</ele>
        <time>2021-12-19T09:51:47Z</time>
      </trkpt>
      <trkpt lat="45.34771" lon="5.73838">
        <ele>1204.5</ele>
        <time>2021-12-19T09:51:48Z</time>
      </trkpt>
      <trkpt lat="45.34771" lon="5.73838">
        <ele>1204.6</ele>
        <time>2021-12-19T09:51:49Z</time>
      </trkpt>
      <trkpt lat="45.34771" lon="5.73837">
        <ele>1204.7</ele>
        <time>2021-12-19T09:51:50Z</time>
      </trkpt>
      <trkpt lat="45.34771" lon="5.73837">
        <ele>1204.7</ele>
        <time>2021-12-19T09:51:51Z</time>
      </trkpt>
      <trkpt lat="45.34772" lon="5.73836">
        <ele>1204.8</ele>
        <time>2021-12-19T09:51:52Z</time>
      </trkpt>
      <trkpt lat="45.34772" lon="5.73835">
        <ele>1205</ele>
        <time>2021-12-19T09:51:53Z</time>
      </trkpt>
      <trkpt lat="45.34773" lon="5.73835">
        <ele>1205.2</ele>
        <time>2021-12-19T09:51:54Z</time>
      </trkpt>
      <trkpt lat="45.34774" lon="5.73834">
        <ele>1205.3</ele>
        <time>2021-12-19T09:51:55Z</time>
      </trkpt>
      <trkpt lat="45.34774" lon="5.73833">
        <ele>1205.4</ele>
        <time>2021-12-19T09:51:56Z</time>
      </trkpt>
      <trkpt lat="45.34775" lon="5.73832">
        <ele>1205.6</ele>
        <time>2021-12-19T09:51:57Z</time>
      </trkpt>
      <trkpt lat="45.34775" lon="5.73831">
        <ele>1205.7</ele>
        <time>2021-12-19T09:51:58Z</time>
      </trkpt>
      <trkpt lat="45.34775" lon="5.73831">
        <ele>1205.9</ele>
        <time>2021-12-19T09:51:59Z</time>
      </trkpt>
      <trkpt lat="45.34776" lon="5.7383">
        <ele>1206</ele>
        <time>2021-12-19T09:52:00Z</time>
      </trkpt>
      <trkpt lat="45.34776" lon="5.73829">
        <ele>1206.1</ele>
        <time>2021-12-19T09:52:01Z</time>
      </trkpt>
      <trkpt lat="45.34776" lon="5.73828">
        <ele>1206.2</ele>
        <time>2021-12-19T09:52:02Z</time>
      </trkpt>
      <trkpt lat="45.34777" lon="5.73828">
        <ele>1206.4</ele>
        <time>2021-12-19T09:52:03Z</time>
      </trkpt>
      <trkpt lat="45.34777" lon="5.73827">
        <ele>1206.5</ele>
        <time>2021-12-19T09:52:04Z</time>
      </trkpt>
      <trkpt lat="45.34777" lon="5.73827">
        <ele>1206.5</ele>
        <time>2021-12-19T09:52:05Z</time>
      </trkpt>
      <trkpt lat="45.34777" lon="5.73826">
        <ele>1206.6</ele>
        <time>2021-12-19T09:52:06Z</time>
      </trkpt>
      <trkpt lat="45.34778" lon="5.73825">
        <ele>1206.8</ele>
        <time>2021-12-19T09:52:07Z</time>
      </trkpt>
      <trkpt lat="45.34778" lon="5.73824">
        <ele>1206.9</ele>
        <time>2021-12-19T09:52:08Z</time>
      </trkpt>
      <trkpt lat="45.34778" lon="5.73823">
        <ele>1207</ele>
        <time>2021-12-19T09:52:09Z</time>
      </trkpt>
      <trkpt lat="45.34778" lon="5.73822">
        <ele>1207.2</ele>
        <time>2021-12-19T09:52:10Z</time>
      </trkpt>
      <trkpt lat="45.34779" lon="5.73822">
        <ele>1207.3</ele>
        <time>2021-12-19T09:52:11Z</time>
      </trkpt>
      <trkpt lat="45.3478" lon="5.73821">
        <ele>1207.5</ele>
        <time>2021-12-19T09:52:12Z</time>
      </trkpt>
      <trkpt lat="45.34781" lon="5.7382">
        <ele>1207.7</ele>
        <time>2021-12-19T09:52:13Z</time>
      </trkpt>
      <trkpt lat="45.34781" lon="5.73819">
        <ele>1207.9</ele>
        <time>2021-12-19T09:52:14Z</time>
      </trkpt>
      <trkpt lat="45.34782" lon="5.73818">
        <ele>1208.1</ele>
        <time>2021-12-19T09:52:15Z</time>
      </trkpt>
      <trkpt lat="45.34782" lon="5.73818">
        <ele>1208.2</ele>
        <time>2021-12-19T09:52:16Z</time>
      </trkpt>
      <trkpt lat="45.34783" lon="5.73818">
        <ele>1208.3</ele>
        <time>2021-12-19T09:52:17Z</time>
      </trkpt>
      <trkpt lat="45.34783" lon="5.73817">
        <ele>1208.4</ele>
        <time>2021-12-19T09:52:18Z</time>
      </trkpt>
      <trkpt lat="45.34784" lon="5.73816">
        <ele>1208.5</ele>
        <time>2021-12-19T09:52:19Z</time>
      </trkpt>
      <trkpt lat="45.34784" lon="5.73816">
        <ele>1208.6</ele>
        <time>2021-12-19T09:52:20Z</time>
      </trkpt>
      <trkpt lat="45.34784" lon="5.73815">
        <ele>1208.7</ele>
        <time>2021-12-19T09:52:21Z</time>
      </trkpt>
      <trkpt lat="45.34784" lon="5.73814">
        <ele>1208.8</ele>
        <time>2021-12-19T09:52:22Z</time>
      </trkpt>
      <trkpt lat="45.34784" lon="5.73814">
        <ele>1208.8</ele>
        <time>2021-12-19T09:52:23Z</time>
      </trkpt>
      <trkpt lat="45.34785" lon="5.73813">
        <ele>1208.9</ele>
        <time>2021-12-19T09:52:24Z</time>
      </trkpt>
      <trkpt lat="45.34785" lon="5.73813">
        <ele>1209</ele>
        <time>2021-12-19T09:52:25Z</time>
      </trkpt>
      <trkpt lat="45.34785" lon="5.73813">
        <ele>1209</ele>
        <time>2021-12-19T09:52:26Z</time>
      </trkpt>
      <trkpt lat="45.34785" lon="5.73813">
        <ele>1209.1</ele>
        <time>2021-12-19T09:52:27Z</time>
      </trkpt>
      <trkpt lat="45.34786" lon="5.73812">
        <ele>1209.2</ele>
        <time>2021-12-19T09:52:28Z</time>
      </trkpt>
      <trkpt lat="45.34786" lon="5.73812">
        <ele>1209.3</ele>
        <time>2021-12-19T09:52:29Z</time>
      </trkpt>
      <trkpt lat="45.34786" lon="5.73811">
        <ele>1209.4</ele>
        <time>2021-12-19T09:52:30Z</time>
      </trkpt>
      <trkpt lat="45.34786" lon="5.73811">
        <ele>1209.4</ele>
        <time>2021-12-19T09:52:31Z</time>
      </trkpt>
      <trkpt lat="45.34787" lon="5.73811">
        <ele>1209.5</ele>
        <time>2021-12-19T09:52:32Z</time>
      </trkpt>
      <trkpt lat="45.34787" lon="5.7381">
        <ele>1209.5</ele>
        <time>2021-12-19T09:52:33Z</time>
      </trkpt>
      <trkpt lat="45.34787" lon="5.7381">
        <ele>1209.6</ele>
        <time>2021-12-19T09:52:34Z</time>
      </trkpt>
      <trkpt lat="45.34787" lon="5.73809">
        <ele>1209.8</ele>
        <time>2021-12-19T09:52:35Z</time>
      </trkpt>
      <trkpt lat="45.34788" lon="5.73807">
        <ele>1210</ele>
        <time>2021-12-19T09:52:36Z</time>
      </trkpt>
      <trkpt lat="45.34789" lon="5.73807">
        <ele>1210.1</ele>
        <time>2021-12-19T09:52:37Z</time>
      </trkpt>
      <trkpt lat="45.3479" lon="5.73805">
        <ele>1210.4</ele>
        <time>2021-12-19T09:52:38Z</time>
      </trkpt>
      <trkpt lat="45.3479" lon="5.73805">
        <ele>1210.5</ele>
        <time>2021-12-19T09:52:39Z</time>
      </trkpt>
      <trkpt lat="45.34791" lon="5.73803">
        <ele>1210.7</ele>
        <time>2021-12-19T09:52:40Z</time>
      </trkpt>
      <trkpt lat="45.34791" lon="5.73803">
        <ele>1210.9</ele>
        <time>2021-12-19T09:52:41Z</time>
      </trkpt>
      <trkpt lat="45.34792" lon="5.73802">
        <ele>1211</ele>
        <time>2021-12-19T09:52:42Z</time>
      </trkpt>
      <trkpt lat="45.34793" lon="5.73802">
        <ele>1211.2</ele>
        <time>2021-12-19T09:52:43Z</time>
      </trkpt>
      <trkpt lat="45.34794" lon="5.73801">
        <ele>1211.4</ele>
        <time>2021-12-19T09:52:44Z</time>
      </trkpt>
      <trkpt lat="45.34794" lon="5.738">
        <ele>1211.5</ele>
        <time>2021-12-19T09:52:45Z</time>
      </trkpt>
      <trkpt lat="45.34796" lon="5.738">
        <ele>1211.7</ele>
        <time>2021-12-19T09:52:46Z</time>
      </trkpt>
      <trkpt lat="45.34797" lon="5.73799">
        <ele>1212</ele>
        <time>2021-12-19T09:52:47Z</time>
      </trkpt>
      <trkpt lat="45.34797" lon="5.73799">
        <ele>1212.1</ele>
        <time>2021-12-19T09:52:48Z</time>
      </trkpt>
      <trkpt lat="45.34798" lon="5.73798">
        <ele>1212.2</ele>
        <time>2021-12-19T09:52:49Z</time>
      </trkpt>
      <trkpt lat="45.34799" lon="5.73798">
        <ele>1212.3</ele>
        <time>2021-12-19T09:52:50Z</time>
      </trkpt>
      <trkpt lat="45.34799" lon="5.73798">
        <ele>1212.5</ele>
        <time>2021-12-19T09:52:51Z</time>
      </trkpt>
      <trkpt lat="45.348" lon="5.73797">
        <ele>1212.6</ele>
        <time>2021-12-19T09:52:52Z</time>
      </trkpt>
      <trkpt lat="45.348" lon="5.73796">
        <ele>1212.7</ele>
        <time>2021-12-19T09:52:53Z</time>
      </trkpt>
      <trkpt lat="45.348" lon="5.73795">
        <ele>1212.8</ele>
        <time>2021-12-19T09:52:54Z</time>
      </trkpt>
      <trkpt lat="45.34801" lon="5.73795">
        <ele>1213</ele>
        <time>2021-12-19T09:52:55Z</time>
      </trkpt>
      <trkpt lat="45.34802" lon="5.73794">
        <ele>1213.1</ele>
        <time>2021-12-19T09:52:56Z</time>
      </trkpt>
      <trkpt lat="45.34803" lon="5.73793">
        <ele>1213.3</ele>
        <time>2021-12-19T09:52:57Z</time>
      </trkpt>
      <trkpt lat="45.34804" lon="5.73791">
        <ele>1213.6</ele>
        <time>2021-12-19T09:52:58Z</time>
      </trkpt>
      <trkpt lat="45.34805" lon="5.73789">
        <ele>1213.9</ele>
        <time>2021-12-19T09:52:59Z</time>
      </trkpt>
      <trkpt lat="45.34806" lon="5.73788">
        <ele>1214.1</ele>
        <time>2021-12-19T09:53:00Z</time>
      </trkpt>
      <trkpt lat="45.34807" lon="5.73787">
        <ele>1214.3</ele>
        <time>2021-12-19T09:53:01Z</time>
      </trkpt>
      <trkpt lat="45.34808" lon="5.73786">
        <ele>1214.5</ele>
        <time>2021-12-19T09:53:02Z</time>
      </trkpt>
      <trkpt lat="45.34809" lon="5.73785">
        <ele>1214.8</ele>
        <time>2021-12-19T09:53:03Z</time>
      </trkpt>
      <trkpt lat="45.3481" lon="5.73784">
        <ele>1215</ele>
        <time>2021-12-19T09:53:04Z</time>
      </trkpt>
      <trkpt lat="45.34811" lon="5.73783">
        <ele>1215.1</ele>
        <time>2021-12-19T09:53:05Z</time>
      </trkpt>
      <trkpt lat="45.34812" lon="5.73782">
        <ele>1215.2</ele>
        <time>2021-12-19T09:53:06Z</time>
      </trkpt>
      <trkpt lat="45.34813" lon="5.73781">
        <ele>1215.4</ele>
        <time>2021-12-19T09:53:07Z</time>
      </trkpt>
      <trkpt lat="45.34813" lon="5.7378">
        <ele>1215.6</ele>
        <time>2021-12-19T09:53:08Z</time>
      </trkpt>
      <trkpt lat="45.34814" lon="5.7378">
        <ele>1215.7</ele>
        <time>2021-12-19T09:53:09Z</time>
      </trkpt>
      <trkpt lat="45.34814" lon="5.73779">
        <ele>1215.8</ele>
        <time>2021-12-19T09:53:10Z</time>
      </trkpt>
      <trkpt lat="45.34815" lon="5.73778">
        <ele>1215.9</ele>
        <time>2021-12-19T09:53:11Z</time>
      </trkpt>
      <trkpt lat="45.34815" lon="5.73777">
        <ele>1216.1</ele>
        <time>2021-12-19T09:53:12Z</time>
      </trkpt>
      <trkpt lat="45.34816" lon="5.73776">
        <ele>1216.2</ele>
        <time>2021-12-19T09:53:13Z</time>
      </trkpt>
      <trkpt lat="45.34816" lon="5.73776">
        <ele>1216.3</ele>
        <time>2021-12-19T09:53:14Z</time>
      </trkpt>
      <trkpt lat="45.34817" lon="5.73776">
        <ele>1216.4</ele>
        <time>2021-12-19T09:53:15Z</time>
      </trkpt>
      <trkpt lat="45.34817" lon="5.73775">
        <ele>1216.5</ele>
        <time>2021-12-19T09:53:16Z</time>
      </trkpt>
      <trkpt lat="45.34818" lon="5.73775">
        <ele>1216.6</ele>
        <time>2021-12-19T09:53:17Z</time>
      </trkpt>
      <trkpt lat="45.34818" lon="5.73774">
        <ele>1216.7</ele>
        <time>2021-12-19T09:53:18Z</time>
      </trkpt>
      <trkpt lat="45.34819" lon="5.73774">
        <ele>1216.8</ele>
        <time>2021-12-19T09:53:19Z</time>
      </trkpt>
      <trkpt lat="45.34819" lon="5.73774">
        <ele>1216.8</ele>
        <time>2021-12-19T09:53:20Z</time>
      </trkpt>
      <trkpt lat="45.3482" lon="5.73774">
        <ele>1216.9</ele>
        <time>2021-12-19T09:53:21Z</time>
      </trkpt>
      <trkpt lat="45.3482" lon="5.73774">
        <ele>1217</ele>
        <time>2021-12-19T09:53:22Z</time>
      </trkpt>
      <trkpt lat="45.34821" lon="5.73773">
        <ele>1217.1</ele>
        <time>2021-12-19T09:53:23Z</time>
      </trkpt>
      <trkpt lat="45.34821" lon="5.73773">
        <ele>1217.2</ele>
        <time>2021-12-19T09:53:24Z</time>
      </trkpt>
      <trkpt lat="45.34822" lon="5.73772">
        <ele>1217.4</ele>
        <time>2021-12-19T09:53:25Z</time>
      </trkpt>
      <trkpt lat="45.34823" lon="5.73772">
        <ele>1217.5</ele>
        <time>2021-12-19T09:53:26Z</time>
      </trkpt>
      <trkpt lat="45.34824" lon="5.73771">
        <ele>1217.6</ele>
        <time>2021-12-19T09:53:27Z</time>
      </trkpt>
      <trkpt lat="45.34824" lon="5.73771">
        <ele>1217.7</ele>
        <time>2021-12-19T09:53:28Z</time>
      </trkpt>
      <trkpt lat="45.34825" lon="5.73771">
        <ele>1217.9</ele>
        <time>2021-12-19T09:53:29Z</time>
      </trkpt>
      <trkpt lat="45.34826" lon="5.7377">
        <ele>1218</ele>
        <time>2021-12-19T09:53:30Z</time>
      </trkpt>
      <trkpt lat="45.34826" lon="5.73769">
        <ele>1218.1</ele>
        <time>2021-12-19T09:53:31Z</time>
      </trkpt>
      <trkpt lat="45.34827" lon="5.73768">
        <ele>1218.3</ele>
        <time>2021-12-19T09:53:32Z</time>
      </trkpt>
      <trkpt lat="45.34827" lon="5.73767">
        <ele>1218.4</ele>
        <time>2021-12-19T09:53:33Z</time>
      </trkpt>
      <trkpt lat="45.34828" lon="5.73766">
        <ele>1218.6</ele>
        <time>2021-12-19T09:53:34Z</time>
      </trkpt>
      <trkpt lat="45.34828" lon="5.73765">
        <ele>1218.7</ele>
        <time>2021-12-19T09:53:35Z</time>
      </trkpt>
      <trkpt lat="45.34829" lon="5.73765">
        <ele>1218.9</ele>
        <time>2021-12-19T09:53:36Z</time>
      </trkpt>
      <trkpt lat="45.3483" lon="5.73764">
        <ele>1219.1</ele>
        <time>2021-12-19T09:53:37Z</time>
      </trkpt>
      <trkpt lat="45.3483" lon="5.73763">
        <ele>1219.2</ele>
        <time>2021-12-19T09:53:38Z</time>
      </trkpt>
      <trkpt lat="45.34831" lon="5.73762">
        <ele>1219.4</ele>
        <time>2021-12-19T09:53:39Z</time>
      </trkpt>
      <trkpt lat="45.34832" lon="5.73761">
        <ele>1219.6</ele>
        <time>2021-12-19T09:53:40Z</time>
      </trkpt>
      <trkpt lat="45.34833" lon="5.7376">
        <ele>1219.8</ele>
        <time>2021-12-19T09:53:41Z</time>
      </trkpt>
      <trkpt lat="45.34835" lon="5.73759">
        <ele>1220.1</ele>
        <time>2021-12-19T09:53:42Z</time>
      </trkpt>
      <trkpt lat="45.34836" lon="5.73758">
        <ele>1220.4</ele>
        <time>2021-12-19T09:53:43Z</time>
      </trkpt>
      <trkpt lat="45.34837" lon="5.73757">
        <ele>1220.6</ele>
        <time>2021-12-19T09:53:44Z</time>
      </trkpt>
      <trkpt lat="45.34838" lon="5.73757">
        <ele>1220.7</ele>
        <time>2021-12-19T09:53:45Z</time>
      </trkpt>
      <trkpt lat="45.34839" lon="5.73756">
        <ele>1220.9</ele>
        <time>2021-12-19T09:53:46Z</time>
      </trkpt>
      <trkpt lat="45.3484" lon="5.73755">
        <ele>1221.1</ele>
        <time>2021-12-19T09:53:47Z</time>
      </trkpt>
      <trkpt lat="45.3484" lon="5.73754">
        <ele>1221.2</ele>
        <time>2021-12-19T09:53:48Z</time>
      </trkpt>
      <trkpt lat="45.3484" lon="5.73752">
        <ele>1221.4</ele>
        <time>2021-12-19T09:53:49Z</time>
      </trkpt>
      <trkpt lat="45.34841" lon="5.73752">
        <ele>1221.7</ele>
        <time>2021-12-19T09:53:50Z</time>
      </trkpt>
      <trkpt lat="45.34841" lon="5.73751">
        <ele>1221.9</ele>
        <time>2021-12-19T09:53:51Z</time>
      </trkpt>
      <trkpt lat="45.34841" lon="5.73749">
        <ele>1222</ele>
        <time>2021-12-19T09:53:52Z</time>
      </trkpt>
      <trkpt lat="45.34842" lon="5.73748">
        <ele>1222.2</ele>
        <time>2021-12-19T09:53:53Z</time>
      </trkpt>
      <trkpt lat="45.34842" lon="5.73747">
        <ele>1222.5</ele>
        <time>2021-12-19T09:53:54Z</time>
      </trkpt>
      <trkpt lat="45.34843" lon="5.73745">
        <ele>1222.6</ele>
        <time>2021-12-19T09:53:55Z</time>
      </trkpt>
      <trkpt lat="45.34843" lon="5.73744">
        <ele>1222.8</ele>
        <time>2021-12-19T09:53:56Z</time>
      </trkpt>
      <trkpt lat="45.34843" lon="5.73743">
        <ele>1223</ele>
        <time>2021-12-19T09:53:57Z</time>
      </trkpt>
      <trkpt lat="45.34843" lon="5.73741">
        <ele>1223.3</ele>
        <time>2021-12-19T09:53:58Z</time>
      </trkpt>
      <trkpt lat="45.34844" lon="5.7374">
        <ele>1223.5</ele>
        <time>2021-12-19T09:53:59Z</time>
      </trkpt>
      <trkpt lat="45.34844" lon="5.73738">
        <ele>1223.7</ele>
        <time>2021-12-19T09:54:00Z</time>
      </trkpt>
      <trkpt lat="45.34844" lon="5.73737">
        <ele>1223.9</ele>
        <time>2021-12-19T09:54:01Z</time>
      </trkpt>
      <trkpt lat="45.34845" lon="5.73735">
        <ele>1224.2</ele>
        <time>2021-12-19T09:54:02Z</time>
      </trkpt>
      <trkpt lat="45.34846" lon="5.73734">
        <ele>1224.4</ele>
        <time>2021-12-19T09:54:03Z</time>
      </trkpt>
      <trkpt lat="45.34846" lon="5.73732">
        <ele>1224.5</ele>
        <time>2021-12-19T09:54:04Z</time>
      </trkpt>
      <trkpt lat="45.34847" lon="5.73731">
        <ele>1224.8</ele>
        <time>2021-12-19T09:54:05Z</time>
      </trkpt>
      <trkpt lat="45.34848" lon="5.7373">
        <ele>1225</ele>
        <time>2021-12-19T09:54:06Z</time>
      </trkpt>
      <trkpt lat="45.34849" lon="5.73729">
        <ele>1225.2</ele>
        <time>2021-12-19T09:54:07Z</time>
      </trkpt>
      <trkpt lat="45.3485" lon="5.73728">
        <ele>1225.4</ele>
        <time>2021-12-19T09:54:08Z</time>
      </trkpt>
      <trkpt lat="45.3485" lon="5.73727">
        <ele>1225.6</ele>
        <time>2021-12-19T09:54:09Z</time>
      </trkpt>
      <trkpt lat="45.34851" lon="5.73726">
        <ele>1225.8</ele>
        <time>2021-12-19T09:54:10Z</time>
      </trkpt>
      <trkpt lat="45.34851" lon="5.73724">
        <ele>1225.9</ele>
        <time>2021-12-19T09:54:11Z</time>
      </trkpt>
      <trkpt lat="45.34852" lon="5.73723">
        <ele>1226.1</ele>
        <time>2021-12-19T09:54:12Z</time>
      </trkpt>
      <trkpt lat="45.34852" lon="5.73722">
        <ele>1226.3</ele>
        <time>2021-12-19T09:54:13Z</time>
      </trkpt>
      <trkpt lat="45.34852" lon="5.73721">
        <ele>1226.4</ele>
        <time>2021-12-19T09:54:14Z</time>
      </trkpt>
      <trkpt lat="45.34853" lon="5.7372">
        <ele>1226.6</ele>
        <time>2021-12-19T09:54:15Z</time>
      </trkpt>
      <trkpt lat="45.34853" lon="5.7372">
        <ele>1226.7</ele>
        <time>2021-12-19T09:54:16Z</time>
      </trkpt>
      <trkpt lat="45.34854" lon="5.73719">
        <ele>1226.8</ele>
        <time>2021-12-19T09:54:17Z</time>
      </trkpt>
      <trkpt lat="45.34854" lon="5.73719">
        <ele>1227</ele>
        <time>2021-12-19T09:54:18Z</time>
      </trkpt>
      <trkpt lat="45.34855" lon="5.73718">
        <ele>1227.1</ele>
        <time>2021-12-19T09:54:19Z</time>
      </trkpt>
      <trkpt lat="45.34855" lon="5.73717">
        <ele>1227.2</ele>
        <time>2021-12-19T09:54:20Z</time>
      </trkpt>
      <trkpt lat="45.34855" lon="5.73716">
        <ele>1227.4</ele>
        <time>2021-12-19T09:54:21Z</time>
      </trkpt>
      <trkpt lat="45.34856" lon="5.73715">
        <ele>1227.5</ele>
        <time>2021-12-19T09:54:22Z</time>
      </trkpt>
      <trkpt lat="45.34856" lon="5.73715">
        <ele>1227.6</ele>
        <time>2021-12-19T09:54:23Z</time>
      </trkpt>
      <trkpt lat="45.34857" lon="5.73714">
        <ele>1227.7</ele>
        <time>2021-12-19T09:54:24Z</time>
      </trkpt>
      <trkpt lat="45.34857" lon="5.73713">
        <ele>1227.9</ele>
        <time>2021-12-19T09:54:25Z</time>
      </trkpt>
      <trkpt lat="45.34857" lon="5.73712">
        <ele>1228</ele>
        <time>2021-12-19T09:54:26Z</time>
      </trkpt>
      <trkpt lat="45.34858" lon="5.73711">
        <ele>1228.3</ele>
        <time>2021-12-19T09:54:27Z</time>
      </trkpt>
      <trkpt lat="45.34858" lon="5.7371">
        <ele>1228.4</ele>
        <time>2021-12-19T09:54:28Z</time>
      </trkpt>
      <trkpt lat="45.34859" lon="5.73709">
        <ele>1228.5</ele>
        <time>2021-12-19T09:54:29Z</time>
      </trkpt>
      <trkpt lat="45.34859" lon="5.73708">
        <ele>1228.7</ele>
        <time>2021-12-19T09:54:30Z</time>
      </trkpt>
      <trkpt lat="45.3486" lon="5.73707">
        <ele>1228.9</ele>
        <time>2021-12-19T09:54:31Z</time>
      </trkpt>
      <trkpt lat="45.3486" lon="5.73706">
        <ele>1229.1</ele>
        <time>2021-12-19T09:54:32Z</time>
      </trkpt>
      <trkpt lat="45.34861" lon="5.73704">
        <ele>1229.3</ele>
        <time>2021-12-19T09:54:33Z</time>
      </trkpt>
      <trkpt lat="45.34861" lon="5.73703">
        <ele>1229.5</ele>
        <time>2021-12-19T09:54:34Z</time>
      </trkpt>
      <trkpt lat="45.34862" lon="5.73702">
        <ele>1229.7</ele>
        <time>2021-12-19T09:54:35Z</time>
      </trkpt>
      <trkpt lat="45.34863" lon="5.73701">
        <ele>1229.8</ele>
        <time>2021-12-19T09:54:36Z</time>
      </trkpt>
      <trkpt lat="45.34863" lon="5.737">
        <ele>1229.9</ele>
        <time>2021-12-19T09:54:37Z</time>
      </trkpt>
      <trkpt lat="45.34863" lon="5.737">
        <ele>1230</ele>
        <time>2021-12-19T09:54:38Z</time>
      </trkpt>
      <trkpt lat="45.34863" lon="5.73699">
        <ele>1230.1</ele>
        <time>2021-12-19T09:54:39Z</time>
      </trkpt>
      <trkpt lat="45.34864" lon="5.73699">
        <ele>1230.2</ele>
        <time>2021-12-19T09:54:40Z</time>
      </trkpt>
      <trkpt lat="45.34863" lon="5.73699">
        <ele>1230.3</ele>
        <time>2021-12-19T09:54:41Z</time>
      </trkpt>
      <trkpt lat="45.34864" lon="5.73699">
        <ele>1230.5</ele>
        <time>2021-12-19T09:54:42Z</time>
      </trkpt>
      <trkpt lat="45.34864" lon="5.73699">
        <ele>1230.5</ele>
        <time>2021-12-19T09:54:43Z</time>
      </trkpt>
      <trkpt lat="45.34863" lon="5.73699">
        <ele>1230.6</ele>
        <time>2021-12-19T09:54:44Z</time>
      </trkpt>
      <trkpt lat="45.34864" lon="5.73699">
        <ele>1230.7</ele>
        <time>2021-12-19T09:54:45Z</time>
      </trkpt>
      <trkpt lat="45.34864" lon="5.73699">
        <ele>1230.8</ele>
        <time>2021-12-19T09:54:46Z</time>
      </trkpt>
      <trkpt lat="45.34864" lon="5.73699">
        <ele>1230.8</ele>
        <time>2021-12-19T09:54:47Z</time>
      </trkpt>
      <trkpt lat="45.34864" lon="5.737">
        <ele>1230.9</ele>
        <time>2021-12-19T09:54:48Z</time>
      </trkpt>
      <trkpt lat="45.34864" lon="5.737">
        <ele>1231</ele>
        <time>2021-12-19T09:54:49Z</time>
      </trkpt>
      <trkpt lat="45.34865" lon="5.737">
        <ele>1231.1</ele>
        <time>2021-12-19T09:54:50Z</time>
      </trkpt>
      <trkpt lat="45.34864" lon="5.73701">
        <ele>1231.2</ele>
        <time>2021-12-19T09:54:51Z</time>
      </trkpt>
      <trkpt lat="45.34864" lon="5.73701">
        <ele>1231.2</ele>
        <time>2021-12-19T09:54:52Z</time>
      </trkpt>
      <trkpt lat="45.34865" lon="5.73701">
        <ele>1231.3</ele>
        <time>2021-12-19T09:54:53Z</time>
      </trkpt>
      <trkpt lat="45.34865" lon="5.73701">
        <ele>1231.3</ele>
        <time>2021-12-19T09:54:54Z</time>
      </trkpt>
      <trkpt lat="45.34865" lon="5.73701">
        <ele>1231.4</ele>
        <time>2021-12-19T09:54:55Z</time>
      </trkpt>
      <trkpt lat="45.34865" lon="5.73701">
        <ele>1231.4</ele>
        <time>2021-12-19T09:54:56Z</time>
      </trkpt>
      <trkpt lat="45.34864" lon="5.73701">
        <ele>1231.4</ele>
        <time>2021-12-19T09:54:57Z</time>
      </trkpt>
      <trkpt lat="45.34864" lon="5.73701">
        <ele>1231.5</ele>
        <time>2021-12-19T09:54:58Z</time>
      </trkpt>
      <trkpt lat="45.34864" lon="5.73701">
        <ele>1231.6</ele>
        <time>2021-12-19T09:54:59Z</time>
      </trkpt>
      <trkpt lat="45.34864" lon="5.73701">
        <ele>1231.6</ele>
        <time>2021-12-19T09:55:00Z</time>
      </trkpt>
      <trkpt lat="45.34865" lon="5.73701">
        <ele>1231.8</ele>
        <time>2021-12-19T09:55:01Z</time>
      </trkpt>
      <trkpt lat="45.34866" lon="5.73701">
        <ele>1232.1</ele>
        <time>2021-12-19T09:55:02Z</time>
      </trkpt>
      <trkpt lat="45.34866" lon="5.73701">
        <ele>1232.1</ele>
        <time>2021-12-19T09:55:03Z</time>
      </trkpt>
      <trkpt lat="45.34866" lon="5.73701">
        <ele>1232.2</ele>
        <time>2021-12-19T09:55:04Z</time>
      </trkpt>
      <trkpt lat="45.34866" lon="5.73702">
        <ele>1232.3</ele>
        <time>2021-12-19T09:55:05Z</time>
      </trkpt>
      <trkpt lat="45.34866" lon="5.73702">
        <ele>1232.3</ele>
        <time>2021-12-19T09:55:06Z</time>
      </trkpt>
      <trkpt lat="45.34866" lon="5.73701">
        <ele>1232.4</ele>
        <time>2021-12-19T09:55:07Z</time>
      </trkpt>
      <trkpt lat="45.34866" lon="5.73702">
        <ele>1232.5</ele>
        <time>2021-12-19T09:55:08Z</time>
      </trkpt>
      <trkpt lat="45.34866" lon="5.73702">
        <ele>1232.6</ele>
        <time>2021-12-19T09:55:09Z</time>
      </trkpt>
      <trkpt lat="45.34866" lon="5.73702">
        <ele>1232.6</ele>
        <time>2021-12-19T09:55:10Z</time>
      </trkpt>
      <trkpt lat="45.34866" lon="5.73702">
        <ele>1232.8</ele>
        <time>2021-12-19T09:55:11Z</time>
      </trkpt>
      <trkpt lat="45.34866" lon="5.73702">
        <ele>1232.8</ele>
        <time>2021-12-19T09:55:12Z</time>
      </trkpt>
      <trkpt lat="45.34867" lon="5.73701">
        <ele>1232.9</ele>
        <time>2021-12-19T09:55:13Z</time>
      </trkpt>
      <trkpt lat="45.34866" lon="5.73701">
        <ele>1233</ele>
        <time>2021-12-19T09:55:14Z</time>
      </trkpt>
      <trkpt lat="45.34867" lon="5.73702">
        <ele>1233.1</ele>
        <time>2021-12-19T09:55:15Z</time>
      </trkpt>
      <trkpt lat="45.34867" lon="5.73701">
        <ele>1233.2</ele>
        <time>2021-12-19T09:55:16Z</time>
      </trkpt>
      <trkpt lat="45.34867" lon="5.73701">
        <ele>1233.3</ele>
        <time>2021-12-19T09:55:17Z</time>
      </trkpt>
      <trkpt lat="45.34867" lon="5.737">
        <ele>1233.5</ele>
        <time>2021-12-19T09:55:18Z</time>
      </trkpt>
      <trkpt lat="45.34867" lon="5.737">
        <ele>1233.6</ele>
        <time>2021-12-19T09:55:19Z</time>
      </trkpt>
      <trkpt lat="45.34867" lon="5.737">
        <ele>1233.6</ele>
        <time>2021-12-19T09:55:20Z</time>
      </trkpt>
      <trkpt lat="45.34867" lon="5.737">
        <ele>1233.8</ele>
        <time>2021-12-19T09:55:21Z</time>
      </trkpt>
      <trkpt lat="45.34868" lon="5.737">
        <ele>1233.8</ele>
        <time>2021-12-19T09:55:22Z</time>
      </trkpt>
      <trkpt lat="45.34867" lon="5.737">
        <ele>1233.8</ele>
        <time>2021-12-19T09:55:23Z</time>
      </trkpt>
      <trkpt lat="45.34868" lon="5.737">
        <ele>1234</ele>
        <time>2021-12-19T09:55:24Z</time>
      </trkpt>
      <trkpt lat="45.34868" lon="5.737">
        <ele>1234</ele>
        <time>2021-12-19T09:55:25Z</time>
      </trkpt>
      <trkpt lat="45.34868" lon="5.737">
        <ele>1234.1</ele>
        <time>2021-12-19T09:55:26Z</time>
      </trkpt>
      <trkpt lat="45.34867" lon="5.73699">
        <ele>1234.4</ele>
        <time>2021-12-19T09:55:27Z</time>
      </trkpt>
      <trkpt lat="45.34866" lon="5.73698">
        <ele>1234.5</ele>
        <time>2021-12-19T09:55:28Z</time>
      </trkpt>
      <trkpt lat="45.34865" lon="5.73698">
        <ele>1234.8</ele>
        <time>2021-12-19T09:55:29Z</time>
      </trkpt>
      <trkpt lat="45.34864" lon="5.73698">
        <ele>1234.8</ele>
        <time>2021-12-19T09:55:30Z</time>
      </trkpt>
      <trkpt lat="45.34864" lon="5.73698">
        <ele>1234.9</ele>
        <time>2021-12-19T09:55:31Z</time>
      </trkpt>
      <trkpt lat="45.34864" lon="5.73698">
        <ele>1234.9</ele>
        <time>2021-12-19T09:55:32Z</time>
      </trkpt>
      <trkpt lat="45.34864" lon="5.73697">
        <ele>1235</ele>
        <time>2021-12-19T09:55:33Z</time>
      </trkpt>
      <trkpt lat="45.34864" lon="5.73697">
        <ele>1235</ele>
        <time>2021-12-19T09:55:34Z</time>
      </trkpt>
      <trkpt lat="45.34864" lon="5.73697">
        <ele>1235</ele>
        <time>2021-12-19T09:55:35Z</time>
      </trkpt>
      <trkpt lat="45.34865" lon="5.73697">
        <ele>1235.1</ele>
        <time>2021-12-19T09:55:36Z</time>
      </trkpt>
      <trkpt lat="45.34865" lon="5.73697">
        <ele>1235.2</ele>
        <time>2021-12-19T09:55:37Z</time>
      </trkpt>
      <trkpt lat="45.34865" lon="5.73697">
        <ele>1235.2</ele>
        <time>2021-12-19T09:55:38Z</time>
      </trkpt>
      <trkpt lat="45.34865" lon="5.73698">
        <ele>1235.3</ele>
        <time>2021-12-19T09:55:39Z</time>
      </trkpt>
      <trkpt lat="45.34865" lon="5.73698">
        <ele>1235.4</ele>
        <time>2021-12-19T09:55:40Z</time>
      </trkpt>
      <trkpt lat="45.34866" lon="5.73698">
        <ele>1235.5</ele>
        <time>2021-12-19T09:55:41Z</time>
      </trkpt>
      <trkpt lat="45.34866" lon="5.73698">
        <ele>1235.5</ele>
        <time>2021-12-19T09:55:42Z</time>
      </trkpt>
      <trkpt lat="45.34866" lon="5.73698">
        <ele>1235.5</ele>
        <time>2021-12-19T09:55:43Z</time>
      </trkpt>
      <trkpt lat="45.34865" lon="5.73698">
        <ele>1235.6</ele>
        <time>2021-12-19T09:55:44Z</time>
      </trkpt>
      <trkpt lat="45.34865" lon="5.73698">
        <ele>1235.7</ele>
        <time>2021-12-19T09:55:45Z</time>
      </trkpt>
      <trkpt lat="45.34865" lon="5.73698">
        <ele>1235.7</ele>
        <time>2021-12-19T09:55:46Z</time>
      </trkpt>
      <trkpt lat="45.34865" lon="5.73698">
        <ele>1235.7</ele>
        <time>2021-12-19T09:55:47Z</time>
      </trkpt>
      <trkpt lat="45.34865" lon="5.73699">
        <ele>1235.8</ele>
        <time>2021-12-19T09:55:48Z</time>
      </trkpt>
      <trkpt lat="45.34864" lon="5.73699">
        <ele>1236</ele>
        <time>2021-12-19T09:55:49Z</time>
      </trkpt>
      <trkpt lat="45.34863" lon="5.737">
        <ele>1236.2</ele>
        <time>2021-12-19T09:55:50Z</time>
      </trkpt>
      <trkpt lat="45.34861" lon="5.737">
        <ele>1236.5</ele>
        <time>2021-12-19T09:55:51Z</time>
      </trkpt>
      <trkpt lat="45.34861" lon="5.73701">
        <ele>1236.6</ele>
        <time>2021-12-19T09:55:52Z</time>
      </trkpt>
      <trkpt lat="45.34861" lon="5.73702">
        <ele>1236.8</ele>
        <time>2021-12-19T09:55:53Z</time>
      </trkpt>
      <trkpt lat="45.34861" lon="5.73703">
        <ele>1236.8</ele>
        <time>2021-12-19T09:55:54Z</time>
      </trkpt>
      <trkpt lat="45.3486" lon="5.73703">
        <ele>1236.9</ele>
        <time>2021-12-19T09:55:55Z</time>
      </trkpt>
      <trkpt lat="45.3486" lon="5.73703">
        <ele>1236.9</ele>
        <time>2021-12-19T09:55:56Z</time>
      </trkpt>
      <trkpt lat="45.34861" lon="5.73704">
        <ele>1237</ele>
        <time>2021-12-19T09:55:57Z</time>
      </trkpt>
      <trkpt lat="45.34861" lon="5.73704">
        <ele>1237.1</ele>
        <time>2021-12-19T09:55:58Z</time>
      </trkpt>
      <trkpt lat="45.34862" lon="5.73705">
        <ele>1237.3</ele>
        <time>2021-12-19T09:55:59Z</time>
      </trkpt>
      <trkpt lat="45.34862" lon="5.73705">
        <ele>1237.3</ele>
        <time>2021-12-19T09:56:00Z</time>
      </trkpt>
      <trkpt lat="45.34863" lon="5.73705">
        <ele>1237.4</ele>
        <time>2021-12-19T09:56:01Z</time>
      </trkpt>
      <trkpt lat="45.34863" lon="5.73705">
        <ele>1237.4</ele>
        <time>2021-12-19T09:56:02Z</time>
      </trkpt>
      <trkpt lat="45.34863" lon="5.73705">
        <ele>1237.4</ele>
        <time>2021-12-19T09:56:03Z</time>
      </trkpt>
      <trkpt lat="45.34863" lon="5.73705">
        <ele>1237.5</ele>
        <time>2021-12-19T09:56:04Z</time>
      </trkpt>
      <trkpt lat="45.34863" lon="5.73705">
        <ele>1237.5</ele>
        <time>2021-12-19T09:56:05Z</time>
      </trkpt>
      <trkpt lat="45.34863" lon="5.73705">
        <ele>1237.6</ele>
        <time>2021-12-19T09:56:06Z</time>
      </trkpt>
      <trkpt lat="45.34863" lon="5.73705">
        <ele>1237.6</ele>
        <time>2021-12-19T09:56:07Z</time>
      </trkpt>
      <trkpt lat="45.34863" lon="5.73705">
        <ele>1237.7</ele>
        <time>2021-12-19T09:56:08Z</time>
      </trkpt>
      <trkpt lat="45.34864" lon="5.73705">
        <ele>1237.7</ele>
        <time>2021-12-19T09:56:09Z</time>
      </trkpt>
      <trkpt lat="45.34864" lon="5.73705">
        <ele>1237.8</ele>
        <time>2021-12-19T09:56:10Z</time>
      </trkpt>
      <trkpt lat="45.34865" lon="5.73705">
        <ele>1237.9</ele>
        <time>2021-12-19T09:56:11Z</time>
      </trkpt>
      <trkpt lat="45.34866" lon="5.73705">
        <ele>1238.1</ele>
        <time>2021-12-19T09:56:12Z</time>
      </trkpt>
      <trkpt lat="45.34867" lon="5.73705">
        <ele>1238.2</ele>
        <time>2021-12-19T09:56:13Z</time>
      </trkpt>
      <trkpt lat="45.34867" lon="5.73705">
        <ele>1238.3</ele>
        <time>2021-12-19T09:56:14Z</time>
      </trkpt>
      <trkpt lat="45.34867" lon="5.73705">
        <ele>1238.3</ele>
        <time>2021-12-19T09:56:15Z</time>
      </trkpt>
      <trkpt lat="45.34867" lon="5.73705">
        <ele>1238.3</ele>
        <time>2021-12-19T09:56:16Z</time>
      </trkpt>
      <trkpt lat="45.34867" lon="5.73704">
        <ele>1238.4</ele>
        <time>2021-12-19T09:56:17Z</time>
      </trkpt>
      <trkpt lat="45.34867" lon="5.73704">
        <ele>1238.4</ele>
        <time>2021-12-19T09:56:18Z</time>
      </trkpt>
      <trkpt lat="45.34867" lon="5.73703">
        <ele>1238.5</ele>
        <time>2021-12-19T09:56:19Z</time>
      </trkpt>
      <trkpt lat="45.34868" lon="5.73703">
        <ele>1238.6</ele>
        <time>2021-12-19T09:56:20Z</time>
      </trkpt>
      <trkpt lat="45.34869" lon="5.73703">
        <ele>1238.8</ele>
        <time>2021-12-19T09:56:21Z</time>
      </trkpt>
      <trkpt lat="45.34869" lon="5.73703">
        <ele>1238.9</ele>
        <time>2021-12-19T09:56:22Z</time>
      </trkpt>
      <trkpt lat="45.3487" lon="5.73702">
        <ele>1239</ele>
        <time>2021-12-19T09:56:23Z</time>
      </trkpt>
      <trkpt lat="45.3487" lon="5.73702">
        <ele>1239</ele>
        <time>2021-12-19T09:56:24Z</time>
      </trkpt>
      <trkpt lat="45.34871" lon="5.73701">
        <ele>1239.1</ele>
        <time>2021-12-19T09:56:25Z</time>
      </trkpt>
      <trkpt lat="45.34871" lon="5.73701">
        <ele>1239.1</ele>
        <time>2021-12-19T09:56:26Z</time>
      </trkpt>
      <trkpt lat="45.34872" lon="5.73701">
        <ele>1239.3</ele>
        <time>2021-12-19T09:56:27Z</time>
      </trkpt>
      <trkpt lat="45.34872" lon="5.73701">
        <ele>1239.3</ele>
        <time>2021-12-19T09:56:28Z</time>
      </trkpt>
      <trkpt lat="45.34872" lon="5.73701">
        <ele>1239.4</ele>
        <time>2021-12-19T09:56:29Z</time>
      </trkpt>
      <trkpt lat="45.34872" lon="5.737">
        <ele>1239.4</ele>
        <time>2021-12-19T09:56:30Z</time>
      </trkpt>
      <trkpt lat="45.34872" lon="5.737">
        <ele>1239.4</ele>
        <time>2021-12-19T09:56:31Z</time>
      </trkpt>
      <trkpt lat="45.34873" lon="5.737">
        <ele>1239.5</ele>
        <time>2021-12-19T09:56:32Z</time>
      </trkpt>
      <trkpt lat="45.34872" lon="5.73699">
        <ele>1239.5</ele>
        <time>2021-12-19T09:56:33Z</time>
      </trkpt>
      <trkpt lat="45.34872" lon="5.73699">
        <ele>1239.6</ele>
        <time>2021-12-19T09:56:34Z</time>
      </trkpt>
      <trkpt lat="45.34872" lon="5.73699">
        <ele>1239.6</ele>
        <time>2021-12-19T09:56:35Z</time>
      </trkpt>
      <trkpt lat="45.34873" lon="5.73698">
        <ele>1239.7</ele>
        <time>2021-12-19T09:56:36Z</time>
      </trkpt>
      <trkpt lat="45.34873" lon="5.73698">
        <ele>1239.8</ele>
        <time>2021-12-19T09:56:37Z</time>
      </trkpt>
      <trkpt lat="45.34873" lon="5.73697">
        <ele>1239.8</ele>
        <time>2021-12-19T09:56:38Z</time>
      </trkpt>
      <trkpt lat="45.34873" lon="5.73697">
        <ele>1239.9</ele>
        <time>2021-12-19T09:56:39Z</time>
      </trkpt>
      <trkpt lat="45.34874" lon="5.73696">
        <ele>1239.9</ele>
        <time>2021-12-19T09:56:40Z</time>
      </trkpt>
      <trkpt lat="45.34874" lon="5.73695">
        <ele>1240</ele>
        <time>2021-12-19T09:56:41Z</time>
      </trkpt>
      <trkpt lat="45.34873" lon="5.73695">
        <ele>1240.1</ele>
        <time>2021-12-19T09:56:42Z</time>
      </trkpt>
      <trkpt lat="45.34874" lon="5.73694">
        <ele>1240.1</ele>
        <time>2021-12-19T09:56:43Z</time>
      </trkpt>
      <trkpt lat="45.34873" lon="5.73694">
        <ele>1240.1</ele>
        <time>2021-12-19T09:56:44Z</time>
      </trkpt>
      <trkpt lat="45.34873" lon="5.73694">
        <ele>1240.2</ele>
        <time>2021-12-19T09:56:45Z</time>
      </trkpt>
      <trkpt lat="45.34873" lon="5.73694">
        <ele>1240.2</ele>
        <time>2021-12-19T09:56:46Z</time>
      </trkpt>
      <trkpt lat="45.34873" lon="5.73694">
        <ele>1240.2</ele>
        <time>2021-12-19T09:56:47Z</time>
      </trkpt>
      <trkpt lat="45.34874" lon="5.73695">
        <ele>1240.2</ele>
        <time>2021-12-19T09:56:48Z</time>
      </trkpt>
      <trkpt lat="45.34873" lon="5.73694">
        <ele>1240.3</ele>
        <time>2021-12-19T09:56:49Z</time>
      </trkpt>
      <trkpt lat="45.34873" lon="5.73694">
        <ele>1240.3</ele>
        <time>2021-12-19T09:56:50Z</time>
      </trkpt>
      <trkpt lat="45.34874" lon="5.73695">
        <ele>1240.3</ele>
        <time>2021-12-19T09:56:51Z</time>
      </trkpt>
      <trkpt lat="45.34874" lon="5.73695">
        <ele>1240.3</ele>
        <time>2021-12-19T09:56:52Z</time>
      </trkpt>
      <trkpt lat="45.34874" lon="5.73695">
        <ele>1240.4</ele>
        <time>2021-12-19T09:56:53Z</time>
      </trkpt>
      <trkpt lat="45.34874" lon="5.73695">
        <ele>1240.4</ele>
        <time>2021-12-19T09:56:54Z</time>
      </trkpt>
      <trkpt lat="45.34874" lon="5.73695">
        <ele>1240.4</ele>
        <time>2021-12-19T09:56:55Z</time>
      </trkpt>
      <trkpt lat="45.34874" lon="5.73695">
        <ele>1240.4</ele>
        <time>2021-12-19T09:56:56Z</time>
      </trkpt>
      <trkpt lat="45.34874" lon="5.73695">
        <ele>1240.5</ele>
        <time>2021-12-19T09:56:57Z</time>
      </trkpt>
      <trkpt lat="45.34874" lon="5.73696">
        <ele>1240.5</ele>
        <time>2021-12-19T09:56:58Z</time>
      </trkpt>
      <trkpt lat="45.34873" lon="5.73696">
        <ele>1240.6</ele>
        <time>2021-12-19T09:56:59Z</time>
      </trkpt>
      <trkpt lat="45.34873" lon="5.73696">
        <ele>1240.6</ele>
        <time>2021-12-19T09:57:00Z</time>
      </trkpt>
      <trkpt lat="45.34873" lon="5.73696">
        <ele>1240.7</ele>
        <time>2021-12-19T09:57:01Z</time>
      </trkpt>
      <trkpt lat="45.34873" lon="5.73696">
        <ele>1240.7</ele>
        <time>2021-12-19T09:57:02Z</time>
      </trkpt>
      <trkpt lat="45.34873" lon="5.73696">
        <ele>1240.7</ele>
        <time>2021-12-19T09:57:03Z</time>
      </trkpt>
      <trkpt lat="45.34873" lon="5.73696">
        <ele>1240.7</ele>
        <time>2021-12-19T09:57:04Z</time>
      </trkpt>
      <trkpt lat="45.34873" lon="5.73696">
        <ele>1240.7</ele>
        <time>2021-12-19T09:57:05Z</time>
      </trkpt>
      <trkpt lat="45.34873" lon="5.73696">
        <ele>1240.8</ele>
        <time>2021-12-19T09:57:06Z</time>
      </trkpt>
      <trkpt lat="45.34873" lon="5.73696">
        <ele>1240.8</ele>
        <time>2021-12-19T09:57:07Z</time>
      </trkpt>
      <trkpt lat="45.34874" lon="5.73696">
        <ele>1240.8</ele>
        <time>2021-12-19T09:57:08Z</time>
      </trkpt>
      <trkpt lat="45.34874" lon="5.73696">
        <ele>1240.8</ele>
        <time>2021-12-19T09:57:09Z</time>
      </trkpt>
      <trkpt lat="45.34874" lon="5.73696">
        <ele>1240.9</ele>
        <time>2021-12-19T09:57:10Z</time>
      </trkpt>
      <trkpt lat="45.34875" lon="5.73696">
        <ele>1240.9</ele>
        <time>2021-12-19T09:57:11Z</time>
      </trkpt>
      <trkpt lat="45.34875" lon="5.73696">
        <ele>1241</ele>
        <time>2021-12-19T09:57:12Z</time>
      </trkpt>
      <trkpt lat="45.34876" lon="5.73696">
        <ele>1241.1</ele>
        <time>2021-12-19T09:57:13Z</time>
      </trkpt>
      <trkpt lat="45.34876" lon="5.73695">
        <ele>1241.2</ele>
        <time>2021-12-19T09:57:14Z</time>
      </trkpt>
      <trkpt lat="45.34877" lon="5.73695">
        <ele>1241.3</ele>
        <time>2021-12-19T09:57:15Z</time>
      </trkpt>
      <trkpt lat="45.34878" lon="5.73695">
        <ele>1241.3</ele>
        <time>2021-12-19T09:57:16Z</time>
      </trkpt>
      <trkpt lat="45.34878" lon="5.73693">
        <ele>1241.4</ele>
        <time>2021-12-19T09:57:17Z</time>
      </trkpt>
      <trkpt lat="45.34879" lon="5.73693">
        <ele>1241.5</ele>
        <time>2021-12-19T09:57:18Z</time>
      </trkpt>
      <trkpt lat="45.34879" lon="5.73692">
        <ele>1241.6</ele>
        <time>2021-12-19T09:57:19Z</time>
      </trkpt>
      <trkpt lat="45.34881" lon="5.73691">
        <ele>1241.8</ele>
        <time>2021-12-19T09:57:20Z</time>
      </trkpt>
      <trkpt lat="45.34882" lon="5.73691">
        <ele>1241.9</ele>
        <time>2021-12-19T09:57:21Z</time>
      </trkpt>
      <trkpt lat="45.34883" lon="5.7369">
        <ele>1242</ele>
        <time>2021-12-19T09:57:22Z</time>
      </trkpt>
      <trkpt lat="45.34883" lon="5.73689">
        <ele>1242.2</ele>
        <time>2021-12-19T09:57:23Z</time>
      </trkpt>
      <trkpt lat="45.34885" lon="5.73689">
        <ele>1242.3</ele>
        <time>2021-12-19T09:57:24Z</time>
      </trkpt>
      <trkpt lat="45.34885" lon="5.73689">
        <ele>1242.4</ele>
        <time>2021-12-19T09:57:25Z</time>
      </trkpt>
      <trkpt lat="45.34887" lon="5.73688">
        <ele>1242.6</ele>
        <time>2021-12-19T09:57:26Z</time>
      </trkpt>
      <trkpt lat="45.34888" lon="5.73687">
        <ele>1242.8</ele>
        <time>2021-12-19T09:57:27Z</time>
      </trkpt>
      <trkpt lat="45.34889" lon="5.73687">
        <ele>1243</ele>
        <time>2021-12-19T09:57:28Z</time>
      </trkpt>
      <trkpt lat="45.3489" lon="5.73686">
        <ele>1243.2</ele>
        <time>2021-12-19T09:57:29Z</time>
      </trkpt>
      <trkpt lat="45.34892" lon="5.73685">
        <ele>1243.3</ele>
        <time>2021-12-19T09:57:30Z</time>
      </trkpt>
      <trkpt lat="45.34894" lon="5.73685">
        <ele>1243.6</ele>
        <time>2021-12-19T09:57:31Z</time>
      </trkpt>
      <trkpt lat="45.34895" lon="5.73684">
        <ele>1243.8</ele>
        <time>2021-12-19T09:57:32Z</time>
      </trkpt>
      <trkpt lat="45.34896" lon="5.73684">
        <ele>1243.9</ele>
        <time>2021-12-19T09:57:33Z</time>
      </trkpt>
      <trkpt lat="45.34897" lon="5.73684">
        <ele>1244.1</ele>
        <time>2021-12-19T09:57:34Z</time>
      </trkpt>
      <trkpt lat="45.34898" lon="5.73684">
        <ele>1244.2</ele>
        <time>2021-12-19T09:57:35Z</time>
      </trkpt>
      <trkpt lat="45.34899" lon="5.73684">
        <ele>1244.3</ele>
        <time>2021-12-19T09:57:36Z</time>
      </trkpt>
      <trkpt lat="45.34899" lon="5.73684">
        <ele>1244.4</ele>
        <time>2021-12-19T09:57:37Z</time>
      </trkpt>
      <trkpt lat="45.349" lon="5.73683">
        <ele>1244.5</ele>
        <time>2021-12-19T09:57:38Z</time>
      </trkpt>
      <trkpt lat="45.349" lon="5.73682">
        <ele>1244.6</ele>
        <time>2021-12-19T09:57:39Z</time>
      </trkpt>
      <trkpt lat="45.34901" lon="5.73682">
        <ele>1244.7</ele>
        <time>2021-12-19T09:57:40Z</time>
      </trkpt>
      <trkpt lat="45.34902" lon="5.73681">
        <ele>1244.8</ele>
        <time>2021-12-19T09:57:41Z</time>
      </trkpt>
      <trkpt lat="45.34902" lon="5.73681">
        <ele>1244.9</ele>
        <time>2021-12-19T09:57:42Z</time>
      </trkpt>
      <trkpt lat="45.34903" lon="5.73681">
        <ele>1245</ele>
        <time>2021-12-19T09:57:43Z</time>
      </trkpt>
      <trkpt lat="45.34903" lon="5.7368">
        <ele>1245.1</ele>
        <time>2021-12-19T09:57:44Z</time>
      </trkpt>
      <trkpt lat="45.34904" lon="5.7368">
        <ele>1245.2</ele>
        <time>2021-12-19T09:57:45Z</time>
      </trkpt>
      <trkpt lat="45.34904" lon="5.7368">
        <ele>1245.3</ele>
        <time>2021-12-19T09:57:46Z</time>
      </trkpt>
      <trkpt lat="45.34905" lon="5.7368">
        <ele>1245.4</ele>
        <time>2021-12-19T09:57:47Z</time>
      </trkpt>
      <trkpt lat="45.34905" lon="5.7368">
        <ele>1245.5</ele>
        <time>2021-12-19T09:57:48Z</time>
      </trkpt>
      <trkpt lat="45.34906" lon="5.7368">
        <ele>1245.6</ele>
        <time>2021-12-19T09:57:49Z</time>
      </trkpt>
      <trkpt lat="45.34906" lon="5.7368">
        <ele>1245.6</ele>
        <time>2021-12-19T09:57:50Z</time>
      </trkpt>
      <trkpt lat="45.34907" lon="5.7368">
        <ele>1245.7</ele>
        <time>2021-12-19T09:57:51Z</time>
      </trkpt>
      <trkpt lat="45.34907" lon="5.7368">
        <ele>1245.8</ele>
        <time>2021-12-19T09:57:52Z</time>
      </trkpt>
      <trkpt lat="45.34908" lon="5.7368">
        <ele>1245.8</ele>
        <time>2021-12-19T09:57:53Z</time>
      </trkpt>
      <trkpt lat="45.34908" lon="5.7368">
        <ele>1246</ele>
        <time>2021-12-19T09:57:54Z</time>
      </trkpt>
      <trkpt lat="45.34909" lon="5.7368">
        <ele>1246.1</ele>
        <time>2021-12-19T09:57:55Z</time>
      </trkpt>
      <trkpt lat="45.3491" lon="5.7368">
        <ele>1246.2</ele>
        <time>2021-12-19T09:57:56Z</time>
      </trkpt>
      <trkpt lat="45.34911" lon="5.73679">
        <ele>1246.4</ele>
        <time>2021-12-19T09:57:57Z</time>
      </trkpt>
      <trkpt lat="45.34912" lon="5.73679">
        <ele>1246.7</ele>
        <time>2021-12-19T09:57:58Z</time>
      </trkpt>
      <trkpt lat="45.34913" lon="5.73679">
        <ele>1246.8</ele>
        <time>2021-12-19T09:57:59Z</time>
      </trkpt>
      <trkpt lat="45.34915" lon="5.73679">
        <ele>1247.1</ele>
        <time>2021-12-19T09:58:00Z</time>
      </trkpt>
      <trkpt lat="45.34916" lon="5.7368">
        <ele>1247.3</ele>
        <time>2021-12-19T09:58:01Z</time>
      </trkpt>
      <trkpt lat="45.34916" lon="5.7368">
        <ele>1247.4</ele>
        <time>2021-12-19T09:58:02Z</time>
      </trkpt>
      <trkpt lat="45.34917" lon="5.7368">
        <ele>1247.6</ele>
        <time>2021-12-19T09:58:03Z</time>
      </trkpt>
      <trkpt lat="45.34918" lon="5.7368">
        <ele>1247.7</ele>
        <time>2021-12-19T09:58:04Z</time>
      </trkpt>
      <trkpt lat="45.34919" lon="5.73681">
        <ele>1247.9</ele>
        <time>2021-12-19T09:58:05Z</time>
      </trkpt>
      <trkpt lat="45.34919" lon="5.73681">
        <ele>1247.9</ele>
        <time>2021-12-19T09:58:06Z</time>
      </trkpt>
      <trkpt lat="45.34919" lon="5.73681">
        <ele>1248</ele>
        <time>2021-12-19T09:58:07Z</time>
      </trkpt>
      <trkpt lat="45.3492" lon="5.73681">
        <ele>1248.1</ele>
        <time>2021-12-19T09:58:08Z</time>
      </trkpt>
      <trkpt lat="45.34921" lon="5.73681">
        <ele>1248.2</ele>
        <time>2021-12-19T09:58:09Z</time>
      </trkpt>
      <trkpt lat="45.34921" lon="5.7368">
        <ele>1248.3</ele>
        <time>2021-12-19T09:58:10Z</time>
      </trkpt>
      <trkpt lat="45.34922" lon="5.73681">
        <ele>1248.5</ele>
        <time>2021-12-19T09:58:11Z</time>
      </trkpt>
      <trkpt lat="45.34923" lon="5.73681">
        <ele>1248.6</ele>
        <time>2021-12-19T09:58:12Z</time>
      </trkpt>
      <trkpt lat="45.34924" lon="5.73681">
        <ele>1248.8</ele>
        <time>2021-12-19T09:58:13Z</time>
      </trkpt>
      <trkpt lat="45.34925" lon="5.73681">
        <ele>1248.9</ele>
        <time>2021-12-19T09:58:14Z</time>
      </trkpt>
      <trkpt lat="45.34925" lon="5.7368">
        <ele>1249</ele>
        <time>2021-12-19T09:58:15Z</time>
      </trkpt>
      <trkpt lat="45.34926" lon="5.7368">
        <ele>1249.2</ele>
        <time>2021-12-19T09:58:16Z</time>
      </trkpt>
      <trkpt lat="45.34927" lon="5.7368">
        <ele>1249.4</ele>
        <time>2021-12-19T09:58:17Z</time>
      </trkpt>
      <trkpt lat="45.34928" lon="5.73679">
        <ele>1249.6</ele>
        <time>2021-12-19T09:58:18Z</time>
      </trkpt>
      <trkpt lat="45.34929" lon="5.73679">
        <ele>1249.8</ele>
        <time>2021-12-19T09:58:19Z</time>
      </trkpt>
      <trkpt lat="45.3493" lon="5.73678">
        <ele>1249.9</ele>
        <time>2021-12-19T09:58:20Z</time>
      </trkpt>
      <trkpt lat="45.3493" lon="5.73678">
        <ele>1250</ele>
        <time>2021-12-19T09:58:21Z</time>
      </trkpt>
      <trkpt lat="45.34931" lon="5.73678">
        <ele>1250.2</ele>
        <time>2021-12-19T09:58:22Z</time>
      </trkpt>
      <trkpt lat="45.34932" lon="5.73678">
        <ele>1250.3</ele>
        <time>2021-12-19T09:58:23Z</time>
      </trkpt>
      <trkpt lat="45.34932" lon="5.73677">
        <ele>1250.4</ele>
        <time>2021-12-19T09:58:24Z</time>
      </trkpt>
      <trkpt lat="45.34933" lon="5.73677">
        <ele>1250.5</ele>
        <time>2021-12-19T09:58:25Z</time>
      </trkpt>
      <trkpt lat="45.34933" lon="5.73677">
        <ele>1250.6</ele>
        <time>2021-12-19T09:58:26Z</time>
      </trkpt>
      <trkpt lat="45.34934" lon="5.73677">
        <ele>1250.7</ele>
        <time>2021-12-19T09:58:27Z</time>
      </trkpt>
      <trkpt lat="45.34934" lon="5.73677">
        <ele>1250.8</ele>
        <time>2021-12-19T09:58:28Z</time>
      </trkpt>
      <trkpt lat="45.34935" lon="5.73677">
        <ele>1251</ele>
        <time>2021-12-19T09:58:29Z</time>
      </trkpt>
      <trkpt lat="45.34936" lon="5.73677">
        <ele>1251.1</ele>
        <time>2021-12-19T09:58:30Z</time>
      </trkpt>
      <trkpt lat="45.34936" lon="5.73678">
        <ele>1251.1</ele>
        <time>2021-12-19T09:58:31Z</time>
      </trkpt>
      <trkpt lat="45.34936" lon="5.73677">
        <ele>1251.2</ele>
        <time>2021-12-19T09:58:32Z</time>
      </trkpt>
      <trkpt lat="45.34937" lon="5.73677">
        <ele>1251.3</ele>
        <time>2021-12-19T09:58:33Z</time>
      </trkpt>
      <trkpt lat="45.34937" lon="5.73677">
        <ele>1251.4</ele>
        <time>2021-12-19T09:58:34Z</time>
      </trkpt>
      <trkpt lat="45.34938" lon="5.73677">
        <ele>1251.6</ele>
        <time>2021-12-19T09:58:35Z</time>
      </trkpt>
      <trkpt lat="45.34938" lon="5.73677">
        <ele>1251.6</ele>
        <time>2021-12-19T09:58:36Z</time>
      </trkpt>
      <trkpt lat="45.34938" lon="5.73676">
        <ele>1251.6</ele>
        <time>2021-12-19T09:58:37Z</time>
      </trkpt>
      <trkpt lat="45.34939" lon="5.73677">
        <ele>1251.7</ele>
        <time>2021-12-19T09:58:38Z</time>
      </trkpt>
      <trkpt lat="45.34939" lon="5.73676">
        <ele>1251.8</ele>
        <time>2021-12-19T09:58:39Z</time>
      </trkpt>
      <trkpt lat="45.3494" lon="5.73677">
        <ele>1252</ele>
        <time>2021-12-19T09:58:40Z</time>
      </trkpt>
      <trkpt lat="45.34941" lon="5.73676">
        <ele>1252.1</ele>
        <time>2021-12-19T09:58:41Z</time>
      </trkpt>
      <trkpt lat="45.34941" lon="5.73676">
        <ele>1252.2</ele>
        <time>2021-12-19T09:58:42Z</time>
      </trkpt>
      <trkpt lat="45.34941" lon="5.73676">
        <ele>1252.3</ele>
        <time>2021-12-19T09:58:43Z</time>
      </trkpt>
      <trkpt lat="45.34941" lon="5.73676">
        <ele>1252.3</ele>
        <time>2021-12-19T09:58:44Z</time>
      </trkpt>
      <trkpt lat="45.34941" lon="5.73675">
        <ele>1252.4</ele>
        <time>2021-12-19T09:58:45Z</time>
      </trkpt>
      <trkpt lat="45.34942" lon="5.73675">
        <ele>1252.5</ele>
        <time>2021-12-19T09:58:46Z</time>
      </trkpt>
      <trkpt lat="45.34942" lon="5.73674">
        <ele>1252.6</ele>
        <time>2021-12-19T09:58:47Z</time>
      </trkpt>
      <trkpt lat="45.34943" lon="5.73674">
        <ele>1252.7</ele>
        <time>2021-12-19T09:58:48Z</time>
      </trkpt>
      <trkpt lat="45.34943" lon="5.73673">
        <ele>1252.9</ele>
        <time>2021-12-19T09:58:49Z</time>
      </trkpt>
      <trkpt lat="45.34943" lon="5.73673">
        <ele>1252.9</ele>
        <time>2021-12-19T09:58:50Z</time>
      </trkpt>
      <trkpt lat="45.34944" lon="5.73672">
        <ele>1253.1</ele>
        <time>2021-12-19T09:58:51Z</time>
      </trkpt>
      <trkpt lat="45.34944" lon="5.73671">
        <ele>1253.3</ele>
        <time>2021-12-19T09:58:52Z</time>
      </trkpt>
      <trkpt lat="45.34944" lon="5.73671">
        <ele>1253.3</ele>
        <time>2021-12-19T09:58:53Z</time>
      </trkpt>
      <trkpt lat="45.34944" lon="5.7367">
        <ele>1253.4</ele>
        <time>2021-12-19T09:58:54Z</time>
      </trkpt>
      <trkpt lat="45.34945" lon="5.7367">
        <ele>1253.6</ele>
        <time>2021-12-19T09:58:55Z</time>
      </trkpt>
      <trkpt lat="45.34946" lon="5.73669">
        <ele>1253.8</ele>
        <time>2021-12-19T09:58:56Z</time>
      </trkpt>
      <trkpt lat="45.34947" lon="5.73669">
        <ele>1254</ele>
        <time>2021-12-19T09:58:57Z</time>
      </trkpt>
      <trkpt lat="45.34947" lon="5.73668">
        <ele>1254.1</ele>
        <time>2021-12-19T09:58:58Z</time>
      </trkpt>
      <trkpt lat="45.34948" lon="5.73668">
        <ele>1254.2</ele>
        <time>2021-12-19T09:58:59Z</time>
      </trkpt>
      <trkpt lat="45.34949" lon="5.73668">
        <ele>1254.4</ele>
        <time>2021-12-19T09:59:00Z</time>
      </trkpt>
      <trkpt lat="45.3495" lon="5.73667">
        <ele>1254.6</ele>
        <time>2021-12-19T09:59:01Z</time>
      </trkpt>
      <trkpt lat="45.3495" lon="5.73666">
        <ele>1254.7</ele>
        <time>2021-12-19T09:59:02Z</time>
      </trkpt>
      <trkpt lat="45.3495" lon="5.73665">
        <ele>1254.9</ele>
        <time>2021-12-19T09:59:03Z</time>
      </trkpt>
      <trkpt lat="45.34951" lon="5.73665">
        <ele>1255</ele>
        <time>2021-12-19T09:59:04Z</time>
      </trkpt>
      <trkpt lat="45.34951" lon="5.73665">
        <ele>1255.1</ele>
        <time>2021-12-19T09:59:05Z</time>
      </trkpt>
      <trkpt lat="45.34951" lon="5.73665">
        <ele>1255.1</ele>
        <time>2021-12-19T09:59:06Z</time>
      </trkpt>
      <trkpt lat="45.34952" lon="5.73664">
        <ele>1255.2</ele>
        <time>2021-12-19T09:59:07Z</time>
      </trkpt>
      <trkpt lat="45.34952" lon="5.73664">
        <ele>1255.4</ele>
        <time>2021-12-19T09:59:08Z</time>
      </trkpt>
      <trkpt lat="45.34953" lon="5.73663">
        <ele>1255.6</ele>
        <time>2021-12-19T09:59:09Z</time>
      </trkpt>
      <trkpt lat="45.34954" lon="5.73662">
        <ele>1255.8</ele>
        <time>2021-12-19T09:59:10Z</time>
      </trkpt>
      <trkpt lat="45.34954" lon="5.73661">
        <ele>1255.9</ele>
        <time>2021-12-19T09:59:11Z</time>
      </trkpt>
      <trkpt lat="45.34956" lon="5.7366">
        <ele>1256.2</ele>
        <time>2021-12-19T09:59:12Z</time>
      </trkpt>
      <trkpt lat="45.34957" lon="5.7366">
        <ele>1256.3</ele>
        <time>2021-12-19T09:59:13Z</time>
      </trkpt>
      <trkpt lat="45.34957" lon="5.73659">
        <ele>1256.4</ele>
        <time>2021-12-19T09:59:14Z</time>
      </trkpt>
      <trkpt lat="45.34958" lon="5.73659">
        <ele>1256.7</ele>
        <time>2021-12-19T09:59:15Z</time>
      </trkpt>
      <trkpt lat="45.34959" lon="5.73658">
        <ele>1256.8</ele>
        <time>2021-12-19T09:59:16Z</time>
      </trkpt>
      <trkpt lat="45.34959" lon="5.73658">
        <ele>1257</ele>
        <time>2021-12-19T09:59:17Z</time>
      </trkpt>
      <trkpt lat="45.3496" lon="5.73656">
        <ele>1257.2</ele>
        <time>2021-12-19T09:59:18Z</time>
      </trkpt>
      <trkpt lat="45.34961" lon="5.73656">
        <ele>1257.3</ele>
        <time>2021-12-19T09:59:19Z</time>
      </trkpt>
      <trkpt lat="45.34961" lon="5.73655">
        <ele>1257.4</ele>
        <time>2021-12-19T09:59:20Z</time>
      </trkpt>
      <trkpt lat="45.34961" lon="5.73654">
        <ele>1257.5</ele>
        <time>2021-12-19T09:59:21Z</time>
      </trkpt>
      <trkpt lat="45.34962" lon="5.73653">
        <ele>1257.7</ele>
        <time>2021-12-19T09:59:22Z</time>
      </trkpt>
      <trkpt lat="45.34963" lon="5.73652">
        <ele>1257.8</ele>
        <time>2021-12-19T09:59:23Z</time>
      </trkpt>
      <trkpt lat="45.34963" lon="5.73652">
        <ele>1257.9</ele>
        <time>2021-12-19T09:59:24Z</time>
      </trkpt>
      <trkpt lat="45.34963" lon="5.73651">
        <ele>1258.1</ele>
        <time>2021-12-19T09:59:25Z</time>
      </trkpt>
      <trkpt lat="45.34964" lon="5.7365">
        <ele>1258.2</ele>
        <time>2021-12-19T09:59:26Z</time>
      </trkpt>
      <trkpt lat="45.34965" lon="5.7365">
        <ele>1258.3</ele>
        <time>2021-12-19T09:59:27Z</time>
      </trkpt>
      <trkpt lat="45.34965" lon="5.73649">
        <ele>1258.5</ele>
        <time>2021-12-19T09:59:28Z</time>
      </trkpt>
      <trkpt lat="45.34966" lon="5.73648">
        <ele>1258.5</ele>
        <time>2021-12-19T09:59:29Z</time>
      </trkpt>
      <trkpt lat="45.34966" lon="5.73647">
        <ele>1258.7</ele>
        <time>2021-12-19T09:59:30Z</time>
      </trkpt>
      <trkpt lat="45.34967" lon="5.73647">
        <ele>1258.9</ele>
        <time>2021-12-19T09:59:31Z</time>
      </trkpt>
      <trkpt lat="45.34968" lon="5.73646">
        <ele>1259</ele>
        <time>2021-12-19T09:59:32Z</time>
      </trkpt>
      <trkpt lat="45.34968" lon="5.73645">
        <ele>1259.1</ele>
        <time>2021-12-19T09:59:33Z</time>
      </trkpt>
      <trkpt lat="45.34968" lon="5.73644">
        <ele>1259.2</ele>
        <time>2021-12-19T09:59:34Z</time>
      </trkpt>
      <trkpt lat="45.34969" lon="5.73644">
        <ele>1259.3</ele>
        <time>2021-12-19T09:59:35Z</time>
      </trkpt>
      <trkpt lat="45.34969" lon="5.73644">
        <ele>1259.4</ele>
        <time>2021-12-19T09:59:36Z</time>
      </trkpt>
      <trkpt lat="45.3497" lon="5.73644">
        <ele>1259.5</ele>
        <time>2021-12-19T09:59:37Z</time>
      </trkpt>
      <trkpt lat="45.3497" lon="5.73643">
        <ele>1259.6</ele>
        <time>2021-12-19T09:59:38Z</time>
      </trkpt>
      <trkpt lat="45.34971" lon="5.73642">
        <ele>1259.7</ele>
        <time>2021-12-19T09:59:39Z</time>
      </trkpt>
      <trkpt lat="45.34971" lon="5.73642">
        <ele>1259.8</ele>
        <time>2021-12-19T09:59:40Z</time>
      </trkpt>
      <trkpt lat="45.34972" lon="5.73641">
        <ele>1260</ele>
        <time>2021-12-19T09:59:41Z</time>
      </trkpt>
      <trkpt lat="45.34973" lon="5.73641">
        <ele>1260.1</ele>
        <time>2021-12-19T09:59:42Z</time>
      </trkpt>
      <trkpt lat="45.34973" lon="5.73641">
        <ele>1260.2</ele>
        <time>2021-12-19T09:59:43Z</time>
      </trkpt>
      <trkpt lat="45.34974" lon="5.7364">
        <ele>1260.3</ele>
        <time>2021-12-19T09:59:44Z</time>
      </trkpt>
      <trkpt lat="45.34974" lon="5.7364">
        <ele>1260.4</ele>
        <time>2021-12-19T09:59:45Z</time>
      </trkpt>
      <trkpt lat="45.34975" lon="5.7364">
        <ele>1260.6</ele>
        <time>2021-12-19T09:59:46Z</time>
      </trkpt>
      <trkpt lat="45.34976" lon="5.73639">
        <ele>1260.7</ele>
        <time>2021-12-19T09:59:47Z</time>
      </trkpt>
      <trkpt lat="45.34976" lon="5.73639">
        <ele>1260.8</ele>
        <time>2021-12-19T09:59:48Z</time>
      </trkpt>
      <trkpt lat="45.34977" lon="5.73638">
        <ele>1260.9</ele>
        <time>2021-12-19T09:59:49Z</time>
      </trkpt>
      <trkpt lat="45.34978" lon="5.73637">
        <ele>1261</ele>
        <time>2021-12-19T09:59:50Z</time>
      </trkpt>
      <trkpt lat="45.34978" lon="5.73637">
        <ele>1261.1</ele>
        <time>2021-12-19T09:59:51Z</time>
      </trkpt>
      <trkpt lat="45.34978" lon="5.73636">
        <ele>1261.3</ele>
        <time>2021-12-19T09:59:52Z</time>
      </trkpt>
      <trkpt lat="45.34978" lon="5.73635">
        <ele>1261.4</ele>
        <time>2021-12-19T09:59:53Z</time>
      </trkpt>
      <trkpt lat="45.34978" lon="5.73635">
        <ele>1261.4</ele>
        <time>2021-12-19T09:59:54Z</time>
      </trkpt>
      <trkpt lat="45.34978" lon="5.73634">
        <ele>1261.6</ele>
        <time>2021-12-19T09:59:55Z</time>
      </trkpt>
      <trkpt lat="45.34979" lon="5.73633">
        <ele>1261.7</ele>
        <time>2021-12-19T09:59:56Z</time>
      </trkpt>
      <trkpt lat="45.34979" lon="5.73632">
        <ele>1261.9</ele>
        <time>2021-12-19T09:59:57Z</time>
      </trkpt>
      <trkpt lat="45.34979" lon="5.73631">
        <ele>1262</ele>
        <time>2021-12-19T09:59:58Z</time>
      </trkpt>
      <trkpt lat="45.34979" lon="5.7363">
        <ele>1262.1</ele>
        <time>2021-12-19T09:59:59Z</time>
      </trkpt>
      <trkpt lat="45.34979" lon="5.7363">
        <ele>1262.2</ele>
        <time>2021-12-19T10:00:00Z</time>
      </trkpt>
      <trkpt lat="45.34979" lon="5.73629">
        <ele>1262.3</ele>
        <time>2021-12-19T10:00:01Z</time>
      </trkpt>
      <trkpt lat="45.34979" lon="5.73629">
        <ele>1262.4</ele>
        <time>2021-12-19T10:00:02Z</time>
      </trkpt>
      <trkpt lat="45.34979" lon="5.73628">
        <ele>1262.5</ele>
        <time>2021-12-19T10:00:03Z</time>
      </trkpt>
      <trkpt lat="45.34979" lon="5.73628">
        <ele>1262.5</ele>
        <time>2021-12-19T10:00:04Z</time>
      </trkpt>
      <trkpt lat="45.34979" lon="5.73627">
        <ele>1262.6</ele>
        <time>2021-12-19T10:00:05Z</time>
      </trkpt>
      <trkpt lat="45.3498" lon="5.73627">
        <ele>1262.8</ele>
        <time>2021-12-19T10:00:06Z</time>
      </trkpt>
      <trkpt lat="45.3498" lon="5.73626">
        <ele>1262.9</ele>
        <time>2021-12-19T10:00:07Z</time>
      </trkpt>
      <trkpt lat="45.3498" lon="5.73625">
        <ele>1263</ele>
        <time>2021-12-19T10:00:08Z</time>
      </trkpt>
      <trkpt lat="45.3498" lon="5.73624">
        <ele>1263.2</ele>
        <time>2021-12-19T10:00:09Z</time>
      </trkpt>
      <trkpt lat="45.3498" lon="5.73624">
        <ele>1263.3</ele>
        <time>2021-12-19T10:00:10Z</time>
      </trkpt>
      <trkpt lat="45.3498" lon="5.73623">
        <ele>1263.3</ele>
        <time>2021-12-19T10:00:11Z</time>
      </trkpt>
      <trkpt lat="45.3498" lon="5.73623">
        <ele>1263.5</ele>
        <time>2021-12-19T10:00:12Z</time>
      </trkpt>
      <trkpt lat="45.34981" lon="5.73622">
        <ele>1263.6</ele>
        <time>2021-12-19T10:00:13Z</time>
      </trkpt>
      <trkpt lat="45.34981" lon="5.73621">
        <ele>1263.7</ele>
        <time>2021-12-19T10:00:14Z</time>
      </trkpt>
      <trkpt lat="45.34982" lon="5.7362">
        <ele>1264</ele>
        <time>2021-12-19T10:00:15Z</time>
      </trkpt>
      <trkpt lat="45.34983" lon="5.73619">
        <ele>1264.2</ele>
        <time>2021-12-19T10:00:16Z</time>
      </trkpt>
      <trkpt lat="45.34984" lon="5.73618">
        <ele>1264.4</ele>
        <time>2021-12-19T10:00:17Z</time>
      </trkpt>
      <trkpt lat="45.34984" lon="5.73618">
        <ele>1264.6</ele>
        <time>2021-12-19T10:00:18Z</time>
      </trkpt>
      <trkpt lat="45.34985" lon="5.73617">
        <ele>1264.7</ele>
        <time>2021-12-19T10:00:19Z</time>
      </trkpt>
      <trkpt lat="45.34985" lon="5.73616">
        <ele>1264.8</ele>
        <time>2021-12-19T10:00:20Z</time>
      </trkpt>
      <trkpt lat="45.34986" lon="5.73616">
        <ele>1265</ele>
        <time>2021-12-19T10:00:21Z</time>
      </trkpt>
      <trkpt lat="45.34986" lon="5.73615">
        <ele>1265.1</ele>
        <time>2021-12-19T10:00:22Z</time>
      </trkpt>
      <trkpt lat="45.34987" lon="5.73615">
        <ele>1265.3</ele>
        <time>2021-12-19T10:00:23Z</time>
      </trkpt>
      <trkpt lat="45.34987" lon="5.73614">
        <ele>1265.4</ele>
        <time>2021-12-19T10:00:24Z</time>
      </trkpt>
      <trkpt lat="45.34988" lon="5.73613">
        <ele>1265.6</ele>
        <time>2021-12-19T10:00:25Z</time>
      </trkpt>
      <trkpt lat="45.34989" lon="5.73613">
        <ele>1265.7</ele>
        <time>2021-12-19T10:00:26Z</time>
      </trkpt>
      <trkpt lat="45.34989" lon="5.73613">
        <ele>1265.7</ele>
        <time>2021-12-19T10:00:27Z</time>
      </trkpt>
      <trkpt lat="45.34989" lon="5.73612">
        <ele>1265.8</ele>
        <time>2021-12-19T10:00:28Z</time>
      </trkpt>
      <trkpt lat="45.34989" lon="5.73612">
        <ele>1265.9</ele>
        <time>2021-12-19T10:00:29Z</time>
      </trkpt>
      <trkpt lat="45.34989" lon="5.73612">
        <ele>1265.9</ele>
        <time>2021-12-19T10:00:30Z</time>
      </trkpt>
      <trkpt lat="45.3499" lon="5.73611">
        <ele>1266</ele>
        <time>2021-12-19T10:00:31Z</time>
      </trkpt>
      <trkpt lat="45.3499" lon="5.73611">
        <ele>1266</ele>
        <time>2021-12-19T10:00:32Z</time>
      </trkpt>
      <trkpt lat="45.3499" lon="5.73611">
        <ele>1266</ele>
        <time>2021-12-19T10:00:33Z</time>
      </trkpt>
      <trkpt lat="45.3499" lon="5.73611">
        <ele>1266.1</ele>
        <time>2021-12-19T10:00:34Z</time>
      </trkpt>
      <trkpt lat="45.34989" lon="5.7361">
        <ele>1266.2</ele>
        <time>2021-12-19T10:00:35Z</time>
      </trkpt>
      <trkpt lat="45.34989" lon="5.73609">
        <ele>1266.3</ele>
        <time>2021-12-19T10:00:36Z</time>
      </trkpt>
      <trkpt lat="45.3499" lon="5.73609">
        <ele>1266.4</ele>
        <time>2021-12-19T10:00:37Z</time>
      </trkpt>
      <trkpt lat="45.3499" lon="5.73608">
        <ele>1266.5</ele>
        <time>2021-12-19T10:00:38Z</time>
      </trkpt>
      <trkpt lat="45.3499" lon="5.73608">
        <ele>1266.6</ele>
        <time>2021-12-19T10:00:39Z</time>
      </trkpt>
      <trkpt lat="45.3499" lon="5.73607">
        <ele>1266.7</ele>
        <time>2021-12-19T10:00:40Z</time>
      </trkpt>
      <trkpt lat="45.34991" lon="5.73606">
        <ele>1266.8</ele>
        <time>2021-12-19T10:00:41Z</time>
      </trkpt>
      <trkpt lat="45.34991" lon="5.73606">
        <ele>1266.8</ele>
        <time>2021-12-19T10:00:42Z</time>
      </trkpt>
      <trkpt lat="45.3499" lon="5.73605">
        <ele>1266.9</ele>
        <time>2021-12-19T10:00:43Z</time>
      </trkpt>
      <trkpt lat="45.3499" lon="5.73605">
        <ele>1267</ele>
        <time>2021-12-19T10:00:44Z</time>
      </trkpt>
      <trkpt lat="45.34991" lon="5.73604">
        <ele>1267.1</ele>
        <time>2021-12-19T10:00:45Z</time>
      </trkpt>
      <trkpt lat="45.34991" lon="5.73603">
        <ele>1267.2</ele>
        <time>2021-12-19T10:00:46Z</time>
      </trkpt>
      <trkpt lat="45.34992" lon="5.73602">
        <ele>1267.4</ele>
        <time>2021-12-19T10:00:47Z</time>
      </trkpt>
      <trkpt lat="45.34992" lon="5.736">
        <ele>1267.5</ele>
        <time>2021-12-19T10:00:48Z</time>
      </trkpt>
      <trkpt lat="45.34991" lon="5.73599">
        <ele>1267.7</ele>
        <time>2021-12-19T10:00:49Z</time>
      </trkpt>
      <trkpt lat="45.3499" lon="5.73599">
        <ele>1267.8</ele>
        <time>2021-12-19T10:00:50Z</time>
      </trkpt>
      <trkpt lat="45.3499" lon="5.73598">
        <ele>1267.9</ele>
        <time>2021-12-19T10:00:51Z</time>
      </trkpt>
      <trkpt lat="45.34989" lon="5.73596">
        <ele>1268.1</ele>
        <time>2021-12-19T10:00:52Z</time>
      </trkpt>
      <trkpt lat="45.34989" lon="5.73595">
        <ele>1268.2</ele>
        <time>2021-12-19T10:00:53Z</time>
      </trkpt>
      <trkpt lat="45.34989" lon="5.73594">
        <ele>1268.3</ele>
        <time>2021-12-19T10:00:54Z</time>
      </trkpt>
      <trkpt lat="45.34988" lon="5.73594">
        <ele>1268.4</ele>
        <time>2021-12-19T10:00:55Z</time>
      </trkpt>
      <trkpt lat="45.34988" lon="5.73593">
        <ele>1268.5</ele>
        <time>2021-12-19T10:00:56Z</time>
      </trkpt>
      <trkpt lat="45.34988" lon="5.73592">
        <ele>1268.6</ele>
        <time>2021-12-19T10:00:57Z</time>
      </trkpt>
      <trkpt lat="45.34988" lon="5.7359">
        <ele>1268.7</ele>
        <time>2021-12-19T10:00:58Z</time>
      </trkpt>
      <trkpt lat="45.34989" lon="5.73589">
        <ele>1268.9</ele>
        <time>2021-12-19T10:00:59Z</time>
      </trkpt>
      <trkpt lat="45.34989" lon="5.73588">
        <ele>1269</ele>
        <time>2021-12-19T10:01:00Z</time>
      </trkpt>
      <trkpt lat="45.34989" lon="5.73586">
        <ele>1269.1</ele>
        <time>2021-12-19T10:01:01Z</time>
      </trkpt>
      <trkpt lat="45.34989" lon="5.73585">
        <ele>1269.3</ele>
        <time>2021-12-19T10:01:02Z</time>
      </trkpt>
      <trkpt lat="45.34989" lon="5.73584">
        <ele>1269.4</ele>
        <time>2021-12-19T10:01:03Z</time>
      </trkpt>
      <trkpt lat="45.34989" lon="5.73583">
        <ele>1269.5</ele>
        <time>2021-12-19T10:01:04Z</time>
      </trkpt>
      <trkpt lat="45.3499" lon="5.73582">
        <ele>1269.6</ele>
        <time>2021-12-19T10:01:05Z</time>
      </trkpt>
      <trkpt lat="45.3499" lon="5.73581">
        <ele>1269.7</ele>
        <time>2021-12-19T10:01:06Z</time>
      </trkpt>
      <trkpt lat="45.3499" lon="5.7358">
        <ele>1269.9</ele>
        <time>2021-12-19T10:01:07Z</time>
      </trkpt>
      <trkpt lat="45.3499" lon="5.73579">
        <ele>1270</ele>
        <time>2021-12-19T10:01:08Z</time>
      </trkpt>
      <trkpt lat="45.34991" lon="5.73578">
        <ele>1270.1</ele>
        <time>2021-12-19T10:01:09Z</time>
      </trkpt>
      <trkpt lat="45.3499" lon="5.73577">
        <ele>1270.2</ele>
        <time>2021-12-19T10:01:10Z</time>
      </trkpt>
      <trkpt lat="45.3499" lon="5.73577">
        <ele>1270.2</ele>
        <time>2021-12-19T10:01:11Z</time>
      </trkpt>
      <trkpt lat="45.34991" lon="5.73576">
        <ele>1270.4</ele>
        <time>2021-12-19T10:01:12Z</time>
      </trkpt>
      <trkpt lat="45.34991" lon="5.73575">
        <ele>1270.5</ele>
        <time>2021-12-19T10:01:13Z</time>
      </trkpt>
      <trkpt lat="45.34991" lon="5.73574">
        <ele>1270.5</ele>
        <time>2021-12-19T10:01:14Z</time>
      </trkpt>
      <trkpt lat="45.34991" lon="5.73574">
        <ele>1270.6</ele>
        <time>2021-12-19T10:01:15Z</time>
      </trkpt>
      <trkpt lat="45.34991" lon="5.73573">
        <ele>1270.7</ele>
        <time>2021-12-19T10:01:16Z</time>
      </trkpt>
      <trkpt lat="45.34991" lon="5.73573">
        <ele>1270.7</ele>
        <time>2021-12-19T10:01:17Z</time>
      </trkpt>
      <trkpt lat="45.34991" lon="5.73572">
        <ele>1270.8</ele>
        <time>2021-12-19T10:01:18Z</time>
      </trkpt>
      <trkpt lat="45.34991" lon="5.73572">
        <ele>1270.9</ele>
        <time>2021-12-19T10:01:19Z</time>
      </trkpt>
      <trkpt lat="45.34991" lon="5.73571">
        <ele>1270.9</ele>
        <time>2021-12-19T10:01:20Z</time>
      </trkpt>
      <trkpt lat="45.34991" lon="5.7357">
        <ele>1271.1</ele>
        <time>2021-12-19T10:01:21Z</time>
      </trkpt>
      <trkpt lat="45.34992" lon="5.73569">
        <ele>1271.3</ele>
        <time>2021-12-19T10:01:22Z</time>
      </trkpt>
      <trkpt lat="45.34992" lon="5.73568">
        <ele>1271.4</ele>
        <time>2021-12-19T10:01:23Z</time>
      </trkpt>
      <trkpt lat="45.34993" lon="5.73568">
        <ele>1271.5</ele>
        <time>2021-12-19T10:01:24Z</time>
      </trkpt>
      <trkpt lat="45.34993" lon="5.73567">
        <ele>1271.7</ele>
        <time>2021-12-19T10:01:25Z</time>
      </trkpt>
      <trkpt lat="45.34993" lon="5.73565">
        <ele>1271.8</ele>
        <time>2021-12-19T10:01:26Z</time>
      </trkpt>
      <trkpt lat="45.34994" lon="5.73564">
        <ele>1272</ele>
        <time>2021-12-19T10:01:27Z</time>
      </trkpt>
      <trkpt lat="45.34994" lon="5.73563">
        <ele>1272.2</ele>
        <time>2021-12-19T10:01:28Z</time>
      </trkpt>
      <trkpt lat="45.34995" lon="5.73563">
        <ele>1272.3</ele>
        <time>2021-12-19T10:01:29Z</time>
      </trkpt>
      <trkpt lat="45.34996" lon="5.73562">
        <ele>1272.6</ele>
        <time>2021-12-19T10:01:30Z</time>
      </trkpt>
      <trkpt lat="45.34997" lon="5.73561">
        <ele>1272.8</ele>
        <time>2021-12-19T10:01:31Z</time>
      </trkpt>
      <trkpt lat="45.34998" lon="5.7356">
        <ele>1273</ele>
        <time>2021-12-19T10:01:32Z</time>
      </trkpt>
      <trkpt lat="45.34999" lon="5.73559">
        <ele>1273.3</ele>
        <time>2021-12-19T10:01:33Z</time>
      </trkpt>
      <trkpt lat="45.35" lon="5.73558">
        <ele>1273.5</ele>
        <time>2021-12-19T10:01:34Z</time>
      </trkpt>
      <trkpt lat="45.35001" lon="5.73557">
        <ele>1273.7</ele>
        <time>2021-12-19T10:01:35Z</time>
      </trkpt>
      <trkpt lat="45.35001" lon="5.73556">
        <ele>1273.9</ele>
        <time>2021-12-19T10:01:36Z</time>
      </trkpt>
      <trkpt lat="45.35002" lon="5.73556">
        <ele>1274.1</ele>
        <time>2021-12-19T10:01:37Z</time>
      </trkpt>
      <trkpt lat="45.35003" lon="5.73555">
        <ele>1274.3</ele>
        <time>2021-12-19T10:01:38Z</time>
      </trkpt>
      <trkpt lat="45.35003" lon="5.73554">
        <ele>1274.4</ele>
        <time>2021-12-19T10:01:39Z</time>
      </trkpt>
      <trkpt lat="45.35003" lon="5.73553">
        <ele>1274.6</ele>
        <time>2021-12-19T10:01:40Z</time>
      </trkpt>
      <trkpt lat="45.35004" lon="5.73552">
        <ele>1274.7</ele>
        <time>2021-12-19T10:01:41Z</time>
      </trkpt>
      <trkpt lat="45.35004" lon="5.73552">
        <ele>1274.8</ele>
        <time>2021-12-19T10:01:42Z</time>
      </trkpt>
      <trkpt lat="45.35004" lon="5.73551">
        <ele>1275</ele>
        <time>2021-12-19T10:01:43Z</time>
      </trkpt>
      <trkpt lat="45.35004" lon="5.7355">
        <ele>1275.1</ele>
        <time>2021-12-19T10:01:44Z</time>
      </trkpt>
      <trkpt lat="45.35005" lon="5.7355">
        <ele>1275.3</ele>
        <time>2021-12-19T10:01:45Z</time>
      </trkpt>
      <trkpt lat="45.35005" lon="5.73549">
        <ele>1275.4</ele>
        <time>2021-12-19T10:01:46Z</time>
      </trkpt>
      <trkpt lat="45.35005" lon="5.73549">
        <ele>1275.5</ele>
        <time>2021-12-19T10:01:47Z</time>
      </trkpt>
      <trkpt lat="45.35005" lon="5.73548">
        <ele>1275.6</ele>
        <time>2021-12-19T10:01:48Z</time>
      </trkpt>
      <trkpt lat="45.35004" lon="5.73547">
        <ele>1275.9</ele>
        <time>2021-12-19T10:01:49Z</time>
      </trkpt>
      <trkpt lat="45.35004" lon="5.73546">
        <ele>1276.1</ele>
        <time>2021-12-19T10:01:50Z</time>
      </trkpt>
      <trkpt lat="45.35003" lon="5.73545">
        <ele>1276.3</ele>
        <time>2021-12-19T10:01:51Z</time>
      </trkpt>
      <trkpt lat="45.35003" lon="5.73544">
        <ele>1276.4</ele>
        <time>2021-12-19T10:01:52Z</time>
      </trkpt>
      <trkpt lat="45.35003" lon="5.73543">
        <ele>1276.6</ele>
        <time>2021-12-19T10:01:53Z</time>
      </trkpt>
      <trkpt lat="45.35003" lon="5.73543">
        <ele>1276.7</ele>
        <time>2021-12-19T10:01:54Z</time>
      </trkpt>
      <trkpt lat="45.35002" lon="5.73542">
        <ele>1276.9</ele>
        <time>2021-12-19T10:01:55Z</time>
      </trkpt>
      <trkpt lat="45.35003" lon="5.73542">
        <ele>1277</ele>
        <time>2021-12-19T10:01:56Z</time>
      </trkpt>
      <trkpt lat="45.35003" lon="5.73541">
        <ele>1277.1</ele>
        <time>2021-12-19T10:01:57Z</time>
      </trkpt>
      <trkpt lat="45.35002" lon="5.7354">
        <ele>1277.3</ele>
        <time>2021-12-19T10:01:58Z</time>
      </trkpt>
      <trkpt lat="45.35002" lon="5.73539">
        <ele>1277.4</ele>
        <time>2021-12-19T10:01:59Z</time>
      </trkpt>
      <trkpt lat="45.35003" lon="5.73538">
        <ele>1277.6</ele>
        <time>2021-12-19T10:02:00Z</time>
      </trkpt>
      <trkpt lat="45.35002" lon="5.73537">
        <ele>1277.8</ele>
        <time>2021-12-19T10:02:01Z</time>
      </trkpt>
      <trkpt lat="45.35002" lon="5.73537">
        <ele>1277.9</ele>
        <time>2021-12-19T10:02:02Z</time>
      </trkpt>
      <trkpt lat="45.35002" lon="5.73536">
        <ele>1278.1</ele>
        <time>2021-12-19T10:02:03Z</time>
      </trkpt>
      <trkpt lat="45.35002" lon="5.73535">
        <ele>1278.2</ele>
        <time>2021-12-19T10:02:04Z</time>
      </trkpt>
      <trkpt lat="45.35001" lon="5.73534">
        <ele>1278.4</ele>
        <time>2021-12-19T10:02:05Z</time>
      </trkpt>
      <trkpt lat="45.35" lon="5.73533">
        <ele>1278.7</ele>
        <time>2021-12-19T10:02:06Z</time>
      </trkpt>
      <trkpt lat="45.35" lon="5.73532">
        <ele>1278.9</ele>
        <time>2021-12-19T10:02:07Z</time>
      </trkpt>
      <trkpt lat="45.35" lon="5.73531">
        <ele>1279</ele>
        <time>2021-12-19T10:02:08Z</time>
      </trkpt>
      <trkpt lat="45.34999" lon="5.73529">
        <ele>1279.3</ele>
        <time>2021-12-19T10:02:09Z</time>
      </trkpt>
      <trkpt lat="45.34999" lon="5.73529">
        <ele>1279.4</ele>
        <time>2021-12-19T10:02:10Z</time>
      </trkpt>
      <trkpt lat="45.34999" lon="5.73528">
        <ele>1279.6</ele>
        <time>2021-12-19T10:02:11Z</time>
      </trkpt>
      <trkpt lat="45.34999" lon="5.73527">
        <ele>1279.8</ele>
        <time>2021-12-19T10:02:12Z</time>
      </trkpt>
      <trkpt lat="45.34998" lon="5.73526">
        <ele>1279.9</ele>
        <time>2021-12-19T10:02:13Z</time>
      </trkpt>
      <trkpt lat="45.34998" lon="5.73525">
        <ele>1280.1</ele>
        <time>2021-12-19T10:02:14Z</time>
      </trkpt>
      <trkpt lat="45.34998" lon="5.73524">
        <ele>1280.3</ele>
        <time>2021-12-19T10:02:15Z</time>
      </trkpt>
      <trkpt lat="45.34998" lon="5.73523">
        <ele>1280.5</ele>
        <time>2021-12-19T10:02:16Z</time>
      </trkpt>
      <trkpt lat="45.34997" lon="5.73522">
        <ele>1280.6</ele>
        <time>2021-12-19T10:02:17Z</time>
      </trkpt>
      <trkpt lat="45.34998" lon="5.73521">
        <ele>1280.8</ele>
        <time>2021-12-19T10:02:18Z</time>
      </trkpt>
      <trkpt lat="45.34998" lon="5.7352">
        <ele>1281</ele>
        <time>2021-12-19T10:02:19Z</time>
      </trkpt>
      <trkpt lat="45.34998" lon="5.73519">
        <ele>1281.1</ele>
        <time>2021-12-19T10:02:20Z</time>
      </trkpt>
      <trkpt lat="45.34999" lon="5.73518">
        <ele>1281.4</ele>
        <time>2021-12-19T10:02:21Z</time>
      </trkpt>
      <trkpt lat="45.35" lon="5.73517">
        <ele>1281.6</ele>
        <time>2021-12-19T10:02:22Z</time>
      </trkpt>
      <trkpt lat="45.35" lon="5.73516">
        <ele>1281.9</ele>
        <time>2021-12-19T10:02:23Z</time>
      </trkpt>
      <trkpt lat="45.35001" lon="5.73515">
        <ele>1282.1</ele>
        <time>2021-12-19T10:02:24Z</time>
      </trkpt>
      <trkpt lat="45.35002" lon="5.73514">
        <ele>1282.3</ele>
        <time>2021-12-19T10:02:25Z</time>
      </trkpt>
      <trkpt lat="45.35002" lon="5.73513">
        <ele>1282.4</ele>
        <time>2021-12-19T10:02:26Z</time>
      </trkpt>
      <trkpt lat="45.35003" lon="5.73513">
        <ele>1282.6</ele>
        <time>2021-12-19T10:02:27Z</time>
      </trkpt>
      <trkpt lat="45.35003" lon="5.73512">
        <ele>1282.8</ele>
        <time>2021-12-19T10:02:28Z</time>
      </trkpt>
      <trkpt lat="45.35004" lon="5.73511">
        <ele>1282.9</ele>
        <time>2021-12-19T10:02:29Z</time>
      </trkpt>
      <trkpt lat="45.35004" lon="5.73511">
        <ele>1283</ele>
        <time>2021-12-19T10:02:30Z</time>
      </trkpt>
      <trkpt lat="45.35005" lon="5.73511">
        <ele>1283.3</ele>
        <time>2021-12-19T10:02:31Z</time>
      </trkpt>
      <trkpt lat="45.35006" lon="5.7351">
        <ele>1283.4</ele>
        <time>2021-12-19T10:02:32Z</time>
      </trkpt>
      <trkpt lat="45.35006" lon="5.7351">
        <ele>1283.5</ele>
        <time>2021-12-19T10:02:33Z</time>
      </trkpt>
      <trkpt lat="45.35007" lon="5.73509">
        <ele>1283.7</ele>
        <time>2021-12-19T10:02:34Z</time>
      </trkpt>
      <trkpt lat="45.35007" lon="5.73508">
        <ele>1283.8</ele>
        <time>2021-12-19T10:02:35Z</time>
      </trkpt>
      <trkpt lat="45.35007" lon="5.73507">
        <ele>1284</ele>
        <time>2021-12-19T10:02:36Z</time>
      </trkpt>
      <trkpt lat="45.35008" lon="5.73506">
        <ele>1284.2</ele>
        <time>2021-12-19T10:02:37Z</time>
      </trkpt>
      <trkpt lat="45.35009" lon="5.73505">
        <ele>1284.4</ele>
        <time>2021-12-19T10:02:38Z</time>
      </trkpt>
      <trkpt lat="45.3501" lon="5.73504">
        <ele>1284.6</ele>
        <time>2021-12-19T10:02:39Z</time>
      </trkpt>
      <trkpt lat="45.3501" lon="5.73503">
        <ele>1284.8</ele>
        <time>2021-12-19T10:02:40Z</time>
      </trkpt>
      <trkpt lat="45.35011" lon="5.73502">
        <ele>1285</ele>
        <time>2021-12-19T10:02:41Z</time>
      </trkpt>
      <trkpt lat="45.35011" lon="5.73501">
        <ele>1285.2</ele>
        <time>2021-12-19T10:02:42Z</time>
      </trkpt>
      <trkpt lat="45.35012" lon="5.73501">
        <ele>1285.4</ele>
        <time>2021-12-19T10:02:43Z</time>
      </trkpt>
      <trkpt lat="45.35013" lon="5.735">
        <ele>1285.6</ele>
        <time>2021-12-19T10:02:44Z</time>
      </trkpt>
      <trkpt lat="45.35014" lon="5.73499">
        <ele>1285.8</ele>
        <time>2021-12-19T10:02:45Z</time>
      </trkpt>
      <trkpt lat="45.35015" lon="5.73499">
        <ele>1286</ele>
        <time>2021-12-19T10:02:46Z</time>
      </trkpt>
      <trkpt lat="45.35016" lon="5.73498">
        <ele>1286.2</ele>
        <time>2021-12-19T10:02:47Z</time>
      </trkpt>
      <trkpt lat="45.35017" lon="5.73497">
        <ele>1286.4</ele>
        <time>2021-12-19T10:02:48Z</time>
      </trkpt>
      <trkpt lat="45.35017" lon="5.73496">
        <ele>1286.5</ele>
        <time>2021-12-19T10:02:49Z</time>
      </trkpt>
      <trkpt lat="45.35017" lon="5.73496">
        <ele>1286.6</ele>
        <time>2021-12-19T10:02:50Z</time>
      </trkpt>
      <trkpt lat="45.35018" lon="5.73495">
        <ele>1286.7</ele>
        <time>2021-12-19T10:02:51Z</time>
      </trkpt>
      <trkpt lat="45.35018" lon="5.73494">
        <ele>1286.8</ele>
        <time>2021-12-19T10:02:52Z</time>
      </trkpt>
      <trkpt lat="45.35018" lon="5.73493">
        <ele>1286.9</ele>
        <time>2021-12-19T10:02:53Z</time>
      </trkpt>
      <trkpt lat="45.35018" lon="5.73492">
        <ele>1287</ele>
        <time>2021-12-19T10:02:54Z</time>
      </trkpt>
      <trkpt lat="45.35018" lon="5.73492">
        <ele>1287.1</ele>
        <time>2021-12-19T10:02:55Z</time>
      </trkpt>
      <trkpt lat="45.35018" lon="5.73491">
        <ele>1287.2</ele>
        <time>2021-12-19T10:02:56Z</time>
      </trkpt>
      <trkpt lat="45.35018" lon="5.7349">
        <ele>1287.2</ele>
        <time>2021-12-19T10:02:57Z</time>
      </trkpt>
      <trkpt lat="45.35018" lon="5.7349">
        <ele>1287.3</ele>
        <time>2021-12-19T10:02:58Z</time>
      </trkpt>
      <trkpt lat="45.35018" lon="5.73489">
        <ele>1287.4</ele>
        <time>2021-12-19T10:02:59Z</time>
      </trkpt>
      <trkpt lat="45.35018" lon="5.73488">
        <ele>1287.5</ele>
        <time>2021-12-19T10:03:00Z</time>
      </trkpt>
      <trkpt lat="45.35018" lon="5.73487">
        <ele>1287.5</ele>
        <time>2021-12-19T10:03:01Z</time>
      </trkpt>
      <trkpt lat="45.35018" lon="5.73487">
        <ele>1287.6</ele>
        <time>2021-12-19T10:03:02Z</time>
      </trkpt>
      <trkpt lat="45.35019" lon="5.73486">
        <ele>1287.8</ele>
        <time>2021-12-19T10:03:03Z</time>
      </trkpt>
      <trkpt lat="45.3502" lon="5.73485">
        <ele>1287.9</ele>
        <time>2021-12-19T10:03:04Z</time>
      </trkpt>
      <trkpt lat="45.35021" lon="5.73484">
        <ele>1288.1</ele>
        <time>2021-12-19T10:03:05Z</time>
      </trkpt>
      <trkpt lat="45.35022" lon="5.73484">
        <ele>1288.2</ele>
        <time>2021-12-19T10:03:06Z</time>
      </trkpt>
      <trkpt lat="45.35022" lon="5.73483">
        <ele>1288.3</ele>
        <time>2021-12-19T10:03:07Z</time>
      </trkpt>
      <trkpt lat="45.35023" lon="5.73483">
        <ele>1288.5</ele>
        <time>2021-12-19T10:03:08Z</time>
      </trkpt>
      <trkpt lat="45.35024" lon="5.73482">
        <ele>1288.6</ele>
        <time>2021-12-19T10:03:09Z</time>
      </trkpt>
      <trkpt lat="45.35025" lon="5.73481">
        <ele>1288.7</ele>
        <time>2021-12-19T10:03:10Z</time>
      </trkpt>
      <trkpt lat="45.35025" lon="5.73481">
        <ele>1288.8</ele>
        <time>2021-12-19T10:03:11Z</time>
      </trkpt>
      <trkpt lat="45.35026" lon="5.7348">
        <ele>1289</ele>
        <time>2021-12-19T10:03:12Z</time>
      </trkpt>
      <trkpt lat="45.35027" lon="5.7348">
        <ele>1289.1</ele>
        <time>2021-12-19T10:03:13Z</time>
      </trkpt>
      <trkpt lat="45.35027" lon="5.73479">
        <ele>1289.2</ele>
        <time>2021-12-19T10:03:14Z</time>
      </trkpt>
      <trkpt lat="45.35028" lon="5.73479">
        <ele>1289.2</ele>
        <time>2021-12-19T10:03:15Z</time>
      </trkpt>
      <trkpt lat="45.35028" lon="5.73478">
        <ele>1289.4</ele>
        <time>2021-12-19T10:03:16Z</time>
      </trkpt>
      <trkpt lat="45.35029" lon="5.73477">
        <ele>1289.5</ele>
        <time>2021-12-19T10:03:17Z</time>
      </trkpt>
      <trkpt lat="45.35029" lon="5.73477">
        <ele>1289.6</ele>
        <time>2021-12-19T10:03:18Z</time>
      </trkpt>
      <trkpt lat="45.3503" lon="5.73477">
        <ele>1289.6</ele>
        <time>2021-12-19T10:03:19Z</time>
      </trkpt>
      <trkpt lat="45.3503" lon="5.73476">
        <ele>1289.7</ele>
        <time>2021-12-19T10:03:20Z</time>
      </trkpt>
      <trkpt lat="45.3503" lon="5.73476">
        <ele>1289.8</ele>
        <time>2021-12-19T10:03:21Z</time>
      </trkpt>
      <trkpt lat="45.35031" lon="5.73474">
        <ele>1289.9</ele>
        <time>2021-12-19T10:03:22Z</time>
      </trkpt>
      <trkpt lat="45.35032" lon="5.73474">
        <ele>1290.1</ele>
        <time>2021-12-19T10:03:23Z</time>
      </trkpt>
      <trkpt lat="45.35032" lon="5.73473">
        <ele>1290.2</ele>
        <time>2021-12-19T10:03:24Z</time>
      </trkpt>
      <trkpt lat="45.35033" lon="5.73473">
        <ele>1290.4</ele>
        <time>2021-12-19T10:03:25Z</time>
      </trkpt>
      <trkpt lat="45.35034" lon="5.73472">
        <ele>1290.6</ele>
        <time>2021-12-19T10:03:26Z</time>
      </trkpt>
      <trkpt lat="45.35035" lon="5.73471">
        <ele>1290.8</ele>
        <time>2021-12-19T10:03:27Z</time>
      </trkpt>
      <trkpt lat="45.35036" lon="5.7347">
        <ele>1291</ele>
        <time>2021-12-19T10:03:28Z</time>
      </trkpt>
      <trkpt lat="45.35037" lon="5.7347">
        <ele>1291.1</ele>
        <time>2021-12-19T10:03:29Z</time>
      </trkpt>
      <trkpt lat="45.35038" lon="5.73469">
        <ele>1291.3</ele>
        <time>2021-12-19T10:03:30Z</time>
      </trkpt>
      <trkpt lat="45.35038" lon="5.73468">
        <ele>1291.5</ele>
        <time>2021-12-19T10:03:31Z</time>
      </trkpt>
      <trkpt lat="45.35039" lon="5.73467">
        <ele>1291.7</ele>
        <time>2021-12-19T10:03:32Z</time>
      </trkpt>
      <trkpt lat="45.35041" lon="5.73466">
        <ele>1291.9</ele>
        <time>2021-12-19T10:03:33Z</time>
      </trkpt>
      <trkpt lat="45.35042" lon="5.73465">
        <ele>1292.2</ele>
        <time>2021-12-19T10:03:34Z</time>
      </trkpt>
      <trkpt lat="45.35043" lon="5.73464">
        <ele>1292.4</ele>
        <time>2021-12-19T10:03:35Z</time>
      </trkpt>
      <trkpt lat="45.35044" lon="5.73464">
        <ele>1292.6</ele>
        <time>2021-12-19T10:03:36Z</time>
      </trkpt>
      <trkpt lat="45.35045" lon="5.73463">
        <ele>1292.8</ele>
        <time>2021-12-19T10:03:37Z</time>
      </trkpt>
      <trkpt lat="45.35046" lon="5.73462">
        <ele>1293</ele>
        <time>2021-12-19T10:03:38Z</time>
      </trkpt>
      <trkpt lat="45.35047" lon="5.73461">
        <ele>1293.2</ele>
        <time>2021-12-19T10:03:39Z</time>
      </trkpt>
      <trkpt lat="45.35049" lon="5.7346">
        <ele>1293.5</ele>
        <time>2021-12-19T10:03:40Z</time>
      </trkpt>
      <trkpt lat="45.3505" lon="5.73459">
        <ele>1293.7</ele>
        <time>2021-12-19T10:03:41Z</time>
      </trkpt>
      <trkpt lat="45.3505" lon="5.73459">
        <ele>1293.8</ele>
        <time>2021-12-19T10:03:42Z</time>
      </trkpt>
      <trkpt lat="45.35051" lon="5.73458">
        <ele>1294</ele>
        <time>2021-12-19T10:03:43Z</time>
      </trkpt>
      <trkpt lat="45.35052" lon="5.73458">
        <ele>1294.1</ele>
        <time>2021-12-19T10:03:44Z</time>
      </trkpt>
      <trkpt lat="45.35053" lon="5.73458">
        <ele>1294.2</ele>
        <time>2021-12-19T10:03:45Z</time>
      </trkpt>
      <trkpt lat="45.35054" lon="5.73457">
        <ele>1294.4</ele>
        <time>2021-12-19T10:03:46Z</time>
      </trkpt>
      <trkpt lat="45.35055" lon="5.73456">
        <ele>1294.5</ele>
        <time>2021-12-19T10:03:47Z</time>
      </trkpt>
      <trkpt lat="45.35056" lon="5.73455">
        <ele>1294.7</ele>
        <time>2021-12-19T10:03:48Z</time>
      </trkpt>
      <trkpt lat="45.35057" lon="5.73455">
        <ele>1294.8</ele>
        <time>2021-12-19T10:03:49Z</time>
      </trkpt>
      <trkpt lat="45.35057" lon="5.73454">
        <ele>1294.9</ele>
        <time>2021-12-19T10:03:50Z</time>
      </trkpt>
      <trkpt lat="45.35058" lon="5.73453">
        <ele>1295</ele>
        <time>2021-12-19T10:03:51Z</time>
      </trkpt>
      <trkpt lat="45.35058" lon="5.73453">
        <ele>1295.1</ele>
        <time>2021-12-19T10:03:52Z</time>
      </trkpt>
      <trkpt lat="45.35059" lon="5.73452">
        <ele>1295.2</ele>
        <time>2021-12-19T10:03:53Z</time>
      </trkpt>
      <trkpt lat="45.3506" lon="5.73452">
        <ele>1295.4</ele>
        <time>2021-12-19T10:03:54Z</time>
      </trkpt>
      <trkpt lat="45.35061" lon="5.73452">
        <ele>1295.4</ele>
        <time>2021-12-19T10:03:55Z</time>
      </trkpt>
      <trkpt lat="45.35062" lon="5.73451">
        <ele>1295.5</ele>
        <time>2021-12-19T10:03:56Z</time>
      </trkpt>
      <trkpt lat="45.35063" lon="5.7345">
        <ele>1295.7</ele>
        <time>2021-12-19T10:03:57Z</time>
      </trkpt>
      <trkpt lat="45.35063" lon="5.73449">
        <ele>1295.8</ele>
        <time>2021-12-19T10:03:58Z</time>
      </trkpt>
      <trkpt lat="45.35064" lon="5.73449">
        <ele>1295.9</ele>
        <time>2021-12-19T10:03:59Z</time>
      </trkpt>
      <trkpt lat="45.35065" lon="5.73448">
        <ele>1296</ele>
        <time>2021-12-19T10:04:00Z</time>
      </trkpt>
      <trkpt lat="45.35066" lon="5.73448">
        <ele>1296.1</ele>
        <time>2021-12-19T10:04:01Z</time>
      </trkpt>
      <trkpt lat="45.35067" lon="5.73447">
        <ele>1296.2</ele>
        <time>2021-12-19T10:04:02Z</time>
      </trkpt>
      <trkpt lat="45.35068" lon="5.73447">
        <ele>1296.4</ele>
        <time>2021-12-19T10:04:03Z</time>
      </trkpt>
      <trkpt lat="45.35068" lon="5.73446">
        <ele>1296.6</ele>
        <time>2021-12-19T10:04:04Z</time>
      </trkpt>
      <trkpt lat="45.3507" lon="5.73446">
        <ele>1296.9</ele>
        <time>2021-12-19T10:04:05Z</time>
      </trkpt>
      <trkpt lat="45.35071" lon="5.73445">
        <ele>1297</ele>
        <time>2021-12-19T10:04:06Z</time>
      </trkpt>
      <trkpt lat="45.35072" lon="5.73445">
        <ele>1297.2</ele>
        <time>2021-12-19T10:04:07Z</time>
      </trkpt>
      <trkpt lat="45.35073" lon="5.73444">
        <ele>1297.4</ele>
        <time>2021-12-19T10:04:08Z</time>
      </trkpt>
      <trkpt lat="45.35074" lon="5.73444">
        <ele>1297.6</ele>
        <time>2021-12-19T10:04:09Z</time>
      </trkpt>
      <trkpt lat="45.35075" lon="5.73444">
        <ele>1297.7</ele>
        <time>2021-12-19T10:04:10Z</time>
      </trkpt>
      <trkpt lat="45.35075" lon="5.73444">
        <ele>1297.8</ele>
        <time>2021-12-19T10:04:11Z</time>
      </trkpt>
      <trkpt lat="45.35076" lon="5.73444">
        <ele>1297.9</ele>
        <time>2021-12-19T10:04:12Z</time>
      </trkpt>
      <trkpt lat="45.35076" lon="5.73443">
        <ele>1298</ele>
        <time>2021-12-19T10:04:13Z</time>
      </trkpt>
      <trkpt lat="45.35075" lon="5.73442">
        <ele>1298.2</ele>
        <time>2021-12-19T10:04:14Z</time>
      </trkpt>
      <trkpt lat="45.35075" lon="5.73441">
        <ele>1298.2</ele>
        <time>2021-12-19T10:04:15Z</time>
      </trkpt>
      <trkpt lat="45.35075" lon="5.73441">
        <ele>1298.3</ele>
        <time>2021-12-19T10:04:16Z</time>
      </trkpt>
      <trkpt lat="45.35075" lon="5.73441">
        <ele>1298.3</ele>
        <time>2021-12-19T10:04:17Z</time>
      </trkpt>
      <trkpt lat="45.35075" lon="5.73442">
        <ele>1298.4</ele>
        <time>2021-12-19T10:04:18Z</time>
      </trkpt>
      <trkpt lat="45.35075" lon="5.73442">
        <ele>1298.5</ele>
        <time>2021-12-19T10:04:19Z</time>
      </trkpt>
      <trkpt lat="45.35074" lon="5.73443">
        <ele>1298.6</ele>
        <time>2021-12-19T10:04:20Z</time>
      </trkpt>
      <trkpt lat="45.35074" lon="5.73443">
        <ele>1298.7</ele>
        <time>2021-12-19T10:04:21Z</time>
      </trkpt>
      <trkpt lat="45.35074" lon="5.73443">
        <ele>1298.7</ele>
        <time>2021-12-19T10:04:22Z</time>
      </trkpt>
      <trkpt lat="45.35074" lon="5.73443">
        <ele>1298.7</ele>
        <time>2021-12-19T10:04:23Z</time>
      </trkpt>
      <trkpt lat="45.35074" lon="5.73443">
        <ele>1298.8</ele>
        <time>2021-12-19T10:04:24Z</time>
      </trkpt>
      <trkpt lat="45.35073" lon="5.73443">
        <ele>1298.9</ele>
        <time>2021-12-19T10:04:25Z</time>
      </trkpt>
      <trkpt lat="45.35073" lon="5.73443">
        <ele>1299</ele>
        <time>2021-12-19T10:04:26Z</time>
      </trkpt>
      <trkpt lat="45.35073" lon="5.73442">
        <ele>1299</ele>
        <time>2021-12-19T10:04:27Z</time>
      </trkpt>
      <trkpt lat="45.35072" lon="5.73442">
        <ele>1299.1</ele>
        <time>2021-12-19T10:04:28Z</time>
      </trkpt>
      <trkpt lat="45.35072" lon="5.73442">
        <ele>1299.2</ele>
        <time>2021-12-19T10:04:29Z</time>
      </trkpt>
      <trkpt lat="45.35072" lon="5.73442">
        <ele>1299.2</ele>
        <time>2021-12-19T10:04:30Z</time>
      </trkpt>
      <trkpt lat="45.35071" lon="5.73442">
        <ele>1299.3</ele>
        <time>2021-12-19T10:04:31Z</time>
      </trkpt>
      <trkpt lat="45.35071" lon="5.73442">
        <ele>1299.4</ele>
        <time>2021-12-19T10:04:32Z</time>
      </trkpt>
      <trkpt lat="45.3507" lon="5.73442">
        <ele>1299.5</ele>
        <time>2021-12-19T10:04:33Z</time>
      </trkpt>
      <trkpt lat="45.3507" lon="5.73441">
        <ele>1299.5</ele>
        <time>2021-12-19T10:04:34Z</time>
      </trkpt>
      <trkpt lat="45.3507" lon="5.73441">
        <ele>1299.6</ele>
        <time>2021-12-19T10:04:35Z</time>
      </trkpt>
      <trkpt lat="45.35069" lon="5.73441">
        <ele>1299.7</ele>
        <time>2021-12-19T10:04:36Z</time>
      </trkpt>
      <trkpt lat="45.3507" lon="5.73442">
        <ele>1299.8</ele>
        <time>2021-12-19T10:04:37Z</time>
      </trkpt>
      <trkpt lat="45.3507" lon="5.73441">
        <ele>1299.9</ele>
        <time>2021-12-19T10:04:38Z</time>
      </trkpt>
      <trkpt lat="45.3507" lon="5.73441">
        <ele>1299.9</ele>
        <time>2021-12-19T10:04:39Z</time>
      </trkpt>
      <trkpt lat="45.3507" lon="5.73441">
        <ele>1300</ele>
        <time>2021-12-19T10:04:40Z</time>
      </trkpt>
      <trkpt lat="45.3507" lon="5.73442">
        <ele>1300</ele>
        <time>2021-12-19T10:04:41Z</time>
      </trkpt>
      <trkpt lat="45.3507" lon="5.73442">
        <ele>1300.1</ele>
        <time>2021-12-19T10:04:42Z</time>
      </trkpt>
      <trkpt lat="45.3507" lon="5.73442">
        <ele>1300.1</ele>
        <time>2021-12-19T10:04:43Z</time>
      </trkpt>
      <trkpt lat="45.35071" lon="5.73442">
        <ele>1300.1</ele>
        <time>2021-12-19T10:04:44Z</time>
      </trkpt>
      <trkpt lat="45.3507" lon="5.73443">
        <ele>1300.3</ele>
        <time>2021-12-19T10:04:45Z</time>
      </trkpt>
      <trkpt lat="45.3507" lon="5.73443">
        <ele>1300.3</ele>
        <time>2021-12-19T10:04:46Z</time>
      </trkpt>
      <trkpt lat="45.35069" lon="5.73441">
        <ele>1300.5</ele>
        <time>2021-12-19T10:04:47Z</time>
      </trkpt>
      <trkpt lat="45.35069" lon="5.73441">
        <ele>1300.6</ele>
        <time>2021-12-19T10:04:48Z</time>
      </trkpt>
      <trkpt lat="45.35069" lon="5.73442">
        <ele>1300.7</ele>
        <time>2021-12-19T10:04:49Z</time>
      </trkpt>
      <trkpt lat="45.35068" lon="5.73442">
        <ele>1300.9</ele>
        <time>2021-12-19T10:04:50Z</time>
      </trkpt>
      <trkpt lat="45.35067" lon="5.73442">
        <ele>1301</ele>
        <time>2021-12-19T10:04:51Z</time>
      </trkpt>
      <trkpt lat="45.35067" lon="5.73442">
        <ele>1301</ele>
        <time>2021-12-19T10:04:52Z</time>
      </trkpt>
      <trkpt lat="45.35067" lon="5.73442">
        <ele>1301.1</ele>
        <time>2021-12-19T10:04:53Z</time>
      </trkpt>
      <trkpt lat="45.35067" lon="5.73441">
        <ele>1301.1</ele>
        <time>2021-12-19T10:04:54Z</time>
      </trkpt>
      <trkpt lat="45.35066" lon="5.7344">
        <ele>1301.3</ele>
        <time>2021-12-19T10:04:55Z</time>
      </trkpt>
      <trkpt lat="45.35066" lon="5.73439">
        <ele>1301.4</ele>
        <time>2021-12-19T10:04:56Z</time>
      </trkpt>
      <trkpt lat="45.35067" lon="5.73439">
        <ele>1301.5</ele>
        <time>2021-12-19T10:04:57Z</time>
      </trkpt>
      <trkpt lat="45.35067" lon="5.73439">
        <ele>1301.5</ele>
        <time>2021-12-19T10:04:58Z</time>
      </trkpt>
      <trkpt lat="45.35067" lon="5.73438">
        <ele>1301.6</ele>
        <time>2021-12-19T10:04:59Z</time>
      </trkpt>
      <trkpt lat="45.35066" lon="5.73438">
        <ele>1301.7</ele>
        <time>2021-12-19T10:05:00Z</time>
      </trkpt>
      <trkpt lat="45.35066" lon="5.73438">
        <ele>1301.7</ele>
        <time>2021-12-19T10:05:01Z</time>
      </trkpt>
      <trkpt lat="45.35066" lon="5.73439">
        <ele>1301.8</ele>
        <time>2021-12-19T10:05:02Z</time>
      </trkpt>
      <trkpt lat="45.35066" lon="5.73439">
        <ele>1301.8</ele>
        <time>2021-12-19T10:05:03Z</time>
      </trkpt>
      <trkpt lat="45.35066" lon="5.73438">
        <ele>1301.9</ele>
        <time>2021-12-19T10:05:04Z</time>
      </trkpt>
      <trkpt lat="45.35066" lon="5.73438">
        <ele>1301.9</ele>
        <time>2021-12-19T10:05:05Z</time>
      </trkpt>
      <trkpt lat="45.35066" lon="5.73438">
        <ele>1302</ele>
        <time>2021-12-19T10:05:06Z</time>
      </trkpt>
      <trkpt lat="45.35066" lon="5.73438">
        <ele>1302</ele>
        <time>2021-12-19T10:05:07Z</time>
      </trkpt>
      <trkpt lat="45.35066" lon="5.73438">
        <ele>1302</ele>
        <time>2021-12-19T10:05:08Z</time>
      </trkpt>
      <trkpt lat="45.35065" lon="5.73438">
        <ele>1302.1</ele>
        <time>2021-12-19T10:05:09Z</time>
      </trkpt>
      <trkpt lat="45.35065" lon="5.73439">
        <ele>1302.2</ele>
        <time>2021-12-19T10:05:10Z</time>
      </trkpt>
      <trkpt lat="45.35065" lon="5.73439">
        <ele>1302.2</ele>
        <time>2021-12-19T10:05:11Z</time>
      </trkpt>
      <trkpt lat="45.35065" lon="5.73439">
        <ele>1302.3</ele>
        <time>2021-12-19T10:05:12Z</time>
      </trkpt>
      <trkpt lat="45.35064" lon="5.73439">
        <ele>1302.3</ele>
        <time>2021-12-19T10:05:13Z</time>
      </trkpt>
      <trkpt lat="45.35065" lon="5.7344">
        <ele>1302.4</ele>
        <time>2021-12-19T10:05:14Z</time>
      </trkpt>
      <trkpt lat="45.35065" lon="5.7344">
        <ele>1302.5</ele>
        <time>2021-12-19T10:05:15Z</time>
      </trkpt>
      <trkpt lat="45.35065" lon="5.73441">
        <ele>1302.6</ele>
        <time>2021-12-19T10:05:16Z</time>
      </trkpt>
      <trkpt lat="45.35065" lon="5.73441">
        <ele>1302.7</ele>
        <time>2021-12-19T10:05:17Z</time>
      </trkpt>
      <trkpt lat="45.35066" lon="5.73441">
        <ele>1302.8</ele>
        <time>2021-12-19T10:05:18Z</time>
      </trkpt>
      <trkpt lat="45.35066" lon="5.73441">
        <ele>1302.9</ele>
        <time>2021-12-19T10:05:19Z</time>
      </trkpt>
      <trkpt lat="45.35067" lon="5.73442">
        <ele>1303</ele>
        <time>2021-12-19T10:05:20Z</time>
      </trkpt>
      <trkpt lat="45.35068" lon="5.73442">
        <ele>1303.1</ele>
        <time>2021-12-19T10:05:21Z</time>
      </trkpt>
      <trkpt lat="45.35069" lon="5.73442">
        <ele>1303.4</ele>
        <time>2021-12-19T10:05:22Z</time>
      </trkpt>
      <trkpt lat="45.3507" lon="5.73442">
        <ele>1303.4</ele>
        <time>2021-12-19T10:05:23Z</time>
      </trkpt>
      <trkpt lat="45.35071" lon="5.73442">
        <ele>1303.6</ele>
        <time>2021-12-19T10:05:24Z</time>
      </trkpt>
      <trkpt lat="45.35071" lon="5.73442">
        <ele>1303.7</ele>
        <time>2021-12-19T10:05:25Z</time>
      </trkpt>
      <trkpt lat="45.35071" lon="5.73441">
        <ele>1303.8</ele>
        <time>2021-12-19T10:05:26Z</time>
      </trkpt>
      <trkpt lat="45.3507" lon="5.73439">
        <ele>1304.1</ele>
        <time>2021-12-19T10:05:27Z</time>
      </trkpt>
      <trkpt lat="45.3507" lon="5.73438">
        <ele>1304.2</ele>
        <time>2021-12-19T10:05:28Z</time>
      </trkpt>
      <trkpt lat="45.35069" lon="5.73437">
        <ele>1304.3</ele>
        <time>2021-12-19T10:05:29Z</time>
      </trkpt>
      <trkpt lat="45.35069" lon="5.73436">
        <ele>1304.4</ele>
        <time>2021-12-19T10:05:30Z</time>
      </trkpt>
      <trkpt lat="45.35069" lon="5.73436">
        <ele>1304.5</ele>
        <time>2021-12-19T10:05:31Z</time>
      </trkpt>
      <trkpt lat="45.35068" lon="5.73434">
        <ele>1304.8</ele>
        <time>2021-12-19T10:05:32Z</time>
      </trkpt>
      <trkpt lat="45.35067" lon="5.73433">
        <ele>1304.9</ele>
        <time>2021-12-19T10:05:33Z</time>
      </trkpt>
      <trkpt lat="45.35067" lon="5.73433">
        <ele>1305</ele>
        <time>2021-12-19T10:05:34Z</time>
      </trkpt>
      <trkpt lat="45.35067" lon="5.73432">
        <ele>1305</ele>
        <time>2021-12-19T10:05:35Z</time>
      </trkpt>
      <trkpt lat="45.35067" lon="5.73432">
        <ele>1305.1</ele>
        <time>2021-12-19T10:05:36Z</time>
      </trkpt>
      <trkpt lat="45.35066" lon="5.73431">
        <ele>1305.2</ele>
        <time>2021-12-19T10:05:37Z</time>
      </trkpt>
      <trkpt lat="45.35066" lon="5.7343">
        <ele>1305.3</ele>
        <time>2021-12-19T10:05:38Z</time>
      </trkpt>
      <trkpt lat="45.35066" lon="5.73429">
        <ele>1305.4</ele>
        <time>2021-12-19T10:05:39Z</time>
      </trkpt>
      <trkpt lat="45.35065" lon="5.73429">
        <ele>1305.5</ele>
        <time>2021-12-19T10:05:40Z</time>
      </trkpt>
      <trkpt lat="45.35065" lon="5.73429">
        <ele>1305.6</ele>
        <time>2021-12-19T10:05:41Z</time>
      </trkpt>
      <trkpt lat="45.35065" lon="5.73428">
        <ele>1305.6</ele>
        <time>2021-12-19T10:05:42Z</time>
      </trkpt>
      <trkpt lat="45.35065" lon="5.73428">
        <ele>1305.6</ele>
        <time>2021-12-19T10:05:43Z</time>
      </trkpt>
      <trkpt lat="45.35065" lon="5.73428">
        <ele>1305.7</ele>
        <time>2021-12-19T10:05:44Z</time>
      </trkpt>
      <trkpt lat="45.35065" lon="5.73428">
        <ele>1305.7</ele>
        <time>2021-12-19T10:05:45Z</time>
      </trkpt>
      <trkpt lat="45.35065" lon="5.73428">
        <ele>1305.7</ele>
        <time>2021-12-19T10:05:46Z</time>
      </trkpt>
      <trkpt lat="45.35065" lon="5.73428">
        <ele>1305.8</ele>
        <time>2021-12-19T10:05:47Z</time>
      </trkpt>
      <trkpt lat="45.35065" lon="5.73428">
        <ele>1305.8</ele>
        <time>2021-12-19T10:05:48Z</time>
      </trkpt>
      <trkpt lat="45.35065" lon="5.73428">
        <ele>1305.8</ele>
        <time>2021-12-19T10:05:49Z</time>
      </trkpt>
      <trkpt lat="45.35065" lon="5.73428">
        <ele>1305.9</ele>
        <time>2021-12-19T10:05:50Z</time>
      </trkpt>
      <trkpt lat="45.35065" lon="5.73429">
        <ele>1305.9</ele>
        <time>2021-12-19T10:05:51Z</time>
      </trkpt>
      <trkpt lat="45.35064" lon="5.73428">
        <ele>1306</ele>
        <time>2021-12-19T10:05:52Z</time>
      </trkpt>
      <trkpt lat="45.35064" lon="5.73428">
        <ele>1306.1</ele>
        <time>2021-12-19T10:05:53Z</time>
      </trkpt>
      <trkpt lat="45.35063" lon="5.73427">
        <ele>1306.2</ele>
        <time>2021-12-19T10:05:54Z</time>
      </trkpt>
      <trkpt lat="45.35063" lon="5.73427">
        <ele>1306.2</ele>
        <time>2021-12-19T10:05:55Z</time>
      </trkpt>
      <trkpt lat="45.35063" lon="5.73427">
        <ele>1306.3</ele>
        <time>2021-12-19T10:05:56Z</time>
      </trkpt>
      <trkpt lat="45.35063" lon="5.73427">
        <ele>1306.3</ele>
        <time>2021-12-19T10:05:57Z</time>
      </trkpt>
      <trkpt lat="45.35062" lon="5.73427">
        <ele>1306.4</ele>
        <time>2021-12-19T10:05:58Z</time>
      </trkpt>
      <trkpt lat="45.35062" lon="5.73427">
        <ele>1306.5</ele>
        <time>2021-12-19T10:05:59Z</time>
      </trkpt>
      <trkpt lat="45.35061" lon="5.73427">
        <ele>1306.5</ele>
        <time>2021-12-19T10:06:00Z</time>
      </trkpt>
      <trkpt lat="45.35061" lon="5.73427">
        <ele>1306.6</ele>
        <time>2021-12-19T10:06:01Z</time>
      </trkpt>
      <trkpt lat="45.35061" lon="5.73428">
        <ele>1306.6</ele>
        <time>2021-12-19T10:06:02Z</time>
      </trkpt>
      <trkpt lat="45.3506" lon="5.73428">
        <ele>1306.7</ele>
        <time>2021-12-19T10:06:03Z</time>
      </trkpt>
      <trkpt lat="45.3506" lon="5.73429">
        <ele>1306.7</ele>
        <time>2021-12-19T10:06:04Z</time>
      </trkpt>
      <trkpt lat="45.35061" lon="5.73428">
        <ele>1306.8</ele>
        <time>2021-12-19T10:06:05Z</time>
      </trkpt>
      <trkpt lat="45.35061" lon="5.73428">
        <ele>1306.9</ele>
        <time>2021-12-19T10:06:06Z</time>
      </trkpt>
      <trkpt lat="45.35061" lon="5.73428">
        <ele>1306.9</ele>
        <time>2021-12-19T10:06:07Z</time>
      </trkpt>
      <trkpt lat="45.35062" lon="5.73428">
        <ele>1306.9</ele>
        <time>2021-12-19T10:06:08Z</time>
      </trkpt>
      <trkpt lat="45.35061" lon="5.73427">
        <ele>1307</ele>
        <time>2021-12-19T10:06:09Z</time>
      </trkpt>
      <trkpt lat="45.35061" lon="5.73428">
        <ele>1307</ele>
        <time>2021-12-19T10:06:10Z</time>
      </trkpt>
      <trkpt lat="45.35061" lon="5.73428">
        <ele>1307</ele>
        <time>2021-12-19T10:06:11Z</time>
      </trkpt>
      <trkpt lat="45.35061" lon="5.73428">
        <ele>1307.1</ele>
        <time>2021-12-19T10:06:12Z</time>
      </trkpt>
      <trkpt lat="45.3506" lon="5.73428">
        <ele>1307.1</ele>
        <time>2021-12-19T10:06:13Z</time>
      </trkpt>
      <trkpt lat="45.3506" lon="5.73427">
        <ele>1307.2</ele>
        <time>2021-12-19T10:06:14Z</time>
      </trkpt>
      <trkpt lat="45.35061" lon="5.73427">
        <ele>1307.2</ele>
        <time>2021-12-19T10:06:15Z</time>
      </trkpt>
      <trkpt lat="45.35061" lon="5.73427">
        <ele>1307.3</ele>
        <time>2021-12-19T10:06:16Z</time>
      </trkpt>
      <trkpt lat="45.35061" lon="5.73427">
        <ele>1307.3</ele>
        <time>2021-12-19T10:06:17Z</time>
      </trkpt>
      <trkpt lat="45.35062" lon="5.73428">
        <ele>1307.4</ele>
        <time>2021-12-19T10:06:18Z</time>
      </trkpt>
      <trkpt lat="45.35062" lon="5.73428">
        <ele>1307.5</ele>
        <time>2021-12-19T10:06:19Z</time>
      </trkpt>
      <trkpt lat="45.35062" lon="5.73428">
        <ele>1307.5</ele>
        <time>2021-12-19T10:06:20Z</time>
      </trkpt>
      <trkpt lat="45.35063" lon="5.73429">
        <ele>1307.6</ele>
        <time>2021-12-19T10:06:21Z</time>
      </trkpt>
      <trkpt lat="45.35064" lon="5.7343">
        <ele>1307.7</ele>
        <time>2021-12-19T10:06:22Z</time>
      </trkpt>
      <trkpt lat="45.35066" lon="5.73431">
        <ele>1308</ele>
        <time>2021-12-19T10:06:23Z</time>
      </trkpt>
      <trkpt lat="45.35067" lon="5.73433">
        <ele>1308.2</ele>
        <time>2021-12-19T10:06:24Z</time>
      </trkpt>
      <trkpt lat="45.35068" lon="5.73434">
        <ele>1308.2</ele>
        <time>2021-12-19T10:06:25Z</time>
      </trkpt>
      <trkpt lat="45.35069" lon="5.73435">
        <ele>1308.4</ele>
        <time>2021-12-19T10:06:26Z</time>
      </trkpt>
      <trkpt lat="45.3507" lon="5.73436">
        <ele>1308.6</ele>
        <time>2021-12-19T10:06:27Z</time>
      </trkpt>
      <trkpt lat="45.35072" lon="5.73436">
        <ele>1308.8</ele>
        <time>2021-12-19T10:06:28Z</time>
      </trkpt>
      <trkpt lat="45.35073" lon="5.73436">
        <ele>1308.9</ele>
        <time>2021-12-19T10:06:29Z</time>
      </trkpt>
      <trkpt lat="45.35074" lon="5.73435">
        <ele>1309</ele>
        <time>2021-12-19T10:06:30Z</time>
      </trkpt>
      <trkpt lat="45.35075" lon="5.73435">
        <ele>1309.1</ele>
        <time>2021-12-19T10:06:31Z</time>
      </trkpt>
      <trkpt lat="45.35076" lon="5.73434">
        <ele>1309.2</ele>
        <time>2021-12-19T10:06:32Z</time>
      </trkpt>
      <trkpt lat="45.35076" lon="5.73434">
        <ele>1309.3</ele>
        <time>2021-12-19T10:06:33Z</time>
      </trkpt>
      <trkpt lat="45.35077" lon="5.73433">
        <ele>1309.3</ele>
        <time>2021-12-19T10:06:34Z</time>
      </trkpt>
      <trkpt lat="45.35077" lon="5.73433">
        <ele>1309.4</ele>
        <time>2021-12-19T10:06:35Z</time>
      </trkpt>
      <trkpt lat="45.35078" lon="5.73433">
        <ele>1309.6</ele>
        <time>2021-12-19T10:06:36Z</time>
      </trkpt>
      <trkpt lat="45.35079" lon="5.73433">
        <ele>1309.6</ele>
        <time>2021-12-19T10:06:37Z</time>
      </trkpt>
      <trkpt lat="45.3508" lon="5.73432">
        <ele>1309.8</ele>
        <time>2021-12-19T10:06:38Z</time>
      </trkpt>
      <trkpt lat="45.35081" lon="5.73432">
        <ele>1309.9</ele>
        <time>2021-12-19T10:06:39Z</time>
      </trkpt>
      <trkpt lat="45.35082" lon="5.73432">
        <ele>1310</ele>
        <time>2021-12-19T10:06:40Z</time>
      </trkpt>
      <trkpt lat="45.35083" lon="5.73432">
        <ele>1310.1</ele>
        <time>2021-12-19T10:06:41Z</time>
      </trkpt>
      <trkpt lat="45.35083" lon="5.73432">
        <ele>1310.2</ele>
        <time>2021-12-19T10:06:42Z</time>
      </trkpt>
      <trkpt lat="45.35085" lon="5.73432">
        <ele>1310.3</ele>
        <time>2021-12-19T10:06:43Z</time>
      </trkpt>
      <trkpt lat="45.35086" lon="5.73431">
        <ele>1310.5</ele>
        <time>2021-12-19T10:06:44Z</time>
      </trkpt>
      <trkpt lat="45.35087" lon="5.73431">
        <ele>1310.6</ele>
        <time>2021-12-19T10:06:45Z</time>
      </trkpt>
      <trkpt lat="45.35088" lon="5.7343">
        <ele>1310.8</ele>
        <time>2021-12-19T10:06:46Z</time>
      </trkpt>
      <trkpt lat="45.3509" lon="5.73429">
        <ele>1311</ele>
        <time>2021-12-19T10:06:47Z</time>
      </trkpt>
      <trkpt lat="45.35091" lon="5.73428">
        <ele>1311.2</ele>
        <time>2021-12-19T10:06:48Z</time>
      </trkpt>
      <trkpt lat="45.35092" lon="5.73427">
        <ele>1311.3</ele>
        <time>2021-12-19T10:06:49Z</time>
      </trkpt>
      <trkpt lat="45.35093" lon="5.73426">
        <ele>1311.4</ele>
        <time>2021-12-19T10:06:50Z</time>
      </trkpt>
      <trkpt lat="45.35093" lon="5.73426">
        <ele>1311.5</ele>
        <time>2021-12-19T10:06:51Z</time>
      </trkpt>
      <trkpt lat="45.35094" lon="5.73425">
        <ele>1311.6</ele>
        <time>2021-12-19T10:06:52Z</time>
      </trkpt>
      <trkpt lat="45.35094" lon="5.73424">
        <ele>1311.7</ele>
        <time>2021-12-19T10:06:53Z</time>
      </trkpt>
      <trkpt lat="45.35095" lon="5.73423">
        <ele>1311.8</ele>
        <time>2021-12-19T10:06:54Z</time>
      </trkpt>
      <trkpt lat="45.35096" lon="5.73422">
        <ele>1311.9</ele>
        <time>2021-12-19T10:06:55Z</time>
      </trkpt>
      <trkpt lat="45.35096" lon="5.73422">
        <ele>1312</ele>
        <time>2021-12-19T10:06:56Z</time>
      </trkpt>
      <trkpt lat="45.35097" lon="5.73421">
        <ele>1312.1</ele>
        <time>2021-12-19T10:06:57Z</time>
      </trkpt>
      <trkpt lat="45.35098" lon="5.73421">
        <ele>1312.2</ele>
        <time>2021-12-19T10:06:58Z</time>
      </trkpt>
      <trkpt lat="45.35098" lon="5.7342">
        <ele>1312.3</ele>
        <time>2021-12-19T10:06:59Z</time>
      </trkpt>
      <trkpt lat="45.35099" lon="5.73419">
        <ele>1312.4</ele>
        <time>2021-12-19T10:07:00Z</time>
      </trkpt>
      <trkpt lat="45.351" lon="5.73419">
        <ele>1312.6</ele>
        <time>2021-12-19T10:07:01Z</time>
      </trkpt>
      <trkpt lat="45.351" lon="5.73418">
        <ele>1312.7</ele>
        <time>2021-12-19T10:07:02Z</time>
      </trkpt>
      <trkpt lat="45.35101" lon="5.73417">
        <ele>1312.8</ele>
        <time>2021-12-19T10:07:03Z</time>
      </trkpt>
      <trkpt lat="45.351" lon="5.73416">
        <ele>1312.8</ele>
        <time>2021-12-19T10:07:04Z</time>
      </trkpt>
      <trkpt lat="45.351" lon="5.73415">
        <ele>1312.9</ele>
        <time>2021-12-19T10:07:05Z</time>
      </trkpt>
      <trkpt lat="45.351" lon="5.73414">
        <ele>1313.1</ele>
        <time>2021-12-19T10:07:06Z</time>
      </trkpt>
      <trkpt lat="45.35099" lon="5.73413">
        <ele>1313.2</ele>
        <time>2021-12-19T10:07:07Z</time>
      </trkpt>
      <trkpt lat="45.35099" lon="5.73412">
        <ele>1313.3</ele>
        <time>2021-12-19T10:07:08Z</time>
      </trkpt>
      <trkpt lat="45.35099" lon="5.73412">
        <ele>1313.3</ele>
        <time>2021-12-19T10:07:09Z</time>
      </trkpt>
      <trkpt lat="45.351" lon="5.73411">
        <ele>1313.4</ele>
        <time>2021-12-19T10:07:10Z</time>
      </trkpt>
      <trkpt lat="45.351" lon="5.7341">
        <ele>1313.5</ele>
        <time>2021-12-19T10:07:11Z</time>
      </trkpt>
      <trkpt lat="45.351" lon="5.73409">
        <ele>1313.6</ele>
        <time>2021-12-19T10:07:12Z</time>
      </trkpt>
      <trkpt lat="45.35101" lon="5.73409">
        <ele>1313.7</ele>
        <time>2021-12-19T10:07:13Z</time>
      </trkpt>
      <trkpt lat="45.35102" lon="5.73408">
        <ele>1313.8</ele>
        <time>2021-12-19T10:07:14Z</time>
      </trkpt>
      <trkpt lat="45.35102" lon="5.73407">
        <ele>1314</ele>
        <time>2021-12-19T10:07:15Z</time>
      </trkpt>
      <trkpt lat="45.35103" lon="5.73407">
        <ele>1314</ele>
        <time>2021-12-19T10:07:16Z</time>
      </trkpt>
      <trkpt lat="45.35104" lon="5.73407">
        <ele>1314.2</ele>
        <time>2021-12-19T10:07:17Z</time>
      </trkpt>
      <trkpt lat="45.35104" lon="5.73406">
        <ele>1314.3</ele>
        <time>2021-12-19T10:07:18Z</time>
      </trkpt>
      <trkpt lat="45.35105" lon="5.73405">
        <ele>1314.4</ele>
        <time>2021-12-19T10:07:19Z</time>
      </trkpt>
      <trkpt lat="45.35106" lon="5.73405">
        <ele>1314.6</ele>
        <time>2021-12-19T10:07:20Z</time>
      </trkpt>
      <trkpt lat="45.35106" lon="5.73404">
        <ele>1314.7</ele>
        <time>2021-12-19T10:07:21Z</time>
      </trkpt>
      <trkpt lat="45.35106" lon="5.73402">
        <ele>1314.8</ele>
        <time>2021-12-19T10:07:22Z</time>
      </trkpt>
      <trkpt lat="45.35107" lon="5.73401">
        <ele>1315</ele>
        <time>2021-12-19T10:07:23Z</time>
      </trkpt>
      <trkpt lat="45.35107" lon="5.734">
        <ele>1315.1</ele>
        <time>2021-12-19T10:07:24Z</time>
      </trkpt>
      <trkpt lat="45.35107" lon="5.73399">
        <ele>1315.3</ele>
        <time>2021-12-19T10:07:25Z</time>
      </trkpt>
      <trkpt lat="45.35107" lon="5.73397">
        <ele>1315.4</ele>
        <time>2021-12-19T10:07:26Z</time>
      </trkpt>
      <trkpt lat="45.35107" lon="5.73396">
        <ele>1315.6</ele>
        <time>2021-12-19T10:07:27Z</time>
      </trkpt>
      <trkpt lat="45.35107" lon="5.73395">
        <ele>1315.7</ele>
        <time>2021-12-19T10:07:28Z</time>
      </trkpt>
      <trkpt lat="45.35107" lon="5.73393">
        <ele>1315.9</ele>
        <time>2021-12-19T10:07:29Z</time>
      </trkpt>
      <trkpt lat="45.35107" lon="5.73392">
        <ele>1316</ele>
        <time>2021-12-19T10:07:30Z</time>
      </trkpt>
      <trkpt lat="45.35107" lon="5.7339">
        <ele>1316.2</ele>
        <time>2021-12-19T10:07:31Z</time>
      </trkpt>
      <trkpt lat="45.35107" lon="5.7339">
        <ele>1316.3</ele>
        <time>2021-12-19T10:07:32Z</time>
      </trkpt>
      <trkpt lat="45.35107" lon="5.73388">
        <ele>1316.5</ele>
        <time>2021-12-19T10:07:33Z</time>
      </trkpt>
      <trkpt lat="45.35108" lon="5.73386">
        <ele>1316.7</ele>
        <time>2021-12-19T10:07:34Z</time>
      </trkpt>
      <trkpt lat="45.35108" lon="5.73385">
        <ele>1316.9</ele>
        <time>2021-12-19T10:07:35Z</time>
      </trkpt>
      <trkpt lat="45.35108" lon="5.73384">
        <ele>1317</ele>
        <time>2021-12-19T10:07:36Z</time>
      </trkpt>
      <trkpt lat="45.35108" lon="5.73382">
        <ele>1317.1</ele>
        <time>2021-12-19T10:07:37Z</time>
      </trkpt>
      <trkpt lat="45.35107" lon="5.73382">
        <ele>1317.2</ele>
        <time>2021-12-19T10:07:38Z</time>
      </trkpt>
      <trkpt lat="45.35108" lon="5.73381">
        <ele>1317.3</ele>
        <time>2021-12-19T10:07:39Z</time>
      </trkpt>
      <trkpt lat="45.35108" lon="5.7338">
        <ele>1317.4</ele>
        <time>2021-12-19T10:07:40Z</time>
      </trkpt>
      <trkpt lat="45.35108" lon="5.7338">
        <ele>1317.5</ele>
        <time>2021-12-19T10:07:41Z</time>
      </trkpt>
      <trkpt lat="45.35108" lon="5.73379">
        <ele>1317.6</ele>
        <time>2021-12-19T10:07:42Z</time>
      </trkpt>
      <trkpt lat="45.35108" lon="5.73378">
        <ele>1317.7</ele>
        <time>2021-12-19T10:07:43Z</time>
      </trkpt>
      <trkpt lat="45.35108" lon="5.73377">
        <ele>1317.8</ele>
        <time>2021-12-19T10:07:44Z</time>
      </trkpt>
      <trkpt lat="45.35109" lon="5.73376">
        <ele>1317.9</ele>
        <time>2021-12-19T10:07:45Z</time>
      </trkpt>
      <trkpt lat="45.35109" lon="5.73375">
        <ele>1318.1</ele>
        <time>2021-12-19T10:07:46Z</time>
      </trkpt>
      <trkpt lat="45.3511" lon="5.73373">
        <ele>1318.3</ele>
        <time>2021-12-19T10:07:47Z</time>
      </trkpt>
      <trkpt lat="45.3511" lon="5.73372">
        <ele>1318.4</ele>
        <time>2021-12-19T10:07:48Z</time>
      </trkpt>
      <trkpt lat="45.3511" lon="5.73371">
        <ele>1318.5</ele>
        <time>2021-12-19T10:07:49Z</time>
      </trkpt>
      <trkpt lat="45.35111" lon="5.7337">
        <ele>1318.7</ele>
        <time>2021-12-19T10:07:50Z</time>
      </trkpt>
      <trkpt lat="45.35111" lon="5.73369">
        <ele>1318.8</ele>
        <time>2021-12-19T10:07:51Z</time>
      </trkpt>
      <trkpt lat="45.35111" lon="5.73369">
        <ele>1318.9</ele>
        <time>2021-12-19T10:07:52Z</time>
      </trkpt>
      <trkpt lat="45.35111" lon="5.73368">
        <ele>1319</ele>
        <time>2021-12-19T10:07:53Z</time>
      </trkpt>
      <trkpt lat="45.35111" lon="5.73366">
        <ele>1319.2</ele>
        <time>2021-12-19T10:07:54Z</time>
      </trkpt>
      <trkpt lat="45.35112" lon="5.73365">
        <ele>1319.4</ele>
        <time>2021-12-19T10:07:55Z</time>
      </trkpt>
      <trkpt lat="45.35111" lon="5.73364">
        <ele>1319.5</ele>
        <time>2021-12-19T10:07:56Z</time>
      </trkpt>
      <trkpt lat="45.35111" lon="5.73363">
        <ele>1319.6</ele>
        <time>2021-12-19T10:07:57Z</time>
      </trkpt>
      <trkpt lat="45.35111" lon="5.73361">
        <ele>1319.8</ele>
        <time>2021-12-19T10:07:58Z</time>
      </trkpt>
      <trkpt lat="45.35112" lon="5.73361">
        <ele>1320</ele>
        <time>2021-12-19T10:07:59Z</time>
      </trkpt>
      <trkpt lat="45.35113" lon="5.7336">
        <ele>1320.2</ele>
        <time>2021-12-19T10:08:00Z</time>
      </trkpt>
      <trkpt lat="45.35113" lon="5.73359">
        <ele>1320.3</ele>
        <time>2021-12-19T10:08:01Z</time>
      </trkpt>
      <trkpt lat="45.35114" lon="5.73358">
        <ele>1320.5</ele>
        <time>2021-12-19T10:08:02Z</time>
      </trkpt>
      <trkpt lat="45.35115" lon="5.73357">
        <ele>1320.7</ele>
        <time>2021-12-19T10:08:03Z</time>
      </trkpt>
      <trkpt lat="45.35116" lon="5.73356">
        <ele>1320.8</ele>
        <time>2021-12-19T10:08:04Z</time>
      </trkpt>
      <trkpt lat="45.35116" lon="5.73355">
        <ele>1320.9</ele>
        <time>2021-12-19T10:08:05Z</time>
      </trkpt>
      <trkpt lat="45.35116" lon="5.73355">
        <ele>1321.1</ele>
        <time>2021-12-19T10:08:06Z</time>
      </trkpt>
      <trkpt lat="45.35116" lon="5.73354">
        <ele>1321.1</ele>
        <time>2021-12-19T10:08:07Z</time>
      </trkpt>
      <trkpt lat="45.35116" lon="5.73354">
        <ele>1321.2</ele>
        <time>2021-12-19T10:08:08Z</time>
      </trkpt>
      <trkpt lat="45.35117" lon="5.73353">
        <ele>1321.3</ele>
        <time>2021-12-19T10:08:09Z</time>
      </trkpt>
      <trkpt lat="45.35117" lon="5.73353">
        <ele>1321.4</ele>
        <time>2021-12-19T10:08:10Z</time>
      </trkpt>
      <trkpt lat="45.35117" lon="5.73352">
        <ele>1321.5</ele>
        <time>2021-12-19T10:08:11Z</time>
      </trkpt>
      <trkpt lat="45.35118" lon="5.73352">
        <ele>1321.6</ele>
        <time>2021-12-19T10:08:12Z</time>
      </trkpt>
      <trkpt lat="45.35118" lon="5.73351">
        <ele>1321.7</ele>
        <time>2021-12-19T10:08:13Z</time>
      </trkpt>
      <trkpt lat="45.35118" lon="5.73351">
        <ele>1321.7</ele>
        <time>2021-12-19T10:08:14Z</time>
      </trkpt>
      <trkpt lat="45.35118" lon="5.73351">
        <ele>1321.7</ele>
        <time>2021-12-19T10:08:15Z</time>
      </trkpt>
      <trkpt lat="45.35118" lon="5.7335">
        <ele>1321.8</ele>
        <time>2021-12-19T10:08:16Z</time>
      </trkpt>
      <trkpt lat="45.35118" lon="5.73349">
        <ele>1321.9</ele>
        <time>2021-12-19T10:08:17Z</time>
      </trkpt>
      <trkpt lat="45.35118" lon="5.73349">
        <ele>1322</ele>
        <time>2021-12-19T10:08:18Z</time>
      </trkpt>
      <trkpt lat="45.35118" lon="5.73347">
        <ele>1322.1</ele>
        <time>2021-12-19T10:08:19Z</time>
      </trkpt>
      <trkpt lat="45.35119" lon="5.73346">
        <ele>1322.3</ele>
        <time>2021-12-19T10:08:20Z</time>
      </trkpt>
      <trkpt lat="45.35118" lon="5.73346">
        <ele>1322.4</ele>
        <time>2021-12-19T10:08:21Z</time>
      </trkpt>
      <trkpt lat="45.35119" lon="5.73344">
        <ele>1322.6</ele>
        <time>2021-12-19T10:08:22Z</time>
      </trkpt>
      <trkpt lat="45.35118" lon="5.73344">
        <ele>1322.7</ele>
        <time>2021-12-19T10:08:23Z</time>
      </trkpt>
      <trkpt lat="45.35117" lon="5.73344">
        <ele>1323</ele>
        <time>2021-12-19T10:08:24Z</time>
      </trkpt>
      <trkpt lat="45.35115" lon="5.73343">
        <ele>1323.2</ele>
        <time>2021-12-19T10:08:25Z</time>
      </trkpt>
      <trkpt lat="45.35115" lon="5.73342">
        <ele>1323.4</ele>
        <time>2021-12-19T10:08:26Z</time>
      </trkpt>
      <trkpt lat="45.35114" lon="5.7334">
        <ele>1323.6</ele>
        <time>2021-12-19T10:08:27Z</time>
      </trkpt>
      <trkpt lat="45.35114" lon="5.73339">
        <ele>1323.7</ele>
        <time>2021-12-19T10:08:28Z</time>
      </trkpt>
      <trkpt lat="45.35113" lon="5.73338">
        <ele>1323.9</ele>
        <time>2021-12-19T10:08:29Z</time>
      </trkpt>
      <trkpt lat="45.35112" lon="5.73337">
        <ele>1324.1</ele>
        <time>2021-12-19T10:08:30Z</time>
      </trkpt>
      <trkpt lat="45.35111" lon="5.73337">
        <ele>1324.2</ele>
        <time>2021-12-19T10:08:31Z</time>
      </trkpt>
      <trkpt lat="45.35111" lon="5.73336">
        <ele>1324.3</ele>
        <time>2021-12-19T10:08:32Z</time>
      </trkpt>
      <trkpt lat="45.35111" lon="5.73337">
        <ele>1324.4</ele>
        <time>2021-12-19T10:08:33Z</time>
      </trkpt>
      <trkpt lat="45.3511" lon="5.73336">
        <ele>1324.5</ele>
        <time>2021-12-19T10:08:34Z</time>
      </trkpt>
      <trkpt lat="45.3511" lon="5.73336">
        <ele>1324.5</ele>
        <time>2021-12-19T10:08:35Z</time>
      </trkpt>
      <trkpt lat="45.3511" lon="5.73335">
        <ele>1324.6</ele>
        <time>2021-12-19T10:08:36Z</time>
      </trkpt>
      <trkpt lat="45.3511" lon="5.73335">
        <ele>1324.7</ele>
        <time>2021-12-19T10:08:37Z</time>
      </trkpt>
      <trkpt lat="45.3511" lon="5.73334">
        <ele>1324.8</ele>
        <time>2021-12-19T10:08:38Z</time>
      </trkpt>
      <trkpt lat="45.3511" lon="5.73333">
        <ele>1324.9</ele>
        <time>2021-12-19T10:08:39Z</time>
      </trkpt>
      <trkpt lat="45.3511" lon="5.73333">
        <ele>1324.9</ele>
        <time>2021-12-19T10:08:40Z</time>
      </trkpt>
      <trkpt lat="45.3511" lon="5.73332">
        <ele>1325</ele>
        <time>2021-12-19T10:08:41Z</time>
      </trkpt>
      <trkpt lat="45.3511" lon="5.73331">
        <ele>1325.1</ele>
        <time>2021-12-19T10:08:42Z</time>
      </trkpt>
      <trkpt lat="45.3511" lon="5.73331">
        <ele>1325.2</ele>
        <time>2021-12-19T10:08:43Z</time>
      </trkpt>
      <trkpt lat="45.35111" lon="5.73331">
        <ele>1325.2</ele>
        <time>2021-12-19T10:08:44Z</time>
      </trkpt>
      <trkpt lat="45.3511" lon="5.73331">
        <ele>1325.3</ele>
        <time>2021-12-19T10:08:45Z</time>
      </trkpt>
      <trkpt lat="45.3511" lon="5.7333">
        <ele>1325.4</ele>
        <time>2021-12-19T10:08:46Z</time>
      </trkpt>
      <trkpt lat="45.35109" lon="5.7333">
        <ele>1325.5</ele>
        <time>2021-12-19T10:08:47Z</time>
      </trkpt>
      <trkpt lat="45.3511" lon="5.73329">
        <ele>1325.6</ele>
        <time>2021-12-19T10:08:48Z</time>
      </trkpt>
      <trkpt lat="45.35109" lon="5.73329">
        <ele>1325.7</ele>
        <time>2021-12-19T10:08:49Z</time>
      </trkpt>
      <trkpt lat="45.35109" lon="5.73328">
        <ele>1325.8</ele>
        <time>2021-12-19T10:08:50Z</time>
      </trkpt>
      <trkpt lat="45.35109" lon="5.73327">
        <ele>1325.9</ele>
        <time>2021-12-19T10:08:51Z</time>
      </trkpt>
      <trkpt lat="45.35108" lon="5.73326">
        <ele>1326</ele>
        <time>2021-12-19T10:08:52Z</time>
      </trkpt>
      <trkpt lat="45.35108" lon="5.73326">
        <ele>1326.1</ele>
        <time>2021-12-19T10:08:53Z</time>
      </trkpt>
      <trkpt lat="45.35107" lon="5.73326">
        <ele>1326.2</ele>
        <time>2021-12-19T10:08:54Z</time>
      </trkpt>
      <trkpt lat="45.35107" lon="5.73325">
        <ele>1326.3</ele>
        <time>2021-12-19T10:08:55Z</time>
      </trkpt>
      <trkpt lat="45.35107" lon="5.73325">
        <ele>1326.3</ele>
        <time>2021-12-19T10:08:56Z</time>
      </trkpt>
      <trkpt lat="45.35106" lon="5.73325">
        <ele>1326.4</ele>
        <time>2021-12-19T10:08:57Z</time>
      </trkpt>
      <trkpt lat="45.35106" lon="5.73324">
        <ele>1326.5</ele>
        <time>2021-12-19T10:08:58Z</time>
      </trkpt>
      <trkpt lat="45.35106" lon="5.73324">
        <ele>1326.6</ele>
        <time>2021-12-19T10:08:59Z</time>
      </trkpt>
      <trkpt lat="45.35106" lon="5.73322">
        <ele>1326.7</ele>
        <time>2021-12-19T10:09:00Z</time>
      </trkpt>
      <trkpt lat="45.35106" lon="5.73321">
        <ele>1326.8</ele>
        <time>2021-12-19T10:09:01Z</time>
      </trkpt>
      <trkpt lat="45.35106" lon="5.7332">
        <ele>1327</ele>
        <time>2021-12-19T10:09:02Z</time>
      </trkpt>
      <trkpt lat="45.35106" lon="5.73319">
        <ele>1327.1</ele>
        <time>2021-12-19T10:09:03Z</time>
      </trkpt>
      <trkpt lat="45.35106" lon="5.73318">
        <ele>1327.2</ele>
        <time>2021-12-19T10:09:04Z</time>
      </trkpt>
      <trkpt lat="45.35106" lon="5.73317">
        <ele>1327.3</ele>
        <time>2021-12-19T10:09:05Z</time>
      </trkpt>
      <trkpt lat="45.35106" lon="5.73316">
        <ele>1327.4</ele>
        <time>2021-12-19T10:09:06Z</time>
      </trkpt>
      <trkpt lat="45.35106" lon="5.73315">
        <ele>1327.5</ele>
        <time>2021-12-19T10:09:07Z</time>
      </trkpt>
      <trkpt lat="45.35106" lon="5.73315">
        <ele>1327.6</ele>
        <time>2021-12-19T10:09:08Z</time>
      </trkpt>
      <trkpt lat="45.35107" lon="5.73314">
        <ele>1327.7</ele>
        <time>2021-12-19T10:09:09Z</time>
      </trkpt>
      <trkpt lat="45.35107" lon="5.73313">
        <ele>1327.9</ele>
        <time>2021-12-19T10:09:10Z</time>
      </trkpt>
      <trkpt lat="45.35108" lon="5.73313">
        <ele>1328</ele>
        <time>2021-12-19T10:09:11Z</time>
      </trkpt>
      <trkpt lat="45.35109" lon="5.73312">
        <ele>1328.2</ele>
        <time>2021-12-19T10:09:12Z</time>
      </trkpt>
      <trkpt lat="45.35109" lon="5.73311">
        <ele>1328.3</ele>
        <time>2021-12-19T10:09:13Z</time>
      </trkpt>
      <trkpt lat="45.35109" lon="5.7331">
        <ele>1328.4</ele>
        <time>2021-12-19T10:09:14Z</time>
      </trkpt>
      <trkpt lat="45.35109" lon="5.73309">
        <ele>1328.5</ele>
        <time>2021-12-19T10:09:15Z</time>
      </trkpt>
      <trkpt lat="45.35109" lon="5.73308">
        <ele>1328.6</ele>
        <time>2021-12-19T10:09:16Z</time>
      </trkpt>
      <trkpt lat="45.35109" lon="5.73307">
        <ele>1328.7</ele>
        <time>2021-12-19T10:09:17Z</time>
      </trkpt>
      <trkpt lat="45.35109" lon="5.73307">
        <ele>1328.8</ele>
        <time>2021-12-19T10:09:18Z</time>
      </trkpt>
      <trkpt lat="45.35108" lon="5.73305">
        <ele>1328.9</ele>
        <time>2021-12-19T10:09:19Z</time>
      </trkpt>
      <trkpt lat="45.35108" lon="5.73304">
        <ele>1329.1</ele>
        <time>2021-12-19T10:09:20Z</time>
      </trkpt>
      <trkpt lat="45.35108" lon="5.73303">
        <ele>1329.2</ele>
        <time>2021-12-19T10:09:21Z</time>
      </trkpt>
      <trkpt lat="45.35108" lon="5.73302">
        <ele>1329.3</ele>
        <time>2021-12-19T10:09:22Z</time>
      </trkpt>
      <trkpt lat="45.35109" lon="5.73301">
        <ele>1329.4</ele>
        <time>2021-12-19T10:09:23Z</time>
      </trkpt>
      <trkpt lat="45.35109" lon="5.733">
        <ele>1329.6</ele>
        <time>2021-12-19T10:09:24Z</time>
      </trkpt>
      <trkpt lat="45.35109" lon="5.73298">
        <ele>1329.8</ele>
        <time>2021-12-19T10:09:25Z</time>
      </trkpt>
      <trkpt lat="45.35109" lon="5.73297">
        <ele>1329.9</ele>
        <time>2021-12-19T10:09:26Z</time>
      </trkpt>
      <trkpt lat="45.35109" lon="5.73295">
        <ele>1330</ele>
        <time>2021-12-19T10:09:27Z</time>
      </trkpt>
      <trkpt lat="45.35109" lon="5.73294">
        <ele>1330.1</ele>
        <time>2021-12-19T10:09:28Z</time>
      </trkpt>
      <trkpt lat="45.35109" lon="5.73294">
        <ele>1330.2</ele>
        <time>2021-12-19T10:09:29Z</time>
      </trkpt>
      <trkpt lat="45.35109" lon="5.73292">
        <ele>1330.3</ele>
        <time>2021-12-19T10:09:30Z</time>
      </trkpt>
      <trkpt lat="45.3511" lon="5.73291">
        <ele>1330.5</ele>
        <time>2021-12-19T10:09:31Z</time>
      </trkpt>
      <trkpt lat="45.3511" lon="5.7329">
        <ele>1330.6</ele>
        <time>2021-12-19T10:09:32Z</time>
      </trkpt>
      <trkpt lat="45.35111" lon="5.73289">
        <ele>1330.8</ele>
        <time>2021-12-19T10:09:33Z</time>
      </trkpt>
      <trkpt lat="45.35112" lon="5.73287">
        <ele>1331</ele>
        <time>2021-12-19T10:09:34Z</time>
      </trkpt>
      <trkpt lat="45.35112" lon="5.73285">
        <ele>1331.1</ele>
        <time>2021-12-19T10:09:35Z</time>
      </trkpt>
      <trkpt lat="45.35113" lon="5.73284">
        <ele>1331.3</ele>
        <time>2021-12-19T10:09:36Z</time>
      </trkpt>
      <trkpt lat="45.35113" lon="5.73282">
        <ele>1331.5</ele>
        <time>2021-12-19T10:09:37Z</time>
      </trkpt>
      <trkpt lat="45.35113" lon="5.73281">
        <ele>1331.6</ele>
        <time>2021-12-19T10:09:38Z</time>
      </trkpt>
      <trkpt lat="45.35113" lon="5.73279">
        <ele>1331.8</ele>
        <time>2021-12-19T10:09:39Z</time>
      </trkpt>
      <trkpt lat="45.35114" lon="5.73278">
        <ele>1331.9</ele>
        <time>2021-12-19T10:09:40Z</time>
      </trkpt>
      <trkpt lat="45.35114" lon="5.73277">
        <ele>1332.1</ele>
        <time>2021-12-19T10:09:41Z</time>
      </trkpt>
      <trkpt lat="45.35115" lon="5.73275">
        <ele>1332.2</ele>
        <time>2021-12-19T10:09:42Z</time>
      </trkpt>
      <trkpt lat="45.35115" lon="5.73274">
        <ele>1332.3</ele>
        <time>2021-12-19T10:09:43Z</time>
      </trkpt>
      <trkpt lat="45.35116" lon="5.73273">
        <ele>1332.4</ele>
        <time>2021-12-19T10:09:44Z</time>
      </trkpt>
      <trkpt lat="45.35116" lon="5.73273">
        <ele>1332.5</ele>
        <time>2021-12-19T10:09:45Z</time>
      </trkpt>
      <trkpt lat="45.35116" lon="5.73272">
        <ele>1332.6</ele>
        <time>2021-12-19T10:09:46Z</time>
      </trkpt>
      <trkpt lat="45.35116" lon="5.73271">
        <ele>1332.7</ele>
        <time>2021-12-19T10:09:47Z</time>
      </trkpt>
      <trkpt lat="45.35117" lon="5.7327">
        <ele>1332.8</ele>
        <time>2021-12-19T10:09:48Z</time>
      </trkpt>
      <trkpt lat="45.35117" lon="5.7327">
        <ele>1332.9</ele>
        <time>2021-12-19T10:09:49Z</time>
      </trkpt>
      <trkpt lat="45.35118" lon="5.73269">
        <ele>1333</ele>
        <time>2021-12-19T10:09:50Z</time>
      </trkpt>
      <trkpt lat="45.35118" lon="5.73268">
        <ele>1333</ele>
        <time>2021-12-19T10:09:51Z</time>
      </trkpt>
      <trkpt lat="45.35119" lon="5.73268">
        <ele>1333.1</ele>
        <time>2021-12-19T10:09:52Z</time>
      </trkpt>
      <trkpt lat="45.35119" lon="5.73267">
        <ele>1333.3</ele>
        <time>2021-12-19T10:09:53Z</time>
      </trkpt>
      <trkpt lat="45.3512" lon="5.73266">
        <ele>1333.4</ele>
        <time>2021-12-19T10:09:54Z</time>
      </trkpt>
      <trkpt lat="45.3512" lon="5.73266">
        <ele>1333.4</ele>
        <time>2021-12-19T10:09:55Z</time>
      </trkpt>
      <trkpt lat="45.35121" lon="5.73265">
        <ele>1333.5</ele>
        <time>2021-12-19T10:09:56Z</time>
      </trkpt>
      <trkpt lat="45.35121" lon="5.73264">
        <ele>1333.6</ele>
        <time>2021-12-19T10:09:57Z</time>
      </trkpt>
      <trkpt lat="45.35121" lon="5.73264">
        <ele>1333.7</ele>
        <time>2021-12-19T10:09:58Z</time>
      </trkpt>
      <trkpt lat="45.35122" lon="5.73263">
        <ele>1333.8</ele>
        <time>2021-12-19T10:09:59Z</time>
      </trkpt>
      <trkpt lat="45.35122" lon="5.73262">
        <ele>1333.9</ele>
        <time>2021-12-19T10:10:00Z</time>
      </trkpt>
      <trkpt lat="45.35122" lon="5.73262">
        <ele>1334</ele>
        <time>2021-12-19T10:10:01Z</time>
      </trkpt>
      <trkpt lat="45.35123" lon="5.73261">
        <ele>1334.1</ele>
        <time>2021-12-19T10:10:02Z</time>
      </trkpt>
      <trkpt lat="45.35123" lon="5.73261">
        <ele>1334.2</ele>
        <time>2021-12-19T10:10:03Z</time>
      </trkpt>
      <trkpt lat="45.35123" lon="5.7326">
        <ele>1334.2</ele>
        <time>2021-12-19T10:10:04Z</time>
      </trkpt>
      <trkpt lat="45.35124" lon="5.73259">
        <ele>1334.4</ele>
        <time>2021-12-19T10:10:05Z</time>
      </trkpt>
      <trkpt lat="45.35124" lon="5.73258">
        <ele>1334.5</ele>
        <time>2021-12-19T10:10:06Z</time>
      </trkpt>
      <trkpt lat="45.35124" lon="5.73257">
        <ele>1334.6</ele>
        <time>2021-12-19T10:10:07Z</time>
      </trkpt>
      <trkpt lat="45.35125" lon="5.73256">
        <ele>1334.7</ele>
        <time>2021-12-19T10:10:08Z</time>
      </trkpt>
      <trkpt lat="45.35125" lon="5.73255">
        <ele>1334.8</ele>
        <time>2021-12-19T10:10:09Z</time>
      </trkpt>
      <trkpt lat="45.35125" lon="5.73255">
        <ele>1334.9</ele>
        <time>2021-12-19T10:10:10Z</time>
      </trkpt>
      <trkpt lat="45.35126" lon="5.73254">
        <ele>1335</ele>
        <time>2021-12-19T10:10:11Z</time>
      </trkpt>
      <trkpt lat="45.35126" lon="5.73253">
        <ele>1335.1</ele>
        <time>2021-12-19T10:10:12Z</time>
      </trkpt>
      <trkpt lat="45.35127" lon="5.73253">
        <ele>1335.2</ele>
        <time>2021-12-19T10:10:13Z</time>
      </trkpt>
      <trkpt lat="45.35127" lon="5.73252">
        <ele>1335.3</ele>
        <time>2021-12-19T10:10:14Z</time>
      </trkpt>
      <trkpt lat="45.35127" lon="5.73251">
        <ele>1335.4</ele>
        <time>2021-12-19T10:10:15Z</time>
      </trkpt>
      <trkpt lat="45.35127" lon="5.73249">
        <ele>1335.6</ele>
        <time>2021-12-19T10:10:16Z</time>
      </trkpt>
      <trkpt lat="45.35127" lon="5.73249">
        <ele>1335.6</ele>
        <time>2021-12-19T10:10:17Z</time>
      </trkpt>
      <trkpt lat="45.35127" lon="5.73248">
        <ele>1335.7</ele>
        <time>2021-12-19T10:10:18Z</time>
      </trkpt>
      <trkpt lat="45.35127" lon="5.73247">
        <ele>1335.8</ele>
        <time>2021-12-19T10:10:19Z</time>
      </trkpt>
      <trkpt lat="45.35127" lon="5.73247">
        <ele>1335.9</ele>
        <time>2021-12-19T10:10:20Z</time>
      </trkpt>
      <trkpt lat="45.35127" lon="5.73246">
        <ele>1336</ele>
        <time>2021-12-19T10:10:21Z</time>
      </trkpt>
      <trkpt lat="45.35127" lon="5.73245">
        <ele>1336.1</ele>
        <time>2021-12-19T10:10:22Z</time>
      </trkpt>
      <trkpt lat="45.35128" lon="5.73245">
        <ele>1336.1</ele>
        <time>2021-12-19T10:10:23Z</time>
      </trkpt>
      <trkpt lat="45.35127" lon="5.73244">
        <ele>1336.2</ele>
        <time>2021-12-19T10:10:24Z</time>
      </trkpt>
      <trkpt lat="45.35127" lon="5.73243">
        <ele>1336.3</ele>
        <time>2021-12-19T10:10:25Z</time>
      </trkpt>
      <trkpt lat="45.35127" lon="5.73242">
        <ele>1336.4</ele>
        <time>2021-12-19T10:10:26Z</time>
      </trkpt>
      <trkpt lat="45.35128" lon="5.73241">
        <ele>1336.5</ele>
        <time>2021-12-19T10:10:27Z</time>
      </trkpt>
      <trkpt lat="45.35128" lon="5.73241">
        <ele>1336.7</ele>
        <time>2021-12-19T10:10:28Z</time>
      </trkpt>
      <trkpt lat="45.35129" lon="5.7324">
        <ele>1336.8</ele>
        <time>2021-12-19T10:10:29Z</time>
      </trkpt>
      <trkpt lat="45.35129" lon="5.73239">
        <ele>1336.9</ele>
        <time>2021-12-19T10:10:30Z</time>
      </trkpt>
      <trkpt lat="45.35129" lon="5.73238">
        <ele>1337</ele>
        <time>2021-12-19T10:10:31Z</time>
      </trkpt>
      <trkpt lat="45.3513" lon="5.73237">
        <ele>1337.1</ele>
        <time>2021-12-19T10:10:32Z</time>
      </trkpt>
      <trkpt lat="45.3513" lon="5.73237">
        <ele>1337.2</ele>
        <time>2021-12-19T10:10:33Z</time>
      </trkpt>
      <trkpt lat="45.3513" lon="5.73236">
        <ele>1337.3</ele>
        <time>2021-12-19T10:10:34Z</time>
      </trkpt>
      <trkpt lat="45.3513" lon="5.73235">
        <ele>1337.4</ele>
        <time>2021-12-19T10:10:35Z</time>
      </trkpt>
      <trkpt lat="45.3513" lon="5.73235">
        <ele>1337.4</ele>
        <time>2021-12-19T10:10:36Z</time>
      </trkpt>
      <trkpt lat="45.3513" lon="5.73234">
        <ele>1337.5</ele>
        <time>2021-12-19T10:10:37Z</time>
      </trkpt>
      <trkpt lat="45.3513" lon="5.73233">
        <ele>1337.6</ele>
        <time>2021-12-19T10:10:38Z</time>
      </trkpt>
      <trkpt lat="45.3513" lon="5.73233">
        <ele>1337.7</ele>
        <time>2021-12-19T10:10:39Z</time>
      </trkpt>
      <trkpt lat="45.35131" lon="5.73232">
        <ele>1337.8</ele>
        <time>2021-12-19T10:10:40Z</time>
      </trkpt>
      <trkpt lat="45.35131" lon="5.73232">
        <ele>1337.9</ele>
        <time>2021-12-19T10:10:41Z</time>
      </trkpt>
      <trkpt lat="45.35131" lon="5.73231">
        <ele>1338</ele>
        <time>2021-12-19T10:10:42Z</time>
      </trkpt>
      <trkpt lat="45.35132" lon="5.7323">
        <ele>1338.1</ele>
        <time>2021-12-19T10:10:43Z</time>
      </trkpt>
      <trkpt lat="45.35132" lon="5.7323">
        <ele>1338.2</ele>
        <time>2021-12-19T10:10:44Z</time>
      </trkpt>
      <trkpt lat="45.35132" lon="5.73229">
        <ele>1338.3</ele>
        <time>2021-12-19T10:10:45Z</time>
      </trkpt>
      <trkpt lat="45.35132" lon="5.73229">
        <ele>1338.3</ele>
        <time>2021-12-19T10:10:46Z</time>
      </trkpt>
      <trkpt lat="45.35133" lon="5.73228">
        <ele>1338.4</ele>
        <time>2021-12-19T10:10:47Z</time>
      </trkpt>
      <trkpt lat="45.35133" lon="5.73228">
        <ele>1338.5</ele>
        <time>2021-12-19T10:10:48Z</time>
      </trkpt>
      <trkpt lat="45.35133" lon="5.73227">
        <ele>1338.6</ele>
        <time>2021-12-19T10:10:49Z</time>
      </trkpt>
      <trkpt lat="45.35134" lon="5.73227">
        <ele>1338.8</ele>
        <time>2021-12-19T10:10:50Z</time>
      </trkpt>
      <trkpt lat="45.35134" lon="5.73226">
        <ele>1338.9</ele>
        <time>2021-12-19T10:10:51Z</time>
      </trkpt>
      <trkpt lat="45.35134" lon="5.73226">
        <ele>1338.9</ele>
        <time>2021-12-19T10:10:52Z</time>
      </trkpt>
      <trkpt lat="45.35135" lon="5.73225">
        <ele>1339</ele>
        <time>2021-12-19T10:10:53Z</time>
      </trkpt>
      <trkpt lat="45.35135" lon="5.73224">
        <ele>1339.1</ele>
        <time>2021-12-19T10:10:54Z</time>
      </trkpt>
      <trkpt lat="45.35136" lon="5.73224">
        <ele>1339.3</ele>
        <time>2021-12-19T10:10:55Z</time>
      </trkpt>
      <trkpt lat="45.35136" lon="5.73223">
        <ele>1339.3</ele>
        <time>2021-12-19T10:10:56Z</time>
      </trkpt>
      <trkpt lat="45.35136" lon="5.73223">
        <ele>1339.4</ele>
        <time>2021-12-19T10:10:57Z</time>
      </trkpt>
      <trkpt lat="45.35137" lon="5.73222">
        <ele>1339.6</ele>
        <time>2021-12-19T10:10:58Z</time>
      </trkpt>
      <trkpt lat="45.35138" lon="5.73222">
        <ele>1339.7</ele>
        <time>2021-12-19T10:10:59Z</time>
      </trkpt>
      <trkpt lat="45.35138" lon="5.73222">
        <ele>1339.8</ele>
        <time>2021-12-19T10:11:00Z</time>
      </trkpt>
      <trkpt lat="45.35139" lon="5.73222">
        <ele>1340</ele>
        <time>2021-12-19T10:11:01Z</time>
      </trkpt>
      <trkpt lat="45.35139" lon="5.7322">
        <ele>1340.2</ele>
        <time>2021-12-19T10:11:02Z</time>
      </trkpt>
      <trkpt lat="45.3514" lon="5.7322">
        <ele>1340.4</ele>
        <time>2021-12-19T10:11:03Z</time>
      </trkpt>
      <trkpt lat="45.35141" lon="5.73219">
        <ele>1340.5</ele>
        <time>2021-12-19T10:11:04Z</time>
      </trkpt>
      <trkpt lat="45.35142" lon="5.73218">
        <ele>1340.8</ele>
        <time>2021-12-19T10:11:05Z</time>
      </trkpt>
      <trkpt lat="45.35143" lon="5.73218">
        <ele>1340.9</ele>
        <time>2021-12-19T10:11:06Z</time>
      </trkpt>
      <trkpt lat="45.35144" lon="5.73217">
        <ele>1341.1</ele>
        <time>2021-12-19T10:11:07Z</time>
      </trkpt>
      <trkpt lat="45.35145" lon="5.73217">
        <ele>1341.3</ele>
        <time>2021-12-19T10:11:08Z</time>
      </trkpt>
      <trkpt lat="45.35145" lon="5.73217">
        <ele>1341.4</ele>
        <time>2021-12-19T10:11:09Z</time>
      </trkpt>
      <trkpt lat="45.35146" lon="5.73216">
        <ele>1341.5</ele>
        <time>2021-12-19T10:11:10Z</time>
      </trkpt>
      <trkpt lat="45.35147" lon="5.73215">
        <ele>1341.7</ele>
        <time>2021-12-19T10:11:11Z</time>
      </trkpt>
      <trkpt lat="45.35147" lon="5.73215">
        <ele>1341.8</ele>
        <time>2021-12-19T10:11:12Z</time>
      </trkpt>
      <trkpt lat="45.35148" lon="5.73214">
        <ele>1341.9</ele>
        <time>2021-12-19T10:11:13Z</time>
      </trkpt>
      <trkpt lat="45.35149" lon="5.73214">
        <ele>1342.1</ele>
        <time>2021-12-19T10:11:14Z</time>
      </trkpt>
      <trkpt lat="45.35149" lon="5.73214">
        <ele>1342.2</ele>
        <time>2021-12-19T10:11:15Z</time>
      </trkpt>
      <trkpt lat="45.3515" lon="5.73213">
        <ele>1342.4</ele>
        <time>2021-12-19T10:11:16Z</time>
      </trkpt>
      <trkpt lat="45.35151" lon="5.73213">
        <ele>1342.5</ele>
        <time>2021-12-19T10:11:17Z</time>
      </trkpt>
      <trkpt lat="45.35151" lon="5.73212">
        <ele>1342.6</ele>
        <time>2021-12-19T10:11:18Z</time>
      </trkpt>
      <trkpt lat="45.35151" lon="5.73211">
        <ele>1342.7</ele>
        <time>2021-12-19T10:11:19Z</time>
      </trkpt>
      <trkpt lat="45.35152" lon="5.73211">
        <ele>1342.8</ele>
        <time>2021-12-19T10:11:20Z</time>
      </trkpt>
      <trkpt lat="45.35153" lon="5.73211">
        <ele>1343</ele>
        <time>2021-12-19T10:11:21Z</time>
      </trkpt>
      <trkpt lat="45.35153" lon="5.73211">
        <ele>1343.1</ele>
        <time>2021-12-19T10:11:22Z</time>
      </trkpt>
      <trkpt lat="45.35153" lon="5.7321">
        <ele>1343.2</ele>
        <time>2021-12-19T10:11:23Z</time>
      </trkpt>
      <trkpt lat="45.35153" lon="5.73209">
        <ele>1343.2</ele>
        <time>2021-12-19T10:11:24Z</time>
      </trkpt>
      <trkpt lat="45.35153" lon="5.73209">
        <ele>1343.3</ele>
        <time>2021-12-19T10:11:25Z</time>
      </trkpt>
      <trkpt lat="45.35154" lon="5.73208">
        <ele>1343.4</ele>
        <time>2021-12-19T10:11:26Z</time>
      </trkpt>
      <trkpt lat="45.35154" lon="5.73208">
        <ele>1343.5</ele>
        <time>2021-12-19T10:11:27Z</time>
      </trkpt>
      <trkpt lat="45.35154" lon="5.73207">
        <ele>1343.6</ele>
        <time>2021-12-19T10:11:28Z</time>
      </trkpt>
      <trkpt lat="45.35154" lon="5.73207">
        <ele>1343.6</ele>
        <time>2021-12-19T10:11:29Z</time>
      </trkpt>
      <trkpt lat="45.35154" lon="5.73207">
        <ele>1343.7</ele>
        <time>2021-12-19T10:11:30Z</time>
      </trkpt>
      <trkpt lat="45.35154" lon="5.73207">
        <ele>1343.7</ele>
        <time>2021-12-19T10:11:31Z</time>
      </trkpt>
      <trkpt lat="45.35155" lon="5.73207">
        <ele>1343.8</ele>
        <time>2021-12-19T10:11:32Z</time>
      </trkpt>
      <trkpt lat="45.35155" lon="5.73208">
        <ele>1343.9</ele>
        <time>2021-12-19T10:11:33Z</time>
      </trkpt>
      <trkpt lat="45.35155" lon="5.73208">
        <ele>1344</ele>
        <time>2021-12-19T10:11:34Z</time>
      </trkpt>
      <trkpt lat="45.35155" lon="5.73208">
        <ele>1344.1</ele>
        <time>2021-12-19T10:11:35Z</time>
      </trkpt>
      <trkpt lat="45.35156" lon="5.73207">
        <ele>1344.3</ele>
        <time>2021-12-19T10:11:36Z</time>
      </trkpt>
      <trkpt lat="45.35157" lon="5.73207">
        <ele>1344.5</ele>
        <time>2021-12-19T10:11:37Z</time>
      </trkpt>
      <trkpt lat="45.35158" lon="5.73206">
        <ele>1344.7</ele>
        <time>2021-12-19T10:11:38Z</time>
      </trkpt>
      <trkpt lat="45.35159" lon="5.73205">
        <ele>1344.8</ele>
        <time>2021-12-19T10:11:39Z</time>
      </trkpt>
      <trkpt lat="45.35159" lon="5.73205">
        <ele>1344.9</ele>
        <time>2021-12-19T10:11:40Z</time>
      </trkpt>
      <trkpt lat="45.3516" lon="5.73205">
        <ele>1345.1</ele>
        <time>2021-12-19T10:11:41Z</time>
      </trkpt>
      <trkpt lat="45.35161" lon="5.73204">
        <ele>1345.3</ele>
        <time>2021-12-19T10:11:42Z</time>
      </trkpt>
      <trkpt lat="45.35162" lon="5.73204">
        <ele>1345.4</ele>
        <time>2021-12-19T10:11:43Z</time>
      </trkpt>
      <trkpt lat="45.35162" lon="5.73203">
        <ele>1345.5</ele>
        <time>2021-12-19T10:11:44Z</time>
      </trkpt>
      <trkpt lat="45.35162" lon="5.73203">
        <ele>1345.6</ele>
        <time>2021-12-19T10:11:45Z</time>
      </trkpt>
      <trkpt lat="45.35163" lon="5.73202">
        <ele>1345.6</ele>
        <time>2021-12-19T10:11:46Z</time>
      </trkpt>
      <trkpt lat="45.35163" lon="5.73202">
        <ele>1345.7</ele>
        <time>2021-12-19T10:11:47Z</time>
      </trkpt>
      <trkpt lat="45.35164" lon="5.73201">
        <ele>1345.8</ele>
        <time>2021-12-19T10:11:48Z</time>
      </trkpt>
      <trkpt lat="45.35165" lon="5.73202">
        <ele>1346</ele>
        <time>2021-12-19T10:11:49Z</time>
      </trkpt>
      <trkpt lat="45.35165" lon="5.73201">
        <ele>1346.2</ele>
        <time>2021-12-19T10:11:50Z</time>
      </trkpt>
      <trkpt lat="45.35166" lon="5.73201">
        <ele>1346.3</ele>
        <time>2021-12-19T10:11:51Z</time>
      </trkpt>
      <trkpt lat="45.35166" lon="5.73201">
        <ele>1346.4</ele>
        <time>2021-12-19T10:11:52Z</time>
      </trkpt>
      <trkpt lat="45.35167" lon="5.73201">
        <ele>1346.5</ele>
        <time>2021-12-19T10:11:53Z</time>
      </trkpt>
      <trkpt lat="45.35167" lon="5.732">
        <ele>1346.6</ele>
        <time>2021-12-19T10:11:54Z</time>
      </trkpt>
      <trkpt lat="45.35168" lon="5.732">
        <ele>1346.7</ele>
        <time>2021-12-19T10:11:55Z</time>
      </trkpt>
      <trkpt lat="45.35168" lon="5.73199">
        <ele>1346.8</ele>
        <time>2021-12-19T10:11:56Z</time>
      </trkpt>
      <trkpt lat="45.35169" lon="5.73199">
        <ele>1346.9</ele>
        <time>2021-12-19T10:11:57Z</time>
      </trkpt>
      <trkpt lat="45.35169" lon="5.73198">
        <ele>1347</ele>
        <time>2021-12-19T10:11:58Z</time>
      </trkpt>
      <trkpt lat="45.35169" lon="5.73198">
        <ele>1347.1</ele>
        <time>2021-12-19T10:11:59Z</time>
      </trkpt>
      <trkpt lat="45.3517" lon="5.73197">
        <ele>1347.2</ele>
        <time>2021-12-19T10:12:00Z</time>
      </trkpt>
      <trkpt lat="45.3517" lon="5.73197">
        <ele>1347.3</ele>
        <time>2021-12-19T10:12:01Z</time>
      </trkpt>
      <trkpt lat="45.35171" lon="5.73196">
        <ele>1347.4</ele>
        <time>2021-12-19T10:12:02Z</time>
      </trkpt>
      <trkpt lat="45.35171" lon="5.73196">
        <ele>1347.5</ele>
        <time>2021-12-19T10:12:03Z</time>
      </trkpt>
      <trkpt lat="45.35171" lon="5.73196">
        <ele>1347.6</ele>
        <time>2021-12-19T10:12:04Z</time>
      </trkpt>
      <trkpt lat="45.35172" lon="5.73195">
        <ele>1347.7</ele>
        <time>2021-12-19T10:12:05Z</time>
      </trkpt>
      <trkpt lat="45.35172" lon="5.73195">
        <ele>1347.7</ele>
        <time>2021-12-19T10:12:06Z</time>
      </trkpt>
      <trkpt lat="45.35172" lon="5.73194">
        <ele>1347.9</ele>
        <time>2021-12-19T10:12:07Z</time>
      </trkpt>
      <trkpt lat="45.35172" lon="5.73192">
        <ele>1348</ele>
        <time>2021-12-19T10:12:08Z</time>
      </trkpt>
      <trkpt lat="45.35172" lon="5.73192">
        <ele>1348.1</ele>
        <time>2021-12-19T10:12:09Z</time>
      </trkpt>
      <trkpt lat="45.35173" lon="5.73192">
        <ele>1348.3</ele>
        <time>2021-12-19T10:12:10Z</time>
      </trkpt>
      <trkpt lat="45.35173" lon="5.73191">
        <ele>1348.4</ele>
        <time>2021-12-19T10:12:11Z</time>
      </trkpt>
      <trkpt lat="45.35174" lon="5.7319">
        <ele>1348.5</ele>
        <time>2021-12-19T10:12:12Z</time>
      </trkpt>
      <trkpt lat="45.35174" lon="5.73189">
        <ele>1348.7</ele>
        <time>2021-12-19T10:12:13Z</time>
      </trkpt>
      <trkpt lat="45.35174" lon="5.73188">
        <ele>1348.8</ele>
        <time>2021-12-19T10:12:14Z</time>
      </trkpt>
      <trkpt lat="45.35175" lon="5.73187">
        <ele>1348.9</ele>
        <time>2021-12-19T10:12:15Z</time>
      </trkpt>
      <trkpt lat="45.35175" lon="5.73186">
        <ele>1349</ele>
        <time>2021-12-19T10:12:16Z</time>
      </trkpt>
      <trkpt lat="45.35175" lon="5.73186">
        <ele>1349.2</ele>
        <time>2021-12-19T10:12:17Z</time>
      </trkpt>
      <trkpt lat="45.35176" lon="5.73185">
        <ele>1349.3</ele>
        <time>2021-12-19T10:12:18Z</time>
      </trkpt>
      <trkpt lat="45.35176" lon="5.73184">
        <ele>1349.4</ele>
        <time>2021-12-19T10:12:19Z</time>
      </trkpt>
      <trkpt lat="45.35176" lon="5.73183">
        <ele>1349.6</ele>
        <time>2021-12-19T10:12:20Z</time>
      </trkpt>
      <trkpt lat="45.35177" lon="5.73182">
        <ele>1349.8</ele>
        <time>2021-12-19T10:12:21Z</time>
      </trkpt>
      <trkpt lat="45.35177" lon="5.73181">
        <ele>1349.9</ele>
        <time>2021-12-19T10:12:22Z</time>
      </trkpt>
      <trkpt lat="45.35178" lon="5.7318">
        <ele>1350.1</ele>
        <time>2021-12-19T10:12:23Z</time>
      </trkpt>
      <trkpt lat="45.35179" lon="5.73179">
        <ele>1350.3</ele>
        <time>2021-12-19T10:12:24Z</time>
      </trkpt>
      <trkpt lat="45.3518" lon="5.73179">
        <ele>1350.4</ele>
        <time>2021-12-19T10:12:25Z</time>
      </trkpt>
      <trkpt lat="45.3518" lon="5.73178">
        <ele>1350.6</ele>
        <time>2021-12-19T10:12:26Z</time>
      </trkpt>
      <trkpt lat="45.35181" lon="5.73178">
        <ele>1350.7</ele>
        <time>2021-12-19T10:12:27Z</time>
      </trkpt>
      <trkpt lat="45.35182" lon="5.73177">
        <ele>1350.9</ele>
        <time>2021-12-19T10:12:28Z</time>
      </trkpt>
      <trkpt lat="45.35182" lon="5.73176">
        <ele>1351</ele>
        <time>2021-12-19T10:12:29Z</time>
      </trkpt>
      <trkpt lat="45.35183" lon="5.73176">
        <ele>1351.2</ele>
        <time>2021-12-19T10:12:30Z</time>
      </trkpt>
      <trkpt lat="45.35184" lon="5.73175">
        <ele>1351.3</ele>
        <time>2021-12-19T10:12:31Z</time>
      </trkpt>
      <trkpt lat="45.35185" lon="5.73174">
        <ele>1351.5</ele>
        <time>2021-12-19T10:12:32Z</time>
      </trkpt>
      <trkpt lat="45.35185" lon="5.73173">
        <ele>1351.6</ele>
        <time>2021-12-19T10:12:33Z</time>
      </trkpt>
      <trkpt lat="45.35186" lon="5.73172">
        <ele>1351.8</ele>
        <time>2021-12-19T10:12:34Z</time>
      </trkpt>
      <trkpt lat="45.35186" lon="5.73172">
        <ele>1352</ele>
        <time>2021-12-19T10:12:35Z</time>
      </trkpt>
      <trkpt lat="45.35187" lon="5.73171">
        <ele>1352.1</ele>
        <time>2021-12-19T10:12:36Z</time>
      </trkpt>
      <trkpt lat="45.35187" lon="5.7317">
        <ele>1352.3</ele>
        <time>2021-12-19T10:12:37Z</time>
      </trkpt>
      <trkpt lat="45.35188" lon="5.73169">
        <ele>1352.4</ele>
        <time>2021-12-19T10:12:38Z</time>
      </trkpt>
      <trkpt lat="45.35189" lon="5.73169">
        <ele>1352.6</ele>
        <time>2021-12-19T10:12:39Z</time>
      </trkpt>
      <trkpt lat="45.3519" lon="5.73169">
        <ele>1352.7</ele>
        <time>2021-12-19T10:12:40Z</time>
      </trkpt>
      <trkpt lat="45.35191" lon="5.73169">
        <ele>1352.9</ele>
        <time>2021-12-19T10:12:41Z</time>
      </trkpt>
      <trkpt lat="45.35192" lon="5.73168">
        <ele>1353.1</ele>
        <time>2021-12-19T10:12:42Z</time>
      </trkpt>
      <trkpt lat="45.35193" lon="5.73168">
        <ele>1353.3</ele>
        <time>2021-12-19T10:12:43Z</time>
      </trkpt>
      <trkpt lat="45.35193" lon="5.73168">
        <ele>1353.4</ele>
        <time>2021-12-19T10:12:44Z</time>
      </trkpt>
      <trkpt lat="45.35194" lon="5.73167">
        <ele>1353.5</ele>
        <time>2021-12-19T10:12:45Z</time>
      </trkpt>
      <trkpt lat="45.35194" lon="5.73167">
        <ele>1353.6</ele>
        <time>2021-12-19T10:12:46Z</time>
      </trkpt>
      <trkpt lat="45.35194" lon="5.73166">
        <ele>1353.7</ele>
        <time>2021-12-19T10:12:47Z</time>
      </trkpt>
      <trkpt lat="45.35195" lon="5.73165">
        <ele>1353.8</ele>
        <time>2021-12-19T10:12:48Z</time>
      </trkpt>
      <trkpt lat="45.35195" lon="5.73164">
        <ele>1354</ele>
        <time>2021-12-19T10:12:49Z</time>
      </trkpt>
      <trkpt lat="45.35195" lon="5.73164">
        <ele>1354.1</ele>
        <time>2021-12-19T10:12:50Z</time>
      </trkpt>
      <trkpt lat="45.35196" lon="5.73163">
        <ele>1354.2</ele>
        <time>2021-12-19T10:12:51Z</time>
      </trkpt>
      <trkpt lat="45.35196" lon="5.73163">
        <ele>1354.3</ele>
        <time>2021-12-19T10:12:52Z</time>
      </trkpt>
      <trkpt lat="45.35197" lon="5.73162">
        <ele>1354.4</ele>
        <time>2021-12-19T10:12:53Z</time>
      </trkpt>
      <trkpt lat="45.35196" lon="5.73162">
        <ele>1354.5</ele>
        <time>2021-12-19T10:12:54Z</time>
      </trkpt>
      <trkpt lat="45.35197" lon="5.73162">
        <ele>1354.6</ele>
        <time>2021-12-19T10:12:55Z</time>
      </trkpt>
      <trkpt lat="45.35197" lon="5.73161">
        <ele>1354.7</ele>
        <time>2021-12-19T10:12:56Z</time>
      </trkpt>
      <trkpt lat="45.35197" lon="5.73161">
        <ele>1354.8</ele>
        <time>2021-12-19T10:12:57Z</time>
      </trkpt>
      <trkpt lat="45.35198" lon="5.7316">
        <ele>1354.9</ele>
        <time>2021-12-19T10:12:58Z</time>
      </trkpt>
      <trkpt lat="45.35198" lon="5.7316">
        <ele>1355</ele>
        <time>2021-12-19T10:12:59Z</time>
      </trkpt>
      <trkpt lat="45.35198" lon="5.73159">
        <ele>1355.1</ele>
        <time>2021-12-19T10:13:00Z</time>
      </trkpt>
      <trkpt lat="45.35199" lon="5.73158">
        <ele>1355.2</ele>
        <time>2021-12-19T10:13:01Z</time>
      </trkpt>
      <trkpt lat="45.35199" lon="5.73158">
        <ele>1355.3</ele>
        <time>2021-12-19T10:13:02Z</time>
      </trkpt>
      <trkpt lat="45.35199" lon="5.73157">
        <ele>1355.4</ele>
        <time>2021-12-19T10:13:03Z</time>
      </trkpt>
      <trkpt lat="45.352" lon="5.73156">
        <ele>1355.6</ele>
        <time>2021-12-19T10:13:04Z</time>
      </trkpt>
      <trkpt lat="45.352" lon="5.73155">
        <ele>1355.7</ele>
        <time>2021-12-19T10:13:05Z</time>
      </trkpt>
      <trkpt lat="45.352" lon="5.73155">
        <ele>1355.8</ele>
        <time>2021-12-19T10:13:06Z</time>
      </trkpt>
      <trkpt lat="45.35201" lon="5.73154">
        <ele>1355.9</ele>
        <time>2021-12-19T10:13:07Z</time>
      </trkpt>
      <trkpt lat="45.35202" lon="5.73154">
        <ele>1356</ele>
        <time>2021-12-19T10:13:08Z</time>
      </trkpt>
      <trkpt lat="45.35202" lon="5.73153">
        <ele>1356.2</ele>
        <time>2021-12-19T10:13:09Z</time>
      </trkpt>
      <trkpt lat="45.35202" lon="5.73152">
        <ele>1356.3</ele>
        <time>2021-12-19T10:13:10Z</time>
      </trkpt>
      <trkpt lat="45.35202" lon="5.73151">
        <ele>1356.4</ele>
        <time>2021-12-19T10:13:11Z</time>
      </trkpt>
      <trkpt lat="45.35203" lon="5.7315">
        <ele>1356.6</ele>
        <time>2021-12-19T10:13:12Z</time>
      </trkpt>
      <trkpt lat="45.35203" lon="5.7315">
        <ele>1356.6</ele>
        <time>2021-12-19T10:13:13Z</time>
      </trkpt>
      <trkpt lat="45.35203" lon="5.73149">
        <ele>1356.8</ele>
        <time>2021-12-19T10:13:14Z</time>
      </trkpt>
      <trkpt lat="45.35203" lon="5.73148">
        <ele>1356.9</ele>
        <time>2021-12-19T10:13:15Z</time>
      </trkpt>
      <trkpt lat="45.35203" lon="5.73146">
        <ele>1357.1</ele>
        <time>2021-12-19T10:13:16Z</time>
      </trkpt>
      <trkpt lat="45.35203" lon="5.73145">
        <ele>1357.3</ele>
        <time>2021-12-19T10:13:17Z</time>
      </trkpt>
      <trkpt lat="45.35203" lon="5.73144">
        <ele>1357.4</ele>
        <time>2021-12-19T10:13:18Z</time>
      </trkpt>
      <trkpt lat="45.35203" lon="5.73144">
        <ele>1357.5</ele>
        <time>2021-12-19T10:13:19Z</time>
      </trkpt>
      <trkpt lat="45.35204" lon="5.73144">
        <ele>1357.6</ele>
        <time>2021-12-19T10:13:20Z</time>
      </trkpt>
      <trkpt lat="45.35204" lon="5.73143">
        <ele>1357.7</ele>
        <time>2021-12-19T10:13:21Z</time>
      </trkpt>
      <trkpt lat="45.35204" lon="5.73143">
        <ele>1357.7</ele>
        <time>2021-12-19T10:13:22Z</time>
      </trkpt>
      <trkpt lat="45.35204" lon="5.73142">
        <ele>1357.8</ele>
        <time>2021-12-19T10:13:23Z</time>
      </trkpt>
      <trkpt lat="45.35205" lon="5.73142">
        <ele>1357.9</ele>
        <time>2021-12-19T10:13:24Z</time>
      </trkpt>
      <trkpt lat="45.35205" lon="5.73142">
        <ele>1358</ele>
        <time>2021-12-19T10:13:25Z</time>
      </trkpt>
      <trkpt lat="45.35206" lon="5.73141">
        <ele>1358.1</ele>
        <time>2021-12-19T10:13:26Z</time>
      </trkpt>
      <trkpt lat="45.35206" lon="5.7314">
        <ele>1358.2</ele>
        <time>2021-12-19T10:13:27Z</time>
      </trkpt>
      <trkpt lat="45.35207" lon="5.7314">
        <ele>1358.3</ele>
        <time>2021-12-19T10:13:28Z</time>
      </trkpt>
      <trkpt lat="45.35208" lon="5.73141">
        <ele>1358.7</ele>
        <time>2021-12-19T10:13:29Z</time>
      </trkpt>
      <trkpt lat="45.35209" lon="5.73141">
        <ele>1358.8</ele>
        <time>2021-12-19T10:13:30Z</time>
      </trkpt>
      <trkpt lat="45.3521" lon="5.7314">
        <ele>1359.1</ele>
        <time>2021-12-19T10:13:31Z</time>
      </trkpt>
      <trkpt lat="45.35211" lon="5.73141">
        <ele>1359.3</ele>
        <time>2021-12-19T10:13:32Z</time>
      </trkpt>
      <trkpt lat="45.35211" lon="5.7314">
        <ele>1359.5</ele>
        <time>2021-12-19T10:13:33Z</time>
      </trkpt>
      <trkpt lat="45.35212" lon="5.73139">
        <ele>1359.7</ele>
        <time>2021-12-19T10:13:34Z</time>
      </trkpt>
      <trkpt lat="45.35212" lon="5.73138">
        <ele>1359.8</ele>
        <time>2021-12-19T10:13:35Z</time>
      </trkpt>
      <trkpt lat="45.35213" lon="5.73138">
        <ele>1360</ele>
        <time>2021-12-19T10:13:36Z</time>
      </trkpt>
      <trkpt lat="45.35213" lon="5.73138">
        <ele>1360.1</ele>
        <time>2021-12-19T10:13:37Z</time>
      </trkpt>
      <trkpt lat="45.35215" lon="5.73139">
        <ele>1360.5</ele>
        <time>2021-12-19T10:13:38Z</time>
      </trkpt>
      <trkpt lat="45.35216" lon="5.73139">
        <ele>1360.7</ele>
        <time>2021-12-19T10:13:39Z</time>
      </trkpt>
      <trkpt lat="45.35217" lon="5.7314">
        <ele>1361.1</ele>
        <time>2021-12-19T10:13:40Z</time>
      </trkpt>
      <trkpt lat="45.35219" lon="5.73141">
        <ele>1361.3</ele>
        <time>2021-12-19T10:13:41Z</time>
      </trkpt>
      <trkpt lat="45.3522" lon="5.73141">
        <ele>1361.6</ele>
        <time>2021-12-19T10:13:42Z</time>
      </trkpt>
      <trkpt lat="45.3522" lon="5.73141">
        <ele>1361.8</ele>
        <time>2021-12-19T10:13:43Z</time>
      </trkpt>
      <trkpt lat="45.35221" lon="5.73141">
        <ele>1362</ele>
        <time>2021-12-19T10:13:44Z</time>
      </trkpt>
      <trkpt lat="45.35222" lon="5.73141">
        <ele>1362.1</ele>
        <time>2021-12-19T10:13:45Z</time>
      </trkpt>
      <trkpt lat="45.35222" lon="5.73142">
        <ele>1362.4</ele>
        <time>2021-12-19T10:13:46Z</time>
      </trkpt>
      <trkpt lat="45.35223" lon="5.73142">
        <ele>1362.5</ele>
        <time>2021-12-19T10:13:47Z</time>
      </trkpt>
      <trkpt lat="45.35223" lon="5.73143">
        <ele>1362.7</ele>
        <time>2021-12-19T10:13:48Z</time>
      </trkpt>
      <trkpt lat="45.35224" lon="5.73144">
        <ele>1362.8</ele>
        <time>2021-12-19T10:13:49Z</time>
      </trkpt>
      <trkpt lat="45.35224" lon="5.73144">
        <ele>1363</ele>
        <time>2021-12-19T10:13:50Z</time>
      </trkpt>
      <trkpt lat="45.35225" lon="5.73145">
        <ele>1363.2</ele>
        <time>2021-12-19T10:13:51Z</time>
      </trkpt>
      <trkpt lat="45.35226" lon="5.73145">
        <ele>1363.5</ele>
        <time>2021-12-19T10:13:52Z</time>
      </trkpt>
      <trkpt lat="45.35227" lon="5.73146">
        <ele>1363.6</ele>
        <time>2021-12-19T10:13:53Z</time>
      </trkpt>
      <trkpt lat="45.35227" lon="5.73147">
        <ele>1363.9</ele>
        <time>2021-12-19T10:13:54Z</time>
      </trkpt>
      <trkpt lat="45.35227" lon="5.73148">
        <ele>1364.1</ele>
        <time>2021-12-19T10:13:55Z</time>
      </trkpt>
      <trkpt lat="45.35228" lon="5.73149">
        <ele>1364.3</ele>
        <time>2021-12-19T10:13:56Z</time>
      </trkpt>
      <trkpt lat="45.35228" lon="5.7315">
        <ele>1364.5</ele>
        <time>2021-12-19T10:13:57Z</time>
      </trkpt>
      <trkpt lat="45.35228" lon="5.73151">
        <ele>1364.7</ele>
        <time>2021-12-19T10:13:58Z</time>
      </trkpt>
      <trkpt lat="45.35229" lon="5.73152">
        <ele>1364.9</ele>
        <time>2021-12-19T10:13:59Z</time>
      </trkpt>
      <trkpt lat="45.35229" lon="5.73153">
        <ele>1365.2</ele>
        <time>2021-12-19T10:14:00Z</time>
      </trkpt>
      <trkpt lat="45.35229" lon="5.73154">
        <ele>1365.3</ele>
        <time>2021-12-19T10:14:01Z</time>
      </trkpt>
      <trkpt lat="45.35229" lon="5.73155">
        <ele>1365.5</ele>
        <time>2021-12-19T10:14:02Z</time>
      </trkpt>
      <trkpt lat="45.35229" lon="5.73155">
        <ele>1365.5</ele>
        <time>2021-12-19T10:14:03Z</time>
      </trkpt>
      <trkpt lat="45.35229" lon="5.73156">
        <ele>1365.7</ele>
        <time>2021-12-19T10:14:04Z</time>
      </trkpt>
      <trkpt lat="45.3523" lon="5.73156">
        <ele>1365.8</ele>
        <time>2021-12-19T10:14:05Z</time>
      </trkpt>
      <trkpt lat="45.3523" lon="5.73157">
        <ele>1366.1</ele>
        <time>2021-12-19T10:14:06Z</time>
      </trkpt>
      <trkpt lat="45.3523" lon="5.73158">
        <ele>1366.2</ele>
        <time>2021-12-19T10:14:07Z</time>
      </trkpt>
      <trkpt lat="45.3523" lon="5.73159">
        <ele>1366.4</ele>
        <time>2021-12-19T10:14:08Z</time>
      </trkpt>
      <trkpt lat="45.3523" lon="5.7316">
        <ele>1366.6</ele>
        <time>2021-12-19T10:14:09Z</time>
      </trkpt>
      <trkpt lat="45.3523" lon="5.73161">
        <ele>1366.8</ele>
        <time>2021-12-19T10:14:10Z</time>
      </trkpt>
      <trkpt lat="45.3523" lon="5.73162">
        <ele>1367</ele>
        <time>2021-12-19T10:14:11Z</time>
      </trkpt>
      <trkpt lat="45.3523" lon="5.73163">
        <ele>1367.2</ele>
        <time>2021-12-19T10:14:12Z</time>
      </trkpt>
      <trkpt lat="45.35229" lon="5.73164">
        <ele>1367.4</ele>
        <time>2021-12-19T10:14:13Z</time>
      </trkpt>
      <trkpt lat="45.3523" lon="5.73165">
        <ele>1367.6</ele>
        <time>2021-12-19T10:14:14Z</time>
      </trkpt>
      <trkpt lat="45.35229" lon="5.73165">
        <ele>1367.7</ele>
        <time>2021-12-19T10:14:15Z</time>
      </trkpt>
      <trkpt lat="45.35229" lon="5.73166">
        <ele>1367.8</ele>
        <time>2021-12-19T10:14:16Z</time>
      </trkpt>
      <trkpt lat="45.35229" lon="5.73167">
        <ele>1368.1</ele>
        <time>2021-12-19T10:14:17Z</time>
      </trkpt>
      <trkpt lat="45.35228" lon="5.73168">
        <ele>1368.4</ele>
        <time>2021-12-19T10:14:18Z</time>
      </trkpt>
      <trkpt lat="45.35229" lon="5.73169">
        <ele>1368.5</ele>
        <time>2021-12-19T10:14:19Z</time>
      </trkpt>
      <trkpt lat="45.35229" lon="5.7317">
        <ele>1368.7</ele>
        <time>2021-12-19T10:14:20Z</time>
      </trkpt>
      <trkpt lat="45.35229" lon="5.7317">
        <ele>1368.8</ele>
        <time>2021-12-19T10:14:21Z</time>
      </trkpt>
      <trkpt lat="45.35229" lon="5.73171">
        <ele>1369</ele>
        <time>2021-12-19T10:14:22Z</time>
      </trkpt>
      <trkpt lat="45.35229" lon="5.73172">
        <ele>1369.2</ele>
        <time>2021-12-19T10:14:23Z</time>
      </trkpt>
      <trkpt lat="45.35228" lon="5.73172">
        <ele>1369.3</ele>
        <time>2021-12-19T10:14:24Z</time>
      </trkpt>
      <trkpt lat="45.35228" lon="5.73173">
        <ele>1369.5</ele>
        <time>2021-12-19T10:14:25Z</time>
      </trkpt>
      <trkpt lat="45.35227" lon="5.73174">
        <ele>1369.7</ele>
        <time>2021-12-19T10:14:26Z</time>
      </trkpt>
      <trkpt lat="45.35227" lon="5.73175">
        <ele>1369.9</ele>
        <time>2021-12-19T10:14:27Z</time>
      </trkpt>
      <trkpt lat="45.35227" lon="5.73175">
        <ele>1370</ele>
        <time>2021-12-19T10:14:28Z</time>
      </trkpt>
      <trkpt lat="45.35227" lon="5.73176">
        <ele>1370.2</ele>
        <time>2021-12-19T10:14:29Z</time>
      </trkpt>
      <trkpt lat="45.35226" lon="5.73176">
        <ele>1370.3</ele>
        <time>2021-12-19T10:14:30Z</time>
      </trkpt>
      <trkpt lat="45.35226" lon="5.73177">
        <ele>1370.5</ele>
        <time>2021-12-19T10:14:31Z</time>
      </trkpt>
      <trkpt lat="45.35226" lon="5.73178">
        <ele>1370.6</ele>
        <time>2021-12-19T10:14:32Z</time>
      </trkpt>
      <trkpt lat="45.35226" lon="5.73178">
        <ele>1370.8</ele>
        <time>2021-12-19T10:14:33Z</time>
      </trkpt>
      <trkpt lat="45.35226" lon="5.73179">
        <ele>1370.9</ele>
        <time>2021-12-19T10:14:34Z</time>
      </trkpt>
      <trkpt lat="45.35226" lon="5.73179">
        <ele>1371.1</ele>
        <time>2021-12-19T10:14:35Z</time>
      </trkpt>
      <trkpt lat="45.35226" lon="5.7318">
        <ele>1371.3</ele>
        <time>2021-12-19T10:14:36Z</time>
      </trkpt>
      <trkpt lat="45.35226" lon="5.73181">
        <ele>1371.5</ele>
        <time>2021-12-19T10:14:37Z</time>
      </trkpt>
      <trkpt lat="45.35226" lon="5.73181">
        <ele>1371.6</ele>
        <time>2021-12-19T10:14:38Z</time>
      </trkpt>
      <trkpt lat="45.35225" lon="5.73182">
        <ele>1371.8</ele>
        <time>2021-12-19T10:14:39Z</time>
      </trkpt>
      <trkpt lat="45.35225" lon="5.73183">
        <ele>1372</ele>
        <time>2021-12-19T10:14:40Z</time>
      </trkpt>
      <trkpt lat="45.35225" lon="5.73184">
        <ele>1372.3</ele>
        <time>2021-12-19T10:14:41Z</time>
      </trkpt>
      <trkpt lat="45.35225" lon="5.73185">
        <ele>1372.4</ele>
        <time>2021-12-19T10:14:42Z</time>
      </trkpt>
      <trkpt lat="45.35225" lon="5.73186">
        <ele>1372.6</ele>
        <time>2021-12-19T10:14:43Z</time>
      </trkpt>
      <trkpt lat="45.35225" lon="5.73187">
        <ele>1372.7</ele>
        <time>2021-12-19T10:14:44Z</time>
      </trkpt>
      <trkpt lat="45.35225" lon="5.73188">
        <ele>1373</ele>
        <time>2021-12-19T10:14:45Z</time>
      </trkpt>
      <trkpt lat="45.35225" lon="5.73189">
        <ele>1373.2</ele>
        <time>2021-12-19T10:14:46Z</time>
      </trkpt>
      <trkpt lat="45.35224" lon="5.73189">
        <ele>1373.4</ele>
        <time>2021-12-19T10:14:47Z</time>
      </trkpt>
      <trkpt lat="45.35224" lon="5.7319">
        <ele>1373.6</ele>
        <time>2021-12-19T10:14:48Z</time>
      </trkpt>
      <trkpt lat="45.35224" lon="5.73191">
        <ele>1373.7</ele>
        <time>2021-12-19T10:14:49Z</time>
      </trkpt>
      <trkpt lat="45.35224" lon="5.73192">
        <ele>1373.9</ele>
        <time>2021-12-19T10:14:50Z</time>
      </trkpt>
      <trkpt lat="45.35224" lon="5.73192">
        <ele>1374.1</ele>
        <time>2021-12-19T10:14:51Z</time>
      </trkpt>
      <trkpt lat="45.35224" lon="5.73193">
        <ele>1374.3</ele>
        <time>2021-12-19T10:14:52Z</time>
      </trkpt>
      <trkpt lat="45.35223" lon="5.73194">
        <ele>1374.5</ele>
        <time>2021-12-19T10:14:53Z</time>
      </trkpt>
      <trkpt lat="45.35223" lon="5.73195">
        <ele>1374.7</ele>
        <time>2021-12-19T10:14:54Z</time>
      </trkpt>
      <trkpt lat="45.35223" lon="5.73196">
        <ele>1375</ele>
        <time>2021-12-19T10:14:55Z</time>
      </trkpt>
      <trkpt lat="45.35223" lon="5.73197">
        <ele>1375.1</ele>
        <time>2021-12-19T10:14:56Z</time>
      </trkpt>
      <trkpt lat="45.35223" lon="5.73198">
        <ele>1375.4</ele>
        <time>2021-12-19T10:14:57Z</time>
      </trkpt>
      <trkpt lat="45.35223" lon="5.73199">
        <ele>1375.6</ele>
        <time>2021-12-19T10:14:58Z</time>
      </trkpt>
      <trkpt lat="45.35222" lon="5.732">
        <ele>1375.9</ele>
        <time>2021-12-19T10:14:59Z</time>
      </trkpt>
      <trkpt lat="45.35221" lon="5.73202">
        <ele>1376.4</ele>
        <time>2021-12-19T10:15:00Z</time>
      </trkpt>
      <trkpt lat="45.35221" lon="5.73204">
        <ele>1376.6</ele>
        <time>2021-12-19T10:15:01Z</time>
      </trkpt>
      <trkpt lat="45.35221" lon="5.73205">
        <ele>1376.9</ele>
        <time>2021-12-19T10:15:02Z</time>
      </trkpt>
      <trkpt lat="45.35221" lon="5.73206">
        <ele>1377.1</ele>
        <time>2021-12-19T10:15:03Z</time>
      </trkpt>
      <trkpt lat="45.35221" lon="5.73207">
        <ele>1377.3</ele>
        <time>2021-12-19T10:15:04Z</time>
      </trkpt>
      <trkpt lat="45.3522" lon="5.73208">
        <ele>1377.6</ele>
        <time>2021-12-19T10:15:05Z</time>
      </trkpt>
      <trkpt lat="45.3522" lon="5.73209">
        <ele>1377.7</ele>
        <time>2021-12-19T10:15:06Z</time>
      </trkpt>
      <trkpt lat="45.3522" lon="5.7321">
        <ele>1377.9</ele>
        <time>2021-12-19T10:15:07Z</time>
      </trkpt>
      <trkpt lat="45.3522" lon="5.7321">
        <ele>1378.1</ele>
        <time>2021-12-19T10:15:08Z</time>
      </trkpt>
      <trkpt lat="45.3522" lon="5.73211">
        <ele>1378.2</ele>
        <time>2021-12-19T10:15:09Z</time>
      </trkpt>
      <trkpt lat="45.35219" lon="5.73212">
        <ele>1378.4</ele>
        <time>2021-12-19T10:15:10Z</time>
      </trkpt>
      <trkpt lat="45.35219" lon="5.73213">
        <ele>1378.5</ele>
        <time>2021-12-19T10:15:11Z</time>
      </trkpt>
      <trkpt lat="45.35219" lon="5.73214">
        <ele>1378.6</ele>
        <time>2021-12-19T10:15:12Z</time>
      </trkpt>
      <trkpt lat="45.35219" lon="5.73215">
        <ele>1378.8</ele>
        <time>2021-12-19T10:15:13Z</time>
      </trkpt>
      <trkpt lat="45.3522" lon="5.73216">
        <ele>1379</ele>
        <time>2021-12-19T10:15:14Z</time>
      </trkpt>
      <trkpt lat="45.3522" lon="5.73217">
        <ele>1379.1</ele>
        <time>2021-12-19T10:15:15Z</time>
      </trkpt>
      <trkpt lat="45.3522" lon="5.73218">
        <ele>1379.3</ele>
        <time>2021-12-19T10:15:16Z</time>
      </trkpt>
      <trkpt lat="45.35221" lon="5.73219">
        <ele>1379.6</ele>
        <time>2021-12-19T10:15:17Z</time>
      </trkpt>
      <trkpt lat="45.35221" lon="5.73221">
        <ele>1379.7</ele>
        <time>2021-12-19T10:15:18Z</time>
      </trkpt>
      <trkpt lat="45.35221" lon="5.73222">
        <ele>1379.9</ele>
        <time>2021-12-19T10:15:19Z</time>
      </trkpt>
      <trkpt lat="45.35221" lon="5.73223">
        <ele>1380.1</ele>
        <time>2021-12-19T10:15:20Z</time>
      </trkpt>
      <trkpt lat="45.35222" lon="5.73224">
        <ele>1380.2</ele>
        <time>2021-12-19T10:15:21Z</time>
      </trkpt>
      <trkpt lat="45.35222" lon="5.73224">
        <ele>1380.4</ele>
        <time>2021-12-19T10:15:22Z</time>
      </trkpt>
      <trkpt lat="45.35223" lon="5.73225">
        <ele>1380.6</ele>
        <time>2021-12-19T10:15:23Z</time>
      </trkpt>
      <trkpt lat="45.35223" lon="5.73225">
        <ele>1380.7</ele>
        <time>2021-12-19T10:15:24Z</time>
      </trkpt>
      <trkpt lat="45.35224" lon="5.73226">
        <ele>1380.9</ele>
        <time>2021-12-19T10:15:25Z</time>
      </trkpt>
      <trkpt lat="45.35223" lon="5.73227">
        <ele>1381</ele>
        <time>2021-12-19T10:15:26Z</time>
      </trkpt>
      <trkpt lat="45.35224" lon="5.73228">
        <ele>1381.1</ele>
        <time>2021-12-19T10:15:27Z</time>
      </trkpt>
      <trkpt lat="45.35224" lon="5.73228">
        <ele>1381.2</ele>
        <time>2021-12-19T10:15:28Z</time>
      </trkpt>
      <trkpt lat="45.35224" lon="5.73229">
        <ele>1381.4</ele>
        <time>2021-12-19T10:15:29Z</time>
      </trkpt>
      <trkpt lat="45.35224" lon="5.7323">
        <ele>1381.5</ele>
        <time>2021-12-19T10:15:30Z</time>
      </trkpt>
      <trkpt lat="45.35224" lon="5.73231">
        <ele>1381.6</ele>
        <time>2021-12-19T10:15:31Z</time>
      </trkpt>
      <trkpt lat="45.35225" lon="5.73231">
        <ele>1381.7</ele>
        <time>2021-12-19T10:15:32Z</time>
      </trkpt>
      <trkpt lat="45.35226" lon="5.73232">
        <ele>1381.9</ele>
        <time>2021-12-19T10:15:33Z</time>
      </trkpt>
      <trkpt lat="45.35226" lon="5.73232">
        <ele>1382.1</ele>
        <time>2021-12-19T10:15:34Z</time>
      </trkpt>
      <trkpt lat="45.35227" lon="5.73233">
        <ele>1382.2</ele>
        <time>2021-12-19T10:15:35Z</time>
      </trkpt>
      <trkpt lat="45.35227" lon="5.73233">
        <ele>1382.3</ele>
        <time>2021-12-19T10:15:36Z</time>
      </trkpt>
      <trkpt lat="45.35227" lon="5.73234">
        <ele>1382.4</ele>
        <time>2021-12-19T10:15:37Z</time>
      </trkpt>
      <trkpt lat="45.35227" lon="5.73234">
        <ele>1382.5</ele>
        <time>2021-12-19T10:15:38Z</time>
      </trkpt>
      <trkpt lat="45.35227" lon="5.73235">
        <ele>1382.6</ele>
        <time>2021-12-19T10:15:39Z</time>
      </trkpt>
      <trkpt lat="45.35228" lon="5.73235">
        <ele>1382.7</ele>
        <time>2021-12-19T10:15:40Z</time>
      </trkpt>
      <trkpt lat="45.35228" lon="5.73235">
        <ele>1382.7</ele>
        <time>2021-12-19T10:15:41Z</time>
      </trkpt>
      <trkpt lat="45.35228" lon="5.73236">
        <ele>1382.8</ele>
        <time>2021-12-19T10:15:42Z</time>
      </trkpt>
      <trkpt lat="45.35229" lon="5.73236">
        <ele>1382.9</ele>
        <time>2021-12-19T10:15:43Z</time>
      </trkpt>
      <trkpt lat="45.35229" lon="5.73236">
        <ele>1383.1</ele>
        <time>2021-12-19T10:15:44Z</time>
      </trkpt>
      <trkpt lat="45.35229" lon="5.73236">
        <ele>1383.1</ele>
        <time>2021-12-19T10:15:45Z</time>
      </trkpt>
      <trkpt lat="45.3523" lon="5.73236">
        <ele>1383.3</ele>
        <time>2021-12-19T10:15:46Z</time>
      </trkpt>
      <trkpt lat="45.35231" lon="5.73236">
        <ele>1383.4</ele>
        <time>2021-12-19T10:15:47Z</time>
      </trkpt>
      <trkpt lat="45.35231" lon="5.73236">
        <ele>1383.5</ele>
        <time>2021-12-19T10:15:48Z</time>
      </trkpt>
      <trkpt lat="45.35231" lon="5.73236">
        <ele>1383.6</ele>
        <time>2021-12-19T10:15:49Z</time>
      </trkpt>
      <trkpt lat="45.35232" lon="5.73236">
        <ele>1383.7</ele>
        <time>2021-12-19T10:15:50Z</time>
      </trkpt>
      <trkpt lat="45.35233" lon="5.73236">
        <ele>1383.9</ele>
        <time>2021-12-19T10:15:51Z</time>
      </trkpt>
      <trkpt lat="45.35233" lon="5.73235">
        <ele>1384</ele>
        <time>2021-12-19T10:15:52Z</time>
      </trkpt>
      <trkpt lat="45.35234" lon="5.73235">
        <ele>1384.2</ele>
        <time>2021-12-19T10:15:53Z</time>
      </trkpt>
      <trkpt lat="45.35234" lon="5.73234">
        <ele>1384.3</ele>
        <time>2021-12-19T10:15:54Z</time>
      </trkpt>
      <trkpt lat="45.35235" lon="5.73234">
        <ele>1384.5</ele>
        <time>2021-12-19T10:15:55Z</time>
      </trkpt>
      <trkpt lat="45.35235" lon="5.73233">
        <ele>1384.6</ele>
        <time>2021-12-19T10:15:56Z</time>
      </trkpt>
      <trkpt lat="45.35236" lon="5.73232">
        <ele>1384.8</ele>
        <time>2021-12-19T10:15:57Z</time>
      </trkpt>
      <trkpt lat="45.35237" lon="5.73232">
        <ele>1385</ele>
        <time>2021-12-19T10:15:58Z</time>
      </trkpt>
      <trkpt lat="45.35237" lon="5.73231">
        <ele>1385.1</ele>
        <time>2021-12-19T10:15:59Z</time>
      </trkpt>
      <trkpt lat="45.35238" lon="5.73231">
        <ele>1385.3</ele>
        <time>2021-12-19T10:16:00Z</time>
      </trkpt>
      <trkpt lat="45.35239" lon="5.73231">
        <ele>1385.5</ele>
        <time>2021-12-19T10:16:01Z</time>
      </trkpt>
      <trkpt lat="45.3524" lon="5.7323">
        <ele>1385.7</ele>
        <time>2021-12-19T10:16:02Z</time>
      </trkpt>
      <trkpt lat="45.3524" lon="5.7323">
        <ele>1385.9</ele>
        <time>2021-12-19T10:16:03Z</time>
      </trkpt>
      <trkpt lat="45.35241" lon="5.7323">
        <ele>1386</ele>
        <time>2021-12-19T10:16:04Z</time>
      </trkpt>
      <trkpt lat="45.35242" lon="5.73229">
        <ele>1386.2</ele>
        <time>2021-12-19T10:16:05Z</time>
      </trkpt>
      <trkpt lat="45.35242" lon="5.73229">
        <ele>1386.3</ele>
        <time>2021-12-19T10:16:06Z</time>
      </trkpt>
      <trkpt lat="45.35243" lon="5.73228">
        <ele>1386.5</ele>
        <time>2021-12-19T10:16:07Z</time>
      </trkpt>
      <trkpt lat="45.35243" lon="5.73228">
        <ele>1386.6</ele>
        <time>2021-12-19T10:16:08Z</time>
      </trkpt>
      <trkpt lat="45.35244" lon="5.73227">
        <ele>1386.8</ele>
        <time>2021-12-19T10:16:09Z</time>
      </trkpt>
      <trkpt lat="45.35244" lon="5.73227">
        <ele>1386.9</ele>
        <time>2021-12-19T10:16:10Z</time>
      </trkpt>
      <trkpt lat="45.35244" lon="5.73225">
        <ele>1387</ele>
        <time>2021-12-19T10:16:11Z</time>
      </trkpt>
      <trkpt lat="45.35244" lon="5.73224">
        <ele>1387.2</ele>
        <time>2021-12-19T10:16:12Z</time>
      </trkpt>
      <trkpt lat="45.35244" lon="5.73223">
        <ele>1387.4</ele>
        <time>2021-12-19T10:16:13Z</time>
      </trkpt>
      <trkpt lat="45.35244" lon="5.73222">
        <ele>1387.5</ele>
        <time>2021-12-19T10:16:14Z</time>
      </trkpt>
      <trkpt lat="45.35244" lon="5.73221">
        <ele>1387.7</ele>
        <time>2021-12-19T10:16:15Z</time>
      </trkpt>
      <trkpt lat="45.35244" lon="5.73221">
        <ele>1387.8</ele>
        <time>2021-12-19T10:16:16Z</time>
      </trkpt>
      <trkpt lat="45.35244" lon="5.7322">
        <ele>1387.9</ele>
        <time>2021-12-19T10:16:17Z</time>
      </trkpt>
      <trkpt lat="45.35245" lon="5.73219">
        <ele>1388</ele>
        <time>2021-12-19T10:16:18Z</time>
      </trkpt>
      <trkpt lat="45.35245" lon="5.73219">
        <ele>1388.1</ele>
        <time>2021-12-19T10:16:19Z</time>
      </trkpt>
      <trkpt lat="45.35244" lon="5.73218">
        <ele>1388.3</ele>
        <time>2021-12-19T10:16:20Z</time>
      </trkpt>
      <trkpt lat="45.35244" lon="5.73217">
        <ele>1388.5</ele>
        <time>2021-12-19T10:16:21Z</time>
      </trkpt>
      <trkpt lat="45.35244" lon="5.73216">
        <ele>1388.6</ele>
        <time>2021-12-19T10:16:22Z</time>
      </trkpt>
      <trkpt lat="45.35244" lon="5.73215">
        <ele>1388.7</ele>
        <time>2021-12-19T10:16:23Z</time>
      </trkpt>
      <trkpt lat="45.35244" lon="5.73215">
        <ele>1388.7</ele>
        <time>2021-12-19T10:16:24Z</time>
      </trkpt>
      <trkpt lat="45.35244" lon="5.73214">
        <ele>1388.9</ele>
        <time>2021-12-19T10:16:25Z</time>
      </trkpt>
      <trkpt lat="45.35244" lon="5.73213">
        <ele>1389</ele>
        <time>2021-12-19T10:16:26Z</time>
      </trkpt>
      <trkpt lat="45.35244" lon="5.73212">
        <ele>1389.1</ele>
        <time>2021-12-19T10:16:27Z</time>
      </trkpt>
      <trkpt lat="45.35244" lon="5.73212">
        <ele>1389.2</ele>
        <time>2021-12-19T10:16:28Z</time>
      </trkpt>
      <trkpt lat="45.35244" lon="5.73211">
        <ele>1389.4</ele>
        <time>2021-12-19T10:16:29Z</time>
      </trkpt>
      <trkpt lat="45.35244" lon="5.7321">
        <ele>1389.6</ele>
        <time>2021-12-19T10:16:30Z</time>
      </trkpt>
      <trkpt lat="45.35245" lon="5.73209">
        <ele>1389.8</ele>
        <time>2021-12-19T10:16:31Z</time>
      </trkpt>
      <trkpt lat="45.35245" lon="5.73208">
        <ele>1389.9</ele>
        <time>2021-12-19T10:16:32Z</time>
      </trkpt>
      <trkpt lat="45.35246" lon="5.73207">
        <ele>1390.2</ele>
        <time>2021-12-19T10:16:33Z</time>
      </trkpt>
      <trkpt lat="45.35247" lon="5.73206">
        <ele>1390.4</ele>
        <time>2021-12-19T10:16:34Z</time>
      </trkpt>
      <trkpt lat="45.35247" lon="5.73205">
        <ele>1390.5</ele>
        <time>2021-12-19T10:16:35Z</time>
      </trkpt>
      <trkpt lat="45.35248" lon="5.73204">
        <ele>1390.7</ele>
        <time>2021-12-19T10:16:36Z</time>
      </trkpt>
      <trkpt lat="45.35248" lon="5.73203">
        <ele>1390.9</ele>
        <time>2021-12-19T10:16:37Z</time>
      </trkpt>
      <trkpt lat="45.35249" lon="5.73202">
        <ele>1391.1</ele>
        <time>2021-12-19T10:16:38Z</time>
      </trkpt>
      <trkpt lat="45.35249" lon="5.73201">
        <ele>1391.2</ele>
        <time>2021-12-19T10:16:39Z</time>
      </trkpt>
      <trkpt lat="45.35249" lon="5.732">
        <ele>1391.4</ele>
        <time>2021-12-19T10:16:40Z</time>
      </trkpt>
      <trkpt lat="45.3525" lon="5.732">
        <ele>1391.5</ele>
        <time>2021-12-19T10:16:41Z</time>
      </trkpt>
      <trkpt lat="45.3525" lon="5.73199">
        <ele>1391.7</ele>
        <time>2021-12-19T10:16:42Z</time>
      </trkpt>
      <trkpt lat="45.35251" lon="5.73198">
        <ele>1391.9</ele>
        <time>2021-12-19T10:16:43Z</time>
      </trkpt>
      <trkpt lat="45.35251" lon="5.73197">
        <ele>1392</ele>
        <time>2021-12-19T10:16:44Z</time>
      </trkpt>
      <trkpt lat="45.35251" lon="5.73196">
        <ele>1392.1</ele>
        <time>2021-12-19T10:16:45Z</time>
      </trkpt>
      <trkpt lat="45.35251" lon="5.73195">
        <ele>1392.3</ele>
        <time>2021-12-19T10:16:46Z</time>
      </trkpt>
      <trkpt lat="45.35251" lon="5.73194">
        <ele>1392.4</ele>
        <time>2021-12-19T10:16:47Z</time>
      </trkpt>
      <trkpt lat="45.35252" lon="5.73193">
        <ele>1392.6</ele>
        <time>2021-12-19T10:16:48Z</time>
      </trkpt>
      <trkpt lat="45.35252" lon="5.73192">
        <ele>1392.8</ele>
        <time>2021-12-19T10:16:49Z</time>
      </trkpt>
      <trkpt lat="45.35251" lon="5.73192">
        <ele>1392.9</ele>
        <time>2021-12-19T10:16:50Z</time>
      </trkpt>
      <trkpt lat="45.35252" lon="5.73191">
        <ele>1393</ele>
        <time>2021-12-19T10:16:51Z</time>
      </trkpt>
      <trkpt lat="45.35252" lon="5.7319">
        <ele>1393.2</ele>
        <time>2021-12-19T10:16:52Z</time>
      </trkpt>
      <trkpt lat="45.35253" lon="5.7319">
        <ele>1393.3</ele>
        <time>2021-12-19T10:16:53Z</time>
      </trkpt>
      <trkpt lat="45.35253" lon="5.73189">
        <ele>1393.5</ele>
        <time>2021-12-19T10:16:54Z</time>
      </trkpt>
      <trkpt lat="45.35253" lon="5.73188">
        <ele>1393.5</ele>
        <time>2021-12-19T10:16:55Z</time>
      </trkpt>
      <trkpt lat="45.35253" lon="5.73188">
        <ele>1393.7</ele>
        <time>2021-12-19T10:16:56Z</time>
      </trkpt>
      <trkpt lat="45.35254" lon="5.73187">
        <ele>1393.8</ele>
        <time>2021-12-19T10:16:57Z</time>
      </trkpt>
      <trkpt lat="45.35254" lon="5.73186">
        <ele>1394</ele>
        <time>2021-12-19T10:16:58Z</time>
      </trkpt>
      <trkpt lat="45.35255" lon="5.73185">
        <ele>1394.2</ele>
        <time>2021-12-19T10:16:59Z</time>
      </trkpt>
      <trkpt lat="45.35255" lon="5.73184">
        <ele>1394.4</ele>
        <time>2021-12-19T10:17:00Z</time>
      </trkpt>
      <trkpt lat="45.35256" lon="5.73183">
        <ele>1394.6</ele>
        <time>2021-12-19T10:17:01Z</time>
      </trkpt>
      <trkpt lat="45.35257" lon="5.73183">
        <ele>1394.7</ele>
        <time>2021-12-19T10:17:02Z</time>
      </trkpt>
      <trkpt lat="45.35257" lon="5.73182">
        <ele>1394.9</ele>
        <time>2021-12-19T10:17:03Z</time>
      </trkpt>
      <trkpt lat="45.35258" lon="5.73181">
        <ele>1395.1</ele>
        <time>2021-12-19T10:17:04Z</time>
      </trkpt>
      <trkpt lat="45.35258" lon="5.7318">
        <ele>1395.2</ele>
        <time>2021-12-19T10:17:05Z</time>
      </trkpt>
      <trkpt lat="45.35259" lon="5.7318">
        <ele>1395.4</ele>
        <time>2021-12-19T10:17:06Z</time>
      </trkpt>
      <trkpt lat="45.35259" lon="5.73179">
        <ele>1395.5</ele>
        <time>2021-12-19T10:17:07Z</time>
      </trkpt>
      <trkpt lat="45.3526" lon="5.73179">
        <ele>1395.6</ele>
        <time>2021-12-19T10:17:08Z</time>
      </trkpt>
      <trkpt lat="45.3526" lon="5.73179">
        <ele>1395.8</ele>
        <time>2021-12-19T10:17:09Z</time>
      </trkpt>
      <trkpt lat="45.35261" lon="5.73178">
        <ele>1396</ele>
        <time>2021-12-19T10:17:10Z</time>
      </trkpt>
      <trkpt lat="45.35262" lon="5.73178">
        <ele>1396.2</ele>
        <time>2021-12-19T10:17:11Z</time>
      </trkpt>
      <trkpt lat="45.35262" lon="5.73177">
        <ele>1396.3</ele>
        <time>2021-12-19T10:17:12Z</time>
      </trkpt>
      <trkpt lat="45.35262" lon="5.73176">
        <ele>1396.5</ele>
        <time>2021-12-19T10:17:13Z</time>
      </trkpt>
      <trkpt lat="45.35263" lon="5.73175">
        <ele>1396.7</ele>
        <time>2021-12-19T10:17:14Z</time>
      </trkpt>
      <trkpt lat="45.35262" lon="5.73173">
        <ele>1396.9</ele>
        <time>2021-12-19T10:17:15Z</time>
      </trkpt>
      <trkpt lat="45.35263" lon="5.73173">
        <ele>1397</ele>
        <time>2021-12-19T10:17:16Z</time>
      </trkpt>
      <trkpt lat="45.35263" lon="5.73172">
        <ele>1397.1</ele>
        <time>2021-12-19T10:17:17Z</time>
      </trkpt>
      <trkpt lat="45.35263" lon="5.73171">
        <ele>1397.3</ele>
        <time>2021-12-19T10:17:18Z</time>
      </trkpt>
      <trkpt lat="45.35264" lon="5.7317">
        <ele>1397.4</ele>
        <time>2021-12-19T10:17:19Z</time>
      </trkpt>
      <trkpt lat="45.35264" lon="5.73169">
        <ele>1397.7</ele>
        <time>2021-12-19T10:17:20Z</time>
      </trkpt>
      <trkpt lat="45.35265" lon="5.73168">
        <ele>1397.9</ele>
        <time>2021-12-19T10:17:21Z</time>
      </trkpt>
      <trkpt lat="45.35266" lon="5.73167">
        <ele>1398.1</ele>
        <time>2021-12-19T10:17:22Z</time>
      </trkpt>
      <trkpt lat="45.35266" lon="5.73166">
        <ele>1398.3</ele>
        <time>2021-12-19T10:17:23Z</time>
      </trkpt>
      <trkpt lat="45.35267" lon="5.73165">
        <ele>1398.5</ele>
        <time>2021-12-19T10:17:24Z</time>
      </trkpt>
      <trkpt lat="45.35268" lon="5.73164">
        <ele>1398.7</ele>
        <time>2021-12-19T10:17:25Z</time>
      </trkpt>
      <trkpt lat="45.35268" lon="5.73163">
        <ele>1399</ele>
        <time>2021-12-19T10:17:26Z</time>
      </trkpt>
      <trkpt lat="45.35269" lon="5.73162">
        <ele>1399.1</ele>
        <time>2021-12-19T10:17:27Z</time>
      </trkpt>
      <trkpt lat="45.35269" lon="5.73161">
        <ele>1399.3</ele>
        <time>2021-12-19T10:17:28Z</time>
      </trkpt>
      <trkpt lat="45.35271" lon="5.73161">
        <ele>1399.6</ele>
        <time>2021-12-19T10:17:29Z</time>
      </trkpt>
      <trkpt lat="45.35272" lon="5.7316">
        <ele>1399.9</ele>
        <time>2021-12-19T10:17:30Z</time>
      </trkpt>
      <trkpt lat="45.35272" lon="5.73159">
        <ele>1400.1</ele>
        <time>2021-12-19T10:17:31Z</time>
      </trkpt>
      <trkpt lat="45.35273" lon="5.73158">
        <ele>1400.3</ele>
        <time>2021-12-19T10:17:32Z</time>
      </trkpt>
      <trkpt lat="45.35274" lon="5.73157">
        <ele>1400.5</ele>
        <time>2021-12-19T10:17:33Z</time>
      </trkpt>
      <trkpt lat="45.35274" lon="5.73156">
        <ele>1400.7</ele>
        <time>2021-12-19T10:17:34Z</time>
      </trkpt>
      <trkpt lat="45.35275" lon="5.73155">
        <ele>1400.9</ele>
        <time>2021-12-19T10:17:35Z</time>
      </trkpt>
      <trkpt lat="45.35276" lon="5.73155">
        <ele>1401.1</ele>
        <time>2021-12-19T10:17:36Z</time>
      </trkpt>
      <trkpt lat="45.35277" lon="5.73154">
        <ele>1401.3</ele>
        <time>2021-12-19T10:17:37Z</time>
      </trkpt>
      <trkpt lat="45.35278" lon="5.73153">
        <ele>1401.5</ele>
        <time>2021-12-19T10:17:38Z</time>
      </trkpt>
      <trkpt lat="45.35278" lon="5.73152">
        <ele>1401.7</ele>
        <time>2021-12-19T10:17:39Z</time>
      </trkpt>
      <trkpt lat="45.35278" lon="5.73151">
        <ele>1401.9</ele>
        <time>2021-12-19T10:17:40Z</time>
      </trkpt>
      <trkpt lat="45.35279" lon="5.7315">
        <ele>1402.1</ele>
        <time>2021-12-19T10:17:41Z</time>
      </trkpt>
      <trkpt lat="45.35279" lon="5.73148">
        <ele>1402.4</ele>
        <time>2021-12-19T10:17:42Z</time>
      </trkpt>
      <trkpt lat="45.35279" lon="5.73147">
        <ele>1402.6</ele>
        <time>2021-12-19T10:17:43Z</time>
      </trkpt>
      <trkpt lat="45.3528" lon="5.73146">
        <ele>1402.8</ele>
        <time>2021-12-19T10:17:44Z</time>
      </trkpt>
      <trkpt lat="45.3528" lon="5.73145">
        <ele>1403</ele>
        <time>2021-12-19T10:17:45Z</time>
      </trkpt>
      <trkpt lat="45.3528" lon="5.73144">
        <ele>1403.2</ele>
        <time>2021-12-19T10:17:46Z</time>
      </trkpt>
      <trkpt lat="45.3528" lon="5.73142">
        <ele>1403.4</ele>
        <time>2021-12-19T10:17:47Z</time>
      </trkpt>
      <trkpt lat="45.3528" lon="5.73141">
        <ele>1403.6</ele>
        <time>2021-12-19T10:17:48Z</time>
      </trkpt>
      <trkpt lat="45.3528" lon="5.7314">
        <ele>1403.8</ele>
        <time>2021-12-19T10:17:49Z</time>
      </trkpt>
      <trkpt lat="45.35281" lon="5.73139">
        <ele>1404</ele>
        <time>2021-12-19T10:17:50Z</time>
      </trkpt>
      <trkpt lat="45.35281" lon="5.73138">
        <ele>1404.2</ele>
        <time>2021-12-19T10:17:51Z</time>
      </trkpt>
      <trkpt lat="45.35282" lon="5.73137">
        <ele>1404.4</ele>
        <time>2021-12-19T10:17:52Z</time>
      </trkpt>
      <trkpt lat="45.35282" lon="5.73136">
        <ele>1404.5</ele>
        <time>2021-12-19T10:17:53Z</time>
      </trkpt>
      <trkpt lat="45.35282" lon="5.73135">
        <ele>1404.7</ele>
        <time>2021-12-19T10:17:54Z</time>
      </trkpt>
      <trkpt lat="45.35282" lon="5.73134">
        <ele>1404.9</ele>
        <time>2021-12-19T10:17:55Z</time>
      </trkpt>
      <trkpt lat="45.35282" lon="5.73132">
        <ele>1405.2</ele>
        <time>2021-12-19T10:17:56Z</time>
      </trkpt>
      <trkpt lat="45.35282" lon="5.73131">
        <ele>1405.4</ele>
        <time>2021-12-19T10:17:57Z</time>
      </trkpt>
      <trkpt lat="45.35282" lon="5.73129">
        <ele>1405.6</ele>
        <time>2021-12-19T10:17:58Z</time>
      </trkpt>
      <trkpt lat="45.35281" lon="5.73128">
        <ele>1405.8</ele>
        <time>2021-12-19T10:17:59Z</time>
      </trkpt>
      <trkpt lat="45.35282" lon="5.73127">
        <ele>1405.9</ele>
        <time>2021-12-19T10:18:00Z</time>
      </trkpt>
      <trkpt lat="45.35282" lon="5.73127">
        <ele>1406</ele>
        <time>2021-12-19T10:18:01Z</time>
      </trkpt>
      <trkpt lat="45.35282" lon="5.73126">
        <ele>1406.1</ele>
        <time>2021-12-19T10:18:02Z</time>
      </trkpt>
      <trkpt lat="45.35282" lon="5.73125">
        <ele>1406.3</ele>
        <time>2021-12-19T10:18:03Z</time>
      </trkpt>
      <trkpt lat="45.35282" lon="5.73124">
        <ele>1406.4</ele>
        <time>2021-12-19T10:18:04Z</time>
      </trkpt>
      <trkpt lat="45.35282" lon="5.73123">
        <ele>1406.5</ele>
        <time>2021-12-19T10:18:05Z</time>
      </trkpt>
      <trkpt lat="45.35282" lon="5.73123">
        <ele>1406.7</ele>
        <time>2021-12-19T10:18:06Z</time>
      </trkpt>
      <trkpt lat="45.35283" lon="5.73122">
        <ele>1406.8</ele>
        <time>2021-12-19T10:18:07Z</time>
      </trkpt>
      <trkpt lat="45.35283" lon="5.73121">
        <ele>1406.9</ele>
        <time>2021-12-19T10:18:08Z</time>
      </trkpt>
      <trkpt lat="45.35283" lon="5.73121">
        <ele>1407</ele>
        <time>2021-12-19T10:18:09Z</time>
      </trkpt>
      <trkpt lat="45.35284" lon="5.7312">
        <ele>1407.1</ele>
        <time>2021-12-19T10:18:10Z</time>
      </trkpt>
      <trkpt lat="45.35284" lon="5.7312">
        <ele>1407.2</ele>
        <time>2021-12-19T10:18:11Z</time>
      </trkpt>
      <trkpt lat="45.35284" lon="5.73119">
        <ele>1407.4</ele>
        <time>2021-12-19T10:18:12Z</time>
      </trkpt>
      <trkpt lat="45.35285" lon="5.73118">
        <ele>1407.5</ele>
        <time>2021-12-19T10:18:13Z</time>
      </trkpt>
      <trkpt lat="45.35285" lon="5.73118">
        <ele>1407.7</ele>
        <time>2021-12-19T10:18:14Z</time>
      </trkpt>
      <trkpt lat="45.35286" lon="5.73117">
        <ele>1407.8</ele>
        <time>2021-12-19T10:18:15Z</time>
      </trkpt>
      <trkpt lat="45.35286" lon="5.73117">
        <ele>1408</ele>
        <time>2021-12-19T10:18:16Z</time>
      </trkpt>
      <trkpt lat="45.35287" lon="5.73116">
        <ele>1408.1</ele>
        <time>2021-12-19T10:18:17Z</time>
      </trkpt>
      <trkpt lat="45.35287" lon="5.73116">
        <ele>1408.2</ele>
        <time>2021-12-19T10:18:18Z</time>
      </trkpt>
      <trkpt lat="45.35288" lon="5.73115">
        <ele>1408.3</ele>
        <time>2021-12-19T10:18:19Z</time>
      </trkpt>
      <trkpt lat="45.35288" lon="5.73115">
        <ele>1408.5</ele>
        <time>2021-12-19T10:18:20Z</time>
      </trkpt>
      <trkpt lat="45.35289" lon="5.73115">
        <ele>1408.6</ele>
        <time>2021-12-19T10:18:21Z</time>
      </trkpt>
      <trkpt lat="45.35289" lon="5.73114">
        <ele>1408.8</ele>
        <time>2021-12-19T10:18:22Z</time>
      </trkpt>
      <trkpt lat="45.3529" lon="5.73114">
        <ele>1409</ele>
        <time>2021-12-19T10:18:23Z</time>
      </trkpt>
      <trkpt lat="45.35291" lon="5.73113">
        <ele>1409.1</ele>
        <time>2021-12-19T10:18:24Z</time>
      </trkpt>
      <trkpt lat="45.35291" lon="5.73112">
        <ele>1409.3</ele>
        <time>2021-12-19T10:18:25Z</time>
      </trkpt>
      <trkpt lat="45.35292" lon="5.73112">
        <ele>1409.4</ele>
        <time>2021-12-19T10:18:26Z</time>
      </trkpt>
      <trkpt lat="45.35292" lon="5.73111">
        <ele>1409.5</ele>
        <time>2021-12-19T10:18:27Z</time>
      </trkpt>
      <trkpt lat="45.35292" lon="5.7311">
        <ele>1409.7</ele>
        <time>2021-12-19T10:18:28Z</time>
      </trkpt>
      <trkpt lat="45.35293" lon="5.7311">
        <ele>1409.9</ele>
        <time>2021-12-19T10:18:29Z</time>
      </trkpt>
      <trkpt lat="45.35293" lon="5.73109">
        <ele>1410</ele>
        <time>2021-12-19T10:18:30Z</time>
      </trkpt>
      <trkpt lat="45.35294" lon="5.73108">
        <ele>1410.1</ele>
        <time>2021-12-19T10:18:31Z</time>
      </trkpt>
      <trkpt lat="45.35294" lon="5.73108">
        <ele>1410.2</ele>
        <time>2021-12-19T10:18:32Z</time>
      </trkpt>
      <trkpt lat="45.35294" lon="5.73107">
        <ele>1410.4</ele>
        <time>2021-12-19T10:18:33Z</time>
      </trkpt>
      <trkpt lat="45.35294" lon="5.73106">
        <ele>1410.5</ele>
        <time>2021-12-19T10:18:34Z</time>
      </trkpt>
      <trkpt lat="45.35295" lon="5.73106">
        <ele>1410.6</ele>
        <time>2021-12-19T10:18:35Z</time>
      </trkpt>
      <trkpt lat="45.35295" lon="5.73105">
        <ele>1410.7</ele>
        <time>2021-12-19T10:18:36Z</time>
      </trkpt>
      <trkpt lat="45.35295" lon="5.73105">
        <ele>1410.8</ele>
        <time>2021-12-19T10:18:37Z</time>
      </trkpt>
      <trkpt lat="45.35296" lon="5.73104">
        <ele>1410.9</ele>
        <time>2021-12-19T10:18:38Z</time>
      </trkpt>
      <trkpt lat="45.35297" lon="5.73104">
        <ele>1411.1</ele>
        <time>2021-12-19T10:18:39Z</time>
      </trkpt>
      <trkpt lat="45.35298" lon="5.73104">
        <ele>1411.3</ele>
        <time>2021-12-19T10:18:40Z</time>
      </trkpt>
      <trkpt lat="45.35298" lon="5.73103">
        <ele>1411.5</ele>
        <time>2021-12-19T10:18:41Z</time>
      </trkpt>
      <trkpt lat="45.35298" lon="5.73102">
        <ele>1411.7</ele>
        <time>2021-12-19T10:18:42Z</time>
      </trkpt>
      <trkpt lat="45.35299" lon="5.73101">
        <ele>1411.9</ele>
        <time>2021-12-19T10:18:43Z</time>
      </trkpt>
      <trkpt lat="45.35299" lon="5.731">
        <ele>1412</ele>
        <time>2021-12-19T10:18:44Z</time>
      </trkpt>
      <trkpt lat="45.353" lon="5.731">
        <ele>1412.2</ele>
        <time>2021-12-19T10:18:45Z</time>
      </trkpt>
      <trkpt lat="45.353" lon="5.73099">
        <ele>1412.3</ele>
        <time>2021-12-19T10:18:46Z</time>
      </trkpt>
      <trkpt lat="45.35301" lon="5.73098">
        <ele>1412.6</ele>
        <time>2021-12-19T10:18:47Z</time>
      </trkpt>
      <trkpt lat="45.35302" lon="5.73097">
        <ele>1412.7</ele>
        <time>2021-12-19T10:18:48Z</time>
      </trkpt>
      <trkpt lat="45.35302" lon="5.73096">
        <ele>1412.9</ele>
        <time>2021-12-19T10:18:49Z</time>
      </trkpt>
      <trkpt lat="45.35303" lon="5.73096">
        <ele>1413</ele>
        <time>2021-12-19T10:18:50Z</time>
      </trkpt>
      <trkpt lat="45.35303" lon="5.73095">
        <ele>1413.2</ele>
        <time>2021-12-19T10:18:51Z</time>
      </trkpt>
      <trkpt lat="45.35304" lon="5.73094">
        <ele>1413.3</ele>
        <time>2021-12-19T10:18:52Z</time>
      </trkpt>
      <trkpt lat="45.35304" lon="5.73094">
        <ele>1413.5</ele>
        <time>2021-12-19T10:18:53Z</time>
      </trkpt>
      <trkpt lat="45.35305" lon="5.73093">
        <ele>1413.6</ele>
        <time>2021-12-19T10:18:54Z</time>
      </trkpt>
      <trkpt lat="45.35306" lon="5.73093">
        <ele>1413.8</ele>
        <time>2021-12-19T10:18:55Z</time>
      </trkpt>
      <trkpt lat="45.35306" lon="5.73092">
        <ele>1414</ele>
        <time>2021-12-19T10:18:56Z</time>
      </trkpt>
      <trkpt lat="45.35307" lon="5.73092">
        <ele>1414.1</ele>
        <time>2021-12-19T10:18:57Z</time>
      </trkpt>
      <trkpt lat="45.35307" lon="5.73091">
        <ele>1414.2</ele>
        <time>2021-12-19T10:18:58Z</time>
      </trkpt>
      <trkpt lat="45.35308" lon="5.7309">
        <ele>1414.4</ele>
        <time>2021-12-19T10:18:59Z</time>
      </trkpt>
      <trkpt lat="45.35308" lon="5.7309">
        <ele>1414.5</ele>
        <time>2021-12-19T10:19:00Z</time>
      </trkpt>
      <trkpt lat="45.35308" lon="5.73089">
        <ele>1414.6</ele>
        <time>2021-12-19T10:19:01Z</time>
      </trkpt>
      <trkpt lat="45.35309" lon="5.73089">
        <ele>1414.7</ele>
        <time>2021-12-19T10:19:02Z</time>
      </trkpt>
      <trkpt lat="45.35309" lon="5.73088">
        <ele>1414.8</ele>
        <time>2021-12-19T10:19:03Z</time>
      </trkpt>
      <trkpt lat="45.35309" lon="5.73087">
        <ele>1415</ele>
        <time>2021-12-19T10:19:04Z</time>
      </trkpt>
      <trkpt lat="45.3531" lon="5.73087">
        <ele>1415.1</ele>
        <time>2021-12-19T10:19:05Z</time>
      </trkpt>
      <trkpt lat="45.3531" lon="5.73086">
        <ele>1415.2</ele>
        <time>2021-12-19T10:19:06Z</time>
      </trkpt>
      <trkpt lat="45.35311" lon="5.73086">
        <ele>1415.4</ele>
        <time>2021-12-19T10:19:07Z</time>
      </trkpt>
      <trkpt lat="45.35311" lon="5.73085">
        <ele>1415.6</ele>
        <time>2021-12-19T10:19:08Z</time>
      </trkpt>
      <trkpt lat="45.35312" lon="5.73084">
        <ele>1415.7</ele>
        <time>2021-12-19T10:19:09Z</time>
      </trkpt>
      <trkpt lat="45.35313" lon="5.73084">
        <ele>1415.9</ele>
        <time>2021-12-19T10:19:10Z</time>
      </trkpt>
      <trkpt lat="45.35313" lon="5.73084">
        <ele>1416</ele>
        <time>2021-12-19T10:19:11Z</time>
      </trkpt>
      <trkpt lat="45.35314" lon="5.73083">
        <ele>1416.2</ele>
        <time>2021-12-19T10:19:12Z</time>
      </trkpt>
      <trkpt lat="45.35314" lon="5.73083">
        <ele>1416.3</ele>
        <time>2021-12-19T10:19:13Z</time>
      </trkpt>
      <trkpt lat="45.35315" lon="5.73083">
        <ele>1416.4</ele>
        <time>2021-12-19T10:19:14Z</time>
      </trkpt>
      <trkpt lat="45.35316" lon="5.73082">
        <ele>1416.6</ele>
        <time>2021-12-19T10:19:15Z</time>
      </trkpt>
      <trkpt lat="45.35316" lon="5.73082">
        <ele>1416.8</ele>
        <time>2021-12-19T10:19:16Z</time>
      </trkpt>
      <trkpt lat="45.35317" lon="5.73081">
        <ele>1416.9</ele>
        <time>2021-12-19T10:19:17Z</time>
      </trkpt>
      <trkpt lat="45.35317" lon="5.73081">
        <ele>1417</ele>
        <time>2021-12-19T10:19:18Z</time>
      </trkpt>
      <trkpt lat="45.35318" lon="5.73081">
        <ele>1417.2</ele>
        <time>2021-12-19T10:19:19Z</time>
      </trkpt>
      <trkpt lat="45.35318" lon="5.73081">
        <ele>1417.2</ele>
        <time>2021-12-19T10:19:20Z</time>
      </trkpt>
      <trkpt lat="45.35319" lon="5.7308">
        <ele>1417.4</ele>
        <time>2021-12-19T10:19:21Z</time>
      </trkpt>
      <trkpt lat="45.35319" lon="5.7308">
        <ele>1417.5</ele>
        <time>2021-12-19T10:19:22Z</time>
      </trkpt>
      <trkpt lat="45.3532" lon="5.7308">
        <ele>1417.7</ele>
        <time>2021-12-19T10:19:23Z</time>
      </trkpt>
      <trkpt lat="45.35321" lon="5.73079">
        <ele>1417.8</ele>
        <time>2021-12-19T10:19:24Z</time>
      </trkpt>
      <trkpt lat="45.35321" lon="5.73079">
        <ele>1418</ele>
        <time>2021-12-19T10:19:25Z</time>
      </trkpt>
      <trkpt lat="45.35322" lon="5.73079">
        <ele>1418.1</ele>
        <time>2021-12-19T10:19:26Z</time>
      </trkpt>
      <trkpt lat="45.35323" lon="5.73078">
        <ele>1418.3</ele>
        <time>2021-12-19T10:19:27Z</time>
      </trkpt>
      <trkpt lat="45.35323" lon="5.73078">
        <ele>1418.5</ele>
        <time>2021-12-19T10:19:28Z</time>
      </trkpt>
      <trkpt lat="45.35324" lon="5.73077">
        <ele>1418.6</ele>
        <time>2021-12-19T10:19:29Z</time>
      </trkpt>
      <trkpt lat="45.35325" lon="5.73077">
        <ele>1418.8</ele>
        <time>2021-12-19T10:19:30Z</time>
      </trkpt>
      <trkpt lat="45.35325" lon="5.73076">
        <ele>1419</ele>
        <time>2021-12-19T10:19:31Z</time>
      </trkpt>
      <trkpt lat="45.35326" lon="5.73076">
        <ele>1419.1</ele>
        <time>2021-12-19T10:19:32Z</time>
      </trkpt>
      <trkpt lat="45.35326" lon="5.73076">
        <ele>1419.2</ele>
        <time>2021-12-19T10:19:33Z</time>
      </trkpt>
      <trkpt lat="45.35327" lon="5.73076">
        <ele>1419.4</ele>
        <time>2021-12-19T10:19:34Z</time>
      </trkpt>
      <trkpt lat="45.35328" lon="5.73076">
        <ele>1419.5</ele>
        <time>2021-12-19T10:19:35Z</time>
      </trkpt>
      <trkpt lat="45.35329" lon="5.73075">
        <ele>1419.7</ele>
        <time>2021-12-19T10:19:36Z</time>
      </trkpt>
      <trkpt lat="45.35329" lon="5.73074">
        <ele>1419.9</ele>
        <time>2021-12-19T10:19:37Z</time>
      </trkpt>
      <trkpt lat="45.3533" lon="5.73074">
        <ele>1420.1</ele>
        <time>2021-12-19T10:19:38Z</time>
      </trkpt>
      <trkpt lat="45.35331" lon="5.73073">
        <ele>1420.3</ele>
        <time>2021-12-19T10:19:39Z</time>
      </trkpt>
      <trkpt lat="45.35331" lon="5.73073">
        <ele>1420.4</ele>
        <time>2021-12-19T10:19:40Z</time>
      </trkpt>
      <trkpt lat="45.35332" lon="5.73072">
        <ele>1420.5</ele>
        <time>2021-12-19T10:19:41Z</time>
      </trkpt>
      <trkpt lat="45.35332" lon="5.73072">
        <ele>1420.7</ele>
        <time>2021-12-19T10:19:42Z</time>
      </trkpt>
      <trkpt lat="45.35333" lon="5.73072">
        <ele>1420.8</ele>
        <time>2021-12-19T10:19:43Z</time>
      </trkpt>
      <trkpt lat="45.35334" lon="5.73072">
        <ele>1420.9</ele>
        <time>2021-12-19T10:19:44Z</time>
      </trkpt>
      <trkpt lat="45.35334" lon="5.73071">
        <ele>1421.1</ele>
        <time>2021-12-19T10:19:45Z</time>
      </trkpt>
      <trkpt lat="45.35335" lon="5.73071">
        <ele>1421.3</ele>
        <time>2021-12-19T10:19:46Z</time>
      </trkpt>
      <trkpt lat="45.35335" lon="5.7307">
        <ele>1421.4</ele>
        <time>2021-12-19T10:19:47Z</time>
      </trkpt>
      <trkpt lat="45.35336" lon="5.7307">
        <ele>1421.5</ele>
        <time>2021-12-19T10:19:48Z</time>
      </trkpt>
      <trkpt lat="45.35336" lon="5.73069">
        <ele>1421.6</ele>
        <time>2021-12-19T10:19:49Z</time>
      </trkpt>
      <trkpt lat="45.35337" lon="5.73069">
        <ele>1421.8</ele>
        <time>2021-12-19T10:19:50Z</time>
      </trkpt>
      <trkpt lat="45.35337" lon="5.73068">
        <ele>1421.9</ele>
        <time>2021-12-19T10:19:51Z</time>
      </trkpt>
      <trkpt lat="45.35337" lon="5.73067">
        <ele>1422</ele>
        <time>2021-12-19T10:19:52Z</time>
      </trkpt>
      <trkpt lat="45.35338" lon="5.73067">
        <ele>1422.2</ele>
        <time>2021-12-19T10:19:53Z</time>
      </trkpt>
      <trkpt lat="45.35338" lon="5.73066">
        <ele>1422.3</ele>
        <time>2021-12-19T10:19:54Z</time>
      </trkpt>
      <trkpt lat="45.35339" lon="5.73065">
        <ele>1422.6</ele>
        <time>2021-12-19T10:19:55Z</time>
      </trkpt>
      <trkpt lat="45.3534" lon="5.73065">
        <ele>1422.8</ele>
        <time>2021-12-19T10:19:56Z</time>
      </trkpt>
      <trkpt lat="45.35341" lon="5.73064">
        <ele>1423</ele>
        <time>2021-12-19T10:19:57Z</time>
      </trkpt>
      <trkpt lat="45.35342" lon="5.73063">
        <ele>1423.2</ele>
        <time>2021-12-19T10:19:58Z</time>
      </trkpt>
      <trkpt lat="45.35342" lon="5.73063">
        <ele>1423.3</ele>
        <time>2021-12-19T10:19:59Z</time>
      </trkpt>
      <trkpt lat="45.35343" lon="5.73062">
        <ele>1423.5</ele>
        <time>2021-12-19T10:20:00Z</time>
      </trkpt>
      <trkpt lat="45.35343" lon="5.73061">
        <ele>1423.7</ele>
        <time>2021-12-19T10:20:01Z</time>
      </trkpt>
      <trkpt lat="45.35344" lon="5.7306">
        <ele>1423.8</ele>
        <time>2021-12-19T10:20:02Z</time>
      </trkpt>
      <trkpt lat="45.35344" lon="5.7306">
        <ele>1424</ele>
        <time>2021-12-19T10:20:03Z</time>
      </trkpt>
      <trkpt lat="45.35345" lon="5.73059">
        <ele>1424.2</ele>
        <time>2021-12-19T10:20:04Z</time>
      </trkpt>
      <trkpt lat="45.35345" lon="5.73058">
        <ele>1424.4</ele>
        <time>2021-12-19T10:20:05Z</time>
      </trkpt>
      <trkpt lat="45.35346" lon="5.73057">
        <ele>1424.6</ele>
        <time>2021-12-19T10:20:06Z</time>
      </trkpt>
      <trkpt lat="45.35346" lon="5.73056">
        <ele>1424.8</ele>
        <time>2021-12-19T10:20:07Z</time>
      </trkpt>
      <trkpt lat="45.35346" lon="5.73055">
        <ele>1424.9</ele>
        <time>2021-12-19T10:20:08Z</time>
      </trkpt>
      <trkpt lat="45.35346" lon="5.73053">
        <ele>1425.2</ele>
        <time>2021-12-19T10:20:09Z</time>
      </trkpt>
      <trkpt lat="45.35347" lon="5.73052">
        <ele>1425.4</ele>
        <time>2021-12-19T10:20:10Z</time>
      </trkpt>
      <trkpt lat="45.35348" lon="5.73051">
        <ele>1425.5</ele>
        <time>2021-12-19T10:20:11Z</time>
      </trkpt>
      <trkpt lat="45.35348" lon="5.73051">
        <ele>1425.7</ele>
        <time>2021-12-19T10:20:12Z</time>
      </trkpt>
      <trkpt lat="45.35349" lon="5.7305">
        <ele>1425.9</ele>
        <time>2021-12-19T10:20:13Z</time>
      </trkpt>
      <trkpt lat="45.35349" lon="5.73049">
        <ele>1426</ele>
        <time>2021-12-19T10:20:14Z</time>
      </trkpt>
      <trkpt lat="45.35349" lon="5.73048">
        <ele>1426.2</ele>
        <time>2021-12-19T10:20:15Z</time>
      </trkpt>
      <trkpt lat="45.3535" lon="5.73047">
        <ele>1426.4</ele>
        <time>2021-12-19T10:20:16Z</time>
      </trkpt>
      <trkpt lat="45.3535" lon="5.73046">
        <ele>1426.6</ele>
        <time>2021-12-19T10:20:17Z</time>
      </trkpt>
      <trkpt lat="45.35351" lon="5.73046">
        <ele>1426.7</ele>
        <time>2021-12-19T10:20:18Z</time>
      </trkpt>
      <trkpt lat="45.35352" lon="5.73046">
        <ele>1426.8</ele>
        <time>2021-12-19T10:20:19Z</time>
      </trkpt>
      <trkpt lat="45.35352" lon="5.73045">
        <ele>1427</ele>
        <time>2021-12-19T10:20:20Z</time>
      </trkpt>
      <trkpt lat="45.35352" lon="5.73045">
        <ele>1427.1</ele>
        <time>2021-12-19T10:20:21Z</time>
      </trkpt>
      <trkpt lat="45.35353" lon="5.73044">
        <ele>1427.2</ele>
        <time>2021-12-19T10:20:22Z</time>
      </trkpt>
      <trkpt lat="45.35353" lon="5.73044">
        <ele>1427.3</ele>
        <time>2021-12-19T10:20:23Z</time>
      </trkpt>
      <trkpt lat="45.35353" lon="5.73043">
        <ele>1427.4</ele>
        <time>2021-12-19T10:20:24Z</time>
      </trkpt>
      <trkpt lat="45.35354" lon="5.73043">
        <ele>1427.5</ele>
        <time>2021-12-19T10:20:25Z</time>
      </trkpt>
      <trkpt lat="45.35354" lon="5.73042">
        <ele>1427.6</ele>
        <time>2021-12-19T10:20:26Z</time>
      </trkpt>
      <trkpt lat="45.35354" lon="5.73042">
        <ele>1427.6</ele>
        <time>2021-12-19T10:20:27Z</time>
      </trkpt>
      <trkpt lat="45.35353" lon="5.73041">
        <ele>1427.9</ele>
        <time>2021-12-19T10:20:28Z</time>
      </trkpt>
      <trkpt lat="45.35352" lon="5.73039">
        <ele>1428.2</ele>
        <time>2021-12-19T10:20:29Z</time>
      </trkpt>
      <trkpt lat="45.35351" lon="5.73038">
        <ele>1428.5</ele>
        <time>2021-12-19T10:20:30Z</time>
      </trkpt>
      <trkpt lat="45.3535" lon="5.73036">
        <ele>1428.8</ele>
        <time>2021-12-19T10:20:31Z</time>
      </trkpt>
      <trkpt lat="45.3535" lon="5.73036">
        <ele>1428.9</ele>
        <time>2021-12-19T10:20:32Z</time>
      </trkpt>
      <trkpt lat="45.35349" lon="5.73035">
        <ele>1429.1</ele>
        <time>2021-12-19T10:20:33Z</time>
      </trkpt>
      <trkpt lat="45.35349" lon="5.73034">
        <ele>1429.3</ele>
        <time>2021-12-19T10:20:34Z</time>
      </trkpt>
      <trkpt lat="45.35348" lon="5.73033">
        <ele>1429.5</ele>
        <time>2021-12-19T10:20:35Z</time>
      </trkpt>
      <trkpt lat="45.35348" lon="5.73032">
        <ele>1429.6</ele>
        <time>2021-12-19T10:20:36Z</time>
      </trkpt>
      <trkpt lat="45.35348" lon="5.73032">
        <ele>1429.7</ele>
        <time>2021-12-19T10:20:37Z</time>
      </trkpt>
      <trkpt lat="45.35347" lon="5.7303">
        <ele>1430</ele>
        <time>2021-12-19T10:20:38Z</time>
      </trkpt>
      <trkpt lat="45.35347" lon="5.7303">
        <ele>1430.1</ele>
        <time>2021-12-19T10:20:39Z</time>
      </trkpt>
      <trkpt lat="45.35346" lon="5.73028">
        <ele>1430.3</ele>
        <time>2021-12-19T10:20:40Z</time>
      </trkpt>
      <trkpt lat="45.35346" lon="5.73027">
        <ele>1430.5</ele>
        <time>2021-12-19T10:20:41Z</time>
      </trkpt>
      <trkpt lat="45.35346" lon="5.73027">
        <ele>1430.6</ele>
        <time>2021-12-19T10:20:42Z</time>
      </trkpt>
      <trkpt lat="45.35345" lon="5.73026">
        <ele>1430.7</ele>
        <time>2021-12-19T10:20:43Z</time>
      </trkpt>
      <trkpt lat="45.35345" lon="5.73025">
        <ele>1430.9</ele>
        <time>2021-12-19T10:20:44Z</time>
      </trkpt>
      <trkpt lat="45.35345" lon="5.73024">
        <ele>1431</ele>
        <time>2021-12-19T10:20:45Z</time>
      </trkpt>
      <trkpt lat="45.35345" lon="5.73024">
        <ele>1431.1</ele>
        <time>2021-12-19T10:20:46Z</time>
      </trkpt>
      <trkpt lat="45.35345" lon="5.73023">
        <ele>1431.3</ele>
        <time>2021-12-19T10:20:47Z</time>
      </trkpt>
      <trkpt lat="45.35345" lon="5.73022">
        <ele>1431.5</ele>
        <time>2021-12-19T10:20:48Z</time>
      </trkpt>
      <trkpt lat="45.35346" lon="5.73022">
        <ele>1431.5</ele>
        <time>2021-12-19T10:20:49Z</time>
      </trkpt>
      <trkpt lat="45.35346" lon="5.73021">
        <ele>1431.6</ele>
        <time>2021-12-19T10:20:50Z</time>
      </trkpt>
      <trkpt lat="45.35346" lon="5.73021">
        <ele>1431.7</ele>
        <time>2021-12-19T10:20:51Z</time>
      </trkpt>
      <trkpt lat="45.35346" lon="5.7302">
        <ele>1431.8</ele>
        <time>2021-12-19T10:20:52Z</time>
      </trkpt>
      <trkpt lat="45.35346" lon="5.73019">
        <ele>1431.9</ele>
        <time>2021-12-19T10:20:53Z</time>
      </trkpt>
      <trkpt lat="45.35346" lon="5.73018">
        <ele>1432.1</ele>
        <time>2021-12-19T10:20:54Z</time>
      </trkpt>
      <trkpt lat="45.35345" lon="5.73018">
        <ele>1432.2</ele>
        <time>2021-12-19T10:20:55Z</time>
      </trkpt>
      <trkpt lat="45.35345" lon="5.73018">
        <ele>1432.3</ele>
        <time>2021-12-19T10:20:56Z</time>
      </trkpt>
      <trkpt lat="45.35344" lon="5.73018">
        <ele>1432.4</ele>
        <time>2021-12-19T10:20:57Z</time>
      </trkpt>
      <trkpt lat="45.35344" lon="5.73017">
        <ele>1432.4</ele>
        <time>2021-12-19T10:20:58Z</time>
      </trkpt>
      <trkpt lat="45.35344" lon="5.73017">
        <ele>1432.6</ele>
        <time>2021-12-19T10:20:59Z</time>
      </trkpt>
      <trkpt lat="45.35343" lon="5.73016">
        <ele>1432.7</ele>
        <time>2021-12-19T10:21:00Z</time>
      </trkpt>
      <trkpt lat="45.35343" lon="5.73016">
        <ele>1432.8</ele>
        <time>2021-12-19T10:21:01Z</time>
      </trkpt>
      <trkpt lat="45.35343" lon="5.73015">
        <ele>1432.9</ele>
        <time>2021-12-19T10:21:02Z</time>
      </trkpt>
      <trkpt lat="45.35343" lon="5.73015">
        <ele>1433</ele>
        <time>2021-12-19T10:21:03Z</time>
      </trkpt>
      <trkpt lat="45.35342" lon="5.73014">
        <ele>1433.1</ele>
        <time>2021-12-19T10:21:04Z</time>
      </trkpt>
      <trkpt lat="45.35342" lon="5.73014">
        <ele>1433.2</ele>
        <time>2021-12-19T10:21:05Z</time>
      </trkpt>
      <trkpt lat="45.35341" lon="5.73013">
        <ele>1433.4</ele>
        <time>2021-12-19T10:21:06Z</time>
      </trkpt>
      <trkpt lat="45.35341" lon="5.73012">
        <ele>1433.5</ele>
        <time>2021-12-19T10:21:07Z</time>
      </trkpt>
      <trkpt lat="45.35341" lon="5.73012">
        <ele>1433.6</ele>
        <time>2021-12-19T10:21:08Z</time>
      </trkpt>
      <trkpt lat="45.35341" lon="5.73012">
        <ele>1433.7</ele>
        <time>2021-12-19T10:21:09Z</time>
      </trkpt>
      <trkpt lat="45.35341" lon="5.73011">
        <ele>1433.7</ele>
        <time>2021-12-19T10:21:10Z</time>
      </trkpt>
      <trkpt lat="45.35341" lon="5.7301">
        <ele>1433.9</ele>
        <time>2021-12-19T10:21:11Z</time>
      </trkpt>
      <trkpt lat="45.35341" lon="5.7301">
        <ele>1433.9</ele>
        <time>2021-12-19T10:21:12Z</time>
      </trkpt>
      <trkpt lat="45.35341" lon="5.73009">
        <ele>1434.1</ele>
        <time>2021-12-19T10:21:13Z</time>
      </trkpt>
      <trkpt lat="45.35341" lon="5.73008">
        <ele>1434.2</ele>
        <time>2021-12-19T10:21:14Z</time>
      </trkpt>
      <trkpt lat="45.35341" lon="5.73007">
        <ele>1434.5</ele>
        <time>2021-12-19T10:21:15Z</time>
      </trkpt>
      <trkpt lat="45.35341" lon="5.73005">
        <ele>1434.7</ele>
        <time>2021-12-19T10:21:16Z</time>
      </trkpt>
      <trkpt lat="45.35341" lon="5.73004">
        <ele>1434.9</ele>
        <time>2021-12-19T10:21:17Z</time>
      </trkpt>
      <trkpt lat="45.3534" lon="5.73003">
        <ele>1435.1</ele>
        <time>2021-12-19T10:21:18Z</time>
      </trkpt>
      <trkpt lat="45.3534" lon="5.73002">
        <ele>1435.2</ele>
        <time>2021-12-19T10:21:19Z</time>
      </trkpt>
      <trkpt lat="45.3534" lon="5.73001">
        <ele>1435.4</ele>
        <time>2021-12-19T10:21:20Z</time>
      </trkpt>
      <trkpt lat="45.35339" lon="5.73">
        <ele>1435.6</ele>
        <time>2021-12-19T10:21:21Z</time>
      </trkpt>
      <trkpt lat="45.35339" lon="5.72999">
        <ele>1435.7</ele>
        <time>2021-12-19T10:21:22Z</time>
      </trkpt>
      <trkpt lat="45.35339" lon="5.72998">
        <ele>1435.9</ele>
        <time>2021-12-19T10:21:23Z</time>
      </trkpt>
      <trkpt lat="45.35338" lon="5.72998">
        <ele>1436</ele>
        <time>2021-12-19T10:21:24Z</time>
      </trkpt>
      <trkpt lat="45.35338" lon="5.72997">
        <ele>1436.1</ele>
        <time>2021-12-19T10:21:25Z</time>
      </trkpt>
      <trkpt lat="45.35338" lon="5.72997">
        <ele>1436.2</ele>
        <time>2021-12-19T10:21:26Z</time>
      </trkpt>
      <trkpt lat="45.35338" lon="5.72996">
        <ele>1436.3</ele>
        <time>2021-12-19T10:21:27Z</time>
      </trkpt>
      <trkpt lat="45.35338" lon="5.72995">
        <ele>1436.4</ele>
        <time>2021-12-19T10:21:28Z</time>
      </trkpt>
      <trkpt lat="45.35337" lon="5.72995">
        <ele>1436.6</ele>
        <time>2021-12-19T10:21:29Z</time>
      </trkpt>
      <trkpt lat="45.35337" lon="5.72994">
        <ele>1436.7</ele>
        <time>2021-12-19T10:21:30Z</time>
      </trkpt>
      <trkpt lat="45.35336" lon="5.72993">
        <ele>1436.8</ele>
        <time>2021-12-19T10:21:31Z</time>
      </trkpt>
      <trkpt lat="45.35336" lon="5.72993">
        <ele>1436.9</ele>
        <time>2021-12-19T10:21:32Z</time>
      </trkpt>
      <trkpt lat="45.35336" lon="5.72992">
        <ele>1437.1</ele>
        <time>2021-12-19T10:21:33Z</time>
      </trkpt>
      <trkpt lat="45.35336" lon="5.72991">
        <ele>1437.2</ele>
        <time>2021-12-19T10:21:34Z</time>
      </trkpt>
      <trkpt lat="45.35336" lon="5.72991">
        <ele>1437.3</ele>
        <time>2021-12-19T10:21:35Z</time>
      </trkpt>
      <trkpt lat="45.35336" lon="5.7299">
        <ele>1437.4</ele>
        <time>2021-12-19T10:21:36Z</time>
      </trkpt>
      <trkpt lat="45.35336" lon="5.72989">
        <ele>1437.5</ele>
        <time>2021-12-19T10:21:37Z</time>
      </trkpt>
      <trkpt lat="45.35336" lon="5.72989">
        <ele>1437.5</ele>
        <time>2021-12-19T10:21:38Z</time>
      </trkpt>
      <trkpt lat="45.35335" lon="5.72989">
        <ele>1437.6</ele>
        <time>2021-12-19T10:21:39Z</time>
      </trkpt>
      <trkpt lat="45.35335" lon="5.72988">
        <ele>1437.6</ele>
        <time>2021-12-19T10:21:40Z</time>
      </trkpt>
      <trkpt lat="45.35335" lon="5.72987">
        <ele>1437.8</ele>
        <time>2021-12-19T10:21:41Z</time>
      </trkpt>
      <trkpt lat="45.35335" lon="5.72987">
        <ele>1437.9</ele>
        <time>2021-12-19T10:21:42Z</time>
      </trkpt>
      <trkpt lat="45.35335" lon="5.72986">
        <ele>1438</ele>
        <time>2021-12-19T10:21:43Z</time>
      </trkpt>
      <trkpt lat="45.35335" lon="5.72985">
        <ele>1438.1</ele>
        <time>2021-12-19T10:21:44Z</time>
      </trkpt>
      <trkpt lat="45.35334" lon="5.72984">
        <ele>1438.3</ele>
        <time>2021-12-19T10:21:45Z</time>
      </trkpt>
      <trkpt lat="45.35334" lon="5.72983">
        <ele>1438.5</ele>
        <time>2021-12-19T10:21:46Z</time>
      </trkpt>
      <trkpt lat="45.35334" lon="5.72983">
        <ele>1438.6</ele>
        <time>2021-12-19T10:21:47Z</time>
      </trkpt>
      <trkpt lat="45.35334" lon="5.72981">
        <ele>1438.8</ele>
        <time>2021-12-19T10:21:48Z</time>
      </trkpt>
      <trkpt lat="45.35333" lon="5.72981">
        <ele>1438.9</ele>
        <time>2021-12-19T10:21:49Z</time>
      </trkpt>
      <trkpt lat="45.35333" lon="5.72979">
        <ele>1439.2</ele>
        <time>2021-12-19T10:21:50Z</time>
      </trkpt>
      <trkpt lat="45.35332" lon="5.72978">
        <ele>1439.4</ele>
        <time>2021-12-19T10:21:51Z</time>
      </trkpt>
      <trkpt lat="45.35332" lon="5.72977">
        <ele>1439.5</ele>
        <time>2021-12-19T10:21:52Z</time>
      </trkpt>
      <trkpt lat="45.35332" lon="5.72976">
        <ele>1439.7</ele>
        <time>2021-12-19T10:21:53Z</time>
      </trkpt>
      <trkpt lat="45.35332" lon="5.72975">
        <ele>1439.8</ele>
        <time>2021-12-19T10:21:54Z</time>
      </trkpt>
      <trkpt lat="45.35332" lon="5.72974">
        <ele>1440</ele>
        <time>2021-12-19T10:21:55Z</time>
      </trkpt>
      <trkpt lat="45.35332" lon="5.72974">
        <ele>1440.1</ele>
        <time>2021-12-19T10:21:56Z</time>
      </trkpt>
      <trkpt lat="45.35331" lon="5.72973">
        <ele>1440.2</ele>
        <time>2021-12-19T10:21:57Z</time>
      </trkpt>
      <trkpt lat="45.35332" lon="5.72972">
        <ele>1440.3</ele>
        <time>2021-12-19T10:21:58Z</time>
      </trkpt>
      <trkpt lat="45.35332" lon="5.72972">
        <ele>1440.4</ele>
        <time>2021-12-19T10:21:59Z</time>
      </trkpt>
      <trkpt lat="45.35332" lon="5.72971">
        <ele>1440.5</ele>
        <time>2021-12-19T10:22:00Z</time>
      </trkpt>
      <trkpt lat="45.35332" lon="5.72971">
        <ele>1440.6</ele>
        <time>2021-12-19T10:22:01Z</time>
      </trkpt>
      <trkpt lat="45.35332" lon="5.7297">
        <ele>1440.7</ele>
        <time>2021-12-19T10:22:02Z</time>
      </trkpt>
      <trkpt lat="45.35332" lon="5.72969">
        <ele>1440.8</ele>
        <time>2021-12-19T10:22:03Z</time>
      </trkpt>
      <trkpt lat="45.35332" lon="5.72969">
        <ele>1440.9</ele>
        <time>2021-12-19T10:22:04Z</time>
      </trkpt>
      <trkpt lat="45.35332" lon="5.72968">
        <ele>1441</ele>
        <time>2021-12-19T10:22:05Z</time>
      </trkpt>
      <trkpt lat="45.35332" lon="5.72967">
        <ele>1441.1</ele>
        <time>2021-12-19T10:22:06Z</time>
      </trkpt>
      <trkpt lat="45.35331" lon="5.72967">
        <ele>1441.2</ele>
        <time>2021-12-19T10:22:07Z</time>
      </trkpt>
      <trkpt lat="45.35331" lon="5.72966">
        <ele>1441.3</ele>
        <time>2021-12-19T10:22:08Z</time>
      </trkpt>
      <trkpt lat="45.35331" lon="5.72965">
        <ele>1441.5</ele>
        <time>2021-12-19T10:22:09Z</time>
      </trkpt>
      <trkpt lat="45.35331" lon="5.72964">
        <ele>1441.6</ele>
        <time>2021-12-19T10:22:10Z</time>
      </trkpt>
      <trkpt lat="45.35331" lon="5.72964">
        <ele>1441.7</ele>
        <time>2021-12-19T10:22:11Z</time>
      </trkpt>
      <trkpt lat="45.3533" lon="5.72963">
        <ele>1441.9</ele>
        <time>2021-12-19T10:22:12Z</time>
      </trkpt>
      <trkpt lat="45.3533" lon="5.72962">
        <ele>1442.1</ele>
        <time>2021-12-19T10:22:13Z</time>
      </trkpt>
      <trkpt lat="45.3533" lon="5.72961">
        <ele>1442.3</ele>
        <time>2021-12-19T10:22:14Z</time>
      </trkpt>
      <trkpt lat="45.3533" lon="5.7296">
        <ele>1442.4</ele>
        <time>2021-12-19T10:22:15Z</time>
      </trkpt>
      <trkpt lat="45.3533" lon="5.72959">
        <ele>1442.5</ele>
        <time>2021-12-19T10:22:16Z</time>
      </trkpt>
      <trkpt lat="45.3533" lon="5.72959">
        <ele>1442.6</ele>
        <time>2021-12-19T10:22:17Z</time>
      </trkpt>
      <trkpt lat="45.3533" lon="5.72958">
        <ele>1442.7</ele>
        <time>2021-12-19T10:22:18Z</time>
      </trkpt>
      <trkpt lat="45.35331" lon="5.72958">
        <ele>1442.8</ele>
        <time>2021-12-19T10:22:19Z</time>
      </trkpt>
      <trkpt lat="45.35331" lon="5.72957">
        <ele>1442.9</ele>
        <time>2021-12-19T10:22:20Z</time>
      </trkpt>
      <trkpt lat="45.35331" lon="5.72957">
        <ele>1443</ele>
        <time>2021-12-19T10:22:21Z</time>
      </trkpt>
      <trkpt lat="45.35332" lon="5.72956">
        <ele>1443.2</ele>
        <time>2021-12-19T10:22:22Z</time>
      </trkpt>
      <trkpt lat="45.35332" lon="5.72955">
        <ele>1443.3</ele>
        <time>2021-12-19T10:22:23Z</time>
      </trkpt>
      <trkpt lat="45.35332" lon="5.72955">
        <ele>1443.4</ele>
        <time>2021-12-19T10:22:24Z</time>
      </trkpt>
      <trkpt lat="45.35332" lon="5.72954">
        <ele>1443.5</ele>
        <time>2021-12-19T10:22:25Z</time>
      </trkpt>
      <trkpt lat="45.35332" lon="5.72954">
        <ele>1443.5</ele>
        <time>2021-12-19T10:22:26Z</time>
      </trkpt>
      <trkpt lat="45.35332" lon="5.72953">
        <ele>1443.6</ele>
        <time>2021-12-19T10:22:27Z</time>
      </trkpt>
      <trkpt lat="45.35332" lon="5.72953">
        <ele>1443.7</ele>
        <time>2021-12-19T10:22:28Z</time>
      </trkpt>
      <trkpt lat="45.35332" lon="5.72952">
        <ele>1443.8</ele>
        <time>2021-12-19T10:22:29Z</time>
      </trkpt>
      <trkpt lat="45.35333" lon="5.72952">
        <ele>1443.9</ele>
        <time>2021-12-19T10:22:30Z</time>
      </trkpt>
      <trkpt lat="45.35333" lon="5.72951">
        <ele>1444</ele>
        <time>2021-12-19T10:22:31Z</time>
      </trkpt>
      <trkpt lat="45.35332" lon="5.7295">
        <ele>1444.2</ele>
        <time>2021-12-19T10:22:32Z</time>
      </trkpt>
      <trkpt lat="45.35332" lon="5.7295">
        <ele>1444.3</ele>
        <time>2021-12-19T10:22:33Z</time>
      </trkpt>
      <trkpt lat="45.35332" lon="5.72949">
        <ele>1444.3</ele>
        <time>2021-12-19T10:22:34Z</time>
      </trkpt>
      <trkpt lat="45.35332" lon="5.72948">
        <ele>1444.6</ele>
        <time>2021-12-19T10:22:35Z</time>
      </trkpt>
      <trkpt lat="45.35332" lon="5.72947">
        <ele>1444.7</ele>
        <time>2021-12-19T10:22:36Z</time>
      </trkpt>
      <trkpt lat="45.35332" lon="5.72946">
        <ele>1444.9</ele>
        <time>2021-12-19T10:22:37Z</time>
      </trkpt>
      <trkpt lat="45.35333" lon="5.72945">
        <ele>1445.1</ele>
        <time>2021-12-19T10:22:38Z</time>
      </trkpt>
      <trkpt lat="45.35333" lon="5.72944">
        <ele>1445.2</ele>
        <time>2021-12-19T10:22:39Z</time>
      </trkpt>
      <trkpt lat="45.35333" lon="5.72942">
        <ele>1445.4</ele>
        <time>2021-12-19T10:22:40Z</time>
      </trkpt>
      <trkpt lat="45.35333" lon="5.72942">
        <ele>1445.5</ele>
        <time>2021-12-19T10:22:41Z</time>
      </trkpt>
      <trkpt lat="45.35334" lon="5.7294">
        <ele>1445.8</ele>
        <time>2021-12-19T10:22:42Z</time>
      </trkpt>
      <trkpt lat="45.35334" lon="5.7294">
        <ele>1445.9</ele>
        <time>2021-12-19T10:22:43Z</time>
      </trkpt>
      <trkpt lat="45.35334" lon="5.72938">
        <ele>1446.1</ele>
        <time>2021-12-19T10:22:44Z</time>
      </trkpt>
      <trkpt lat="45.35334" lon="5.72937">
        <ele>1446.3</ele>
        <time>2021-12-19T10:22:45Z</time>
      </trkpt>
      <trkpt lat="45.35335" lon="5.72936">
        <ele>1446.5</ele>
        <time>2021-12-19T10:22:46Z</time>
      </trkpt>
      <trkpt lat="45.35335" lon="5.72936">
        <ele>1446.6</ele>
        <time>2021-12-19T10:22:47Z</time>
      </trkpt>
      <trkpt lat="45.35336" lon="5.72935">
        <ele>1446.8</ele>
        <time>2021-12-19T10:22:48Z</time>
      </trkpt>
      <trkpt lat="45.35336" lon="5.72934">
        <ele>1446.9</ele>
        <time>2021-12-19T10:22:49Z</time>
      </trkpt>
      <trkpt lat="45.35337" lon="5.72933">
        <ele>1447.1</ele>
        <time>2021-12-19T10:22:50Z</time>
      </trkpt>
      <trkpt lat="45.35337" lon="5.72932">
        <ele>1447.2</ele>
        <time>2021-12-19T10:22:51Z</time>
      </trkpt>
      <trkpt lat="45.35337" lon="5.72931">
        <ele>1447.4</ele>
        <time>2021-12-19T10:22:52Z</time>
      </trkpt>
      <trkpt lat="45.35337" lon="5.72931">
        <ele>1447.5</ele>
        <time>2021-12-19T10:22:53Z</time>
      </trkpt>
      <trkpt lat="45.35337" lon="5.7293">
        <ele>1447.6</ele>
        <time>2021-12-19T10:22:54Z</time>
      </trkpt>
      <trkpt lat="45.35337" lon="5.72929">
        <ele>1447.7</ele>
        <time>2021-12-19T10:22:55Z</time>
      </trkpt>
      <trkpt lat="45.35337" lon="5.72929">
        <ele>1447.8</ele>
        <time>2021-12-19T10:22:56Z</time>
      </trkpt>
      <trkpt lat="45.35338" lon="5.72928">
        <ele>1447.9</ele>
        <time>2021-12-19T10:22:57Z</time>
      </trkpt>
      <trkpt lat="45.35337" lon="5.72927">
        <ele>1448</ele>
        <time>2021-12-19T10:22:58Z</time>
      </trkpt>
      <trkpt lat="45.35337" lon="5.72926">
        <ele>1448.2</ele>
        <time>2021-12-19T10:22:59Z</time>
      </trkpt>
      <trkpt lat="45.35337" lon="5.72925">
        <ele>1448.4</ele>
        <time>2021-12-19T10:23:00Z</time>
      </trkpt>
      <trkpt lat="45.35337" lon="5.72924">
        <ele>1448.5</ele>
        <time>2021-12-19T10:23:01Z</time>
      </trkpt>
      <trkpt lat="45.35337" lon="5.72923">
        <ele>1448.6</ele>
        <time>2021-12-19T10:23:02Z</time>
      </trkpt>
      <trkpt lat="45.35337" lon="5.72922">
        <ele>1448.8</ele>
        <time>2021-12-19T10:23:03Z</time>
      </trkpt>
      <trkpt lat="45.35337" lon="5.72921">
        <ele>1449</ele>
        <time>2021-12-19T10:23:04Z</time>
      </trkpt>
      <trkpt lat="45.35338" lon="5.72921">
        <ele>1449.1</ele>
        <time>2021-12-19T10:23:05Z</time>
      </trkpt>
      <trkpt lat="45.35338" lon="5.7292">
        <ele>1449.3</ele>
        <time>2021-12-19T10:23:06Z</time>
      </trkpt>
      <trkpt lat="45.35338" lon="5.72919">
        <ele>1449.4</ele>
        <time>2021-12-19T10:23:07Z</time>
      </trkpt>
      <trkpt lat="45.35337" lon="5.72918">
        <ele>1449.6</ele>
        <time>2021-12-19T10:23:08Z</time>
      </trkpt>
      <trkpt lat="45.35337" lon="5.72917">
        <ele>1449.7</ele>
        <time>2021-12-19T10:23:09Z</time>
      </trkpt>
      <trkpt lat="45.35337" lon="5.72916">
        <ele>1449.8</ele>
        <time>2021-12-19T10:23:10Z</time>
      </trkpt>
      <trkpt lat="45.35337" lon="5.72915">
        <ele>1450</ele>
        <time>2021-12-19T10:23:11Z</time>
      </trkpt>
      <trkpt lat="45.35337" lon="5.72914">
        <ele>1450.1</ele>
        <time>2021-12-19T10:23:12Z</time>
      </trkpt>
      <trkpt lat="45.35338" lon="5.72914">
        <ele>1450.2</ele>
        <time>2021-12-19T10:23:13Z</time>
      </trkpt>
      <trkpt lat="45.35338" lon="5.72914">
        <ele>1450.2</ele>
        <time>2021-12-19T10:23:14Z</time>
      </trkpt>
      <trkpt lat="45.35338" lon="5.72913">
        <ele>1450.3</ele>
        <time>2021-12-19T10:23:15Z</time>
      </trkpt>
      <trkpt lat="45.35338" lon="5.72913">
        <ele>1450.4</ele>
        <time>2021-12-19T10:23:16Z</time>
      </trkpt>
      <trkpt lat="45.35338" lon="5.72912">
        <ele>1450.5</ele>
        <time>2021-12-19T10:23:17Z</time>
      </trkpt>
      <trkpt lat="45.35338" lon="5.72911">
        <ele>1450.6</ele>
        <time>2021-12-19T10:23:18Z</time>
      </trkpt>
      <trkpt lat="45.35338" lon="5.72911">
        <ele>1450.7</ele>
        <time>2021-12-19T10:23:19Z</time>
      </trkpt>
      <trkpt lat="45.35338" lon="5.7291">
        <ele>1450.8</ele>
        <time>2021-12-19T10:23:20Z</time>
      </trkpt>
      <trkpt lat="45.35338" lon="5.7291">
        <ele>1450.8</ele>
        <time>2021-12-19T10:23:21Z</time>
      </trkpt>
      <trkpt lat="45.35339" lon="5.7291">
        <ele>1450.9</ele>
        <time>2021-12-19T10:23:22Z</time>
      </trkpt>
      <trkpt lat="45.35339" lon="5.7291">
        <ele>1450.9</ele>
        <time>2021-12-19T10:23:23Z</time>
      </trkpt>
      <trkpt lat="45.35339" lon="5.7291">
        <ele>1451</ele>
        <time>2021-12-19T10:23:24Z</time>
      </trkpt>
      <trkpt lat="45.35339" lon="5.72909">
        <ele>1451</ele>
        <time>2021-12-19T10:23:25Z</time>
      </trkpt>
      <trkpt lat="45.35339" lon="5.72909">
        <ele>1451.1</ele>
        <time>2021-12-19T10:23:26Z</time>
      </trkpt>
      <trkpt lat="45.35339" lon="5.72908">
        <ele>1451.2</ele>
        <time>2021-12-19T10:23:27Z</time>
      </trkpt>
      <trkpt lat="45.35339" lon="5.72908">
        <ele>1451.4</ele>
        <time>2021-12-19T10:23:28Z</time>
      </trkpt>
      <trkpt lat="45.35339" lon="5.72907">
        <ele>1451.5</ele>
        <time>2021-12-19T10:23:29Z</time>
      </trkpt>
      <trkpt lat="45.35339" lon="5.72907">
        <ele>1451.6</ele>
        <time>2021-12-19T10:23:30Z</time>
      </trkpt>
      <trkpt lat="45.35339" lon="5.72906">
        <ele>1451.7</ele>
        <time>2021-12-19T10:23:31Z</time>
      </trkpt>
      <trkpt lat="45.3534" lon="5.72904">
        <ele>1451.9</ele>
        <time>2021-12-19T10:23:32Z</time>
      </trkpt>
      <trkpt lat="45.3534" lon="5.72903">
        <ele>1452.1</ele>
        <time>2021-12-19T10:23:33Z</time>
      </trkpt>
      <trkpt lat="45.3534" lon="5.72902">
        <ele>1452.2</ele>
        <time>2021-12-19T10:23:34Z</time>
      </trkpt>
      <trkpt lat="45.3534" lon="5.72901">
        <ele>1452.4</ele>
        <time>2021-12-19T10:23:35Z</time>
      </trkpt>
      <trkpt lat="45.3534" lon="5.729">
        <ele>1452.6</ele>
        <time>2021-12-19T10:23:36Z</time>
      </trkpt>
      <trkpt lat="45.3534" lon="5.72898">
        <ele>1452.9</ele>
        <time>2021-12-19T10:23:37Z</time>
      </trkpt>
      <trkpt lat="45.3534" lon="5.72898">
        <ele>1453</ele>
        <time>2021-12-19T10:23:38Z</time>
      </trkpt>
      <trkpt lat="45.3534" lon="5.72897">
        <ele>1453.2</ele>
        <time>2021-12-19T10:23:39Z</time>
      </trkpt>
      <trkpt lat="45.3534" lon="5.72896">
        <ele>1453.3</ele>
        <time>2021-12-19T10:23:40Z</time>
      </trkpt>
      <trkpt lat="45.3534" lon="5.72895">
        <ele>1453.5</ele>
        <time>2021-12-19T10:23:41Z</time>
      </trkpt>
      <trkpt lat="45.3534" lon="5.72894">
        <ele>1453.6</ele>
        <time>2021-12-19T10:23:42Z</time>
      </trkpt>
      <trkpt lat="45.3534" lon="5.72893">
        <ele>1453.7</ele>
        <time>2021-12-19T10:23:43Z</time>
      </trkpt>
      <trkpt lat="45.3534" lon="5.72892">
        <ele>1453.9</ele>
        <time>2021-12-19T10:23:44Z</time>
      </trkpt>
      <trkpt lat="45.3534" lon="5.72891">
        <ele>1454</ele>
        <time>2021-12-19T10:23:45Z</time>
      </trkpt>
      <trkpt lat="45.3534" lon="5.72891">
        <ele>1454.1</ele>
        <time>2021-12-19T10:23:46Z</time>
      </trkpt>
      <trkpt lat="45.3534" lon="5.7289">
        <ele>1454.2</ele>
        <time>2021-12-19T10:23:47Z</time>
      </trkpt>
      <trkpt lat="45.35341" lon="5.72889">
        <ele>1454.3</ele>
        <time>2021-12-19T10:23:48Z</time>
      </trkpt>
      <trkpt lat="45.35341" lon="5.72888">
        <ele>1454.5</ele>
        <time>2021-12-19T10:23:49Z</time>
      </trkpt>
      <trkpt lat="45.35341" lon="5.72887">
        <ele>1454.6</ele>
        <time>2021-12-19T10:23:50Z</time>
      </trkpt>
      <trkpt lat="45.35341" lon="5.72887">
        <ele>1454.8</ele>
        <time>2021-12-19T10:23:51Z</time>
      </trkpt>
      <trkpt lat="45.35341" lon="5.72886">
        <ele>1454.9</ele>
        <time>2021-12-19T10:23:52Z</time>
      </trkpt>
      <trkpt lat="45.35342" lon="5.72885">
        <ele>1455.1</ele>
        <time>2021-12-19T10:23:53Z</time>
      </trkpt>
      <trkpt lat="45.35342" lon="5.72884">
        <ele>1455.3</ele>
        <time>2021-12-19T10:23:54Z</time>
      </trkpt>
      <trkpt lat="45.35343" lon="5.72883">
        <ele>1455.5</ele>
        <time>2021-12-19T10:23:55Z</time>
      </trkpt>
      <trkpt lat="45.35344" lon="5.72882">
        <ele>1456.1</ele>
        <time>2021-12-19T10:23:56Z</time>
      </trkpt>
      <trkpt lat="45.35344" lon="5.72881">
        <ele>1456.2</ele>
        <time>2021-12-19T10:23:57Z</time>
      </trkpt>
      <trkpt lat="45.35345" lon="5.7288">
        <ele>1456.5</ele>
        <time>2021-12-19T10:23:58Z</time>
      </trkpt>
      <trkpt lat="45.35345" lon="5.72878">
        <ele>1456.6</ele>
        <time>2021-12-19T10:23:59Z</time>
      </trkpt>
      <trkpt lat="45.35345" lon="5.72877">
        <ele>1456.8</ele>
        <time>2021-12-19T10:24:00Z</time>
      </trkpt>
      <trkpt lat="45.35346" lon="5.72876">
        <ele>1457</ele>
        <time>2021-12-19T10:24:01Z</time>
      </trkpt>
      <trkpt lat="45.35346" lon="5.72875">
        <ele>1457.2</ele>
        <time>2021-12-19T10:24:02Z</time>
      </trkpt>
      <trkpt lat="45.35347" lon="5.72874">
        <ele>1457.3</ele>
        <time>2021-12-19T10:24:03Z</time>
      </trkpt>
      <trkpt lat="45.35347" lon="5.72873">
        <ele>1457.5</ele>
        <time>2021-12-19T10:24:04Z</time>
      </trkpt>
      <trkpt lat="45.35348" lon="5.72872">
        <ele>1457.7</ele>
        <time>2021-12-19T10:24:05Z</time>
      </trkpt>
      <trkpt lat="45.35348" lon="5.72871">
        <ele>1457.9</ele>
        <time>2021-12-19T10:24:06Z</time>
      </trkpt>
      <trkpt lat="45.35348" lon="5.72869">
        <ele>1458.1</ele>
        <time>2021-12-19T10:24:07Z</time>
      </trkpt>
      <trkpt lat="45.35348" lon="5.72868">
        <ele>1458.3</ele>
        <time>2021-12-19T10:24:08Z</time>
      </trkpt>
      <trkpt lat="45.35349" lon="5.72867">
        <ele>1458.4</ele>
        <time>2021-12-19T10:24:09Z</time>
      </trkpt>
      <trkpt lat="45.35349" lon="5.72866">
        <ele>1458.6</ele>
        <time>2021-12-19T10:24:10Z</time>
      </trkpt>
      <trkpt lat="45.35349" lon="5.72865">
        <ele>1458.7</ele>
        <time>2021-12-19T10:24:11Z</time>
      </trkpt>
      <trkpt lat="45.35349" lon="5.72864">
        <ele>1458.8</ele>
        <time>2021-12-19T10:24:12Z</time>
      </trkpt>
      <trkpt lat="45.35349" lon="5.72863">
        <ele>1459</ele>
        <time>2021-12-19T10:24:13Z</time>
      </trkpt>
      <trkpt lat="45.35349" lon="5.72863">
        <ele>1459</ele>
        <time>2021-12-19T10:24:14Z</time>
      </trkpt>
      <trkpt lat="45.35349" lon="5.72862">
        <ele>1459.2</ele>
        <time>2021-12-19T10:24:15Z</time>
      </trkpt>
      <trkpt lat="45.35349" lon="5.72861">
        <ele>1459.3</ele>
        <time>2021-12-19T10:24:16Z</time>
      </trkpt>
      <trkpt lat="45.35349" lon="5.7286">
        <ele>1459.5</ele>
        <time>2021-12-19T10:24:17Z</time>
      </trkpt>
      <trkpt lat="45.35349" lon="5.72858">
        <ele>1459.7</ele>
        <time>2021-12-19T10:24:18Z</time>
      </trkpt>
      <trkpt lat="45.35349" lon="5.72857">
        <ele>1459.8</ele>
        <time>2021-12-19T10:24:19Z</time>
      </trkpt>
      <trkpt lat="45.35349" lon="5.72856">
        <ele>1460</ele>
        <time>2021-12-19T10:24:20Z</time>
      </trkpt>
      <trkpt lat="45.35348" lon="5.72855">
        <ele>1460.2</ele>
        <time>2021-12-19T10:24:21Z</time>
      </trkpt>
      <trkpt lat="45.35348" lon="5.72854">
        <ele>1460.4</ele>
        <time>2021-12-19T10:24:22Z</time>
      </trkpt>
      <trkpt lat="45.35348" lon="5.72853">
        <ele>1460.4</ele>
        <time>2021-12-19T10:24:23Z</time>
      </trkpt>
      <trkpt lat="45.35348" lon="5.72853">
        <ele>1460.5</ele>
        <time>2021-12-19T10:24:24Z</time>
      </trkpt>
      <trkpt lat="45.35348" lon="5.72852">
        <ele>1460.6</ele>
        <time>2021-12-19T10:24:25Z</time>
      </trkpt>
      <trkpt lat="45.35348" lon="5.72852">
        <ele>1460.7</ele>
        <time>2021-12-19T10:24:26Z</time>
      </trkpt>
      <trkpt lat="45.35348" lon="5.72851">
        <ele>1460.8</ele>
        <time>2021-12-19T10:24:27Z</time>
      </trkpt>
      <trkpt lat="45.35348" lon="5.7285">
        <ele>1460.9</ele>
        <time>2021-12-19T10:24:28Z</time>
      </trkpt>
      <trkpt lat="45.35348" lon="5.72849">
        <ele>1461</ele>
        <time>2021-12-19T10:24:29Z</time>
      </trkpt>
      <trkpt lat="45.35348" lon="5.72849">
        <ele>1461.1</ele>
        <time>2021-12-19T10:24:30Z</time>
      </trkpt>
      <trkpt lat="45.35347" lon="5.72848">
        <ele>1461.3</ele>
        <time>2021-12-19T10:24:31Z</time>
      </trkpt>
      <trkpt lat="45.35347" lon="5.72847">
        <ele>1461.4</ele>
        <time>2021-12-19T10:24:32Z</time>
      </trkpt>
      <trkpt lat="45.35346" lon="5.72846">
        <ele>1461.6</ele>
        <time>2021-12-19T10:24:33Z</time>
      </trkpt>
      <trkpt lat="45.35346" lon="5.72845">
        <ele>1461.7</ele>
        <time>2021-12-19T10:24:34Z</time>
      </trkpt>
      <trkpt lat="45.35346" lon="5.72844">
        <ele>1461.8</ele>
        <time>2021-12-19T10:24:35Z</time>
      </trkpt>
      <trkpt lat="45.35346" lon="5.72843">
        <ele>1462</ele>
        <time>2021-12-19T10:24:36Z</time>
      </trkpt>
      <trkpt lat="45.35346" lon="5.72843">
        <ele>1462.1</ele>
        <time>2021-12-19T10:24:37Z</time>
      </trkpt>
      <trkpt lat="45.35347" lon="5.72842">
        <ele>1462.2</ele>
        <time>2021-12-19T10:24:38Z</time>
      </trkpt>
      <trkpt lat="45.35347" lon="5.72841">
        <ele>1462.3</ele>
        <time>2021-12-19T10:24:39Z</time>
      </trkpt>
      <trkpt lat="45.35347" lon="5.7284">
        <ele>1462.5</ele>
        <time>2021-12-19T10:24:40Z</time>
      </trkpt>
      <trkpt lat="45.35347" lon="5.7284">
        <ele>1462.5</ele>
        <time>2021-12-19T10:24:41Z</time>
      </trkpt>
      <trkpt lat="45.35347" lon="5.72839">
        <ele>1462.6</ele>
        <time>2021-12-19T10:24:42Z</time>
      </trkpt>
      <trkpt lat="45.35348" lon="5.72838">
        <ele>1462.7</ele>
        <time>2021-12-19T10:24:43Z</time>
      </trkpt>
      <trkpt lat="45.35348" lon="5.72838">
        <ele>1462.8</ele>
        <time>2021-12-19T10:24:44Z</time>
      </trkpt>
      <trkpt lat="45.35348" lon="5.72837">
        <ele>1462.9</ele>
        <time>2021-12-19T10:24:45Z</time>
      </trkpt>
      <trkpt lat="45.35348" lon="5.72836">
        <ele>1463</ele>
        <time>2021-12-19T10:24:46Z</time>
      </trkpt>
      <trkpt lat="45.35348" lon="5.72835">
        <ele>1463.2</ele>
        <time>2021-12-19T10:24:47Z</time>
      </trkpt>
      <trkpt lat="45.35348" lon="5.72834">
        <ele>1463.3</ele>
        <time>2021-12-19T10:24:48Z</time>
      </trkpt>
      <trkpt lat="45.35348" lon="5.72833">
        <ele>1463.4</ele>
        <time>2021-12-19T10:24:49Z</time>
      </trkpt>
      <trkpt lat="45.35348" lon="5.72832">
        <ele>1463.5</ele>
        <time>2021-12-19T10:24:50Z</time>
      </trkpt>
      <trkpt lat="45.35347" lon="5.72832">
        <ele>1463.6</ele>
        <time>2021-12-19T10:24:51Z</time>
      </trkpt>
      <trkpt lat="45.35347" lon="5.7283">
        <ele>1463.8</ele>
        <time>2021-12-19T10:24:52Z</time>
      </trkpt>
      <trkpt lat="45.35346" lon="5.7283">
        <ele>1463.9</ele>
        <time>2021-12-19T10:24:53Z</time>
      </trkpt>
      <trkpt lat="45.35346" lon="5.72829">
        <ele>1464.1</ele>
        <time>2021-12-19T10:24:54Z</time>
      </trkpt>
      <trkpt lat="45.35346" lon="5.72829">
        <ele>1464.2</ele>
        <time>2021-12-19T10:24:55Z</time>
      </trkpt>
      <trkpt lat="45.35346" lon="5.72828">
        <ele>1464.3</ele>
        <time>2021-12-19T10:24:56Z</time>
      </trkpt>
      <trkpt lat="45.35346" lon="5.72827">
        <ele>1464.3</ele>
        <time>2021-12-19T10:24:57Z</time>
      </trkpt>
      <trkpt lat="45.35346" lon="5.72827">
        <ele>1464.4</ele>
        <time>2021-12-19T10:24:58Z</time>
      </trkpt>
      <trkpt lat="45.35346" lon="5.72826">
        <ele>1464.5</ele>
        <time>2021-12-19T10:24:59Z</time>
      </trkpt>
      <trkpt lat="45.35346" lon="5.72825">
        <ele>1464.6</ele>
        <time>2021-12-19T10:25:00Z</time>
      </trkpt>
      <trkpt lat="45.35346" lon="5.72825">
        <ele>1464.7</ele>
        <time>2021-12-19T10:25:01Z</time>
      </trkpt>
      <trkpt lat="45.35346" lon="5.72824">
        <ele>1464.9</ele>
        <time>2021-12-19T10:25:02Z</time>
      </trkpt>
      <trkpt lat="45.35346" lon="5.72822">
        <ele>1465</ele>
        <time>2021-12-19T10:25:03Z</time>
      </trkpt>
      <trkpt lat="45.35345" lon="5.72822">
        <ele>1465.1</ele>
        <time>2021-12-19T10:25:04Z</time>
      </trkpt>
      <trkpt lat="45.35345" lon="5.72821">
        <ele>1465.3</ele>
        <time>2021-12-19T10:25:05Z</time>
      </trkpt>
      <trkpt lat="45.35345" lon="5.7282">
        <ele>1465.4</ele>
        <time>2021-12-19T10:25:06Z</time>
      </trkpt>
      <trkpt lat="45.35344" lon="5.72819">
        <ele>1465.6</ele>
        <time>2021-12-19T10:25:07Z</time>
      </trkpt>
      <trkpt lat="45.35344" lon="5.72818">
        <ele>1465.7</ele>
        <time>2021-12-19T10:25:08Z</time>
      </trkpt>
      <trkpt lat="45.35343" lon="5.72817">
        <ele>1465.9</ele>
        <time>2021-12-19T10:25:09Z</time>
      </trkpt>
      <trkpt lat="45.35343" lon="5.72816">
        <ele>1466</ele>
        <time>2021-12-19T10:25:10Z</time>
      </trkpt>
      <trkpt lat="45.35343" lon="5.72815">
        <ele>1466.2</ele>
        <time>2021-12-19T10:25:11Z</time>
      </trkpt>
      <trkpt lat="45.35343" lon="5.72814">
        <ele>1466.3</ele>
        <time>2021-12-19T10:25:12Z</time>
      </trkpt>
      <trkpt lat="45.35343" lon="5.72813">
        <ele>1466.4</ele>
        <time>2021-12-19T10:25:13Z</time>
      </trkpt>
      <trkpt lat="45.35342" lon="5.72812">
        <ele>1466.6</ele>
        <time>2021-12-19T10:25:14Z</time>
      </trkpt>
      <trkpt lat="45.35342" lon="5.72811">
        <ele>1466.7</ele>
        <time>2021-12-19T10:25:15Z</time>
      </trkpt>
      <trkpt lat="45.35342" lon="5.7281">
        <ele>1466.9</ele>
        <time>2021-12-19T10:25:16Z</time>
      </trkpt>
      <trkpt lat="45.35342" lon="5.72809">
        <ele>1467</ele>
        <time>2021-12-19T10:25:17Z</time>
      </trkpt>
      <trkpt lat="45.35342" lon="5.72808">
        <ele>1467.1</ele>
        <time>2021-12-19T10:25:18Z</time>
      </trkpt>
      <trkpt lat="45.35342" lon="5.72808">
        <ele>1467.2</ele>
        <time>2021-12-19T10:25:19Z</time>
      </trkpt>
      <trkpt lat="45.35342" lon="5.72807">
        <ele>1467.3</ele>
        <time>2021-12-19T10:25:20Z</time>
      </trkpt>
      <trkpt lat="45.35342" lon="5.72807">
        <ele>1467.4</ele>
        <time>2021-12-19T10:25:21Z</time>
      </trkpt>
      <trkpt lat="45.35342" lon="5.72806">
        <ele>1467.5</ele>
        <time>2021-12-19T10:25:22Z</time>
      </trkpt>
      <trkpt lat="45.35342" lon="5.72805">
        <ele>1467.6</ele>
        <time>2021-12-19T10:25:23Z</time>
      </trkpt>
      <trkpt lat="45.35342" lon="5.72804">
        <ele>1467.7</ele>
        <time>2021-12-19T10:25:24Z</time>
      </trkpt>
      <trkpt lat="45.35342" lon="5.72804">
        <ele>1467.8</ele>
        <time>2021-12-19T10:25:25Z</time>
      </trkpt>
      <trkpt lat="45.35343" lon="5.72803">
        <ele>1468</ele>
        <time>2021-12-19T10:25:26Z</time>
      </trkpt>
      <trkpt lat="45.35342" lon="5.72802">
        <ele>1468.1</ele>
        <time>2021-12-19T10:25:27Z</time>
      </trkpt>
      <trkpt lat="45.35342" lon="5.72801">
        <ele>1468.2</ele>
        <time>2021-12-19T10:25:28Z</time>
      </trkpt>
      <trkpt lat="45.35342" lon="5.728">
        <ele>1468.4</ele>
        <time>2021-12-19T10:25:29Z</time>
      </trkpt>
      <trkpt lat="45.35342" lon="5.72799">
        <ele>1468.5</ele>
        <time>2021-12-19T10:25:30Z</time>
      </trkpt>
      <trkpt lat="45.35343" lon="5.72798">
        <ele>1468.7</ele>
        <time>2021-12-19T10:25:31Z</time>
      </trkpt>
      <trkpt lat="45.35342" lon="5.72797">
        <ele>1468.9</ele>
        <time>2021-12-19T10:25:32Z</time>
      </trkpt>
      <trkpt lat="45.35342" lon="5.72796">
        <ele>1469</ele>
        <time>2021-12-19T10:25:33Z</time>
      </trkpt>
      <trkpt lat="45.35342" lon="5.72795">
        <ele>1469.2</ele>
        <time>2021-12-19T10:25:34Z</time>
      </trkpt>
      <trkpt lat="45.35343" lon="5.72794">
        <ele>1469.3</ele>
        <time>2021-12-19T10:25:35Z</time>
      </trkpt>
      <trkpt lat="45.35343" lon="5.72793">
        <ele>1469.4</ele>
        <time>2021-12-19T10:25:36Z</time>
      </trkpt>
      <trkpt lat="45.35343" lon="5.72793">
        <ele>1469.5</ele>
        <time>2021-12-19T10:25:37Z</time>
      </trkpt>
      <trkpt lat="45.35343" lon="5.72792">
        <ele>1469.6</ele>
        <time>2021-12-19T10:25:38Z</time>
      </trkpt>
      <trkpt lat="45.35343" lon="5.72792">
        <ele>1469.6</ele>
        <time>2021-12-19T10:25:39Z</time>
      </trkpt>
      <trkpt lat="45.35344" lon="5.72792">
        <ele>1469.7</ele>
        <time>2021-12-19T10:25:40Z</time>
      </trkpt>
      <trkpt lat="45.35344" lon="5.72791">
        <ele>1469.8</ele>
        <time>2021-12-19T10:25:41Z</time>
      </trkpt>
      <trkpt lat="45.35344" lon="5.72791">
        <ele>1469.9</ele>
        <time>2021-12-19T10:25:42Z</time>
      </trkpt>
      <trkpt lat="45.35344" lon="5.7279">
        <ele>1470</ele>
        <time>2021-12-19T10:25:43Z</time>
      </trkpt>
      <trkpt lat="45.35344" lon="5.72789">
        <ele>1470.2</ele>
        <time>2021-12-19T10:25:44Z</time>
      </trkpt>
      <trkpt lat="45.35344" lon="5.72788">
        <ele>1470.3</ele>
        <time>2021-12-19T10:25:45Z</time>
      </trkpt>
      <trkpt lat="45.35344" lon="5.72787">
        <ele>1470.5</ele>
        <time>2021-12-19T10:25:46Z</time>
      </trkpt>
      <trkpt lat="45.35344" lon="5.72786">
        <ele>1470.6</ele>
        <time>2021-12-19T10:25:47Z</time>
      </trkpt>
      <trkpt lat="45.35345" lon="5.72785">
        <ele>1470.8</ele>
        <time>2021-12-19T10:25:48Z</time>
      </trkpt>
      <trkpt lat="45.35345" lon="5.72784">
        <ele>1470.9</ele>
        <time>2021-12-19T10:25:49Z</time>
      </trkpt>
      <trkpt lat="45.35346" lon="5.72784">
        <ele>1471.1</ele>
        <time>2021-12-19T10:25:50Z</time>
      </trkpt>
      <trkpt lat="45.35347" lon="5.72783">
        <ele>1471.4</ele>
        <time>2021-12-19T10:25:51Z</time>
      </trkpt>
      <trkpt lat="45.35347" lon="5.72782">
        <ele>1471.6</ele>
        <time>2021-12-19T10:25:52Z</time>
      </trkpt>
      <trkpt lat="45.35348" lon="5.72781">
        <ele>1471.7</ele>
        <time>2021-12-19T10:25:53Z</time>
      </trkpt>
      <trkpt lat="45.35349" lon="5.7278">
        <ele>1471.9</ele>
        <time>2021-12-19T10:25:54Z</time>
      </trkpt>
      <trkpt lat="45.35349" lon="5.7278">
        <ele>1472</ele>
        <time>2021-12-19T10:25:55Z</time>
      </trkpt>
      <trkpt lat="45.35349" lon="5.72779">
        <ele>1472.2</ele>
        <time>2021-12-19T10:25:56Z</time>
      </trkpt>
      <trkpt lat="45.3535" lon="5.72778">
        <ele>1472.4</ele>
        <time>2021-12-19T10:25:57Z</time>
      </trkpt>
      <trkpt lat="45.3535" lon="5.72777">
        <ele>1472.5</ele>
        <time>2021-12-19T10:25:58Z</time>
      </trkpt>
      <trkpt lat="45.3535" lon="5.72776">
        <ele>1472.6</ele>
        <time>2021-12-19T10:25:59Z</time>
      </trkpt>
      <trkpt lat="45.35351" lon="5.72775">
        <ele>1472.8</ele>
        <time>2021-12-19T10:26:00Z</time>
      </trkpt>
      <trkpt lat="45.35351" lon="5.72774">
        <ele>1472.9</ele>
        <time>2021-12-19T10:26:01Z</time>
      </trkpt>
      <trkpt lat="45.35351" lon="5.72773">
        <ele>1473.1</ele>
        <time>2021-12-19T10:26:02Z</time>
      </trkpt>
      <trkpt lat="45.35351" lon="5.72772">
        <ele>1473.3</ele>
        <time>2021-12-19T10:26:03Z</time>
      </trkpt>
      <trkpt lat="45.35351" lon="5.72771">
        <ele>1473.4</ele>
        <time>2021-12-19T10:26:04Z</time>
      </trkpt>
      <trkpt lat="45.35351" lon="5.72771">
        <ele>1473.5</ele>
        <time>2021-12-19T10:26:05Z</time>
      </trkpt>
      <trkpt lat="45.35351" lon="5.7277">
        <ele>1473.7</ele>
        <time>2021-12-19T10:26:06Z</time>
      </trkpt>
      <trkpt lat="45.35351" lon="5.72769">
        <ele>1473.8</ele>
        <time>2021-12-19T10:26:07Z</time>
      </trkpt>
      <trkpt lat="45.35351" lon="5.72768">
        <ele>1473.9</ele>
        <time>2021-12-19T10:26:08Z</time>
      </trkpt>
      <trkpt lat="45.35351" lon="5.72767">
        <ele>1474</ele>
        <time>2021-12-19T10:26:09Z</time>
      </trkpt>
      <trkpt lat="45.35351" lon="5.72767">
        <ele>1474.2</ele>
        <time>2021-12-19T10:26:10Z</time>
      </trkpt>
      <trkpt lat="45.35351" lon="5.72766">
        <ele>1474.4</ele>
        <time>2021-12-19T10:26:11Z</time>
      </trkpt>
      <trkpt lat="45.3535" lon="5.72765">
        <ele>1474.5</ele>
        <time>2021-12-19T10:26:12Z</time>
      </trkpt>
      <trkpt lat="45.3535" lon="5.72764">
        <ele>1474.7</ele>
        <time>2021-12-19T10:26:13Z</time>
      </trkpt>
      <trkpt lat="45.3535" lon="5.72763">
        <ele>1474.8</ele>
        <time>2021-12-19T10:26:14Z</time>
      </trkpt>
      <trkpt lat="45.35349" lon="5.72762">
        <ele>1475</ele>
        <time>2021-12-19T10:26:15Z</time>
      </trkpt>
      <trkpt lat="45.35349" lon="5.72761">
        <ele>1475.1</ele>
        <time>2021-12-19T10:26:16Z</time>
      </trkpt>
      <trkpt lat="45.35349" lon="5.72761">
        <ele>1475.2</ele>
        <time>2021-12-19T10:26:17Z</time>
      </trkpt>
      <trkpt lat="45.35349" lon="5.7276">
        <ele>1475.3</ele>
        <time>2021-12-19T10:26:18Z</time>
      </trkpt>
      <trkpt lat="45.35348" lon="5.7276">
        <ele>1475.4</ele>
        <time>2021-12-19T10:26:19Z</time>
      </trkpt>
      <trkpt lat="45.35348" lon="5.72759">
        <ele>1475.6</ele>
        <time>2021-12-19T10:26:20Z</time>
      </trkpt>
      <trkpt lat="45.35348" lon="5.72758">
        <ele>1475.7</ele>
        <time>2021-12-19T10:26:21Z</time>
      </trkpt>
      <trkpt lat="45.35348" lon="5.72757">
        <ele>1475.8</ele>
        <time>2021-12-19T10:26:22Z</time>
      </trkpt>
      <trkpt lat="45.35348" lon="5.72756">
        <ele>1475.9</ele>
        <time>2021-12-19T10:26:23Z</time>
      </trkpt>
      <trkpt lat="45.35348" lon="5.72755">
        <ele>1476.1</ele>
        <time>2021-12-19T10:26:24Z</time>
      </trkpt>
      <trkpt lat="45.35348" lon="5.72755">
        <ele>1476.2</ele>
        <time>2021-12-19T10:26:25Z</time>
      </trkpt>
      <trkpt lat="45.35348" lon="5.72754">
        <ele>1476.2</ele>
        <time>2021-12-19T10:26:26Z</time>
      </trkpt>
      <trkpt lat="45.35347" lon="5.72754">
        <ele>1476.3</ele>
        <time>2021-12-19T10:26:27Z</time>
      </trkpt>
      <trkpt lat="45.35347" lon="5.72753">
        <ele>1476.4</ele>
        <time>2021-12-19T10:26:28Z</time>
      </trkpt>
      <trkpt lat="45.35347" lon="5.72752">
        <ele>1476.6</ele>
        <time>2021-12-19T10:26:29Z</time>
      </trkpt>
      <trkpt lat="45.35346" lon="5.72752">
        <ele>1476.7</ele>
        <time>2021-12-19T10:26:30Z</time>
      </trkpt>
      <trkpt lat="45.35346" lon="5.72751">
        <ele>1476.8</ele>
        <time>2021-12-19T10:26:31Z</time>
      </trkpt>
      <trkpt lat="45.35346" lon="5.72751">
        <ele>1476.9</ele>
        <time>2021-12-19T10:26:32Z</time>
      </trkpt>
      <trkpt lat="45.35346" lon="5.7275">
        <ele>1477</ele>
        <time>2021-12-19T10:26:33Z</time>
      </trkpt>
      <trkpt lat="45.35346" lon="5.72749">
        <ele>1477.1</ele>
        <time>2021-12-19T10:26:34Z</time>
      </trkpt>
      <trkpt lat="45.35346" lon="5.72748">
        <ele>1477.2</ele>
        <time>2021-12-19T10:26:35Z</time>
      </trkpt>
      <trkpt lat="45.35346" lon="5.72747">
        <ele>1477.4</ele>
        <time>2021-12-19T10:26:36Z</time>
      </trkpt>
      <trkpt lat="45.35346" lon="5.72746">
        <ele>1477.5</ele>
        <time>2021-12-19T10:26:37Z</time>
      </trkpt>
      <trkpt lat="45.35346" lon="5.72745">
        <ele>1477.6</ele>
        <time>2021-12-19T10:26:38Z</time>
      </trkpt>
      <trkpt lat="45.35346" lon="5.72745">
        <ele>1477.7</ele>
        <time>2021-12-19T10:26:39Z</time>
      </trkpt>
      <trkpt lat="45.35345" lon="5.72744">
        <ele>1477.9</ele>
        <time>2021-12-19T10:26:40Z</time>
      </trkpt>
      <trkpt lat="45.35345" lon="5.72742">
        <ele>1478.1</ele>
        <time>2021-12-19T10:26:41Z</time>
      </trkpt>
      <trkpt lat="45.35345" lon="5.72741">
        <ele>1478.3</ele>
        <time>2021-12-19T10:26:42Z</time>
      </trkpt>
      <trkpt lat="45.35345" lon="5.72739">
        <ele>1478.5</ele>
        <time>2021-12-19T10:26:43Z</time>
      </trkpt>
      <trkpt lat="45.35344" lon="5.72738">
        <ele>1478.7</ele>
        <time>2021-12-19T10:26:44Z</time>
      </trkpt>
      <trkpt lat="45.35344" lon="5.72736">
        <ele>1478.9</ele>
        <time>2021-12-19T10:26:45Z</time>
      </trkpt>
      <trkpt lat="45.35344" lon="5.72735">
        <ele>1479.1</ele>
        <time>2021-12-19T10:26:46Z</time>
      </trkpt>
      <trkpt lat="45.35344" lon="5.72734">
        <ele>1479.2</ele>
        <time>2021-12-19T10:26:47Z</time>
      </trkpt>
      <trkpt lat="45.35344" lon="5.72733">
        <ele>1479.3</ele>
        <time>2021-12-19T10:26:48Z</time>
      </trkpt>
      <trkpt lat="45.35344" lon="5.72732">
        <ele>1479.4</ele>
        <time>2021-12-19T10:26:49Z</time>
      </trkpt>
      <trkpt lat="45.35344" lon="5.72731">
        <ele>1479.5</ele>
        <time>2021-12-19T10:26:50Z</time>
      </trkpt>
      <trkpt lat="45.35344" lon="5.7273">
        <ele>1479.7</ele>
        <time>2021-12-19T10:26:51Z</time>
      </trkpt>
      <trkpt lat="45.35344" lon="5.72729">
        <ele>1479.8</ele>
        <time>2021-12-19T10:26:52Z</time>
      </trkpt>
      <trkpt lat="45.35343" lon="5.72728">
        <ele>1479.9</ele>
        <time>2021-12-19T10:26:53Z</time>
      </trkpt>
      <trkpt lat="45.35343" lon="5.72727">
        <ele>1480</ele>
        <time>2021-12-19T10:26:54Z</time>
      </trkpt>
      <trkpt lat="45.35343" lon="5.72726">
        <ele>1480.2</ele>
        <time>2021-12-19T10:26:55Z</time>
      </trkpt>
      <trkpt lat="45.35343" lon="5.72725">
        <ele>1480.3</ele>
        <time>2021-12-19T10:26:56Z</time>
      </trkpt>
      <trkpt lat="45.35342" lon="5.72724">
        <ele>1480.4</ele>
        <time>2021-12-19T10:26:57Z</time>
      </trkpt>
      <trkpt lat="45.35342" lon="5.72722">
        <ele>1480.6</ele>
        <time>2021-12-19T10:26:58Z</time>
      </trkpt>
      <trkpt lat="45.35342" lon="5.72722">
        <ele>1480.6</ele>
        <time>2021-12-19T10:26:59Z</time>
      </trkpt>
      <trkpt lat="45.35342" lon="5.72721">
        <ele>1480.8</ele>
        <time>2021-12-19T10:27:00Z</time>
      </trkpt>
      <trkpt lat="45.35343" lon="5.7272">
        <ele>1480.9</ele>
        <time>2021-12-19T10:27:01Z</time>
      </trkpt>
      <trkpt lat="45.35343" lon="5.72718">
        <ele>1481</ele>
        <time>2021-12-19T10:27:02Z</time>
      </trkpt>
      <trkpt lat="45.35343" lon="5.72717">
        <ele>1481.1</ele>
        <time>2021-12-19T10:27:03Z</time>
      </trkpt>
      <trkpt lat="45.35343" lon="5.72716">
        <ele>1481.2</ele>
        <time>2021-12-19T10:27:04Z</time>
      </trkpt>
      <trkpt lat="45.35343" lon="5.72715">
        <ele>1481.3</ele>
        <time>2021-12-19T10:27:05Z</time>
      </trkpt>
      <trkpt lat="45.35343" lon="5.72714">
        <ele>1481.4</ele>
        <time>2021-12-19T10:27:06Z</time>
      </trkpt>
      <trkpt lat="45.35343" lon="5.72712">
        <ele>1481.5</ele>
        <time>2021-12-19T10:27:07Z</time>
      </trkpt>
      <trkpt lat="45.35343" lon="5.72711">
        <ele>1481.7</ele>
        <time>2021-12-19T10:27:08Z</time>
      </trkpt>
      <trkpt lat="45.35343" lon="5.7271">
        <ele>1481.8</ele>
        <time>2021-12-19T10:27:09Z</time>
      </trkpt>
      <trkpt lat="45.35342" lon="5.72709">
        <ele>1481.9</ele>
        <time>2021-12-19T10:27:10Z</time>
      </trkpt>
      <trkpt lat="45.35343" lon="5.72708">
        <ele>1482</ele>
        <time>2021-12-19T10:27:11Z</time>
      </trkpt>
      <trkpt lat="45.35342" lon="5.72707">
        <ele>1482.1</ele>
        <time>2021-12-19T10:27:12Z</time>
      </trkpt>
      <trkpt lat="45.35342" lon="5.72705">
        <ele>1482.2</ele>
        <time>2021-12-19T10:27:13Z</time>
      </trkpt>
      <trkpt lat="45.35343" lon="5.72704">
        <ele>1482.3</ele>
        <time>2021-12-19T10:27:14Z</time>
      </trkpt>
      <trkpt lat="45.35343" lon="5.72703">
        <ele>1482.4</ele>
        <time>2021-12-19T10:27:15Z</time>
      </trkpt>
      <trkpt lat="45.35343" lon="5.72701">
        <ele>1482.5</ele>
        <time>2021-12-19T10:27:16Z</time>
      </trkpt>
      <trkpt lat="45.35343" lon="5.727">
        <ele>1482.6</ele>
        <time>2021-12-19T10:27:17Z</time>
      </trkpt>
      <trkpt lat="45.35343" lon="5.72699">
        <ele>1482.7</ele>
        <time>2021-12-19T10:27:18Z</time>
      </trkpt>
      <trkpt lat="45.35344" lon="5.72697">
        <ele>1482.8</ele>
        <time>2021-12-19T10:27:19Z</time>
      </trkpt>
      <trkpt lat="45.35344" lon="5.72696">
        <ele>1482.9</ele>
        <time>2021-12-19T10:27:20Z</time>
      </trkpt>
      <trkpt lat="45.35344" lon="5.72695">
        <ele>1483</ele>
        <time>2021-12-19T10:27:21Z</time>
      </trkpt>
      <trkpt lat="45.35343" lon="5.72693">
        <ele>1483.1</ele>
        <time>2021-12-19T10:27:22Z</time>
      </trkpt>
      <trkpt lat="45.35343" lon="5.72692">
        <ele>1483.2</ele>
        <time>2021-12-19T10:27:23Z</time>
      </trkpt>
      <trkpt lat="45.35343" lon="5.7269">
        <ele>1483.3</ele>
        <time>2021-12-19T10:27:24Z</time>
      </trkpt>
      <trkpt lat="45.35343" lon="5.72689">
        <ele>1483.4</ele>
        <time>2021-12-19T10:27:25Z</time>
      </trkpt>
      <trkpt lat="45.35343" lon="5.72688">
        <ele>1483.5</ele>
        <time>2021-12-19T10:27:26Z</time>
      </trkpt>
      <trkpt lat="45.35343" lon="5.72687">
        <ele>1483.6</ele>
        <time>2021-12-19T10:27:27Z</time>
      </trkpt>
      <trkpt lat="45.35343" lon="5.72686">
        <ele>1483.7</ele>
        <time>2021-12-19T10:27:28Z</time>
      </trkpt>
      <trkpt lat="45.35344" lon="5.72684">
        <ele>1483.7</ele>
        <time>2021-12-19T10:27:29Z</time>
      </trkpt>
      <trkpt lat="45.35343" lon="5.72683">
        <ele>1483.8</ele>
        <time>2021-12-19T10:27:30Z</time>
      </trkpt>
      <trkpt lat="45.35343" lon="5.72682">
        <ele>1483.9</ele>
        <time>2021-12-19T10:27:31Z</time>
      </trkpt>
      <trkpt lat="45.35343" lon="5.72681">
        <ele>1484</ele>
        <time>2021-12-19T10:27:32Z</time>
      </trkpt>
      <trkpt lat="45.35343" lon="5.72679">
        <ele>1484.1</ele>
        <time>2021-12-19T10:27:33Z</time>
      </trkpt>
      <trkpt lat="45.35343" lon="5.72678">
        <ele>1484.2</ele>
        <time>2021-12-19T10:27:34Z</time>
      </trkpt>
      <trkpt lat="45.35343" lon="5.72677">
        <ele>1484.2</ele>
        <time>2021-12-19T10:27:35Z</time>
      </trkpt>
      <trkpt lat="45.35343" lon="5.72676">
        <ele>1484.3</ele>
        <time>2021-12-19T10:27:36Z</time>
      </trkpt>
      <trkpt lat="45.35343" lon="5.72675">
        <ele>1484.4</ele>
        <time>2021-12-19T10:27:37Z</time>
      </trkpt>
      <trkpt lat="45.35343" lon="5.72673">
        <ele>1484.5</ele>
        <time>2021-12-19T10:27:38Z</time>
      </trkpt>
      <trkpt lat="45.35343" lon="5.72672">
        <ele>1484.6</ele>
        <time>2021-12-19T10:27:39Z</time>
      </trkpt>
      <trkpt lat="45.35343" lon="5.72671">
        <ele>1484.6</ele>
        <time>2021-12-19T10:27:40Z</time>
      </trkpt>
      <trkpt lat="45.35342" lon="5.7267">
        <ele>1484.7</ele>
        <time>2021-12-19T10:27:41Z</time>
      </trkpt>
      <trkpt lat="45.35342" lon="5.72669">
        <ele>1484.8</ele>
        <time>2021-12-19T10:27:42Z</time>
      </trkpt>
      <trkpt lat="45.35342" lon="5.72668">
        <ele>1484.9</ele>
        <time>2021-12-19T10:27:43Z</time>
      </trkpt>
      <trkpt lat="45.35342" lon="5.72667">
        <ele>1484.9</ele>
        <time>2021-12-19T10:27:44Z</time>
      </trkpt>
      <trkpt lat="45.35343" lon="5.72665">
        <ele>1485</ele>
        <time>2021-12-19T10:27:45Z</time>
      </trkpt>
      <trkpt lat="45.35343" lon="5.72664">
        <ele>1485.1</ele>
        <time>2021-12-19T10:27:46Z</time>
      </trkpt>
      <trkpt lat="45.35343" lon="5.72663">
        <ele>1485.2</ele>
        <time>2021-12-19T10:27:47Z</time>
      </trkpt>
      <trkpt lat="45.35343" lon="5.72662">
        <ele>1485.2</ele>
        <time>2021-12-19T10:27:48Z</time>
      </trkpt>
      <trkpt lat="45.35343" lon="5.72661">
        <ele>1485.3</ele>
        <time>2021-12-19T10:27:49Z</time>
      </trkpt>
      <trkpt lat="45.35343" lon="5.72661">
        <ele>1485.3</ele>
        <time>2021-12-19T10:27:50Z</time>
      </trkpt>
      <trkpt lat="45.35343" lon="5.7266">
        <ele>1485.4</ele>
        <time>2021-12-19T10:27:51Z</time>
      </trkpt>
      <trkpt lat="45.35343" lon="5.72659">
        <ele>1485.5</ele>
        <time>2021-12-19T10:27:52Z</time>
      </trkpt>
      <trkpt lat="45.35343" lon="5.72658">
        <ele>1485.6</ele>
        <time>2021-12-19T10:27:53Z</time>
      </trkpt>
      <trkpt lat="45.35343" lon="5.72657">
        <ele>1485.6</ele>
        <time>2021-12-19T10:27:54Z</time>
      </trkpt>
      <trkpt lat="45.35343" lon="5.72656">
        <ele>1485.7</ele>
        <time>2021-12-19T10:27:55Z</time>
      </trkpt>
      <trkpt lat="45.35343" lon="5.72655">
        <ele>1485.7</ele>
        <time>2021-12-19T10:27:56Z</time>
      </trkpt>
      <trkpt lat="45.35343" lon="5.72654">
        <ele>1485.8</ele>
        <time>2021-12-19T10:27:57Z</time>
      </trkpt>
      <trkpt lat="45.35344" lon="5.72653">
        <ele>1485.9</ele>
        <time>2021-12-19T10:27:58Z</time>
      </trkpt>
      <trkpt lat="45.35344" lon="5.72652">
        <ele>1486</ele>
        <time>2021-12-19T10:27:59Z</time>
      </trkpt>
      <trkpt lat="45.35344" lon="5.72651">
        <ele>1486</ele>
        <time>2021-12-19T10:28:00Z</time>
      </trkpt>
      <trkpt lat="45.35344" lon="5.72651">
        <ele>1486.1</ele>
        <time>2021-12-19T10:28:01Z</time>
      </trkpt>
      <trkpt lat="45.35344" lon="5.7265">
        <ele>1486.1</ele>
        <time>2021-12-19T10:28:02Z</time>
      </trkpt>
      <trkpt lat="45.35343" lon="5.72649">
        <ele>1486.2</ele>
        <time>2021-12-19T10:28:03Z</time>
      </trkpt>
      <trkpt lat="45.35343" lon="5.72648">
        <ele>1486.3</ele>
        <time>2021-12-19T10:28:04Z</time>
      </trkpt>
      <trkpt lat="45.35343" lon="5.72647">
        <ele>1486.3</ele>
        <time>2021-12-19T10:28:05Z</time>
      </trkpt>
      <trkpt lat="45.35343" lon="5.72646">
        <ele>1486.4</ele>
        <time>2021-12-19T10:28:06Z</time>
      </trkpt>
      <trkpt lat="45.35343" lon="5.72645">
        <ele>1486.5</ele>
        <time>2021-12-19T10:28:07Z</time>
      </trkpt>
      <trkpt lat="45.35343" lon="5.72644">
        <ele>1486.6</ele>
        <time>2021-12-19T10:28:08Z</time>
      </trkpt>
      <trkpt lat="45.35343" lon="5.72643">
        <ele>1486.6</ele>
        <time>2021-12-19T10:28:09Z</time>
      </trkpt>
      <trkpt lat="45.35343" lon="5.72643">
        <ele>1486.7</ele>
        <time>2021-12-19T10:28:10Z</time>
      </trkpt>
      <trkpt lat="45.35343" lon="5.72642">
        <ele>1486.7</ele>
        <time>2021-12-19T10:28:11Z</time>
      </trkpt>
      <trkpt lat="45.35343" lon="5.72641">
        <ele>1486.8</ele>
        <time>2021-12-19T10:28:12Z</time>
      </trkpt>
      <trkpt lat="45.35343" lon="5.7264">
        <ele>1486.9</ele>
        <time>2021-12-19T10:28:13Z</time>
      </trkpt>
      <trkpt lat="45.35343" lon="5.7264">
        <ele>1486.9</ele>
        <time>2021-12-19T10:28:14Z</time>
      </trkpt>
      <trkpt lat="45.35342" lon="5.72639">
        <ele>1487</ele>
        <time>2021-12-19T10:28:15Z</time>
      </trkpt>
      <trkpt lat="45.35342" lon="5.72638">
        <ele>1487.1</ele>
        <time>2021-12-19T10:28:16Z</time>
      </trkpt>
      <trkpt lat="45.35342" lon="5.72637">
        <ele>1487.1</ele>
        <time>2021-12-19T10:28:17Z</time>
      </trkpt>
      <trkpt lat="45.35342" lon="5.72637">
        <ele>1487.2</ele>
        <time>2021-12-19T10:28:18Z</time>
      </trkpt>
      <trkpt lat="45.35342" lon="5.72636">
        <ele>1487.2</ele>
        <time>2021-12-19T10:28:19Z</time>
      </trkpt>
      <trkpt lat="45.35341" lon="5.72636">
        <ele>1487.3</ele>
        <time>2021-12-19T10:28:20Z</time>
      </trkpt>
      <trkpt lat="45.35341" lon="5.72635">
        <ele>1487.4</ele>
        <time>2021-12-19T10:28:21Z</time>
      </trkpt>
      <trkpt lat="45.35341" lon="5.72634">
        <ele>1487.4</ele>
        <time>2021-12-19T10:28:22Z</time>
      </trkpt>
      <trkpt lat="45.35341" lon="5.72634">
        <ele>1487.5</ele>
        <time>2021-12-19T10:28:23Z</time>
      </trkpt>
      <trkpt lat="45.35341" lon="5.72634">
        <ele>1487.5</ele>
        <time>2021-12-19T10:28:24Z</time>
      </trkpt>
      <trkpt lat="45.35341" lon="5.72633">
        <ele>1487.5</ele>
        <time>2021-12-19T10:28:25Z</time>
      </trkpt>
      <trkpt lat="45.3534" lon="5.72633">
        <ele>1487.6</ele>
        <time>2021-12-19T10:28:26Z</time>
      </trkpt>
      <trkpt lat="45.3534" lon="5.72633">
        <ele>1487.6</ele>
        <time>2021-12-19T10:28:27Z</time>
      </trkpt>
      <trkpt lat="45.3534" lon="5.72632">
        <ele>1487.6</ele>
        <time>2021-12-19T10:28:28Z</time>
      </trkpt>
      <trkpt lat="45.3534" lon="5.72632">
        <ele>1487.7</ele>
        <time>2021-12-19T10:28:29Z</time>
      </trkpt>
      <trkpt lat="45.3534" lon="5.72631">
        <ele>1487.8</ele>
        <time>2021-12-19T10:28:30Z</time>
      </trkpt>
      <trkpt lat="45.3534" lon="5.7263">
        <ele>1487.9</ele>
        <time>2021-12-19T10:28:31Z</time>
      </trkpt>
      <trkpt lat="45.3534" lon="5.72628">
        <ele>1488</ele>
        <time>2021-12-19T10:28:32Z</time>
      </trkpt>
      <trkpt lat="45.35341" lon="5.72627">
        <ele>1488.1</ele>
        <time>2021-12-19T10:28:33Z</time>
      </trkpt>
      <trkpt lat="45.35341" lon="5.72627">
        <ele>1488.1</ele>
        <time>2021-12-19T10:28:34Z</time>
      </trkpt>
      <trkpt lat="45.35341" lon="5.72626">
        <ele>1488.2</ele>
        <time>2021-12-19T10:28:35Z</time>
      </trkpt>
      <trkpt lat="45.35341" lon="5.72625">
        <ele>1488.3</ele>
        <time>2021-12-19T10:28:36Z</time>
      </trkpt>
      <trkpt lat="45.35341" lon="5.72624">
        <ele>1488.4</ele>
        <time>2021-12-19T10:28:37Z</time>
      </trkpt>
      <trkpt lat="45.35341" lon="5.72623">
        <ele>1488.5</ele>
        <time>2021-12-19T10:28:38Z</time>
      </trkpt>
      <trkpt lat="45.3534" lon="5.72622">
        <ele>1488.6</ele>
        <time>2021-12-19T10:28:39Z</time>
      </trkpt>
      <trkpt lat="45.3534" lon="5.72621">
        <ele>1488.7</ele>
        <time>2021-12-19T10:28:40Z</time>
      </trkpt>
      <trkpt lat="45.3534" lon="5.72621">
        <ele>1488.8</ele>
        <time>2021-12-19T10:28:41Z</time>
      </trkpt>
      <trkpt lat="45.3534" lon="5.7262">
        <ele>1488.8</ele>
        <time>2021-12-19T10:28:42Z</time>
      </trkpt>
      <trkpt lat="45.35339" lon="5.72619">
        <ele>1488.9</ele>
        <time>2021-12-19T10:28:43Z</time>
      </trkpt>
      <trkpt lat="45.35339" lon="5.72618">
        <ele>1489</ele>
        <time>2021-12-19T10:28:44Z</time>
      </trkpt>
      <trkpt lat="45.35339" lon="5.72617">
        <ele>1489.1</ele>
        <time>2021-12-19T10:28:45Z</time>
      </trkpt>
      <trkpt lat="45.35339" lon="5.72616">
        <ele>1489.2</ele>
        <time>2021-12-19T10:28:46Z</time>
      </trkpt>
      <trkpt lat="45.35339" lon="5.72615">
        <ele>1489.3</ele>
        <time>2021-12-19T10:28:47Z</time>
      </trkpt>
      <trkpt lat="45.35339" lon="5.72615">
        <ele>1489.3</ele>
        <time>2021-12-19T10:28:48Z</time>
      </trkpt>
      <trkpt lat="45.35339" lon="5.72615">
        <ele>1489.4</ele>
        <time>2021-12-19T10:28:49Z</time>
      </trkpt>
      <trkpt lat="45.35339" lon="5.72614">
        <ele>1489.4</ele>
        <time>2021-12-19T10:28:50Z</time>
      </trkpt>
      <trkpt lat="45.35338" lon="5.72613">
        <ele>1489.5</ele>
        <time>2021-12-19T10:28:51Z</time>
      </trkpt>
      <trkpt lat="45.35338" lon="5.72612">
        <ele>1489.6</ele>
        <time>2021-12-19T10:28:52Z</time>
      </trkpt>
      <trkpt lat="45.35338" lon="5.72611">
        <ele>1489.7</ele>
        <time>2021-12-19T10:28:53Z</time>
      </trkpt>
      <trkpt lat="45.35338" lon="5.72611">
        <ele>1489.8</ele>
        <time>2021-12-19T10:28:54Z</time>
      </trkpt>
      <trkpt lat="45.35338" lon="5.7261">
        <ele>1489.9</ele>
        <time>2021-12-19T10:28:55Z</time>
      </trkpt>
      <trkpt lat="45.35338" lon="5.72609">
        <ele>1489.9</ele>
        <time>2021-12-19T10:28:56Z</time>
      </trkpt>
      <trkpt lat="45.35338" lon="5.72609">
        <ele>1490</ele>
        <time>2021-12-19T10:28:57Z</time>
      </trkpt>
      <trkpt lat="45.35337" lon="5.72609">
        <ele>1490.1</ele>
        <time>2021-12-19T10:28:58Z</time>
      </trkpt>
      <trkpt lat="45.35337" lon="5.72608">
        <ele>1490.2</ele>
        <time>2021-12-19T10:28:59Z</time>
      </trkpt>
      <trkpt lat="45.35337" lon="5.72607">
        <ele>1490.2</ele>
        <time>2021-12-19T10:29:00Z</time>
      </trkpt>
      <trkpt lat="45.35337" lon="5.72606">
        <ele>1490.4</ele>
        <time>2021-12-19T10:29:01Z</time>
      </trkpt>
      <trkpt lat="45.35337" lon="5.72605">
        <ele>1490.5</ele>
        <time>2021-12-19T10:29:02Z</time>
      </trkpt>
      <trkpt lat="45.35337" lon="5.72604">
        <ele>1490.6</ele>
        <time>2021-12-19T10:29:03Z</time>
      </trkpt>
      <trkpt lat="45.35336" lon="5.72603">
        <ele>1490.7</ele>
        <time>2021-12-19T10:29:04Z</time>
      </trkpt>
      <trkpt lat="45.35336" lon="5.72603">
        <ele>1490.9</ele>
        <time>2021-12-19T10:29:05Z</time>
      </trkpt>
      <trkpt lat="45.35335" lon="5.72602">
        <ele>1491</ele>
        <time>2021-12-19T10:29:06Z</time>
      </trkpt>
      <trkpt lat="45.35335" lon="5.72601">
        <ele>1491.1</ele>
        <time>2021-12-19T10:29:07Z</time>
      </trkpt>
      <trkpt lat="45.35334" lon="5.726">
        <ele>1491.3</ele>
        <time>2021-12-19T10:29:08Z</time>
      </trkpt>
      <trkpt lat="45.35334" lon="5.72599">
        <ele>1491.4</ele>
        <time>2021-12-19T10:29:09Z</time>
      </trkpt>
      <trkpt lat="45.35334" lon="5.72598">
        <ele>1491.6</ele>
        <time>2021-12-19T10:29:10Z</time>
      </trkpt>
      <trkpt lat="45.35334" lon="5.72597">
        <ele>1491.7</ele>
        <time>2021-12-19T10:29:11Z</time>
      </trkpt>
      <trkpt lat="45.35334" lon="5.72597">
        <ele>1491.8</ele>
        <time>2021-12-19T10:29:12Z</time>
      </trkpt>
      <trkpt lat="45.35334" lon="5.72596">
        <ele>1491.9</ele>
        <time>2021-12-19T10:29:13Z</time>
      </trkpt>
      <trkpt lat="45.35334" lon="5.72595">
        <ele>1492</ele>
        <time>2021-12-19T10:29:14Z</time>
      </trkpt>
      <trkpt lat="45.35333" lon="5.72594">
        <ele>1492.1</ele>
        <time>2021-12-19T10:29:15Z</time>
      </trkpt>
      <trkpt lat="45.35333" lon="5.72593">
        <ele>1492.3</ele>
        <time>2021-12-19T10:29:16Z</time>
      </trkpt>
      <trkpt lat="45.35332" lon="5.72593">
        <ele>1492.4</ele>
        <time>2021-12-19T10:29:17Z</time>
      </trkpt>
      <trkpt lat="45.35332" lon="5.72592">
        <ele>1492.6</ele>
        <time>2021-12-19T10:29:18Z</time>
      </trkpt>
      <trkpt lat="45.35331" lon="5.72591">
        <ele>1492.8</ele>
        <time>2021-12-19T10:29:19Z</time>
      </trkpt>
      <trkpt lat="45.3533" lon="5.7259">
        <ele>1493.1</ele>
        <time>2021-12-19T10:29:20Z</time>
      </trkpt>
      <trkpt lat="45.3533" lon="5.72589">
        <ele>1493.2</ele>
        <time>2021-12-19T10:29:21Z</time>
      </trkpt>
      <trkpt lat="45.3533" lon="5.72588">
        <ele>1493.3</ele>
        <time>2021-12-19T10:29:22Z</time>
      </trkpt>
      <trkpt lat="45.3533" lon="5.72587">
        <ele>1493.5</ele>
        <time>2021-12-19T10:29:23Z</time>
      </trkpt>
      <trkpt lat="45.3533" lon="5.72586">
        <ele>1493.6</ele>
        <time>2021-12-19T10:29:24Z</time>
      </trkpt>
      <trkpt lat="45.35329" lon="5.72585">
        <ele>1493.7</ele>
        <time>2021-12-19T10:29:25Z</time>
      </trkpt>
      <trkpt lat="45.35329" lon="5.72585">
        <ele>1493.9</ele>
        <time>2021-12-19T10:29:26Z</time>
      </trkpt>
      <trkpt lat="45.35328" lon="5.72583">
        <ele>1494.1</ele>
        <time>2021-12-19T10:29:27Z</time>
      </trkpt>
      <trkpt lat="45.35328" lon="5.72582">
        <ele>1494.2</ele>
        <time>2021-12-19T10:29:28Z</time>
      </trkpt>
      <trkpt lat="45.35328" lon="5.72582">
        <ele>1494.3</ele>
        <time>2021-12-19T10:29:29Z</time>
      </trkpt>
      <trkpt lat="45.35328" lon="5.72581">
        <ele>1494.4</ele>
        <time>2021-12-19T10:29:30Z</time>
      </trkpt>
      <trkpt lat="45.35328" lon="5.72581">
        <ele>1494.5</ele>
        <time>2021-12-19T10:29:31Z</time>
      </trkpt>
      <trkpt lat="45.35328" lon="5.7258">
        <ele>1494.7</ele>
        <time>2021-12-19T10:29:32Z</time>
      </trkpt>
      <trkpt lat="45.35327" lon="5.72579">
        <ele>1494.8</ele>
        <time>2021-12-19T10:29:33Z</time>
      </trkpt>
      <trkpt lat="45.35327" lon="5.72577">
        <ele>1495</ele>
        <time>2021-12-19T10:29:34Z</time>
      </trkpt>
      <trkpt lat="45.35327" lon="5.72577">
        <ele>1495.1</ele>
        <time>2021-12-19T10:29:35Z</time>
      </trkpt>
      <trkpt lat="45.35327" lon="5.72575">
        <ele>1495.3</ele>
        <time>2021-12-19T10:29:36Z</time>
      </trkpt>
      <trkpt lat="45.35327" lon="5.72575">
        <ele>1495.4</ele>
        <time>2021-12-19T10:29:37Z</time>
      </trkpt>
      <trkpt lat="45.35327" lon="5.72574">
        <ele>1495.5</ele>
        <time>2021-12-19T10:29:38Z</time>
      </trkpt>
      <trkpt lat="45.35327" lon="5.72573">
        <ele>1495.7</ele>
        <time>2021-12-19T10:29:39Z</time>
      </trkpt>
      <trkpt lat="45.35327" lon="5.72572">
        <ele>1495.8</ele>
        <time>2021-12-19T10:29:40Z</time>
      </trkpt>
      <trkpt lat="45.35327" lon="5.72571">
        <ele>1495.9</ele>
        <time>2021-12-19T10:29:41Z</time>
      </trkpt>
      <trkpt lat="45.35326" lon="5.72571">
        <ele>1496</ele>
        <time>2021-12-19T10:29:42Z</time>
      </trkpt>
      <trkpt lat="45.35326" lon="5.7257">
        <ele>1496.2</ele>
        <time>2021-12-19T10:29:43Z</time>
      </trkpt>
      <trkpt lat="45.35326" lon="5.7257">
        <ele>1496.3</ele>
        <time>2021-12-19T10:29:44Z</time>
      </trkpt>
      <trkpt lat="45.35326" lon="5.72569">
        <ele>1496.4</ele>
        <time>2021-12-19T10:29:45Z</time>
      </trkpt>
      <trkpt lat="45.35325" lon="5.72567">
        <ele>1496.6</ele>
        <time>2021-12-19T10:29:46Z</time>
      </trkpt>
      <trkpt lat="45.35325" lon="5.72567">
        <ele>1496.7</ele>
        <time>2021-12-19T10:29:47Z</time>
      </trkpt>
      <trkpt lat="45.35325" lon="5.72566">
        <ele>1496.9</ele>
        <time>2021-12-19T10:29:48Z</time>
      </trkpt>
      <trkpt lat="45.35325" lon="5.72565">
        <ele>1497</ele>
        <time>2021-12-19T10:29:49Z</time>
      </trkpt>
      <trkpt lat="45.35324" lon="5.72565">
        <ele>1497.1</ele>
        <time>2021-12-19T10:29:50Z</time>
      </trkpt>
      <trkpt lat="45.35324" lon="5.72563">
        <ele>1497.3</ele>
        <time>2021-12-19T10:29:51Z</time>
      </trkpt>
      <trkpt lat="45.35324" lon="5.72562">
        <ele>1497.5</ele>
        <time>2021-12-19T10:29:52Z</time>
      </trkpt>
      <trkpt lat="45.35323" lon="5.72561">
        <ele>1497.6</ele>
        <time>2021-12-19T10:29:53Z</time>
      </trkpt>
      <trkpt lat="45.35323" lon="5.7256">
        <ele>1497.8</ele>
        <time>2021-12-19T10:29:54Z</time>
      </trkpt>
      <trkpt lat="45.35322" lon="5.72559">
        <ele>1498.1</ele>
        <time>2021-12-19T10:29:55Z</time>
      </trkpt>
      <trkpt lat="45.35322" lon="5.72558">
        <ele>1498.2</ele>
        <time>2021-12-19T10:29:56Z</time>
      </trkpt>
      <trkpt lat="45.35322" lon="5.72556">
        <ele>1498.4</ele>
        <time>2021-12-19T10:29:57Z</time>
      </trkpt>
      <trkpt lat="45.35321" lon="5.72555">
        <ele>1498.6</ele>
        <time>2021-12-19T10:29:58Z</time>
      </trkpt>
      <trkpt lat="45.35321" lon="5.72554">
        <ele>1498.8</ele>
        <time>2021-12-19T10:29:59Z</time>
      </trkpt>
      <trkpt lat="45.35321" lon="5.72554">
        <ele>1498.9</ele>
        <time>2021-12-19T10:30:00Z</time>
      </trkpt>
      <trkpt lat="45.35321" lon="5.72553">
        <ele>1499.1</ele>
        <time>2021-12-19T10:30:01Z</time>
      </trkpt>
      <trkpt lat="45.3532" lon="5.72552">
        <ele>1499.2</ele>
        <time>2021-12-19T10:30:02Z</time>
      </trkpt>
      <trkpt lat="45.3532" lon="5.7255">
        <ele>1499.5</ele>
        <time>2021-12-19T10:30:03Z</time>
      </trkpt>
      <trkpt lat="45.3532" lon="5.72549">
        <ele>1499.6</ele>
        <time>2021-12-19T10:30:04Z</time>
      </trkpt>
      <trkpt lat="45.35319" lon="5.72548">
        <ele>1499.8</ele>
        <time>2021-12-19T10:30:05Z</time>
      </trkpt>
      <trkpt lat="45.35319" lon="5.72547">
        <ele>1500</ele>
        <time>2021-12-19T10:30:06Z</time>
      </trkpt>
      <trkpt lat="45.35319" lon="5.72546">
        <ele>1500.2</ele>
        <time>2021-12-19T10:30:07Z</time>
      </trkpt>
      <trkpt lat="45.35318" lon="5.72545">
        <ele>1500.4</ele>
        <time>2021-12-19T10:30:08Z</time>
      </trkpt>
      <trkpt lat="45.35318" lon="5.72544">
        <ele>1500.6</ele>
        <time>2021-12-19T10:30:09Z</time>
      </trkpt>
      <trkpt lat="45.35318" lon="5.72543">
        <ele>1500.7</ele>
        <time>2021-12-19T10:30:10Z</time>
      </trkpt>
      <trkpt lat="45.35318" lon="5.72541">
        <ele>1501</ele>
        <time>2021-12-19T10:30:11Z</time>
      </trkpt>
      <trkpt lat="45.35317" lon="5.72541">
        <ele>1501.1</ele>
        <time>2021-12-19T10:30:12Z</time>
      </trkpt>
      <trkpt lat="45.35317" lon="5.7254">
        <ele>1501.3</ele>
        <time>2021-12-19T10:30:13Z</time>
      </trkpt>
      <trkpt lat="45.35317" lon="5.72539">
        <ele>1501.4</ele>
        <time>2021-12-19T10:30:14Z</time>
      </trkpt>
      <trkpt lat="45.35317" lon="5.72538">
        <ele>1501.5</ele>
        <time>2021-12-19T10:30:15Z</time>
      </trkpt>
      <trkpt lat="45.35317" lon="5.72537">
        <ele>1501.6</ele>
        <time>2021-12-19T10:30:16Z</time>
      </trkpt>
      <trkpt lat="45.35316" lon="5.72537">
        <ele>1501.8</ele>
        <time>2021-12-19T10:30:17Z</time>
      </trkpt>
      <trkpt lat="45.35316" lon="5.72536">
        <ele>1501.8</ele>
        <time>2021-12-19T10:30:18Z</time>
      </trkpt>
      <trkpt lat="45.35316" lon="5.72535">
        <ele>1502</ele>
        <time>2021-12-19T10:30:19Z</time>
      </trkpt>
      <trkpt lat="45.35316" lon="5.72534">
        <ele>1502.1</ele>
        <time>2021-12-19T10:30:20Z</time>
      </trkpt>
      <trkpt lat="45.35316" lon="5.72533">
        <ele>1502.3</ele>
        <time>2021-12-19T10:30:21Z</time>
      </trkpt>
      <trkpt lat="45.35316" lon="5.72532">
        <ele>1502.5</ele>
        <time>2021-12-19T10:30:22Z</time>
      </trkpt>
      <trkpt lat="45.35315" lon="5.72531">
        <ele>1502.7</ele>
        <time>2021-12-19T10:30:23Z</time>
      </trkpt>
      <trkpt lat="45.35315" lon="5.7253">
        <ele>1502.8</ele>
        <time>2021-12-19T10:30:24Z</time>
      </trkpt>
      <trkpt lat="45.35315" lon="5.7253">
        <ele>1502.9</ele>
        <time>2021-12-19T10:30:25Z</time>
      </trkpt>
      <trkpt lat="45.35314" lon="5.72529">
        <ele>1503.1</ele>
        <time>2021-12-19T10:30:26Z</time>
      </trkpt>
      <trkpt lat="45.35314" lon="5.72528">
        <ele>1503.2</ele>
        <time>2021-12-19T10:30:27Z</time>
      </trkpt>
      <trkpt lat="45.35313" lon="5.72528">
        <ele>1503.4</ele>
        <time>2021-12-19T10:30:28Z</time>
      </trkpt>
      <trkpt lat="45.35313" lon="5.72527">
        <ele>1503.5</ele>
        <time>2021-12-19T10:30:29Z</time>
      </trkpt>
      <trkpt lat="45.35313" lon="5.72527">
        <ele>1503.6</ele>
        <time>2021-12-19T10:30:30Z</time>
      </trkpt>
      <trkpt lat="45.35312" lon="5.72526">
        <ele>1503.7</ele>
        <time>2021-12-19T10:30:31Z</time>
      </trkpt>
      <trkpt lat="45.35312" lon="5.72526">
        <ele>1503.8</ele>
        <time>2021-12-19T10:30:32Z</time>
      </trkpt>
      <trkpt lat="45.35311" lon="5.72525">
        <ele>1504.1</ele>
        <time>2021-12-19T10:30:33Z</time>
      </trkpt>
      <trkpt lat="45.3531" lon="5.72524">
        <ele>1504.2</ele>
        <time>2021-12-19T10:30:34Z</time>
      </trkpt>
      <trkpt lat="45.3531" lon="5.72523">
        <ele>1504.4</ele>
        <time>2021-12-19T10:30:35Z</time>
      </trkpt>
      <trkpt lat="45.3531" lon="5.72522">
        <ele>1504.5</ele>
        <time>2021-12-19T10:30:36Z</time>
      </trkpt>
      <trkpt lat="45.35309" lon="5.72522">
        <ele>1504.6</ele>
        <time>2021-12-19T10:30:37Z</time>
      </trkpt>
      <trkpt lat="45.35309" lon="5.72521">
        <ele>1504.7</ele>
        <time>2021-12-19T10:30:38Z</time>
      </trkpt>
      <trkpt lat="45.35309" lon="5.7252">
        <ele>1504.8</ele>
        <time>2021-12-19T10:30:39Z</time>
      </trkpt>
      <trkpt lat="45.35309" lon="5.7252">
        <ele>1504.9</ele>
        <time>2021-12-19T10:30:40Z</time>
      </trkpt>
      <trkpt lat="45.35309" lon="5.72519">
        <ele>1505</ele>
        <time>2021-12-19T10:30:41Z</time>
      </trkpt>
      <trkpt lat="45.35308" lon="5.72518">
        <ele>1505.1</ele>
        <time>2021-12-19T10:30:42Z</time>
      </trkpt>
      <trkpt lat="45.35308" lon="5.72517">
        <ele>1505.2</ele>
        <time>2021-12-19T10:30:43Z</time>
      </trkpt>
      <trkpt lat="45.35307" lon="5.72517">
        <ele>1505.3</ele>
        <time>2021-12-19T10:30:44Z</time>
      </trkpt>
      <trkpt lat="45.35307" lon="5.72516">
        <ele>1505.5</ele>
        <time>2021-12-19T10:30:45Z</time>
      </trkpt>
      <trkpt lat="45.35307" lon="5.72516">
        <ele>1505.5</ele>
        <time>2021-12-19T10:30:46Z</time>
      </trkpt>
      <trkpt lat="45.35307" lon="5.72515">
        <ele>1505.6</ele>
        <time>2021-12-19T10:30:47Z</time>
      </trkpt>
      <trkpt lat="45.35307" lon="5.72514">
        <ele>1505.8</ele>
        <time>2021-12-19T10:30:48Z</time>
      </trkpt>
      <trkpt lat="45.35307" lon="5.72513">
        <ele>1505.9</ele>
        <time>2021-12-19T10:30:49Z</time>
      </trkpt>
      <trkpt lat="45.35307" lon="5.72512">
        <ele>1506</ele>
        <time>2021-12-19T10:30:50Z</time>
      </trkpt>
      <trkpt lat="45.35307" lon="5.72512">
        <ele>1506</ele>
        <time>2021-12-19T10:30:51Z</time>
      </trkpt>
      <trkpt lat="45.35306" lon="5.72511">
        <ele>1506.1</ele>
        <time>2021-12-19T10:30:52Z</time>
      </trkpt>
      <trkpt lat="45.35306" lon="5.72511">
        <ele>1506.1</ele>
        <time>2021-12-19T10:30:53Z</time>
      </trkpt>
      <trkpt lat="45.35306" lon="5.7251">
        <ele>1506.2</ele>
        <time>2021-12-19T10:30:54Z</time>
      </trkpt>
      <trkpt lat="45.35307" lon="5.7251">
        <ele>1506.2</ele>
        <time>2021-12-19T10:30:55Z</time>
      </trkpt>
      <trkpt lat="45.35307" lon="5.7251">
        <ele>1506.3</ele>
        <time>2021-12-19T10:30:56Z</time>
      </trkpt>
      <trkpt lat="45.35307" lon="5.72509">
        <ele>1506.4</ele>
        <time>2021-12-19T10:30:57Z</time>
      </trkpt>
      <trkpt lat="45.35307" lon="5.72509">
        <ele>1506.4</ele>
        <time>2021-12-19T10:30:58Z</time>
      </trkpt>
      <trkpt lat="45.35307" lon="5.72509">
        <ele>1506.5</ele>
        <time>2021-12-19T10:30:59Z</time>
      </trkpt>
      <trkpt lat="45.35307" lon="5.72508">
        <ele>1506.5</ele>
        <time>2021-12-19T10:31:00Z</time>
      </trkpt>
      <trkpt lat="45.35308" lon="5.72508">
        <ele>1506.5</ele>
        <time>2021-12-19T10:31:01Z</time>
      </trkpt>
      <trkpt lat="45.35308" lon="5.72508">
        <ele>1506.6</ele>
        <time>2021-12-19T10:31:02Z</time>
      </trkpt>
      <trkpt lat="45.35308" lon="5.72508">
        <ele>1506.6</ele>
        <time>2021-12-19T10:31:03Z</time>
      </trkpt>
      <trkpt lat="45.35308" lon="5.72508">
        <ele>1506.6</ele>
        <time>2021-12-19T10:31:04Z</time>
      </trkpt>
      <trkpt lat="45.35308" lon="5.72508">
        <ele>1506.7</ele>
        <time>2021-12-19T10:31:05Z</time>
      </trkpt>
      <trkpt lat="45.35308" lon="5.72507">
        <ele>1506.8</ele>
        <time>2021-12-19T10:31:06Z</time>
      </trkpt>
      <trkpt lat="45.35308" lon="5.72507">
        <ele>1506.8</ele>
        <time>2021-12-19T10:31:07Z</time>
      </trkpt>
      <trkpt lat="45.35309" lon="5.72507">
        <ele>1506.9</ele>
        <time>2021-12-19T10:31:08Z</time>
      </trkpt>
      <trkpt lat="45.3531" lon="5.72507">
        <ele>1507</ele>
        <time>2021-12-19T10:31:09Z</time>
      </trkpt>
      <trkpt lat="45.3531" lon="5.72506">
        <ele>1507.2</ele>
        <time>2021-12-19T10:31:10Z</time>
      </trkpt>
      <trkpt lat="45.35311" lon="5.72506">
        <ele>1507.3</ele>
        <time>2021-12-19T10:31:11Z</time>
      </trkpt>
      <trkpt lat="45.35312" lon="5.72506">
        <ele>1507.4</ele>
        <time>2021-12-19T10:31:12Z</time>
      </trkpt>
      <trkpt lat="45.35312" lon="5.72506">
        <ele>1507.4</ele>
        <time>2021-12-19T10:31:13Z</time>
      </trkpt>
      <trkpt lat="45.35313" lon="5.72505">
        <ele>1507.6</ele>
        <time>2021-12-19T10:31:14Z</time>
      </trkpt>
      <trkpt lat="45.35313" lon="5.72505">
        <ele>1507.7</ele>
        <time>2021-12-19T10:31:15Z</time>
      </trkpt>
      <trkpt lat="45.35315" lon="5.72505">
        <ele>1507.9</ele>
        <time>2021-12-19T10:31:16Z</time>
      </trkpt>
      <trkpt lat="45.35316" lon="5.72505">
        <ele>1508.1</ele>
        <time>2021-12-19T10:31:17Z</time>
      </trkpt>
      <trkpt lat="45.35317" lon="5.72505">
        <ele>1508.3</ele>
        <time>2021-12-19T10:31:18Z</time>
      </trkpt>
      <trkpt lat="45.35319" lon="5.72505">
        <ele>1508.5</ele>
        <time>2021-12-19T10:31:19Z</time>
      </trkpt>
      <trkpt lat="45.3532" lon="5.72505">
        <ele>1508.7</ele>
        <time>2021-12-19T10:31:20Z</time>
      </trkpt>
      <trkpt lat="45.35321" lon="5.72505">
        <ele>1508.8</ele>
        <time>2021-12-19T10:31:21Z</time>
      </trkpt>
      <trkpt lat="45.35322" lon="5.72505">
        <ele>1509</ele>
        <time>2021-12-19T10:31:22Z</time>
      </trkpt>
      <trkpt lat="45.35324" lon="5.72505">
        <ele>1509.2</ele>
        <time>2021-12-19T10:31:23Z</time>
      </trkpt>
      <trkpt lat="45.35325" lon="5.72506">
        <ele>1509.4</ele>
        <time>2021-12-19T10:31:24Z</time>
      </trkpt>
      <trkpt lat="45.35326" lon="5.72506">
        <ele>1509.5</ele>
        <time>2021-12-19T10:31:25Z</time>
      </trkpt>
      <trkpt lat="45.35326" lon="5.72505">
        <ele>1509.6</ele>
        <time>2021-12-19T10:31:26Z</time>
      </trkpt>
      <trkpt lat="45.35326" lon="5.72504">
        <ele>1509.8</ele>
        <time>2021-12-19T10:31:27Z</time>
      </trkpt>
      <trkpt lat="45.35326" lon="5.72503">
        <ele>1509.9</ele>
        <time>2021-12-19T10:31:28Z</time>
      </trkpt>
      <trkpt lat="45.35326" lon="5.72503">
        <ele>1510</ele>
        <time>2021-12-19T10:31:29Z</time>
      </trkpt>
      <trkpt lat="45.35326" lon="5.72503">
        <ele>1510</ele>
        <time>2021-12-19T10:31:30Z</time>
      </trkpt>
      <trkpt lat="45.35326" lon="5.72502">
        <ele>1510</ele>
        <time>2021-12-19T10:31:31Z</time>
      </trkpt>
      <trkpt lat="45.35326" lon="5.72503">
        <ele>1510.1</ele>
        <time>2021-12-19T10:31:32Z</time>
      </trkpt>
      <trkpt lat="45.35326" lon="5.72502">
        <ele>1510.2</ele>
        <time>2021-12-19T10:31:33Z</time>
      </trkpt>
      <trkpt lat="45.35325" lon="5.72501">
        <ele>1510.4</ele>
        <time>2021-12-19T10:31:34Z</time>
      </trkpt>
      <trkpt lat="45.35324" lon="5.72501">
        <ele>1510.6</ele>
        <time>2021-12-19T10:31:35Z</time>
      </trkpt>
      <trkpt lat="45.35323" lon="5.725">
        <ele>1510.7</ele>
        <time>2021-12-19T10:31:36Z</time>
      </trkpt>
      <trkpt lat="45.35323" lon="5.72499">
        <ele>1510.8</ele>
        <time>2021-12-19T10:31:37Z</time>
      </trkpt>
      <trkpt lat="45.35323" lon="5.72499">
        <ele>1510.9</ele>
        <time>2021-12-19T10:31:38Z</time>
      </trkpt>
      <trkpt lat="45.35322" lon="5.72498">
        <ele>1511</ele>
        <time>2021-12-19T10:31:39Z</time>
      </trkpt>
      <trkpt lat="45.35321" lon="5.72497">
        <ele>1511.1</ele>
        <time>2021-12-19T10:31:40Z</time>
      </trkpt>
      <trkpt lat="45.3532" lon="5.72497">
        <ele>1511.3</ele>
        <time>2021-12-19T10:31:41Z</time>
      </trkpt>
      <trkpt lat="45.3532" lon="5.72496">
        <ele>1511.4</ele>
        <time>2021-12-19T10:31:42Z</time>
      </trkpt>
      <trkpt lat="45.35319" lon="5.72495">
        <ele>1511.5</ele>
        <time>2021-12-19T10:31:43Z</time>
      </trkpt>
      <trkpt lat="45.35318" lon="5.72495">
        <ele>1511.6</ele>
        <time>2021-12-19T10:31:44Z</time>
      </trkpt>
      <trkpt lat="45.35318" lon="5.72495">
        <ele>1511.7</ele>
        <time>2021-12-19T10:31:45Z</time>
      </trkpt>
      <trkpt lat="45.35317" lon="5.72494">
        <ele>1511.8</ele>
        <time>2021-12-19T10:31:46Z</time>
      </trkpt>
      <trkpt lat="45.35317" lon="5.72495">
        <ele>1511.9</ele>
        <time>2021-12-19T10:31:47Z</time>
      </trkpt>
      <trkpt lat="45.35316" lon="5.72495">
        <ele>1512</ele>
        <time>2021-12-19T10:31:48Z</time>
      </trkpt>
      <trkpt lat="45.35316" lon="5.72495">
        <ele>1512</ele>
        <time>2021-12-19T10:31:49Z</time>
      </trkpt>
      <trkpt lat="45.35315" lon="5.72495">
        <ele>1512.1</ele>
        <time>2021-12-19T10:31:50Z</time>
      </trkpt>
      <trkpt lat="45.35314" lon="5.72495">
        <ele>1512.3</ele>
        <time>2021-12-19T10:31:51Z</time>
      </trkpt>
      <trkpt lat="45.35313" lon="5.72494">
        <ele>1512.4</ele>
        <time>2021-12-19T10:31:52Z</time>
      </trkpt>
      <trkpt lat="45.35312" lon="5.72493">
        <ele>1512.6</ele>
        <time>2021-12-19T10:31:53Z</time>
      </trkpt>
      <trkpt lat="45.35313" lon="5.72493">
        <ele>1512.7</ele>
        <time>2021-12-19T10:31:54Z</time>
      </trkpt>
      <trkpt lat="45.35312" lon="5.72493">
        <ele>1512.8</ele>
        <time>2021-12-19T10:31:55Z</time>
      </trkpt>
      <trkpt lat="45.35312" lon="5.72492">
        <ele>1512.8</ele>
        <time>2021-12-19T10:31:56Z</time>
      </trkpt>
      <trkpt lat="45.35312" lon="5.72493">
        <ele>1512.9</ele>
        <time>2021-12-19T10:31:57Z</time>
      </trkpt>
      <trkpt lat="45.35311" lon="5.72493">
        <ele>1513</ele>
        <time>2021-12-19T10:31:58Z</time>
      </trkpt>
      <trkpt lat="45.35311" lon="5.72493">
        <ele>1513</ele>
        <time>2021-12-19T10:31:59Z</time>
      </trkpt>
      <trkpt lat="45.35311" lon="5.72494">
        <ele>1513.1</ele>
        <time>2021-12-19T10:32:00Z</time>
      </trkpt>
      <trkpt lat="45.35311" lon="5.72494">
        <ele>1513.1</ele>
        <time>2021-12-19T10:32:01Z</time>
      </trkpt>
      <trkpt lat="45.35311" lon="5.72494">
        <ele>1513.1</ele>
        <time>2021-12-19T10:32:02Z</time>
      </trkpt>
      <trkpt lat="45.35311" lon="5.72495">
        <ele>1513.2</ele>
        <time>2021-12-19T10:32:03Z</time>
      </trkpt>
      <trkpt lat="45.35311" lon="5.72495">
        <ele>1513.2</ele>
        <time>2021-12-19T10:32:04Z</time>
      </trkpt>
      <trkpt lat="45.35311" lon="5.72495">
        <ele>1513.3</ele>
        <time>2021-12-19T10:32:05Z</time>
      </trkpt>
      <trkpt lat="45.35311" lon="5.72496">
        <ele>1513.3</ele>
        <time>2021-12-19T10:32:06Z</time>
      </trkpt>
      <trkpt lat="45.35311" lon="5.72496">
        <ele>1513.4</ele>
        <time>2021-12-19T10:32:07Z</time>
      </trkpt>
      <trkpt lat="45.35312" lon="5.72496">
        <ele>1513.5</ele>
        <time>2021-12-19T10:32:08Z</time>
      </trkpt>
      <trkpt lat="45.35312" lon="5.72496">
        <ele>1513.6</ele>
        <time>2021-12-19T10:32:09Z</time>
      </trkpt>
      <trkpt lat="45.35312" lon="5.72496">
        <ele>1513.6</ele>
        <time>2021-12-19T10:32:10Z</time>
      </trkpt>
      <trkpt lat="45.35312" lon="5.72496">
        <ele>1513.6</ele>
        <time>2021-12-19T10:32:11Z</time>
      </trkpt>
      <trkpt lat="45.35312" lon="5.72496">
        <ele>1513.6</ele>
        <time>2021-12-19T10:32:12Z</time>
      </trkpt>
      <trkpt lat="45.35312" lon="5.72496">
        <ele>1513.6</ele>
        <time>2021-12-19T10:32:13Z</time>
      </trkpt>
      <trkpt lat="45.35312" lon="5.72496">
        <ele>1513.7</ele>
        <time>2021-12-19T10:32:14Z</time>
      </trkpt>
      <trkpt lat="45.35312" lon="5.72496">
        <ele>1513.7</ele>
        <time>2021-12-19T10:32:15Z</time>
      </trkpt>
      <trkpt lat="45.35312" lon="5.72496">
        <ele>1513.7</ele>
        <time>2021-12-19T10:32:16Z</time>
      </trkpt>
      <trkpt lat="45.35312" lon="5.72496">
        <ele>1513.7</ele>
        <time>2021-12-19T10:32:17Z</time>
      </trkpt>
      <trkpt lat="45.35312" lon="5.72496">
        <ele>1513.7</ele>
        <time>2021-12-19T10:32:18Z</time>
      </trkpt>
      <trkpt lat="45.35312" lon="5.72496">
        <ele>1513.8</ele>
        <time>2021-12-19T10:32:19Z</time>
      </trkpt>
      <trkpt lat="45.35312" lon="5.72496">
        <ele>1513.8</ele>
        <time>2021-12-19T10:32:20Z</time>
      </trkpt>
      <trkpt lat="45.35313" lon="5.72496">
        <ele>1513.9</ele>
        <time>2021-12-19T10:32:21Z</time>
      </trkpt>
      <trkpt lat="45.35313" lon="5.72496">
        <ele>1513.9</ele>
        <time>2021-12-19T10:32:22Z</time>
      </trkpt>
      <trkpt lat="45.35314" lon="5.72496">
        <ele>1514.1</ele>
        <time>2021-12-19T10:32:23Z</time>
      </trkpt>
      <trkpt lat="45.35314" lon="5.72496">
        <ele>1514.1</ele>
        <time>2021-12-19T10:32:24Z</time>
      </trkpt>
      <trkpt lat="45.35316" lon="5.72496">
        <ele>1514.4</ele>
        <time>2021-12-19T10:32:25Z</time>
      </trkpt>
      <trkpt lat="45.35317" lon="5.72496">
        <ele>1514.5</ele>
        <time>2021-12-19T10:32:26Z</time>
      </trkpt>
      <trkpt lat="45.35318" lon="5.72497">
        <ele>1514.7</ele>
        <time>2021-12-19T10:32:27Z</time>
      </trkpt>
      <trkpt lat="45.35319" lon="5.72497">
        <ele>1515</ele>
        <time>2021-12-19T10:32:28Z</time>
      </trkpt>
      <trkpt lat="45.3532" lon="5.72497">
        <ele>1515.1</ele>
        <time>2021-12-19T10:32:29Z</time>
      </trkpt>
      <trkpt lat="45.35321" lon="5.72497">
        <ele>1515.3</ele>
        <time>2021-12-19T10:32:30Z</time>
      </trkpt>
      <trkpt lat="45.35322" lon="5.72497">
        <ele>1515.5</ele>
        <time>2021-12-19T10:32:31Z</time>
      </trkpt>
      <trkpt lat="45.35323" lon="5.72498">
        <ele>1515.7</ele>
        <time>2021-12-19T10:32:32Z</time>
      </trkpt>
      <trkpt lat="45.35324" lon="5.72498">
        <ele>1515.9</ele>
        <time>2021-12-19T10:32:33Z</time>
      </trkpt>
      <trkpt lat="45.35325" lon="5.72498">
        <ele>1516.1</ele>
        <time>2021-12-19T10:32:34Z</time>
      </trkpt>
      <trkpt lat="45.35326" lon="5.72498">
        <ele>1516.3</ele>
        <time>2021-12-19T10:32:35Z</time>
      </trkpt>
      <trkpt lat="45.35327" lon="5.72498">
        <ele>1516.5</ele>
        <time>2021-12-19T10:32:36Z</time>
      </trkpt>
      <trkpt lat="45.35328" lon="5.72498">
        <ele>1516.7</ele>
        <time>2021-12-19T10:32:37Z</time>
      </trkpt>
      <trkpt lat="45.35329" lon="5.72498">
        <ele>1516.8</ele>
        <time>2021-12-19T10:32:38Z</time>
      </trkpt>
      <trkpt lat="45.35329" lon="5.72497">
        <ele>1517</ele>
        <time>2021-12-19T10:32:39Z</time>
      </trkpt>
      <trkpt lat="45.35329" lon="5.72497">
        <ele>1517</ele>
        <time>2021-12-19T10:32:40Z</time>
      </trkpt>
      <trkpt lat="45.3533" lon="5.72497">
        <ele>1517</ele>
        <time>2021-12-19T10:32:41Z</time>
      </trkpt>
      <trkpt lat="45.35329" lon="5.72497">
        <ele>1517.1</ele>
        <time>2021-12-19T10:32:42Z</time>
      </trkpt>
      <trkpt lat="45.35329" lon="5.72498">
        <ele>1517.1</ele>
        <time>2021-12-19T10:32:43Z</time>
      </trkpt>
      <trkpt lat="45.35329" lon="5.72498">
        <ele>1517.1</ele>
        <time>2021-12-19T10:32:44Z</time>
      </trkpt>
      <trkpt lat="45.35329" lon="5.72498">
        <ele>1517.1</ele>
        <time>2021-12-19T10:32:45Z</time>
      </trkpt>
      <trkpt lat="45.35329" lon="5.72498">
        <ele>1517.2</ele>
        <time>2021-12-19T10:32:46Z</time>
      </trkpt>
      <trkpt lat="45.35329" lon="5.72499">
        <ele>1517.2</ele>
        <time>2021-12-19T10:32:47Z</time>
      </trkpt>
      <trkpt lat="45.35329" lon="5.72499">
        <ele>1517.3</ele>
        <time>2021-12-19T10:32:48Z</time>
      </trkpt>
      <trkpt lat="45.35329" lon="5.72499">
        <ele>1517.3</ele>
        <time>2021-12-19T10:32:49Z</time>
      </trkpt>
      <trkpt lat="45.3533" lon="5.72499">
        <ele>1517.4</ele>
        <time>2021-12-19T10:32:50Z</time>
      </trkpt>
      <trkpt lat="45.35329" lon="5.725">
        <ele>1517.5</ele>
        <time>2021-12-19T10:32:51Z</time>
      </trkpt>
      <trkpt lat="45.35329" lon="5.725">
        <ele>1517.5</ele>
        <time>2021-12-19T10:32:52Z</time>
      </trkpt>
      <trkpt lat="45.35328" lon="5.725">
        <ele>1517.7</ele>
        <time>2021-12-19T10:32:53Z</time>
      </trkpt>
      <trkpt lat="45.35327" lon="5.725">
        <ele>1517.9</ele>
        <time>2021-12-19T10:32:54Z</time>
      </trkpt>
      <trkpt lat="45.35326" lon="5.72501">
        <ele>1518.1</ele>
        <time>2021-12-19T10:32:55Z</time>
      </trkpt>
      <trkpt lat="45.35325" lon="5.72501">
        <ele>1518.3</ele>
        <time>2021-12-19T10:32:56Z</time>
      </trkpt>
      <trkpt lat="45.35325" lon="5.72501">
        <ele>1518.4</ele>
        <time>2021-12-19T10:32:57Z</time>
      </trkpt>
      <trkpt lat="45.35324" lon="5.72501">
        <ele>1518.6</ele>
        <time>2021-12-19T10:32:58Z</time>
      </trkpt>
      <trkpt lat="45.35324" lon="5.72501">
        <ele>1518.6</ele>
        <time>2021-12-19T10:32:59Z</time>
      </trkpt>
      <trkpt lat="45.35324" lon="5.72501">
        <ele>1518.6</ele>
        <time>2021-12-19T10:33:00Z</time>
      </trkpt>
      <trkpt lat="45.35324" lon="5.72501">
        <ele>1518.6</ele>
        <time>2021-12-19T10:33:01Z</time>
      </trkpt>
      <trkpt lat="45.35324" lon="5.72501">
        <ele>1518.7</ele>
        <time>2021-12-19T10:33:02Z</time>
      </trkpt>
      <trkpt lat="45.35324" lon="5.72501">
        <ele>1518.7</ele>
        <time>2021-12-19T10:33:03Z</time>
      </trkpt>
      <trkpt lat="45.35324" lon="5.72501">
        <ele>1518.7</ele>
        <time>2021-12-19T10:33:04Z</time>
      </trkpt>
      <trkpt lat="45.35324" lon="5.72501">
        <ele>1518.7</ele>
        <time>2021-12-19T10:33:05Z</time>
      </trkpt>
      <trkpt lat="45.35323" lon="5.72501">
        <ele>1518.7</ele>
        <time>2021-12-19T10:33:06Z</time>
      </trkpt>
      <trkpt lat="45.35323" lon="5.72501">
        <ele>1518.9</ele>
        <time>2021-12-19T10:33:07Z</time>
      </trkpt>
      <trkpt lat="45.35323" lon="5.72501">
        <ele>1519</ele>
        <time>2021-12-19T10:33:08Z</time>
      </trkpt>
      <trkpt lat="45.35323" lon="5.72501">
        <ele>1519.1</ele>
        <time>2021-12-19T10:33:09Z</time>
      </trkpt>
      <trkpt lat="45.35323" lon="5.72501">
        <ele>1519.2</ele>
        <time>2021-12-19T10:33:10Z</time>
      </trkpt>
      <trkpt lat="45.35323" lon="5.72501">
        <ele>1519.3</ele>
        <time>2021-12-19T10:33:11Z</time>
      </trkpt>
      <trkpt lat="45.35323" lon="5.72501">
        <ele>1519.4</ele>
        <time>2021-12-19T10:33:12Z</time>
      </trkpt>
      <trkpt lat="45.35324" lon="5.72501">
        <ele>1519.6</ele>
        <time>2021-12-19T10:33:13Z</time>
      </trkpt>
      <trkpt lat="45.35323" lon="5.72501">
        <ele>1519.7</ele>
        <time>2021-12-19T10:33:14Z</time>
      </trkpt>
      <trkpt lat="45.35323" lon="5.725">
        <ele>1519.8</ele>
        <time>2021-12-19T10:33:15Z</time>
      </trkpt>
      <trkpt lat="45.35323" lon="5.725">
        <ele>1519.9</ele>
        <time>2021-12-19T10:33:16Z</time>
      </trkpt>
      <trkpt lat="45.35323" lon="5.725">
        <ele>1520</ele>
        <time>2021-12-19T10:33:17Z</time>
      </trkpt>
      <trkpt lat="45.35323" lon="5.725">
        <ele>1520.2</ele>
        <time>2021-12-19T10:33:18Z</time>
      </trkpt>
      <trkpt lat="45.35322" lon="5.725">
        <ele>1520.3</ele>
        <time>2021-12-19T10:33:19Z</time>
      </trkpt>
      <trkpt lat="45.35322" lon="5.72499">
        <ele>1520.5</ele>
        <time>2021-12-19T10:33:20Z</time>
      </trkpt>
      <trkpt lat="45.35322" lon="5.72499">
        <ele>1520.6</ele>
        <time>2021-12-19T10:33:21Z</time>
      </trkpt>
      <trkpt lat="45.35322" lon="5.72499">
        <ele>1520.8</ele>
        <time>2021-12-19T10:33:22Z</time>
      </trkpt>
      <trkpt lat="45.35322" lon="5.72499">
        <ele>1520.9</ele>
        <time>2021-12-19T10:33:23Z</time>
      </trkpt>
      <trkpt lat="45.35322" lon="5.72499">
        <ele>1521.1</ele>
        <time>2021-12-19T10:33:24Z</time>
      </trkpt>
      <trkpt lat="45.35322" lon="5.72499">
        <ele>1521.1</ele>
        <time>2021-12-19T10:33:25Z</time>
      </trkpt>
      <trkpt lat="45.35322" lon="5.72499">
        <ele>1521.3</ele>
        <time>2021-12-19T10:33:26Z</time>
      </trkpt>
      <trkpt lat="45.35321" lon="5.72499">
        <ele>1521.4</ele>
        <time>2021-12-19T10:33:27Z</time>
      </trkpt>
      <trkpt lat="45.35321" lon="5.72499">
        <ele>1521.5</ele>
        <time>2021-12-19T10:33:28Z</time>
      </trkpt>
      <trkpt lat="45.35321" lon="5.72499">
        <ele>1521.6</ele>
        <time>2021-12-19T10:33:29Z</time>
      </trkpt>
      <trkpt lat="45.35321" lon="5.72498">
        <ele>1521.8</ele>
        <time>2021-12-19T10:33:30Z</time>
      </trkpt>
      <trkpt lat="45.35321" lon="5.72498">
        <ele>1521.9</ele>
        <time>2021-12-19T10:33:31Z</time>
      </trkpt>
      <trkpt lat="45.35321" lon="5.72498">
        <ele>1522</ele>
        <time>2021-12-19T10:33:32Z</time>
      </trkpt>
      <trkpt lat="45.35321" lon="5.72498">
        <ele>1522.1</ele>
        <time>2021-12-19T10:33:33Z</time>
      </trkpt>
      <trkpt lat="45.35321" lon="5.72498">
        <ele>1522.2</ele>
        <time>2021-12-19T10:33:34Z</time>
      </trkpt>
      <trkpt lat="45.35321" lon="5.72498">
        <ele>1522.3</ele>
        <time>2021-12-19T10:33:35Z</time>
      </trkpt>
      <trkpt lat="45.35321" lon="5.72498">
        <ele>1522.4</ele>
        <time>2021-12-19T10:33:36Z</time>
      </trkpt>
      <trkpt lat="45.35321" lon="5.72498">
        <ele>1522.6</ele>
        <time>2021-12-19T10:33:37Z</time>
      </trkpt>
      <trkpt lat="45.35321" lon="5.72498">
        <ele>1522.6</ele>
        <time>2021-12-19T10:33:38Z</time>
      </trkpt>
      <trkpt lat="45.35321" lon="5.72497">
        <ele>1522.8</ele>
        <time>2021-12-19T10:33:39Z</time>
      </trkpt>
      <trkpt lat="45.35321" lon="5.72497">
        <ele>1522.9</ele>
        <time>2021-12-19T10:33:40Z</time>
      </trkpt>
      <trkpt lat="45.3532" lon="5.72496">
        <ele>1523.2</ele>
        <time>2021-12-19T10:33:41Z</time>
      </trkpt>
      <trkpt lat="45.3532" lon="5.72496">
        <ele>1523.3</ele>
        <time>2021-12-19T10:33:42Z</time>
      </trkpt>
      <trkpt lat="45.35319" lon="5.72496">
        <ele>1523.5</ele>
        <time>2021-12-19T10:33:43Z</time>
      </trkpt>
      <trkpt lat="45.35319" lon="5.72496">
        <ele>1523.6</ele>
        <time>2021-12-19T10:33:44Z</time>
      </trkpt>
      <trkpt lat="45.35319" lon="5.72496">
        <ele>1523.7</ele>
        <time>2021-12-19T10:33:45Z</time>
      </trkpt>
      <trkpt lat="45.35319" lon="5.72496">
        <ele>1523.8</ele>
        <time>2021-12-19T10:33:46Z</time>
      </trkpt>
      <trkpt lat="45.35319" lon="5.72497">
        <ele>1523.9</ele>
        <time>2021-12-19T10:33:47Z</time>
      </trkpt>
      <trkpt lat="45.35319" lon="5.72497">
        <ele>1524.1</ele>
        <time>2021-12-19T10:33:48Z</time>
      </trkpt>
      <trkpt lat="45.35319" lon="5.72497">
        <ele>1524.2</ele>
        <time>2021-12-19T10:33:49Z</time>
      </trkpt>
      <trkpt lat="45.35319" lon="5.72498">
        <ele>1524.3</ele>
        <time>2021-12-19T10:33:50Z</time>
      </trkpt>
      <trkpt lat="45.35319" lon="5.72498">
        <ele>1524.4</ele>
        <time>2021-12-19T10:33:51Z</time>
      </trkpt>
      <trkpt lat="45.35319" lon="5.72498">
        <ele>1524.5</ele>
        <time>2021-12-19T10:33:52Z</time>
      </trkpt>
      <trkpt lat="45.35319" lon="5.72498">
        <ele>1524.6</ele>
        <time>2021-12-19T10:33:53Z</time>
      </trkpt>
      <trkpt lat="45.35319" lon="5.72498">
        <ele>1524.7</ele>
        <time>2021-12-19T10:33:54Z</time>
      </trkpt>
      <trkpt lat="45.35319" lon="5.72498">
        <ele>1524.8</ele>
        <time>2021-12-19T10:33:55Z</time>
      </trkpt>
      <trkpt lat="45.35318" lon="5.72498">
        <ele>1525</ele>
        <time>2021-12-19T10:33:56Z</time>
      </trkpt>
      <trkpt lat="45.35318" lon="5.72498">
        <ele>1525.1</ele>
        <time>2021-12-19T10:33:57Z</time>
      </trkpt>
      <trkpt lat="45.35318" lon="5.72498">
        <ele>1525.2</ele>
        <time>2021-12-19T10:33:58Z</time>
      </trkpt>
      <trkpt lat="45.35318" lon="5.72498">
        <ele>1525.3</ele>
        <time>2021-12-19T10:33:59Z</time>
      </trkpt>
      <trkpt lat="45.35318" lon="5.72499">
        <ele>1525.4</ele>
        <time>2021-12-19T10:34:00Z</time>
      </trkpt>
      <trkpt lat="45.35317" lon="5.72499">
        <ele>1525.6</ele>
        <time>2021-12-19T10:34:01Z</time>
      </trkpt>
      <trkpt lat="45.35316" lon="5.72499">
        <ele>1525.8</ele>
        <time>2021-12-19T10:34:02Z</time>
      </trkpt>
      <trkpt lat="45.35316" lon="5.72499">
        <ele>1525.9</ele>
        <time>2021-12-19T10:34:03Z</time>
      </trkpt>
      <trkpt lat="45.35316" lon="5.72499">
        <ele>1526.1</ele>
        <time>2021-12-19T10:34:04Z</time>
      </trkpt>
      <trkpt lat="45.35316" lon="5.725">
        <ele>1526.2</ele>
        <time>2021-12-19T10:34:05Z</time>
      </trkpt>
      <trkpt lat="45.35316" lon="5.725">
        <ele>1526.3</ele>
        <time>2021-12-19T10:34:06Z</time>
      </trkpt>
      <trkpt lat="45.35316" lon="5.725">
        <ele>1526.4</ele>
        <time>2021-12-19T10:34:07Z</time>
      </trkpt>
      <trkpt lat="45.35316" lon="5.725">
        <ele>1526.6</ele>
        <time>2021-12-19T10:34:08Z</time>
      </trkpt>
      <trkpt lat="45.35316" lon="5.725">
        <ele>1526.6</ele>
        <time>2021-12-19T10:34:09Z</time>
      </trkpt>
      <trkpt lat="45.35316" lon="5.725">
        <ele>1526.7</ele>
        <time>2021-12-19T10:34:10Z</time>
      </trkpt>
      <trkpt lat="45.35316" lon="5.725">
        <ele>1526.8</ele>
        <time>2021-12-19T10:34:11Z</time>
      </trkpt>
      <trkpt lat="45.35318" lon="5.725">
        <ele>1527</ele>
        <time>2021-12-19T10:34:12Z</time>
      </trkpt>
      <trkpt lat="45.35319" lon="5.725">
        <ele>1527.4</ele>
        <time>2021-12-19T10:34:13Z</time>
      </trkpt>
      <trkpt lat="45.3532" lon="5.725">
        <ele>1527.6</ele>
        <time>2021-12-19T10:34:14Z</time>
      </trkpt>
      <trkpt lat="45.35322" lon="5.725">
        <ele>1527.9</ele>
        <time>2021-12-19T10:34:15Z</time>
      </trkpt>
      <trkpt lat="45.35323" lon="5.725">
        <ele>1528</ele>
        <time>2021-12-19T10:34:16Z</time>
      </trkpt>
      <trkpt lat="45.35324" lon="5.725">
        <ele>1528.3</ele>
        <time>2021-12-19T10:34:17Z</time>
      </trkpt>
      <trkpt lat="45.35325" lon="5.725">
        <ele>1528.5</ele>
        <time>2021-12-19T10:34:18Z</time>
      </trkpt>
      <trkpt lat="45.35326" lon="5.725">
        <ele>1528.6</ele>
        <time>2021-12-19T10:34:19Z</time>
      </trkpt>
      <trkpt lat="45.35326" lon="5.725">
        <ele>1528.8</ele>
        <time>2021-12-19T10:34:20Z</time>
      </trkpt>
      <trkpt lat="45.35327" lon="5.725">
        <ele>1528.9</ele>
        <time>2021-12-19T10:34:21Z</time>
      </trkpt>
      <trkpt lat="45.35329" lon="5.72501">
        <ele>1529.2</ele>
        <time>2021-12-19T10:34:22Z</time>
      </trkpt>
      <trkpt lat="45.3533" lon="5.72501">
        <ele>1529.4</ele>
        <time>2021-12-19T10:34:23Z</time>
      </trkpt>
      <trkpt lat="45.35331" lon="5.72501">
        <ele>1529.5</ele>
        <time>2021-12-19T10:34:24Z</time>
      </trkpt>
      <trkpt lat="45.35331" lon="5.72502">
        <ele>1529.7</ele>
        <time>2021-12-19T10:34:25Z</time>
      </trkpt>
      <trkpt lat="45.35332" lon="5.72502">
        <ele>1529.9</ele>
        <time>2021-12-19T10:34:26Z</time>
      </trkpt>
      <trkpt lat="45.35332" lon="5.72502">
        <ele>1530</ele>
        <time>2021-12-19T10:34:27Z</time>
      </trkpt>
      <trkpt lat="45.35332" lon="5.72502">
        <ele>1530</ele>
        <time>2021-12-19T10:34:28Z</time>
      </trkpt>
      <trkpt lat="45.35333" lon="5.72502">
        <ele>1530.2</ele>
        <time>2021-12-19T10:34:29Z</time>
      </trkpt>
      <trkpt lat="45.35334" lon="5.72502">
        <ele>1530.4</ele>
        <time>2021-12-19T10:34:30Z</time>
      </trkpt>
      <trkpt lat="45.35335" lon="5.72502">
        <ele>1530.5</ele>
        <time>2021-12-19T10:34:31Z</time>
      </trkpt>
      <trkpt lat="45.35336" lon="5.72502">
        <ele>1530.7</ele>
        <time>2021-12-19T10:34:32Z</time>
      </trkpt>
      <trkpt lat="45.35336" lon="5.72502">
        <ele>1530.9</ele>
        <time>2021-12-19T10:34:33Z</time>
      </trkpt>
      <trkpt lat="45.35336" lon="5.72503">
        <ele>1531</ele>
        <time>2021-12-19T10:34:34Z</time>
      </trkpt>
      <trkpt lat="45.35336" lon="5.72503">
        <ele>1531</ele>
        <time>2021-12-19T10:34:35Z</time>
      </trkpt>
      <trkpt lat="45.35336" lon="5.72503">
        <ele>1531.2</ele>
        <time>2021-12-19T10:34:36Z</time>
      </trkpt>
      <trkpt lat="45.35336" lon="5.72503">
        <ele>1531.3</ele>
        <time>2021-12-19T10:34:37Z</time>
      </trkpt>
      <trkpt lat="45.35336" lon="5.72503">
        <ele>1531.3</ele>
        <time>2021-12-19T10:34:38Z</time>
      </trkpt>
      <trkpt lat="45.35336" lon="5.72504">
        <ele>1531.5</ele>
        <time>2021-12-19T10:34:39Z</time>
      </trkpt>
      <trkpt lat="45.35335" lon="5.72504">
        <ele>1531.7</ele>
        <time>2021-12-19T10:34:40Z</time>
      </trkpt>
      <trkpt lat="45.35334" lon="5.72504">
        <ele>1531.7</ele>
        <time>2021-12-19T10:34:41Z</time>
      </trkpt>
      <trkpt lat="45.35334" lon="5.72504">
        <ele>1531.8</ele>
        <time>2021-12-19T10:34:42Z</time>
      </trkpt>
      <trkpt lat="45.35333" lon="5.72504">
        <ele>1532</ele>
        <time>2021-12-19T10:34:43Z</time>
      </trkpt>
      <trkpt lat="45.35334" lon="5.72504">
        <ele>1532.1</ele>
        <time>2021-12-19T10:34:44Z</time>
      </trkpt>
      <trkpt lat="45.35333" lon="5.72504">
        <ele>1532.2</ele>
        <time>2021-12-19T10:34:45Z</time>
      </trkpt>
      <trkpt lat="45.35333" lon="5.72504">
        <ele>1532.3</ele>
        <time>2021-12-19T10:34:46Z</time>
      </trkpt>
      <trkpt lat="45.35333" lon="5.72504">
        <ele>1532.3</ele>
        <time>2021-12-19T10:34:47Z</time>
      </trkpt>
      <trkpt lat="45.35333" lon="5.72504">
        <ele>1532.3</ele>
        <time>2021-12-19T10:34:48Z</time>
      </trkpt>
      <trkpt lat="45.35332" lon="5.72504">
        <ele>1532.4</ele>
        <time>2021-12-19T10:34:49Z</time>
      </trkpt>
      <trkpt lat="45.35332" lon="5.72504">
        <ele>1532.4</ele>
        <time>2021-12-19T10:34:50Z</time>
      </trkpt>
      <trkpt lat="45.35331" lon="5.72504">
        <ele>1532.5</ele>
        <time>2021-12-19T10:34:51Z</time>
      </trkpt>
      <trkpt lat="45.35329" lon="5.72504">
        <ele>1532.7</ele>
        <time>2021-12-19T10:34:52Z</time>
      </trkpt>
      <trkpt lat="45.35328" lon="5.72503">
        <ele>1532.8</ele>
        <time>2021-12-19T10:34:53Z</time>
      </trkpt>
      <trkpt lat="45.35327" lon="5.72503">
        <ele>1532.9</ele>
        <time>2021-12-19T10:34:54Z</time>
      </trkpt>
      <trkpt lat="45.35326" lon="5.72503">
        <ele>1533.1</ele>
        <time>2021-12-19T10:34:55Z</time>
      </trkpt>
      <trkpt lat="45.35325" lon="5.72502">
        <ele>1533.2</ele>
        <time>2021-12-19T10:34:56Z</time>
      </trkpt>
      <trkpt lat="45.35324" lon="5.72502">
        <ele>1533.3</ele>
        <time>2021-12-19T10:34:57Z</time>
      </trkpt>
      <trkpt lat="45.35323" lon="5.72502">
        <ele>1533.4</ele>
        <time>2021-12-19T10:34:58Z</time>
      </trkpt>
      <trkpt lat="45.35323" lon="5.72502">
        <ele>1533.5</ele>
        <time>2021-12-19T10:34:59Z</time>
      </trkpt>
      <trkpt lat="45.35323" lon="5.72502">
        <ele>1533.5</ele>
        <time>2021-12-19T10:35:00Z</time>
      </trkpt>
      <trkpt lat="45.35322" lon="5.72502">
        <ele>1533.5</ele>
        <time>2021-12-19T10:35:01Z</time>
      </trkpt>
      <trkpt lat="45.35322" lon="5.72502">
        <ele>1533.6</ele>
        <time>2021-12-19T10:35:02Z</time>
      </trkpt>
      <trkpt lat="45.35322" lon="5.72502">
        <ele>1533.6</ele>
        <time>2021-12-19T10:35:03Z</time>
      </trkpt>
      <trkpt lat="45.35321" lon="5.72502">
        <ele>1533.6</ele>
        <time>2021-12-19T10:35:04Z</time>
      </trkpt>
      <trkpt lat="45.3532" lon="5.72501">
        <ele>1533.8</ele>
        <time>2021-12-19T10:35:05Z</time>
      </trkpt>
      <trkpt lat="45.35319" lon="5.725">
        <ele>1533.9</ele>
        <time>2021-12-19T10:35:06Z</time>
      </trkpt>
      <trkpt lat="45.35319" lon="5.725">
        <ele>1534</ele>
        <time>2021-12-19T10:35:07Z</time>
      </trkpt>
      <trkpt lat="45.35318" lon="5.72499">
        <ele>1534</ele>
        <time>2021-12-19T10:35:08Z</time>
      </trkpt>
      <trkpt lat="45.35318" lon="5.72498">
        <ele>1534.2</ele>
        <time>2021-12-19T10:35:09Z</time>
      </trkpt>
      <trkpt lat="45.35317" lon="5.72497">
        <ele>1534.2</ele>
        <time>2021-12-19T10:35:10Z</time>
      </trkpt>
      <trkpt lat="45.35317" lon="5.72497">
        <ele>1534.3</ele>
        <time>2021-12-19T10:35:11Z</time>
      </trkpt>
      <trkpt lat="45.35316" lon="5.72496">
        <ele>1534.4</ele>
        <time>2021-12-19T10:35:12Z</time>
      </trkpt>
      <trkpt lat="45.35316" lon="5.72496">
        <ele>1534.4</ele>
        <time>2021-12-19T10:35:13Z</time>
      </trkpt>
      <trkpt lat="45.35316" lon="5.72495">
        <ele>1534.5</ele>
        <time>2021-12-19T10:35:14Z</time>
      </trkpt>
      <trkpt lat="45.35315" lon="5.72495">
        <ele>1534.5</ele>
        <time>2021-12-19T10:35:15Z</time>
      </trkpt>
      <trkpt lat="45.35315" lon="5.72495">
        <ele>1534.5</ele>
        <time>2021-12-19T10:35:16Z</time>
      </trkpt>
      <trkpt lat="45.35315" lon="5.72495">
        <ele>1534.6</ele>
        <time>2021-12-19T10:35:17Z</time>
      </trkpt>
      <trkpt lat="45.35315" lon="5.72495">
        <ele>1534.6</ele>
        <time>2021-12-19T10:35:18Z</time>
      </trkpt>
      <trkpt lat="45.35315" lon="5.72495">
        <ele>1534.6</ele>
        <time>2021-12-19T10:35:19Z</time>
      </trkpt>
      <trkpt lat="45.35315" lon="5.72494">
        <ele>1534.6</ele>
        <time>2021-12-19T10:35:20Z</time>
      </trkpt>
      <trkpt lat="45.35316" lon="5.72494">
        <ele>1534.7</ele>
        <time>2021-12-19T10:35:21Z</time>
      </trkpt>
      <trkpt lat="45.35317" lon="5.72494">
        <ele>1534.8</ele>
        <time>2021-12-19T10:35:22Z</time>
      </trkpt>
      <trkpt lat="45.35317" lon="5.72493">
        <ele>1534.8</ele>
        <time>2021-12-19T10:35:23Z</time>
      </trkpt>
      <trkpt lat="45.35317" lon="5.72494">
        <ele>1534.8</ele>
        <time>2021-12-19T10:35:24Z</time>
      </trkpt>
      <trkpt lat="45.35317" lon="5.72494">
        <ele>1534.9</ele>
        <time>2021-12-19T10:35:25Z</time>
      </trkpt>
      <trkpt lat="45.35317" lon="5.72493">
        <ele>1534.9</ele>
        <time>2021-12-19T10:35:26Z</time>
      </trkpt>
      <trkpt lat="45.35317" lon="5.72493">
        <ele>1534.9</ele>
        <time>2021-12-19T10:35:27Z</time>
      </trkpt>
      <trkpt lat="45.35317" lon="5.72493">
        <ele>1535</ele>
        <time>2021-12-19T10:35:28Z</time>
      </trkpt>
      <trkpt lat="45.35317" lon="5.72491">
        <ele>1535.1</ele>
        <time>2021-12-19T10:35:29Z</time>
      </trkpt>
      <trkpt lat="45.35316" lon="5.7249">
        <ele>1535.1</ele>
        <time>2021-12-19T10:35:30Z</time>
      </trkpt>
      <trkpt lat="45.35317" lon="5.7249">
        <ele>1535.2</ele>
        <time>2021-12-19T10:35:31Z</time>
      </trkpt>
      <trkpt lat="45.35317" lon="5.7249">
        <ele>1535.2</ele>
        <time>2021-12-19T10:35:32Z</time>
      </trkpt>
      <trkpt lat="45.35317" lon="5.72489">
        <ele>1535.3</ele>
        <time>2021-12-19T10:35:33Z</time>
      </trkpt>
      <trkpt lat="45.35317" lon="5.72488">
        <ele>1535.3</ele>
        <time>2021-12-19T10:35:34Z</time>
      </trkpt>
      <trkpt lat="45.35318" lon="5.72488">
        <ele>1535.4</ele>
        <time>2021-12-19T10:35:35Z</time>
      </trkpt>
      <trkpt lat="45.35318" lon="5.72488">
        <ele>1535.4</ele>
        <time>2021-12-19T10:35:36Z</time>
      </trkpt>
      <trkpt lat="45.35318" lon="5.72488">
        <ele>1535.5</ele>
        <time>2021-12-19T10:35:37Z</time>
      </trkpt>
      <trkpt lat="45.35318" lon="5.72487">
        <ele>1535.5</ele>
        <time>2021-12-19T10:35:38Z</time>
      </trkpt>
      <trkpt lat="45.35319" lon="5.72486">
        <ele>1535.5</ele>
        <time>2021-12-19T10:35:39Z</time>
      </trkpt>
      <trkpt lat="45.35319" lon="5.72486">
        <ele>1535.6</ele>
        <time>2021-12-19T10:35:40Z</time>
      </trkpt>
      <trkpt lat="45.35319" lon="5.72486">
        <ele>1535.6</ele>
        <time>2021-12-19T10:35:41Z</time>
      </trkpt>
      <trkpt lat="45.3532" lon="5.72485">
        <ele>1535.7</ele>
        <time>2021-12-19T10:35:42Z</time>
      </trkpt>
      <trkpt lat="45.3532" lon="5.72485">
        <ele>1535.7</ele>
        <time>2021-12-19T10:35:43Z</time>
      </trkpt>
      <trkpt lat="45.3532" lon="5.72485">
        <ele>1535.7</ele>
        <time>2021-12-19T10:35:44Z</time>
      </trkpt>
      <trkpt lat="45.3532" lon="5.72484">
        <ele>1535.8</ele>
        <time>2021-12-19T10:35:45Z</time>
      </trkpt>
      <trkpt lat="45.3532" lon="5.72484">
        <ele>1535.8</ele>
        <time>2021-12-19T10:35:46Z</time>
      </trkpt>
      <trkpt lat="45.3532" lon="5.72483">
        <ele>1535.9</ele>
        <time>2021-12-19T10:35:47Z</time>
      </trkpt>
      <trkpt lat="45.35319" lon="5.72482">
        <ele>1535.9</ele>
        <time>2021-12-19T10:35:48Z</time>
      </trkpt>
      <trkpt lat="45.35319" lon="5.72482">
        <ele>1536</ele>
        <time>2021-12-19T10:35:49Z</time>
      </trkpt>
      <trkpt lat="45.35319" lon="5.72481">
        <ele>1536</ele>
        <time>2021-12-19T10:35:50Z</time>
      </trkpt>
      <trkpt lat="45.35319" lon="5.7248">
        <ele>1536.1</ele>
        <time>2021-12-19T10:35:51Z</time>
      </trkpt>
      <trkpt lat="45.35318" lon="5.72478">
        <ele>1536.2</ele>
        <time>2021-12-19T10:35:52Z</time>
      </trkpt>
      <trkpt lat="45.35318" lon="5.72478">
        <ele>1536.3</ele>
        <time>2021-12-19T10:35:53Z</time>
      </trkpt>
      <trkpt lat="45.35318" lon="5.72477">
        <ele>1536.3</ele>
        <time>2021-12-19T10:35:54Z</time>
      </trkpt>
      <trkpt lat="45.35317" lon="5.72477">
        <ele>1536.4</ele>
        <time>2021-12-19T10:35:55Z</time>
      </trkpt>
      <trkpt lat="45.35317" lon="5.72477">
        <ele>1536.4</ele>
        <time>2021-12-19T10:35:56Z</time>
      </trkpt>
      <trkpt lat="45.35316" lon="5.72477">
        <ele>1536.5</ele>
        <time>2021-12-19T10:35:57Z</time>
      </trkpt>
      <trkpt lat="45.35316" lon="5.72476">
        <ele>1536.5</ele>
        <time>2021-12-19T10:35:58Z</time>
      </trkpt>
      <trkpt lat="45.35316" lon="5.72475">
        <ele>1536.6</ele>
        <time>2021-12-19T10:35:59Z</time>
      </trkpt>
      <trkpt lat="45.35315" lon="5.72475">
        <ele>1536.6</ele>
        <time>2021-12-19T10:36:00Z</time>
      </trkpt>
      <trkpt lat="45.35315" lon="5.72474">
        <ele>1536.7</ele>
        <time>2021-12-19T10:36:01Z</time>
      </trkpt>
      <trkpt lat="45.35314" lon="5.72474">
        <ele>1536.7</ele>
        <time>2021-12-19T10:36:02Z</time>
      </trkpt>
      <trkpt lat="45.35314" lon="5.72473">
        <ele>1536.8</ele>
        <time>2021-12-19T10:36:03Z</time>
      </trkpt>
      <trkpt lat="45.35314" lon="5.72472">
        <ele>1536.9</ele>
        <time>2021-12-19T10:36:04Z</time>
      </trkpt>
      <trkpt lat="45.35313" lon="5.72471">
        <ele>1537</ele>
        <time>2021-12-19T10:36:05Z</time>
      </trkpt>
      <trkpt lat="45.35312" lon="5.7247">
        <ele>1537.1</ele>
        <time>2021-12-19T10:36:06Z</time>
      </trkpt>
      <trkpt lat="45.35312" lon="5.72469">
        <ele>1537.2</ele>
        <time>2021-12-19T10:36:07Z</time>
      </trkpt>
      <trkpt lat="45.35312" lon="5.72468">
        <ele>1537.3</ele>
        <time>2021-12-19T10:36:08Z</time>
      </trkpt>
      <trkpt lat="45.35311" lon="5.72468">
        <ele>1537.3</ele>
        <time>2021-12-19T10:36:09Z</time>
      </trkpt>
      <trkpt lat="45.35311" lon="5.72467">
        <ele>1537.4</ele>
        <time>2021-12-19T10:36:10Z</time>
      </trkpt>
      <trkpt lat="45.35311" lon="5.72467">
        <ele>1537.5</ele>
        <time>2021-12-19T10:36:11Z</time>
      </trkpt>
      <trkpt lat="45.3531" lon="5.72466">
        <ele>1537.5</ele>
        <time>2021-12-19T10:36:12Z</time>
      </trkpt>
      <trkpt lat="45.3531" lon="5.72465">
        <ele>1537.6</ele>
        <time>2021-12-19T10:36:13Z</time>
      </trkpt>
      <trkpt lat="45.35309" lon="5.72464">
        <ele>1537.8</ele>
        <time>2021-12-19T10:36:14Z</time>
      </trkpt>
      <trkpt lat="45.35309" lon="5.72463">
        <ele>1537.9</ele>
        <time>2021-12-19T10:36:15Z</time>
      </trkpt>
      <trkpt lat="45.35308" lon="5.72462">
        <ele>1538</ele>
        <time>2021-12-19T10:36:16Z</time>
      </trkpt>
      <trkpt lat="45.35308" lon="5.72461">
        <ele>1538.1</ele>
        <time>2021-12-19T10:36:17Z</time>
      </trkpt>
      <trkpt lat="45.35307" lon="5.7246">
        <ele>1538.2</ele>
        <time>2021-12-19T10:36:18Z</time>
      </trkpt>
      <trkpt lat="45.35307" lon="5.72459">
        <ele>1538.3</ele>
        <time>2021-12-19T10:36:19Z</time>
      </trkpt>
      <trkpt lat="45.35307" lon="5.72459">
        <ele>1538.4</ele>
        <time>2021-12-19T10:36:20Z</time>
      </trkpt>
      <trkpt lat="45.35307" lon="5.72458">
        <ele>1538.4</ele>
        <time>2021-12-19T10:36:21Z</time>
      </trkpt>
      <trkpt lat="45.35306" lon="5.72457">
        <ele>1538.5</ele>
        <time>2021-12-19T10:36:22Z</time>
      </trkpt>
      <trkpt lat="45.35305" lon="5.72457">
        <ele>1538.6</ele>
        <time>2021-12-19T10:36:23Z</time>
      </trkpt>
      <trkpt lat="45.35305" lon="5.72457">
        <ele>1538.7</ele>
        <time>2021-12-19T10:36:24Z</time>
      </trkpt>
      <trkpt lat="45.35304" lon="5.72456">
        <ele>1538.8</ele>
        <time>2021-12-19T10:36:25Z</time>
      </trkpt>
      <trkpt lat="45.35304" lon="5.72456">
        <ele>1538.9</ele>
        <time>2021-12-19T10:36:26Z</time>
      </trkpt>
      <trkpt lat="45.35303" lon="5.72455">
        <ele>1539</ele>
        <time>2021-12-19T10:36:27Z</time>
      </trkpt>
      <trkpt lat="45.35303" lon="5.72454">
        <ele>1539.2</ele>
        <time>2021-12-19T10:36:28Z</time>
      </trkpt>
      <trkpt lat="45.35302" lon="5.72453">
        <ele>1539.4</ele>
        <time>2021-12-19T10:36:29Z</time>
      </trkpt>
      <trkpt lat="45.35301" lon="5.72452">
        <ele>1539.5</ele>
        <time>2021-12-19T10:36:30Z</time>
      </trkpt>
      <trkpt lat="45.35301" lon="5.72451">
        <ele>1539.6</ele>
        <time>2021-12-19T10:36:31Z</time>
      </trkpt>
      <trkpt lat="45.353" lon="5.7245">
        <ele>1539.8</ele>
        <time>2021-12-19T10:36:32Z</time>
      </trkpt>
      <trkpt lat="45.35299" lon="5.7245">
        <ele>1539.9</ele>
        <time>2021-12-19T10:36:33Z</time>
      </trkpt>
      <trkpt lat="45.35299" lon="5.72449">
        <ele>1540</ele>
        <time>2021-12-19T10:36:34Z</time>
      </trkpt>
      <trkpt lat="45.35299" lon="5.72449">
        <ele>1540.1</ele>
        <time>2021-12-19T10:36:35Z</time>
      </trkpt>
      <trkpt lat="45.35298" lon="5.72448">
        <ele>1540.2</ele>
        <time>2021-12-19T10:36:36Z</time>
      </trkpt>
      <trkpt lat="45.35298" lon="5.72447">
        <ele>1540.3</ele>
        <time>2021-12-19T10:36:37Z</time>
      </trkpt>
      <trkpt lat="45.35298" lon="5.72447">
        <ele>1540.4</ele>
        <time>2021-12-19T10:36:38Z</time>
      </trkpt>
      <trkpt lat="45.35297" lon="5.72447">
        <ele>1540.5</ele>
        <time>2021-12-19T10:36:39Z</time>
      </trkpt>
      <trkpt lat="45.35297" lon="5.72446">
        <ele>1540.5</ele>
        <time>2021-12-19T10:36:40Z</time>
      </trkpt>
      <trkpt lat="45.35297" lon="5.72445">
        <ele>1540.7</ele>
        <time>2021-12-19T10:36:41Z</time>
      </trkpt>
      <trkpt lat="45.35296" lon="5.72444">
        <ele>1540.8</ele>
        <time>2021-12-19T10:36:42Z</time>
      </trkpt>
      <trkpt lat="45.35296" lon="5.72444">
        <ele>1540.9</ele>
        <time>2021-12-19T10:36:43Z</time>
      </trkpt>
      <trkpt lat="45.35295" lon="5.72443">
        <ele>1541.2</ele>
        <time>2021-12-19T10:36:44Z</time>
      </trkpt>
      <trkpt lat="45.35295" lon="5.72441">
        <ele>1541.3</ele>
        <time>2021-12-19T10:36:45Z</time>
      </trkpt>
      <trkpt lat="45.35294" lon="5.7244">
        <ele>1541.5</ele>
        <time>2021-12-19T10:36:46Z</time>
      </trkpt>
      <trkpt lat="45.35294" lon="5.7244">
        <ele>1541.6</ele>
        <time>2021-12-19T10:36:47Z</time>
      </trkpt>
      <trkpt lat="45.35294" lon="5.72439">
        <ele>1541.8</ele>
        <time>2021-12-19T10:36:48Z</time>
      </trkpt>
      <trkpt lat="45.35294" lon="5.72437">
        <ele>1542</ele>
        <time>2021-12-19T10:36:49Z</time>
      </trkpt>
      <trkpt lat="45.35294" lon="5.72436">
        <ele>1542.1</ele>
        <time>2021-12-19T10:36:50Z</time>
      </trkpt>
      <trkpt lat="45.35293" lon="5.72436">
        <ele>1542.3</ele>
        <time>2021-12-19T10:36:51Z</time>
      </trkpt>
      <trkpt lat="45.35293" lon="5.72435">
        <ele>1542.4</ele>
        <time>2021-12-19T10:36:52Z</time>
      </trkpt>
      <trkpt lat="45.35292" lon="5.72434">
        <ele>1542.6</ele>
        <time>2021-12-19T10:36:53Z</time>
      </trkpt>
      <trkpt lat="45.35292" lon="5.72433">
        <ele>1542.7</ele>
        <time>2021-12-19T10:36:54Z</time>
      </trkpt>
      <trkpt lat="45.35291" lon="5.72432">
        <ele>1543</ele>
        <time>2021-12-19T10:36:55Z</time>
      </trkpt>
      <trkpt lat="45.3529" lon="5.72432">
        <ele>1543.1</ele>
        <time>2021-12-19T10:36:56Z</time>
      </trkpt>
      <trkpt lat="45.35289" lon="5.72431">
        <ele>1543.3</ele>
        <time>2021-12-19T10:36:57Z</time>
      </trkpt>
      <trkpt lat="45.35289" lon="5.72431">
        <ele>1543.5</ele>
        <time>2021-12-19T10:36:58Z</time>
      </trkpt>
      <trkpt lat="45.35288" lon="5.72431">
        <ele>1543.7</ele>
        <time>2021-12-19T10:36:59Z</time>
      </trkpt>
      <trkpt lat="45.35287" lon="5.7243">
        <ele>1543.8</ele>
        <time>2021-12-19T10:37:00Z</time>
      </trkpt>
      <trkpt lat="45.35287" lon="5.72429">
        <ele>1544</ele>
        <time>2021-12-19T10:37:01Z</time>
      </trkpt>
      <trkpt lat="45.35286" lon="5.72429">
        <ele>1544.1</ele>
        <time>2021-12-19T10:37:02Z</time>
      </trkpt>
      <trkpt lat="45.35286" lon="5.72428">
        <ele>1544.3</ele>
        <time>2021-12-19T10:37:03Z</time>
      </trkpt>
      <trkpt lat="45.35286" lon="5.72427">
        <ele>1544.4</ele>
        <time>2021-12-19T10:37:04Z</time>
      </trkpt>
      <trkpt lat="45.35285" lon="5.72427">
        <ele>1544.5</ele>
        <time>2021-12-19T10:37:05Z</time>
      </trkpt>
      <trkpt lat="45.35285" lon="5.72426">
        <ele>1544.7</ele>
        <time>2021-12-19T10:37:06Z</time>
      </trkpt>
      <trkpt lat="45.35284" lon="5.72426">
        <ele>1544.9</ele>
        <time>2021-12-19T10:37:07Z</time>
      </trkpt>
      <trkpt lat="45.35283" lon="5.72425">
        <ele>1545.1</ele>
        <time>2021-12-19T10:37:08Z</time>
      </trkpt>
      <trkpt lat="45.35283" lon="5.72425">
        <ele>1545.2</ele>
        <time>2021-12-19T10:37:09Z</time>
      </trkpt>
      <trkpt lat="45.35282" lon="5.72424">
        <ele>1545.4</ele>
        <time>2021-12-19T10:37:10Z</time>
      </trkpt>
      <trkpt lat="45.35282" lon="5.72424">
        <ele>1545.5</ele>
        <time>2021-12-19T10:37:11Z</time>
      </trkpt>
      <trkpt lat="45.35281" lon="5.72423">
        <ele>1545.8</ele>
        <time>2021-12-19T10:37:12Z</time>
      </trkpt>
      <trkpt lat="45.3528" lon="5.72424">
        <ele>1546</ele>
        <time>2021-12-19T10:37:13Z</time>
      </trkpt>
      <trkpt lat="45.3528" lon="5.72424">
        <ele>1546.1</ele>
        <time>2021-12-19T10:37:14Z</time>
      </trkpt>
      <trkpt lat="45.35279" lon="5.72424">
        <ele>1546.2</ele>
        <time>2021-12-19T10:37:15Z</time>
      </trkpt>
      <trkpt lat="45.35278" lon="5.72423">
        <ele>1546.4</ele>
        <time>2021-12-19T10:37:16Z</time>
      </trkpt>
      <trkpt lat="45.35278" lon="5.72423">
        <ele>1546.5</ele>
        <time>2021-12-19T10:37:17Z</time>
      </trkpt>
      <trkpt lat="45.35277" lon="5.72423">
        <ele>1546.6</ele>
        <time>2021-12-19T10:37:18Z</time>
      </trkpt>
      <trkpt lat="45.35277" lon="5.72423">
        <ele>1546.8</ele>
        <time>2021-12-19T10:37:19Z</time>
      </trkpt>
      <trkpt lat="45.35276" lon="5.72422">
        <ele>1546.9</ele>
        <time>2021-12-19T10:37:20Z</time>
      </trkpt>
      <trkpt lat="45.35276" lon="5.72422">
        <ele>1547.1</ele>
        <time>2021-12-19T10:37:21Z</time>
      </trkpt>
      <trkpt lat="45.35275" lon="5.72421">
        <ele>1547.3</ele>
        <time>2021-12-19T10:37:22Z</time>
      </trkpt>
      <trkpt lat="45.35275" lon="5.72421">
        <ele>1547.5</ele>
        <time>2021-12-19T10:37:23Z</time>
      </trkpt>
      <trkpt lat="45.35274" lon="5.72421">
        <ele>1547.6</ele>
        <time>2021-12-19T10:37:24Z</time>
      </trkpt>
      <trkpt lat="45.35273" lon="5.72421">
        <ele>1547.8</ele>
        <time>2021-12-19T10:37:25Z</time>
      </trkpt>
      <trkpt lat="45.35272" lon="5.72421">
        <ele>1548</ele>
        <time>2021-12-19T10:37:26Z</time>
      </trkpt>
      <trkpt lat="45.35272" lon="5.72421">
        <ele>1548.2</ele>
        <time>2021-12-19T10:37:27Z</time>
      </trkpt>
      <trkpt lat="45.35271" lon="5.7242">
        <ele>1548.4</ele>
        <time>2021-12-19T10:37:28Z</time>
      </trkpt>
      <trkpt lat="45.3527" lon="5.7242">
        <ele>1548.6</ele>
        <time>2021-12-19T10:37:29Z</time>
      </trkpt>
      <trkpt lat="45.35269" lon="5.7242">
        <ele>1548.8</ele>
        <time>2021-12-19T10:37:30Z</time>
      </trkpt>
      <trkpt lat="45.35268" lon="5.7242">
        <ele>1549</ele>
        <time>2021-12-19T10:37:31Z</time>
      </trkpt>
      <trkpt lat="45.35268" lon="5.7242">
        <ele>1549.1</ele>
        <time>2021-12-19T10:37:32Z</time>
      </trkpt>
      <trkpt lat="45.35267" lon="5.72419">
        <ele>1549.4</ele>
        <time>2021-12-19T10:37:33Z</time>
      </trkpt>
      <trkpt lat="45.35265" lon="5.72419">
        <ele>1549.7</ele>
        <time>2021-12-19T10:37:34Z</time>
      </trkpt>
      <trkpt lat="45.35265" lon="5.72418">
        <ele>1549.9</ele>
        <time>2021-12-19T10:37:35Z</time>
      </trkpt>
      <trkpt lat="45.35264" lon="5.72417">
        <ele>1550.1</ele>
        <time>2021-12-19T10:37:36Z</time>
      </trkpt>
      <trkpt lat="45.35264" lon="5.72417">
        <ele>1550.3</ele>
        <time>2021-12-19T10:37:37Z</time>
      </trkpt>
      <trkpt lat="45.35263" lon="5.72416">
        <ele>1550.6</ele>
        <time>2021-12-19T10:37:38Z</time>
      </trkpt>
      <trkpt lat="45.35262" lon="5.72415">
        <ele>1550.9</ele>
        <time>2021-12-19T10:37:39Z</time>
      </trkpt>
      <trkpt lat="45.35261" lon="5.72413">
        <ele>1551.2</ele>
        <time>2021-12-19T10:37:40Z</time>
      </trkpt>
      <trkpt lat="45.35261" lon="5.72412">
        <ele>1551.4</ele>
        <time>2021-12-19T10:37:41Z</time>
      </trkpt>
      <trkpt lat="45.3526" lon="5.72412">
        <ele>1551.6</ele>
        <time>2021-12-19T10:37:42Z</time>
      </trkpt>
      <trkpt lat="45.3526" lon="5.7241">
        <ele>1551.8</ele>
        <time>2021-12-19T10:37:43Z</time>
      </trkpt>
      <trkpt lat="45.35259" lon="5.7241">
        <ele>1552</ele>
        <time>2021-12-19T10:37:44Z</time>
      </trkpt>
      <trkpt lat="45.35259" lon="5.72408">
        <ele>1552.3</ele>
        <time>2021-12-19T10:37:45Z</time>
      </trkpt>
      <trkpt lat="45.35258" lon="5.72407">
        <ele>1552.5</ele>
        <time>2021-12-19T10:37:46Z</time>
      </trkpt>
      <trkpt lat="45.35258" lon="5.72406">
        <ele>1552.7</ele>
        <time>2021-12-19T10:37:47Z</time>
      </trkpt>
      <trkpt lat="45.35257" lon="5.72405">
        <ele>1553</ele>
        <time>2021-12-19T10:37:48Z</time>
      </trkpt>
      <trkpt lat="45.35256" lon="5.72404">
        <ele>1553.2</ele>
        <time>2021-12-19T10:37:49Z</time>
      </trkpt>
      <trkpt lat="45.35256" lon="5.72403">
        <ele>1553.4</ele>
        <time>2021-12-19T10:37:50Z</time>
      </trkpt>
      <trkpt lat="45.35255" lon="5.72402">
        <ele>1553.6</ele>
        <time>2021-12-19T10:37:51Z</time>
      </trkpt>
      <trkpt lat="45.35255" lon="5.72402">
        <ele>1553.8</ele>
        <time>2021-12-19T10:37:52Z</time>
      </trkpt>
      <trkpt lat="45.35254" lon="5.72401">
        <ele>1553.9</ele>
        <time>2021-12-19T10:37:53Z</time>
      </trkpt>
      <trkpt lat="45.35254" lon="5.724">
        <ele>1554.1</ele>
        <time>2021-12-19T10:37:54Z</time>
      </trkpt>
      <trkpt lat="45.35254" lon="5.724">
        <ele>1554.2</ele>
        <time>2021-12-19T10:37:55Z</time>
      </trkpt>
      <trkpt lat="45.35253" lon="5.72399">
        <ele>1554.4</ele>
        <time>2021-12-19T10:37:56Z</time>
      </trkpt>
      <trkpt lat="45.35252" lon="5.72398">
        <ele>1554.6</ele>
        <time>2021-12-19T10:37:57Z</time>
      </trkpt>
      <trkpt lat="45.35252" lon="5.72398">
        <ele>1554.8</ele>
        <time>2021-12-19T10:37:58Z</time>
      </trkpt>
      <trkpt lat="45.35251" lon="5.72397">
        <ele>1554.9</ele>
        <time>2021-12-19T10:37:59Z</time>
      </trkpt>
      <trkpt lat="45.35251" lon="5.72396">
        <ele>1555.2</ele>
        <time>2021-12-19T10:38:00Z</time>
      </trkpt>
      <trkpt lat="45.3525" lon="5.72395">
        <ele>1555.4</ele>
        <time>2021-12-19T10:38:01Z</time>
      </trkpt>
      <trkpt lat="45.35249" lon="5.72395">
        <ele>1555.6</ele>
        <time>2021-12-19T10:38:02Z</time>
      </trkpt>
      <trkpt lat="45.35248" lon="5.72394">
        <ele>1555.8</ele>
        <time>2021-12-19T10:38:03Z</time>
      </trkpt>
      <trkpt lat="45.35247" lon="5.72394">
        <ele>1556</ele>
        <time>2021-12-19T10:38:04Z</time>
      </trkpt>
      <trkpt lat="45.35247" lon="5.72393">
        <ele>1556.2</ele>
        <time>2021-12-19T10:38:05Z</time>
      </trkpt>
      <trkpt lat="45.35246" lon="5.72393">
        <ele>1556.3</ele>
        <time>2021-12-19T10:38:06Z</time>
      </trkpt>
      <trkpt lat="45.35246" lon="5.72392">
        <ele>1556.5</ele>
        <time>2021-12-19T10:38:07Z</time>
      </trkpt>
      <trkpt lat="45.35245" lon="5.72391">
        <ele>1556.7</ele>
        <time>2021-12-19T10:38:08Z</time>
      </trkpt>
      <trkpt lat="45.35244" lon="5.72391">
        <ele>1556.9</ele>
        <time>2021-12-19T10:38:09Z</time>
      </trkpt>
      <trkpt lat="45.35244" lon="5.7239">
        <ele>1557.1</ele>
        <time>2021-12-19T10:38:10Z</time>
      </trkpt>
      <trkpt lat="45.35243" lon="5.7239">
        <ele>1557.3</ele>
        <time>2021-12-19T10:38:11Z</time>
      </trkpt>
      <trkpt lat="45.35242" lon="5.7239">
        <ele>1557.4</ele>
        <time>2021-12-19T10:38:12Z</time>
      </trkpt>
      <trkpt lat="45.35242" lon="5.7239">
        <ele>1557.5</ele>
        <time>2021-12-19T10:38:13Z</time>
      </trkpt>
      <trkpt lat="45.35241" lon="5.7239">
        <ele>1557.7</ele>
        <time>2021-12-19T10:38:14Z</time>
      </trkpt>
      <trkpt lat="45.35241" lon="5.7239">
        <ele>1557.8</ele>
        <time>2021-12-19T10:38:15Z</time>
      </trkpt>
      <trkpt lat="45.3524" lon="5.7239">
        <ele>1558</ele>
        <time>2021-12-19T10:38:16Z</time>
      </trkpt>
      <trkpt lat="45.35239" lon="5.7239">
        <ele>1558.3</ele>
        <time>2021-12-19T10:38:17Z</time>
      </trkpt>
      <trkpt lat="45.35238" lon="5.7239">
        <ele>1558.5</ele>
        <time>2021-12-19T10:38:18Z</time>
      </trkpt>
      <trkpt lat="45.35237" lon="5.7239">
        <ele>1558.7</ele>
        <time>2021-12-19T10:38:19Z</time>
      </trkpt>
      <trkpt lat="45.35236" lon="5.72391">
        <ele>1558.9</ele>
        <time>2021-12-19T10:38:20Z</time>
      </trkpt>
      <trkpt lat="45.35235" lon="5.7239">
        <ele>1559</ele>
        <time>2021-12-19T10:38:21Z</time>
      </trkpt>
      <trkpt lat="45.35235" lon="5.7239">
        <ele>1559.2</ele>
        <time>2021-12-19T10:38:22Z</time>
      </trkpt>
      <trkpt lat="45.35234" lon="5.7239">
        <ele>1559.3</ele>
        <time>2021-12-19T10:38:23Z</time>
      </trkpt>
      <trkpt lat="45.35234" lon="5.72389">
        <ele>1559.4</ele>
        <time>2021-12-19T10:38:24Z</time>
      </trkpt>
      <trkpt lat="45.35234" lon="5.72389">
        <ele>1559.4</ele>
        <time>2021-12-19T10:38:25Z</time>
      </trkpt>
      <trkpt lat="45.35233" lon="5.72389">
        <ele>1559.5</ele>
        <time>2021-12-19T10:38:26Z</time>
      </trkpt>
      <trkpt lat="45.35233" lon="5.72389">
        <ele>1559.6</ele>
        <time>2021-12-19T10:38:27Z</time>
      </trkpt>
      <trkpt lat="45.35232" lon="5.72389">
        <ele>1559.7</ele>
        <time>2021-12-19T10:38:28Z</time>
      </trkpt>
      <trkpt lat="45.35232" lon="5.72389">
        <ele>1559.8</ele>
        <time>2021-12-19T10:38:29Z</time>
      </trkpt>
      <trkpt lat="45.35232" lon="5.72389">
        <ele>1559.9</ele>
        <time>2021-12-19T10:38:30Z</time>
      </trkpt>
      <trkpt lat="45.35231" lon="5.72389">
        <ele>1560</ele>
        <time>2021-12-19T10:38:31Z</time>
      </trkpt>
      <trkpt lat="45.35231" lon="5.72389">
        <ele>1560.1</ele>
        <time>2021-12-19T10:38:32Z</time>
      </trkpt>
      <trkpt lat="45.3523" lon="5.72389">
        <ele>1560.3</ele>
        <time>2021-12-19T10:38:33Z</time>
      </trkpt>
      <trkpt lat="45.35229" lon="5.72388">
        <ele>1560.5</ele>
        <time>2021-12-19T10:38:34Z</time>
      </trkpt>
      <trkpt lat="45.35228" lon="5.72388">
        <ele>1560.6</ele>
        <time>2021-12-19T10:38:35Z</time>
      </trkpt>
      <trkpt lat="45.35228" lon="5.72389">
        <ele>1560.7</ele>
        <time>2021-12-19T10:38:36Z</time>
      </trkpt>
      <trkpt lat="45.35228" lon="5.72389">
        <ele>1560.7</ele>
        <time>2021-12-19T10:38:37Z</time>
      </trkpt>
      <trkpt lat="45.35228" lon="5.72388">
        <ele>1560.8</ele>
        <time>2021-12-19T10:38:38Z</time>
      </trkpt>
      <trkpt lat="45.35227" lon="5.72388">
        <ele>1560.8</ele>
        <time>2021-12-19T10:38:39Z</time>
      </trkpt>
      <trkpt lat="45.35227" lon="5.72389">
        <ele>1560.9</ele>
        <time>2021-12-19T10:38:40Z</time>
      </trkpt>
      <trkpt lat="45.35227" lon="5.72388">
        <ele>1560.9</ele>
        <time>2021-12-19T10:38:41Z</time>
      </trkpt>
      <trkpt lat="45.35227" lon="5.72389">
        <ele>1561</ele>
        <time>2021-12-19T10:38:42Z</time>
      </trkpt>
      <trkpt lat="45.35226" lon="5.72388">
        <ele>1561.1</ele>
        <time>2021-12-19T10:38:43Z</time>
      </trkpt>
      <trkpt lat="45.35226" lon="5.72388">
        <ele>1561.2</ele>
        <time>2021-12-19T10:38:44Z</time>
      </trkpt>
      <trkpt lat="45.35225" lon="5.72388">
        <ele>1561.3</ele>
        <time>2021-12-19T10:38:45Z</time>
      </trkpt>
      <trkpt lat="45.35225" lon="5.72387">
        <ele>1561.5</ele>
        <time>2021-12-19T10:38:46Z</time>
      </trkpt>
      <trkpt lat="45.35224" lon="5.72387">
        <ele>1561.6</ele>
        <time>2021-12-19T10:38:47Z</time>
      </trkpt>
      <trkpt lat="45.35224" lon="5.72386">
        <ele>1561.8</ele>
        <time>2021-12-19T10:38:48Z</time>
      </trkpt>
      <trkpt lat="45.35223" lon="5.72385">
        <ele>1561.9</ele>
        <time>2021-12-19T10:38:49Z</time>
      </trkpt>
      <trkpt lat="45.35223" lon="5.72384">
        <ele>1562.1</ele>
        <time>2021-12-19T10:38:50Z</time>
      </trkpt>
      <trkpt lat="45.35222" lon="5.72383">
        <ele>1562.2</ele>
        <time>2021-12-19T10:38:51Z</time>
      </trkpt>
      <trkpt lat="45.35222" lon="5.72383">
        <ele>1562.3</ele>
        <time>2021-12-19T10:38:52Z</time>
      </trkpt>
      <trkpt lat="45.35222" lon="5.72382">
        <ele>1562.4</ele>
        <time>2021-12-19T10:38:53Z</time>
      </trkpt>
      <trkpt lat="45.35222" lon="5.72381">
        <ele>1562.6</ele>
        <time>2021-12-19T10:38:54Z</time>
      </trkpt>
      <trkpt lat="45.35222" lon="5.7238">
        <ele>1562.8</ele>
        <time>2021-12-19T10:38:55Z</time>
      </trkpt>
      <trkpt lat="45.35222" lon="5.72379">
        <ele>1562.9</ele>
        <time>2021-12-19T10:38:56Z</time>
      </trkpt>
      <trkpt lat="45.35221" lon="5.72378">
        <ele>1563</ele>
        <time>2021-12-19T10:38:57Z</time>
      </trkpt>
      <trkpt lat="45.35221" lon="5.72377">
        <ele>1563.1</ele>
        <time>2021-12-19T10:38:58Z</time>
      </trkpt>
      <trkpt lat="45.35221" lon="5.72376">
        <ele>1563.3</ele>
        <time>2021-12-19T10:38:59Z</time>
      </trkpt>
      <trkpt lat="45.35221" lon="5.72376">
        <ele>1563.4</ele>
        <time>2021-12-19T10:39:00Z</time>
      </trkpt>
      <trkpt lat="45.35221" lon="5.72374">
        <ele>1563.6</ele>
        <time>2021-12-19T10:39:01Z</time>
      </trkpt>
      <trkpt lat="45.35221" lon="5.72373">
        <ele>1563.7</ele>
        <time>2021-12-19T10:39:02Z</time>
      </trkpt>
      <trkpt lat="45.3522" lon="5.72373">
        <ele>1563.8</ele>
        <time>2021-12-19T10:39:03Z</time>
      </trkpt>
      <trkpt lat="45.3522" lon="5.72372">
        <ele>1564</ele>
        <time>2021-12-19T10:39:04Z</time>
      </trkpt>
      <trkpt lat="45.3522" lon="5.72371">
        <ele>1564.1</ele>
        <time>2021-12-19T10:39:05Z</time>
      </trkpt>
      <trkpt lat="45.3522" lon="5.7237">
        <ele>1564.2</ele>
        <time>2021-12-19T10:39:06Z</time>
      </trkpt>
      <trkpt lat="45.3522" lon="5.72369">
        <ele>1564.3</ele>
        <time>2021-12-19T10:39:07Z</time>
      </trkpt>
      <trkpt lat="45.3522" lon="5.72368">
        <ele>1564.5</ele>
        <time>2021-12-19T10:39:08Z</time>
      </trkpt>
      <trkpt lat="45.35219" lon="5.72367">
        <ele>1564.7</ele>
        <time>2021-12-19T10:39:09Z</time>
      </trkpt>
      <trkpt lat="45.35219" lon="5.72366">
        <ele>1564.8</ele>
        <time>2021-12-19T10:39:10Z</time>
      </trkpt>
      <trkpt lat="45.35219" lon="5.72365">
        <ele>1564.9</ele>
        <time>2021-12-19T10:39:11Z</time>
      </trkpt>
      <trkpt lat="45.35219" lon="5.72364">
        <ele>1565</ele>
        <time>2021-12-19T10:39:12Z</time>
      </trkpt>
      <trkpt lat="45.35218" lon="5.72363">
        <ele>1565.2</ele>
        <time>2021-12-19T10:39:13Z</time>
      </trkpt>
      <trkpt lat="45.35217" lon="5.72363">
        <ele>1565.3</ele>
        <time>2021-12-19T10:39:14Z</time>
      </trkpt>
      <trkpt lat="45.35217" lon="5.72362">
        <ele>1565.4</ele>
        <time>2021-12-19T10:39:15Z</time>
      </trkpt>
      <trkpt lat="45.35217" lon="5.72361">
        <ele>1565.5</ele>
        <time>2021-12-19T10:39:16Z</time>
      </trkpt>
      <trkpt lat="45.35217" lon="5.72361">
        <ele>1565.6</ele>
        <time>2021-12-19T10:39:17Z</time>
      </trkpt>
      <trkpt lat="45.35216" lon="5.7236">
        <ele>1565.8</ele>
        <time>2021-12-19T10:39:18Z</time>
      </trkpt>
      <trkpt lat="45.35216" lon="5.72359">
        <ele>1565.9</ele>
        <time>2021-12-19T10:39:19Z</time>
      </trkpt>
      <trkpt lat="45.35216" lon="5.72358">
        <ele>1566.1</ele>
        <time>2021-12-19T10:39:20Z</time>
      </trkpt>
      <trkpt lat="45.35216" lon="5.72357">
        <ele>1566.2</ele>
        <time>2021-12-19T10:39:21Z</time>
      </trkpt>
      <trkpt lat="45.35216" lon="5.72356">
        <ele>1566.3</ele>
        <time>2021-12-19T10:39:22Z</time>
      </trkpt>
      <trkpt lat="45.35216" lon="5.72355">
        <ele>1566.4</ele>
        <time>2021-12-19T10:39:23Z</time>
      </trkpt>
      <trkpt lat="45.35216" lon="5.72354">
        <ele>1566.5</ele>
        <time>2021-12-19T10:39:24Z</time>
      </trkpt>
      <trkpt lat="45.35216" lon="5.72353">
        <ele>1566.6</ele>
        <time>2021-12-19T10:39:25Z</time>
      </trkpt>
      <trkpt lat="45.35216" lon="5.72353">
        <ele>1566.7</ele>
        <time>2021-12-19T10:39:26Z</time>
      </trkpt>
      <trkpt lat="45.35216" lon="5.72352">
        <ele>1566.8</ele>
        <time>2021-12-19T10:39:27Z</time>
      </trkpt>
      <trkpt lat="45.35216" lon="5.72351">
        <ele>1567</ele>
        <time>2021-12-19T10:39:28Z</time>
      </trkpt>
      <trkpt lat="45.35216" lon="5.7235">
        <ele>1567.1</ele>
        <time>2021-12-19T10:39:29Z</time>
      </trkpt>
      <trkpt lat="45.35216" lon="5.7235">
        <ele>1567.2</ele>
        <time>2021-12-19T10:39:30Z</time>
      </trkpt>
      <trkpt lat="45.35216" lon="5.72349">
        <ele>1567.3</ele>
        <time>2021-12-19T10:39:31Z</time>
      </trkpt>
      <trkpt lat="45.35217" lon="5.72348">
        <ele>1567.5</ele>
        <time>2021-12-19T10:39:32Z</time>
      </trkpt>
      <trkpt lat="45.35217" lon="5.72347">
        <ele>1567.6</ele>
        <time>2021-12-19T10:39:33Z</time>
      </trkpt>
      <trkpt lat="45.35218" lon="5.72346">
        <ele>1567.7</ele>
        <time>2021-12-19T10:39:34Z</time>
      </trkpt>
      <trkpt lat="45.35218" lon="5.72345">
        <ele>1567.9</ele>
        <time>2021-12-19T10:39:35Z</time>
      </trkpt>
      <trkpt lat="45.35219" lon="5.72345">
        <ele>1568</ele>
        <time>2021-12-19T10:39:36Z</time>
      </trkpt>
      <trkpt lat="45.35219" lon="5.72344">
        <ele>1568.1</ele>
        <time>2021-12-19T10:39:37Z</time>
      </trkpt>
      <trkpt lat="45.35219" lon="5.72344">
        <ele>1568.1</ele>
        <time>2021-12-19T10:39:38Z</time>
      </trkpt>
      <trkpt lat="45.35219" lon="5.72343">
        <ele>1568.2</ele>
        <time>2021-12-19T10:39:39Z</time>
      </trkpt>
      <trkpt lat="45.3522" lon="5.72343">
        <ele>1568.3</ele>
        <time>2021-12-19T10:39:40Z</time>
      </trkpt>
      <trkpt lat="45.3522" lon="5.72342">
        <ele>1568.4</ele>
        <time>2021-12-19T10:39:41Z</time>
      </trkpt>
      <trkpt lat="45.3522" lon="5.72342">
        <ele>1568.6</ele>
        <time>2021-12-19T10:39:42Z</time>
      </trkpt>
      <trkpt lat="45.35221" lon="5.72341">
        <ele>1568.7</ele>
        <time>2021-12-19T10:39:43Z</time>
      </trkpt>
      <trkpt lat="45.35222" lon="5.7234">
        <ele>1568.9</ele>
        <time>2021-12-19T10:39:44Z</time>
      </trkpt>
      <trkpt lat="45.35222" lon="5.72339">
        <ele>1569</ele>
        <time>2021-12-19T10:39:45Z</time>
      </trkpt>
      <trkpt lat="45.35222" lon="5.72339">
        <ele>1569.1</ele>
        <time>2021-12-19T10:39:46Z</time>
      </trkpt>
      <trkpt lat="45.35223" lon="5.72338">
        <ele>1569.2</ele>
        <time>2021-12-19T10:39:47Z</time>
      </trkpt>
      <trkpt lat="45.35223" lon="5.72338">
        <ele>1569.3</ele>
        <time>2021-12-19T10:39:48Z</time>
      </trkpt>
      <trkpt lat="45.35223" lon="5.72337">
        <ele>1569.4</ele>
        <time>2021-12-19T10:39:49Z</time>
      </trkpt>
      <trkpt lat="45.35223" lon="5.72336">
        <ele>1569.5</ele>
        <time>2021-12-19T10:39:50Z</time>
      </trkpt>
      <trkpt lat="45.35224" lon="5.72336">
        <ele>1569.6</ele>
        <time>2021-12-19T10:39:51Z</time>
      </trkpt>
      <trkpt lat="45.35224" lon="5.72335">
        <ele>1569.7</ele>
        <time>2021-12-19T10:39:52Z</time>
      </trkpt>
      <trkpt lat="45.35224" lon="5.72335">
        <ele>1569.8</ele>
        <time>2021-12-19T10:39:53Z</time>
      </trkpt>
      <trkpt lat="45.35224" lon="5.72334">
        <ele>1569.9</ele>
        <time>2021-12-19T10:39:54Z</time>
      </trkpt>
      <trkpt lat="45.35223" lon="5.72334">
        <ele>1570</ele>
        <time>2021-12-19T10:39:55Z</time>
      </trkpt>
      <trkpt lat="45.35223" lon="5.72334">
        <ele>1570.1</ele>
        <time>2021-12-19T10:39:56Z</time>
      </trkpt>
      <trkpt lat="45.35223" lon="5.72333">
        <ele>1570.2</ele>
        <time>2021-12-19T10:39:57Z</time>
      </trkpt>
      <trkpt lat="45.35222" lon="5.72332">
        <ele>1570.3</ele>
        <time>2021-12-19T10:39:58Z</time>
      </trkpt>
      <trkpt lat="45.35222" lon="5.72332">
        <ele>1570.5</ele>
        <time>2021-12-19T10:39:59Z</time>
      </trkpt>
      <trkpt lat="45.35221" lon="5.72331">
        <ele>1570.5</ele>
        <time>2021-12-19T10:40:00Z</time>
      </trkpt>
      <trkpt lat="45.35221" lon="5.72331">
        <ele>1570.7</ele>
        <time>2021-12-19T10:40:01Z</time>
      </trkpt>
      <trkpt lat="45.35221" lon="5.7233">
        <ele>1570.7</ele>
        <time>2021-12-19T10:40:02Z</time>
      </trkpt>
      <trkpt lat="45.3522" lon="5.7233">
        <ele>1570.9</ele>
        <time>2021-12-19T10:40:03Z</time>
      </trkpt>
      <trkpt lat="45.35219" lon="5.72329">
        <ele>1571.1</ele>
        <time>2021-12-19T10:40:04Z</time>
      </trkpt>
      <trkpt lat="45.35218" lon="5.72329">
        <ele>1571.2</ele>
        <time>2021-12-19T10:40:05Z</time>
      </trkpt>
      <trkpt lat="45.35218" lon="5.72329">
        <ele>1571.3</ele>
        <time>2021-12-19T10:40:06Z</time>
      </trkpt>
      <trkpt lat="45.35217" lon="5.72328">
        <ele>1571.5</ele>
        <time>2021-12-19T10:40:07Z</time>
      </trkpt>
      <trkpt lat="45.35216" lon="5.72328">
        <ele>1571.6</ele>
        <time>2021-12-19T10:40:08Z</time>
      </trkpt>
      <trkpt lat="45.35216" lon="5.72328">
        <ele>1571.6</ele>
        <time>2021-12-19T10:40:09Z</time>
      </trkpt>
      <trkpt lat="45.35216" lon="5.72328">
        <ele>1571.7</ele>
        <time>2021-12-19T10:40:10Z</time>
      </trkpt>
      <trkpt lat="45.35216" lon="5.72328">
        <ele>1571.7</ele>
        <time>2021-12-19T10:40:11Z</time>
      </trkpt>
      <trkpt lat="45.35215" lon="5.72328">
        <ele>1571.8</ele>
        <time>2021-12-19T10:40:12Z</time>
      </trkpt>
      <trkpt lat="45.35215" lon="5.72329">
        <ele>1571.8</ele>
        <time>2021-12-19T10:40:13Z</time>
      </trkpt>
      <trkpt lat="45.35215" lon="5.72329">
        <ele>1571.9</ele>
        <time>2021-12-19T10:40:14Z</time>
      </trkpt>
      <trkpt lat="45.35215" lon="5.72329">
        <ele>1571.9</ele>
        <time>2021-12-19T10:40:15Z</time>
      </trkpt>
      <trkpt lat="45.35215" lon="5.72329">
        <ele>1571.9</ele>
        <time>2021-12-19T10:40:16Z</time>
      </trkpt>
      <trkpt lat="45.35214" lon="5.72329">
        <ele>1572</ele>
        <time>2021-12-19T10:40:17Z</time>
      </trkpt>
      <trkpt lat="45.35214" lon="5.72329">
        <ele>1572.1</ele>
        <time>2021-12-19T10:40:18Z</time>
      </trkpt>
      <trkpt lat="45.35214" lon="5.72329">
        <ele>1572.1</ele>
        <time>2021-12-19T10:40:19Z</time>
      </trkpt>
      <trkpt lat="45.35214" lon="5.72328">
        <ele>1572.2</ele>
        <time>2021-12-19T10:40:20Z</time>
      </trkpt>
      <trkpt lat="45.35214" lon="5.72327">
        <ele>1572.3</ele>
        <time>2021-12-19T10:40:21Z</time>
      </trkpt>
      <trkpt lat="45.35214" lon="5.72327">
        <ele>1572.3</ele>
        <time>2021-12-19T10:40:22Z</time>
      </trkpt>
      <trkpt lat="45.35214" lon="5.72326">
        <ele>1572.4</ele>
        <time>2021-12-19T10:40:23Z</time>
      </trkpt>
      <trkpt lat="45.35214" lon="5.72326">
        <ele>1572.5</ele>
        <time>2021-12-19T10:40:24Z</time>
      </trkpt>
      <trkpt lat="45.35214" lon="5.72326">
        <ele>1572.5</ele>
        <time>2021-12-19T10:40:25Z</time>
      </trkpt>
      <trkpt lat="45.35214" lon="5.72325">
        <ele>1572.5</ele>
        <time>2021-12-19T10:40:26Z</time>
      </trkpt>
      <trkpt lat="45.35214" lon="5.72326">
        <ele>1572.6</ele>
        <time>2021-12-19T10:40:27Z</time>
      </trkpt>
      <trkpt lat="45.35214" lon="5.72326">
        <ele>1572.6</ele>
        <time>2021-12-19T10:40:28Z</time>
      </trkpt>
      <trkpt lat="45.35213" lon="5.72327">
        <ele>1572.8</ele>
        <time>2021-12-19T10:40:29Z</time>
      </trkpt>
      <trkpt lat="45.35212" lon="5.72327">
        <ele>1572.9</ele>
        <time>2021-12-19T10:40:30Z</time>
      </trkpt>
      <trkpt lat="45.35212" lon="5.72327">
        <ele>1573</ele>
        <time>2021-12-19T10:40:31Z</time>
      </trkpt>
      <trkpt lat="45.35211" lon="5.72328">
        <ele>1573.1</ele>
        <time>2021-12-19T10:40:32Z</time>
      </trkpt>
      <trkpt lat="45.3521" lon="5.72328">
        <ele>1573.3</ele>
        <time>2021-12-19T10:40:33Z</time>
      </trkpt>
      <trkpt lat="45.3521" lon="5.72328">
        <ele>1573.3</ele>
        <time>2021-12-19T10:40:34Z</time>
      </trkpt>
      <trkpt lat="45.3521" lon="5.72329">
        <ele>1573.4</ele>
        <time>2021-12-19T10:40:35Z</time>
      </trkpt>
      <trkpt lat="45.3521" lon="5.72329">
        <ele>1573.4</ele>
        <time>2021-12-19T10:40:36Z</time>
      </trkpt>
      <trkpt lat="45.35209" lon="5.72329">
        <ele>1573.5</ele>
        <time>2021-12-19T10:40:37Z</time>
      </trkpt>
      <trkpt lat="45.35209" lon="5.72329">
        <ele>1573.6</ele>
        <time>2021-12-19T10:40:38Z</time>
      </trkpt>
      <trkpt lat="45.35208" lon="5.72329">
        <ele>1573.6</ele>
        <time>2021-12-19T10:40:39Z</time>
      </trkpt>
      <trkpt lat="45.35208" lon="5.72329">
        <ele>1573.7</ele>
        <time>2021-12-19T10:40:40Z</time>
      </trkpt>
      <trkpt lat="45.35207" lon="5.72329">
        <ele>1573.8</ele>
        <time>2021-12-19T10:40:41Z</time>
      </trkpt>
      <trkpt lat="45.35207" lon="5.72329">
        <ele>1573.9</ele>
        <time>2021-12-19T10:40:42Z</time>
      </trkpt>
      <trkpt lat="45.35206" lon="5.72329">
        <ele>1574</ele>
        <time>2021-12-19T10:40:43Z</time>
      </trkpt>
      <trkpt lat="45.35205" lon="5.72329">
        <ele>1574.2</ele>
        <time>2021-12-19T10:40:44Z</time>
      </trkpt>
      <trkpt lat="45.35205" lon="5.72328">
        <ele>1574.3</ele>
        <time>2021-12-19T10:40:45Z</time>
      </trkpt>
      <trkpt lat="45.35204" lon="5.72328">
        <ele>1574.3</ele>
        <time>2021-12-19T10:40:46Z</time>
      </trkpt>
      <trkpt lat="45.35205" lon="5.72327">
        <ele>1574.4</ele>
        <time>2021-12-19T10:40:47Z</time>
      </trkpt>
      <trkpt lat="45.35204" lon="5.72327">
        <ele>1574.5</ele>
        <time>2021-12-19T10:40:48Z</time>
      </trkpt>
      <trkpt lat="45.35204" lon="5.72327">
        <ele>1574.5</ele>
        <time>2021-12-19T10:40:49Z</time>
      </trkpt>
      <trkpt lat="45.35203" lon="5.72326">
        <ele>1574.6</ele>
        <time>2021-12-19T10:40:50Z</time>
      </trkpt>
      <trkpt lat="45.35203" lon="5.72326">
        <ele>1574.7</ele>
        <time>2021-12-19T10:40:51Z</time>
      </trkpt>
      <trkpt lat="45.35203" lon="5.72325">
        <ele>1574.8</ele>
        <time>2021-12-19T10:40:52Z</time>
      </trkpt>
      <trkpt lat="45.35202" lon="5.72325">
        <ele>1574.9</ele>
        <time>2021-12-19T10:40:53Z</time>
      </trkpt>
      <trkpt lat="45.35202" lon="5.72324">
        <ele>1575</ele>
        <time>2021-12-19T10:40:54Z</time>
      </trkpt>
      <trkpt lat="45.35202" lon="5.72323">
        <ele>1575.1</ele>
        <time>2021-12-19T10:40:55Z</time>
      </trkpt>
      <trkpt lat="45.35202" lon="5.72323">
        <ele>1575.1</ele>
        <time>2021-12-19T10:40:56Z</time>
      </trkpt>
      <trkpt lat="45.35202" lon="5.72322">
        <ele>1575.2</ele>
        <time>2021-12-19T10:40:57Z</time>
      </trkpt>
      <trkpt lat="45.35202" lon="5.72321">
        <ele>1575.3</ele>
        <time>2021-12-19T10:40:58Z</time>
      </trkpt>
      <trkpt lat="45.35203" lon="5.72321">
        <ele>1575.4</ele>
        <time>2021-12-19T10:40:59Z</time>
      </trkpt>
      <trkpt lat="45.35203" lon="5.7232">
        <ele>1575.4</ele>
        <time>2021-12-19T10:41:00Z</time>
      </trkpt>
      <trkpt lat="45.35203" lon="5.72319">
        <ele>1575.5</ele>
        <time>2021-12-19T10:41:01Z</time>
      </trkpt>
      <trkpt lat="45.35203" lon="5.72319">
        <ele>1575.6</ele>
        <time>2021-12-19T10:41:02Z</time>
      </trkpt>
      <trkpt lat="45.35203" lon="5.72318">
        <ele>1575.7</ele>
        <time>2021-12-19T10:41:03Z</time>
      </trkpt>
      <trkpt lat="45.35204" lon="5.72318">
        <ele>1575.7</ele>
        <time>2021-12-19T10:41:04Z</time>
      </trkpt>
      <trkpt lat="45.35204" lon="5.72317">
        <ele>1575.8</ele>
        <time>2021-12-19T10:41:05Z</time>
      </trkpt>
      <trkpt lat="45.35204" lon="5.72317">
        <ele>1575.9</ele>
        <time>2021-12-19T10:41:06Z</time>
      </trkpt>
      <trkpt lat="45.35205" lon="5.72316">
        <ele>1576.1</ele>
        <time>2021-12-19T10:41:07Z</time>
      </trkpt>
      <trkpt lat="45.35205" lon="5.72315">
        <ele>1576.1</ele>
        <time>2021-12-19T10:41:08Z</time>
      </trkpt>
      <trkpt lat="45.35205" lon="5.72314">
        <ele>1576.3</ele>
        <time>2021-12-19T10:41:09Z</time>
      </trkpt>
      <trkpt lat="45.35206" lon="5.72313">
        <ele>1576.4</ele>
        <time>2021-12-19T10:41:10Z</time>
      </trkpt>
      <trkpt lat="45.35206" lon="5.72311">
        <ele>1576.6</ele>
        <time>2021-12-19T10:41:11Z</time>
      </trkpt>
      <trkpt lat="45.35206" lon="5.72311">
        <ele>1576.7</ele>
        <time>2021-12-19T10:41:12Z</time>
      </trkpt>
      <trkpt lat="45.35207" lon="5.7231">
        <ele>1576.8</ele>
        <time>2021-12-19T10:41:13Z</time>
      </trkpt>
      <trkpt lat="45.35206" lon="5.72309">
        <ele>1576.9</ele>
        <time>2021-12-19T10:41:14Z</time>
      </trkpt>
      <trkpt lat="45.35206" lon="5.72308">
        <ele>1577</ele>
        <time>2021-12-19T10:41:15Z</time>
      </trkpt>
      <trkpt lat="45.35206" lon="5.72307">
        <ele>1577.1</ele>
        <time>2021-12-19T10:41:16Z</time>
      </trkpt>
      <trkpt lat="45.35207" lon="5.72307">
        <ele>1577.2</ele>
        <time>2021-12-19T10:41:17Z</time>
      </trkpt>
      <trkpt lat="45.35208" lon="5.72306">
        <ele>1577.3</ele>
        <time>2021-12-19T10:41:18Z</time>
      </trkpt>
      <trkpt lat="45.35208" lon="5.72305">
        <ele>1577.5</ele>
        <time>2021-12-19T10:41:19Z</time>
      </trkpt>
      <trkpt lat="45.35209" lon="5.72305">
        <ele>1577.6</ele>
        <time>2021-12-19T10:41:20Z</time>
      </trkpt>
      <trkpt lat="45.35208" lon="5.72304">
        <ele>1577.7</ele>
        <time>2021-12-19T10:41:21Z</time>
      </trkpt>
      <trkpt lat="45.35209" lon="5.72303">
        <ele>1577.8</ele>
        <time>2021-12-19T10:41:22Z</time>
      </trkpt>
      <trkpt lat="45.35209" lon="5.72303">
        <ele>1577.8</ele>
        <time>2021-12-19T10:41:23Z</time>
      </trkpt>
      <trkpt lat="45.35209" lon="5.72303">
        <ele>1577.9</ele>
        <time>2021-12-19T10:41:24Z</time>
      </trkpt>
      <trkpt lat="45.35209" lon="5.72302">
        <ele>1577.9</ele>
        <time>2021-12-19T10:41:25Z</time>
      </trkpt>
      <trkpt lat="45.3521" lon="5.72302">
        <ele>1578</ele>
        <time>2021-12-19T10:41:26Z</time>
      </trkpt>
      <trkpt lat="45.3521" lon="5.72301">
        <ele>1578.1</ele>
        <time>2021-12-19T10:41:27Z</time>
      </trkpt>
      <trkpt lat="45.3521" lon="5.72301">
        <ele>1578.2</ele>
        <time>2021-12-19T10:41:28Z</time>
      </trkpt>
      <trkpt lat="45.3521" lon="5.72301">
        <ele>1578.2</ele>
        <time>2021-12-19T10:41:29Z</time>
      </trkpt>
      <trkpt lat="45.3521" lon="5.72301">
        <ele>1578.3</ele>
        <time>2021-12-19T10:41:30Z</time>
      </trkpt>
      <trkpt lat="45.3521" lon="5.723">
        <ele>1578.3</ele>
        <time>2021-12-19T10:41:31Z</time>
      </trkpt>
      <trkpt lat="45.3521" lon="5.723">
        <ele>1578.4</ele>
        <time>2021-12-19T10:41:32Z</time>
      </trkpt>
      <trkpt lat="45.3521" lon="5.723">
        <ele>1578.4</ele>
        <time>2021-12-19T10:41:33Z</time>
      </trkpt>
      <trkpt lat="45.3521" lon="5.72299">
        <ele>1578.5</ele>
        <time>2021-12-19T10:41:34Z</time>
      </trkpt>
      <trkpt lat="45.3521" lon="5.72299">
        <ele>1578.5</ele>
        <time>2021-12-19T10:41:35Z</time>
      </trkpt>
      <trkpt lat="45.3521" lon="5.72299">
        <ele>1578.6</ele>
        <time>2021-12-19T10:41:36Z</time>
      </trkpt>
      <trkpt lat="45.3521" lon="5.72299">
        <ele>1578.7</ele>
        <time>2021-12-19T10:41:37Z</time>
      </trkpt>
      <trkpt lat="45.3521" lon="5.72299">
        <ele>1578.7</ele>
        <time>2021-12-19T10:41:38Z</time>
      </trkpt>
      <trkpt lat="45.35209" lon="5.72298">
        <ele>1578.8</ele>
        <time>2021-12-19T10:41:39Z</time>
      </trkpt>
      <trkpt lat="45.35209" lon="5.72298">
        <ele>1578.8</ele>
        <time>2021-12-19T10:41:40Z</time>
      </trkpt>
      <trkpt lat="45.35208" lon="5.72298">
        <ele>1579</ele>
        <time>2021-12-19T10:41:41Z</time>
      </trkpt>
      <trkpt lat="45.35208" lon="5.72298">
        <ele>1579.1</ele>
        <time>2021-12-19T10:41:42Z</time>
      </trkpt>
      <trkpt lat="45.35207" lon="5.72298">
        <ele>1579.2</ele>
        <time>2021-12-19T10:41:43Z</time>
      </trkpt>
      <trkpt lat="45.35206" lon="5.72297">
        <ele>1579.4</ele>
        <time>2021-12-19T10:41:44Z</time>
      </trkpt>
      <trkpt lat="45.35206" lon="5.72297">
        <ele>1579.4</ele>
        <time>2021-12-19T10:41:45Z</time>
      </trkpt>
      <trkpt lat="45.35206" lon="5.72297">
        <ele>1579.5</ele>
        <time>2021-12-19T10:41:46Z</time>
      </trkpt>
      <trkpt lat="45.35205" lon="5.72297">
        <ele>1579.6</ele>
        <time>2021-12-19T10:41:47Z</time>
      </trkpt>
      <trkpt lat="45.35205" lon="5.72297">
        <ele>1579.7</ele>
        <time>2021-12-19T10:41:48Z</time>
      </trkpt>
      <trkpt lat="45.35205" lon="5.72296">
        <ele>1579.7</ele>
        <time>2021-12-19T10:41:49Z</time>
      </trkpt>
      <trkpt lat="45.35205" lon="5.72296">
        <ele>1579.8</ele>
        <time>2021-12-19T10:41:50Z</time>
      </trkpt>
      <trkpt lat="45.35205" lon="5.72296">
        <ele>1579.9</ele>
        <time>2021-12-19T10:41:51Z</time>
      </trkpt>
      <trkpt lat="45.35204" lon="5.72295">
        <ele>1580</ele>
        <time>2021-12-19T10:41:52Z</time>
      </trkpt>
      <trkpt lat="45.35204" lon="5.72295">
        <ele>1580</ele>
        <time>2021-12-19T10:41:53Z</time>
      </trkpt>
      <trkpt lat="45.35204" lon="5.72294">
        <ele>1580.1</ele>
        <time>2021-12-19T10:41:54Z</time>
      </trkpt>
      <trkpt lat="45.35204" lon="5.72294">
        <ele>1580.2</ele>
        <time>2021-12-19T10:41:55Z</time>
      </trkpt>
      <trkpt lat="45.35204" lon="5.72293">
        <ele>1580.3</ele>
        <time>2021-12-19T10:41:56Z</time>
      </trkpt>
      <trkpt lat="45.35204" lon="5.72292">
        <ele>1580.5</ele>
        <time>2021-12-19T10:41:57Z</time>
      </trkpt>
      <trkpt lat="45.35204" lon="5.72291">
        <ele>1580.6</ele>
        <time>2021-12-19T10:41:58Z</time>
      </trkpt>
      <trkpt lat="45.35204" lon="5.7229">
        <ele>1580.7</ele>
        <time>2021-12-19T10:41:59Z</time>
      </trkpt>
      <trkpt lat="45.35204" lon="5.7229">
        <ele>1580.9</ele>
        <time>2021-12-19T10:42:00Z</time>
      </trkpt>
      <trkpt lat="45.35204" lon="5.72288">
        <ele>1581</ele>
        <time>2021-12-19T10:42:01Z</time>
      </trkpt>
      <trkpt lat="45.35205" lon="5.72288">
        <ele>1581.2</ele>
        <time>2021-12-19T10:42:02Z</time>
      </trkpt>
      <trkpt lat="45.35205" lon="5.72287">
        <ele>1581.3</ele>
        <time>2021-12-19T10:42:03Z</time>
      </trkpt>
      <trkpt lat="45.35205" lon="5.72286">
        <ele>1581.5</ele>
        <time>2021-12-19T10:42:04Z</time>
      </trkpt>
      <trkpt lat="45.35206" lon="5.72285">
        <ele>1581.7</ele>
        <time>2021-12-19T10:42:05Z</time>
      </trkpt>
      <trkpt lat="45.35206" lon="5.72284">
        <ele>1581.8</ele>
        <time>2021-12-19T10:42:06Z</time>
      </trkpt>
      <trkpt lat="45.35205" lon="5.72283">
        <ele>1581.9</ele>
        <time>2021-12-19T10:42:07Z</time>
      </trkpt>
      <trkpt lat="45.35205" lon="5.72283">
        <ele>1582</ele>
        <time>2021-12-19T10:42:08Z</time>
      </trkpt>
      <trkpt lat="45.35205" lon="5.72282">
        <ele>1582.1</ele>
        <time>2021-12-19T10:42:09Z</time>
      </trkpt>
      <trkpt lat="45.35205" lon="5.72282">
        <ele>1582.2</ele>
        <time>2021-12-19T10:42:10Z</time>
      </trkpt>
      <trkpt lat="45.35204" lon="5.72282">
        <ele>1582.3</ele>
        <time>2021-12-19T10:42:11Z</time>
      </trkpt>
      <trkpt lat="45.35204" lon="5.72282">
        <ele>1582.3</ele>
        <time>2021-12-19T10:42:12Z</time>
      </trkpt>
      <trkpt lat="45.35204" lon="5.72282">
        <ele>1582.4</ele>
        <time>2021-12-19T10:42:13Z</time>
      </trkpt>
      <trkpt lat="45.35204" lon="5.72282">
        <ele>1582.4</ele>
        <time>2021-12-19T10:42:14Z</time>
      </trkpt>
      <trkpt lat="45.35204" lon="5.72282">
        <ele>1582.5</ele>
        <time>2021-12-19T10:42:15Z</time>
      </trkpt>
      <trkpt lat="45.35203" lon="5.72282">
        <ele>1582.7</ele>
        <time>2021-12-19T10:42:16Z</time>
      </trkpt>
      <trkpt lat="45.35202" lon="5.72281">
        <ele>1582.8</ele>
        <time>2021-12-19T10:42:17Z</time>
      </trkpt>
      <trkpt lat="45.35202" lon="5.72282">
        <ele>1582.9</ele>
        <time>2021-12-19T10:42:18Z</time>
      </trkpt>
      <trkpt lat="45.35202" lon="5.72281">
        <ele>1583</ele>
        <time>2021-12-19T10:42:19Z</time>
      </trkpt>
      <trkpt lat="45.35202" lon="5.7228">
        <ele>1583.1</ele>
        <time>2021-12-19T10:42:20Z</time>
      </trkpt>
      <trkpt lat="45.35202" lon="5.7228">
        <ele>1583.2</ele>
        <time>2021-12-19T10:42:21Z</time>
      </trkpt>
      <trkpt lat="45.35201" lon="5.72279">
        <ele>1583.3</ele>
        <time>2021-12-19T10:42:22Z</time>
      </trkpt>
      <trkpt lat="45.35201" lon="5.72278">
        <ele>1583.4</ele>
        <time>2021-12-19T10:42:23Z</time>
      </trkpt>
      <trkpt lat="45.35202" lon="5.72278">
        <ele>1583.5</ele>
        <time>2021-12-19T10:42:24Z</time>
      </trkpt>
      <trkpt lat="45.35202" lon="5.72278">
        <ele>1583.5</ele>
        <time>2021-12-19T10:42:25Z</time>
      </trkpt>
      <trkpt lat="45.35201" lon="5.72277">
        <ele>1583.6</ele>
        <time>2021-12-19T10:42:26Z</time>
      </trkpt>
      <trkpt lat="45.35202" lon="5.72277">
        <ele>1583.8</ele>
        <time>2021-12-19T10:42:27Z</time>
      </trkpt>
      <trkpt lat="45.35202" lon="5.72276">
        <ele>1583.9</ele>
        <time>2021-12-19T10:42:28Z</time>
      </trkpt>
      <trkpt lat="45.35202" lon="5.72275">
        <ele>1584</ele>
        <time>2021-12-19T10:42:29Z</time>
      </trkpt>
      <trkpt lat="45.35202" lon="5.72274">
        <ele>1584.2</ele>
        <time>2021-12-19T10:42:30Z</time>
      </trkpt>
      <trkpt lat="45.35202" lon="5.72273">
        <ele>1584.3</ele>
        <time>2021-12-19T10:42:31Z</time>
      </trkpt>
      <trkpt lat="45.35203" lon="5.72273">
        <ele>1584.4</ele>
        <time>2021-12-19T10:42:32Z</time>
      </trkpt>
      <trkpt lat="45.35203" lon="5.72271">
        <ele>1584.7</ele>
        <time>2021-12-19T10:42:33Z</time>
      </trkpt>
      <trkpt lat="45.35203" lon="5.72271">
        <ele>1584.8</ele>
        <time>2021-12-19T10:42:34Z</time>
      </trkpt>
      <trkpt lat="45.35204" lon="5.7227">
        <ele>1584.9</ele>
        <time>2021-12-19T10:42:35Z</time>
      </trkpt>
      <trkpt lat="45.35204" lon="5.7227">
        <ele>1585</ele>
        <time>2021-12-19T10:42:36Z</time>
      </trkpt>
      <trkpt lat="45.35204" lon="5.72269">
        <ele>1585.1</ele>
        <time>2021-12-19T10:42:37Z</time>
      </trkpt>
      <trkpt lat="45.35204" lon="5.72269">
        <ele>1585.3</ele>
        <time>2021-12-19T10:42:38Z</time>
      </trkpt>
      <trkpt lat="45.35205" lon="5.72268">
        <ele>1585.4</ele>
        <time>2021-12-19T10:42:39Z</time>
      </trkpt>
      <trkpt lat="45.35205" lon="5.72267">
        <ele>1585.5</ele>
        <time>2021-12-19T10:42:40Z</time>
      </trkpt>
      <trkpt lat="45.35204" lon="5.72267">
        <ele>1585.6</ele>
        <time>2021-12-19T10:42:41Z</time>
      </trkpt>
      <trkpt lat="45.35204" lon="5.72266">
        <ele>1585.7</ele>
        <time>2021-12-19T10:42:42Z</time>
      </trkpt>
      <trkpt lat="45.35204" lon="5.72266">
        <ele>1585.8</ele>
        <time>2021-12-19T10:42:43Z</time>
      </trkpt>
      <trkpt lat="45.35204" lon="5.72265">
        <ele>1585.9</ele>
        <time>2021-12-19T10:42:44Z</time>
      </trkpt>
      <trkpt lat="45.35204" lon="5.72265">
        <ele>1586</ele>
        <time>2021-12-19T10:42:45Z</time>
      </trkpt>
      <trkpt lat="45.35203" lon="5.72264">
        <ele>1586.1</ele>
        <time>2021-12-19T10:42:46Z</time>
      </trkpt>
      <trkpt lat="45.35203" lon="5.72264">
        <ele>1586.2</ele>
        <time>2021-12-19T10:42:47Z</time>
      </trkpt>
      <trkpt lat="45.35203" lon="5.72264">
        <ele>1586.3</ele>
        <time>2021-12-19T10:42:48Z</time>
      </trkpt>
      <trkpt lat="45.35202" lon="5.72263">
        <ele>1586.4</ele>
        <time>2021-12-19T10:42:49Z</time>
      </trkpt>
      <trkpt lat="45.35202" lon="5.72263">
        <ele>1586.4</ele>
        <time>2021-12-19T10:42:50Z</time>
      </trkpt>
      <trkpt lat="45.35202" lon="5.72263">
        <ele>1586.4</ele>
        <time>2021-12-19T10:42:51Z</time>
      </trkpt>
      <trkpt lat="45.35202" lon="5.72264">
        <ele>1586.5</ele>
        <time>2021-12-19T10:42:52Z</time>
      </trkpt>
      <trkpt lat="45.35202" lon="5.72264">
        <ele>1586.5</ele>
        <time>2021-12-19T10:42:53Z</time>
      </trkpt>
      <trkpt lat="45.35202" lon="5.72264">
        <ele>1586.6</ele>
        <time>2021-12-19T10:42:54Z</time>
      </trkpt>
      <trkpt lat="45.35201" lon="5.72264">
        <ele>1586.7</ele>
        <time>2021-12-19T10:42:55Z</time>
      </trkpt>
      <trkpt lat="45.35201" lon="5.72265">
        <ele>1586.9</ele>
        <time>2021-12-19T10:42:56Z</time>
      </trkpt>
      <trkpt lat="45.352" lon="5.72265">
        <ele>1587</ele>
        <time>2021-12-19T10:42:57Z</time>
      </trkpt>
      <trkpt lat="45.352" lon="5.72265">
        <ele>1587</ele>
        <time>2021-12-19T10:42:58Z</time>
      </trkpt>
      <trkpt lat="45.352" lon="5.72265">
        <ele>1587.1</ele>
        <time>2021-12-19T10:42:59Z</time>
      </trkpt>
      <trkpt lat="45.352" lon="5.72265">
        <ele>1587.1</ele>
        <time>2021-12-19T10:43:00Z</time>
      </trkpt>
      <trkpt lat="45.35199" lon="5.72265">
        <ele>1587.3</ele>
        <time>2021-12-19T10:43:01Z</time>
      </trkpt>
      <trkpt lat="45.35198" lon="5.72265">
        <ele>1587.4</ele>
        <time>2021-12-19T10:43:02Z</time>
      </trkpt>
      <trkpt lat="45.35198" lon="5.72266">
        <ele>1587.6</ele>
        <time>2021-12-19T10:43:03Z</time>
      </trkpt>
      <trkpt lat="45.35197" lon="5.72266">
        <ele>1587.7</ele>
        <time>2021-12-19T10:43:04Z</time>
      </trkpt>
      <trkpt lat="45.35197" lon="5.72266">
        <ele>1587.8</ele>
        <time>2021-12-19T10:43:05Z</time>
      </trkpt>
      <trkpt lat="45.35196" lon="5.72266">
        <ele>1587.9</ele>
        <time>2021-12-19T10:43:06Z</time>
      </trkpt>
      <trkpt lat="45.35196" lon="5.72266">
        <ele>1588</ele>
        <time>2021-12-19T10:43:07Z</time>
      </trkpt>
      <trkpt lat="45.35195" lon="5.72266">
        <ele>1588.2</ele>
        <time>2021-12-19T10:43:08Z</time>
      </trkpt>
      <trkpt lat="45.35195" lon="5.72266">
        <ele>1588.3</ele>
        <time>2021-12-19T10:43:09Z</time>
      </trkpt>
      <trkpt lat="45.35194" lon="5.72266">
        <ele>1588.5</ele>
        <time>2021-12-19T10:43:10Z</time>
      </trkpt>
      <trkpt lat="45.35193" lon="5.72266">
        <ele>1588.7</ele>
        <time>2021-12-19T10:43:11Z</time>
      </trkpt>
      <trkpt lat="45.35192" lon="5.72267">
        <ele>1588.9</ele>
        <time>2021-12-19T10:43:12Z</time>
      </trkpt>
      <trkpt lat="45.35191" lon="5.72267">
        <ele>1589.1</ele>
        <time>2021-12-19T10:43:13Z</time>
      </trkpt>
      <trkpt lat="45.35191" lon="5.72268">
        <ele>1589.3</ele>
        <time>2021-12-19T10:43:14Z</time>
      </trkpt>
      <trkpt lat="45.35191" lon="5.72268">
        <ele>1589.4</ele>
        <time>2021-12-19T10:43:15Z</time>
      </trkpt>
      <trkpt lat="45.3519" lon="5.72268">
        <ele>1589.5</ele>
        <time>2021-12-19T10:43:16Z</time>
      </trkpt>
      <trkpt lat="45.35189" lon="5.72269">
        <ele>1589.7</ele>
        <time>2021-12-19T10:43:17Z</time>
      </trkpt>
      <trkpt lat="45.35188" lon="5.72269">
        <ele>1589.9</ele>
        <time>2021-12-19T10:43:18Z</time>
      </trkpt>
      <trkpt lat="45.35188" lon="5.7227">
        <ele>1590.1</ele>
        <time>2021-12-19T10:43:19Z</time>
      </trkpt>
      <trkpt lat="45.35187" lon="5.7227">
        <ele>1590.2</ele>
        <time>2021-12-19T10:43:20Z</time>
      </trkpt>
      <trkpt lat="45.35187" lon="5.7227">
        <ele>1590.3</ele>
        <time>2021-12-19T10:43:21Z</time>
      </trkpt>
      <trkpt lat="45.35187" lon="5.72271">
        <ele>1590.4</ele>
        <time>2021-12-19T10:43:22Z</time>
      </trkpt>
      <trkpt lat="45.35186" lon="5.72271">
        <ele>1590.6</ele>
        <time>2021-12-19T10:43:23Z</time>
      </trkpt>
      <trkpt lat="45.35185" lon="5.72271">
        <ele>1590.8</ele>
        <time>2021-12-19T10:43:24Z</time>
      </trkpt>
      <trkpt lat="45.35184" lon="5.72271">
        <ele>1591</ele>
        <time>2021-12-19T10:43:25Z</time>
      </trkpt>
      <trkpt lat="45.35184" lon="5.72272">
        <ele>1591.2</ele>
        <time>2021-12-19T10:43:26Z</time>
      </trkpt>
      <trkpt lat="45.35183" lon="5.72272">
        <ele>1591.3</ele>
        <time>2021-12-19T10:43:27Z</time>
      </trkpt>
      <trkpt lat="45.35182" lon="5.72273">
        <ele>1591.5</ele>
        <time>2021-12-19T10:43:28Z</time>
      </trkpt>
      <trkpt lat="45.35182" lon="5.72273">
        <ele>1591.7</ele>
        <time>2021-12-19T10:43:29Z</time>
      </trkpt>
      <trkpt lat="45.35181" lon="5.72273">
        <ele>1591.8</ele>
        <time>2021-12-19T10:43:30Z</time>
      </trkpt>
      <trkpt lat="45.35181" lon="5.72274">
        <ele>1591.9</ele>
        <time>2021-12-19T10:43:31Z</time>
      </trkpt>
      <trkpt lat="45.35181" lon="5.72274">
        <ele>1592.1</ele>
        <time>2021-12-19T10:43:32Z</time>
      </trkpt>
      <trkpt lat="45.3518" lon="5.72275">
        <ele>1592.2</ele>
        <time>2021-12-19T10:43:33Z</time>
      </trkpt>
      <trkpt lat="45.3518" lon="5.72276">
        <ele>1592.4</ele>
        <time>2021-12-19T10:43:34Z</time>
      </trkpt>
      <trkpt lat="45.35179" lon="5.72276">
        <ele>1592.5</ele>
        <time>2021-12-19T10:43:35Z</time>
      </trkpt>
      <trkpt lat="45.35179" lon="5.72277">
        <ele>1592.7</ele>
        <time>2021-12-19T10:43:36Z</time>
      </trkpt>
      <trkpt lat="45.35178" lon="5.72277">
        <ele>1592.8</ele>
        <time>2021-12-19T10:43:37Z</time>
      </trkpt>
      <trkpt lat="45.35179" lon="5.72278">
        <ele>1592.9</ele>
        <time>2021-12-19T10:43:38Z</time>
      </trkpt>
      <trkpt lat="45.35178" lon="5.72279">
        <ele>1593.2</ele>
        <time>2021-12-19T10:43:39Z</time>
      </trkpt>
      <trkpt lat="45.35177" lon="5.7228">
        <ele>1593.4</ele>
        <time>2021-12-19T10:43:40Z</time>
      </trkpt>
      <trkpt lat="45.35177" lon="5.7228">
        <ele>1593.5</ele>
        <time>2021-12-19T10:43:41Z</time>
      </trkpt>
      <trkpt lat="45.35177" lon="5.7228">
        <ele>1593.5</ele>
        <time>2021-12-19T10:43:42Z</time>
      </trkpt>
      <trkpt lat="45.35177" lon="5.7228">
        <ele>1593.6</ele>
        <time>2021-12-19T10:43:43Z</time>
      </trkpt>
      <trkpt lat="45.35176" lon="5.72281">
        <ele>1593.7</ele>
        <time>2021-12-19T10:43:44Z</time>
      </trkpt>
      <trkpt lat="45.35175" lon="5.7228">
        <ele>1593.9</ele>
        <time>2021-12-19T10:43:45Z</time>
      </trkpt>
      <trkpt lat="45.35175" lon="5.7228">
        <ele>1594</ele>
        <time>2021-12-19T10:43:46Z</time>
      </trkpt>
      <trkpt lat="45.35175" lon="5.7228">
        <ele>1594</ele>
        <time>2021-12-19T10:43:47Z</time>
      </trkpt>
      <trkpt lat="45.35175" lon="5.72281">
        <ele>1594.1</ele>
        <time>2021-12-19T10:43:48Z</time>
      </trkpt>
      <trkpt lat="45.35174" lon="5.72281">
        <ele>1594.2</ele>
        <time>2021-12-19T10:43:49Z</time>
      </trkpt>
      <trkpt lat="45.35174" lon="5.72281">
        <ele>1594.4</ele>
        <time>2021-12-19T10:43:50Z</time>
      </trkpt>
      <trkpt lat="45.35173" lon="5.72282">
        <ele>1594.5</ele>
        <time>2021-12-19T10:43:51Z</time>
      </trkpt>
      <trkpt lat="45.35173" lon="5.72282">
        <ele>1594.6</ele>
        <time>2021-12-19T10:43:52Z</time>
      </trkpt>
      <trkpt lat="45.35172" lon="5.72282">
        <ele>1594.7</ele>
        <time>2021-12-19T10:43:53Z</time>
      </trkpt>
      <trkpt lat="45.35171" lon="5.72282">
        <ele>1594.9</ele>
        <time>2021-12-19T10:43:54Z</time>
      </trkpt>
      <trkpt lat="45.35171" lon="5.72282">
        <ele>1595</ele>
        <time>2021-12-19T10:43:55Z</time>
      </trkpt>
      <trkpt lat="45.3517" lon="5.72282">
        <ele>1595.2</ele>
        <time>2021-12-19T10:43:56Z</time>
      </trkpt>
      <trkpt lat="45.35169" lon="5.72281">
        <ele>1595.4</ele>
        <time>2021-12-19T10:43:57Z</time>
      </trkpt>
      <trkpt lat="45.35168" lon="5.72281">
        <ele>1595.5</ele>
        <time>2021-12-19T10:43:58Z</time>
      </trkpt>
      <trkpt lat="45.35168" lon="5.72281">
        <ele>1595.6</ele>
        <time>2021-12-19T10:43:59Z</time>
      </trkpt>
      <trkpt lat="45.35167" lon="5.72281">
        <ele>1595.8</ele>
        <time>2021-12-19T10:44:00Z</time>
      </trkpt>
      <trkpt lat="45.35166" lon="5.72281">
        <ele>1596</ele>
        <time>2021-12-19T10:44:01Z</time>
      </trkpt>
      <trkpt lat="45.35166" lon="5.7228">
        <ele>1596.1</ele>
        <time>2021-12-19T10:44:02Z</time>
      </trkpt>
      <trkpt lat="45.35165" lon="5.72279">
        <ele>1596.3</ele>
        <time>2021-12-19T10:44:03Z</time>
      </trkpt>
      <trkpt lat="45.35164" lon="5.72279">
        <ele>1596.4</ele>
        <time>2021-12-19T10:44:04Z</time>
      </trkpt>
      <trkpt lat="45.35164" lon="5.72279">
        <ele>1596.5</ele>
        <time>2021-12-19T10:44:05Z</time>
      </trkpt>
      <trkpt lat="45.35164" lon="5.72278">
        <ele>1596.6</ele>
        <time>2021-12-19T10:44:06Z</time>
      </trkpt>
      <trkpt lat="45.35163" lon="5.72278">
        <ele>1596.8</ele>
        <time>2021-12-19T10:44:07Z</time>
      </trkpt>
      <trkpt lat="45.35163" lon="5.72277">
        <ele>1596.9</ele>
        <time>2021-12-19T10:44:08Z</time>
      </trkpt>
      <trkpt lat="45.35162" lon="5.72276">
        <ele>1597</ele>
        <time>2021-12-19T10:44:09Z</time>
      </trkpt>
      <trkpt lat="45.35162" lon="5.72276">
        <ele>1597.1</ele>
        <time>2021-12-19T10:44:10Z</time>
      </trkpt>
      <trkpt lat="45.35161" lon="5.72275">
        <ele>1597.3</ele>
        <time>2021-12-19T10:44:11Z</time>
      </trkpt>
      <trkpt lat="45.35161" lon="5.72275">
        <ele>1597.4</ele>
        <time>2021-12-19T10:44:12Z</time>
      </trkpt>
      <trkpt lat="45.3516" lon="5.72274">
        <ele>1597.5</ele>
        <time>2021-12-19T10:44:13Z</time>
      </trkpt>
      <trkpt lat="45.35159" lon="5.72273">
        <ele>1597.7</ele>
        <time>2021-12-19T10:44:14Z</time>
      </trkpt>
      <trkpt lat="45.35159" lon="5.72273">
        <ele>1597.8</ele>
        <time>2021-12-19T10:44:15Z</time>
      </trkpt>
      <trkpt lat="45.35159" lon="5.72272">
        <ele>1597.9</ele>
        <time>2021-12-19T10:44:16Z</time>
      </trkpt>
      <trkpt lat="45.35158" lon="5.72272">
        <ele>1598</ele>
        <time>2021-12-19T10:44:17Z</time>
      </trkpt>
      <trkpt lat="45.35157" lon="5.72272">
        <ele>1598.1</ele>
        <time>2021-12-19T10:44:18Z</time>
      </trkpt>
      <trkpt lat="45.35157" lon="5.72272">
        <ele>1598.2</ele>
        <time>2021-12-19T10:44:19Z</time>
      </trkpt>
      <trkpt lat="45.35155" lon="5.72271">
        <ele>1598.5</ele>
        <time>2021-12-19T10:44:20Z</time>
      </trkpt>
      <trkpt lat="45.35154" lon="5.72271">
        <ele>1598.6</ele>
        <time>2021-12-19T10:44:21Z</time>
      </trkpt>
      <trkpt lat="45.35154" lon="5.7227">
        <ele>1598.7</ele>
        <time>2021-12-19T10:44:22Z</time>
      </trkpt>
      <trkpt lat="45.35153" lon="5.7227">
        <ele>1598.8</ele>
        <time>2021-12-19T10:44:23Z</time>
      </trkpt>
      <trkpt lat="45.35152" lon="5.7227">
        <ele>1598.9</ele>
        <time>2021-12-19T10:44:24Z</time>
      </trkpt>
      <trkpt lat="45.35152" lon="5.72269">
        <ele>1599</ele>
        <time>2021-12-19T10:44:25Z</time>
      </trkpt>
      <trkpt lat="45.35151" lon="5.72269">
        <ele>1599.1</ele>
        <time>2021-12-19T10:44:26Z</time>
      </trkpt>
      <trkpt lat="45.3515" lon="5.72268">
        <ele>1599.2</ele>
        <time>2021-12-19T10:44:27Z</time>
      </trkpt>
      <trkpt lat="45.35149" lon="5.72268">
        <ele>1599.3</ele>
        <time>2021-12-19T10:44:28Z</time>
      </trkpt>
      <trkpt lat="45.35149" lon="5.72266">
        <ele>1599.5</ele>
        <time>2021-12-19T10:44:29Z</time>
      </trkpt>
      <trkpt lat="45.35149" lon="5.72265">
        <ele>1599.6</ele>
        <time>2021-12-19T10:44:30Z</time>
      </trkpt>
      <trkpt lat="45.35148" lon="5.72264">
        <ele>1599.7</ele>
        <time>2021-12-19T10:44:31Z</time>
      </trkpt>
      <trkpt lat="45.35147" lon="5.72263">
        <ele>1599.8</ele>
        <time>2021-12-19T10:44:32Z</time>
      </trkpt>
      <trkpt lat="45.35147" lon="5.72262">
        <ele>1599.9</ele>
        <time>2021-12-19T10:44:33Z</time>
      </trkpt>
      <trkpt lat="45.35146" lon="5.72262">
        <ele>1600</ele>
        <time>2021-12-19T10:44:34Z</time>
      </trkpt>
      <trkpt lat="45.35145" lon="5.72261">
        <ele>1600.1</ele>
        <time>2021-12-19T10:44:35Z</time>
      </trkpt>
      <trkpt lat="45.35145" lon="5.7226">
        <ele>1600.1</ele>
        <time>2021-12-19T10:44:36Z</time>
      </trkpt>
      <trkpt lat="45.35144" lon="5.72259">
        <ele>1600.2</ele>
        <time>2021-12-19T10:44:37Z</time>
      </trkpt>
      <trkpt lat="45.35144" lon="5.72259">
        <ele>1600.3</ele>
        <time>2021-12-19T10:44:38Z</time>
      </trkpt>
      <trkpt lat="45.35143" lon="5.72258">
        <ele>1600.3</ele>
        <time>2021-12-19T10:44:39Z</time>
      </trkpt>
      <trkpt lat="45.35142" lon="5.72258">
        <ele>1600.4</ele>
        <time>2021-12-19T10:44:40Z</time>
      </trkpt>
      <trkpt lat="45.35142" lon="5.72257">
        <ele>1600.5</ele>
        <time>2021-12-19T10:44:41Z</time>
      </trkpt>
      <trkpt lat="45.35142" lon="5.72256">
        <ele>1600.5</ele>
        <time>2021-12-19T10:44:42Z</time>
      </trkpt>
      <trkpt lat="45.35141" lon="5.72255">
        <ele>1600.6</ele>
        <time>2021-12-19T10:44:43Z</time>
      </trkpt>
      <trkpt lat="45.3514" lon="5.72255">
        <ele>1600.7</ele>
        <time>2021-12-19T10:44:44Z</time>
      </trkpt>
      <trkpt lat="45.3514" lon="5.72254">
        <ele>1600.7</ele>
        <time>2021-12-19T10:44:45Z</time>
      </trkpt>
      <trkpt lat="45.35139" lon="5.72252">
        <ele>1600.8</ele>
        <time>2021-12-19T10:44:46Z</time>
      </trkpt>
      <trkpt lat="45.35138" lon="5.72252">
        <ele>1600.8</ele>
        <time>2021-12-19T10:44:47Z</time>
      </trkpt>
      <trkpt lat="45.35138" lon="5.7225">
        <ele>1600.9</ele>
        <time>2021-12-19T10:44:48Z</time>
      </trkpt>
      <trkpt lat="45.35137" lon="5.7225">
        <ele>1600.9</ele>
        <time>2021-12-19T10:44:49Z</time>
      </trkpt>
      <trkpt lat="45.35136" lon="5.72249">
        <ele>1601</ele>
        <time>2021-12-19T10:44:50Z</time>
      </trkpt>
      <trkpt lat="45.35136" lon="5.72249">
        <ele>1601</ele>
        <time>2021-12-19T10:44:51Z</time>
      </trkpt>
      <trkpt lat="45.35135" lon="5.72248">
        <ele>1601.1</ele>
        <time>2021-12-19T10:44:52Z</time>
      </trkpt>
      <trkpt lat="45.35134" lon="5.72248">
        <ele>1601.1</ele>
        <time>2021-12-19T10:44:53Z</time>
      </trkpt>
      <trkpt lat="45.35133" lon="5.72248">
        <ele>1601.2</ele>
        <time>2021-12-19T10:44:54Z</time>
      </trkpt>
      <trkpt lat="45.35132" lon="5.72248">
        <ele>1601.2</ele>
        <time>2021-12-19T10:44:55Z</time>
      </trkpt>
      <trkpt lat="45.35131" lon="5.72248">
        <ele>1601.2</ele>
        <time>2021-12-19T10:44:56Z</time>
      </trkpt>
      <trkpt lat="45.3513" lon="5.72248">
        <ele>1601.3</ele>
        <time>2021-12-19T10:44:57Z</time>
      </trkpt>
      <trkpt lat="45.35129" lon="5.72248">
        <ele>1601.3</ele>
        <time>2021-12-19T10:44:58Z</time>
      </trkpt>
      <trkpt lat="45.35129" lon="5.72248">
        <ele>1601.3</ele>
        <time>2021-12-19T10:44:59Z</time>
      </trkpt>
      <trkpt lat="45.35128" lon="5.72248">
        <ele>1601.4</ele>
        <time>2021-12-19T10:45:00Z</time>
      </trkpt>
      <trkpt lat="45.35127" lon="5.72248">
        <ele>1601.4</ele>
        <time>2021-12-19T10:45:01Z</time>
      </trkpt>
      <trkpt lat="45.35127" lon="5.72249">
        <ele>1601.4</ele>
        <time>2021-12-19T10:45:02Z</time>
      </trkpt>
      <trkpt lat="45.35127" lon="5.72249">
        <ele>1601.4</ele>
        <time>2021-12-19T10:45:03Z</time>
      </trkpt>
      <trkpt lat="45.35127" lon="5.72249">
        <ele>1601.4</ele>
        <time>2021-12-19T10:45:04Z</time>
      </trkpt>
      <trkpt lat="45.35127" lon="5.72249">
        <ele>1601.4</ele>
        <time>2021-12-19T10:45:05Z</time>
      </trkpt>
      <trkpt lat="45.35127" lon="5.72249">
        <ele>1601.4</ele>
        <time>2021-12-19T10:45:06Z</time>
      </trkpt>
      <trkpt lat="45.35127" lon="5.72249">
        <ele>1601.4</ele>
        <time>2021-12-19T10:45:07Z</time>
      </trkpt>
      <trkpt lat="45.35127" lon="5.72249">
        <ele>1601.4</ele>
        <time>2021-12-19T10:45:08Z</time>
      </trkpt>
      <trkpt lat="45.35127" lon="5.72249">
        <ele>1601.5</ele>
        <time>2021-12-19T10:45:09Z</time>
      </trkpt>
      <trkpt lat="45.35127" lon="5.72249">
        <ele>1601.5</ele>
        <time>2021-12-19T10:45:10Z</time>
      </trkpt>
      <trkpt lat="45.35127" lon="5.72249">
        <ele>1601.5</ele>
        <time>2021-12-19T10:45:11Z</time>
      </trkpt>
      <trkpt lat="45.35127" lon="5.72249">
        <ele>1601.5</ele>
        <time>2021-12-19T10:45:12Z</time>
      </trkpt>
      <trkpt lat="45.35127" lon="5.72249">
        <ele>1601.5</ele>
        <time>2021-12-19T10:45:13Z</time>
      </trkpt>
      <trkpt lat="45.35127" lon="5.72248">
        <ele>1601.5</ele>
        <time>2021-12-19T10:45:14Z</time>
      </trkpt>
      <trkpt lat="45.35127" lon="5.72248">
        <ele>1601.5</ele>
        <time>2021-12-19T10:45:15Z</time>
      </trkpt>
      <trkpt lat="45.35126" lon="5.72248">
        <ele>1601.5</ele>
        <time>2021-12-19T10:45:16Z</time>
      </trkpt>
      <trkpt lat="45.35126" lon="5.72248">
        <ele>1601.5</ele>
        <time>2021-12-19T10:45:17Z</time>
      </trkpt>
      <trkpt lat="45.35126" lon="5.72248">
        <ele>1601.5</ele>
        <time>2021-12-19T10:45:18Z</time>
      </trkpt>
      <trkpt lat="45.35126" lon="5.72248">
        <ele>1601.5</ele>
        <time>2021-12-19T10:45:19Z</time>
      </trkpt>
      <trkpt lat="45.35126" lon="5.72248">
        <ele>1601.5</ele>
        <time>2021-12-19T10:45:20Z</time>
      </trkpt>
      <trkpt lat="45.35126" lon="5.72248">
        <ele>1601.5</ele>
        <time>2021-12-19T10:45:21Z</time>
      </trkpt>
      <trkpt lat="45.35126" lon="5.72249">
        <ele>1601.5</ele>
        <time>2021-12-19T10:45:22Z</time>
      </trkpt>
      <trkpt lat="45.35126" lon="5.72249">
        <ele>1601.5</ele>
        <time>2021-12-19T10:45:23Z</time>
      </trkpt>
      <trkpt lat="45.35126" lon="5.72249">
        <ele>1601.5</ele>
        <time>2021-12-19T10:45:24Z</time>
      </trkpt>
      <trkpt lat="45.35126" lon="5.72249">
        <ele>1601.5</ele>
        <time>2021-12-19T10:45:25Z</time>
      </trkpt>
      <trkpt lat="45.35126" lon="5.72249">
        <ele>1601.5</ele>
        <time>2021-12-19T10:45:26Z</time>
      </trkpt>
      <trkpt lat="45.35125" lon="5.72249">
        <ele>1601.5</ele>
        <time>2021-12-19T10:45:27Z</time>
      </trkpt>
      <trkpt lat="45.35125" lon="5.72249">
        <ele>1601.5</ele>
        <time>2021-12-19T10:45:28Z</time>
      </trkpt>
      <trkpt lat="45.35125" lon="5.72249">
        <ele>1601.6</ele>
        <time>2021-12-19T10:45:29Z</time>
      </trkpt>
      <trkpt lat="45.35124" lon="5.72249">
        <ele>1601.6</ele>
        <time>2021-12-19T10:45:30Z</time>
      </trkpt>
      <trkpt lat="45.35124" lon="5.72249">
        <ele>1601.6</ele>
        <time>2021-12-19T10:45:31Z</time>
      </trkpt>
      <trkpt lat="45.35124" lon="5.72249">
        <ele>1601.6</ele>
        <time>2021-12-19T10:45:32Z</time>
      </trkpt>
      <trkpt lat="45.35123" lon="5.72249">
        <ele>1601.6</ele>
        <time>2021-12-19T10:45:33Z</time>
      </trkpt>
      <trkpt lat="45.35123" lon="5.72249">
        <ele>1601.6</ele>
        <time>2021-12-19T10:45:34Z</time>
      </trkpt>
      <trkpt lat="45.35123" lon="5.72249">
        <ele>1601.6</ele>
        <time>2021-12-19T10:45:35Z</time>
      </trkpt>
      <trkpt lat="45.35123" lon="5.72248">
        <ele>1601.6</ele>
        <time>2021-12-19T10:45:36Z</time>
      </trkpt>
      <trkpt lat="45.35123" lon="5.72248">
        <ele>1601.6</ele>
        <time>2021-12-19T10:45:37Z</time>
      </trkpt>
      <trkpt lat="45.35122" lon="5.72248">
        <ele>1601.6</ele>
        <time>2021-12-19T10:45:38Z</time>
      </trkpt>
      <trkpt lat="45.35123" lon="5.72247">
        <ele>1601.6</ele>
        <time>2021-12-19T10:45:39Z</time>
      </trkpt>
      <trkpt lat="45.35123" lon="5.72246">
        <ele>1601.6</ele>
        <time>2021-12-19T10:45:40Z</time>
      </trkpt>
      <trkpt lat="45.35123" lon="5.72245">
        <ele>1601.6</ele>
        <time>2021-12-19T10:45:41Z</time>
      </trkpt>
      <trkpt lat="45.35124" lon="5.72245">
        <ele>1601.6</ele>
        <time>2021-12-19T10:45:42Z</time>
      </trkpt>
      <trkpt lat="45.35124" lon="5.72244">
        <ele>1601.6</ele>
        <time>2021-12-19T10:45:43Z</time>
      </trkpt>
      <trkpt lat="45.35124" lon="5.72244">
        <ele>1601.6</ele>
        <time>2021-12-19T10:45:44Z</time>
      </trkpt>
      <trkpt lat="45.35124" lon="5.72244">
        <ele>1601.6</ele>
        <time>2021-12-19T10:45:45Z</time>
      </trkpt>
      <trkpt lat="45.35124" lon="5.72243">
        <ele>1601.6</ele>
        <time>2021-12-19T10:45:46Z</time>
      </trkpt>
      <trkpt lat="45.35124" lon="5.72243">
        <ele>1601.6</ele>
        <time>2021-12-19T10:45:47Z</time>
      </trkpt>
      <trkpt lat="45.35123" lon="5.72243">
        <ele>1601.6</ele>
        <time>2021-12-19T10:45:48Z</time>
      </trkpt>
      <trkpt lat="45.35123" lon="5.72243">
        <ele>1601.6</ele>
        <time>2021-12-19T10:45:49Z</time>
      </trkpt>
      <trkpt lat="45.35123" lon="5.72242">
        <ele>1601.6</ele>
        <time>2021-12-19T10:45:50Z</time>
      </trkpt>
      <trkpt lat="45.35123" lon="5.72242">
        <ele>1601.6</ele>
        <time>2021-12-19T10:45:51Z</time>
      </trkpt>
      <trkpt lat="45.35123" lon="5.72242">
        <ele>1601.6</ele>
        <time>2021-12-19T10:45:52Z</time>
      </trkpt>
      <trkpt lat="45.35123" lon="5.72242">
        <ele>1601.6</ele>
        <time>2021-12-19T10:45:53Z</time>
      </trkpt>
      <trkpt lat="45.35123" lon="5.72241">
        <ele>1601.6</ele>
        <time>2021-12-19T10:45:54Z</time>
      </trkpt>
      <trkpt lat="45.35123" lon="5.72241">
        <ele>1601.6</ele>
        <time>2021-12-19T10:45:55Z</time>
      </trkpt>
      <trkpt lat="45.35123" lon="5.72241">
        <ele>1601.6</ele>
        <time>2021-12-19T10:45:56Z</time>
      </trkpt>
      <trkpt lat="45.35123" lon="5.7224">
        <ele>1601.6</ele>
        <time>2021-12-19T10:45:57Z</time>
      </trkpt>
      <trkpt lat="45.35122" lon="5.7224">
        <ele>1601.6</ele>
        <time>2021-12-19T10:45:58Z</time>
      </trkpt>
      <trkpt lat="45.35122" lon="5.72241">
        <ele>1601.6</ele>
        <time>2021-12-19T10:45:59Z</time>
      </trkpt>
      <trkpt lat="45.35122" lon="5.72241">
        <ele>1601.6</ele>
        <time>2021-12-19T10:46:00Z</time>
      </trkpt>
      <trkpt lat="45.35122" lon="5.72241">
        <ele>1601.6</ele>
        <time>2021-12-19T10:46:01Z</time>
      </trkpt>
      <trkpt lat="45.35122" lon="5.7224">
        <ele>1601.6</ele>
        <time>2021-12-19T10:46:02Z</time>
      </trkpt>
      <trkpt lat="45.35122" lon="5.72241">
        <ele>1601.6</ele>
        <time>2021-12-19T10:46:03Z</time>
      </trkpt>
      <trkpt lat="45.35122" lon="5.7224">
        <ele>1601.6</ele>
        <time>2021-12-19T10:46:04Z</time>
      </trkpt>
      <trkpt lat="45.35122" lon="5.7224">
        <ele>1601.6</ele>
        <time>2021-12-19T10:46:05Z</time>
      </trkpt>
      <trkpt lat="45.35122" lon="5.72241">
        <ele>1601.6</ele>
        <time>2021-12-19T10:46:06Z</time>
      </trkpt>
      <trkpt lat="45.35122" lon="5.72241">
        <ele>1601.6</ele>
        <time>2021-12-19T10:46:07Z</time>
      </trkpt>
      <trkpt lat="45.35122" lon="5.72241">
        <ele>1601.6</ele>
        <time>2021-12-19T10:46:08Z</time>
      </trkpt>
      <trkpt lat="45.35122" lon="5.72242">
        <ele>1601.6</ele>
        <time>2021-12-19T10:46:09Z</time>
      </trkpt>
      <trkpt lat="45.35123" lon="5.72242">
        <ele>1601.6</ele>
        <time>2021-12-19T10:46:10Z</time>
      </trkpt>
      <trkpt lat="45.35123" lon="5.72242">
        <ele>1601.6</ele>
        <time>2021-12-19T10:46:11Z</time>
      </trkpt>
      <trkpt lat="45.35123" lon="5.72242">
        <ele>1601.6</ele>
        <time>2021-12-19T10:46:12Z</time>
      </trkpt>
      <trkpt lat="45.35123" lon="5.72243">
        <ele>1601.6</ele>
        <time>2021-12-19T10:46:13Z</time>
      </trkpt>
      <trkpt lat="45.35123" lon="5.72244">
        <ele>1601.6</ele>
        <time>2021-12-19T10:46:14Z</time>
      </trkpt>
      <trkpt lat="45.35123" lon="5.72245">
        <ele>1601.6</ele>
        <time>2021-12-19T10:46:15Z</time>
      </trkpt>
      <trkpt lat="45.35124" lon="5.72246">
        <ele>1601.6</ele>
        <time>2021-12-19T10:46:16Z</time>
      </trkpt>
      <trkpt lat="45.35124" lon="5.72247">
        <ele>1601.6</ele>
        <time>2021-12-19T10:46:17Z</time>
      </trkpt>
      <trkpt lat="45.35124" lon="5.72247">
        <ele>1601.6</ele>
        <time>2021-12-19T10:46:18Z</time>
      </trkpt>
      <trkpt lat="45.35124" lon="5.72248">
        <ele>1601.6</ele>
        <time>2021-12-19T10:46:19Z</time>
      </trkpt>
      <trkpt lat="45.35124" lon="5.72247">
        <ele>1601.6</ele>
        <time>2021-12-19T10:46:20Z</time>
      </trkpt>
      <trkpt lat="45.35124" lon="5.72248">
        <ele>1601.6</ele>
        <time>2021-12-19T10:46:21Z</time>
      </trkpt>
      <trkpt lat="45.35125" lon="5.72248">
        <ele>1601.6</ele>
        <time>2021-12-19T10:46:22Z</time>
      </trkpt>
      <trkpt lat="45.35125" lon="5.72248">
        <ele>1601.6</ele>
        <time>2021-12-19T10:46:23Z</time>
      </trkpt>
      <trkpt lat="45.35125" lon="5.72248">
        <ele>1601.6</ele>
        <time>2021-12-19T10:46:24Z</time>
      </trkpt>
      <trkpt lat="45.35126" lon="5.72249">
        <ele>1601.6</ele>
        <time>2021-12-19T10:46:25Z</time>
      </trkpt>
      <trkpt lat="45.35125" lon="5.72248">
        <ele>1601.6</ele>
        <time>2021-12-19T10:46:26Z</time>
      </trkpt>
      <trkpt lat="45.35126" lon="5.72249">
        <ele>1601.6</ele>
        <time>2021-12-19T10:46:27Z</time>
      </trkpt>
      <trkpt lat="45.35125" lon="5.72248">
        <ele>1601.6</ele>
        <time>2021-12-19T10:46:28Z</time>
      </trkpt>
      <trkpt lat="45.35125" lon="5.72249">
        <ele>1601.6</ele>
        <time>2021-12-19T10:46:29Z</time>
      </trkpt>
      <trkpt lat="45.35125" lon="5.72248">
        <ele>1601.6</ele>
        <time>2021-12-19T10:46:30Z</time>
      </trkpt>
      <trkpt lat="45.35125" lon="5.72248">
        <ele>1601.6</ele>
        <time>2021-12-19T10:46:31Z</time>
      </trkpt>
      <trkpt lat="45.35124" lon="5.72247">
        <ele>1601.6</ele>
        <time>2021-12-19T10:46:32Z</time>
      </trkpt>
      <trkpt lat="45.35124" lon="5.72247">
        <ele>1601.6</ele>
        <time>2021-12-19T10:46:33Z</time>
      </trkpt>
      <trkpt lat="45.35124" lon="5.72247">
        <ele>1601.6</ele>
        <time>2021-12-19T10:46:34Z</time>
      </trkpt>
      <trkpt lat="45.35124" lon="5.72247">
        <ele>1601.6</ele>
        <time>2021-12-19T10:46:35Z</time>
      </trkpt>
      <trkpt lat="45.35124" lon="5.72247">
        <ele>1601.6</ele>
        <time>2021-12-19T10:46:36Z</time>
      </trkpt>
      <trkpt lat="45.35124" lon="5.72247">
        <ele>1601.6</ele>
        <time>2021-12-19T10:46:37Z</time>
      </trkpt>
      <trkpt lat="45.35125" lon="5.72247">
        <ele>1601.6</ele>
        <time>2021-12-19T10:46:38Z</time>
      </trkpt>
      <trkpt lat="45.35125" lon="5.72247">
        <ele>1601.6</ele>
        <time>2021-12-19T10:46:39Z</time>
      </trkpt>
      <trkpt lat="45.35125" lon="5.72247">
        <ele>1601.6</ele>
        <time>2021-12-19T10:46:40Z</time>
      </trkpt>
      <trkpt lat="45.35124" lon="5.72247">
        <ele>1601.6</ele>
        <time>2021-12-19T10:46:41Z</time>
      </trkpt>
      <trkpt lat="45.35124" lon="5.72247">
        <ele>1601.6</ele>
        <time>2021-12-19T10:46:42Z</time>
      </trkpt>
      <trkpt lat="45.35124" lon="5.72247">
        <ele>1601.6</ele>
        <time>2021-12-19T10:46:43Z</time>
      </trkpt>
      <trkpt lat="45.35124" lon="5.72248">
        <ele>1601.6</ele>
        <time>2021-12-19T10:46:44Z</time>
      </trkpt>
      <trkpt lat="45.35124" lon="5.72248">
        <ele>1601.6</ele>
        <time>2021-12-19T10:46:45Z</time>
      </trkpt>
      <trkpt lat="45.35125" lon="5.72248">
        <ele>1601.6</ele>
        <time>2021-12-19T10:46:46Z</time>
      </trkpt>
      <trkpt lat="45.35125" lon="5.72248">
        <ele>1601.6</ele>
        <time>2021-12-19T10:46:47Z</time>
      </trkpt>
      <trkpt lat="45.35125" lon="5.72248">
        <ele>1601.6</ele>
        <time>2021-12-19T10:46:48Z</time>
      </trkpt>
      <trkpt lat="45.35125" lon="5.72248">
        <ele>1601.6</ele>
        <time>2021-12-19T10:46:49Z</time>
      </trkpt>
      <trkpt lat="45.35125" lon="5.72248">
        <ele>1601.6</ele>
        <time>2021-12-19T10:46:50Z</time>
      </trkpt>
      <trkpt lat="45.35126" lon="5.72248">
        <ele>1601.6</ele>
        <time>2021-12-19T10:46:51Z</time>
      </trkpt>
      <trkpt lat="45.35126" lon="5.72248">
        <ele>1601.6</ele>
        <time>2021-12-19T10:46:52Z</time>
      </trkpt>
      <trkpt lat="45.35126" lon="5.72248">
        <ele>1601.6</ele>
        <time>2021-12-19T10:46:53Z</time>
      </trkpt>
      <trkpt lat="45.35126" lon="5.72248">
        <ele>1601.6</ele>
        <time>2021-12-19T10:46:54Z</time>
      </trkpt>
      <trkpt lat="45.35126" lon="5.72248">
        <ele>1601.6</ele>
        <time>2021-12-19T10:46:55Z</time>
      </trkpt>
      <trkpt lat="45.35126" lon="5.72248">
        <ele>1601.6</ele>
        <time>2021-12-19T10:46:56Z</time>
      </trkpt>
      <trkpt lat="45.35126" lon="5.72248">
        <ele>1601.6</ele>
        <time>2021-12-19T10:46:57Z</time>
      </trkpt>
      <trkpt lat="45.35126" lon="5.72248">
        <ele>1601.6</ele>
        <time>2021-12-19T10:46:58Z</time>
      </trkpt>
      <trkpt lat="45.35126" lon="5.72248">
        <ele>1601.6</ele>
        <time>2021-12-19T10:46:59Z</time>
      </trkpt>
      <trkpt lat="45.35126" lon="5.72248">
        <ele>1601.6</ele>
        <time>2021-12-19T10:47:00Z</time>
      </trkpt>
      <trkpt lat="45.35126" lon="5.72248">
        <ele>1601.6</ele>
        <time>2021-12-19T10:47:01Z</time>
      </trkpt>
      <trkpt lat="45.35126" lon="5.72248">
        <ele>1601.6</ele>
        <time>2021-12-19T10:47:02Z</time>
      </trkpt>
      <trkpt lat="45.35126" lon="5.72248">
        <ele>1601.6</ele>
        <time>2021-12-19T10:47:03Z</time>
      </trkpt>
      <trkpt lat="45.35126" lon="5.72248">
        <ele>1601.6</ele>
        <time>2021-12-19T10:47:04Z</time>
      </trkpt>
      <trkpt lat="45.35126" lon="5.72247">
        <ele>1601.6</ele>
        <time>2021-12-19T10:47:05Z</time>
      </trkpt>
      <trkpt lat="45.35126" lon="5.72247">
        <ele>1601.6</ele>
        <time>2021-12-19T10:47:06Z</time>
      </trkpt>
      <trkpt lat="45.35126" lon="5.72247">
        <ele>1601.6</ele>
        <time>2021-12-19T10:47:07Z</time>
      </trkpt>
      <trkpt lat="45.35126" lon="5.72247">
        <ele>1601.6</ele>
        <time>2021-12-19T10:47:08Z</time>
      </trkpt>
      <trkpt lat="45.35125" lon="5.72247">
        <ele>1601.6</ele>
        <time>2021-12-19T10:47:09Z</time>
      </trkpt>
      <trkpt lat="45.35125" lon="5.72247">
        <ele>1601.6</ele>
        <time>2021-12-19T10:47:10Z</time>
      </trkpt>
      <trkpt lat="45.35124" lon="5.72247">
        <ele>1601.6</ele>
        <time>2021-12-19T10:47:11Z</time>
      </trkpt>
      <trkpt lat="45.35124" lon="5.72247">
        <ele>1601.6</ele>
        <time>2021-12-19T10:47:12Z</time>
      </trkpt>
      <trkpt lat="45.35124" lon="5.72247">
        <ele>1601.6</ele>
        <time>2021-12-19T10:47:13Z</time>
      </trkpt>
      <trkpt lat="45.35124" lon="5.72247">
        <ele>1601.6</ele>
        <time>2021-12-19T10:47:14Z</time>
      </trkpt>
      <trkpt lat="45.35124" lon="5.72247">
        <ele>1601.6</ele>
        <time>2021-12-19T10:47:15Z</time>
      </trkpt>
      <trkpt lat="45.35124" lon="5.72247">
        <ele>1601.6</ele>
        <time>2021-12-19T10:47:16Z</time>
      </trkpt>
      <trkpt lat="45.35124" lon="5.72247">
        <ele>1601.6</ele>
        <time>2021-12-19T10:47:17Z</time>
      </trkpt>
      <trkpt lat="45.35124" lon="5.72247">
        <ele>1601.6</ele>
        <time>2021-12-19T10:47:18Z</time>
      </trkpt>
      <trkpt lat="45.35124" lon="5.72247">
        <ele>1601.6</ele>
        <time>2021-12-19T10:47:19Z</time>
      </trkpt>
      <trkpt lat="45.35124" lon="5.72247">
        <ele>1601.6</ele>
        <time>2021-12-19T10:47:20Z</time>
      </trkpt>
      <trkpt lat="45.35124" lon="5.72247">
        <ele>1601.6</ele>
        <time>2021-12-19T10:47:21Z</time>
      </trkpt>
      <trkpt lat="45.35124" lon="5.72247">
        <ele>1601.6</ele>
        <time>2021-12-19T10:47:22Z</time>
      </trkpt>
      <trkpt lat="45.35124" lon="5.72247">
        <ele>1601.6</ele>
        <time>2021-12-19T10:47:23Z</time>
      </trkpt>
      <trkpt lat="45.35124" lon="5.72247">
        <ele>1601.6</ele>
        <time>2021-12-19T10:47:24Z</time>
      </trkpt>
      <trkpt lat="45.35124" lon="5.72247">
        <ele>1601.6</ele>
        <time>2021-12-19T10:47:25Z</time>
      </trkpt>
      <trkpt lat="45.35124" lon="5.72247">
        <ele>1601.6</ele>
        <time>2021-12-19T10:47:26Z</time>
      </trkpt>
      <trkpt lat="45.35124" lon="5.72247">
        <ele>1601.6</ele>
        <time>2021-12-19T10:47:27Z</time>
      </trkpt>
      <trkpt lat="45.35124" lon="5.72247">
        <ele>1601.6</ele>
        <time>2021-12-19T10:47:28Z</time>
      </trkpt>
      <trkpt lat="45.35124" lon="5.72247">
        <ele>1601.6</ele>
        <time>2021-12-19T10:47:29Z</time>
      </trkpt>
      <trkpt lat="45.35123" lon="5.72246">
        <ele>1601.6</ele>
        <time>2021-12-19T10:47:30Z</time>
      </trkpt>
      <trkpt lat="45.35123" lon="5.72246">
        <ele>1601.6</ele>
        <time>2021-12-19T10:47:31Z</time>
      </trkpt>
      <trkpt lat="45.35123" lon="5.72247">
        <ele>1601.6</ele>
        <time>2021-12-19T10:47:32Z</time>
      </trkpt>
      <trkpt lat="45.35123" lon="5.72247">
        <ele>1601.6</ele>
        <time>2021-12-19T10:47:33Z</time>
      </trkpt>
      <trkpt lat="45.35123" lon="5.72247">
        <ele>1601.6</ele>
        <time>2021-12-19T10:47:34Z</time>
      </trkpt>
      <trkpt lat="45.35123" lon="5.72247">
        <ele>1601.6</ele>
        <time>2021-12-19T10:47:35Z</time>
      </trkpt>
      <trkpt lat="45.35123" lon="5.72246">
        <ele>1601.6</ele>
        <time>2021-12-19T10:47:36Z</time>
      </trkpt>
      <trkpt lat="45.35122" lon="5.72246">
        <ele>1601.6</ele>
        <time>2021-12-19T10:47:37Z</time>
      </trkpt>
      <trkpt lat="45.35122" lon="5.72246">
        <ele>1601.6</ele>
        <time>2021-12-19T10:47:38Z</time>
      </trkpt>
      <trkpt lat="45.35123" lon="5.72246">
        <ele>1601.6</ele>
        <time>2021-12-19T10:47:39Z</time>
      </trkpt>
      <trkpt lat="45.35123" lon="5.72247">
        <ele>1601.6</ele>
        <time>2021-12-19T10:47:40Z</time>
      </trkpt>
      <trkpt lat="45.35123" lon="5.72247">
        <ele>1601.6</ele>
        <time>2021-12-19T10:47:41Z</time>
      </trkpt>
      <trkpt lat="45.35123" lon="5.72246">
        <ele>1601.6</ele>
        <time>2021-12-19T10:47:42Z</time>
      </trkpt>
      <trkpt lat="45.35123" lon="5.72246">
        <ele>1601.6</ele>
        <time>2021-12-19T10:47:43Z</time>
      </trkpt>
      <trkpt lat="45.35123" lon="5.72246">
        <ele>1601.6</ele>
        <time>2021-12-19T10:47:44Z</time>
      </trkpt>
      <trkpt lat="45.35123" lon="5.72246">
        <ele>1601.6</ele>
        <time>2021-12-19T10:47:45Z</time>
      </trkpt>
      <trkpt lat="45.35123" lon="5.72246">
        <ele>1601.6</ele>
        <time>2021-12-19T10:47:46Z</time>
      </trkpt>
      <trkpt lat="45.35123" lon="5.72246">
        <ele>1601.6</ele>
        <time>2021-12-19T10:47:47Z</time>
      </trkpt>
      <trkpt lat="45.35123" lon="5.72246">
        <ele>1601.6</ele>
        <time>2021-12-19T10:47:48Z</time>
      </trkpt>
      <trkpt lat="45.35123" lon="5.72246">
        <ele>1601.6</ele>
        <time>2021-12-19T10:47:49Z</time>
      </trkpt>
      <trkpt lat="45.35122" lon="5.72246">
        <ele>1601.6</ele>
        <time>2021-12-19T10:47:50Z</time>
      </trkpt>
      <trkpt lat="45.35123" lon="5.72246">
        <ele>1601.6</ele>
        <time>2021-12-19T10:47:51Z</time>
      </trkpt>
      <trkpt lat="45.35123" lon="5.72246">
        <ele>1601.6</ele>
        <time>2021-12-19T10:47:52Z</time>
      </trkpt>
      <trkpt lat="45.35123" lon="5.72246">
        <ele>1601.6</ele>
        <time>2021-12-19T10:47:53Z</time>
      </trkpt>
      <trkpt lat="45.35122" lon="5.72246">
        <ele>1601.6</ele>
        <time>2021-12-19T10:47:54Z</time>
      </trkpt>
      <trkpt lat="45.35122" lon="5.72246">
        <ele>1601.6</ele>
        <time>2021-12-19T10:47:55Z</time>
      </trkpt>
      <trkpt lat="45.35122" lon="5.72246">
        <ele>1601.6</ele>
        <time>2021-12-19T10:47:56Z</time>
      </trkpt>
      <trkpt lat="45.35122" lon="5.72246">
        <ele>1601.6</ele>
        <time>2021-12-19T10:47:57Z</time>
      </trkpt>
      <trkpt lat="45.35122" lon="5.72246">
        <ele>1601.6</ele>
        <time>2021-12-19T10:47:58Z</time>
      </trkpt>
      <trkpt lat="45.35122" lon="5.72245">
        <ele>1601.6</ele>
        <time>2021-12-19T10:47:59Z</time>
      </trkpt>
      <trkpt lat="45.35122" lon="5.72245">
        <ele>1601.6</ele>
        <time>2021-12-19T10:48:00Z</time>
      </trkpt>
      <trkpt lat="45.35122" lon="5.72245">
        <ele>1601.6</ele>
        <time>2021-12-19T10:48:01Z</time>
      </trkpt>
      <trkpt lat="45.35122" lon="5.72245">
        <ele>1601.6</ele>
        <time>2021-12-19T10:48:02Z</time>
      </trkpt>
      <trkpt lat="45.35122" lon="5.72245">
        <ele>1601.6</ele>
        <time>2021-12-19T10:48:03Z</time>
      </trkpt>
      <trkpt lat="45.35122" lon="5.72245">
        <ele>1601.6</ele>
        <time>2021-12-19T10:48:04Z</time>
      </trkpt>
      <trkpt lat="45.35122" lon="5.72245">
        <ele>1601.6</ele>
        <time>2021-12-19T10:48:05Z</time>
      </trkpt>
      <trkpt lat="45.35122" lon="5.72245">
        <ele>1601.6</ele>
        <time>2021-12-19T10:48:06Z</time>
      </trkpt>
      <trkpt lat="45.35122" lon="5.72245">
        <ele>1601.6</ele>
        <time>2021-12-19T10:48:07Z</time>
      </trkpt>
      <trkpt lat="45.35122" lon="5.72245">
        <ele>1601.6</ele>
        <time>2021-12-19T10:48:08Z</time>
      </trkpt>
      <trkpt lat="45.35122" lon="5.72245">
        <ele>1601.6</ele>
        <time>2021-12-19T10:48:09Z</time>
      </trkpt>
      <trkpt lat="45.35122" lon="5.72245">
        <ele>1601.6</ele>
        <time>2021-12-19T10:48:10Z</time>
      </trkpt>
      <trkpt lat="45.35122" lon="5.72245">
        <ele>1601.6</ele>
        <time>2021-12-19T10:48:11Z</time>
      </trkpt>
      <trkpt lat="45.35122" lon="5.72245">
        <ele>1601.6</ele>
        <time>2021-12-19T10:48:12Z</time>
      </trkpt>
      <trkpt lat="45.35122" lon="5.72245">
        <ele>1601.6</ele>
        <time>2021-12-19T10:48:13Z</time>
      </trkpt>
      <trkpt lat="45.35122" lon="5.72246">
        <ele>1601.6</ele>
        <time>2021-12-19T10:48:14Z</time>
      </trkpt>
      <trkpt lat="45.35122" lon="5.72246">
        <ele>1601.6</ele>
        <time>2021-12-19T10:48:15Z</time>
      </trkpt>
      <trkpt lat="45.35122" lon="5.72246">
        <ele>1601.6</ele>
        <time>2021-12-19T10:48:16Z</time>
      </trkpt>
      <trkpt lat="45.35122" lon="5.72246">
        <ele>1601.6</ele>
        <time>2021-12-19T10:48:17Z</time>
      </trkpt>
      <trkpt lat="45.35122" lon="5.72246">
        <ele>1601.6</ele>
        <time>2021-12-19T10:48:18Z</time>
      </trkpt>
      <trkpt lat="45.35123" lon="5.72246">
        <ele>1601.6</ele>
        <time>2021-12-19T10:48:19Z</time>
      </trkpt>
      <trkpt lat="45.35122" lon="5.72246">
        <ele>1601.6</ele>
        <time>2021-12-19T10:48:20Z</time>
      </trkpt>
      <trkpt lat="45.35122" lon="5.72246">
        <ele>1601.6</ele>
        <time>2021-12-19T10:48:21Z</time>
      </trkpt>
      <trkpt lat="45.35123" lon="5.72246">
        <ele>1601.6</ele>
        <time>2021-12-19T10:48:22Z</time>
      </trkpt>
      <trkpt lat="45.35123" lon="5.72246">
        <ele>1601.6</ele>
        <time>2021-12-19T10:48:23Z</time>
      </trkpt>
      <trkpt lat="45.35123" lon="5.72246">
        <ele>1601.6</ele>
        <time>2021-12-19T10:48:24Z</time>
      </trkpt>
      <trkpt lat="45.35123" lon="5.72246">
        <ele>1601.6</ele>
        <time>2021-12-19T10:48:25Z</time>
      </trkpt>
      <trkpt lat="45.35123" lon="5.72246">
        <ele>1601.6</ele>
        <time>2021-12-19T10:48:26Z</time>
      </trkpt>
      <trkpt lat="45.35123" lon="5.72246">
        <ele>1601.6</ele>
        <time>2021-12-19T10:48:27Z</time>
      </trkpt>
      <trkpt lat="45.35123" lon="5.72246">
        <ele>1601.6</ele>
        <time>2021-12-19T10:48:28Z</time>
      </trkpt>
      <trkpt lat="45.35123" lon="5.72246">
        <ele>1601.6</ele>
        <time>2021-12-19T10:48:29Z</time>
      </trkpt>
      <trkpt lat="45.35123" lon="5.72246">
        <ele>1601.6</ele>
        <time>2021-12-19T10:48:30Z</time>
      </trkpt>
      <trkpt lat="45.35123" lon="5.72246">
        <ele>1601.6</ele>
        <time>2021-12-19T10:48:31Z</time>
      </trkpt>
      <trkpt lat="45.35123" lon="5.72246">
        <ele>1601.6</ele>
        <time>2021-12-19T10:48:32Z</time>
      </trkpt>
      <trkpt lat="45.35123" lon="5.72246">
        <ele>1601.6</ele>
        <time>2021-12-19T10:48:33Z</time>
      </trkpt>
      <trkpt lat="45.35123" lon="5.72246">
        <ele>1601.6</ele>
        <time>2021-12-19T10:48:34Z</time>
      </trkpt>
      <trkpt lat="45.35124" lon="5.72247">
        <ele>1601.6</ele>
        <time>2021-12-19T10:48:35Z</time>
      </trkpt>
      <trkpt lat="45.35124" lon="5.72247">
        <ele>1601.6</ele>
        <time>2021-12-19T10:48:36Z</time>
      </trkpt>
      <trkpt lat="45.35124" lon="5.72247">
        <ele>1601.6</ele>
        <time>2021-12-19T10:48:37Z</time>
      </trkpt>
      <trkpt lat="45.35124" lon="5.72247">
        <ele>1601.6</ele>
        <time>2021-12-19T10:48:38Z</time>
      </trkpt>
      <trkpt lat="45.35124" lon="5.72247">
        <ele>1601.6</ele>
        <time>2021-12-19T10:48:39Z</time>
      </trkpt>
      <trkpt lat="45.35124" lon="5.72247">
        <ele>1601.6</ele>
        <time>2021-12-19T10:48:40Z</time>
      </trkpt>
      <trkpt lat="45.35124" lon="5.72248">
        <ele>1601.6</ele>
        <time>2021-12-19T10:48:41Z</time>
      </trkpt>
      <trkpt lat="45.35124" lon="5.72247">
        <ele>1601.6</ele>
        <time>2021-12-19T10:48:42Z</time>
      </trkpt>
      <trkpt lat="45.35124" lon="5.72247">
        <ele>1601.6</ele>
        <time>2021-12-19T10:48:43Z</time>
      </trkpt>
      <trkpt lat="45.35124" lon="5.72247">
        <ele>1601.6</ele>
        <time>2021-12-19T10:48:44Z</time>
      </trkpt>
      <trkpt lat="45.35124" lon="5.72247">
        <ele>1601.6</ele>
        <time>2021-12-19T10:48:45Z</time>
      </trkpt>
      <trkpt lat="45.35124" lon="5.72247">
        <ele>1601.6</ele>
        <time>2021-12-19T10:48:46Z</time>
      </trkpt>
      <trkpt lat="45.35124" lon="5.72247">
        <ele>1601.6</ele>
        <time>2021-12-19T10:48:47Z</time>
      </trkpt>
      <trkpt lat="45.35124" lon="5.72247">
        <ele>1601.6</ele>
        <time>2021-12-19T10:48:48Z</time>
      </trkpt>
      <trkpt lat="45.35124" lon="5.72247">
        <ele>1601.6</ele>
        <time>2021-12-19T10:48:49Z</time>
      </trkpt>
      <trkpt lat="45.35124" lon="5.72247">
        <ele>1601.6</ele>
        <time>2021-12-19T10:48:50Z</time>
      </trkpt>
      <trkpt lat="45.35124" lon="5.72247">
        <ele>1601.6</ele>
        <time>2021-12-19T10:48:51Z</time>
      </trkpt>
      <trkpt lat="45.35124" lon="5.72247">
        <ele>1601.6</ele>
        <time>2021-12-19T10:48:52Z</time>
      </trkpt>
      <trkpt lat="45.35124" lon="5.72246">
        <ele>1601.6</ele>
        <time>2021-12-19T10:48:53Z</time>
      </trkpt>
      <trkpt lat="45.35124" lon="5.72246">
        <ele>1601.6</ele>
        <time>2021-12-19T10:48:54Z</time>
      </trkpt>
      <trkpt lat="45.35124" lon="5.72246">
        <ele>1601.6</ele>
        <time>2021-12-19T10:48:55Z</time>
      </trkpt>
      <trkpt lat="45.35124" lon="5.72246">
        <ele>1601.6</ele>
        <time>2021-12-19T10:48:56Z</time>
      </trkpt>
      <trkpt lat="45.35124" lon="5.72246">
        <ele>1601.6</ele>
        <time>2021-12-19T10:48:57Z</time>
      </trkpt>
      <trkpt lat="45.35125" lon="5.72246">
        <ele>1601.6</ele>
        <time>2021-12-19T10:48:58Z</time>
      </trkpt>
      <trkpt lat="45.35125" lon="5.72246">
        <ele>1601.6</ele>
        <time>2021-12-19T10:48:59Z</time>
      </trkpt>
      <trkpt lat="45.35125" lon="5.72246">
        <ele>1601.6</ele>
        <time>2021-12-19T10:49:00Z</time>
      </trkpt>
      <trkpt lat="45.35125" lon="5.72245">
        <ele>1601.6</ele>
        <time>2021-12-19T10:49:01Z</time>
      </trkpt>
      <trkpt lat="45.35125" lon="5.72245">
        <ele>1601.6</ele>
        <time>2021-12-19T10:49:02Z</time>
      </trkpt>
      <trkpt lat="45.35125" lon="5.72246">
        <ele>1601.6</ele>
        <time>2021-12-19T10:49:03Z</time>
      </trkpt>
      <trkpt lat="45.35125" lon="5.72246">
        <ele>1601.6</ele>
        <time>2021-12-19T10:49:04Z</time>
      </trkpt>
      <trkpt lat="45.35125" lon="5.72246">
        <ele>1601.6</ele>
        <time>2021-12-19T10:49:05Z</time>
      </trkpt>
      <trkpt lat="45.35125" lon="5.72246">
        <ele>1601.6</ele>
        <time>2021-12-19T10:49:06Z</time>
      </trkpt>
      <trkpt lat="45.35125" lon="5.72246">
        <ele>1601.6</ele>
        <time>2021-12-19T10:49:07Z</time>
      </trkpt>
      <trkpt lat="45.35125" lon="5.72245">
        <ele>1601.6</ele>
        <time>2021-12-19T10:49:08Z</time>
      </trkpt>
      <trkpt lat="45.35125" lon="5.72245">
        <ele>1601.6</ele>
        <time>2021-12-19T10:49:09Z</time>
      </trkpt>
      <trkpt lat="45.35125" lon="5.72245">
        <ele>1601.6</ele>
        <time>2021-12-19T10:49:10Z</time>
      </trkpt>
      <trkpt lat="45.35125" lon="5.72245">
        <ele>1601.6</ele>
        <time>2021-12-19T10:49:11Z</time>
      </trkpt>
      <trkpt lat="45.35125" lon="5.72247">
        <ele>1601.6</ele>
        <time>2021-12-19T10:49:12Z</time>
      </trkpt>
      <trkpt lat="45.35125" lon="5.72248">
        <ele>1601.6</ele>
        <time>2021-12-19T10:49:13Z</time>
      </trkpt>
      <trkpt lat="45.35126" lon="5.72248">
        <ele>1601.6</ele>
        <time>2021-12-19T10:49:14Z</time>
      </trkpt>
      <trkpt lat="45.35126" lon="5.72249">
        <ele>1601.6</ele>
        <time>2021-12-19T10:49:15Z</time>
      </trkpt>
      <trkpt lat="45.35126" lon="5.72249">
        <ele>1601.6</ele>
        <time>2021-12-19T10:49:16Z</time>
      </trkpt>
      <trkpt lat="45.35127" lon="5.7225">
        <ele>1601.6</ele>
        <time>2021-12-19T10:49:17Z</time>
      </trkpt>
      <trkpt lat="45.35127" lon="5.7225">
        <ele>1601.6</ele>
        <time>2021-12-19T10:49:18Z</time>
      </trkpt>
      <trkpt lat="45.35127" lon="5.7225">
        <ele>1601.6</ele>
        <time>2021-12-19T10:49:19Z</time>
      </trkpt>
      <trkpt lat="45.35127" lon="5.7225">
        <ele>1601.6</ele>
        <time>2021-12-19T10:49:20Z</time>
      </trkpt>
      <trkpt lat="45.35127" lon="5.72249">
        <ele>1601.6</ele>
        <time>2021-12-19T10:49:21Z</time>
      </trkpt>
      <trkpt lat="45.35127" lon="5.7225">
        <ele>1601.6</ele>
        <time>2021-12-19T10:49:22Z</time>
      </trkpt>
      <trkpt lat="45.35128" lon="5.72249">
        <ele>1601.6</ele>
        <time>2021-12-19T10:49:23Z</time>
      </trkpt>
      <trkpt lat="45.35127" lon="5.72247">
        <ele>1601.6</ele>
        <time>2021-12-19T10:49:24Z</time>
      </trkpt>
      <trkpt lat="45.35127" lon="5.72247">
        <ele>1601.6</ele>
        <time>2021-12-19T10:49:25Z</time>
      </trkpt>
      <trkpt lat="45.35127" lon="5.72247">
        <ele>1601.6</ele>
        <time>2021-12-19T10:49:26Z</time>
      </trkpt>
      <trkpt lat="45.35127" lon="5.72246">
        <ele>1601.6</ele>
        <time>2021-12-19T10:49:27Z</time>
      </trkpt>
      <trkpt lat="45.35127" lon="5.72245">
        <ele>1601.6</ele>
        <time>2021-12-19T10:49:28Z</time>
      </trkpt>
      <trkpt lat="45.35126" lon="5.72245">
        <ele>1601.6</ele>
        <time>2021-12-19T10:49:29Z</time>
      </trkpt>
      <trkpt lat="45.35126" lon="5.72245">
        <ele>1601.6</ele>
        <time>2021-12-19T10:49:30Z</time>
      </trkpt>
      <trkpt lat="45.35126" lon="5.72245">
        <ele>1601.6</ele>
        <time>2021-12-19T10:49:31Z</time>
      </trkpt>
      <trkpt lat="45.35126" lon="5.72244">
        <ele>1601.6</ele>
        <time>2021-12-19T10:49:32Z</time>
      </trkpt>
      <trkpt lat="45.35126" lon="5.72244">
        <ele>1601.6</ele>
        <time>2021-12-19T10:49:33Z</time>
      </trkpt>
      <trkpt lat="45.35126" lon="5.72245">
        <ele>1601.6</ele>
        <time>2021-12-19T10:49:34Z</time>
      </trkpt>
      <trkpt lat="45.35125" lon="5.72245">
        <ele>1601.6</ele>
        <time>2021-12-19T10:49:35Z</time>
      </trkpt>
      <trkpt lat="45.35125" lon="5.72246">
        <ele>1601.6</ele>
        <time>2021-12-19T10:49:36Z</time>
      </trkpt>
      <trkpt lat="45.35125" lon="5.72246">
        <ele>1601.6</ele>
        <time>2021-12-19T10:49:37Z</time>
      </trkpt>
      <trkpt lat="45.35125" lon="5.72247">
        <ele>1601.6</ele>
        <time>2021-12-19T10:49:38Z</time>
      </trkpt>
      <trkpt lat="45.35125" lon="5.72248">
        <ele>1601.6</ele>
        <time>2021-12-19T10:49:39Z</time>
      </trkpt>
      <trkpt lat="45.35125" lon="5.72249">
        <ele>1601.6</ele>
        <time>2021-12-19T10:49:40Z</time>
      </trkpt>
      <trkpt lat="45.35125" lon="5.72249">
        <ele>1601.6</ele>
        <time>2021-12-19T10:49:41Z</time>
      </trkpt>
      <trkpt lat="45.35126" lon="5.72249">
        <ele>1601.6</ele>
        <time>2021-12-19T10:49:42Z</time>
      </trkpt>
      <trkpt lat="45.35126" lon="5.72249">
        <ele>1601.5</ele>
        <time>2021-12-19T10:49:43Z</time>
      </trkpt>
      <trkpt lat="45.35126" lon="5.7225">
        <ele>1601.5</ele>
        <time>2021-12-19T10:49:44Z</time>
      </trkpt>
      <trkpt lat="45.35125" lon="5.72251">
        <ele>1601.5</ele>
        <time>2021-12-19T10:49:45Z</time>
      </trkpt>
      <trkpt lat="45.35125" lon="5.72251">
        <ele>1601.5</ele>
        <time>2021-12-19T10:49:46Z</time>
      </trkpt>
      <trkpt lat="45.35125" lon="5.72251">
        <ele>1601.5</ele>
        <time>2021-12-19T10:49:47Z</time>
      </trkpt>
      <trkpt lat="45.35125" lon="5.72251">
        <ele>1601.5</ele>
        <time>2021-12-19T10:49:48Z</time>
      </trkpt>
      <trkpt lat="45.35125" lon="5.72252">
        <ele>1601.5</ele>
        <time>2021-12-19T10:49:49Z</time>
      </trkpt>
      <trkpt lat="45.35125" lon="5.72252">
        <ele>1601.5</ele>
        <time>2021-12-19T10:49:50Z</time>
      </trkpt>
      <trkpt lat="45.35125" lon="5.72253">
        <ele>1601.5</ele>
        <time>2021-12-19T10:49:51Z</time>
      </trkpt>
      <trkpt lat="45.35125" lon="5.72253">
        <ele>1601.5</ele>
        <time>2021-12-19T10:49:52Z</time>
      </trkpt>
      <trkpt lat="45.35125" lon="5.72253">
        <ele>1601.5</ele>
        <time>2021-12-19T10:49:53Z</time>
      </trkpt>
      <trkpt lat="45.35124" lon="5.72254">
        <ele>1601.5</ele>
        <time>2021-12-19T10:49:54Z</time>
      </trkpt>
      <trkpt lat="45.35124" lon="5.72253">
        <ele>1601.5</ele>
        <time>2021-12-19T10:49:55Z</time>
      </trkpt>
      <trkpt lat="45.35124" lon="5.72253">
        <ele>1601.5</ele>
        <time>2021-12-19T10:49:56Z</time>
      </trkpt>
      <trkpt lat="45.35124" lon="5.72251">
        <ele>1601.5</ele>
        <time>2021-12-19T10:49:57Z</time>
      </trkpt>
      <trkpt lat="45.35123" lon="5.72248">
        <ele>1601.5</ele>
        <time>2021-12-19T10:49:58Z</time>
      </trkpt>
      <trkpt lat="45.35122" lon="5.72247">
        <ele>1601.5</ele>
        <time>2021-12-19T10:49:59Z</time>
      </trkpt>
      <trkpt lat="45.35122" lon="5.72246">
        <ele>1601.5</ele>
        <time>2021-12-19T10:50:00Z</time>
      </trkpt>
      <trkpt lat="45.35121" lon="5.72246">
        <ele>1601.5</ele>
        <time>2021-12-19T10:50:01Z</time>
      </trkpt>
      <trkpt lat="45.35121" lon="5.72246">
        <ele>1601.5</ele>
        <time>2021-12-19T10:50:02Z</time>
      </trkpt>
      <trkpt lat="45.35121" lon="5.72245">
        <ele>1601.5</ele>
        <time>2021-12-19T10:50:03Z</time>
      </trkpt>
      <trkpt lat="45.35121" lon="5.72245">
        <ele>1601.5</ele>
        <time>2021-12-19T10:50:04Z</time>
      </trkpt>
      <trkpt lat="45.35121" lon="5.72245">
        <ele>1601.5</ele>
        <time>2021-12-19T10:50:05Z</time>
      </trkpt>
      <trkpt lat="45.35121" lon="5.72245">
        <ele>1601.5</ele>
        <time>2021-12-19T10:50:06Z</time>
      </trkpt>
      <trkpt lat="45.35122" lon="5.72245">
        <ele>1601.5</ele>
        <time>2021-12-19T10:50:07Z</time>
      </trkpt>
      <trkpt lat="45.35122" lon="5.72246">
        <ele>1601.5</ele>
        <time>2021-12-19T10:50:08Z</time>
      </trkpt>
      <trkpt lat="45.35122" lon="5.72246">
        <ele>1601.5</ele>
        <time>2021-12-19T10:50:09Z</time>
      </trkpt>
      <trkpt lat="45.35122" lon="5.72246">
        <ele>1601.5</ele>
        <time>2021-12-19T10:50:10Z</time>
      </trkpt>
      <trkpt lat="45.35122" lon="5.72245">
        <ele>1601.5</ele>
        <time>2021-12-19T10:50:11Z</time>
      </trkpt>
      <trkpt lat="45.35122" lon="5.72245">
        <ele>1601.5</ele>
        <time>2021-12-19T10:50:12Z</time>
      </trkpt>
      <trkpt lat="45.35122" lon="5.72245">
        <ele>1601.5</ele>
        <time>2021-12-19T10:50:13Z</time>
      </trkpt>
      <trkpt lat="45.35122" lon="5.72246">
        <ele>1601.5</ele>
        <time>2021-12-19T10:50:14Z</time>
      </trkpt>
      <trkpt lat="45.35122" lon="5.72245">
        <ele>1601.5</ele>
        <time>2021-12-19T10:50:15Z</time>
      </trkpt>
      <trkpt lat="45.35122" lon="5.72245">
        <ele>1601.5</ele>
        <time>2021-12-19T10:50:16Z</time>
      </trkpt>
      <trkpt lat="45.35122" lon="5.72245">
        <ele>1601.5</ele>
        <time>2021-12-19T10:50:17Z</time>
      </trkpt>
      <trkpt lat="45.35122" lon="5.72245">
        <ele>1601.5</ele>
        <time>2021-12-19T10:50:18Z</time>
      </trkpt>
      <trkpt lat="45.35122" lon="5.72245">
        <ele>1601.5</ele>
        <time>2021-12-19T10:50:19Z</time>
      </trkpt>
      <trkpt lat="45.35122" lon="5.72245">
        <ele>1601.5</ele>
        <time>2021-12-19T10:50:20Z</time>
      </trkpt>
      <trkpt lat="45.35122" lon="5.72245">
        <ele>1601.5</ele>
        <time>2021-12-19T10:50:21Z</time>
      </trkpt>
      <trkpt lat="45.35122" lon="5.72245">
        <ele>1601.5</ele>
        <time>2021-12-19T10:50:22Z</time>
      </trkpt>
      <trkpt lat="45.35122" lon="5.72245">
        <ele>1601.5</ele>
        <time>2021-12-19T10:50:23Z</time>
      </trkpt>
      <trkpt lat="45.35122" lon="5.72246">
        <ele>1601.5</ele>
        <time>2021-12-19T10:50:24Z</time>
      </trkpt>
      <trkpt lat="45.35123" lon="5.72245">
        <ele>1601.5</ele>
        <time>2021-12-19T10:50:25Z</time>
      </trkpt>
      <trkpt lat="45.35123" lon="5.72245">
        <ele>1601.5</ele>
        <time>2021-12-19T10:50:26Z</time>
      </trkpt>
      <trkpt lat="45.35123" lon="5.72245">
        <ele>1601.5</ele>
        <time>2021-12-19T10:50:27Z</time>
      </trkpt>
      <trkpt lat="45.35123" lon="5.72245">
        <ele>1601.5</ele>
        <time>2021-12-19T10:50:28Z</time>
      </trkpt>
      <trkpt lat="45.35123" lon="5.72245">
        <ele>1601.5</ele>
        <time>2021-12-19T10:50:29Z</time>
      </trkpt>
      <trkpt lat="45.35123" lon="5.72246">
        <ele>1601.5</ele>
        <time>2021-12-19T10:50:30Z</time>
      </trkpt>
      <trkpt lat="45.35123" lon="5.72246">
        <ele>1601.5</ele>
        <time>2021-12-19T10:50:31Z</time>
      </trkpt>
      <trkpt lat="45.35123" lon="5.72246">
        <ele>1601.5</ele>
        <time>2021-12-19T10:50:32Z</time>
      </trkpt>
      <trkpt lat="45.35123" lon="5.72246">
        <ele>1601.5</ele>
        <time>2021-12-19T10:50:33Z</time>
      </trkpt>
      <trkpt lat="45.35122" lon="5.72245">
        <ele>1601.5</ele>
        <time>2021-12-19T10:50:34Z</time>
      </trkpt>
      <trkpt lat="45.35122" lon="5.72245">
        <ele>1601.5</ele>
        <time>2021-12-19T10:50:35Z</time>
      </trkpt>
      <trkpt lat="45.35122" lon="5.72246">
        <ele>1601.5</ele>
        <time>2021-12-19T10:50:36Z</time>
      </trkpt>
      <trkpt lat="45.35122" lon="5.72246">
        <ele>1601.5</ele>
        <time>2021-12-19T10:50:37Z</time>
      </trkpt>
      <trkpt lat="45.35122" lon="5.72246">
        <ele>1601.5</ele>
        <time>2021-12-19T10:50:38Z</time>
      </trkpt>
      <trkpt lat="45.35122" lon="5.72246">
        <ele>1601.5</ele>
        <time>2021-12-19T10:50:39Z</time>
      </trkpt>
      <trkpt lat="45.35122" lon="5.72246">
        <ele>1601.5</ele>
        <time>2021-12-19T10:50:40Z</time>
      </trkpt>
      <trkpt lat="45.35122" lon="5.72246">
        <ele>1601.5</ele>
        <time>2021-12-19T10:50:41Z</time>
      </trkpt>
      <trkpt lat="45.35122" lon="5.72246">
        <ele>1601.5</ele>
        <time>2021-12-19T10:50:42Z</time>
      </trkpt>
      <trkpt lat="45.35122" lon="5.72246">
        <ele>1601.5</ele>
        <time>2021-12-19T10:50:43Z</time>
      </trkpt>
      <trkpt lat="45.35122" lon="5.72246">
        <ele>1601.5</ele>
        <time>2021-12-19T10:50:44Z</time>
      </trkpt>
      <trkpt lat="45.35122" lon="5.72246">
        <ele>1601.5</ele>
        <time>2021-12-19T10:50:45Z</time>
      </trkpt>
      <trkpt lat="45.35122" lon="5.72246">
        <ele>1601.5</ele>
        <time>2021-12-19T10:50:46Z</time>
      </trkpt>
      <trkpt lat="45.35122" lon="5.72246">
        <ele>1601.5</ele>
        <time>2021-12-19T10:50:47Z</time>
      </trkpt>
      <trkpt lat="45.35122" lon="5.72246">
        <ele>1601.5</ele>
        <time>2021-12-19T10:50:48Z</time>
      </trkpt>
      <trkpt lat="45.35122" lon="5.72246">
        <ele>1601.5</ele>
        <time>2021-12-19T10:50:49Z</time>
      </trkpt>
      <trkpt lat="45.35122" lon="5.72246">
        <ele>1601.5</ele>
        <time>2021-12-19T10:50:50Z</time>
      </trkpt>
      <trkpt lat="45.35122" lon="5.72246">
        <ele>1601.5</ele>
        <time>2021-12-19T10:50:51Z</time>
      </trkpt>
      <trkpt lat="45.35122" lon="5.72245">
        <ele>1601.5</ele>
        <time>2021-12-19T10:50:52Z</time>
      </trkpt>
      <trkpt lat="45.35122" lon="5.72245">
        <ele>1601.5</ele>
        <time>2021-12-19T10:50:53Z</time>
      </trkpt>
      <trkpt lat="45.35122" lon="5.72245">
        <ele>1601.5</ele>
        <time>2021-12-19T10:50:54Z</time>
      </trkpt>
      <trkpt lat="45.35122" lon="5.72245">
        <ele>1601.5</ele>
        <time>2021-12-19T10:50:55Z</time>
      </trkpt>
      <trkpt lat="45.35122" lon="5.72245">
        <ele>1601.5</ele>
        <time>2021-12-19T10:50:56Z</time>
      </trkpt>
      <trkpt lat="45.35122" lon="5.72245">
        <ele>1601.5</ele>
        <time>2021-12-19T10:50:57Z</time>
      </trkpt>
      <trkpt lat="45.35122" lon="5.72245">
        <ele>1601.5</ele>
        <time>2021-12-19T10:50:58Z</time>
      </trkpt>
      <trkpt lat="45.35122" lon="5.72245">
        <ele>1601.5</ele>
        <time>2021-12-19T10:50:59Z</time>
      </trkpt>
      <trkpt lat="45.35122" lon="5.72245">
        <ele>1601.5</ele>
        <time>2021-12-19T10:51:00Z</time>
      </trkpt>
      <trkpt lat="45.35122" lon="5.72245">
        <ele>1601.5</ele>
        <time>2021-12-19T10:51:01Z</time>
      </trkpt>
      <trkpt lat="45.35122" lon="5.72245">
        <ele>1601.5</ele>
        <time>2021-12-19T10:51:02Z</time>
      </trkpt>
      <trkpt lat="45.35122" lon="5.72245">
        <ele>1601.5</ele>
        <time>2021-12-19T10:51:03Z</time>
      </trkpt>
      <trkpt lat="45.35122" lon="5.72245">
        <ele>1601.5</ele>
        <time>2021-12-19T10:51:04Z</time>
      </trkpt>
      <trkpt lat="45.35122" lon="5.72246">
        <ele>1601.5</ele>
        <time>2021-12-19T10:51:05Z</time>
      </trkpt>
      <trkpt lat="45.35122" lon="5.72246">
        <ele>1601.5</ele>
        <time>2021-12-19T10:51:06Z</time>
      </trkpt>
      <trkpt lat="45.35123" lon="5.72246">
        <ele>1601.5</ele>
        <time>2021-12-19T10:51:07Z</time>
      </trkpt>
      <trkpt lat="45.35123" lon="5.72246">
        <ele>1601.5</ele>
        <time>2021-12-19T10:51:08Z</time>
      </trkpt>
      <trkpt lat="45.35123" lon="5.72246">
        <ele>1601.5</ele>
        <time>2021-12-19T10:51:09Z</time>
      </trkpt>
      <trkpt lat="45.35123" lon="5.72246">
        <ele>1601.5</ele>
        <time>2021-12-19T10:51:10Z</time>
      </trkpt>
      <trkpt lat="45.35123" lon="5.72246">
        <ele>1601.5</ele>
        <time>2021-12-19T10:51:11Z</time>
      </trkpt>
      <trkpt lat="45.35123" lon="5.72246">
        <ele>1601.5</ele>
        <time>2021-12-19T10:51:12Z</time>
      </trkpt>
      <trkpt lat="45.35123" lon="5.72246">
        <ele>1601.5</ele>
        <time>2021-12-19T10:51:13Z</time>
      </trkpt>
      <trkpt lat="45.35124" lon="5.72246">
        <ele>1601.5</ele>
        <time>2021-12-19T10:51:14Z</time>
      </trkpt>
      <trkpt lat="45.35124" lon="5.72246">
        <ele>1601.5</ele>
        <time>2021-12-19T10:51:15Z</time>
      </trkpt>
      <trkpt lat="45.35124" lon="5.72247">
        <ele>1601.5</ele>
        <time>2021-12-19T10:51:16Z</time>
      </trkpt>
      <trkpt lat="45.35124" lon="5.72246">
        <ele>1601.5</ele>
        <time>2021-12-19T10:51:17Z</time>
      </trkpt>
      <trkpt lat="45.35124" lon="5.72247">
        <ele>1601.5</ele>
        <time>2021-12-19T10:51:18Z</time>
      </trkpt>
      <trkpt lat="45.35124" lon="5.72247">
        <ele>1601.5</ele>
        <time>2021-12-19T10:51:19Z</time>
      </trkpt>
      <trkpt lat="45.35124" lon="5.72247">
        <ele>1601.5</ele>
        <time>2021-12-19T10:51:20Z</time>
      </trkpt>
      <trkpt lat="45.35124" lon="5.72247">
        <ele>1601.5</ele>
        <time>2021-12-19T10:51:21Z</time>
      </trkpt>
      <trkpt lat="45.35124" lon="5.72247">
        <ele>1601.5</ele>
        <time>2021-12-19T10:51:22Z</time>
      </trkpt>
      <trkpt lat="45.35124" lon="5.72246">
        <ele>1601.5</ele>
        <time>2021-12-19T10:51:23Z</time>
      </trkpt>
      <trkpt lat="45.35124" lon="5.72246">
        <ele>1601.5</ele>
        <time>2021-12-19T10:51:24Z</time>
      </trkpt>
      <trkpt lat="45.35124" lon="5.72246">
        <ele>1601.5</ele>
        <time>2021-12-19T10:51:25Z</time>
      </trkpt>
      <trkpt lat="45.35124" lon="5.72246">
        <ele>1601.5</ele>
        <time>2021-12-19T10:51:26Z</time>
      </trkpt>
      <trkpt lat="45.35124" lon="5.72246">
        <ele>1601.5</ele>
        <time>2021-12-19T10:51:27Z</time>
      </trkpt>
      <trkpt lat="45.35124" lon="5.72246">
        <ele>1601.5</ele>
        <time>2021-12-19T10:51:28Z</time>
      </trkpt>
      <trkpt lat="45.35124" lon="5.72246">
        <ele>1601.5</ele>
        <time>2021-12-19T10:51:29Z</time>
      </trkpt>
      <trkpt lat="45.35124" lon="5.72246">
        <ele>1601.5</ele>
        <time>2021-12-19T10:51:30Z</time>
      </trkpt>
      <trkpt lat="45.35124" lon="5.72246">
        <ele>1601.5</ele>
        <time>2021-12-19T10:51:31Z</time>
      </trkpt>
      <trkpt lat="45.35124" lon="5.72246">
        <ele>1601.5</ele>
        <time>2021-12-19T10:51:32Z</time>
      </trkpt>
      <trkpt lat="45.35124" lon="5.72246">
        <ele>1601.5</ele>
        <time>2021-12-19T10:51:33Z</time>
      </trkpt>
      <trkpt lat="45.35124" lon="5.72246">
        <ele>1601.5</ele>
        <time>2021-12-19T10:51:34Z</time>
      </trkpt>
      <trkpt lat="45.35125" lon="5.72246">
        <ele>1601.5</ele>
        <time>2021-12-19T10:51:35Z</time>
      </trkpt>
      <trkpt lat="45.35125" lon="5.72246">
        <ele>1601.5</ele>
        <time>2021-12-19T10:51:36Z</time>
      </trkpt>
      <trkpt lat="45.35125" lon="5.72247">
        <ele>1601.5</ele>
        <time>2021-12-19T10:51:37Z</time>
      </trkpt>
      <trkpt lat="45.35125" lon="5.72247">
        <ele>1601.5</ele>
        <time>2021-12-19T10:51:38Z</time>
      </trkpt>
      <trkpt lat="45.35125" lon="5.72248">
        <ele>1601.5</ele>
        <time>2021-12-19T10:51:39Z</time>
      </trkpt>
      <trkpt lat="45.35125" lon="5.72248">
        <ele>1601.5</ele>
        <time>2021-12-19T10:51:40Z</time>
      </trkpt>
      <trkpt lat="45.35125" lon="5.72248">
        <ele>1601.5</ele>
        <time>2021-12-19T10:51:41Z</time>
      </trkpt>
      <trkpt lat="45.35125" lon="5.72248">
        <ele>1601.5</ele>
        <time>2021-12-19T10:51:42Z</time>
      </trkpt>
      <trkpt lat="45.35125" lon="5.72247">
        <ele>1601.5</ele>
        <time>2021-12-19T10:51:43Z</time>
      </trkpt>
      <trkpt lat="45.35125" lon="5.72247">
        <ele>1601.5</ele>
        <time>2021-12-19T10:51:44Z</time>
      </trkpt>
      <trkpt lat="45.35125" lon="5.72247">
        <ele>1601.5</ele>
        <time>2021-12-19T10:51:45Z</time>
      </trkpt>
      <trkpt lat="45.35125" lon="5.72247">
        <ele>1601.5</ele>
        <time>2021-12-19T10:51:46Z</time>
      </trkpt>
      <trkpt lat="45.35125" lon="5.72247">
        <ele>1601.5</ele>
        <time>2021-12-19T10:51:47Z</time>
      </trkpt>
      <trkpt lat="45.35125" lon="5.72247">
        <ele>1601.5</ele>
        <time>2021-12-19T10:51:48Z</time>
      </trkpt>
      <trkpt lat="45.35125" lon="5.72247">
        <ele>1601.5</ele>
        <time>2021-12-19T10:51:49Z</time>
      </trkpt>
      <trkpt lat="45.35125" lon="5.72247">
        <ele>1601.5</ele>
        <time>2021-12-19T10:51:50Z</time>
      </trkpt>
      <trkpt lat="45.35125" lon="5.72248">
        <ele>1601.5</ele>
        <time>2021-12-19T10:51:51Z</time>
      </trkpt>
      <trkpt lat="45.35125" lon="5.72248">
        <ele>1601.5</ele>
        <time>2021-12-19T10:51:52Z</time>
      </trkpt>
      <trkpt lat="45.35125" lon="5.72248">
        <ele>1601.5</ele>
        <time>2021-12-19T10:51:53Z</time>
      </trkpt>
      <trkpt lat="45.35124" lon="5.72248">
        <ele>1601.5</ele>
        <time>2021-12-19T10:51:54Z</time>
      </trkpt>
      <trkpt lat="45.35124" lon="5.72248">
        <ele>1601.5</ele>
        <time>2021-12-19T10:51:55Z</time>
      </trkpt>
      <trkpt lat="45.35124" lon="5.72247">
        <ele>1601.5</ele>
        <time>2021-12-19T10:51:56Z</time>
      </trkpt>
      <trkpt lat="45.35124" lon="5.72247">
        <ele>1601.5</ele>
        <time>2021-12-19T10:51:57Z</time>
      </trkpt>
      <trkpt lat="45.35124" lon="5.72247">
        <ele>1601.5</ele>
        <time>2021-12-19T10:51:58Z</time>
      </trkpt>
      <trkpt lat="45.35124" lon="5.72247">
        <ele>1601.5</ele>
        <time>2021-12-19T10:51:59Z</time>
      </trkpt>
      <trkpt lat="45.35123" lon="5.72247">
        <ele>1601.5</ele>
        <time>2021-12-19T10:52:00Z</time>
      </trkpt>
      <trkpt lat="45.35123" lon="5.72248">
        <ele>1601.5</ele>
        <time>2021-12-19T10:52:01Z</time>
      </trkpt>
      <trkpt lat="45.35123" lon="5.72247">
        <ele>1601.5</ele>
        <time>2021-12-19T10:52:02Z</time>
      </trkpt>
      <trkpt lat="45.35123" lon="5.72248">
        <ele>1601.5</ele>
        <time>2021-12-19T10:52:03Z</time>
      </trkpt>
      <trkpt lat="45.35123" lon="5.72248">
        <ele>1601.5</ele>
        <time>2021-12-19T10:52:04Z</time>
      </trkpt>
      <trkpt lat="45.35123" lon="5.72248">
        <ele>1601.5</ele>
        <time>2021-12-19T10:52:05Z</time>
      </trkpt>
      <trkpt lat="45.35123" lon="5.72248">
        <ele>1601.5</ele>
        <time>2021-12-19T10:52:06Z</time>
      </trkpt>
      <trkpt lat="45.35123" lon="5.72248">
        <ele>1601.5</ele>
        <time>2021-12-19T10:52:07Z</time>
      </trkpt>
      <trkpt lat="45.35123" lon="5.72248">
        <ele>1601.5</ele>
        <time>2021-12-19T10:52:08Z</time>
      </trkpt>
      <trkpt lat="45.35123" lon="5.72248">
        <ele>1601.5</ele>
        <time>2021-12-19T10:52:09Z</time>
      </trkpt>
      <trkpt lat="45.35124" lon="5.72248">
        <ele>1601.5</ele>
        <time>2021-12-19T10:52:10Z</time>
      </trkpt>
      <trkpt lat="45.35124" lon="5.72248">
        <ele>1601.5</ele>
        <time>2021-12-19T10:52:11Z</time>
      </trkpt>
      <trkpt lat="45.35123" lon="5.72248">
        <ele>1601.5</ele>
        <time>2021-12-19T10:52:12Z</time>
      </trkpt>
      <trkpt lat="45.35123" lon="5.72248">
        <ele>1601.5</ele>
        <time>2021-12-19T10:52:13Z</time>
      </trkpt>
      <trkpt lat="45.35123" lon="5.72248">
        <ele>1601.5</ele>
        <time>2021-12-19T10:52:14Z</time>
      </trkpt>
      <trkpt lat="45.35123" lon="5.72248">
        <ele>1601.5</ele>
        <time>2021-12-19T10:52:15Z</time>
      </trkpt>
      <trkpt lat="45.35123" lon="5.72248">
        <ele>1601.5</ele>
        <time>2021-12-19T10:52:16Z</time>
      </trkpt>
      <trkpt lat="45.35123" lon="5.72248">
        <ele>1601.5</ele>
        <time>2021-12-19T10:52:17Z</time>
      </trkpt>
      <trkpt lat="45.35123" lon="5.72248">
        <ele>1601.5</ele>
        <time>2021-12-19T10:52:18Z</time>
      </trkpt>
      <trkpt lat="45.35124" lon="5.72248">
        <ele>1601.5</ele>
        <time>2021-12-19T10:52:19Z</time>
      </trkpt>
      <trkpt lat="45.35124" lon="5.72248">
        <ele>1601.5</ele>
        <time>2021-12-19T10:52:20Z</time>
      </trkpt>
      <trkpt lat="45.35124" lon="5.72248">
        <ele>1601.5</ele>
        <time>2021-12-19T10:52:21Z</time>
      </trkpt>
      <trkpt lat="45.35124" lon="5.72248">
        <ele>1601.5</ele>
        <time>2021-12-19T10:52:22Z</time>
      </trkpt>
      <trkpt lat="45.35123" lon="5.72248">
        <ele>1601.5</ele>
        <time>2021-12-19T10:52:23Z</time>
      </trkpt>
      <trkpt lat="45.35123" lon="5.72247">
        <ele>1601.5</ele>
        <time>2021-12-19T10:52:24Z</time>
      </trkpt>
      <trkpt lat="45.35123" lon="5.72247">
        <ele>1601.5</ele>
        <time>2021-12-19T10:52:25Z</time>
      </trkpt>
      <trkpt lat="45.35123" lon="5.72247">
        <ele>1601.5</ele>
        <time>2021-12-19T10:52:26Z</time>
      </trkpt>
      <trkpt lat="45.35123" lon="5.72247">
        <ele>1601.5</ele>
        <time>2021-12-19T10:52:27Z</time>
      </trkpt>
      <trkpt lat="45.35123" lon="5.72247">
        <ele>1601.5</ele>
        <time>2021-12-19T10:52:28Z</time>
      </trkpt>
      <trkpt lat="45.35122" lon="5.72246">
        <ele>1601.5</ele>
        <time>2021-12-19T10:52:29Z</time>
      </trkpt>
      <trkpt lat="45.35122" lon="5.72246">
        <ele>1601.5</ele>
        <time>2021-12-19T10:52:30Z</time>
      </trkpt>
      <trkpt lat="45.35122" lon="5.72246">
        <ele>1601.5</ele>
        <time>2021-12-19T10:52:31Z</time>
      </trkpt>
      <trkpt lat="45.35121" lon="5.72246">
        <ele>1601.5</ele>
        <time>2021-12-19T10:52:32Z</time>
      </trkpt>
      <trkpt lat="45.35121" lon="5.72246">
        <ele>1601.5</ele>
        <time>2021-12-19T10:52:33Z</time>
      </trkpt>
      <trkpt lat="45.35121" lon="5.72246">
        <ele>1601.5</ele>
        <time>2021-12-19T10:52:34Z</time>
      </trkpt>
      <trkpt lat="45.35121" lon="5.72246">
        <ele>1601.5</ele>
        <time>2021-12-19T10:52:35Z</time>
      </trkpt>
      <trkpt lat="45.35121" lon="5.72247">
        <ele>1601.5</ele>
        <time>2021-12-19T10:52:36Z</time>
      </trkpt>
      <trkpt lat="45.35121" lon="5.72246">
        <ele>1601.5</ele>
        <time>2021-12-19T10:52:37Z</time>
      </trkpt>
      <trkpt lat="45.35121" lon="5.72246">
        <ele>1601.5</ele>
        <time>2021-12-19T10:52:38Z</time>
      </trkpt>
      <trkpt lat="45.35121" lon="5.72246">
        <ele>1601.5</ele>
        <time>2021-12-19T10:52:39Z</time>
      </trkpt>
      <trkpt lat="45.35121" lon="5.72246">
        <ele>1601.5</ele>
        <time>2021-12-19T10:52:40Z</time>
      </trkpt>
      <trkpt lat="45.35121" lon="5.72246">
        <ele>1601.5</ele>
        <time>2021-12-19T10:52:41Z</time>
      </trkpt>
      <trkpt lat="45.35121" lon="5.72246">
        <ele>1601.5</ele>
        <time>2021-12-19T10:52:42Z</time>
      </trkpt>
      <trkpt lat="45.35121" lon="5.72246">
        <ele>1601.5</ele>
        <time>2021-12-19T10:52:43Z</time>
      </trkpt>
      <trkpt lat="45.35121" lon="5.72246">
        <ele>1601.5</ele>
        <time>2021-12-19T10:52:44Z</time>
      </trkpt>
      <trkpt lat="45.35121" lon="5.72246">
        <ele>1601.5</ele>
        <time>2021-12-19T10:52:45Z</time>
      </trkpt>
      <trkpt lat="45.35121" lon="5.72246">
        <ele>1601.5</ele>
        <time>2021-12-19T10:52:46Z</time>
      </trkpt>
      <trkpt lat="45.35121" lon="5.72246">
        <ele>1601.5</ele>
        <time>2021-12-19T10:52:47Z</time>
      </trkpt>
      <trkpt lat="45.35121" lon="5.72246">
        <ele>1601.5</ele>
        <time>2021-12-19T10:52:48Z</time>
      </trkpt>
      <trkpt lat="45.3512" lon="5.72246">
        <ele>1601.5</ele>
        <time>2021-12-19T10:52:49Z</time>
      </trkpt>
      <trkpt lat="45.3512" lon="5.72246">
        <ele>1601.5</ele>
        <time>2021-12-19T10:52:50Z</time>
      </trkpt>
      <trkpt lat="45.3512" lon="5.72246">
        <ele>1601.5</ele>
        <time>2021-12-19T10:52:51Z</time>
      </trkpt>
      <trkpt lat="45.3512" lon="5.72246">
        <ele>1601.5</ele>
        <time>2021-12-19T10:52:52Z</time>
      </trkpt>
      <trkpt lat="45.3512" lon="5.72246">
        <ele>1601.5</ele>
        <time>2021-12-19T10:52:53Z</time>
      </trkpt>
      <trkpt lat="45.3512" lon="5.72246">
        <ele>1601.5</ele>
        <time>2021-12-19T10:52:54Z</time>
      </trkpt>
      <trkpt lat="45.3512" lon="5.72246">
        <ele>1601.5</ele>
        <time>2021-12-19T10:52:55Z</time>
      </trkpt>
      <trkpt lat="45.3512" lon="5.72246">
        <ele>1601.5</ele>
        <time>2021-12-19T10:52:56Z</time>
      </trkpt>
      <trkpt lat="45.3512" lon="5.72246">
        <ele>1601.5</ele>
        <time>2021-12-19T10:52:57Z</time>
      </trkpt>
      <trkpt lat="45.3512" lon="5.72246">
        <ele>1601.5</ele>
        <time>2021-12-19T10:52:58Z</time>
      </trkpt>
      <trkpt lat="45.3512" lon="5.72246">
        <ele>1601.5</ele>
        <time>2021-12-19T10:52:59Z</time>
      </trkpt>
      <trkpt lat="45.3512" lon="5.72246">
        <ele>1601.5</ele>
        <time>2021-12-19T10:53:00Z</time>
      </trkpt>
      <trkpt lat="45.3512" lon="5.72246">
        <ele>1601.5</ele>
        <time>2021-12-19T10:53:01Z</time>
      </trkpt>
      <trkpt lat="45.3512" lon="5.72246">
        <ele>1601.5</ele>
        <time>2021-12-19T10:53:02Z</time>
      </trkpt>
      <trkpt lat="45.3512" lon="5.72246">
        <ele>1601.5</ele>
        <time>2021-12-19T10:53:03Z</time>
      </trkpt>
      <trkpt lat="45.3512" lon="5.72246">
        <ele>1601.5</ele>
        <time>2021-12-19T10:53:04Z</time>
      </trkpt>
      <trkpt lat="45.3512" lon="5.72246">
        <ele>1601.5</ele>
        <time>2021-12-19T10:53:05Z</time>
      </trkpt>
      <trkpt lat="45.3512" lon="5.72246">
        <ele>1601.5</ele>
        <time>2021-12-19T10:53:06Z</time>
      </trkpt>
      <trkpt lat="45.3512" lon="5.72246">
        <ele>1601.5</ele>
        <time>2021-12-19T10:53:07Z</time>
      </trkpt>
      <trkpt lat="45.3512" lon="5.72246">
        <ele>1601.5</ele>
        <time>2021-12-19T10:53:08Z</time>
      </trkpt>
      <trkpt lat="45.3512" lon="5.72246">
        <ele>1601.5</ele>
        <time>2021-12-19T10:53:09Z</time>
      </trkpt>
      <trkpt lat="45.3512" lon="5.72246">
        <ele>1601.5</ele>
        <time>2021-12-19T10:53:10Z</time>
      </trkpt>
      <trkpt lat="45.3512" lon="5.72246">
        <ele>1601.5</ele>
        <time>2021-12-19T10:53:11Z</time>
      </trkpt>
      <trkpt lat="45.3512" lon="5.72246">
        <ele>1601.5</ele>
        <time>2021-12-19T10:53:12Z</time>
      </trkpt>
      <trkpt lat="45.3512" lon="5.72246">
        <ele>1601.5</ele>
        <time>2021-12-19T10:53:13Z</time>
      </trkpt>
      <trkpt lat="45.3512" lon="5.72246">
        <ele>1601.5</ele>
        <time>2021-12-19T10:53:14Z</time>
      </trkpt>
      <trkpt lat="45.3512" lon="5.72246">
        <ele>1601.5</ele>
        <time>2021-12-19T10:53:15Z</time>
      </trkpt>
      <trkpt lat="45.3512" lon="5.72246">
        <ele>1601.5</ele>
        <time>2021-12-19T10:53:16Z</time>
      </trkpt>
      <trkpt lat="45.3512" lon="5.72246">
        <ele>1601.5</ele>
        <time>2021-12-19T10:53:17Z</time>
      </trkpt>
      <trkpt lat="45.3512" lon="5.72246">
        <ele>1601.5</ele>
        <time>2021-12-19T10:53:18Z</time>
      </trkpt>
      <trkpt lat="45.3512" lon="5.72246">
        <ele>1601.5</ele>
        <time>2021-12-19T10:53:19Z</time>
      </trkpt>
      <trkpt lat="45.3512" lon="5.72246">
        <ele>1601.5</ele>
        <time>2021-12-19T10:53:20Z</time>
      </trkpt>
      <trkpt lat="45.3512" lon="5.72246">
        <ele>1601.5</ele>
        <time>2021-12-19T10:53:21Z</time>
      </trkpt>
      <trkpt lat="45.3512" lon="5.72246">
        <ele>1601.5</ele>
        <time>2021-12-19T10:53:22Z</time>
      </trkpt>
      <trkpt lat="45.3512" lon="5.72246">
        <ele>1601.5</ele>
        <time>2021-12-19T10:53:23Z</time>
      </trkpt>
      <trkpt lat="45.3512" lon="5.72246">
        <ele>1601.5</ele>
        <time>2021-12-19T10:53:24Z</time>
      </trkpt>
      <trkpt lat="45.3512" lon="5.72246">
        <ele>1601.5</ele>
        <time>2021-12-19T10:53:25Z</time>
      </trkpt>
      <trkpt lat="45.3512" lon="5.72246">
        <ele>1601.5</ele>
        <time>2021-12-19T10:53:26Z</time>
      </trkpt>
      <trkpt lat="45.3512" lon="5.72246">
        <ele>1601.5</ele>
        <time>2021-12-19T10:53:27Z</time>
      </trkpt>
      <trkpt lat="45.3512" lon="5.72246">
        <ele>1601.5</ele>
        <time>2021-12-19T10:53:28Z</time>
      </trkpt>
      <trkpt lat="45.3512" lon="5.72246">
        <ele>1601.5</ele>
        <time>2021-12-19T10:53:29Z</time>
      </trkpt>
      <trkpt lat="45.3512" lon="5.72246">
        <ele>1601.5</ele>
        <time>2021-12-19T10:53:30Z</time>
      </trkpt>
      <trkpt lat="45.3512" lon="5.72246">
        <ele>1601.5</ele>
        <time>2021-12-19T10:53:31Z</time>
      </trkpt>
      <trkpt lat="45.3512" lon="5.72246">
        <ele>1601.5</ele>
        <time>2021-12-19T10:53:32Z</time>
      </trkpt>
      <trkpt lat="45.3512" lon="5.72246">
        <ele>1601.5</ele>
        <time>2021-12-19T10:53:33Z</time>
      </trkpt>
      <trkpt lat="45.3512" lon="5.72246">
        <ele>1601.5</ele>
        <time>2021-12-19T10:53:34Z</time>
      </trkpt>
      <trkpt lat="45.3512" lon="5.72245">
        <ele>1601.6</ele>
        <time>2021-12-19T10:53:35Z</time>
      </trkpt>
      <trkpt lat="45.3512" lon="5.72245">
        <ele>1601.6</ele>
        <time>2021-12-19T10:53:36Z</time>
      </trkpt>
      <trkpt lat="45.3512" lon="5.72245">
        <ele>1601.6</ele>
        <time>2021-12-19T10:53:37Z</time>
      </trkpt>
      <trkpt lat="45.3512" lon="5.72244">
        <ele>1601.6</ele>
        <time>2021-12-19T10:53:38Z</time>
      </trkpt>
      <trkpt lat="45.3512" lon="5.72244">
        <ele>1601.6</ele>
        <time>2021-12-19T10:53:39Z</time>
      </trkpt>
      <trkpt lat="45.35119" lon="5.72243">
        <ele>1601.6</ele>
        <time>2021-12-19T10:53:40Z</time>
      </trkpt>
      <trkpt lat="45.35119" lon="5.72243">
        <ele>1601.6</ele>
        <time>2021-12-19T10:53:41Z</time>
      </trkpt>
      <trkpt lat="45.35119" lon="5.72243">
        <ele>1601.6</ele>
        <time>2021-12-19T10:53:42Z</time>
      </trkpt>
      <trkpt lat="45.35119" lon="5.72243">
        <ele>1601.6</ele>
        <time>2021-12-19T10:53:43Z</time>
      </trkpt>
      <trkpt lat="45.35119" lon="5.72243">
        <ele>1601.6</ele>
        <time>2021-12-19T10:53:44Z</time>
      </trkpt>
      <trkpt lat="45.35119" lon="5.72243">
        <ele>1601.6</ele>
        <time>2021-12-19T10:53:45Z</time>
      </trkpt>
      <trkpt lat="45.35119" lon="5.72243">
        <ele>1601.6</ele>
        <time>2021-12-19T10:53:46Z</time>
      </trkpt>
      <trkpt lat="45.35119" lon="5.72243">
        <ele>1601.6</ele>
        <time>2021-12-19T10:53:47Z</time>
      </trkpt>
      <trkpt lat="45.35119" lon="5.72243">
        <ele>1601.6</ele>
        <time>2021-12-19T10:53:48Z</time>
      </trkpt>
      <trkpt lat="45.35119" lon="5.72243">
        <ele>1601.6</ele>
        <time>2021-12-19T10:53:49Z</time>
      </trkpt>
      <trkpt lat="45.35119" lon="5.72243">
        <ele>1601.6</ele>
        <time>2021-12-19T10:53:50Z</time>
      </trkpt>
      <trkpt lat="45.35119" lon="5.72243">
        <ele>1601.6</ele>
        <time>2021-12-19T10:53:51Z</time>
      </trkpt>
      <trkpt lat="45.35119" lon="5.72243">
        <ele>1601.6</ele>
        <time>2021-12-19T10:53:52Z</time>
      </trkpt>
      <trkpt lat="45.35119" lon="5.72243">
        <ele>1601.6</ele>
        <time>2021-12-19T10:53:53Z</time>
      </trkpt>
      <trkpt lat="45.35119" lon="5.72243">
        <ele>1601.6</ele>
        <time>2021-12-19T10:53:54Z</time>
      </trkpt>
      <trkpt lat="45.35119" lon="5.72243">
        <ele>1601.6</ele>
        <time>2021-12-19T10:53:55Z</time>
      </trkpt>
      <trkpt lat="45.35119" lon="5.72243">
        <ele>1601.6</ele>
        <time>2021-12-19T10:53:56Z</time>
      </trkpt>
      <trkpt lat="45.35119" lon="5.72243">
        <ele>1601.6</ele>
        <time>2021-12-19T10:53:57Z</time>
      </trkpt>
      <trkpt lat="45.3512" lon="5.72243">
        <ele>1601.6</ele>
        <time>2021-12-19T10:53:58Z</time>
      </trkpt>
      <trkpt lat="45.3512" lon="5.72243">
        <ele>1601.6</ele>
        <time>2021-12-19T10:53:59Z</time>
      </trkpt>
      <trkpt lat="45.3512" lon="5.72243">
        <ele>1601.6</ele>
        <time>2021-12-19T10:54:00Z</time>
      </trkpt>
      <trkpt lat="45.3512" lon="5.72243">
        <ele>1601.6</ele>
        <time>2021-12-19T10:54:01Z</time>
      </trkpt>
      <trkpt lat="45.3512" lon="5.72243">
        <ele>1601.6</ele>
        <time>2021-12-19T10:54:02Z</time>
      </trkpt>
      <trkpt lat="45.3512" lon="5.72243">
        <ele>1601.6</ele>
        <time>2021-12-19T10:54:03Z</time>
      </trkpt>
      <trkpt lat="45.3512" lon="5.72243">
        <ele>1601.6</ele>
        <time>2021-12-19T10:54:04Z</time>
      </trkpt>
      <trkpt lat="45.3512" lon="5.72243">
        <ele>1601.6</ele>
        <time>2021-12-19T10:54:05Z</time>
      </trkpt>
      <trkpt lat="45.3512" lon="5.72243">
        <ele>1601.6</ele>
        <time>2021-12-19T10:54:06Z</time>
      </trkpt>
      <trkpt lat="45.3512" lon="5.72243">
        <ele>1601.6</ele>
        <time>2021-12-19T10:54:07Z</time>
      </trkpt>
      <trkpt lat="45.3512" lon="5.72243">
        <ele>1601.6</ele>
        <time>2021-12-19T10:54:08Z</time>
      </trkpt>
      <trkpt lat="45.3512" lon="5.72243">
        <ele>1601.6</ele>
        <time>2021-12-19T10:54:09Z</time>
      </trkpt>
      <trkpt lat="45.3512" lon="5.72243">
        <ele>1601.6</ele>
        <time>2021-12-19T10:54:10Z</time>
      </trkpt>
      <trkpt lat="45.3512" lon="5.72243">
        <ele>1601.6</ele>
        <time>2021-12-19T10:54:11Z</time>
      </trkpt>
      <trkpt lat="45.3512" lon="5.72243">
        <ele>1601.6</ele>
        <time>2021-12-19T10:54:12Z</time>
      </trkpt>
      <trkpt lat="45.3512" lon="5.72243">
        <ele>1601.6</ele>
        <time>2021-12-19T10:54:13Z</time>
      </trkpt>
      <trkpt lat="45.3512" lon="5.72243">
        <ele>1601.6</ele>
        <time>2021-12-19T10:54:14Z</time>
      </trkpt>
      <trkpt lat="45.3512" lon="5.72243">
        <ele>1601.6</ele>
        <time>2021-12-19T10:54:15Z</time>
      </trkpt>
      <trkpt lat="45.3512" lon="5.72243">
        <ele>1601.6</ele>
        <time>2021-12-19T10:54:16Z</time>
      </trkpt>
      <trkpt lat="45.3512" lon="5.72243">
        <ele>1601.6</ele>
        <time>2021-12-19T10:54:17Z</time>
      </trkpt>
      <trkpt lat="45.3512" lon="5.72243">
        <ele>1601.6</ele>
        <time>2021-12-19T10:54:18Z</time>
      </trkpt>
      <trkpt lat="45.3512" lon="5.72243">
        <ele>1601.6</ele>
        <time>2021-12-19T10:54:19Z</time>
      </trkpt>
      <trkpt lat="45.35121" lon="5.72243">
        <ele>1601.6</ele>
        <time>2021-12-19T10:54:20Z</time>
      </trkpt>
      <trkpt lat="45.35121" lon="5.72243">
        <ele>1601.6</ele>
        <time>2021-12-19T10:54:21Z</time>
      </trkpt>
      <trkpt lat="45.35121" lon="5.72243">
        <ele>1601.6</ele>
        <time>2021-12-19T10:54:22Z</time>
      </trkpt>
      <trkpt lat="45.35122" lon="5.72243">
        <ele>1601.6</ele>
        <time>2021-12-19T10:54:23Z</time>
      </trkpt>
      <trkpt lat="45.35122" lon="5.72244">
        <ele>1601.6</ele>
        <time>2021-12-19T10:54:24Z</time>
      </trkpt>
      <trkpt lat="45.35123" lon="5.72244">
        <ele>1601.6</ele>
        <time>2021-12-19T10:54:25Z</time>
      </trkpt>
      <trkpt lat="45.35123" lon="5.72244">
        <ele>1601.6</ele>
        <time>2021-12-19T10:54:26Z</time>
      </trkpt>
      <trkpt lat="45.35123" lon="5.72244">
        <ele>1601.6</ele>
        <time>2021-12-19T10:54:27Z</time>
      </trkpt>
      <trkpt lat="45.35124" lon="5.72244">
        <ele>1601.6</ele>
        <time>2021-12-19T10:54:28Z</time>
      </trkpt>
      <trkpt lat="45.35124" lon="5.72244">
        <ele>1601.6</ele>
        <time>2021-12-19T10:54:29Z</time>
      </trkpt>
      <trkpt lat="45.35124" lon="5.72244">
        <ele>1601.6</ele>
        <time>2021-12-19T10:54:30Z</time>
      </trkpt>
      <trkpt lat="45.35124" lon="5.72244">
        <ele>1601.6</ele>
        <time>2021-12-19T10:54:31Z</time>
      </trkpt>
      <trkpt lat="45.35124" lon="5.72244">
        <ele>1601.6</ele>
        <time>2021-12-19T10:54:32Z</time>
      </trkpt>
      <trkpt lat="45.35124" lon="5.72245">
        <ele>1601.6</ele>
        <time>2021-12-19T10:54:33Z</time>
      </trkpt>
      <trkpt lat="45.35124" lon="5.72245">
        <ele>1601.6</ele>
        <time>2021-12-19T10:54:34Z</time>
      </trkpt>
      <trkpt lat="45.35124" lon="5.72245">
        <ele>1601.6</ele>
        <time>2021-12-19T10:54:35Z</time>
      </trkpt>
      <trkpt lat="45.35124" lon="5.72246">
        <ele>1601.6</ele>
        <time>2021-12-19T10:54:36Z</time>
      </trkpt>
      <trkpt lat="45.35124" lon="5.72245">
        <ele>1601.6</ele>
        <time>2021-12-19T10:54:37Z</time>
      </trkpt>
      <trkpt lat="45.35124" lon="5.72245">
        <ele>1601.6</ele>
        <time>2021-12-19T10:54:38Z</time>
      </trkpt>
      <trkpt lat="45.35124" lon="5.72245">
        <ele>1601.6</ele>
        <time>2021-12-19T10:54:39Z</time>
      </trkpt>
      <trkpt lat="45.35124" lon="5.72246">
        <ele>1601.6</ele>
        <time>2021-12-19T10:54:40Z</time>
      </trkpt>
      <trkpt lat="45.35125" lon="5.72246">
        <ele>1601.6</ele>
        <time>2021-12-19T10:54:41Z</time>
      </trkpt>
      <trkpt lat="45.35125" lon="5.72246">
        <ele>1601.6</ele>
        <time>2021-12-19T10:54:42Z</time>
      </trkpt>
      <trkpt lat="45.35124" lon="5.72246">
        <ele>1601.6</ele>
        <time>2021-12-19T10:54:43Z</time>
      </trkpt>
      <trkpt lat="45.35124" lon="5.72246">
        <ele>1601.6</ele>
        <time>2021-12-19T10:54:44Z</time>
      </trkpt>
      <trkpt lat="45.35124" lon="5.72247">
        <ele>1601.6</ele>
        <time>2021-12-19T10:54:45Z</time>
      </trkpt>
      <trkpt lat="45.35124" lon="5.72247">
        <ele>1601.6</ele>
        <time>2021-12-19T10:54:46Z</time>
      </trkpt>
      <trkpt lat="45.35124" lon="5.72247">
        <ele>1601.6</ele>
        <time>2021-12-19T10:54:47Z</time>
      </trkpt>
      <trkpt lat="45.35124" lon="5.72247">
        <ele>1601.6</ele>
        <time>2021-12-19T10:54:48Z</time>
      </trkpt>
      <trkpt lat="45.35123" lon="5.72247">
        <ele>1601.6</ele>
        <time>2021-12-19T10:54:49Z</time>
      </trkpt>
      <trkpt lat="45.35123" lon="5.72247">
        <ele>1601.6</ele>
        <time>2021-12-19T10:54:50Z</time>
      </trkpt>
      <trkpt lat="45.35123" lon="5.72247">
        <ele>1601.6</ele>
        <time>2021-12-19T10:54:51Z</time>
      </trkpt>
      <trkpt lat="45.35122" lon="5.72247">
        <ele>1601.6</ele>
        <time>2021-12-19T10:54:52Z</time>
      </trkpt>
      <trkpt lat="45.35122" lon="5.72247">
        <ele>1601.6</ele>
        <time>2021-12-19T10:54:53Z</time>
      </trkpt>
      <trkpt lat="45.35122" lon="5.72247">
        <ele>1601.6</ele>
        <time>2021-12-19T10:54:54Z</time>
      </trkpt>
      <trkpt lat="45.35122" lon="5.72248">
        <ele>1601.6</ele>
        <time>2021-12-19T10:54:55Z</time>
      </trkpt>
      <trkpt lat="45.35122" lon="5.72247">
        <ele>1601.6</ele>
        <time>2021-12-19T10:54:56Z</time>
      </trkpt>
      <trkpt lat="45.35122" lon="5.72247">
        <ele>1601.6</ele>
        <time>2021-12-19T10:54:57Z</time>
      </trkpt>
      <trkpt lat="45.35122" lon="5.72247">
        <ele>1601.6</ele>
        <time>2021-12-19T10:54:58Z</time>
      </trkpt>
      <trkpt lat="45.35122" lon="5.72247">
        <ele>1601.6</ele>
        <time>2021-12-19T10:54:59Z</time>
      </trkpt>
      <trkpt lat="45.35122" lon="5.72248">
        <ele>1601.6</ele>
        <time>2021-12-19T10:55:00Z</time>
      </trkpt>
      <trkpt lat="45.35122" lon="5.72248">
        <ele>1601.6</ele>
        <time>2021-12-19T10:55:01Z</time>
      </trkpt>
      <trkpt lat="45.35122" lon="5.72248">
        <ele>1601.6</ele>
        <time>2021-12-19T10:55:02Z</time>
      </trkpt>
      <trkpt lat="45.35122" lon="5.72248">
        <ele>1601.6</ele>
        <time>2021-12-19T10:55:03Z</time>
      </trkpt>
      <trkpt lat="45.35122" lon="5.72248">
        <ele>1601.6</ele>
        <time>2021-12-19T10:55:04Z</time>
      </trkpt>
      <trkpt lat="45.35122" lon="5.72248">
        <ele>1601.6</ele>
        <time>2021-12-19T10:55:05Z</time>
      </trkpt>
      <trkpt lat="45.35122" lon="5.72248">
        <ele>1601.6</ele>
        <time>2021-12-19T10:55:06Z</time>
      </trkpt>
      <trkpt lat="45.35122" lon="5.72248">
        <ele>1601.6</ele>
        <time>2021-12-19T10:55:07Z</time>
      </trkpt>
      <trkpt lat="45.35122" lon="5.72248">
        <ele>1601.6</ele>
        <time>2021-12-19T10:55:08Z</time>
      </trkpt>
      <trkpt lat="45.35122" lon="5.72248">
        <ele>1601.6</ele>
        <time>2021-12-19T10:55:09Z</time>
      </trkpt>
      <trkpt lat="45.35122" lon="5.72248">
        <ele>1601.6</ele>
        <time>2021-12-19T10:55:10Z</time>
      </trkpt>
      <trkpt lat="45.35122" lon="5.72248">
        <ele>1601.6</ele>
        <time>2021-12-19T10:55:11Z</time>
      </trkpt>
      <trkpt lat="45.35122" lon="5.72248">
        <ele>1601.6</ele>
        <time>2021-12-19T10:55:12Z</time>
      </trkpt>
      <trkpt lat="45.35122" lon="5.72247">
        <ele>1601.6</ele>
        <time>2021-12-19T10:55:13Z</time>
      </trkpt>
      <trkpt lat="45.35122" lon="5.72247">
        <ele>1601.6</ele>
        <time>2021-12-19T10:55:14Z</time>
      </trkpt>
      <trkpt lat="45.35122" lon="5.72247">
        <ele>1601.6</ele>
        <time>2021-12-19T10:55:15Z</time>
      </trkpt>
      <trkpt lat="45.35121" lon="5.72247">
        <ele>1601.6</ele>
        <time>2021-12-19T10:55:16Z</time>
      </trkpt>
      <trkpt lat="45.35121" lon="5.72247">
        <ele>1601.6</ele>
        <time>2021-12-19T10:55:17Z</time>
      </trkpt>
      <trkpt lat="45.35121" lon="5.72247">
        <ele>1601.6</ele>
        <time>2021-12-19T10:55:18Z</time>
      </trkpt>
      <trkpt lat="45.35121" lon="5.72248">
        <ele>1601.6</ele>
        <time>2021-12-19T10:55:19Z</time>
      </trkpt>
      <trkpt lat="45.35121" lon="5.72248">
        <ele>1601.6</ele>
        <time>2021-12-19T10:55:20Z</time>
      </trkpt>
      <trkpt lat="45.35121" lon="5.72248">
        <ele>1601.6</ele>
        <time>2021-12-19T10:55:21Z</time>
      </trkpt>
      <trkpt lat="45.35121" lon="5.72248">
        <ele>1601.6</ele>
        <time>2021-12-19T10:55:22Z</time>
      </trkpt>
      <trkpt lat="45.35121" lon="5.72248">
        <ele>1601.6</ele>
        <time>2021-12-19T10:55:23Z</time>
      </trkpt>
      <trkpt lat="45.35122" lon="5.72247">
        <ele>1601.6</ele>
        <time>2021-12-19T10:55:24Z</time>
      </trkpt>
      <trkpt lat="45.35122" lon="5.72247">
        <ele>1601.6</ele>
        <time>2021-12-19T10:55:25Z</time>
      </trkpt>
      <trkpt lat="45.35122" lon="5.72247">
        <ele>1601.6</ele>
        <time>2021-12-19T10:55:26Z</time>
      </trkpt>
      <trkpt lat="45.35122" lon="5.72247">
        <ele>1601.6</ele>
        <time>2021-12-19T10:55:27Z</time>
      </trkpt>
      <trkpt lat="45.35122" lon="5.72247">
        <ele>1601.6</ele>
        <time>2021-12-19T10:55:28Z</time>
      </trkpt>
      <trkpt lat="45.35122" lon="5.72247">
        <ele>1601.6</ele>
        <time>2021-12-19T10:55:29Z</time>
      </trkpt>
      <trkpt lat="45.35123" lon="5.72247">
        <ele>1601.6</ele>
        <time>2021-12-19T10:55:30Z</time>
      </trkpt>
      <trkpt lat="45.35123" lon="5.72247">
        <ele>1601.6</ele>
        <time>2021-12-19T10:55:31Z</time>
      </trkpt>
      <trkpt lat="45.35123" lon="5.72247">
        <ele>1601.6</ele>
        <time>2021-12-19T10:55:32Z</time>
      </trkpt>
      <trkpt lat="45.35123" lon="5.72247">
        <ele>1601.6</ele>
        <time>2021-12-19T10:55:33Z</time>
      </trkpt>
      <trkpt lat="45.35122" lon="5.72247">
        <ele>1601.6</ele>
        <time>2021-12-19T10:55:34Z</time>
      </trkpt>
      <trkpt lat="45.35122" lon="5.72247">
        <ele>1601.6</ele>
        <time>2021-12-19T10:55:35Z</time>
      </trkpt>
      <trkpt lat="45.35122" lon="5.72247">
        <ele>1601.6</ele>
        <time>2021-12-19T10:55:36Z</time>
      </trkpt>
      <trkpt lat="45.35121" lon="5.72247">
        <ele>1601.6</ele>
        <time>2021-12-19T10:55:37Z</time>
      </trkpt>
      <trkpt lat="45.35121" lon="5.72247">
        <ele>1601.6</ele>
        <time>2021-12-19T10:55:38Z</time>
      </trkpt>
      <trkpt lat="45.35121" lon="5.72247">
        <ele>1601.6</ele>
        <time>2021-12-19T10:55:39Z</time>
      </trkpt>
      <trkpt lat="45.35121" lon="5.72247">
        <ele>1601.6</ele>
        <time>2021-12-19T10:55:40Z</time>
      </trkpt>
      <trkpt lat="45.35121" lon="5.72248">
        <ele>1601.6</ele>
        <time>2021-12-19T10:55:41Z</time>
      </trkpt>
      <trkpt lat="45.35121" lon="5.72248">
        <ele>1601.6</ele>
        <time>2021-12-19T10:55:42Z</time>
      </trkpt>
      <trkpt lat="45.35121" lon="5.72248">
        <ele>1601.6</ele>
        <time>2021-12-19T10:55:43Z</time>
      </trkpt>
      <trkpt lat="45.35121" lon="5.72248">
        <ele>1601.6</ele>
        <time>2021-12-19T10:55:44Z</time>
      </trkpt>
      <trkpt lat="45.3512" lon="5.72247">
        <ele>1601.6</ele>
        <time>2021-12-19T10:55:45Z</time>
      </trkpt>
      <trkpt lat="45.3512" lon="5.72246">
        <ele>1601.6</ele>
        <time>2021-12-19T10:55:46Z</time>
      </trkpt>
      <trkpt lat="45.3512" lon="5.72246">
        <ele>1601.6</ele>
        <time>2021-12-19T10:55:47Z</time>
      </trkpt>
      <trkpt lat="45.35119" lon="5.72246">
        <ele>1601.6</ele>
        <time>2021-12-19T10:55:48Z</time>
      </trkpt>
      <trkpt lat="45.35119" lon="5.72246">
        <ele>1601.6</ele>
        <time>2021-12-19T10:55:49Z</time>
      </trkpt>
      <trkpt lat="45.35119" lon="5.72245">
        <ele>1601.5</ele>
        <time>2021-12-19T10:55:50Z</time>
      </trkpt>
      <trkpt lat="45.35119" lon="5.72245">
        <ele>1601.5</ele>
        <time>2021-12-19T10:55:51Z</time>
      </trkpt>
      <trkpt lat="45.35119" lon="5.72245">
        <ele>1601.5</ele>
        <time>2021-12-19T10:55:52Z</time>
      </trkpt>
      <trkpt lat="45.35119" lon="5.72245">
        <ele>1601.5</ele>
        <time>2021-12-19T10:55:53Z</time>
      </trkpt>
      <trkpt lat="45.35119" lon="5.72245">
        <ele>1601.5</ele>
        <time>2021-12-19T10:55:54Z</time>
      </trkpt>
      <trkpt lat="45.35119" lon="5.72245">
        <ele>1601.5</ele>
        <time>2021-12-19T10:55:55Z</time>
      </trkpt>
      <trkpt lat="45.35119" lon="5.72245">
        <ele>1601.5</ele>
        <time>2021-12-19T10:55:56Z</time>
      </trkpt>
      <trkpt lat="45.35119" lon="5.72245">
        <ele>1601.5</ele>
        <time>2021-12-19T10:55:57Z</time>
      </trkpt>
      <trkpt lat="45.35119" lon="5.72245">
        <ele>1601.5</ele>
        <time>2021-12-19T10:55:58Z</time>
      </trkpt>
      <trkpt lat="45.35119" lon="5.72245">
        <ele>1601.5</ele>
        <time>2021-12-19T10:55:59Z</time>
      </trkpt>
      <trkpt lat="45.35119" lon="5.72245">
        <ele>1601.5</ele>
        <time>2021-12-19T10:56:00Z</time>
      </trkpt>
      <trkpt lat="45.35119" lon="5.72245">
        <ele>1601.5</ele>
        <time>2021-12-19T10:56:01Z</time>
      </trkpt>
      <trkpt lat="45.35119" lon="5.72245">
        <ele>1601.5</ele>
        <time>2021-12-19T10:56:02Z</time>
      </trkpt>
      <trkpt lat="45.35119" lon="5.72245">
        <ele>1601.5</ele>
        <time>2021-12-19T10:56:03Z</time>
      </trkpt>
      <trkpt lat="45.35119" lon="5.72245">
        <ele>1601.5</ele>
        <time>2021-12-19T10:56:04Z</time>
      </trkpt>
      <trkpt lat="45.35119" lon="5.72245">
        <ele>1601.5</ele>
        <time>2021-12-19T10:56:05Z</time>
      </trkpt>
      <trkpt lat="45.35119" lon="5.72245">
        <ele>1601.5</ele>
        <time>2021-12-19T10:56:06Z</time>
      </trkpt>
      <trkpt lat="45.35119" lon="5.72246">
        <ele>1601.5</ele>
        <time>2021-12-19T10:56:07Z</time>
      </trkpt>
      <trkpt lat="45.35119" lon="5.72246">
        <ele>1601.5</ele>
        <time>2021-12-19T10:56:08Z</time>
      </trkpt>
      <trkpt lat="45.35119" lon="5.72245">
        <ele>1601.5</ele>
        <time>2021-12-19T10:56:09Z</time>
      </trkpt>
      <trkpt lat="45.35119" lon="5.72245">
        <ele>1601.5</ele>
        <time>2021-12-19T10:56:10Z</time>
      </trkpt>
      <trkpt lat="45.35119" lon="5.72245">
        <ele>1601.5</ele>
        <time>2021-12-19T10:56:11Z</time>
      </trkpt>
      <trkpt lat="45.35119" lon="5.72245">
        <ele>1601.5</ele>
        <time>2021-12-19T10:56:12Z</time>
      </trkpt>
      <trkpt lat="45.35119" lon="5.72245">
        <ele>1601.5</ele>
        <time>2021-12-19T10:56:13Z</time>
      </trkpt>
      <trkpt lat="45.35119" lon="5.72245">
        <ele>1601.5</ele>
        <time>2021-12-19T10:56:14Z</time>
      </trkpt>
      <trkpt lat="45.35119" lon="5.72245">
        <ele>1601.5</ele>
        <time>2021-12-19T10:56:15Z</time>
      </trkpt>
      <trkpt lat="45.3512" lon="5.72245">
        <ele>1601.5</ele>
        <time>2021-12-19T10:56:16Z</time>
      </trkpt>
      <trkpt lat="45.3512" lon="5.72245">
        <ele>1601.5</ele>
        <time>2021-12-19T10:56:17Z</time>
      </trkpt>
      <trkpt lat="45.3512" lon="5.72245">
        <ele>1601.5</ele>
        <time>2021-12-19T10:56:18Z</time>
      </trkpt>
      <trkpt lat="45.3512" lon="5.72245">
        <ele>1601.5</ele>
        <time>2021-12-19T10:56:19Z</time>
      </trkpt>
      <trkpt lat="45.3512" lon="5.72245">
        <ele>1601.5</ele>
        <time>2021-12-19T10:56:20Z</time>
      </trkpt>
      <trkpt lat="45.3512" lon="5.72245">
        <ele>1601.5</ele>
        <time>2021-12-19T10:56:21Z</time>
      </trkpt>
      <trkpt lat="45.3512" lon="5.72245">
        <ele>1601.5</ele>
        <time>2021-12-19T10:56:22Z</time>
      </trkpt>
      <trkpt lat="45.3512" lon="5.72245">
        <ele>1601.5</ele>
        <time>2021-12-19T10:56:23Z</time>
      </trkpt>
      <trkpt lat="45.3512" lon="5.72245">
        <ele>1601.5</ele>
        <time>2021-12-19T10:56:24Z</time>
      </trkpt>
      <trkpt lat="45.3512" lon="5.72245">
        <ele>1601.5</ele>
        <time>2021-12-19T10:56:25Z</time>
      </trkpt>
      <trkpt lat="45.3512" lon="5.72244">
        <ele>1601.5</ele>
        <time>2021-12-19T10:56:26Z</time>
      </trkpt>
      <trkpt lat="45.3512" lon="5.72244">
        <ele>1601.5</ele>
        <time>2021-12-19T10:56:27Z</time>
      </trkpt>
      <trkpt lat="45.3512" lon="5.72244">
        <ele>1601.5</ele>
        <time>2021-12-19T10:56:28Z</time>
      </trkpt>
      <trkpt lat="45.3512" lon="5.72244">
        <ele>1601.5</ele>
        <time>2021-12-19T10:56:29Z</time>
      </trkpt>
      <trkpt lat="45.35121" lon="5.72244">
        <ele>1601.5</ele>
        <time>2021-12-19T10:56:30Z</time>
      </trkpt>
      <trkpt lat="45.35121" lon="5.72243">
        <ele>1601.5</ele>
        <time>2021-12-19T10:56:31Z</time>
      </trkpt>
      <trkpt lat="45.35122" lon="5.72243">
        <ele>1601.5</ele>
        <time>2021-12-19T10:56:32Z</time>
      </trkpt>
      <trkpt lat="45.35122" lon="5.72242">
        <ele>1601.5</ele>
        <time>2021-12-19T10:56:33Z</time>
      </trkpt>
      <trkpt lat="45.35122" lon="5.72242">
        <ele>1601.5</ele>
        <time>2021-12-19T10:56:34Z</time>
      </trkpt>
      <trkpt lat="45.35123" lon="5.7224">
        <ele>1601.5</ele>
        <time>2021-12-19T10:56:35Z</time>
      </trkpt>
      <trkpt lat="45.35123" lon="5.7224">
        <ele>1601.5</ele>
        <time>2021-12-19T10:56:36Z</time>
      </trkpt>
      <trkpt lat="45.35124" lon="5.72239">
        <ele>1601.5</ele>
        <time>2021-12-19T10:56:37Z</time>
      </trkpt>
      <trkpt lat="45.35124" lon="5.72238">
        <ele>1601.5</ele>
        <time>2021-12-19T10:56:38Z</time>
      </trkpt>
      <trkpt lat="45.35124" lon="5.72238">
        <ele>1601.5</ele>
        <time>2021-12-19T10:56:39Z</time>
      </trkpt>
      <trkpt lat="45.35124" lon="5.72237">
        <ele>1601.5</ele>
        <time>2021-12-19T10:56:40Z</time>
      </trkpt>
      <trkpt lat="45.35124" lon="5.72237">
        <ele>1601.5</ele>
        <time>2021-12-19T10:56:41Z</time>
      </trkpt>
      <trkpt lat="45.35124" lon="5.72237">
        <ele>1601.5</ele>
        <time>2021-12-19T10:56:42Z</time>
      </trkpt>
      <trkpt lat="45.35124" lon="5.72237">
        <ele>1601.5</ele>
        <time>2021-12-19T10:56:43Z</time>
      </trkpt>
      <trkpt lat="45.35124" lon="5.72237">
        <ele>1601.5</ele>
        <time>2021-12-19T10:56:44Z</time>
      </trkpt>
      <trkpt lat="45.35124" lon="5.72237">
        <ele>1601.5</ele>
        <time>2021-12-19T10:56:45Z</time>
      </trkpt>
      <trkpt lat="45.35124" lon="5.72237">
        <ele>1601.5</ele>
        <time>2021-12-19T10:56:46Z</time>
      </trkpt>
      <trkpt lat="45.35124" lon="5.72236">
        <ele>1601.5</ele>
        <time>2021-12-19T10:56:47Z</time>
      </trkpt>
      <trkpt lat="45.35124" lon="5.72236">
        <ele>1601.5</ele>
        <time>2021-12-19T10:56:48Z</time>
      </trkpt>
      <trkpt lat="45.35124" lon="5.72236">
        <ele>1601.5</ele>
        <time>2021-12-19T10:56:49Z</time>
      </trkpt>
      <trkpt lat="45.35123" lon="5.72236">
        <ele>1601.5</ele>
        <time>2021-12-19T10:56:50Z</time>
      </trkpt>
      <trkpt lat="45.35123" lon="5.72235">
        <ele>1601.5</ele>
        <time>2021-12-19T10:56:51Z</time>
      </trkpt>
      <trkpt lat="45.35123" lon="5.72235">
        <ele>1601.5</ele>
        <time>2021-12-19T10:56:52Z</time>
      </trkpt>
      <trkpt lat="45.35123" lon="5.72235">
        <ele>1601.5</ele>
        <time>2021-12-19T10:56:53Z</time>
      </trkpt>
      <trkpt lat="45.35123" lon="5.72235">
        <ele>1601.5</ele>
        <time>2021-12-19T10:56:54Z</time>
      </trkpt>
      <trkpt lat="45.35124" lon="5.72235">
        <ele>1601.5</ele>
        <time>2021-12-19T10:56:55Z</time>
      </trkpt>
      <trkpt lat="45.35124" lon="5.72235">
        <ele>1601.5</ele>
        <time>2021-12-19T10:56:56Z</time>
      </trkpt>
      <trkpt lat="45.35124" lon="5.72235">
        <ele>1601.5</ele>
        <time>2021-12-19T10:56:57Z</time>
      </trkpt>
      <trkpt lat="45.35124" lon="5.72235">
        <ele>1601.5</ele>
        <time>2021-12-19T10:56:58Z</time>
      </trkpt>
      <trkpt lat="45.35124" lon="5.72235">
        <ele>1601.5</ele>
        <time>2021-12-19T10:56:59Z</time>
      </trkpt>
      <trkpt lat="45.35123" lon="5.72235">
        <ele>1601.5</ele>
        <time>2021-12-19T10:57:00Z</time>
      </trkpt>
      <trkpt lat="45.35123" lon="5.72235">
        <ele>1601.5</ele>
        <time>2021-12-19T10:57:01Z</time>
      </trkpt>
      <trkpt lat="45.35124" lon="5.72235">
        <ele>1601.5</ele>
        <time>2021-12-19T10:57:02Z</time>
      </trkpt>
      <trkpt lat="45.35124" lon="5.72235">
        <ele>1601.5</ele>
        <time>2021-12-19T10:57:03Z</time>
      </trkpt>
      <trkpt lat="45.35124" lon="5.72235">
        <ele>1601.5</ele>
        <time>2021-12-19T10:57:04Z</time>
      </trkpt>
      <trkpt lat="45.35125" lon="5.72235">
        <ele>1601.5</ele>
        <time>2021-12-19T10:57:05Z</time>
      </trkpt>
      <trkpt lat="45.35125" lon="5.72236">
        <ele>1601.5</ele>
        <time>2021-12-19T10:57:06Z</time>
      </trkpt>
      <trkpt lat="45.35126" lon="5.72236">
        <ele>1601.5</ele>
        <time>2021-12-19T10:57:07Z</time>
      </trkpt>
      <trkpt lat="45.35127" lon="5.72237">
        <ele>1601.5</ele>
        <time>2021-12-19T10:57:08Z</time>
      </trkpt>
      <trkpt lat="45.35128" lon="5.72237">
        <ele>1601.5</ele>
        <time>2021-12-19T10:57:09Z</time>
      </trkpt>
      <trkpt lat="45.35129" lon="5.72237">
        <ele>1601.5</ele>
        <time>2021-12-19T10:57:10Z</time>
      </trkpt>
      <trkpt lat="45.35129" lon="5.72237">
        <ele>1601.5</ele>
        <time>2021-12-19T10:57:11Z</time>
      </trkpt>
      <trkpt lat="45.3513" lon="5.72237">
        <ele>1601.5</ele>
        <time>2021-12-19T10:57:12Z</time>
      </trkpt>
      <trkpt lat="45.35131" lon="5.72238">
        <ele>1601.5</ele>
        <time>2021-12-19T10:57:13Z</time>
      </trkpt>
      <trkpt lat="45.35132" lon="5.72238">
        <ele>1601.5</ele>
        <time>2021-12-19T10:57:14Z</time>
      </trkpt>
      <trkpt lat="45.35132" lon="5.72239">
        <ele>1601.5</ele>
        <time>2021-12-19T10:57:15Z</time>
      </trkpt>
      <trkpt lat="45.35132" lon="5.72239">
        <ele>1601.5</ele>
        <time>2021-12-19T10:57:16Z</time>
      </trkpt>
      <trkpt lat="45.35132" lon="5.72239">
        <ele>1601.5</ele>
        <time>2021-12-19T10:57:17Z</time>
      </trkpt>
      <trkpt lat="45.35132" lon="5.7224">
        <ele>1601.5</ele>
        <time>2021-12-19T10:57:18Z</time>
      </trkpt>
      <trkpt lat="45.35132" lon="5.7224">
        <ele>1601.5</ele>
        <time>2021-12-19T10:57:19Z</time>
      </trkpt>
      <trkpt lat="45.35131" lon="5.72241">
        <ele>1601.5</ele>
        <time>2021-12-19T10:57:20Z</time>
      </trkpt>
      <trkpt lat="45.35131" lon="5.72241">
        <ele>1601.5</ele>
        <time>2021-12-19T10:57:21Z</time>
      </trkpt>
      <trkpt lat="45.3513" lon="5.72242">
        <ele>1601.5</ele>
        <time>2021-12-19T10:57:22Z</time>
      </trkpt>
      <trkpt lat="45.3513" lon="5.72242">
        <ele>1601.5</ele>
        <time>2021-12-19T10:57:23Z</time>
      </trkpt>
      <trkpt lat="45.3513" lon="5.72242">
        <ele>1601.5</ele>
        <time>2021-12-19T10:57:24Z</time>
      </trkpt>
      <trkpt lat="45.3513" lon="5.72243">
        <ele>1601.5</ele>
        <time>2021-12-19T10:57:25Z</time>
      </trkpt>
      <trkpt lat="45.3513" lon="5.72243">
        <ele>1601.5</ele>
        <time>2021-12-19T10:57:26Z</time>
      </trkpt>
      <trkpt lat="45.3513" lon="5.72244">
        <ele>1601.5</ele>
        <time>2021-12-19T10:57:27Z</time>
      </trkpt>
      <trkpt lat="45.35129" lon="5.72245">
        <ele>1601.5</ele>
        <time>2021-12-19T10:57:28Z</time>
      </trkpt>
      <trkpt lat="45.35129" lon="5.72245">
        <ele>1601.5</ele>
        <time>2021-12-19T10:57:29Z</time>
      </trkpt>
      <trkpt lat="45.35129" lon="5.72245">
        <ele>1601.5</ele>
        <time>2021-12-19T10:57:30Z</time>
      </trkpt>
      <trkpt lat="45.35129" lon="5.72245">
        <ele>1601.5</ele>
        <time>2021-12-19T10:57:31Z</time>
      </trkpt>
      <trkpt lat="45.35129" lon="5.72245">
        <ele>1601.5</ele>
        <time>2021-12-19T10:57:32Z</time>
      </trkpt>
      <trkpt lat="45.35128" lon="5.72245">
        <ele>1601.5</ele>
        <time>2021-12-19T10:57:33Z</time>
      </trkpt>
      <trkpt lat="45.35128" lon="5.72246">
        <ele>1601.5</ele>
        <time>2021-12-19T10:57:34Z</time>
      </trkpt>
      <trkpt lat="45.35128" lon="5.72246">
        <ele>1601.5</ele>
        <time>2021-12-19T10:57:35Z</time>
      </trkpt>
      <trkpt lat="45.35127" lon="5.72246">
        <ele>1601.5</ele>
        <time>2021-12-19T10:57:36Z</time>
      </trkpt>
      <trkpt lat="45.35127" lon="5.72247">
        <ele>1601.5</ele>
        <time>2021-12-19T10:57:37Z</time>
      </trkpt>
      <trkpt lat="45.35127" lon="5.72247">
        <ele>1601.5</ele>
        <time>2021-12-19T10:57:38Z</time>
      </trkpt>
      <trkpt lat="45.35126" lon="5.72248">
        <ele>1601.5</ele>
        <time>2021-12-19T10:57:39Z</time>
      </trkpt>
      <trkpt lat="45.35126" lon="5.72249">
        <ele>1601.5</ele>
        <time>2021-12-19T10:57:40Z</time>
      </trkpt>
      <trkpt lat="45.35126" lon="5.72249">
        <ele>1601.5</ele>
        <time>2021-12-19T10:57:41Z</time>
      </trkpt>
      <trkpt lat="45.35125" lon="5.72249">
        <ele>1601.5</ele>
        <time>2021-12-19T10:57:42Z</time>
      </trkpt>
      <trkpt lat="45.35125" lon="5.7225">
        <ele>1601.5</ele>
        <time>2021-12-19T10:57:43Z</time>
      </trkpt>
      <trkpt lat="45.35125" lon="5.7225">
        <ele>1601.5</ele>
        <time>2021-12-19T10:57:44Z</time>
      </trkpt>
      <trkpt lat="45.35125" lon="5.72251">
        <ele>1601.5</ele>
        <time>2021-12-19T10:57:45Z</time>
      </trkpt>
      <trkpt lat="45.35125" lon="5.72251">
        <ele>1601.5</ele>
        <time>2021-12-19T10:57:46Z</time>
      </trkpt>
      <trkpt lat="45.35125" lon="5.72251">
        <ele>1601.5</ele>
        <time>2021-12-19T10:57:47Z</time>
      </trkpt>
      <trkpt lat="45.35124" lon="5.72251">
        <ele>1601.5</ele>
        <time>2021-12-19T10:57:48Z</time>
      </trkpt>
      <trkpt lat="45.35124" lon="5.72251">
        <ele>1601.5</ele>
        <time>2021-12-19T10:57:49Z</time>
      </trkpt>
      <trkpt lat="45.35124" lon="5.72251">
        <ele>1601.5</ele>
        <time>2021-12-19T10:57:50Z</time>
      </trkpt>
      <trkpt lat="45.35124" lon="5.72251">
        <ele>1601.5</ele>
        <time>2021-12-19T10:57:51Z</time>
      </trkpt>
      <trkpt lat="45.35124" lon="5.72251">
        <ele>1601.5</ele>
        <time>2021-12-19T10:57:52Z</time>
      </trkpt>
      <trkpt lat="45.35124" lon="5.72251">
        <ele>1601.5</ele>
        <time>2021-12-19T10:57:53Z</time>
      </trkpt>
      <trkpt lat="45.35124" lon="5.72251">
        <ele>1601.5</ele>
        <time>2021-12-19T10:57:54Z</time>
      </trkpt>
      <trkpt lat="45.35124" lon="5.72251">
        <ele>1601.5</ele>
        <time>2021-12-19T10:57:55Z</time>
      </trkpt>
      <trkpt lat="45.35124" lon="5.72251">
        <ele>1601.5</ele>
        <time>2021-12-19T10:57:56Z</time>
      </trkpt>
      <trkpt lat="45.35124" lon="5.72251">
        <ele>1601.5</ele>
        <time>2021-12-19T10:57:57Z</time>
      </trkpt>
      <trkpt lat="45.35124" lon="5.72251">
        <ele>1601.5</ele>
        <time>2021-12-19T10:57:58Z</time>
      </trkpt>
      <trkpt lat="45.35124" lon="5.72251">
        <ele>1601.5</ele>
        <time>2021-12-19T10:57:59Z</time>
      </trkpt>
      <trkpt lat="45.35124" lon="5.72251">
        <ele>1601.5</ele>
        <time>2021-12-19T10:58:00Z</time>
      </trkpt>
      <trkpt lat="45.35124" lon="5.72251">
        <ele>1601.5</ele>
        <time>2021-12-19T10:58:01Z</time>
      </trkpt>
      <trkpt lat="45.35124" lon="5.72251">
        <ele>1601.5</ele>
        <time>2021-12-19T10:58:02Z</time>
      </trkpt>
      <trkpt lat="45.35124" lon="5.72251">
        <ele>1601.5</ele>
        <time>2021-12-19T10:58:03Z</time>
      </trkpt>
      <trkpt lat="45.35124" lon="5.72251">
        <ele>1601.5</ele>
        <time>2021-12-19T10:58:04Z</time>
      </trkpt>
      <trkpt lat="45.35124" lon="5.72251">
        <ele>1601.5</ele>
        <time>2021-12-19T10:58:05Z</time>
      </trkpt>
      <trkpt lat="45.35124" lon="5.72251">
        <ele>1601.5</ele>
        <time>2021-12-19T10:58:06Z</time>
      </trkpt>
      <trkpt lat="45.35124" lon="5.72251">
        <ele>1601.5</ele>
        <time>2021-12-19T10:58:07Z</time>
      </trkpt>
      <trkpt lat="45.35124" lon="5.72251">
        <ele>1601.5</ele>
        <time>2021-12-19T10:58:08Z</time>
      </trkpt>
      <trkpt lat="45.35124" lon="5.72251">
        <ele>1601.5</ele>
        <time>2021-12-19T10:58:09Z</time>
      </trkpt>
      <trkpt lat="45.35124" lon="5.72251">
        <ele>1601.5</ele>
        <time>2021-12-19T10:58:10Z</time>
      </trkpt>
      <trkpt lat="45.35124" lon="5.72251">
        <ele>1601.5</ele>
        <time>2021-12-19T10:58:11Z</time>
      </trkpt>
      <trkpt lat="45.35125" lon="5.72251">
        <ele>1601.5</ele>
        <time>2021-12-19T10:58:12Z</time>
      </trkpt>
      <trkpt lat="45.35124" lon="5.72251">
        <ele>1601.5</ele>
        <time>2021-12-19T10:58:13Z</time>
      </trkpt>
      <trkpt lat="45.35125" lon="5.72251">
        <ele>1601.5</ele>
        <time>2021-12-19T10:58:14Z</time>
      </trkpt>
      <trkpt lat="45.35125" lon="5.72251">
        <ele>1601.5</ele>
        <time>2021-12-19T10:58:15Z</time>
      </trkpt>
      <trkpt lat="45.35125" lon="5.72251">
        <ele>1601.5</ele>
        <time>2021-12-19T10:58:16Z</time>
      </trkpt>
      <trkpt lat="45.35125" lon="5.72251">
        <ele>1601.5</ele>
        <time>2021-12-19T10:58:17Z</time>
      </trkpt>
      <trkpt lat="45.35125" lon="5.72251">
        <ele>1601.5</ele>
        <time>2021-12-19T10:58:18Z</time>
      </trkpt>
      <trkpt lat="45.35125" lon="5.72251">
        <ele>1601.5</ele>
        <time>2021-12-19T10:58:19Z</time>
      </trkpt>
      <trkpt lat="45.35125" lon="5.72251">
        <ele>1601.5</ele>
        <time>2021-12-19T10:58:20Z</time>
      </trkpt>
      <trkpt lat="45.35125" lon="5.72251">
        <ele>1601.5</ele>
        <time>2021-12-19T10:58:21Z</time>
      </trkpt>
      <trkpt lat="45.35124" lon="5.72251">
        <ele>1601.5</ele>
        <time>2021-12-19T10:58:22Z</time>
      </trkpt>
      <trkpt lat="45.35124" lon="5.7225">
        <ele>1601.5</ele>
        <time>2021-12-19T10:58:23Z</time>
      </trkpt>
      <trkpt lat="45.35124" lon="5.7225">
        <ele>1601.5</ele>
        <time>2021-12-19T10:58:24Z</time>
      </trkpt>
      <trkpt lat="45.35124" lon="5.7225">
        <ele>1601.5</ele>
        <time>2021-12-19T10:58:25Z</time>
      </trkpt>
      <trkpt lat="45.35124" lon="5.7225">
        <ele>1601.5</ele>
        <time>2021-12-19T10:58:26Z</time>
      </trkpt>
      <trkpt lat="45.35124" lon="5.7225">
        <ele>1601.5</ele>
        <time>2021-12-19T10:58:27Z</time>
      </trkpt>
      <trkpt lat="45.35124" lon="5.7225">
        <ele>1601.5</ele>
        <time>2021-12-19T10:58:28Z</time>
      </trkpt>
      <trkpt lat="45.35124" lon="5.7225">
        <ele>1601.5</ele>
        <time>2021-12-19T10:58:29Z</time>
      </trkpt>
      <trkpt lat="45.35124" lon="5.7225">
        <ele>1601.5</ele>
        <time>2021-12-19T10:58:30Z</time>
      </trkpt>
      <trkpt lat="45.35124" lon="5.7225">
        <ele>1601.5</ele>
        <time>2021-12-19T10:58:31Z</time>
      </trkpt>
      <trkpt lat="45.35124" lon="5.7225">
        <ele>1601.5</ele>
        <time>2021-12-19T10:58:32Z</time>
      </trkpt>
      <trkpt lat="45.35124" lon="5.7225">
        <ele>1601.5</ele>
        <time>2021-12-19T10:58:33Z</time>
      </trkpt>
      <trkpt lat="45.35123" lon="5.7225">
        <ele>1601.5</ele>
        <time>2021-12-19T10:58:34Z</time>
      </trkpt>
      <trkpt lat="45.35123" lon="5.7225">
        <ele>1601.5</ele>
        <time>2021-12-19T10:58:35Z</time>
      </trkpt>
      <trkpt lat="45.35123" lon="5.7225">
        <ele>1601.5</ele>
        <time>2021-12-19T10:58:36Z</time>
      </trkpt>
      <trkpt lat="45.35123" lon="5.7225">
        <ele>1601.5</ele>
        <time>2021-12-19T10:58:37Z</time>
      </trkpt>
      <trkpt lat="45.35123" lon="5.7225">
        <ele>1601.5</ele>
        <time>2021-12-19T10:58:38Z</time>
      </trkpt>
      <trkpt lat="45.35123" lon="5.7225">
        <ele>1601.5</ele>
        <time>2021-12-19T10:58:39Z</time>
      </trkpt>
      <trkpt lat="45.35123" lon="5.72251">
        <ele>1601.5</ele>
        <time>2021-12-19T10:58:40Z</time>
      </trkpt>
      <trkpt lat="45.35122" lon="5.7225">
        <ele>1601.5</ele>
        <time>2021-12-19T10:58:41Z</time>
      </trkpt>
      <trkpt lat="45.35122" lon="5.7225">
        <ele>1601.5</ele>
        <time>2021-12-19T10:58:42Z</time>
      </trkpt>
      <trkpt lat="45.35122" lon="5.7225">
        <ele>1601.5</ele>
        <time>2021-12-19T10:58:43Z</time>
      </trkpt>
      <trkpt lat="45.35122" lon="5.7225">
        <ele>1601.5</ele>
        <time>2021-12-19T10:58:44Z</time>
      </trkpt>
      <trkpt lat="45.35122" lon="5.7225">
        <ele>1601.5</ele>
        <time>2021-12-19T10:58:45Z</time>
      </trkpt>
      <trkpt lat="45.35122" lon="5.7225">
        <ele>1601.5</ele>
        <time>2021-12-19T10:58:46Z</time>
      </trkpt>
      <trkpt lat="45.35122" lon="5.7225">
        <ele>1601.5</ele>
        <time>2021-12-19T10:58:47Z</time>
      </trkpt>
      <trkpt lat="45.35122" lon="5.7225">
        <ele>1601.5</ele>
        <time>2021-12-19T10:58:48Z</time>
      </trkpt>
      <trkpt lat="45.35122" lon="5.72249">
        <ele>1601.5</ele>
        <time>2021-12-19T10:58:49Z</time>
      </trkpt>
      <trkpt lat="45.35122" lon="5.72249">
        <ele>1601.5</ele>
        <time>2021-12-19T10:58:50Z</time>
      </trkpt>
      <trkpt lat="45.35122" lon="5.72249">
        <ele>1601.5</ele>
        <time>2021-12-19T10:58:51Z</time>
      </trkpt>
      <trkpt lat="45.35122" lon="5.72249">
        <ele>1601.5</ele>
        <time>2021-12-19T10:58:52Z</time>
      </trkpt>
      <trkpt lat="45.35122" lon="5.7225">
        <ele>1601.5</ele>
        <time>2021-12-19T10:58:53Z</time>
      </trkpt>
      <trkpt lat="45.35122" lon="5.7225">
        <ele>1601.5</ele>
        <time>2021-12-19T10:58:54Z</time>
      </trkpt>
      <trkpt lat="45.35122" lon="5.7225">
        <ele>1601.5</ele>
        <time>2021-12-19T10:58:55Z</time>
      </trkpt>
      <trkpt lat="45.35122" lon="5.72249">
        <ele>1601.5</ele>
        <time>2021-12-19T10:58:56Z</time>
      </trkpt>
      <trkpt lat="45.35122" lon="5.72249">
        <ele>1601.5</ele>
        <time>2021-12-19T10:58:57Z</time>
      </trkpt>
      <trkpt lat="45.35123" lon="5.72249">
        <ele>1601.5</ele>
        <time>2021-12-19T10:58:58Z</time>
      </trkpt>
      <trkpt lat="45.35123" lon="5.72249">
        <ele>1601.5</ele>
        <time>2021-12-19T10:58:59Z</time>
      </trkpt>
      <trkpt lat="45.35123" lon="5.72249">
        <ele>1601.5</ele>
        <time>2021-12-19T10:59:00Z</time>
      </trkpt>
      <trkpt lat="45.35123" lon="5.72249">
        <ele>1601.5</ele>
        <time>2021-12-19T10:59:01Z</time>
      </trkpt>
      <trkpt lat="45.35122" lon="5.72249">
        <ele>1601.5</ele>
        <time>2021-12-19T10:59:02Z</time>
      </trkpt>
      <trkpt lat="45.35122" lon="5.72249">
        <ele>1601.5</ele>
        <time>2021-12-19T10:59:03Z</time>
      </trkpt>
      <trkpt lat="45.35122" lon="5.72249">
        <ele>1601.5</ele>
        <time>2021-12-19T10:59:04Z</time>
      </trkpt>
      <trkpt lat="45.35122" lon="5.72249">
        <ele>1601.5</ele>
        <time>2021-12-19T10:59:05Z</time>
      </trkpt>
      <trkpt lat="45.35122" lon="5.72249">
        <ele>1601.5</ele>
        <time>2021-12-19T10:59:06Z</time>
      </trkpt>
      <trkpt lat="45.35122" lon="5.72249">
        <ele>1601.5</ele>
        <time>2021-12-19T10:59:07Z</time>
      </trkpt>
      <trkpt lat="45.35122" lon="5.72249">
        <ele>1601.5</ele>
        <time>2021-12-19T10:59:08Z</time>
      </trkpt>
      <trkpt lat="45.35122" lon="5.72248">
        <ele>1601.5</ele>
        <time>2021-12-19T10:59:09Z</time>
      </trkpt>
      <trkpt lat="45.35122" lon="5.72248">
        <ele>1601.5</ele>
        <time>2021-12-19T10:59:10Z</time>
      </trkpt>
      <trkpt lat="45.35123" lon="5.72248">
        <ele>1601.5</ele>
        <time>2021-12-19T10:59:11Z</time>
      </trkpt>
      <trkpt lat="45.35123" lon="5.72248">
        <ele>1601.5</ele>
        <time>2021-12-19T10:59:12Z</time>
      </trkpt>
      <trkpt lat="45.35123" lon="5.72248">
        <ele>1601.5</ele>
        <time>2021-12-19T10:59:13Z</time>
      </trkpt>
      <trkpt lat="45.35123" lon="5.72248">
        <ele>1601.5</ele>
        <time>2021-12-19T10:59:14Z</time>
      </trkpt>
      <trkpt lat="45.35123" lon="5.72248">
        <ele>1601.5</ele>
        <time>2021-12-19T10:59:15Z</time>
      </trkpt>
      <trkpt lat="45.35123" lon="5.72248">
        <ele>1601.5</ele>
        <time>2021-12-19T10:59:16Z</time>
      </trkpt>
      <trkpt lat="45.35123" lon="5.72248">
        <ele>1601.5</ele>
        <time>2021-12-19T10:59:17Z</time>
      </trkpt>
      <trkpt lat="45.35123" lon="5.72248">
        <ele>1601.5</ele>
        <time>2021-12-19T10:59:18Z</time>
      </trkpt>
      <trkpt lat="45.35123" lon="5.72248">
        <ele>1601.5</ele>
        <time>2021-12-19T10:59:19Z</time>
      </trkpt>
      <trkpt lat="45.35123" lon="5.72248">
        <ele>1601.5</ele>
        <time>2021-12-19T10:59:20Z</time>
      </trkpt>
      <trkpt lat="45.35123" lon="5.72248">
        <ele>1601.5</ele>
        <time>2021-12-19T10:59:21Z</time>
      </trkpt>
      <trkpt lat="45.35123" lon="5.72248">
        <ele>1601.5</ele>
        <time>2021-12-19T10:59:22Z</time>
      </trkpt>
      <trkpt lat="45.35123" lon="5.72248">
        <ele>1601.5</ele>
        <time>2021-12-19T10:59:23Z</time>
      </trkpt>
      <trkpt lat="45.35123" lon="5.72248">
        <ele>1601.5</ele>
        <time>2021-12-19T10:59:24Z</time>
      </trkpt>
      <trkpt lat="45.35123" lon="5.72248">
        <ele>1601.5</ele>
        <time>2021-12-19T10:59:25Z</time>
      </trkpt>
      <trkpt lat="45.35123" lon="5.72248">
        <ele>1601.5</ele>
        <time>2021-12-19T10:59:26Z</time>
      </trkpt>
      <trkpt lat="45.35123" lon="5.72248">
        <ele>1601.5</ele>
        <time>2021-12-19T10:59:27Z</time>
      </trkpt>
      <trkpt lat="45.35123" lon="5.72248">
        <ele>1601.5</ele>
        <time>2021-12-19T10:59:28Z</time>
      </trkpt>
      <trkpt lat="45.35123" lon="5.72248">
        <ele>1601.5</ele>
        <time>2021-12-19T10:59:29Z</time>
      </trkpt>
      <trkpt lat="45.35123" lon="5.72248">
        <ele>1601.5</ele>
        <time>2021-12-19T10:59:30Z</time>
      </trkpt>
      <trkpt lat="45.35123" lon="5.72248">
        <ele>1601.5</ele>
        <time>2021-12-19T10:59:31Z</time>
      </trkpt>
      <trkpt lat="45.35123" lon="5.72248">
        <ele>1601.5</ele>
        <time>2021-12-19T10:59:32Z</time>
      </trkpt>
      <trkpt lat="45.35123" lon="5.72248">
        <ele>1601.5</ele>
        <time>2021-12-19T10:59:33Z</time>
      </trkpt>
      <trkpt lat="45.35123" lon="5.72248">
        <ele>1601.5</ele>
        <time>2021-12-19T10:59:34Z</time>
      </trkpt>
      <trkpt lat="45.35123" lon="5.72248">
        <ele>1601.5</ele>
        <time>2021-12-19T10:59:35Z</time>
      </trkpt>
      <trkpt lat="45.35123" lon="5.72248">
        <ele>1601.5</ele>
        <time>2021-12-19T10:59:36Z</time>
      </trkpt>
      <trkpt lat="45.35123" lon="5.72248">
        <ele>1601.5</ele>
        <time>2021-12-19T10:59:37Z</time>
      </trkpt>
      <trkpt lat="45.35123" lon="5.72248">
        <ele>1601.5</ele>
        <time>2021-12-19T10:59:38Z</time>
      </trkpt>
      <trkpt lat="45.35123" lon="5.72248">
        <ele>1601.5</ele>
        <time>2021-12-19T10:59:39Z</time>
      </trkpt>
      <trkpt lat="45.35123" lon="5.72248">
        <ele>1601.5</ele>
        <time>2021-12-19T10:59:40Z</time>
      </trkpt>
      <trkpt lat="45.35123" lon="5.72248">
        <ele>1601.5</ele>
        <time>2021-12-19T10:59:41Z</time>
      </trkpt>
      <trkpt lat="45.35123" lon="5.72248">
        <ele>1601.5</ele>
        <time>2021-12-19T10:59:42Z</time>
      </trkpt>
      <trkpt lat="45.35123" lon="5.72248">
        <ele>1601.5</ele>
        <time>2021-12-19T10:59:43Z</time>
      </trkpt>
      <trkpt lat="45.35123" lon="5.72248">
        <ele>1601.5</ele>
        <time>2021-12-19T10:59:44Z</time>
      </trkpt>
      <trkpt lat="45.35123" lon="5.72248">
        <ele>1601.5</ele>
        <time>2021-12-19T10:59:45Z</time>
      </trkpt>
      <trkpt lat="45.35123" lon="5.72249">
        <ele>1601.5</ele>
        <time>2021-12-19T10:59:46Z</time>
      </trkpt>
      <trkpt lat="45.35123" lon="5.72249">
        <ele>1601.5</ele>
        <time>2021-12-19T10:59:47Z</time>
      </trkpt>
      <trkpt lat="45.35123" lon="5.72248">
        <ele>1601.5</ele>
        <time>2021-12-19T10:59:48Z</time>
      </trkpt>
      <trkpt lat="45.35123" lon="5.72248">
        <ele>1601.5</ele>
        <time>2021-12-19T10:59:49Z</time>
      </trkpt>
      <trkpt lat="45.35123" lon="5.72248">
        <ele>1601.5</ele>
        <time>2021-12-19T10:59:50Z</time>
      </trkpt>
      <trkpt lat="45.35122" lon="5.72248">
        <ele>1601.5</ele>
        <time>2021-12-19T10:59:51Z</time>
      </trkpt>
      <trkpt lat="45.35122" lon="5.72248">
        <ele>1601.5</ele>
        <time>2021-12-19T10:59:52Z</time>
      </trkpt>
      <trkpt lat="45.35122" lon="5.72248">
        <ele>1601.5</ele>
        <time>2021-12-19T10:59:53Z</time>
      </trkpt>
      <trkpt lat="45.35122" lon="5.72248">
        <ele>1601.5</ele>
        <time>2021-12-19T10:59:54Z</time>
      </trkpt>
      <trkpt lat="45.35122" lon="5.72248">
        <ele>1601.5</ele>
        <time>2021-12-19T10:59:55Z</time>
      </trkpt>
      <trkpt lat="45.35122" lon="5.72248">
        <ele>1601.5</ele>
        <time>2021-12-19T10:59:56Z</time>
      </trkpt>
      <trkpt lat="45.35122" lon="5.72248">
        <ele>1601.5</ele>
        <time>2021-12-19T10:59:57Z</time>
      </trkpt>
      <trkpt lat="45.35122" lon="5.72248">
        <ele>1601.5</ele>
        <time>2021-12-19T10:59:58Z</time>
      </trkpt>
      <trkpt lat="45.35122" lon="5.72248">
        <ele>1601.5</ele>
        <time>2021-12-19T10:59:59Z</time>
      </trkpt>
      <trkpt lat="45.35122" lon="5.72248">
        <ele>1601.5</ele>
        <time>2021-12-19T11:00:00Z</time>
      </trkpt>
      <trkpt lat="45.35121" lon="5.72248">
        <ele>1601.5</ele>
        <time>2021-12-19T11:00:01Z</time>
      </trkpt>
      <trkpt lat="45.35121" lon="5.72248">
        <ele>1601.5</ele>
        <time>2021-12-19T11:00:02Z</time>
      </trkpt>
      <trkpt lat="45.35121" lon="5.72248">
        <ele>1601.5</ele>
        <time>2021-12-19T11:00:03Z</time>
      </trkpt>
      <trkpt lat="45.35121" lon="5.72248">
        <ele>1601.5</ele>
        <time>2021-12-19T11:00:04Z</time>
      </trkpt>
      <trkpt lat="45.3512" lon="5.72248">
        <ele>1601.5</ele>
        <time>2021-12-19T11:00:05Z</time>
      </trkpt>
      <trkpt lat="45.3512" lon="5.72248">
        <ele>1601.5</ele>
        <time>2021-12-19T11:00:06Z</time>
      </trkpt>
      <trkpt lat="45.35119" lon="5.72248">
        <ele>1601.5</ele>
        <time>2021-12-19T11:00:07Z</time>
      </trkpt>
      <trkpt lat="45.35119" lon="5.72248">
        <ele>1601.5</ele>
        <time>2021-12-19T11:00:08Z</time>
      </trkpt>
      <trkpt lat="45.35119" lon="5.72247">
        <ele>1601.6</ele>
        <time>2021-12-19T11:00:09Z</time>
      </trkpt>
      <trkpt lat="45.35118" lon="5.72247">
        <ele>1601.7</ele>
        <time>2021-12-19T11:00:10Z</time>
      </trkpt>
      <trkpt lat="45.35118" lon="5.72247">
        <ele>1601.7</ele>
        <time>2021-12-19T11:00:11Z</time>
      </trkpt>
      <trkpt lat="45.35118" lon="5.72247">
        <ele>1601.7</ele>
        <time>2021-12-19T11:00:12Z</time>
      </trkpt>
      <trkpt lat="45.35118" lon="5.72247">
        <ele>1601.7</ele>
        <time>2021-12-19T11:00:13Z</time>
      </trkpt>
      <trkpt lat="45.35118" lon="5.72247">
        <ele>1601.7</ele>
        <time>2021-12-19T11:00:14Z</time>
      </trkpt>
      <trkpt lat="45.35118" lon="5.72247">
        <ele>1601.7</ele>
        <time>2021-12-19T11:00:15Z</time>
      </trkpt>
      <trkpt lat="45.35118" lon="5.72247">
        <ele>1601.7</ele>
        <time>2021-12-19T11:00:16Z</time>
      </trkpt>
      <trkpt lat="45.35118" lon="5.72247">
        <ele>1601.7</ele>
        <time>2021-12-19T11:00:17Z</time>
      </trkpt>
      <trkpt lat="45.35118" lon="5.72247">
        <ele>1601.7</ele>
        <time>2021-12-19T11:00:18Z</time>
      </trkpt>
      <trkpt lat="45.35118" lon="5.72247">
        <ele>1601.7</ele>
        <time>2021-12-19T11:00:19Z</time>
      </trkpt>
      <trkpt lat="45.35118" lon="5.72247">
        <ele>1601.8</ele>
        <time>2021-12-19T11:00:20Z</time>
      </trkpt>
      <trkpt lat="45.35118" lon="5.72247">
        <ele>1601.8</ele>
        <time>2021-12-19T11:00:21Z</time>
      </trkpt>
      <trkpt lat="45.35118" lon="5.72247">
        <ele>1601.8</ele>
        <time>2021-12-19T11:00:22Z</time>
      </trkpt>
      <trkpt lat="45.35118" lon="5.72246">
        <ele>1601.8</ele>
        <time>2021-12-19T11:00:23Z</time>
      </trkpt>
      <trkpt lat="45.35118" lon="5.72246">
        <ele>1601.8</ele>
        <time>2021-12-19T11:00:24Z</time>
      </trkpt>
      <trkpt lat="45.35118" lon="5.72246">
        <ele>1601.8</ele>
        <time>2021-12-19T11:00:25Z</time>
      </trkpt>
      <trkpt lat="45.35118" lon="5.72247">
        <ele>1601.8</ele>
        <time>2021-12-19T11:00:26Z</time>
      </trkpt>
      <trkpt lat="45.35118" lon="5.72246">
        <ele>1601.8</ele>
        <time>2021-12-19T11:00:27Z</time>
      </trkpt>
      <trkpt lat="45.35118" lon="5.72247">
        <ele>1601.8</ele>
        <time>2021-12-19T11:00:28Z</time>
      </trkpt>
      <trkpt lat="45.35118" lon="5.72247">
        <ele>1601.9</ele>
        <time>2021-12-19T11:00:29Z</time>
      </trkpt>
      <trkpt lat="45.35118" lon="5.72247">
        <ele>1601.9</ele>
        <time>2021-12-19T11:00:30Z</time>
      </trkpt>
      <trkpt lat="45.35118" lon="5.72247">
        <ele>1601.9</ele>
        <time>2021-12-19T11:00:31Z</time>
      </trkpt>
      <trkpt lat="45.35119" lon="5.72247">
        <ele>1601.9</ele>
        <time>2021-12-19T11:00:32Z</time>
      </trkpt>
      <trkpt lat="45.35119" lon="5.72247">
        <ele>1601.9</ele>
        <time>2021-12-19T11:00:33Z</time>
      </trkpt>
      <trkpt lat="45.35119" lon="5.72246">
        <ele>1601.9</ele>
        <time>2021-12-19T11:00:34Z</time>
      </trkpt>
      <trkpt lat="45.35119" lon="5.72246">
        <ele>1601.9</ele>
        <time>2021-12-19T11:00:35Z</time>
      </trkpt>
      <trkpt lat="45.35119" lon="5.72246">
        <ele>1601.9</ele>
        <time>2021-12-19T11:00:36Z</time>
      </trkpt>
      <trkpt lat="45.35119" lon="5.72246">
        <ele>1601.9</ele>
        <time>2021-12-19T11:00:37Z</time>
      </trkpt>
      <trkpt lat="45.35119" lon="5.72246">
        <ele>1602</ele>
        <time>2021-12-19T11:00:38Z</time>
      </trkpt>
      <trkpt lat="45.35119" lon="5.72247">
        <ele>1602</ele>
        <time>2021-12-19T11:00:39Z</time>
      </trkpt>
      <trkpt lat="45.35119" lon="5.72246">
        <ele>1602</ele>
        <time>2021-12-19T11:00:40Z</time>
      </trkpt>
      <trkpt lat="45.3512" lon="5.72247">
        <ele>1602</ele>
        <time>2021-12-19T11:00:41Z</time>
      </trkpt>
      <trkpt lat="45.3512" lon="5.72246">
        <ele>1602</ele>
        <time>2021-12-19T11:00:42Z</time>
      </trkpt>
      <trkpt lat="45.3512" lon="5.72247">
        <ele>1602.1</ele>
        <time>2021-12-19T11:00:43Z</time>
      </trkpt>
      <trkpt lat="45.3512" lon="5.72247">
        <ele>1602.1</ele>
        <time>2021-12-19T11:00:44Z</time>
      </trkpt>
      <trkpt lat="45.3512" lon="5.72247">
        <ele>1602.1</ele>
        <time>2021-12-19T11:00:45Z</time>
      </trkpt>
      <trkpt lat="45.3512" lon="5.72246">
        <ele>1602.1</ele>
        <time>2021-12-19T11:00:46Z</time>
      </trkpt>
      <trkpt lat="45.3512" lon="5.72246">
        <ele>1602.1</ele>
        <time>2021-12-19T11:00:47Z</time>
      </trkpt>
      <trkpt lat="45.3512" lon="5.72246">
        <ele>1602.1</ele>
        <time>2021-12-19T11:00:48Z</time>
      </trkpt>
      <trkpt lat="45.3512" lon="5.72246">
        <ele>1602.1</ele>
        <time>2021-12-19T11:00:49Z</time>
      </trkpt>
      <trkpt lat="45.3512" lon="5.72245">
        <ele>1602.2</ele>
        <time>2021-12-19T11:00:50Z</time>
      </trkpt>
      <trkpt lat="45.3512" lon="5.72245">
        <ele>1602.2</ele>
        <time>2021-12-19T11:00:51Z</time>
      </trkpt>
      <trkpt lat="45.35119" lon="5.72244">
        <ele>1602.3</ele>
        <time>2021-12-19T11:00:52Z</time>
      </trkpt>
      <trkpt lat="45.35119" lon="5.72245">
        <ele>1602.3</ele>
        <time>2021-12-19T11:00:53Z</time>
      </trkpt>
      <trkpt lat="45.35119" lon="5.72245">
        <ele>1602.3</ele>
        <time>2021-12-19T11:00:54Z</time>
      </trkpt>
      <trkpt lat="45.35119" lon="5.72244">
        <ele>1602.3</ele>
        <time>2021-12-19T11:00:55Z</time>
      </trkpt>
      <trkpt lat="45.35119" lon="5.72244">
        <ele>1602.4</ele>
        <time>2021-12-19T11:00:56Z</time>
      </trkpt>
      <trkpt lat="45.35119" lon="5.72244">
        <ele>1602.4</ele>
        <time>2021-12-19T11:00:57Z</time>
      </trkpt>
      <trkpt lat="45.3512" lon="5.72244">
        <ele>1602.4</ele>
        <time>2021-12-19T11:00:58Z</time>
      </trkpt>
      <trkpt lat="45.3512" lon="5.72244">
        <ele>1602.4</ele>
        <time>2021-12-19T11:00:59Z</time>
      </trkpt>
      <trkpt lat="45.3512" lon="5.72244">
        <ele>1602.4</ele>
        <time>2021-12-19T11:01:00Z</time>
      </trkpt>
      <trkpt lat="45.3512" lon="5.72244">
        <ele>1602.4</ele>
        <time>2021-12-19T11:01:01Z</time>
      </trkpt>
      <trkpt lat="45.3512" lon="5.72244">
        <ele>1602.4</ele>
        <time>2021-12-19T11:01:02Z</time>
      </trkpt>
      <trkpt lat="45.3512" lon="5.72244">
        <ele>1602.5</ele>
        <time>2021-12-19T11:01:03Z</time>
      </trkpt>
      <trkpt lat="45.3512" lon="5.72244">
        <ele>1602.5</ele>
        <time>2021-12-19T11:01:04Z</time>
      </trkpt>
      <trkpt lat="45.3512" lon="5.72244">
        <ele>1602.5</ele>
        <time>2021-12-19T11:01:05Z</time>
      </trkpt>
      <trkpt lat="45.3512" lon="5.72244">
        <ele>1602.5</ele>
        <time>2021-12-19T11:01:06Z</time>
      </trkpt>
      <trkpt lat="45.3512" lon="5.72244">
        <ele>1602.5</ele>
        <time>2021-12-19T11:01:07Z</time>
      </trkpt>
      <trkpt lat="45.3512" lon="5.72245">
        <ele>1602.5</ele>
        <time>2021-12-19T11:01:08Z</time>
      </trkpt>
      <trkpt lat="45.3512" lon="5.72245">
        <ele>1602.6</ele>
        <time>2021-12-19T11:01:09Z</time>
      </trkpt>
      <trkpt lat="45.3512" lon="5.72245">
        <ele>1602.6</ele>
        <time>2021-12-19T11:01:10Z</time>
      </trkpt>
      <trkpt lat="45.3512" lon="5.72245">
        <ele>1602.6</ele>
        <time>2021-12-19T11:01:11Z</time>
      </trkpt>
      <trkpt lat="45.3512" lon="5.72246">
        <ele>1602.6</ele>
        <time>2021-12-19T11:01:12Z</time>
      </trkpt>
      <trkpt lat="45.3512" lon="5.72246">
        <ele>1602.7</ele>
        <time>2021-12-19T11:01:13Z</time>
      </trkpt>
      <trkpt lat="45.3512" lon="5.72246">
        <ele>1602.7</ele>
        <time>2021-12-19T11:01:14Z</time>
      </trkpt>
      <trkpt lat="45.35121" lon="5.72247">
        <ele>1602.8</ele>
        <time>2021-12-19T11:01:15Z</time>
      </trkpt>
      <trkpt lat="45.35121" lon="5.72247">
        <ele>1602.8</ele>
        <time>2021-12-19T11:01:16Z</time>
      </trkpt>
      <trkpt lat="45.35121" lon="5.72247">
        <ele>1602.8</ele>
        <time>2021-12-19T11:01:17Z</time>
      </trkpt>
      <trkpt lat="45.35122" lon="5.72247">
        <ele>1602.9</ele>
        <time>2021-12-19T11:01:18Z</time>
      </trkpt>
      <trkpt lat="45.35122" lon="5.72248">
        <ele>1602.9</ele>
        <time>2021-12-19T11:01:19Z</time>
      </trkpt>
      <trkpt lat="45.35122" lon="5.72248">
        <ele>1602.9</ele>
        <time>2021-12-19T11:01:20Z</time>
      </trkpt>
      <trkpt lat="45.35122" lon="5.72248">
        <ele>1602.9</ele>
        <time>2021-12-19T11:01:21Z</time>
      </trkpt>
      <trkpt lat="45.35123" lon="5.72248">
        <ele>1602.9</ele>
        <time>2021-12-19T11:01:22Z</time>
      </trkpt>
      <trkpt lat="45.35122" lon="5.72248">
        <ele>1603</ele>
        <time>2021-12-19T11:01:23Z</time>
      </trkpt>
      <trkpt lat="45.35122" lon="5.72248">
        <ele>1603</ele>
        <time>2021-12-19T11:01:24Z</time>
      </trkpt>
      <trkpt lat="45.35122" lon="5.72248">
        <ele>1603</ele>
        <time>2021-12-19T11:01:25Z</time>
      </trkpt>
      <trkpt lat="45.35122" lon="5.72248">
        <ele>1603</ele>
        <time>2021-12-19T11:01:26Z</time>
      </trkpt>
      <trkpt lat="45.35122" lon="5.72248">
        <ele>1603</ele>
        <time>2021-12-19T11:01:27Z</time>
      </trkpt>
      <trkpt lat="45.35122" lon="5.72248">
        <ele>1603</ele>
        <time>2021-12-19T11:01:28Z</time>
      </trkpt>
      <trkpt lat="45.35122" lon="5.72248">
        <ele>1603.1</ele>
        <time>2021-12-19T11:01:29Z</time>
      </trkpt>
      <trkpt lat="45.35122" lon="5.72248">
        <ele>1603.1</ele>
        <time>2021-12-19T11:01:30Z</time>
      </trkpt>
      <trkpt lat="45.35122" lon="5.72248">
        <ele>1603.1</ele>
        <time>2021-12-19T11:01:31Z</time>
      </trkpt>
      <trkpt lat="45.35122" lon="5.72248">
        <ele>1603.1</ele>
        <time>2021-12-19T11:01:32Z</time>
      </trkpt>
      <trkpt lat="45.35121" lon="5.72248">
        <ele>1603.1</ele>
        <time>2021-12-19T11:01:33Z</time>
      </trkpt>
      <trkpt lat="45.35121" lon="5.72247">
        <ele>1603.1</ele>
        <time>2021-12-19T11:01:34Z</time>
      </trkpt>
      <trkpt lat="45.35121" lon="5.72247">
        <ele>1603.1</ele>
        <time>2021-12-19T11:01:35Z</time>
      </trkpt>
      <trkpt lat="45.35121" lon="5.72247">
        <ele>1603.1</ele>
        <time>2021-12-19T11:01:36Z</time>
      </trkpt>
      <trkpt lat="45.35121" lon="5.72247">
        <ele>1603.1</ele>
        <time>2021-12-19T11:01:37Z</time>
      </trkpt>
      <trkpt lat="45.35122" lon="5.72247">
        <ele>1603.1</ele>
        <time>2021-12-19T11:01:38Z</time>
      </trkpt>
      <trkpt lat="45.35122" lon="5.72247">
        <ele>1603.2</ele>
        <time>2021-12-19T11:01:39Z</time>
      </trkpt>
      <trkpt lat="45.35122" lon="5.72247">
        <ele>1603.2</ele>
        <time>2021-12-19T11:01:40Z</time>
      </trkpt>
      <trkpt lat="45.35122" lon="5.72247">
        <ele>1603.2</ele>
        <time>2021-12-19T11:01:41Z</time>
      </trkpt>
      <trkpt lat="45.35122" lon="5.72247">
        <ele>1603.2</ele>
        <time>2021-12-19T11:01:42Z</time>
      </trkpt>
      <trkpt lat="45.35122" lon="5.72247">
        <ele>1603.2</ele>
        <time>2021-12-19T11:01:43Z</time>
      </trkpt>
      <trkpt lat="45.35122" lon="5.72247">
        <ele>1603.2</ele>
        <time>2021-12-19T11:01:44Z</time>
      </trkpt>
      <trkpt lat="45.35122" lon="5.72247">
        <ele>1603.2</ele>
        <time>2021-12-19T11:01:45Z</time>
      </trkpt>
      <trkpt lat="45.35122" lon="5.72247">
        <ele>1603.3</ele>
        <time>2021-12-19T11:01:46Z</time>
      </trkpt>
      <trkpt lat="45.35122" lon="5.72247">
        <ele>1603.3</ele>
        <time>2021-12-19T11:01:47Z</time>
      </trkpt>
      <trkpt lat="45.35122" lon="5.72247">
        <ele>1603.3</ele>
        <time>2021-12-19T11:01:48Z</time>
      </trkpt>
      <trkpt lat="45.35122" lon="5.72248">
        <ele>1603.3</ele>
        <time>2021-12-19T11:01:49Z</time>
      </trkpt>
      <trkpt lat="45.35122" lon="5.72248">
        <ele>1603.3</ele>
        <time>2021-12-19T11:01:50Z</time>
      </trkpt>
      <trkpt lat="45.35123" lon="5.72248">
        <ele>1603.4</ele>
        <time>2021-12-19T11:01:51Z</time>
      </trkpt>
      <trkpt lat="45.35123" lon="5.72248">
        <ele>1603.4</ele>
        <time>2021-12-19T11:01:52Z</time>
      </trkpt>
      <trkpt lat="45.35123" lon="5.72248">
        <ele>1603.4</ele>
        <time>2021-12-19T11:01:53Z</time>
      </trkpt>
      <trkpt lat="45.35124" lon="5.72249">
        <ele>1603.5</ele>
        <time>2021-12-19T11:01:54Z</time>
      </trkpt>
      <trkpt lat="45.35124" lon="5.72249">
        <ele>1603.5</ele>
        <time>2021-12-19T11:01:55Z</time>
      </trkpt>
      <trkpt lat="45.35123" lon="5.72249">
        <ele>1603.5</ele>
        <time>2021-12-19T11:01:56Z</time>
      </trkpt>
      <trkpt lat="45.35123" lon="5.72249">
        <ele>1603.5</ele>
        <time>2021-12-19T11:01:57Z</time>
      </trkpt>
      <trkpt lat="45.35123" lon="5.72248">
        <ele>1603.5</ele>
        <time>2021-12-19T11:01:58Z</time>
      </trkpt>
      <trkpt lat="45.35123" lon="5.72248">
        <ele>1603.5</ele>
        <time>2021-12-19T11:01:59Z</time>
      </trkpt>
      <trkpt lat="45.35123" lon="5.72248">
        <ele>1603.5</ele>
        <time>2021-12-19T11:02:00Z</time>
      </trkpt>
      <trkpt lat="45.35123" lon="5.72249">
        <ele>1603.5</ele>
        <time>2021-12-19T11:02:01Z</time>
      </trkpt>
      <trkpt lat="45.35123" lon="5.72249">
        <ele>1603.6</ele>
        <time>2021-12-19T11:02:02Z</time>
      </trkpt>
      <trkpt lat="45.35123" lon="5.72249">
        <ele>1603.6</ele>
        <time>2021-12-19T11:02:03Z</time>
      </trkpt>
      <trkpt lat="45.35123" lon="5.72249">
        <ele>1603.6</ele>
        <time>2021-12-19T11:02:04Z</time>
      </trkpt>
      <trkpt lat="45.35123" lon="5.72248">
        <ele>1603.6</ele>
        <time>2021-12-19T11:02:05Z</time>
      </trkpt>
      <trkpt lat="45.35123" lon="5.72248">
        <ele>1603.6</ele>
        <time>2021-12-19T11:02:06Z</time>
      </trkpt>
      <trkpt lat="45.35123" lon="5.72248">
        <ele>1603.6</ele>
        <time>2021-12-19T11:02:07Z</time>
      </trkpt>
      <trkpt lat="45.35124" lon="5.72248">
        <ele>1603.7</ele>
        <time>2021-12-19T11:02:08Z</time>
      </trkpt>
      <trkpt lat="45.35124" lon="5.72248">
        <ele>1603.7</ele>
        <time>2021-12-19T11:02:09Z</time>
      </trkpt>
      <trkpt lat="45.35124" lon="5.72248">
        <ele>1603.7</ele>
        <time>2021-12-19T11:02:10Z</time>
      </trkpt>
      <trkpt lat="45.35125" lon="5.72248">
        <ele>1603.8</ele>
        <time>2021-12-19T11:02:11Z</time>
      </trkpt>
      <trkpt lat="45.35125" lon="5.72248">
        <ele>1603.8</ele>
        <time>2021-12-19T11:02:12Z</time>
      </trkpt>
      <trkpt lat="45.35125" lon="5.72248">
        <ele>1603.8</ele>
        <time>2021-12-19T11:02:13Z</time>
      </trkpt>
      <trkpt lat="45.35125" lon="5.72248">
        <ele>1603.8</ele>
        <time>2021-12-19T11:02:14Z</time>
      </trkpt>
      <trkpt lat="45.35125" lon="5.72248">
        <ele>1603.8</ele>
        <time>2021-12-19T11:02:15Z</time>
      </trkpt>
      <trkpt lat="45.35125" lon="5.72248">
        <ele>1603.9</ele>
        <time>2021-12-19T11:02:16Z</time>
      </trkpt>
      <trkpt lat="45.35125" lon="5.72248">
        <ele>1603.9</ele>
        <time>2021-12-19T11:02:17Z</time>
      </trkpt>
      <trkpt lat="45.35125" lon="5.72248">
        <ele>1603.9</ele>
        <time>2021-12-19T11:02:18Z</time>
      </trkpt>
      <trkpt lat="45.35125" lon="5.72248">
        <ele>1603.9</ele>
        <time>2021-12-19T11:02:19Z</time>
      </trkpt>
      <trkpt lat="45.35125" lon="5.72248">
        <ele>1603.9</ele>
        <time>2021-12-19T11:02:20Z</time>
      </trkpt>
      <trkpt lat="45.35125" lon="5.72248">
        <ele>1603.9</ele>
        <time>2021-12-19T11:02:21Z</time>
      </trkpt>
      <trkpt lat="45.35125" lon="5.72248">
        <ele>1603.9</ele>
        <time>2021-12-19T11:02:22Z</time>
      </trkpt>
      <trkpt lat="45.35125" lon="5.72248">
        <ele>1603.9</ele>
        <time>2021-12-19T11:02:23Z</time>
      </trkpt>
      <trkpt lat="45.35125" lon="5.72248">
        <ele>1603.9</ele>
        <time>2021-12-19T11:02:24Z</time>
      </trkpt>
      <trkpt lat="45.35125" lon="5.72248">
        <ele>1603.9</ele>
        <time>2021-12-19T11:02:25Z</time>
      </trkpt>
      <trkpt lat="45.35125" lon="5.72248">
        <ele>1604</ele>
        <time>2021-12-19T11:02:26Z</time>
      </trkpt>
      <trkpt lat="45.35125" lon="5.72248">
        <ele>1604</ele>
        <time>2021-12-19T11:02:27Z</time>
      </trkpt>
      <trkpt lat="45.35125" lon="5.72247">
        <ele>1604</ele>
        <time>2021-12-19T11:02:28Z</time>
      </trkpt>
      <trkpt lat="45.35125" lon="5.72247">
        <ele>1604</ele>
        <time>2021-12-19T11:02:29Z</time>
      </trkpt>
      <trkpt lat="45.35125" lon="5.72247">
        <ele>1604.1</ele>
        <time>2021-12-19T11:02:30Z</time>
      </trkpt>
      <trkpt lat="45.35124" lon="5.72247">
        <ele>1604.1</ele>
        <time>2021-12-19T11:02:31Z</time>
      </trkpt>
      <trkpt lat="45.35124" lon="5.72247">
        <ele>1604.1</ele>
        <time>2021-12-19T11:02:32Z</time>
      </trkpt>
      <trkpt lat="45.35124" lon="5.72247">
        <ele>1604.1</ele>
        <time>2021-12-19T11:02:33Z</time>
      </trkpt>
      <trkpt lat="45.35124" lon="5.72248">
        <ele>1604.2</ele>
        <time>2021-12-19T11:02:34Z</time>
      </trkpt>
      <trkpt lat="45.35123" lon="5.72247">
        <ele>1604.3</ele>
        <time>2021-12-19T11:02:35Z</time>
      </trkpt>
      <trkpt lat="45.35121" lon="5.72247">
        <ele>1604.5</ele>
        <time>2021-12-19T11:02:36Z</time>
      </trkpt>
      <trkpt lat="45.3512" lon="5.72248">
        <ele>1604.6</ele>
        <time>2021-12-19T11:02:37Z</time>
      </trkpt>
      <trkpt lat="45.35119" lon="5.72248">
        <ele>1604.7</ele>
        <time>2021-12-19T11:02:38Z</time>
      </trkpt>
      <trkpt lat="45.35119" lon="5.72248">
        <ele>1604.8</ele>
        <time>2021-12-19T11:02:39Z</time>
      </trkpt>
      <trkpt lat="45.35119" lon="5.72248">
        <ele>1604.8</ele>
        <time>2021-12-19T11:02:40Z</time>
      </trkpt>
      <trkpt lat="45.35118" lon="5.72248">
        <ele>1604.8</ele>
        <time>2021-12-19T11:02:41Z</time>
      </trkpt>
      <trkpt lat="45.35118" lon="5.72248">
        <ele>1604.8</ele>
        <time>2021-12-19T11:02:42Z</time>
      </trkpt>
      <trkpt lat="45.35118" lon="5.72248">
        <ele>1604.9</ele>
        <time>2021-12-19T11:02:43Z</time>
      </trkpt>
      <trkpt lat="45.35118" lon="5.72248">
        <ele>1604.9</ele>
        <time>2021-12-19T11:02:44Z</time>
      </trkpt>
      <trkpt lat="45.35118" lon="5.72248">
        <ele>1604.9</ele>
        <time>2021-12-19T11:02:45Z</time>
      </trkpt>
      <trkpt lat="45.35117" lon="5.72248">
        <ele>1605</ele>
        <time>2021-12-19T11:02:46Z</time>
      </trkpt>
      <trkpt lat="45.35118" lon="5.72249">
        <ele>1605</ele>
        <time>2021-12-19T11:02:47Z</time>
      </trkpt>
      <trkpt lat="45.35118" lon="5.72249">
        <ele>1605</ele>
        <time>2021-12-19T11:02:48Z</time>
      </trkpt>
      <trkpt lat="45.35118" lon="5.72249">
        <ele>1605</ele>
        <time>2021-12-19T11:02:49Z</time>
      </trkpt>
      <trkpt lat="45.35118" lon="5.72249">
        <ele>1605</ele>
        <time>2021-12-19T11:02:50Z</time>
      </trkpt>
      <trkpt lat="45.35118" lon="5.72249">
        <ele>1605</ele>
        <time>2021-12-19T11:02:51Z</time>
      </trkpt>
      <trkpt lat="45.35117" lon="5.72249">
        <ele>1605</ele>
        <time>2021-12-19T11:02:52Z</time>
      </trkpt>
      <trkpt lat="45.35117" lon="5.72248">
        <ele>1605</ele>
        <time>2021-12-19T11:02:53Z</time>
      </trkpt>
      <trkpt lat="45.35118" lon="5.72249">
        <ele>1605</ele>
        <time>2021-12-19T11:02:54Z</time>
      </trkpt>
      <trkpt lat="45.35118" lon="5.72249">
        <ele>1605</ele>
        <time>2021-12-19T11:02:55Z</time>
      </trkpt>
      <trkpt lat="45.35118" lon="5.72249">
        <ele>1605</ele>
        <time>2021-12-19T11:02:56Z</time>
      </trkpt>
      <trkpt lat="45.35118" lon="5.72249">
        <ele>1605</ele>
        <time>2021-12-19T11:02:57Z</time>
      </trkpt>
      <trkpt lat="45.35118" lon="5.72249">
        <ele>1605</ele>
        <time>2021-12-19T11:02:58Z</time>
      </trkpt>
      <trkpt lat="45.35117" lon="5.72249">
        <ele>1605</ele>
        <time>2021-12-19T11:02:59Z</time>
      </trkpt>
      <trkpt lat="45.35117" lon="5.72249">
        <ele>1605.1</ele>
        <time>2021-12-19T11:03:00Z</time>
      </trkpt>
      <trkpt lat="45.35116" lon="5.72249">
        <ele>1605.2</ele>
        <time>2021-12-19T11:03:01Z</time>
      </trkpt>
      <trkpt lat="45.35115" lon="5.72249">
        <ele>1605.3</ele>
        <time>2021-12-19T11:03:02Z</time>
      </trkpt>
      <trkpt lat="45.35114" lon="5.72249">
        <ele>1605.4</ele>
        <time>2021-12-19T11:03:03Z</time>
      </trkpt>
      <trkpt lat="45.35113" lon="5.72249">
        <ele>1605.6</ele>
        <time>2021-12-19T11:03:04Z</time>
      </trkpt>
      <trkpt lat="45.35112" lon="5.7225">
        <ele>1605.7</ele>
        <time>2021-12-19T11:03:05Z</time>
      </trkpt>
      <trkpt lat="45.35111" lon="5.7225">
        <ele>1605.9</ele>
        <time>2021-12-19T11:03:06Z</time>
      </trkpt>
      <trkpt lat="45.3511" lon="5.72251">
        <ele>1606</ele>
        <time>2021-12-19T11:03:07Z</time>
      </trkpt>
      <trkpt lat="45.35109" lon="5.72251">
        <ele>1606.1</ele>
        <time>2021-12-19T11:03:08Z</time>
      </trkpt>
      <trkpt lat="45.35108" lon="5.72252">
        <ele>1606.3</ele>
        <time>2021-12-19T11:03:09Z</time>
      </trkpt>
      <trkpt lat="45.35107" lon="5.72252">
        <ele>1606.5</ele>
        <time>2021-12-19T11:03:10Z</time>
      </trkpt>
      <trkpt lat="45.35106" lon="5.72253">
        <ele>1606.6</ele>
        <time>2021-12-19T11:03:11Z</time>
      </trkpt>
      <trkpt lat="45.35105" lon="5.72253">
        <ele>1606.7</ele>
        <time>2021-12-19T11:03:12Z</time>
      </trkpt>
      <trkpt lat="45.35104" lon="5.72254">
        <ele>1606.9</ele>
        <time>2021-12-19T11:03:13Z</time>
      </trkpt>
      <trkpt lat="45.35102" lon="5.72254">
        <ele>1607.1</ele>
        <time>2021-12-19T11:03:14Z</time>
      </trkpt>
      <trkpt lat="45.35101" lon="5.72255">
        <ele>1607.2</ele>
        <time>2021-12-19T11:03:15Z</time>
      </trkpt>
      <trkpt lat="45.351" lon="5.72255">
        <ele>1607.4</ele>
        <time>2021-12-19T11:03:16Z</time>
      </trkpt>
      <trkpt lat="45.35099" lon="5.72256">
        <ele>1607.6</ele>
        <time>2021-12-19T11:03:17Z</time>
      </trkpt>
      <trkpt lat="45.35097" lon="5.72256">
        <ele>1607.7</ele>
        <time>2021-12-19T11:03:18Z</time>
      </trkpt>
      <trkpt lat="45.35096" lon="5.72256">
        <ele>1607.9</ele>
        <time>2021-12-19T11:03:19Z</time>
      </trkpt>
      <trkpt lat="45.35095" lon="5.72256">
        <ele>1608</ele>
        <time>2021-12-19T11:03:20Z</time>
      </trkpt>
      <trkpt lat="45.35094" lon="5.72256">
        <ele>1608.1</ele>
        <time>2021-12-19T11:03:21Z</time>
      </trkpt>
      <trkpt lat="45.35093" lon="5.72256">
        <ele>1608.3</ele>
        <time>2021-12-19T11:03:22Z</time>
      </trkpt>
      <trkpt lat="45.35092" lon="5.72257">
        <ele>1608.4</ele>
        <time>2021-12-19T11:03:23Z</time>
      </trkpt>
      <trkpt lat="45.35091" lon="5.72257">
        <ele>1608.6</ele>
        <time>2021-12-19T11:03:24Z</time>
      </trkpt>
      <trkpt lat="45.3509" lon="5.72257">
        <ele>1608.7</ele>
        <time>2021-12-19T11:03:25Z</time>
      </trkpt>
      <trkpt lat="45.35089" lon="5.72257">
        <ele>1608.8</ele>
        <time>2021-12-19T11:03:26Z</time>
      </trkpt>
      <trkpt lat="45.35088" lon="5.72257">
        <ele>1609</ele>
        <time>2021-12-19T11:03:27Z</time>
      </trkpt>
      <trkpt lat="45.35087" lon="5.72257">
        <ele>1609.1</ele>
        <time>2021-12-19T11:03:28Z</time>
      </trkpt>
      <trkpt lat="45.35086" lon="5.72257">
        <ele>1609.2</ele>
        <time>2021-12-19T11:03:29Z</time>
      </trkpt>
      <trkpt lat="45.35085" lon="5.72258">
        <ele>1609.4</ele>
        <time>2021-12-19T11:03:30Z</time>
      </trkpt>
      <trkpt lat="45.35084" lon="5.72258">
        <ele>1609.5</ele>
        <time>2021-12-19T11:03:31Z</time>
      </trkpt>
      <trkpt lat="45.35083" lon="5.72258">
        <ele>1609.6</ele>
        <time>2021-12-19T11:03:32Z</time>
      </trkpt>
      <trkpt lat="45.35082" lon="5.72258">
        <ele>1609.7</ele>
        <time>2021-12-19T11:03:33Z</time>
      </trkpt>
      <trkpt lat="45.35081" lon="5.72258">
        <ele>1609.8</ele>
        <time>2021-12-19T11:03:34Z</time>
      </trkpt>
      <trkpt lat="45.35081" lon="5.72258">
        <ele>1609.9</ele>
        <time>2021-12-19T11:03:35Z</time>
      </trkpt>
      <trkpt lat="45.3508" lon="5.72259">
        <ele>1610</ele>
        <time>2021-12-19T11:03:36Z</time>
      </trkpt>
      <trkpt lat="45.35079" lon="5.72259">
        <ele>1610.1</ele>
        <time>2021-12-19T11:03:37Z</time>
      </trkpt>
      <trkpt lat="45.35078" lon="5.72259">
        <ele>1610.2</ele>
        <time>2021-12-19T11:03:38Z</time>
      </trkpt>
      <trkpt lat="45.35077" lon="5.72259">
        <ele>1610.3</ele>
        <time>2021-12-19T11:03:39Z</time>
      </trkpt>
      <trkpt lat="45.35076" lon="5.72259">
        <ele>1610.4</ele>
        <time>2021-12-19T11:03:40Z</time>
      </trkpt>
      <trkpt lat="45.35075" lon="5.72259">
        <ele>1610.5</ele>
        <time>2021-12-19T11:03:41Z</time>
      </trkpt>
      <trkpt lat="45.35075" lon="5.7226">
        <ele>1610.6</ele>
        <time>2021-12-19T11:03:42Z</time>
      </trkpt>
      <trkpt lat="45.35074" lon="5.7226">
        <ele>1610.7</ele>
        <time>2021-12-19T11:03:43Z</time>
      </trkpt>
      <trkpt lat="45.35073" lon="5.7226">
        <ele>1610.8</ele>
        <time>2021-12-19T11:03:44Z</time>
      </trkpt>
      <trkpt lat="45.35072" lon="5.7226">
        <ele>1610.9</ele>
        <time>2021-12-19T11:03:45Z</time>
      </trkpt>
      <trkpt lat="45.35071" lon="5.7226">
        <ele>1611</ele>
        <time>2021-12-19T11:03:46Z</time>
      </trkpt>
      <trkpt lat="45.3507" lon="5.72261">
        <ele>1611.1</ele>
        <time>2021-12-19T11:03:47Z</time>
      </trkpt>
      <trkpt lat="45.35069" lon="5.7226">
        <ele>1611.2</ele>
        <time>2021-12-19T11:03:48Z</time>
      </trkpt>
      <trkpt lat="45.35069" lon="5.72261">
        <ele>1611.3</ele>
        <time>2021-12-19T11:03:49Z</time>
      </trkpt>
      <trkpt lat="45.35067" lon="5.72261">
        <ele>1611.4</ele>
        <time>2021-12-19T11:03:50Z</time>
      </trkpt>
      <trkpt lat="45.35066" lon="5.72261">
        <ele>1611.6</ele>
        <time>2021-12-19T11:03:51Z</time>
      </trkpt>
      <trkpt lat="45.35065" lon="5.72261">
        <ele>1611.7</ele>
        <time>2021-12-19T11:03:52Z</time>
      </trkpt>
      <trkpt lat="45.35064" lon="5.72262">
        <ele>1611.8</ele>
        <time>2021-12-19T11:03:53Z</time>
      </trkpt>
      <trkpt lat="45.35063" lon="5.72262">
        <ele>1611.9</ele>
        <time>2021-12-19T11:03:54Z</time>
      </trkpt>
      <trkpt lat="45.35062" lon="5.72262">
        <ele>1612</ele>
        <time>2021-12-19T11:03:55Z</time>
      </trkpt>
      <trkpt lat="45.35061" lon="5.72262">
        <ele>1612.1</ele>
        <time>2021-12-19T11:03:56Z</time>
      </trkpt>
      <trkpt lat="45.35061" lon="5.72262">
        <ele>1612.2</ele>
        <time>2021-12-19T11:03:57Z</time>
      </trkpt>
      <trkpt lat="45.3506" lon="5.72262">
        <ele>1612.3</ele>
        <time>2021-12-19T11:03:58Z</time>
      </trkpt>
      <trkpt lat="45.35059" lon="5.72262">
        <ele>1612.4</ele>
        <time>2021-12-19T11:03:59Z</time>
      </trkpt>
      <trkpt lat="45.35058" lon="5.72263">
        <ele>1612.5</ele>
        <time>2021-12-19T11:04:00Z</time>
      </trkpt>
      <trkpt lat="45.35057" lon="5.72263">
        <ele>1612.6</ele>
        <time>2021-12-19T11:04:01Z</time>
      </trkpt>
      <trkpt lat="45.35056" lon="5.72263">
        <ele>1612.7</ele>
        <time>2021-12-19T11:04:02Z</time>
      </trkpt>
      <trkpt lat="45.35055" lon="5.72263">
        <ele>1612.8</ele>
        <time>2021-12-19T11:04:03Z</time>
      </trkpt>
      <trkpt lat="45.35054" lon="5.72263">
        <ele>1612.9</ele>
        <time>2021-12-19T11:04:04Z</time>
      </trkpt>
      <trkpt lat="45.35053" lon="5.72262">
        <ele>1613</ele>
        <time>2021-12-19T11:04:05Z</time>
      </trkpt>
      <trkpt lat="45.35052" lon="5.72262">
        <ele>1613.1</ele>
        <time>2021-12-19T11:04:06Z</time>
      </trkpt>
      <trkpt lat="45.35051" lon="5.72262">
        <ele>1613.2</ele>
        <time>2021-12-19T11:04:07Z</time>
      </trkpt>
      <trkpt lat="45.3505" lon="5.72261">
        <ele>1613.4</ele>
        <time>2021-12-19T11:04:08Z</time>
      </trkpt>
      <trkpt lat="45.35049" lon="5.72261">
        <ele>1613.4</ele>
        <time>2021-12-19T11:04:09Z</time>
      </trkpt>
      <trkpt lat="45.35049" lon="5.72261">
        <ele>1613.5</ele>
        <time>2021-12-19T11:04:10Z</time>
      </trkpt>
      <trkpt lat="45.35048" lon="5.72261">
        <ele>1613.6</ele>
        <time>2021-12-19T11:04:11Z</time>
      </trkpt>
      <trkpt lat="45.35047" lon="5.7226">
        <ele>1613.7</ele>
        <time>2021-12-19T11:04:12Z</time>
      </trkpt>
      <trkpt lat="45.35045" lon="5.7226">
        <ele>1613.9</ele>
        <time>2021-12-19T11:04:13Z</time>
      </trkpt>
      <trkpt lat="45.35044" lon="5.7226">
        <ele>1614</ele>
        <time>2021-12-19T11:04:14Z</time>
      </trkpt>
      <trkpt lat="45.35043" lon="5.7226">
        <ele>1614.1</ele>
        <time>2021-12-19T11:04:15Z</time>
      </trkpt>
      <trkpt lat="45.35042" lon="5.7226">
        <ele>1614.2</ele>
        <time>2021-12-19T11:04:16Z</time>
      </trkpt>
      <trkpt lat="45.35041" lon="5.7226">
        <ele>1614.3</ele>
        <time>2021-12-19T11:04:17Z</time>
      </trkpt>
      <trkpt lat="45.35041" lon="5.7226">
        <ele>1614.4</ele>
        <time>2021-12-19T11:04:18Z</time>
      </trkpt>
      <trkpt lat="45.3504" lon="5.72259">
        <ele>1614.5</ele>
        <time>2021-12-19T11:04:19Z</time>
      </trkpt>
      <trkpt lat="45.3504" lon="5.72259">
        <ele>1614.5</ele>
        <time>2021-12-19T11:04:20Z</time>
      </trkpt>
      <trkpt lat="45.3504" lon="5.72259">
        <ele>1614.5</ele>
        <time>2021-12-19T11:04:21Z</time>
      </trkpt>
      <trkpt lat="45.3504" lon="5.72259">
        <ele>1614.5</ele>
        <time>2021-12-19T11:04:22Z</time>
      </trkpt>
      <trkpt lat="45.3504" lon="5.72259">
        <ele>1614.5</ele>
        <time>2021-12-19T11:04:23Z</time>
      </trkpt>
      <trkpt lat="45.3504" lon="5.72259">
        <ele>1614.5</ele>
        <time>2021-12-19T11:04:24Z</time>
      </trkpt>
      <trkpt lat="45.3504" lon="5.72259">
        <ele>1614.5</ele>
        <time>2021-12-19T11:04:25Z</time>
      </trkpt>
      <trkpt lat="45.3504" lon="5.72259">
        <ele>1614.6</ele>
        <time>2021-12-19T11:04:26Z</time>
      </trkpt>
      <trkpt lat="45.3504" lon="5.72259">
        <ele>1614.6</ele>
        <time>2021-12-19T11:04:27Z</time>
      </trkpt>
      <trkpt lat="45.3504" lon="5.72259">
        <ele>1614.6</ele>
        <time>2021-12-19T11:04:28Z</time>
      </trkpt>
      <trkpt lat="45.35039" lon="5.72258">
        <ele>1614.6</ele>
        <time>2021-12-19T11:04:29Z</time>
      </trkpt>
      <trkpt lat="45.35039" lon="5.72258">
        <ele>1614.7</ele>
        <time>2021-12-19T11:04:30Z</time>
      </trkpt>
      <trkpt lat="45.35038" lon="5.72258">
        <ele>1614.8</ele>
        <time>2021-12-19T11:04:31Z</time>
      </trkpt>
      <trkpt lat="45.35037" lon="5.72257">
        <ele>1614.9</ele>
        <time>2021-12-19T11:04:32Z</time>
      </trkpt>
      <trkpt lat="45.35036" lon="5.72257">
        <ele>1615</ele>
        <time>2021-12-19T11:04:33Z</time>
      </trkpt>
      <trkpt lat="45.35035" lon="5.72256">
        <ele>1615.1</ele>
        <time>2021-12-19T11:04:34Z</time>
      </trkpt>
      <trkpt lat="45.35034" lon="5.72256">
        <ele>1615.2</ele>
        <time>2021-12-19T11:04:35Z</time>
      </trkpt>
      <trkpt lat="45.35033" lon="5.72257">
        <ele>1615.3</ele>
        <time>2021-12-19T11:04:36Z</time>
      </trkpt>
      <trkpt lat="45.35032" lon="5.72256">
        <ele>1615.4</ele>
        <time>2021-12-19T11:04:37Z</time>
      </trkpt>
      <trkpt lat="45.35031" lon="5.72257">
        <ele>1615.5</ele>
        <time>2021-12-19T11:04:38Z</time>
      </trkpt>
      <trkpt lat="45.35031" lon="5.72256">
        <ele>1615.6</ele>
        <time>2021-12-19T11:04:39Z</time>
      </trkpt>
      <trkpt lat="45.35029" lon="5.72256">
        <ele>1615.8</ele>
        <time>2021-12-19T11:04:40Z</time>
      </trkpt>
      <trkpt lat="45.35028" lon="5.72256">
        <ele>1615.9</ele>
        <time>2021-12-19T11:04:41Z</time>
      </trkpt>
      <trkpt lat="45.35027" lon="5.72256">
        <ele>1616</ele>
        <time>2021-12-19T11:04:42Z</time>
      </trkpt>
      <trkpt lat="45.35026" lon="5.72256">
        <ele>1616.2</ele>
        <time>2021-12-19T11:04:43Z</time>
      </trkpt>
      <trkpt lat="45.35025" lon="5.72256">
        <ele>1616.3</ele>
        <time>2021-12-19T11:04:44Z</time>
      </trkpt>
      <trkpt lat="45.35024" lon="5.72256">
        <ele>1616.4</ele>
        <time>2021-12-19T11:04:45Z</time>
      </trkpt>
      <trkpt lat="45.35023" lon="5.72255">
        <ele>1616.5</ele>
        <time>2021-12-19T11:04:46Z</time>
      </trkpt>
      <trkpt lat="45.35022" lon="5.72255">
        <ele>1616.6</ele>
        <time>2021-12-19T11:04:47Z</time>
      </trkpt>
      <trkpt lat="45.35021" lon="5.72256">
        <ele>1616.7</ele>
        <time>2021-12-19T11:04:48Z</time>
      </trkpt>
      <trkpt lat="45.3502" lon="5.72256">
        <ele>1616.9</ele>
        <time>2021-12-19T11:04:49Z</time>
      </trkpt>
      <trkpt lat="45.35019" lon="5.72256">
        <ele>1617</ele>
        <time>2021-12-19T11:04:50Z</time>
      </trkpt>
      <trkpt lat="45.35018" lon="5.72257">
        <ele>1617.1</ele>
        <time>2021-12-19T11:04:51Z</time>
      </trkpt>
      <trkpt lat="45.35017" lon="5.72257">
        <ele>1617.3</ele>
        <time>2021-12-19T11:04:52Z</time>
      </trkpt>
      <trkpt lat="45.35015" lon="5.72258">
        <ele>1617.4</ele>
        <time>2021-12-19T11:04:53Z</time>
      </trkpt>
      <trkpt lat="45.35014" lon="5.72258">
        <ele>1617.6</ele>
        <time>2021-12-19T11:04:54Z</time>
      </trkpt>
      <trkpt lat="45.35013" lon="5.72258">
        <ele>1617.7</ele>
        <time>2021-12-19T11:04:55Z</time>
      </trkpt>
      <trkpt lat="45.35012" lon="5.72259">
        <ele>1617.8</ele>
        <time>2021-12-19T11:04:56Z</time>
      </trkpt>
      <trkpt lat="45.35011" lon="5.72258">
        <ele>1617.9</ele>
        <time>2021-12-19T11:04:57Z</time>
      </trkpt>
      <trkpt lat="45.3501" lon="5.72259">
        <ele>1618.1</ele>
        <time>2021-12-19T11:04:58Z</time>
      </trkpt>
      <trkpt lat="45.35009" lon="5.72259">
        <ele>1618.2</ele>
        <time>2021-12-19T11:04:59Z</time>
      </trkpt>
      <trkpt lat="45.35008" lon="5.72259">
        <ele>1618.2</ele>
        <time>2021-12-19T11:05:00Z</time>
      </trkpt>
      <trkpt lat="45.35007" lon="5.72259">
        <ele>1618.4</ele>
        <time>2021-12-19T11:05:01Z</time>
      </trkpt>
      <trkpt lat="45.35006" lon="5.72259">
        <ele>1618.4</ele>
        <time>2021-12-19T11:05:02Z</time>
      </trkpt>
      <trkpt lat="45.35005" lon="5.72259">
        <ele>1618.5</ele>
        <time>2021-12-19T11:05:03Z</time>
      </trkpt>
      <trkpt lat="45.35004" lon="5.7226">
        <ele>1618.6</ele>
        <time>2021-12-19T11:05:04Z</time>
      </trkpt>
      <trkpt lat="45.35003" lon="5.7226">
        <ele>1618.7</ele>
        <time>2021-12-19T11:05:05Z</time>
      </trkpt>
      <trkpt lat="45.35002" lon="5.7226">
        <ele>1618.8</ele>
        <time>2021-12-19T11:05:06Z</time>
      </trkpt>
      <trkpt lat="45.35001" lon="5.72261">
        <ele>1618.9</ele>
        <time>2021-12-19T11:05:07Z</time>
      </trkpt>
      <trkpt lat="45.35" lon="5.72261">
        <ele>1619</ele>
        <time>2021-12-19T11:05:08Z</time>
      </trkpt>
      <trkpt lat="45.34999" lon="5.72262">
        <ele>1619.1</ele>
        <time>2021-12-19T11:05:09Z</time>
      </trkpt>
      <trkpt lat="45.34998" lon="5.72262">
        <ele>1619.1</ele>
        <time>2021-12-19T11:05:10Z</time>
      </trkpt>
      <trkpt lat="45.34997" lon="5.72262">
        <ele>1619.2</ele>
        <time>2021-12-19T11:05:11Z</time>
      </trkpt>
      <trkpt lat="45.34996" lon="5.72262">
        <ele>1619.3</ele>
        <time>2021-12-19T11:05:12Z</time>
      </trkpt>
      <trkpt lat="45.34995" lon="5.72262">
        <ele>1619.4</ele>
        <time>2021-12-19T11:05:13Z</time>
      </trkpt>
      <trkpt lat="45.34994" lon="5.72263">
        <ele>1619.4</ele>
        <time>2021-12-19T11:05:14Z</time>
      </trkpt>
      <trkpt lat="45.34994" lon="5.72263">
        <ele>1619.5</ele>
        <time>2021-12-19T11:05:15Z</time>
      </trkpt>
      <trkpt lat="45.34993" lon="5.72263">
        <ele>1619.6</ele>
        <time>2021-12-19T11:05:16Z</time>
      </trkpt>
      <trkpt lat="45.34992" lon="5.72263">
        <ele>1619.7</ele>
        <time>2021-12-19T11:05:17Z</time>
      </trkpt>
      <trkpt lat="45.34991" lon="5.72263">
        <ele>1619.8</ele>
        <time>2021-12-19T11:05:18Z</time>
      </trkpt>
      <trkpt lat="45.3499" lon="5.72264">
        <ele>1619.9</ele>
        <time>2021-12-19T11:05:19Z</time>
      </trkpt>
      <trkpt lat="45.34989" lon="5.72264">
        <ele>1619.9</ele>
        <time>2021-12-19T11:05:20Z</time>
      </trkpt>
      <trkpt lat="45.34988" lon="5.72265">
        <ele>1620</ele>
        <time>2021-12-19T11:05:21Z</time>
      </trkpt>
      <trkpt lat="45.34986" lon="5.72265">
        <ele>1620.1</ele>
        <time>2021-12-19T11:05:22Z</time>
      </trkpt>
      <trkpt lat="45.34985" lon="5.72265">
        <ele>1620.2</ele>
        <time>2021-12-19T11:05:23Z</time>
      </trkpt>
      <trkpt lat="45.34984" lon="5.72266">
        <ele>1620.3</ele>
        <time>2021-12-19T11:05:24Z</time>
      </trkpt>
      <trkpt lat="45.34983" lon="5.72266">
        <ele>1620.4</ele>
        <time>2021-12-19T11:05:25Z</time>
      </trkpt>
      <trkpt lat="45.34982" lon="5.72267">
        <ele>1620.5</ele>
        <time>2021-12-19T11:05:26Z</time>
      </trkpt>
      <trkpt lat="45.34981" lon="5.72267">
        <ele>1620.6</ele>
        <time>2021-12-19T11:05:27Z</time>
      </trkpt>
      <trkpt lat="45.3498" lon="5.72268">
        <ele>1620.7</ele>
        <time>2021-12-19T11:05:28Z</time>
      </trkpt>
      <trkpt lat="45.34979" lon="5.72269">
        <ele>1620.8</ele>
        <time>2021-12-19T11:05:29Z</time>
      </trkpt>
      <trkpt lat="45.34979" lon="5.72269">
        <ele>1620.8</ele>
        <time>2021-12-19T11:05:30Z</time>
      </trkpt>
      <trkpt lat="45.34978" lon="5.72269">
        <ele>1620.9</ele>
        <time>2021-12-19T11:05:31Z</time>
      </trkpt>
      <trkpt lat="45.34977" lon="5.7227">
        <ele>1621</ele>
        <time>2021-12-19T11:05:32Z</time>
      </trkpt>
      <trkpt lat="45.34976" lon="5.7227">
        <ele>1621.1</ele>
        <time>2021-12-19T11:05:33Z</time>
      </trkpt>
      <trkpt lat="45.34975" lon="5.72271">
        <ele>1621.2</ele>
        <time>2021-12-19T11:05:34Z</time>
      </trkpt>
      <trkpt lat="45.34974" lon="5.72271">
        <ele>1621.3</ele>
        <time>2021-12-19T11:05:35Z</time>
      </trkpt>
      <trkpt lat="45.34973" lon="5.72272">
        <ele>1621.4</ele>
        <time>2021-12-19T11:05:36Z</time>
      </trkpt>
      <trkpt lat="45.34972" lon="5.72272">
        <ele>1621.5</ele>
        <time>2021-12-19T11:05:37Z</time>
      </trkpt>
      <trkpt lat="45.34971" lon="5.72272">
        <ele>1621.6</ele>
        <time>2021-12-19T11:05:38Z</time>
      </trkpt>
      <trkpt lat="45.3497" lon="5.72273">
        <ele>1621.7</ele>
        <time>2021-12-19T11:05:39Z</time>
      </trkpt>
      <trkpt lat="45.34969" lon="5.72274">
        <ele>1621.8</ele>
        <time>2021-12-19T11:05:40Z</time>
      </trkpt>
      <trkpt lat="45.34968" lon="5.72274">
        <ele>1621.9</ele>
        <time>2021-12-19T11:05:41Z</time>
      </trkpt>
      <trkpt lat="45.34967" lon="5.72275">
        <ele>1622</ele>
        <time>2021-12-19T11:05:42Z</time>
      </trkpt>
      <trkpt lat="45.34966" lon="5.72276">
        <ele>1622.1</ele>
        <time>2021-12-19T11:05:43Z</time>
      </trkpt>
      <trkpt lat="45.34965" lon="5.72277">
        <ele>1622.2</ele>
        <time>2021-12-19T11:05:44Z</time>
      </trkpt>
      <trkpt lat="45.34964" lon="5.72278">
        <ele>1622.3</ele>
        <time>2021-12-19T11:05:45Z</time>
      </trkpt>
      <trkpt lat="45.34964" lon="5.72278">
        <ele>1622.3</ele>
        <time>2021-12-19T11:05:46Z</time>
      </trkpt>
      <trkpt lat="45.34963" lon="5.72279">
        <ele>1622.4</ele>
        <time>2021-12-19T11:05:47Z</time>
      </trkpt>
      <trkpt lat="45.34962" lon="5.7228">
        <ele>1622.5</ele>
        <time>2021-12-19T11:05:48Z</time>
      </trkpt>
      <trkpt lat="45.34961" lon="5.72281">
        <ele>1622.6</ele>
        <time>2021-12-19T11:05:49Z</time>
      </trkpt>
      <trkpt lat="45.3496" lon="5.72282">
        <ele>1622.7</ele>
        <time>2021-12-19T11:05:50Z</time>
      </trkpt>
      <trkpt lat="45.34959" lon="5.72282">
        <ele>1622.8</ele>
        <time>2021-12-19T11:05:51Z</time>
      </trkpt>
      <trkpt lat="45.34958" lon="5.72283">
        <ele>1622.8</ele>
        <time>2021-12-19T11:05:52Z</time>
      </trkpt>
      <trkpt lat="45.34957" lon="5.72283">
        <ele>1622.9</ele>
        <time>2021-12-19T11:05:53Z</time>
      </trkpt>
      <trkpt lat="45.34956" lon="5.72283">
        <ele>1623</ele>
        <time>2021-12-19T11:05:54Z</time>
      </trkpt>
      <trkpt lat="45.34955" lon="5.72284">
        <ele>1623.1</ele>
        <time>2021-12-19T11:05:55Z</time>
      </trkpt>
      <trkpt lat="45.34954" lon="5.72284">
        <ele>1623.1</ele>
        <time>2021-12-19T11:05:56Z</time>
      </trkpt>
      <trkpt lat="45.34953" lon="5.72284">
        <ele>1623.2</ele>
        <time>2021-12-19T11:05:57Z</time>
      </trkpt>
      <trkpt lat="45.34952" lon="5.72285">
        <ele>1623.3</ele>
        <time>2021-12-19T11:05:58Z</time>
      </trkpt>
      <trkpt lat="45.34951" lon="5.72285">
        <ele>1623.3</ele>
        <time>2021-12-19T11:05:59Z</time>
      </trkpt>
      <trkpt lat="45.34949" lon="5.72285">
        <ele>1623.4</ele>
        <time>2021-12-19T11:06:00Z</time>
      </trkpt>
      <trkpt lat="45.34948" lon="5.72285">
        <ele>1623.4</ele>
        <time>2021-12-19T11:06:01Z</time>
      </trkpt>
      <trkpt lat="45.34947" lon="5.72285">
        <ele>1623.5</ele>
        <time>2021-12-19T11:06:02Z</time>
      </trkpt>
      <trkpt lat="45.34946" lon="5.72285">
        <ele>1623.5</ele>
        <time>2021-12-19T11:06:03Z</time>
      </trkpt>
      <trkpt lat="45.34945" lon="5.72285">
        <ele>1623.6</ele>
        <time>2021-12-19T11:06:04Z</time>
      </trkpt>
      <trkpt lat="45.34944" lon="5.72285">
        <ele>1623.6</ele>
        <time>2021-12-19T11:06:05Z</time>
      </trkpt>
      <trkpt lat="45.34943" lon="5.72285">
        <ele>1623.7</ele>
        <time>2021-12-19T11:06:06Z</time>
      </trkpt>
      <trkpt lat="45.34942" lon="5.72285">
        <ele>1623.7</ele>
        <time>2021-12-19T11:06:07Z</time>
      </trkpt>
      <trkpt lat="45.3494" lon="5.72285">
        <ele>1623.7</ele>
        <time>2021-12-19T11:06:08Z</time>
      </trkpt>
      <trkpt lat="45.34939" lon="5.72285">
        <ele>1623.8</ele>
        <time>2021-12-19T11:06:09Z</time>
      </trkpt>
      <trkpt lat="45.34939" lon="5.72286">
        <ele>1623.8</ele>
        <time>2021-12-19T11:06:10Z</time>
      </trkpt>
      <trkpt lat="45.34938" lon="5.72286">
        <ele>1623.8</ele>
        <time>2021-12-19T11:06:11Z</time>
      </trkpt>
      <trkpt lat="45.34937" lon="5.72286">
        <ele>1623.8</ele>
        <time>2021-12-19T11:06:12Z</time>
      </trkpt>
      <trkpt lat="45.34936" lon="5.72286">
        <ele>1623.9</ele>
        <time>2021-12-19T11:06:13Z</time>
      </trkpt>
      <trkpt lat="45.34935" lon="5.72286">
        <ele>1623.9</ele>
        <time>2021-12-19T11:06:14Z</time>
      </trkpt>
      <trkpt lat="45.34934" lon="5.72285">
        <ele>1623.9</ele>
        <time>2021-12-19T11:06:15Z</time>
      </trkpt>
      <trkpt lat="45.34933" lon="5.72285">
        <ele>1624</ele>
        <time>2021-12-19T11:06:16Z</time>
      </trkpt>
      <trkpt lat="45.34932" lon="5.72285">
        <ele>1624</ele>
        <time>2021-12-19T11:06:17Z</time>
      </trkpt>
      <trkpt lat="45.34931" lon="5.72286">
        <ele>1624</ele>
        <time>2021-12-19T11:06:18Z</time>
      </trkpt>
      <trkpt lat="45.3493" lon="5.72286">
        <ele>1624</ele>
        <time>2021-12-19T11:06:19Z</time>
      </trkpt>
      <trkpt lat="45.34929" lon="5.72286">
        <ele>1624.1</ele>
        <time>2021-12-19T11:06:20Z</time>
      </trkpt>
      <trkpt lat="45.34928" lon="5.72287">
        <ele>1624.1</ele>
        <time>2021-12-19T11:06:21Z</time>
      </trkpt>
      <trkpt lat="45.34927" lon="5.72288">
        <ele>1624.1</ele>
        <time>2021-12-19T11:06:22Z</time>
      </trkpt>
      <trkpt lat="45.34926" lon="5.72288">
        <ele>1624.1</ele>
        <time>2021-12-19T11:06:23Z</time>
      </trkpt>
      <trkpt lat="45.34925" lon="5.72288">
        <ele>1624.2</ele>
        <time>2021-12-19T11:06:24Z</time>
      </trkpt>
      <trkpt lat="45.34924" lon="5.72289">
        <ele>1624.2</ele>
        <time>2021-12-19T11:06:25Z</time>
      </trkpt>
      <trkpt lat="45.34923" lon="5.72289">
        <ele>1624.2</ele>
        <time>2021-12-19T11:06:26Z</time>
      </trkpt>
      <trkpt lat="45.34922" lon="5.7229">
        <ele>1624.3</ele>
        <time>2021-12-19T11:06:27Z</time>
      </trkpt>
      <trkpt lat="45.34921" lon="5.72291">
        <ele>1624.3</ele>
        <time>2021-12-19T11:06:28Z</time>
      </trkpt>
      <trkpt lat="45.3492" lon="5.72292">
        <ele>1624.3</ele>
        <time>2021-12-19T11:06:29Z</time>
      </trkpt>
      <trkpt lat="45.34919" lon="5.72293">
        <ele>1624.4</ele>
        <time>2021-12-19T11:06:30Z</time>
      </trkpt>
      <trkpt lat="45.34918" lon="5.72294">
        <ele>1624.4</ele>
        <time>2021-12-19T11:06:31Z</time>
      </trkpt>
      <trkpt lat="45.34917" lon="5.72295">
        <ele>1624.4</ele>
        <time>2021-12-19T11:06:32Z</time>
      </trkpt>
      <trkpt lat="45.34917" lon="5.72296">
        <ele>1624.5</ele>
        <time>2021-12-19T11:06:33Z</time>
      </trkpt>
      <trkpt lat="45.34916" lon="5.72297">
        <ele>1624.5</ele>
        <time>2021-12-19T11:06:34Z</time>
      </trkpt>
      <trkpt lat="45.34916" lon="5.72298">
        <ele>1624.5</ele>
        <time>2021-12-19T11:06:35Z</time>
      </trkpt>
      <trkpt lat="45.34915" lon="5.72299">
        <ele>1624.6</ele>
        <time>2021-12-19T11:06:36Z</time>
      </trkpt>
      <trkpt lat="45.34914" lon="5.723">
        <ele>1624.6</ele>
        <time>2021-12-19T11:06:37Z</time>
      </trkpt>
      <trkpt lat="45.34913" lon="5.72301">
        <ele>1624.7</ele>
        <time>2021-12-19T11:06:38Z</time>
      </trkpt>
      <trkpt lat="45.34912" lon="5.72302">
        <ele>1624.7</ele>
        <time>2021-12-19T11:06:39Z</time>
      </trkpt>
      <trkpt lat="45.34911" lon="5.72303">
        <ele>1624.8</ele>
        <time>2021-12-19T11:06:40Z</time>
      </trkpt>
      <trkpt lat="45.3491" lon="5.72304">
        <ele>1624.9</ele>
        <time>2021-12-19T11:06:41Z</time>
      </trkpt>
      <trkpt lat="45.34909" lon="5.72304">
        <ele>1624.9</ele>
        <time>2021-12-19T11:06:42Z</time>
      </trkpt>
      <trkpt lat="45.34908" lon="5.72305">
        <ele>1625</ele>
        <time>2021-12-19T11:06:43Z</time>
      </trkpt>
      <trkpt lat="45.34907" lon="5.72305">
        <ele>1625</ele>
        <time>2021-12-19T11:06:44Z</time>
      </trkpt>
      <trkpt lat="45.34906" lon="5.72305">
        <ele>1625.1</ele>
        <time>2021-12-19T11:06:45Z</time>
      </trkpt>
      <trkpt lat="45.34905" lon="5.72305">
        <ele>1625.1</ele>
        <time>2021-12-19T11:06:46Z</time>
      </trkpt>
      <trkpt lat="45.34904" lon="5.72305">
        <ele>1625.2</ele>
        <time>2021-12-19T11:06:47Z</time>
      </trkpt>
      <trkpt lat="45.34903" lon="5.72305">
        <ele>1625.2</ele>
        <time>2021-12-19T11:06:48Z</time>
      </trkpt>
      <trkpt lat="45.34902" lon="5.72306">
        <ele>1625.3</ele>
        <time>2021-12-19T11:06:49Z</time>
      </trkpt>
      <trkpt lat="45.34901" lon="5.72306">
        <ele>1625.4</ele>
        <time>2021-12-19T11:06:50Z</time>
      </trkpt>
      <trkpt lat="45.34899" lon="5.72306">
        <ele>1625.5</ele>
        <time>2021-12-19T11:06:51Z</time>
      </trkpt>
      <trkpt lat="45.34898" lon="5.72306">
        <ele>1625.6</ele>
        <time>2021-12-19T11:06:52Z</time>
      </trkpt>
      <trkpt lat="45.34897" lon="5.72306">
        <ele>1625.7</ele>
        <time>2021-12-19T11:06:53Z</time>
      </trkpt>
      <trkpt lat="45.34896" lon="5.72305">
        <ele>1625.7</ele>
        <time>2021-12-19T11:06:54Z</time>
      </trkpt>
      <trkpt lat="45.34895" lon="5.72305">
        <ele>1625.8</ele>
        <time>2021-12-19T11:06:55Z</time>
      </trkpt>
      <trkpt lat="45.34893" lon="5.72304">
        <ele>1625.9</ele>
        <time>2021-12-19T11:06:56Z</time>
      </trkpt>
      <trkpt lat="45.34892" lon="5.72304">
        <ele>1626</ele>
        <time>2021-12-19T11:06:57Z</time>
      </trkpt>
      <trkpt lat="45.34891" lon="5.72303">
        <ele>1626.1</ele>
        <time>2021-12-19T11:06:58Z</time>
      </trkpt>
      <trkpt lat="45.34889" lon="5.72302">
        <ele>1626.2</ele>
        <time>2021-12-19T11:06:59Z</time>
      </trkpt>
      <trkpt lat="45.34888" lon="5.72302">
        <ele>1626.3</ele>
        <time>2021-12-19T11:07:00Z</time>
      </trkpt>
      <trkpt lat="45.34887" lon="5.72301">
        <ele>1626.4</ele>
        <time>2021-12-19T11:07:01Z</time>
      </trkpt>
      <trkpt lat="45.34885" lon="5.72302">
        <ele>1626.5</ele>
        <time>2021-12-19T11:07:02Z</time>
      </trkpt>
      <trkpt lat="45.34884" lon="5.72302">
        <ele>1626.6</ele>
        <time>2021-12-19T11:07:03Z</time>
      </trkpt>
      <trkpt lat="45.34883" lon="5.72302">
        <ele>1626.7</ele>
        <time>2021-12-19T11:07:04Z</time>
      </trkpt>
      <trkpt lat="45.34881" lon="5.72301">
        <ele>1626.8</ele>
        <time>2021-12-19T11:07:05Z</time>
      </trkpt>
      <trkpt lat="45.3488" lon="5.72301">
        <ele>1626.9</ele>
        <time>2021-12-19T11:07:06Z</time>
      </trkpt>
      <trkpt lat="45.34879" lon="5.723">
        <ele>1627</ele>
        <time>2021-12-19T11:07:07Z</time>
      </trkpt>
      <trkpt lat="45.34878" lon="5.723">
        <ele>1627.1</ele>
        <time>2021-12-19T11:07:08Z</time>
      </trkpt>
      <trkpt lat="45.34877" lon="5.72301">
        <ele>1627.1</ele>
        <time>2021-12-19T11:07:09Z</time>
      </trkpt>
      <trkpt lat="45.34876" lon="5.72302">
        <ele>1627.2</ele>
        <time>2021-12-19T11:07:10Z</time>
      </trkpt>
      <trkpt lat="45.34875" lon="5.72303">
        <ele>1627.3</ele>
        <time>2021-12-19T11:07:11Z</time>
      </trkpt>
      <trkpt lat="45.34874" lon="5.72304">
        <ele>1627.4</ele>
        <time>2021-12-19T11:07:12Z</time>
      </trkpt>
      <trkpt lat="45.34873" lon="5.72305">
        <ele>1627.5</ele>
        <time>2021-12-19T11:07:13Z</time>
      </trkpt>
      <trkpt lat="45.34873" lon="5.72305">
        <ele>1627.5</ele>
        <time>2021-12-19T11:07:14Z</time>
      </trkpt>
      <trkpt lat="45.34872" lon="5.72306">
        <ele>1627.6</ele>
        <time>2021-12-19T11:07:15Z</time>
      </trkpt>
      <trkpt lat="45.34871" lon="5.72307">
        <ele>1627.7</ele>
        <time>2021-12-19T11:07:16Z</time>
      </trkpt>
      <trkpt lat="45.34871" lon="5.72307">
        <ele>1627.7</ele>
        <time>2021-12-19T11:07:17Z</time>
      </trkpt>
      <trkpt lat="45.3487" lon="5.72308">
        <ele>1627.8</ele>
        <time>2021-12-19T11:07:18Z</time>
      </trkpt>
      <trkpt lat="45.34869" lon="5.72308">
        <ele>1627.9</ele>
        <time>2021-12-19T11:07:19Z</time>
      </trkpt>
      <trkpt lat="45.34868" lon="5.72308">
        <ele>1628</ele>
        <time>2021-12-19T11:07:20Z</time>
      </trkpt>
      <trkpt lat="45.34866" lon="5.72308">
        <ele>1628.1</ele>
        <time>2021-12-19T11:07:21Z</time>
      </trkpt>
      <trkpt lat="45.34865" lon="5.72309">
        <ele>1628.2</ele>
        <time>2021-12-19T11:07:22Z</time>
      </trkpt>
      <trkpt lat="45.34864" lon="5.72309">
        <ele>1628.3</ele>
        <time>2021-12-19T11:07:23Z</time>
      </trkpt>
      <trkpt lat="45.34863" lon="5.7231">
        <ele>1628.3</ele>
        <time>2021-12-19T11:07:24Z</time>
      </trkpt>
      <trkpt lat="45.34862" lon="5.7231">
        <ele>1628.4</ele>
        <time>2021-12-19T11:07:25Z</time>
      </trkpt>
      <trkpt lat="45.34861" lon="5.72311">
        <ele>1628.5</ele>
        <time>2021-12-19T11:07:26Z</time>
      </trkpt>
      <trkpt lat="45.3486" lon="5.72311">
        <ele>1628.5</ele>
        <time>2021-12-19T11:07:27Z</time>
      </trkpt>
      <trkpt lat="45.34859" lon="5.72311">
        <ele>1628.6</ele>
        <time>2021-12-19T11:07:28Z</time>
      </trkpt>
      <trkpt lat="45.34859" lon="5.72311">
        <ele>1628.6</ele>
        <time>2021-12-19T11:07:29Z</time>
      </trkpt>
      <trkpt lat="45.34858" lon="5.72311">
        <ele>1628.7</ele>
        <time>2021-12-19T11:07:30Z</time>
      </trkpt>
      <trkpt lat="45.34858" lon="5.72311">
        <ele>1628.7</ele>
        <time>2021-12-19T11:07:31Z</time>
      </trkpt>
      <trkpt lat="45.34858" lon="5.72311">
        <ele>1628.7</ele>
        <time>2021-12-19T11:07:32Z</time>
      </trkpt>
      <trkpt lat="45.34857" lon="5.72312">
        <ele>1628.8</ele>
        <time>2021-12-19T11:07:33Z</time>
      </trkpt>
      <trkpt lat="45.34856" lon="5.72312">
        <ele>1628.8</ele>
        <time>2021-12-19T11:07:34Z</time>
      </trkpt>
      <trkpt lat="45.34856" lon="5.72312">
        <ele>1628.8</ele>
        <time>2021-12-19T11:07:35Z</time>
      </trkpt>
      <trkpt lat="45.34855" lon="5.72313">
        <ele>1628.9</ele>
        <time>2021-12-19T11:07:36Z</time>
      </trkpt>
      <trkpt lat="45.34855" lon="5.72313">
        <ele>1628.9</ele>
        <time>2021-12-19T11:07:37Z</time>
      </trkpt>
      <trkpt lat="45.34854" lon="5.72313">
        <ele>1629</ele>
        <time>2021-12-19T11:07:38Z</time>
      </trkpt>
      <trkpt lat="45.34853" lon="5.72313">
        <ele>1629.1</ele>
        <time>2021-12-19T11:07:39Z</time>
      </trkpt>
      <trkpt lat="45.34852" lon="5.72314">
        <ele>1629.1</ele>
        <time>2021-12-19T11:07:40Z</time>
      </trkpt>
      <trkpt lat="45.34851" lon="5.72314">
        <ele>1629.2</ele>
        <time>2021-12-19T11:07:41Z</time>
      </trkpt>
      <trkpt lat="45.34851" lon="5.72314">
        <ele>1629.2</ele>
        <time>2021-12-19T11:07:42Z</time>
      </trkpt>
      <trkpt lat="45.3485" lon="5.72315">
        <ele>1629.2</ele>
        <time>2021-12-19T11:07:43Z</time>
      </trkpt>
      <trkpt lat="45.34849" lon="5.72315">
        <ele>1629.3</ele>
        <time>2021-12-19T11:07:44Z</time>
      </trkpt>
      <trkpt lat="45.34849" lon="5.72315">
        <ele>1629.3</ele>
        <time>2021-12-19T11:07:45Z</time>
      </trkpt>
      <trkpt lat="45.34848" lon="5.72316">
        <ele>1629.4</ele>
        <time>2021-12-19T11:07:46Z</time>
      </trkpt>
      <trkpt lat="45.34847" lon="5.72316">
        <ele>1629.4</ele>
        <time>2021-12-19T11:07:47Z</time>
      </trkpt>
      <trkpt lat="45.34846" lon="5.72316">
        <ele>1629.5</ele>
        <time>2021-12-19T11:07:48Z</time>
      </trkpt>
      <trkpt lat="45.34845" lon="5.72317">
        <ele>1629.5</ele>
        <time>2021-12-19T11:07:49Z</time>
      </trkpt>
      <trkpt lat="45.34845" lon="5.72317">
        <ele>1629.5</ele>
        <time>2021-12-19T11:07:50Z</time>
      </trkpt>
      <trkpt lat="45.34844" lon="5.72317">
        <ele>1629.6</ele>
        <time>2021-12-19T11:07:51Z</time>
      </trkpt>
      <trkpt lat="45.34843" lon="5.72317">
        <ele>1629.6</ele>
        <time>2021-12-19T11:07:52Z</time>
      </trkpt>
      <trkpt lat="45.34842" lon="5.72317">
        <ele>1629.7</ele>
        <time>2021-12-19T11:07:53Z</time>
      </trkpt>
      <trkpt lat="45.34842" lon="5.72318">
        <ele>1629.7</ele>
        <time>2021-12-19T11:07:54Z</time>
      </trkpt>
      <trkpt lat="45.34841" lon="5.72318">
        <ele>1629.7</ele>
        <time>2021-12-19T11:07:55Z</time>
      </trkpt>
      <trkpt lat="45.3484" lon="5.72318">
        <ele>1629.8</ele>
        <time>2021-12-19T11:07:56Z</time>
      </trkpt>
      <trkpt lat="45.34839" lon="5.72318">
        <ele>1629.8</ele>
        <time>2021-12-19T11:07:57Z</time>
      </trkpt>
      <trkpt lat="45.34839" lon="5.72318">
        <ele>1629.8</ele>
        <time>2021-12-19T11:07:58Z</time>
      </trkpt>
      <trkpt lat="45.34838" lon="5.72318">
        <ele>1629.8</ele>
        <time>2021-12-19T11:07:59Z</time>
      </trkpt>
      <trkpt lat="45.34837" lon="5.72318">
        <ele>1629.9</ele>
        <time>2021-12-19T11:08:00Z</time>
      </trkpt>
      <trkpt lat="45.34835" lon="5.72318">
        <ele>1629.9</ele>
        <time>2021-12-19T11:08:01Z</time>
      </trkpt>
      <trkpt lat="45.34834" lon="5.72319">
        <ele>1629.9</ele>
        <time>2021-12-19T11:08:02Z</time>
      </trkpt>
      <trkpt lat="45.34832" lon="5.72319">
        <ele>1630</ele>
        <time>2021-12-19T11:08:03Z</time>
      </trkpt>
      <trkpt lat="45.34831" lon="5.72319">
        <ele>1630</ele>
        <time>2021-12-19T11:08:04Z</time>
      </trkpt>
      <trkpt lat="45.3483" lon="5.72319">
        <ele>1630.1</ele>
        <time>2021-12-19T11:08:05Z</time>
      </trkpt>
      <trkpt lat="45.34829" lon="5.7232">
        <ele>1630.1</ele>
        <time>2021-12-19T11:08:06Z</time>
      </trkpt>
      <trkpt lat="45.34828" lon="5.7232">
        <ele>1630.1</ele>
        <time>2021-12-19T11:08:07Z</time>
      </trkpt>
      <trkpt lat="45.34826" lon="5.7232">
        <ele>1630.1</ele>
        <time>2021-12-19T11:08:08Z</time>
      </trkpt>
      <trkpt lat="45.34825" lon="5.7232">
        <ele>1630.2</ele>
        <time>2021-12-19T11:08:09Z</time>
      </trkpt>
      <trkpt lat="45.34824" lon="5.7232">
        <ele>1630.2</ele>
        <time>2021-12-19T11:08:10Z</time>
      </trkpt>
      <trkpt lat="45.34823" lon="5.7232">
        <ele>1630.2</ele>
        <time>2021-12-19T11:08:11Z</time>
      </trkpt>
      <trkpt lat="45.34822" lon="5.7232">
        <ele>1630.2</ele>
        <time>2021-12-19T11:08:12Z</time>
      </trkpt>
      <trkpt lat="45.34821" lon="5.72319">
        <ele>1630.3</ele>
        <time>2021-12-19T11:08:13Z</time>
      </trkpt>
      <trkpt lat="45.3482" lon="5.72319">
        <ele>1630.3</ele>
        <time>2021-12-19T11:08:14Z</time>
      </trkpt>
      <trkpt lat="45.34818" lon="5.72318">
        <ele>1630.3</ele>
        <time>2021-12-19T11:08:15Z</time>
      </trkpt>
      <trkpt lat="45.34817" lon="5.72318">
        <ele>1630.3</ele>
        <time>2021-12-19T11:08:16Z</time>
      </trkpt>
      <trkpt lat="45.34817" lon="5.72318">
        <ele>1630.3</ele>
        <time>2021-12-19T11:08:17Z</time>
      </trkpt>
      <trkpt lat="45.34815" lon="5.72318">
        <ele>1630.3</ele>
        <time>2021-12-19T11:08:18Z</time>
      </trkpt>
      <trkpt lat="45.34814" lon="5.72318">
        <ele>1630.4</ele>
        <time>2021-12-19T11:08:19Z</time>
      </trkpt>
      <trkpt lat="45.34813" lon="5.72319">
        <ele>1630.4</ele>
        <time>2021-12-19T11:08:20Z</time>
      </trkpt>
      <trkpt lat="45.34812" lon="5.72319">
        <ele>1630.4</ele>
        <time>2021-12-19T11:08:21Z</time>
      </trkpt>
      <trkpt lat="45.34811" lon="5.72319">
        <ele>1630.4</ele>
        <time>2021-12-19T11:08:22Z</time>
      </trkpt>
      <trkpt lat="45.3481" lon="5.72319">
        <ele>1630.4</ele>
        <time>2021-12-19T11:08:23Z</time>
      </trkpt>
      <trkpt lat="45.34809" lon="5.7232">
        <ele>1630.4</ele>
        <time>2021-12-19T11:08:24Z</time>
      </trkpt>
      <trkpt lat="45.34808" lon="5.7232">
        <ele>1630.4</ele>
        <time>2021-12-19T11:08:25Z</time>
      </trkpt>
      <trkpt lat="45.34807" lon="5.72321">
        <ele>1630.5</ele>
        <time>2021-12-19T11:08:26Z</time>
      </trkpt>
      <trkpt lat="45.34806" lon="5.72321">
        <ele>1630.5</ele>
        <time>2021-12-19T11:08:27Z</time>
      </trkpt>
      <trkpt lat="45.34805" lon="5.72321">
        <ele>1630.5</ele>
        <time>2021-12-19T11:08:28Z</time>
      </trkpt>
      <trkpt lat="45.34804" lon="5.72321">
        <ele>1630.5</ele>
        <time>2021-12-19T11:08:29Z</time>
      </trkpt>
      <trkpt lat="45.34802" lon="5.72322">
        <ele>1630.6</ele>
        <time>2021-12-19T11:08:30Z</time>
      </trkpt>
      <trkpt lat="45.34801" lon="5.72322">
        <ele>1630.6</ele>
        <time>2021-12-19T11:08:31Z</time>
      </trkpt>
      <trkpt lat="45.348" lon="5.72321">
        <ele>1630.7</ele>
        <time>2021-12-19T11:08:32Z</time>
      </trkpt>
      <trkpt lat="45.34798" lon="5.72321">
        <ele>1630.7</ele>
        <time>2021-12-19T11:08:33Z</time>
      </trkpt>
      <trkpt lat="45.34797" lon="5.72321">
        <ele>1630.8</ele>
        <time>2021-12-19T11:08:34Z</time>
      </trkpt>
      <trkpt lat="45.34796" lon="5.7232">
        <ele>1630.8</ele>
        <time>2021-12-19T11:08:35Z</time>
      </trkpt>
      <trkpt lat="45.34795" lon="5.7232">
        <ele>1630.9</ele>
        <time>2021-12-19T11:08:36Z</time>
      </trkpt>
      <trkpt lat="45.34794" lon="5.7232">
        <ele>1631</ele>
        <time>2021-12-19T11:08:37Z</time>
      </trkpt>
      <trkpt lat="45.34793" lon="5.72319">
        <ele>1631</ele>
        <time>2021-12-19T11:08:38Z</time>
      </trkpt>
      <trkpt lat="45.34791" lon="5.72318">
        <ele>1631.1</ele>
        <time>2021-12-19T11:08:39Z</time>
      </trkpt>
      <trkpt lat="45.3479" lon="5.72317">
        <ele>1631.2</ele>
        <time>2021-12-19T11:08:40Z</time>
      </trkpt>
      <trkpt lat="45.3479" lon="5.72316">
        <ele>1631.3</ele>
        <time>2021-12-19T11:08:41Z</time>
      </trkpt>
      <trkpt lat="45.34789" lon="5.72315">
        <ele>1631.3</ele>
        <time>2021-12-19T11:08:42Z</time>
      </trkpt>
      <trkpt lat="45.34788" lon="5.72314">
        <ele>1631.4</ele>
        <time>2021-12-19T11:08:43Z</time>
      </trkpt>
      <trkpt lat="45.34788" lon="5.72314">
        <ele>1631.4</ele>
        <time>2021-12-19T11:08:44Z</time>
      </trkpt>
      <trkpt lat="45.34787" lon="5.72313">
        <ele>1631.5</ele>
        <time>2021-12-19T11:08:45Z</time>
      </trkpt>
      <trkpt lat="45.34787" lon="5.72312">
        <ele>1631.5</ele>
        <time>2021-12-19T11:08:46Z</time>
      </trkpt>
      <trkpt lat="45.34786" lon="5.72311">
        <ele>1631.6</ele>
        <time>2021-12-19T11:08:47Z</time>
      </trkpt>
      <trkpt lat="45.34785" lon="5.7231">
        <ele>1631.6</ele>
        <time>2021-12-19T11:08:48Z</time>
      </trkpt>
      <trkpt lat="45.34785" lon="5.72309">
        <ele>1631.7</ele>
        <time>2021-12-19T11:08:49Z</time>
      </trkpt>
      <trkpt lat="45.34784" lon="5.72309">
        <ele>1631.7</ele>
        <time>2021-12-19T11:08:50Z</time>
      </trkpt>
      <trkpt lat="45.34784" lon="5.72309">
        <ele>1631.7</ele>
        <time>2021-12-19T11:08:51Z</time>
      </trkpt>
      <trkpt lat="45.34784" lon="5.72309">
        <ele>1631.7</ele>
        <time>2021-12-19T11:08:52Z</time>
      </trkpt>
      <trkpt lat="45.34784" lon="5.7231">
        <ele>1631.8</ele>
        <time>2021-12-19T11:08:53Z</time>
      </trkpt>
      <trkpt lat="45.34784" lon="5.7231">
        <ele>1631.8</ele>
        <time>2021-12-19T11:08:54Z</time>
      </trkpt>
      <trkpt lat="45.34784" lon="5.7231">
        <ele>1631.8</ele>
        <time>2021-12-19T11:08:55Z</time>
      </trkpt>
      <trkpt lat="45.34784" lon="5.7231">
        <ele>1631.8</ele>
        <time>2021-12-19T11:08:56Z</time>
      </trkpt>
      <trkpt lat="45.34784" lon="5.7231">
        <ele>1631.8</ele>
        <time>2021-12-19T11:08:57Z</time>
      </trkpt>
      <trkpt lat="45.34784" lon="5.7231">
        <ele>1631.8</ele>
        <time>2021-12-19T11:08:58Z</time>
      </trkpt>
      <trkpt lat="45.34784" lon="5.7231">
        <ele>1631.8</ele>
        <time>2021-12-19T11:08:59Z</time>
      </trkpt>
      <trkpt lat="45.34784" lon="5.7231">
        <ele>1631.8</ele>
        <time>2021-12-19T11:09:00Z</time>
      </trkpt>
      <trkpt lat="45.34784" lon="5.7231">
        <ele>1631.8</ele>
        <time>2021-12-19T11:09:01Z</time>
      </trkpt>
      <trkpt lat="45.34784" lon="5.7231">
        <ele>1631.8</ele>
        <time>2021-12-19T11:09:02Z</time>
      </trkpt>
      <trkpt lat="45.34784" lon="5.7231">
        <ele>1631.8</ele>
        <time>2021-12-19T11:09:03Z</time>
      </trkpt>
      <trkpt lat="45.34784" lon="5.7231">
        <ele>1631.8</ele>
        <time>2021-12-19T11:09:04Z</time>
      </trkpt>
      <trkpt lat="45.34784" lon="5.7231">
        <ele>1631.8</ele>
        <time>2021-12-19T11:09:05Z</time>
      </trkpt>
      <trkpt lat="45.34784" lon="5.7231">
        <ele>1631.8</ele>
        <time>2021-12-19T11:09:06Z</time>
      </trkpt>
      <trkpt lat="45.34784" lon="5.7231">
        <ele>1631.8</ele>
        <time>2021-12-19T11:09:07Z</time>
      </trkpt>
      <trkpt lat="45.34784" lon="5.7231">
        <ele>1631.8</ele>
        <time>2021-12-19T11:09:08Z</time>
      </trkpt>
      <trkpt lat="45.34784" lon="5.7231">
        <ele>1631.8</ele>
        <time>2021-12-19T11:09:09Z</time>
      </trkpt>
      <trkpt lat="45.34784" lon="5.7231">
        <ele>1631.8</ele>
        <time>2021-12-19T11:09:10Z</time>
      </trkpt>
      <trkpt lat="45.34784" lon="5.72309">
        <ele>1631.9</ele>
        <time>2021-12-19T11:09:11Z</time>
      </trkpt>
      <trkpt lat="45.34783" lon="5.72309">
        <ele>1631.9</ele>
        <time>2021-12-19T11:09:12Z</time>
      </trkpt>
      <trkpt lat="45.34783" lon="5.72309">
        <ele>1631.9</ele>
        <time>2021-12-19T11:09:13Z</time>
      </trkpt>
      <trkpt lat="45.34784" lon="5.72309">
        <ele>1631.9</ele>
        <time>2021-12-19T11:09:14Z</time>
      </trkpt>
      <trkpt lat="45.34784" lon="5.72309">
        <ele>1631.9</ele>
        <time>2021-12-19T11:09:15Z</time>
      </trkpt>
      <trkpt lat="45.34784" lon="5.72309">
        <ele>1631.9</ele>
        <time>2021-12-19T11:09:16Z</time>
      </trkpt>
      <trkpt lat="45.34784" lon="5.72309">
        <ele>1631.9</ele>
        <time>2021-12-19T11:09:17Z</time>
      </trkpt>
      <trkpt lat="45.34784" lon="5.72309">
        <ele>1631.9</ele>
        <time>2021-12-19T11:09:18Z</time>
      </trkpt>
      <trkpt lat="45.34784" lon="5.72309">
        <ele>1631.9</ele>
        <time>2021-12-19T11:09:19Z</time>
      </trkpt>
      <trkpt lat="45.34784" lon="5.72309">
        <ele>1631.9</ele>
        <time>2021-12-19T11:09:20Z</time>
      </trkpt>
      <trkpt lat="45.34784" lon="5.72309">
        <ele>1631.9</ele>
        <time>2021-12-19T11:09:21Z</time>
      </trkpt>
      <trkpt lat="45.34784" lon="5.72309">
        <ele>1631.9</ele>
        <time>2021-12-19T11:09:22Z</time>
      </trkpt>
      <trkpt lat="45.34783" lon="5.72309">
        <ele>1631.9</ele>
        <time>2021-12-19T11:09:23Z</time>
      </trkpt>
      <trkpt lat="45.34783" lon="5.72309">
        <ele>1631.9</ele>
        <time>2021-12-19T11:09:24Z</time>
      </trkpt>
      <trkpt lat="45.34783" lon="5.72309">
        <ele>1631.9</ele>
        <time>2021-12-19T11:09:25Z</time>
      </trkpt>
      <trkpt lat="45.34783" lon="5.72309">
        <ele>1631.9</ele>
        <time>2021-12-19T11:09:26Z</time>
      </trkpt>
      <trkpt lat="45.34783" lon="5.72309">
        <ele>1631.9</ele>
        <time>2021-12-19T11:09:27Z</time>
      </trkpt>
      <trkpt lat="45.34783" lon="5.72309">
        <ele>1631.9</ele>
        <time>2021-12-19T11:09:28Z</time>
      </trkpt>
      <trkpt lat="45.34783" lon="5.72309">
        <ele>1631.9</ele>
        <time>2021-12-19T11:09:29Z</time>
      </trkpt>
      <trkpt lat="45.34783" lon="5.72309">
        <ele>1631.9</ele>
        <time>2021-12-19T11:09:30Z</time>
      </trkpt>
      <trkpt lat="45.34783" lon="5.72309">
        <ele>1631.9</ele>
        <time>2021-12-19T11:09:31Z</time>
      </trkpt>
      <trkpt lat="45.34783" lon="5.72309">
        <ele>1631.9</ele>
        <time>2021-12-19T11:09:32Z</time>
      </trkpt>
      <trkpt lat="45.34783" lon="5.72309">
        <ele>1631.9</ele>
        <time>2021-12-19T11:09:33Z</time>
      </trkpt>
      <trkpt lat="45.34783" lon="5.72309">
        <ele>1631.9</ele>
        <time>2021-12-19T11:09:34Z</time>
      </trkpt>
      <trkpt lat="45.34783" lon="5.72309">
        <ele>1631.9</ele>
        <time>2021-12-19T11:09:35Z</time>
      </trkpt>
      <trkpt lat="45.34783" lon="5.72309">
        <ele>1631.9</ele>
        <time>2021-12-19T11:09:36Z</time>
      </trkpt>
      <trkpt lat="45.34783" lon="5.72309">
        <ele>1631.9</ele>
        <time>2021-12-19T11:09:37Z</time>
      </trkpt>
      <trkpt lat="45.34783" lon="5.72309">
        <ele>1631.9</ele>
        <time>2021-12-19T11:09:38Z</time>
      </trkpt>
      <trkpt lat="45.34783" lon="5.72309">
        <ele>1631.9</ele>
        <time>2021-12-19T11:09:39Z</time>
      </trkpt>
      <trkpt lat="45.34783" lon="5.72309">
        <ele>1631.9</ele>
        <time>2021-12-19T11:09:40Z</time>
      </trkpt>
      <trkpt lat="45.34783" lon="5.72309">
        <ele>1631.9</ele>
        <time>2021-12-19T11:09:41Z</time>
      </trkpt>
      <trkpt lat="45.34783" lon="5.72309">
        <ele>1631.9</ele>
        <time>2021-12-19T11:09:42Z</time>
      </trkpt>
      <trkpt lat="45.34783" lon="5.72309">
        <ele>1631.9</ele>
        <time>2021-12-19T11:09:43Z</time>
      </trkpt>
      <trkpt lat="45.34783" lon="5.72309">
        <ele>1631.9</ele>
        <time>2021-12-19T11:09:44Z</time>
      </trkpt>
      <trkpt lat="45.34783" lon="5.72309">
        <ele>1631.9</ele>
        <time>2021-12-19T11:09:45Z</time>
      </trkpt>
      <trkpt lat="45.34783" lon="5.72309">
        <ele>1631.9</ele>
        <time>2021-12-19T11:09:46Z</time>
      </trkpt>
      <trkpt lat="45.34783" lon="5.72309">
        <ele>1631.9</ele>
        <time>2021-12-19T11:09:47Z</time>
      </trkpt>
      <trkpt lat="45.34783" lon="5.72309">
        <ele>1631.9</ele>
        <time>2021-12-19T11:09:48Z</time>
      </trkpt>
      <trkpt lat="45.34783" lon="5.72309">
        <ele>1631.9</ele>
        <time>2021-12-19T11:09:49Z</time>
      </trkpt>
      <trkpt lat="45.34783" lon="5.72309">
        <ele>1631.9</ele>
        <time>2021-12-19T11:09:50Z</time>
      </trkpt>
      <trkpt lat="45.34783" lon="5.72309">
        <ele>1631.9</ele>
        <time>2021-12-19T11:09:51Z</time>
      </trkpt>
      <trkpt lat="45.34783" lon="5.72309">
        <ele>1631.9</ele>
        <time>2021-12-19T11:09:52Z</time>
      </trkpt>
      <trkpt lat="45.34783" lon="5.72309">
        <ele>1631.9</ele>
        <time>2021-12-19T11:09:53Z</time>
      </trkpt>
      <trkpt lat="45.34783" lon="5.72309">
        <ele>1631.9</ele>
        <time>2021-12-19T11:09:54Z</time>
      </trkpt>
      <trkpt lat="45.34783" lon="5.72309">
        <ele>1631.9</ele>
        <time>2021-12-19T11:09:55Z</time>
      </trkpt>
      <trkpt lat="45.34783" lon="5.72309">
        <ele>1631.9</ele>
        <time>2021-12-19T11:09:56Z</time>
      </trkpt>
      <trkpt lat="45.34783" lon="5.72309">
        <ele>1631.9</ele>
        <time>2021-12-19T11:09:57Z</time>
      </trkpt>
      <trkpt lat="45.34783" lon="5.72309">
        <ele>1631.9</ele>
        <time>2021-12-19T11:09:58Z</time>
      </trkpt>
      <trkpt lat="45.34783" lon="5.72309">
        <ele>1631.9</ele>
        <time>2021-12-19T11:09:59Z</time>
      </trkpt>
      <trkpt lat="45.34783" lon="5.72309">
        <ele>1631.9</ele>
        <time>2021-12-19T11:10:00Z</time>
      </trkpt>
      <trkpt lat="45.34783" lon="5.72309">
        <ele>1631.9</ele>
        <time>2021-12-19T11:10:01Z</time>
      </trkpt>
      <trkpt lat="45.34784" lon="5.72309">
        <ele>1631.9</ele>
        <time>2021-12-19T11:10:02Z</time>
      </trkpt>
      <trkpt lat="45.34784" lon="5.72309">
        <ele>1631.9</ele>
        <time>2021-12-19T11:10:03Z</time>
      </trkpt>
      <trkpt lat="45.34784" lon="5.72309">
        <ele>1631.9</ele>
        <time>2021-12-19T11:10:04Z</time>
      </trkpt>
      <trkpt lat="45.34784" lon="5.72309">
        <ele>1631.9</ele>
        <time>2021-12-19T11:10:05Z</time>
      </trkpt>
      <trkpt lat="45.34784" lon="5.72309">
        <ele>1631.9</ele>
        <time>2021-12-19T11:10:06Z</time>
      </trkpt>
      <trkpt lat="45.34784" lon="5.72309">
        <ele>1631.9</ele>
        <time>2021-12-19T11:10:07Z</time>
      </trkpt>
      <trkpt lat="45.34784" lon="5.72309">
        <ele>1632</ele>
        <time>2021-12-19T11:10:08Z</time>
      </trkpt>
      <trkpt lat="45.34784" lon="5.72308">
        <ele>1632</ele>
        <time>2021-12-19T11:10:09Z</time>
      </trkpt>
      <trkpt lat="45.34784" lon="5.72308">
        <ele>1632</ele>
        <time>2021-12-19T11:10:10Z</time>
      </trkpt>
      <trkpt lat="45.34784" lon="5.72308">
        <ele>1632</ele>
        <time>2021-12-19T11:10:11Z</time>
      </trkpt>
      <trkpt lat="45.34784" lon="5.72308">
        <ele>1632</ele>
        <time>2021-12-19T11:10:12Z</time>
      </trkpt>
      <trkpt lat="45.34784" lon="5.72308">
        <ele>1632</ele>
        <time>2021-12-19T11:10:13Z</time>
      </trkpt>
      <trkpt lat="45.34784" lon="5.72308">
        <ele>1632</ele>
        <time>2021-12-19T11:10:14Z</time>
      </trkpt>
      <trkpt lat="45.34784" lon="5.72308">
        <ele>1632</ele>
        <time>2021-12-19T11:10:15Z</time>
      </trkpt>
      <trkpt lat="45.34784" lon="5.72308">
        <ele>1632</ele>
        <time>2021-12-19T11:10:16Z</time>
      </trkpt>
      <trkpt lat="45.34784" lon="5.72308">
        <ele>1632</ele>
        <time>2021-12-19T11:10:17Z</time>
      </trkpt>
      <trkpt lat="45.34784" lon="5.72308">
        <ele>1632</ele>
        <time>2021-12-19T11:10:18Z</time>
      </trkpt>
      <trkpt lat="45.34784" lon="5.72308">
        <ele>1632</ele>
        <time>2021-12-19T11:10:19Z</time>
      </trkpt>
      <trkpt lat="45.34783" lon="5.72308">
        <ele>1632</ele>
        <time>2021-12-19T11:10:20Z</time>
      </trkpt>
      <trkpt lat="45.34783" lon="5.72308">
        <ele>1632</ele>
        <time>2021-12-19T11:10:21Z</time>
      </trkpt>
      <trkpt lat="45.34783" lon="5.72308">
        <ele>1632</ele>
        <time>2021-12-19T11:10:22Z</time>
      </trkpt>
      <trkpt lat="45.34783" lon="5.72308">
        <ele>1632</ele>
        <time>2021-12-19T11:10:23Z</time>
      </trkpt>
      <trkpt lat="45.34783" lon="5.72308">
        <ele>1632</ele>
        <time>2021-12-19T11:10:24Z</time>
      </trkpt>
      <trkpt lat="45.34783" lon="5.72307">
        <ele>1632</ele>
        <time>2021-12-19T11:10:25Z</time>
      </trkpt>
      <trkpt lat="45.34783" lon="5.72307">
        <ele>1632</ele>
        <time>2021-12-19T11:10:26Z</time>
      </trkpt>
      <trkpt lat="45.34783" lon="5.72308">
        <ele>1632</ele>
        <time>2021-12-19T11:10:27Z</time>
      </trkpt>
      <trkpt lat="45.34783" lon="5.72308">
        <ele>1632</ele>
        <time>2021-12-19T11:10:28Z</time>
      </trkpt>
      <trkpt lat="45.34783" lon="5.72308">
        <ele>1632.1</ele>
        <time>2021-12-19T11:10:29Z</time>
      </trkpt>
      <trkpt lat="45.34783" lon="5.72308">
        <ele>1632.1</ele>
        <time>2021-12-19T11:10:30Z</time>
      </trkpt>
      <trkpt lat="45.34783" lon="5.72308">
        <ele>1632.1</ele>
        <time>2021-12-19T11:10:31Z</time>
      </trkpt>
      <trkpt lat="45.34783" lon="5.72307">
        <ele>1632.1</ele>
        <time>2021-12-19T11:10:32Z</time>
      </trkpt>
      <trkpt lat="45.34783" lon="5.72307">
        <ele>1632.1</ele>
        <time>2021-12-19T11:10:33Z</time>
      </trkpt>
      <trkpt lat="45.34783" lon="5.72307">
        <ele>1632.1</ele>
        <time>2021-12-19T11:10:34Z</time>
      </trkpt>
      <trkpt lat="45.34783" lon="5.72307">
        <ele>1632.1</ele>
        <time>2021-12-19T11:10:35Z</time>
      </trkpt>
      <trkpt lat="45.34783" lon="5.72307">
        <ele>1632.1</ele>
        <time>2021-12-19T11:10:36Z</time>
      </trkpt>
      <trkpt lat="45.34783" lon="5.72307">
        <ele>1632.1</ele>
        <time>2021-12-19T11:10:37Z</time>
      </trkpt>
      <trkpt lat="45.34783" lon="5.72307">
        <ele>1632.1</ele>
        <time>2021-12-19T11:10:38Z</time>
      </trkpt>
      <trkpt lat="45.34783" lon="5.72307">
        <ele>1632.1</ele>
        <time>2021-12-19T11:10:39Z</time>
      </trkpt>
      <trkpt lat="45.34783" lon="5.72307">
        <ele>1632.1</ele>
        <time>2021-12-19T11:10:40Z</time>
      </trkpt>
      <trkpt lat="45.34783" lon="5.72307">
        <ele>1632.1</ele>
        <time>2021-12-19T11:10:41Z</time>
      </trkpt>
      <trkpt lat="45.34783" lon="5.72307">
        <ele>1632.1</ele>
        <time>2021-12-19T11:10:42Z</time>
      </trkpt>
      <trkpt lat="45.34783" lon="5.72307">
        <ele>1632.1</ele>
        <time>2021-12-19T11:10:43Z</time>
      </trkpt>
      <trkpt lat="45.34783" lon="5.72307">
        <ele>1632.1</ele>
        <time>2021-12-19T11:10:44Z</time>
      </trkpt>
      <trkpt lat="45.34783" lon="5.72307">
        <ele>1632.1</ele>
        <time>2021-12-19T11:10:45Z</time>
      </trkpt>
      <trkpt lat="45.34783" lon="5.72307">
        <ele>1632.1</ele>
        <time>2021-12-19T11:10:46Z</time>
      </trkpt>
      <trkpt lat="45.34783" lon="5.72307">
        <ele>1632.1</ele>
        <time>2021-12-19T11:10:47Z</time>
      </trkpt>
      <trkpt lat="45.34783" lon="5.72307">
        <ele>1632.1</ele>
        <time>2021-12-19T11:10:48Z</time>
      </trkpt>
      <trkpt lat="45.34783" lon="5.72307">
        <ele>1632.1</ele>
        <time>2021-12-19T11:10:49Z</time>
      </trkpt>
      <trkpt lat="45.34783" lon="5.72307">
        <ele>1632.1</ele>
        <time>2021-12-19T11:10:50Z</time>
      </trkpt>
      <trkpt lat="45.34783" lon="5.72307">
        <ele>1632.1</ele>
        <time>2021-12-19T11:10:51Z</time>
      </trkpt>
      <trkpt lat="45.34782" lon="5.72308">
        <ele>1632.2</ele>
        <time>2021-12-19T11:10:52Z</time>
      </trkpt>
      <trkpt lat="45.34782" lon="5.72307">
        <ele>1632.2</ele>
        <time>2021-12-19T11:10:53Z</time>
      </trkpt>
      <trkpt lat="45.34781" lon="5.72306">
        <ele>1632.2</ele>
        <time>2021-12-19T11:10:54Z</time>
      </trkpt>
      <trkpt lat="45.34779" lon="5.72305">
        <ele>1632.3</ele>
        <time>2021-12-19T11:10:55Z</time>
      </trkpt>
      <trkpt lat="45.34778" lon="5.72305">
        <ele>1632.3</ele>
        <time>2021-12-19T11:10:56Z</time>
      </trkpt>
      <trkpt lat="45.34777" lon="5.72304">
        <ele>1632.4</ele>
        <time>2021-12-19T11:10:57Z</time>
      </trkpt>
      <trkpt lat="45.34776" lon="5.72303">
        <ele>1632.4</ele>
        <time>2021-12-19T11:10:58Z</time>
      </trkpt>
      <trkpt lat="45.34774" lon="5.72303">
        <ele>1632.5</ele>
        <time>2021-12-19T11:10:59Z</time>
      </trkpt>
      <trkpt lat="45.34773" lon="5.72302">
        <ele>1632.5</ele>
        <time>2021-12-19T11:11:00Z</time>
      </trkpt>
      <trkpt lat="45.34772" lon="5.72302">
        <ele>1632.6</ele>
        <time>2021-12-19T11:11:01Z</time>
      </trkpt>
      <trkpt lat="45.34771" lon="5.72301">
        <ele>1632.6</ele>
        <time>2021-12-19T11:11:02Z</time>
      </trkpt>
      <trkpt lat="45.3477" lon="5.72301">
        <ele>1632.6</ele>
        <time>2021-12-19T11:11:03Z</time>
      </trkpt>
      <trkpt lat="45.34769" lon="5.723">
        <ele>1632.7</ele>
        <time>2021-12-19T11:11:04Z</time>
      </trkpt>
      <trkpt lat="45.34768" lon="5.72299">
        <ele>1632.7</ele>
        <time>2021-12-19T11:11:05Z</time>
      </trkpt>
      <trkpt lat="45.34767" lon="5.72299">
        <ele>1632.7</ele>
        <time>2021-12-19T11:11:06Z</time>
      </trkpt>
      <trkpt lat="45.34765" lon="5.72298">
        <ele>1632.7</ele>
        <time>2021-12-19T11:11:07Z</time>
      </trkpt>
      <trkpt lat="45.34764" lon="5.72298">
        <ele>1632.7</ele>
        <time>2021-12-19T11:11:08Z</time>
      </trkpt>
      <trkpt lat="45.34763" lon="5.72297">
        <ele>1632.8</ele>
        <time>2021-12-19T11:11:09Z</time>
      </trkpt>
      <trkpt lat="45.34762" lon="5.72296">
        <ele>1632.8</ele>
        <time>2021-12-19T11:11:10Z</time>
      </trkpt>
      <trkpt lat="45.34761" lon="5.72296">
        <ele>1632.8</ele>
        <time>2021-12-19T11:11:11Z</time>
      </trkpt>
      <trkpt lat="45.34759" lon="5.72295">
        <ele>1632.8</ele>
        <time>2021-12-19T11:11:12Z</time>
      </trkpt>
      <trkpt lat="45.34758" lon="5.72295">
        <ele>1632.8</ele>
        <time>2021-12-19T11:11:13Z</time>
      </trkpt>
      <trkpt lat="45.34757" lon="5.72294">
        <ele>1632.8</ele>
        <time>2021-12-19T11:11:14Z</time>
      </trkpt>
      <trkpt lat="45.34756" lon="5.72294">
        <ele>1632.8</ele>
        <time>2021-12-19T11:11:15Z</time>
      </trkpt>
      <trkpt lat="45.34755" lon="5.72294">
        <ele>1632.8</ele>
        <time>2021-12-19T11:11:16Z</time>
      </trkpt>
      <trkpt lat="45.34754" lon="5.72293">
        <ele>1632.8</ele>
        <time>2021-12-19T11:11:17Z</time>
      </trkpt>
      <trkpt lat="45.34753" lon="5.72293">
        <ele>1632.8</ele>
        <time>2021-12-19T11:11:18Z</time>
      </trkpt>
      <trkpt lat="45.34752" lon="5.72293">
        <ele>1632.8</ele>
        <time>2021-12-19T11:11:19Z</time>
      </trkpt>
      <trkpt lat="45.34751" lon="5.72292">
        <ele>1632.7</ele>
        <time>2021-12-19T11:11:20Z</time>
      </trkpt>
      <trkpt lat="45.3475" lon="5.72292">
        <ele>1632.7</ele>
        <time>2021-12-19T11:11:21Z</time>
      </trkpt>
      <trkpt lat="45.34749" lon="5.72292">
        <ele>1632.7</ele>
        <time>2021-12-19T11:11:22Z</time>
      </trkpt>
      <trkpt lat="45.34748" lon="5.72292">
        <ele>1632.7</ele>
        <time>2021-12-19T11:11:23Z</time>
      </trkpt>
      <trkpt lat="45.34747" lon="5.72292">
        <ele>1632.7</ele>
        <time>2021-12-19T11:11:24Z</time>
      </trkpt>
      <trkpt lat="45.34746" lon="5.72291">
        <ele>1632.7</ele>
        <time>2021-12-19T11:11:25Z</time>
      </trkpt>
      <trkpt lat="45.34745" lon="5.72291">
        <ele>1632.7</ele>
        <time>2021-12-19T11:11:26Z</time>
      </trkpt>
      <trkpt lat="45.34744" lon="5.72291">
        <ele>1632.6</ele>
        <time>2021-12-19T11:11:27Z</time>
      </trkpt>
      <trkpt lat="45.34743" lon="5.72291">
        <ele>1632.6</ele>
        <time>2021-12-19T11:11:28Z</time>
      </trkpt>
      <trkpt lat="45.34741" lon="5.72291">
        <ele>1632.6</ele>
        <time>2021-12-19T11:11:29Z</time>
      </trkpt>
      <trkpt lat="45.3474" lon="5.72291">
        <ele>1632.6</ele>
        <time>2021-12-19T11:11:30Z</time>
      </trkpt>
      <trkpt lat="45.34739" lon="5.72291">
        <ele>1632.6</ele>
        <time>2021-12-19T11:11:31Z</time>
      </trkpt>
      <trkpt lat="45.34738" lon="5.72291">
        <ele>1632.6</ele>
        <time>2021-12-19T11:11:32Z</time>
      </trkpt>
      <trkpt lat="45.34737" lon="5.72291">
        <ele>1632.7</ele>
        <time>2021-12-19T11:11:33Z</time>
      </trkpt>
      <trkpt lat="45.34736" lon="5.72291">
        <ele>1632.7</ele>
        <time>2021-12-19T11:11:34Z</time>
      </trkpt>
      <trkpt lat="45.34735" lon="5.72291">
        <ele>1632.7</ele>
        <time>2021-12-19T11:11:35Z</time>
      </trkpt>
      <trkpt lat="45.34734" lon="5.72291">
        <ele>1632.7</ele>
        <time>2021-12-19T11:11:36Z</time>
      </trkpt>
      <trkpt lat="45.34732" lon="5.72291">
        <ele>1632.8</ele>
        <time>2021-12-19T11:11:37Z</time>
      </trkpt>
      <trkpt lat="45.34731" lon="5.72291">
        <ele>1632.8</ele>
        <time>2021-12-19T11:11:38Z</time>
      </trkpt>
      <trkpt lat="45.3473" lon="5.72291">
        <ele>1632.9</ele>
        <time>2021-12-19T11:11:39Z</time>
      </trkpt>
      <trkpt lat="45.34729" lon="5.72291">
        <ele>1632.9</ele>
        <time>2021-12-19T11:11:40Z</time>
      </trkpt>
      <trkpt lat="45.34728" lon="5.7229">
        <ele>1633</ele>
        <time>2021-12-19T11:11:41Z</time>
      </trkpt>
      <trkpt lat="45.34727" lon="5.7229">
        <ele>1633</ele>
        <time>2021-12-19T11:11:42Z</time>
      </trkpt>
      <trkpt lat="45.34726" lon="5.72289">
        <ele>1633.1</ele>
        <time>2021-12-19T11:11:43Z</time>
      </trkpt>
      <trkpt lat="45.34725" lon="5.72289">
        <ele>1633.2</ele>
        <time>2021-12-19T11:11:44Z</time>
      </trkpt>
      <trkpt lat="45.34724" lon="5.72289">
        <ele>1633.2</ele>
        <time>2021-12-19T11:11:45Z</time>
      </trkpt>
      <trkpt lat="45.34724" lon="5.72289">
        <ele>1633.3</ele>
        <time>2021-12-19T11:11:46Z</time>
      </trkpt>
      <trkpt lat="45.34723" lon="5.72289">
        <ele>1633.3</ele>
        <time>2021-12-19T11:11:47Z</time>
      </trkpt>
      <trkpt lat="45.34722" lon="5.72288">
        <ele>1633.4</ele>
        <time>2021-12-19T11:11:48Z</time>
      </trkpt>
      <trkpt lat="45.34721" lon="5.72288">
        <ele>1633.5</ele>
        <time>2021-12-19T11:11:49Z</time>
      </trkpt>
      <trkpt lat="45.34721" lon="5.72288">
        <ele>1633.5</ele>
        <time>2021-12-19T11:11:50Z</time>
      </trkpt>
      <trkpt lat="45.3472" lon="5.72288">
        <ele>1633.6</ele>
        <time>2021-12-19T11:11:51Z</time>
      </trkpt>
      <trkpt lat="45.34719" lon="5.72288">
        <ele>1633.6</ele>
        <time>2021-12-19T11:11:52Z</time>
      </trkpt>
      <trkpt lat="45.34718" lon="5.72288">
        <ele>1633.7</ele>
        <time>2021-12-19T11:11:53Z</time>
      </trkpt>
      <trkpt lat="45.34717" lon="5.72288">
        <ele>1633.8</ele>
        <time>2021-12-19T11:11:54Z</time>
      </trkpt>
      <trkpt lat="45.34717" lon="5.72287">
        <ele>1633.8</ele>
        <time>2021-12-19T11:11:55Z</time>
      </trkpt>
      <trkpt lat="45.34716" lon="5.72287">
        <ele>1633.9</ele>
        <time>2021-12-19T11:11:56Z</time>
      </trkpt>
      <trkpt lat="45.34715" lon="5.72287">
        <ele>1634</ele>
        <time>2021-12-19T11:11:57Z</time>
      </trkpt>
      <trkpt lat="45.34714" lon="5.72287">
        <ele>1634</ele>
        <time>2021-12-19T11:11:58Z</time>
      </trkpt>
      <trkpt lat="45.34713" lon="5.72287">
        <ele>1634.1</ele>
        <time>2021-12-19T11:11:59Z</time>
      </trkpt>
      <trkpt lat="45.34713" lon="5.72287">
        <ele>1634.1</ele>
        <time>2021-12-19T11:12:00Z</time>
      </trkpt>
      <trkpt lat="45.34712" lon="5.72287">
        <ele>1634.2</ele>
        <time>2021-12-19T11:12:01Z</time>
      </trkpt>
      <trkpt lat="45.34711" lon="5.72287">
        <ele>1634.3</ele>
        <time>2021-12-19T11:12:02Z</time>
      </trkpt>
      <trkpt lat="45.3471" lon="5.72287">
        <ele>1634.4</ele>
        <time>2021-12-19T11:12:03Z</time>
      </trkpt>
      <trkpt lat="45.34709" lon="5.72287">
        <ele>1634.4</ele>
        <time>2021-12-19T11:12:04Z</time>
      </trkpt>
      <trkpt lat="45.34708" lon="5.72287">
        <ele>1634.5</ele>
        <time>2021-12-19T11:12:05Z</time>
      </trkpt>
      <trkpt lat="45.34707" lon="5.72287">
        <ele>1634.6</ele>
        <time>2021-12-19T11:12:06Z</time>
      </trkpt>
      <trkpt lat="45.34706" lon="5.72287">
        <ele>1634.6</ele>
        <time>2021-12-19T11:12:07Z</time>
      </trkpt>
      <trkpt lat="45.34705" lon="5.72287">
        <ele>1634.7</ele>
        <time>2021-12-19T11:12:08Z</time>
      </trkpt>
      <trkpt lat="45.34704" lon="5.72288">
        <ele>1634.8</ele>
        <time>2021-12-19T11:12:09Z</time>
      </trkpt>
      <trkpt lat="45.34702" lon="5.72288">
        <ele>1634.9</ele>
        <time>2021-12-19T11:12:10Z</time>
      </trkpt>
      <trkpt lat="45.34702" lon="5.72288">
        <ele>1634.9</ele>
        <time>2021-12-19T11:12:11Z</time>
      </trkpt>
      <trkpt lat="45.34701" lon="5.72288">
        <ele>1635</ele>
        <time>2021-12-19T11:12:12Z</time>
      </trkpt>
      <trkpt lat="45.34699" lon="5.72288">
        <ele>1635</ele>
        <time>2021-12-19T11:12:13Z</time>
      </trkpt>
      <trkpt lat="45.34699" lon="5.72289">
        <ele>1635.1</ele>
        <time>2021-12-19T11:12:14Z</time>
      </trkpt>
      <trkpt lat="45.34698" lon="5.72289">
        <ele>1635.1</ele>
        <time>2021-12-19T11:12:15Z</time>
      </trkpt>
      <trkpt lat="45.34696" lon="5.72289">
        <ele>1635.2</ele>
        <time>2021-12-19T11:12:16Z</time>
      </trkpt>
      <trkpt lat="45.34695" lon="5.72289">
        <ele>1635.3</ele>
        <time>2021-12-19T11:12:17Z</time>
      </trkpt>
      <trkpt lat="45.34694" lon="5.72289">
        <ele>1635.3</ele>
        <time>2021-12-19T11:12:18Z</time>
      </trkpt>
      <trkpt lat="45.34693" lon="5.72289">
        <ele>1635.4</ele>
        <time>2021-12-19T11:12:19Z</time>
      </trkpt>
      <trkpt lat="45.34692" lon="5.72289">
        <ele>1635.4</ele>
        <time>2021-12-19T11:12:20Z</time>
      </trkpt>
      <trkpt lat="45.34691" lon="5.72289">
        <ele>1635.5</ele>
        <time>2021-12-19T11:12:21Z</time>
      </trkpt>
      <trkpt lat="45.3469" lon="5.72289">
        <ele>1635.5</ele>
        <time>2021-12-19T11:12:22Z</time>
      </trkpt>
      <trkpt lat="45.34689" lon="5.72289">
        <ele>1635.6</ele>
        <time>2021-12-19T11:12:23Z</time>
      </trkpt>
      <trkpt lat="45.34688" lon="5.7229">
        <ele>1635.6</ele>
        <time>2021-12-19T11:12:24Z</time>
      </trkpt>
      <trkpt lat="45.34687" lon="5.7229">
        <ele>1635.7</ele>
        <time>2021-12-19T11:12:25Z</time>
      </trkpt>
      <trkpt lat="45.34686" lon="5.7229">
        <ele>1635.7</ele>
        <time>2021-12-19T11:12:26Z</time>
      </trkpt>
      <trkpt lat="45.34685" lon="5.7229">
        <ele>1635.8</ele>
        <time>2021-12-19T11:12:27Z</time>
      </trkpt>
      <trkpt lat="45.34684" lon="5.72291">
        <ele>1635.8</ele>
        <time>2021-12-19T11:12:28Z</time>
      </trkpt>
      <trkpt lat="45.34683" lon="5.72291">
        <ele>1635.7</ele>
        <time>2021-12-19T11:12:29Z</time>
      </trkpt>
      <trkpt lat="45.34682" lon="5.72291">
        <ele>1635.8</ele>
        <time>2021-12-19T11:12:30Z</time>
      </trkpt>
      <trkpt lat="45.34681" lon="5.72292">
        <ele>1635.8</ele>
        <time>2021-12-19T11:12:31Z</time>
      </trkpt>
      <trkpt lat="45.3468" lon="5.72292">
        <ele>1635.9</ele>
        <time>2021-12-19T11:12:32Z</time>
      </trkpt>
      <trkpt lat="45.3468" lon="5.72292">
        <ele>1635.9</ele>
        <time>2021-12-19T11:12:33Z</time>
      </trkpt>
      <trkpt lat="45.34679" lon="5.72293">
        <ele>1635.9</ele>
        <time>2021-12-19T11:12:34Z</time>
      </trkpt>
      <trkpt lat="45.34678" lon="5.72293">
        <ele>1636</ele>
        <time>2021-12-19T11:12:35Z</time>
      </trkpt>
      <trkpt lat="45.34677" lon="5.72293">
        <ele>1636</ele>
        <time>2021-12-19T11:12:36Z</time>
      </trkpt>
      <trkpt lat="45.34676" lon="5.72293">
        <ele>1636</ele>
        <time>2021-12-19T11:12:37Z</time>
      </trkpt>
      <trkpt lat="45.34675" lon="5.72293">
        <ele>1636</ele>
        <time>2021-12-19T11:12:38Z</time>
      </trkpt>
      <trkpt lat="45.34674" lon="5.72293">
        <ele>1636.1</ele>
        <time>2021-12-19T11:12:39Z</time>
      </trkpt>
      <trkpt lat="45.34673" lon="5.72293">
        <ele>1636</ele>
        <time>2021-12-19T11:12:40Z</time>
      </trkpt>
      <trkpt lat="45.34672" lon="5.72294">
        <ele>1636.1</ele>
        <time>2021-12-19T11:12:41Z</time>
      </trkpt>
      <trkpt lat="45.34671" lon="5.72294">
        <ele>1636.1</ele>
        <time>2021-12-19T11:12:42Z</time>
      </trkpt>
      <trkpt lat="45.3467" lon="5.72294">
        <ele>1636.1</ele>
        <time>2021-12-19T11:12:43Z</time>
      </trkpt>
      <trkpt lat="45.34669" lon="5.72294">
        <ele>1636.2</ele>
        <time>2021-12-19T11:12:44Z</time>
      </trkpt>
      <trkpt lat="45.34668" lon="5.72294">
        <ele>1636.2</ele>
        <time>2021-12-19T11:12:45Z</time>
      </trkpt>
      <trkpt lat="45.34668" lon="5.72294">
        <ele>1636.3</ele>
        <time>2021-12-19T11:12:46Z</time>
      </trkpt>
      <trkpt lat="45.34667" lon="5.72293">
        <ele>1636.3</ele>
        <time>2021-12-19T11:12:47Z</time>
      </trkpt>
      <trkpt lat="45.34666" lon="5.72293">
        <ele>1636.3</ele>
        <time>2021-12-19T11:12:48Z</time>
      </trkpt>
      <trkpt lat="45.34665" lon="5.72293">
        <ele>1636.4</ele>
        <time>2021-12-19T11:12:49Z</time>
      </trkpt>
      <trkpt lat="45.34664" lon="5.72293">
        <ele>1636.3</ele>
        <time>2021-12-19T11:12:50Z</time>
      </trkpt>
      <trkpt lat="45.34663" lon="5.72293">
        <ele>1636.4</ele>
        <time>2021-12-19T11:12:51Z</time>
      </trkpt>
      <trkpt lat="45.34663" lon="5.72293">
        <ele>1636.4</ele>
        <time>2021-12-19T11:12:52Z</time>
      </trkpt>
      <trkpt lat="45.34662" lon="5.72293">
        <ele>1636.4</ele>
        <time>2021-12-19T11:12:53Z</time>
      </trkpt>
      <trkpt lat="45.34661" lon="5.72293">
        <ele>1636.5</ele>
        <time>2021-12-19T11:12:54Z</time>
      </trkpt>
      <trkpt lat="45.3466" lon="5.72293">
        <ele>1636.5</ele>
        <time>2021-12-19T11:12:55Z</time>
      </trkpt>
      <trkpt lat="45.34659" lon="5.72294">
        <ele>1636.5</ele>
        <time>2021-12-19T11:12:56Z</time>
      </trkpt>
      <trkpt lat="45.34658" lon="5.72294">
        <ele>1636.5</ele>
        <time>2021-12-19T11:12:57Z</time>
      </trkpt>
      <trkpt lat="45.34657" lon="5.72294">
        <ele>1636.6</ele>
        <time>2021-12-19T11:12:58Z</time>
      </trkpt>
      <trkpt lat="45.34656" lon="5.72294">
        <ele>1636.6</ele>
        <time>2021-12-19T11:12:59Z</time>
      </trkpt>
      <trkpt lat="45.34655" lon="5.72294">
        <ele>1636.6</ele>
        <time>2021-12-19T11:13:00Z</time>
      </trkpt>
      <trkpt lat="45.34654" lon="5.72294">
        <ele>1636.7</ele>
        <time>2021-12-19T11:13:01Z</time>
      </trkpt>
      <trkpt lat="45.34653" lon="5.72294">
        <ele>1636.7</ele>
        <time>2021-12-19T11:13:02Z</time>
      </trkpt>
      <trkpt lat="45.34652" lon="5.72294">
        <ele>1636.7</ele>
        <time>2021-12-19T11:13:03Z</time>
      </trkpt>
      <trkpt lat="45.34651" lon="5.72294">
        <ele>1636.8</ele>
        <time>2021-12-19T11:13:04Z</time>
      </trkpt>
      <trkpt lat="45.3465" lon="5.72295">
        <ele>1636.7</ele>
        <time>2021-12-19T11:13:05Z</time>
      </trkpt>
      <trkpt lat="45.34649" lon="5.72295">
        <ele>1636.8</ele>
        <time>2021-12-19T11:13:06Z</time>
      </trkpt>
      <trkpt lat="45.34648" lon="5.72295">
        <ele>1636.8</ele>
        <time>2021-12-19T11:13:07Z</time>
      </trkpt>
      <trkpt lat="45.34647" lon="5.72295">
        <ele>1636.8</ele>
        <time>2021-12-19T11:13:08Z</time>
      </trkpt>
      <trkpt lat="45.34646" lon="5.72295">
        <ele>1636.9</ele>
        <time>2021-12-19T11:13:09Z</time>
      </trkpt>
      <trkpt lat="45.34645" lon="5.72296">
        <ele>1636.9</ele>
        <time>2021-12-19T11:13:10Z</time>
      </trkpt>
      <trkpt lat="45.34644" lon="5.72295">
        <ele>1636.9</ele>
        <time>2021-12-19T11:13:11Z</time>
      </trkpt>
      <trkpt lat="45.34644" lon="5.72296">
        <ele>1636.9</ele>
        <time>2021-12-19T11:13:12Z</time>
      </trkpt>
      <trkpt lat="45.34643" lon="5.72296">
        <ele>1636.9</ele>
        <time>2021-12-19T11:13:13Z</time>
      </trkpt>
      <trkpt lat="45.34642" lon="5.72296">
        <ele>1637</ele>
        <time>2021-12-19T11:13:14Z</time>
      </trkpt>
      <trkpt lat="45.34642" lon="5.72296">
        <ele>1637</ele>
        <time>2021-12-19T11:13:15Z</time>
      </trkpt>
      <trkpt lat="45.34642" lon="5.72296">
        <ele>1637</ele>
        <time>2021-12-19T11:13:16Z</time>
      </trkpt>
      <trkpt lat="45.34642" lon="5.72296">
        <ele>1637</ele>
        <time>2021-12-19T11:13:17Z</time>
      </trkpt>
      <trkpt lat="45.34641" lon="5.72296">
        <ele>1637</ele>
        <time>2021-12-19T11:13:18Z</time>
      </trkpt>
      <trkpt lat="45.34641" lon="5.72296">
        <ele>1636.9</ele>
        <time>2021-12-19T11:13:19Z</time>
      </trkpt>
      <trkpt lat="45.34641" lon="5.72296">
        <ele>1636.9</ele>
        <time>2021-12-19T11:13:20Z</time>
      </trkpt>
      <trkpt lat="45.34641" lon="5.72296">
        <ele>1636.9</ele>
        <time>2021-12-19T11:13:21Z</time>
      </trkpt>
      <trkpt lat="45.34641" lon="5.72296">
        <ele>1636.9</ele>
        <time>2021-12-19T11:13:22Z</time>
      </trkpt>
      <trkpt lat="45.34641" lon="5.72296">
        <ele>1636.9</ele>
        <time>2021-12-19T11:13:23Z</time>
      </trkpt>
      <trkpt lat="45.34641" lon="5.72296">
        <ele>1636.9</ele>
        <time>2021-12-19T11:13:24Z</time>
      </trkpt>
      <trkpt lat="45.3464" lon="5.72296">
        <ele>1636.9</ele>
        <time>2021-12-19T11:13:25Z</time>
      </trkpt>
      <trkpt lat="45.34639" lon="5.72296">
        <ele>1636.9</ele>
        <time>2021-12-19T11:13:26Z</time>
      </trkpt>
      <trkpt lat="45.34639" lon="5.72296">
        <ele>1637</ele>
        <time>2021-12-19T11:13:27Z</time>
      </trkpt>
      <trkpt lat="45.34638" lon="5.72296">
        <ele>1637</ele>
        <time>2021-12-19T11:13:28Z</time>
      </trkpt>
      <trkpt lat="45.34637" lon="5.72296">
        <ele>1637</ele>
        <time>2021-12-19T11:13:29Z</time>
      </trkpt>
      <trkpt lat="45.34636" lon="5.72296">
        <ele>1637</ele>
        <time>2021-12-19T11:13:30Z</time>
      </trkpt>
      <trkpt lat="45.34636" lon="5.72296">
        <ele>1637</ele>
        <time>2021-12-19T11:13:31Z</time>
      </trkpt>
      <trkpt lat="45.34635" lon="5.72297">
        <ele>1637</ele>
        <time>2021-12-19T11:13:32Z</time>
      </trkpt>
      <trkpt lat="45.34634" lon="5.72297">
        <ele>1637.1</ele>
        <time>2021-12-19T11:13:33Z</time>
      </trkpt>
      <trkpt lat="45.34634" lon="5.72297">
        <ele>1637.1</ele>
        <time>2021-12-19T11:13:34Z</time>
      </trkpt>
      <trkpt lat="45.34633" lon="5.72297">
        <ele>1637.1</ele>
        <time>2021-12-19T11:13:35Z</time>
      </trkpt>
      <trkpt lat="45.34632" lon="5.72298">
        <ele>1637.1</ele>
        <time>2021-12-19T11:13:36Z</time>
      </trkpt>
      <trkpt lat="45.34632" lon="5.72298">
        <ele>1637.1</ele>
        <time>2021-12-19T11:13:37Z</time>
      </trkpt>
      <trkpt lat="45.34631" lon="5.72298">
        <ele>1637.1</ele>
        <time>2021-12-19T11:13:38Z</time>
      </trkpt>
      <trkpt lat="45.3463" lon="5.72298">
        <ele>1637.1</ele>
        <time>2021-12-19T11:13:39Z</time>
      </trkpt>
      <trkpt lat="45.3463" lon="5.72298">
        <ele>1637.2</ele>
        <time>2021-12-19T11:13:40Z</time>
      </trkpt>
      <trkpt lat="45.34629" lon="5.72299">
        <ele>1637.2</ele>
        <time>2021-12-19T11:13:41Z</time>
      </trkpt>
      <trkpt lat="45.34628" lon="5.72299">
        <ele>1637.2</ele>
        <time>2021-12-19T11:13:42Z</time>
      </trkpt>
      <trkpt lat="45.34627" lon="5.72299">
        <ele>1637.2</ele>
        <time>2021-12-19T11:13:43Z</time>
      </trkpt>
      <trkpt lat="45.34627" lon="5.72299">
        <ele>1637.3</ele>
        <time>2021-12-19T11:13:44Z</time>
      </trkpt>
      <trkpt lat="45.34626" lon="5.723">
        <ele>1637.3</ele>
        <time>2021-12-19T11:13:45Z</time>
      </trkpt>
      <trkpt lat="45.34625" lon="5.723">
        <ele>1637.2</ele>
        <time>2021-12-19T11:13:46Z</time>
      </trkpt>
      <trkpt lat="45.34625" lon="5.72301">
        <ele>1637.2</ele>
        <time>2021-12-19T11:13:47Z</time>
      </trkpt>
      <trkpt lat="45.34624" lon="5.72301">
        <ele>1637.3</ele>
        <time>2021-12-19T11:13:48Z</time>
      </trkpt>
      <trkpt lat="45.34623" lon="5.72301">
        <ele>1637.3</ele>
        <time>2021-12-19T11:13:49Z</time>
      </trkpt>
      <trkpt lat="45.34623" lon="5.72301">
        <ele>1637.3</ele>
        <time>2021-12-19T11:13:50Z</time>
      </trkpt>
      <trkpt lat="45.34622" lon="5.72301">
        <ele>1637.3</ele>
        <time>2021-12-19T11:13:51Z</time>
      </trkpt>
      <trkpt lat="45.34621" lon="5.72301">
        <ele>1637.4</ele>
        <time>2021-12-19T11:13:52Z</time>
      </trkpt>
      <trkpt lat="45.3462" lon="5.72301">
        <ele>1637.4</ele>
        <time>2021-12-19T11:13:53Z</time>
      </trkpt>
      <trkpt lat="45.34619" lon="5.72301">
        <ele>1637.4</ele>
        <time>2021-12-19T11:13:54Z</time>
      </trkpt>
      <trkpt lat="45.34619" lon="5.72301">
        <ele>1637.4</ele>
        <time>2021-12-19T11:13:55Z</time>
      </trkpt>
      <trkpt lat="45.34618" lon="5.72302">
        <ele>1637.5</ele>
        <time>2021-12-19T11:13:56Z</time>
      </trkpt>
      <trkpt lat="45.34617" lon="5.72302">
        <ele>1637.4</ele>
        <time>2021-12-19T11:13:57Z</time>
      </trkpt>
      <trkpt lat="45.34617" lon="5.72302">
        <ele>1637.4</ele>
        <time>2021-12-19T11:13:58Z</time>
      </trkpt>
      <trkpt lat="45.34616" lon="5.72302">
        <ele>1637.4</ele>
        <time>2021-12-19T11:13:59Z</time>
      </trkpt>
      <trkpt lat="45.34615" lon="5.72302">
        <ele>1637.4</ele>
        <time>2021-12-19T11:14:00Z</time>
      </trkpt>
      <trkpt lat="45.34615" lon="5.72302">
        <ele>1637.4</ele>
        <time>2021-12-19T11:14:01Z</time>
      </trkpt>
      <trkpt lat="45.34614" lon="5.72302">
        <ele>1637.5</ele>
        <time>2021-12-19T11:14:02Z</time>
      </trkpt>
      <trkpt lat="45.34613" lon="5.72302">
        <ele>1637.5</ele>
        <time>2021-12-19T11:14:03Z</time>
      </trkpt>
      <trkpt lat="45.34612" lon="5.72302">
        <ele>1637.5</ele>
        <time>2021-12-19T11:14:04Z</time>
      </trkpt>
      <trkpt lat="45.34612" lon="5.72302">
        <ele>1637.5</ele>
        <time>2021-12-19T11:14:05Z</time>
      </trkpt>
      <trkpt lat="45.34611" lon="5.72302">
        <ele>1637.5</ele>
        <time>2021-12-19T11:14:06Z</time>
      </trkpt>
      <trkpt lat="45.3461" lon="5.72303">
        <ele>1637.6</ele>
        <time>2021-12-19T11:14:07Z</time>
      </trkpt>
      <trkpt lat="45.34609" lon="5.72303">
        <ele>1637.6</ele>
        <time>2021-12-19T11:14:08Z</time>
      </trkpt>
      <trkpt lat="45.34609" lon="5.72303">
        <ele>1637.6</ele>
        <time>2021-12-19T11:14:09Z</time>
      </trkpt>
      <trkpt lat="45.34608" lon="5.72303">
        <ele>1637.6</ele>
        <time>2021-12-19T11:14:10Z</time>
      </trkpt>
      <trkpt lat="45.34607" lon="5.72303">
        <ele>1637.6</ele>
        <time>2021-12-19T11:14:11Z</time>
      </trkpt>
      <trkpt lat="45.34606" lon="5.72304">
        <ele>1637.7</ele>
        <time>2021-12-19T11:14:12Z</time>
      </trkpt>
      <trkpt lat="45.34606" lon="5.72304">
        <ele>1637.7</ele>
        <time>2021-12-19T11:14:13Z</time>
      </trkpt>
      <trkpt lat="45.34605" lon="5.72304">
        <ele>1637.7</ele>
        <time>2021-12-19T11:14:14Z</time>
      </trkpt>
      <trkpt lat="45.34604" lon="5.72305">
        <ele>1637.7</ele>
        <time>2021-12-19T11:14:15Z</time>
      </trkpt>
      <trkpt lat="45.34603" lon="5.72305">
        <ele>1637.7</ele>
        <time>2021-12-19T11:14:16Z</time>
      </trkpt>
      <trkpt lat="45.34603" lon="5.72305">
        <ele>1637.7</ele>
        <time>2021-12-19T11:14:17Z</time>
      </trkpt>
      <trkpt lat="45.34602" lon="5.72305">
        <ele>1637.8</ele>
        <time>2021-12-19T11:14:18Z</time>
      </trkpt>
      <trkpt lat="45.34601" lon="5.72306">
        <ele>1637.8</ele>
        <time>2021-12-19T11:14:19Z</time>
      </trkpt>
      <trkpt lat="45.346" lon="5.72306">
        <ele>1637.8</ele>
        <time>2021-12-19T11:14:20Z</time>
      </trkpt>
      <trkpt lat="45.346" lon="5.72306">
        <ele>1637.8</ele>
        <time>2021-12-19T11:14:21Z</time>
      </trkpt>
      <trkpt lat="45.34599" lon="5.72306">
        <ele>1637.8</ele>
        <time>2021-12-19T11:14:22Z</time>
      </trkpt>
      <trkpt lat="45.34598" lon="5.72307">
        <ele>1637.8</ele>
        <time>2021-12-19T11:14:23Z</time>
      </trkpt>
      <trkpt lat="45.34598" lon="5.72307">
        <ele>1637.8</ele>
        <time>2021-12-19T11:14:24Z</time>
      </trkpt>
      <trkpt lat="45.34598" lon="5.72307">
        <ele>1637.8</ele>
        <time>2021-12-19T11:14:25Z</time>
      </trkpt>
      <trkpt lat="45.34597" lon="5.72307">
        <ele>1637.8</ele>
        <time>2021-12-19T11:14:26Z</time>
      </trkpt>
      <trkpt lat="45.34597" lon="5.72307">
        <ele>1637.9</ele>
        <time>2021-12-19T11:14:27Z</time>
      </trkpt>
      <trkpt lat="45.34597" lon="5.72307">
        <ele>1637.9</ele>
        <time>2021-12-19T11:14:28Z</time>
      </trkpt>
      <trkpt lat="45.34597" lon="5.72307">
        <ele>1637.9</ele>
        <time>2021-12-19T11:14:29Z</time>
      </trkpt>
      <trkpt lat="45.34597" lon="5.72307">
        <ele>1637.9</ele>
        <time>2021-12-19T11:14:30Z</time>
      </trkpt>
      <trkpt lat="45.34597" lon="5.72307">
        <ele>1637.9</ele>
        <time>2021-12-19T11:14:31Z</time>
      </trkpt>
      <trkpt lat="45.34598" lon="5.72307">
        <ele>1637.9</ele>
        <time>2021-12-19T11:14:32Z</time>
      </trkpt>
      <trkpt lat="45.34598" lon="5.72307">
        <ele>1637.9</ele>
        <time>2021-12-19T11:14:33Z</time>
      </trkpt>
      <trkpt lat="45.34598" lon="5.72307">
        <ele>1637.9</ele>
        <time>2021-12-19T11:14:34Z</time>
      </trkpt>
      <trkpt lat="45.34597" lon="5.72307">
        <ele>1637.9</ele>
        <time>2021-12-19T11:14:35Z</time>
      </trkpt>
      <trkpt lat="45.34597" lon="5.72307">
        <ele>1637.9</ele>
        <time>2021-12-19T11:14:36Z</time>
      </trkpt>
      <trkpt lat="45.34597" lon="5.72307">
        <ele>1637.9</ele>
        <time>2021-12-19T11:14:37Z</time>
      </trkpt>
      <trkpt lat="45.34597" lon="5.72307">
        <ele>1637.9</ele>
        <time>2021-12-19T11:14:38Z</time>
      </trkpt>
      <trkpt lat="45.34598" lon="5.72307">
        <ele>1637.9</ele>
        <time>2021-12-19T11:14:39Z</time>
      </trkpt>
      <trkpt lat="45.34597" lon="5.72306">
        <ele>1637.9</ele>
        <time>2021-12-19T11:14:40Z</time>
      </trkpt>
      <trkpt lat="45.34597" lon="5.72306">
        <ele>1637.9</ele>
        <time>2021-12-19T11:14:41Z</time>
      </trkpt>
      <trkpt lat="45.34596" lon="5.72306">
        <ele>1637.9</ele>
        <time>2021-12-19T11:14:42Z</time>
      </trkpt>
      <trkpt lat="45.34596" lon="5.72306">
        <ele>1637.9</ele>
        <time>2021-12-19T11:14:43Z</time>
      </trkpt>
      <trkpt lat="45.34596" lon="5.72306">
        <ele>1637.9</ele>
        <time>2021-12-19T11:14:44Z</time>
      </trkpt>
      <trkpt lat="45.34596" lon="5.72306">
        <ele>1637.9</ele>
        <time>2021-12-19T11:14:45Z</time>
      </trkpt>
      <trkpt lat="45.34596" lon="5.72306">
        <ele>1637.9</ele>
        <time>2021-12-19T11:14:46Z</time>
      </trkpt>
      <trkpt lat="45.34596" lon="5.72306">
        <ele>1637.9</ele>
        <time>2021-12-19T11:14:47Z</time>
      </trkpt>
      <trkpt lat="45.34596" lon="5.72306">
        <ele>1637.9</ele>
        <time>2021-12-19T11:14:48Z</time>
      </trkpt>
      <trkpt lat="45.34596" lon="5.72306">
        <ele>1637.9</ele>
        <time>2021-12-19T11:14:49Z</time>
      </trkpt>
      <trkpt lat="45.34596" lon="5.72306">
        <ele>1637.9</ele>
        <time>2021-12-19T11:14:50Z</time>
      </trkpt>
      <trkpt lat="45.34595" lon="5.72306">
        <ele>1637.9</ele>
        <time>2021-12-19T11:14:51Z</time>
      </trkpt>
      <trkpt lat="45.34595" lon="5.72306">
        <ele>1637.9</ele>
        <time>2021-12-19T11:14:52Z</time>
      </trkpt>
      <trkpt lat="45.34594" lon="5.72306">
        <ele>1638</ele>
        <time>2021-12-19T11:14:53Z</time>
      </trkpt>
      <trkpt lat="45.34594" lon="5.72306">
        <ele>1638</ele>
        <time>2021-12-19T11:14:54Z</time>
      </trkpt>
      <trkpt lat="45.34594" lon="5.72306">
        <ele>1638</ele>
        <time>2021-12-19T11:14:55Z</time>
      </trkpt>
      <trkpt lat="45.34594" lon="5.72306">
        <ele>1638</ele>
        <time>2021-12-19T11:14:56Z</time>
      </trkpt>
      <trkpt lat="45.34594" lon="5.72306">
        <ele>1638</ele>
        <time>2021-12-19T11:14:57Z</time>
      </trkpt>
      <trkpt lat="45.34594" lon="5.72306">
        <ele>1638</ele>
        <time>2021-12-19T11:14:58Z</time>
      </trkpt>
      <trkpt lat="45.34594" lon="5.72306">
        <ele>1638</ele>
        <time>2021-12-19T11:14:59Z</time>
      </trkpt>
      <trkpt lat="45.34594" lon="5.72306">
        <ele>1638</ele>
        <time>2021-12-19T11:15:00Z</time>
      </trkpt>
      <trkpt lat="45.34594" lon="5.72306">
        <ele>1638</ele>
        <time>2021-12-19T11:15:01Z</time>
      </trkpt>
      <trkpt lat="45.34594" lon="5.72306">
        <ele>1638</ele>
        <time>2021-12-19T11:15:02Z</time>
      </trkpt>
      <trkpt lat="45.34593" lon="5.72306">
        <ele>1638</ele>
        <time>2021-12-19T11:15:03Z</time>
      </trkpt>
      <trkpt lat="45.34593" lon="5.72306">
        <ele>1638</ele>
        <time>2021-12-19T11:15:04Z</time>
      </trkpt>
      <trkpt lat="45.34593" lon="5.72306">
        <ele>1638</ele>
        <time>2021-12-19T11:15:05Z</time>
      </trkpt>
      <trkpt lat="45.34593" lon="5.72306">
        <ele>1638</ele>
        <time>2021-12-19T11:15:06Z</time>
      </trkpt>
      <trkpt lat="45.34593" lon="5.72306">
        <ele>1638</ele>
        <time>2021-12-19T11:15:07Z</time>
      </trkpt>
      <trkpt lat="45.34593" lon="5.72306">
        <ele>1638</ele>
        <time>2021-12-19T11:15:08Z</time>
      </trkpt>
      <trkpt lat="45.34593" lon="5.72306">
        <ele>1638</ele>
        <time>2021-12-19T11:15:09Z</time>
      </trkpt>
      <trkpt lat="45.34593" lon="5.72306">
        <ele>1638</ele>
        <time>2021-12-19T11:15:10Z</time>
      </trkpt>
      <trkpt lat="45.34593" lon="5.72306">
        <ele>1638</ele>
        <time>2021-12-19T11:15:11Z</time>
      </trkpt>
      <trkpt lat="45.34592" lon="5.72306">
        <ele>1638</ele>
        <time>2021-12-19T11:15:12Z</time>
      </trkpt>
      <trkpt lat="45.34592" lon="5.72306">
        <ele>1638</ele>
        <time>2021-12-19T11:15:13Z</time>
      </trkpt>
      <trkpt lat="45.34591" lon="5.72306">
        <ele>1638.1</ele>
        <time>2021-12-19T11:15:14Z</time>
      </trkpt>
      <trkpt lat="45.3459" lon="5.72306">
        <ele>1638.1</ele>
        <time>2021-12-19T11:15:15Z</time>
      </trkpt>
      <trkpt lat="45.34589" lon="5.72307">
        <ele>1638.1</ele>
        <time>2021-12-19T11:15:16Z</time>
      </trkpt>
      <trkpt lat="45.34588" lon="5.72307">
        <ele>1638.1</ele>
        <time>2021-12-19T11:15:17Z</time>
      </trkpt>
      <trkpt lat="45.34588" lon="5.72308">
        <ele>1638.1</ele>
        <time>2021-12-19T11:15:18Z</time>
      </trkpt>
      <trkpt lat="45.34587" lon="5.72308">
        <ele>1638.2</ele>
        <time>2021-12-19T11:15:19Z</time>
      </trkpt>
      <trkpt lat="45.34586" lon="5.72309">
        <ele>1638.2</ele>
        <time>2021-12-19T11:15:20Z</time>
      </trkpt>
      <trkpt lat="45.34585" lon="5.7231">
        <ele>1638.2</ele>
        <time>2021-12-19T11:15:21Z</time>
      </trkpt>
      <trkpt lat="45.34585" lon="5.7231">
        <ele>1638.2</ele>
        <time>2021-12-19T11:15:22Z</time>
      </trkpt>
      <trkpt lat="45.34584" lon="5.72311">
        <ele>1638.3</ele>
        <time>2021-12-19T11:15:23Z</time>
      </trkpt>
      <trkpt lat="45.34583" lon="5.72312">
        <ele>1638.3</ele>
        <time>2021-12-19T11:15:24Z</time>
      </trkpt>
      <trkpt lat="45.34583" lon="5.72312">
        <ele>1638.3</ele>
        <time>2021-12-19T11:15:25Z</time>
      </trkpt>
      <trkpt lat="45.34582" lon="5.72313">
        <ele>1638.3</ele>
        <time>2021-12-19T11:15:26Z</time>
      </trkpt>
      <trkpt lat="45.34581" lon="5.72313">
        <ele>1638.3</ele>
        <time>2021-12-19T11:15:27Z</time>
      </trkpt>
      <trkpt lat="45.34581" lon="5.72313">
        <ele>1638.4</ele>
        <time>2021-12-19T11:15:28Z</time>
      </trkpt>
      <trkpt lat="45.3458" lon="5.72314">
        <ele>1638.4</ele>
        <time>2021-12-19T11:15:29Z</time>
      </trkpt>
      <trkpt lat="45.34579" lon="5.72314">
        <ele>1638.4</ele>
        <time>2021-12-19T11:15:30Z</time>
      </trkpt>
      <trkpt lat="45.34578" lon="5.72315">
        <ele>1638.5</ele>
        <time>2021-12-19T11:15:31Z</time>
      </trkpt>
      <trkpt lat="45.34578" lon="5.72315">
        <ele>1638.5</ele>
        <time>2021-12-19T11:15:32Z</time>
      </trkpt>
      <trkpt lat="45.34577" lon="5.72316">
        <ele>1638.5</ele>
        <time>2021-12-19T11:15:33Z</time>
      </trkpt>
      <trkpt lat="45.34576" lon="5.72316">
        <ele>1638.6</ele>
        <time>2021-12-19T11:15:34Z</time>
      </trkpt>
      <trkpt lat="45.34575" lon="5.72316">
        <ele>1638.6</ele>
        <time>2021-12-19T11:15:35Z</time>
      </trkpt>
      <trkpt lat="45.34574" lon="5.72316">
        <ele>1638.6</ele>
        <time>2021-12-19T11:15:36Z</time>
      </trkpt>
      <trkpt lat="45.34574" lon="5.72317">
        <ele>1638.6</ele>
        <time>2021-12-19T11:15:37Z</time>
      </trkpt>
      <trkpt lat="45.34573" lon="5.72317">
        <ele>1638.7</ele>
        <time>2021-12-19T11:15:38Z</time>
      </trkpt>
      <trkpt lat="45.34573" lon="5.72317">
        <ele>1638.7</ele>
        <time>2021-12-19T11:15:39Z</time>
      </trkpt>
      <trkpt lat="45.34572" lon="5.72318">
        <ele>1638.7</ele>
        <time>2021-12-19T11:15:40Z</time>
      </trkpt>
      <trkpt lat="45.34572" lon="5.72318">
        <ele>1638.7</ele>
        <time>2021-12-19T11:15:41Z</time>
      </trkpt>
      <trkpt lat="45.34571" lon="5.72318">
        <ele>1638.8</ele>
        <time>2021-12-19T11:15:42Z</time>
      </trkpt>
      <trkpt lat="45.34571" lon="5.72318">
        <ele>1638.8</ele>
        <time>2021-12-19T11:15:43Z</time>
      </trkpt>
      <trkpt lat="45.3457" lon="5.72319">
        <ele>1638.8</ele>
        <time>2021-12-19T11:15:44Z</time>
      </trkpt>
      <trkpt lat="45.3457" lon="5.72319">
        <ele>1638.8</ele>
        <time>2021-12-19T11:15:45Z</time>
      </trkpt>
      <trkpt lat="45.34569" lon="5.72319">
        <ele>1638.9</ele>
        <time>2021-12-19T11:15:46Z</time>
      </trkpt>
      <trkpt lat="45.34568" lon="5.7232">
        <ele>1638.9</ele>
        <time>2021-12-19T11:15:47Z</time>
      </trkpt>
      <trkpt lat="45.34567" lon="5.7232">
        <ele>1639</ele>
        <time>2021-12-19T11:15:48Z</time>
      </trkpt>
      <trkpt lat="45.34566" lon="5.7232">
        <ele>1639</ele>
        <time>2021-12-19T11:15:49Z</time>
      </trkpt>
      <trkpt lat="45.34566" lon="5.72321">
        <ele>1639</ele>
        <time>2021-12-19T11:15:50Z</time>
      </trkpt>
      <trkpt lat="45.34565" lon="5.72321">
        <ele>1639.1</ele>
        <time>2021-12-19T11:15:51Z</time>
      </trkpt>
      <trkpt lat="45.34564" lon="5.72321">
        <ele>1639.1</ele>
        <time>2021-12-19T11:15:52Z</time>
      </trkpt>
      <trkpt lat="45.34564" lon="5.72322">
        <ele>1639.1</ele>
        <time>2021-12-19T11:15:53Z</time>
      </trkpt>
      <trkpt lat="45.34563" lon="5.72322">
        <ele>1639.2</ele>
        <time>2021-12-19T11:15:54Z</time>
      </trkpt>
      <trkpt lat="45.34562" lon="5.72322">
        <ele>1639.2</ele>
        <time>2021-12-19T11:15:55Z</time>
      </trkpt>
      <trkpt lat="45.34562" lon="5.72323">
        <ele>1639.2</ele>
        <time>2021-12-19T11:15:56Z</time>
      </trkpt>
      <trkpt lat="45.34561" lon="5.72323">
        <ele>1639.3</ele>
        <time>2021-12-19T11:15:57Z</time>
      </trkpt>
      <trkpt lat="45.3456" lon="5.72323">
        <ele>1639.3</ele>
        <time>2021-12-19T11:15:58Z</time>
      </trkpt>
      <trkpt lat="45.34559" lon="5.72323">
        <ele>1639.4</ele>
        <time>2021-12-19T11:15:59Z</time>
      </trkpt>
      <trkpt lat="45.34559" lon="5.72324">
        <ele>1639.4</ele>
        <time>2021-12-19T11:16:00Z</time>
      </trkpt>
      <trkpt lat="45.34559" lon="5.72324">
        <ele>1639.4</ele>
        <time>2021-12-19T11:16:01Z</time>
      </trkpt>
      <trkpt lat="45.34559" lon="5.72324">
        <ele>1639.4</ele>
        <time>2021-12-19T11:16:02Z</time>
      </trkpt>
      <trkpt lat="45.34559" lon="5.72324">
        <ele>1639.4</ele>
        <time>2021-12-19T11:16:03Z</time>
      </trkpt>
      <trkpt lat="45.34559" lon="5.72324">
        <ele>1639.4</ele>
        <time>2021-12-19T11:16:04Z</time>
      </trkpt>
      <trkpt lat="45.34558" lon="5.72324">
        <ele>1639.4</ele>
        <time>2021-12-19T11:16:05Z</time>
      </trkpt>
      <trkpt lat="45.34558" lon="5.72324">
        <ele>1639.4</ele>
        <time>2021-12-19T11:16:06Z</time>
      </trkpt>
      <trkpt lat="45.34558" lon="5.72324">
        <ele>1639.4</ele>
        <time>2021-12-19T11:16:07Z</time>
      </trkpt>
      <trkpt lat="45.34558" lon="5.72324">
        <ele>1639.5</ele>
        <time>2021-12-19T11:16:08Z</time>
      </trkpt>
      <trkpt lat="45.34558" lon="5.72324">
        <ele>1639.5</ele>
        <time>2021-12-19T11:16:09Z</time>
      </trkpt>
      <trkpt lat="45.34558" lon="5.72324">
        <ele>1639.5</ele>
        <time>2021-12-19T11:16:10Z</time>
      </trkpt>
      <trkpt lat="45.34558" lon="5.72325">
        <ele>1639.5</ele>
        <time>2021-12-19T11:16:11Z</time>
      </trkpt>
      <trkpt lat="45.34558" lon="5.72325">
        <ele>1639.5</ele>
        <time>2021-12-19T11:16:12Z</time>
      </trkpt>
      <trkpt lat="45.34558" lon="5.72325">
        <ele>1639.5</ele>
        <time>2021-12-19T11:16:13Z</time>
      </trkpt>
      <trkpt lat="45.34558" lon="5.72325">
        <ele>1639.5</ele>
        <time>2021-12-19T11:16:14Z</time>
      </trkpt>
      <trkpt lat="45.34558" lon="5.72325">
        <ele>1639.5</ele>
        <time>2021-12-19T11:16:15Z</time>
      </trkpt>
      <trkpt lat="45.34558" lon="5.72325">
        <ele>1639.5</ele>
        <time>2021-12-19T11:16:16Z</time>
      </trkpt>
      <trkpt lat="45.34558" lon="5.72326">
        <ele>1639.5</ele>
        <time>2021-12-19T11:16:17Z</time>
      </trkpt>
      <trkpt lat="45.34558" lon="5.72325">
        <ele>1639.5</ele>
        <time>2021-12-19T11:16:18Z</time>
      </trkpt>
      <trkpt lat="45.34558" lon="5.72326">
        <ele>1639.5</ele>
        <time>2021-12-19T11:16:19Z</time>
      </trkpt>
      <trkpt lat="45.34557" lon="5.72326">
        <ele>1639.5</ele>
        <time>2021-12-19T11:16:20Z</time>
      </trkpt>
      <trkpt lat="45.34557" lon="5.72326">
        <ele>1639.5</ele>
        <time>2021-12-19T11:16:21Z</time>
      </trkpt>
      <trkpt lat="45.34557" lon="5.72327">
        <ele>1639.6</ele>
        <time>2021-12-19T11:16:22Z</time>
      </trkpt>
      <trkpt lat="45.34557" lon="5.72327">
        <ele>1639.6</ele>
        <time>2021-12-19T11:16:23Z</time>
      </trkpt>
      <trkpt lat="45.34556" lon="5.72328">
        <ele>1639.6</ele>
        <time>2021-12-19T11:16:24Z</time>
      </trkpt>
      <trkpt lat="45.34556" lon="5.72328">
        <ele>1639.6</ele>
        <time>2021-12-19T11:16:25Z</time>
      </trkpt>
      <trkpt lat="45.34555" lon="5.72329">
        <ele>1639.6</ele>
        <time>2021-12-19T11:16:26Z</time>
      </trkpt>
      <trkpt lat="45.34555" lon="5.72329">
        <ele>1639.7</ele>
        <time>2021-12-19T11:16:27Z</time>
      </trkpt>
      <trkpt lat="45.34555" lon="5.72329">
        <ele>1639.7</ele>
        <time>2021-12-19T11:16:28Z</time>
      </trkpt>
      <trkpt lat="45.34554" lon="5.7233">
        <ele>1639.7</ele>
        <time>2021-12-19T11:16:29Z</time>
      </trkpt>
      <trkpt lat="45.34554" lon="5.7233">
        <ele>1639.7</ele>
        <time>2021-12-19T11:16:30Z</time>
      </trkpt>
      <trkpt lat="45.34553" lon="5.7233">
        <ele>1639.7</ele>
        <time>2021-12-19T11:16:31Z</time>
      </trkpt>
      <trkpt lat="45.34553" lon="5.72331">
        <ele>1639.7</ele>
        <time>2021-12-19T11:16:32Z</time>
      </trkpt>
      <trkpt lat="45.34552" lon="5.72331">
        <ele>1639.7</ele>
        <time>2021-12-19T11:16:33Z</time>
      </trkpt>
      <trkpt lat="45.34552" lon="5.72332">
        <ele>1639.7</ele>
        <time>2021-12-19T11:16:34Z</time>
      </trkpt>
      <trkpt lat="45.34551" lon="5.72332">
        <ele>1639.8</ele>
        <time>2021-12-19T11:16:35Z</time>
      </trkpt>
      <trkpt lat="45.34551" lon="5.72332">
        <ele>1639.8</ele>
        <time>2021-12-19T11:16:36Z</time>
      </trkpt>
      <trkpt lat="45.34551" lon="5.72332">
        <ele>1639.8</ele>
        <time>2021-12-19T11:16:37Z</time>
      </trkpt>
      <trkpt lat="45.3455" lon="5.72333">
        <ele>1639.8</ele>
        <time>2021-12-19T11:16:38Z</time>
      </trkpt>
      <trkpt lat="45.3455" lon="5.72333">
        <ele>1639.8</ele>
        <time>2021-12-19T11:16:39Z</time>
      </trkpt>
      <trkpt lat="45.34549" lon="5.72333">
        <ele>1639.8</ele>
        <time>2021-12-19T11:16:40Z</time>
      </trkpt>
      <trkpt lat="45.34549" lon="5.72334">
        <ele>1639.8</ele>
        <time>2021-12-19T11:16:41Z</time>
      </trkpt>
      <trkpt lat="45.34548" lon="5.72334">
        <ele>1639.8</ele>
        <time>2021-12-19T11:16:42Z</time>
      </trkpt>
      <trkpt lat="45.34547" lon="5.72334">
        <ele>1639.8</ele>
        <time>2021-12-19T11:16:43Z</time>
      </trkpt>
      <trkpt lat="45.34547" lon="5.72335">
        <ele>1639.8</ele>
        <time>2021-12-19T11:16:44Z</time>
      </trkpt>
      <trkpt lat="45.34546" lon="5.72335">
        <ele>1639.8</ele>
        <time>2021-12-19T11:16:45Z</time>
      </trkpt>
      <trkpt lat="45.34546" lon="5.72335">
        <ele>1639.8</ele>
        <time>2021-12-19T11:16:46Z</time>
      </trkpt>
      <trkpt lat="45.34546" lon="5.72336">
        <ele>1639.8</ele>
        <time>2021-12-19T11:16:47Z</time>
      </trkpt>
      <trkpt lat="45.34546" lon="5.72336">
        <ele>1639.8</ele>
        <time>2021-12-19T11:16:48Z</time>
      </trkpt>
      <trkpt lat="45.34546" lon="5.72337">
        <ele>1639.8</ele>
        <time>2021-12-19T11:16:49Z</time>
      </trkpt>
      <trkpt lat="45.34546" lon="5.72337">
        <ele>1639.8</ele>
        <time>2021-12-19T11:16:50Z</time>
      </trkpt>
      <trkpt lat="45.34546" lon="5.72337">
        <ele>1639.8</ele>
        <time>2021-12-19T11:16:51Z</time>
      </trkpt>
      <trkpt lat="45.34545" lon="5.72337">
        <ele>1639.8</ele>
        <time>2021-12-19T11:16:52Z</time>
      </trkpt>
      <trkpt lat="45.34545" lon="5.72337">
        <ele>1639.8</ele>
        <time>2021-12-19T11:16:53Z</time>
      </trkpt>
      <trkpt lat="45.34544" lon="5.72336">
        <ele>1639.8</ele>
        <time>2021-12-19T11:16:54Z</time>
      </trkpt>
      <trkpt lat="45.34544" lon="5.72336">
        <ele>1639.8</ele>
        <time>2021-12-19T11:16:55Z</time>
      </trkpt>
      <trkpt lat="45.34544" lon="5.72337">
        <ele>1639.8</ele>
        <time>2021-12-19T11:16:56Z</time>
      </trkpt>
      <trkpt lat="45.34543" lon="5.72337">
        <ele>1639.8</ele>
        <time>2021-12-19T11:16:57Z</time>
      </trkpt>
      <trkpt lat="45.34543" lon="5.72337">
        <ele>1639.8</ele>
        <time>2021-12-19T11:16:58Z</time>
      </trkpt>
      <trkpt lat="45.34543" lon="5.72337">
        <ele>1639.8</ele>
        <time>2021-12-19T11:16:59Z</time>
      </trkpt>
      <trkpt lat="45.34542" lon="5.72337">
        <ele>1639.8</ele>
        <time>2021-12-19T11:17:00Z</time>
      </trkpt>
      <trkpt lat="45.34542" lon="5.72337">
        <ele>1639.8</ele>
        <time>2021-12-19T11:17:01Z</time>
      </trkpt>
      <trkpt lat="45.34541" lon="5.72337">
        <ele>1639.8</ele>
        <time>2021-12-19T11:17:02Z</time>
      </trkpt>
      <trkpt lat="45.34541" lon="5.72337">
        <ele>1639.8</ele>
        <time>2021-12-19T11:17:03Z</time>
      </trkpt>
      <trkpt lat="45.34541" lon="5.72337">
        <ele>1639.8</ele>
        <time>2021-12-19T11:17:04Z</time>
      </trkpt>
      <trkpt lat="45.3454" lon="5.72337">
        <ele>1639.8</ele>
        <time>2021-12-19T11:17:05Z</time>
      </trkpt>
      <trkpt lat="45.3454" lon="5.72338">
        <ele>1639.8</ele>
        <time>2021-12-19T11:17:06Z</time>
      </trkpt>
      <trkpt lat="45.34539" lon="5.72338">
        <ele>1639.8</ele>
        <time>2021-12-19T11:17:07Z</time>
      </trkpt>
      <trkpt lat="45.34539" lon="5.72338">
        <ele>1639.8</ele>
        <time>2021-12-19T11:17:08Z</time>
      </trkpt>
      <trkpt lat="45.34538" lon="5.72339">
        <ele>1639.8</ele>
        <time>2021-12-19T11:17:09Z</time>
      </trkpt>
      <trkpt lat="45.34538" lon="5.72339">
        <ele>1639.8</ele>
        <time>2021-12-19T11:17:10Z</time>
      </trkpt>
      <trkpt lat="45.34537" lon="5.7234">
        <ele>1639.8</ele>
        <time>2021-12-19T11:17:11Z</time>
      </trkpt>
      <trkpt lat="45.34537" lon="5.7234">
        <ele>1639.8</ele>
        <time>2021-12-19T11:17:12Z</time>
      </trkpt>
      <trkpt lat="45.34536" lon="5.7234">
        <ele>1639.8</ele>
        <time>2021-12-19T11:17:13Z</time>
      </trkpt>
      <trkpt lat="45.34536" lon="5.72341">
        <ele>1639.8</ele>
        <time>2021-12-19T11:17:14Z</time>
      </trkpt>
      <trkpt lat="45.34536" lon="5.72341">
        <ele>1639.8</ele>
        <time>2021-12-19T11:17:15Z</time>
      </trkpt>
      <trkpt lat="45.34535" lon="5.72342">
        <ele>1639.8</ele>
        <time>2021-12-19T11:17:16Z</time>
      </trkpt>
      <trkpt lat="45.34535" lon="5.72341">
        <ele>1639.8</ele>
        <time>2021-12-19T11:17:17Z</time>
      </trkpt>
      <trkpt lat="45.34535" lon="5.72342">
        <ele>1639.8</ele>
        <time>2021-12-19T11:17:18Z</time>
      </trkpt>
      <trkpt lat="45.34534" lon="5.72342">
        <ele>1639.8</ele>
        <time>2021-12-19T11:17:19Z</time>
      </trkpt>
      <trkpt lat="45.34534" lon="5.72342">
        <ele>1639.8</ele>
        <time>2021-12-19T11:17:20Z</time>
      </trkpt>
      <trkpt lat="45.34534" lon="5.72342">
        <ele>1639.8</ele>
        <time>2021-12-19T11:17:21Z</time>
      </trkpt>
      <trkpt lat="45.34533" lon="5.72343">
        <ele>1639.8</ele>
        <time>2021-12-19T11:17:22Z</time>
      </trkpt>
      <trkpt lat="45.34533" lon="5.72343">
        <ele>1639.8</ele>
        <time>2021-12-19T11:17:23Z</time>
      </trkpt>
      <trkpt lat="45.34532" lon="5.72343">
        <ele>1639.8</ele>
        <time>2021-12-19T11:17:24Z</time>
      </trkpt>
      <trkpt lat="45.34532" lon="5.72344">
        <ele>1639.8</ele>
        <time>2021-12-19T11:17:25Z</time>
      </trkpt>
      <trkpt lat="45.34531" lon="5.72344">
        <ele>1639.8</ele>
        <time>2021-12-19T11:17:26Z</time>
      </trkpt>
      <trkpt lat="45.3453" lon="5.72344">
        <ele>1639.8</ele>
        <time>2021-12-19T11:17:27Z</time>
      </trkpt>
      <trkpt lat="45.3453" lon="5.72345">
        <ele>1639.8</ele>
        <time>2021-12-19T11:17:28Z</time>
      </trkpt>
      <trkpt lat="45.34529" lon="5.72345">
        <ele>1639.8</ele>
        <time>2021-12-19T11:17:29Z</time>
      </trkpt>
      <trkpt lat="45.34528" lon="5.72345">
        <ele>1639.8</ele>
        <time>2021-12-19T11:17:30Z</time>
      </trkpt>
      <trkpt lat="45.34528" lon="5.72345">
        <ele>1639.8</ele>
        <time>2021-12-19T11:17:31Z</time>
      </trkpt>
      <trkpt lat="45.34527" lon="5.72345">
        <ele>1639.8</ele>
        <time>2021-12-19T11:17:32Z</time>
      </trkpt>
      <trkpt lat="45.34526" lon="5.72344">
        <ele>1639.8</ele>
        <time>2021-12-19T11:17:33Z</time>
      </trkpt>
      <trkpt lat="45.34526" lon="5.72345">
        <ele>1639.8</ele>
        <time>2021-12-19T11:17:34Z</time>
      </trkpt>
      <trkpt lat="45.34525" lon="5.72345">
        <ele>1639.8</ele>
        <time>2021-12-19T11:17:35Z</time>
      </trkpt>
      <trkpt lat="45.34525" lon="5.72344">
        <ele>1639.8</ele>
        <time>2021-12-19T11:17:36Z</time>
      </trkpt>
      <trkpt lat="45.34525" lon="5.72344">
        <ele>1639.8</ele>
        <time>2021-12-19T11:17:37Z</time>
      </trkpt>
      <trkpt lat="45.34524" lon="5.72344">
        <ele>1639.8</ele>
        <time>2021-12-19T11:17:38Z</time>
      </trkpt>
      <trkpt lat="45.34524" lon="5.72344">
        <ele>1639.8</ele>
        <time>2021-12-19T11:17:39Z</time>
      </trkpt>
      <trkpt lat="45.34524" lon="5.72344">
        <ele>1639.8</ele>
        <time>2021-12-19T11:17:40Z</time>
      </trkpt>
      <trkpt lat="45.34524" lon="5.72344">
        <ele>1639.8</ele>
        <time>2021-12-19T11:17:41Z</time>
      </trkpt>
      <trkpt lat="45.34524" lon="5.72344">
        <ele>1639.8</ele>
        <time>2021-12-19T11:17:42Z</time>
      </trkpt>
      <trkpt lat="45.34523" lon="5.72344">
        <ele>1639.8</ele>
        <time>2021-12-19T11:17:43Z</time>
      </trkpt>
      <trkpt lat="45.34523" lon="5.72344">
        <ele>1639.8</ele>
        <time>2021-12-19T11:17:44Z</time>
      </trkpt>
      <trkpt lat="45.34522" lon="5.72344">
        <ele>1639.8</ele>
        <time>2021-12-19T11:17:45Z</time>
      </trkpt>
      <trkpt lat="45.34522" lon="5.72344">
        <ele>1639.8</ele>
        <time>2021-12-19T11:17:46Z</time>
      </trkpt>
      <trkpt lat="45.34522" lon="5.72344">
        <ele>1639.8</ele>
        <time>2021-12-19T11:17:47Z</time>
      </trkpt>
      <trkpt lat="45.34522" lon="5.72344">
        <ele>1639.8</ele>
        <time>2021-12-19T11:17:48Z</time>
      </trkpt>
      <trkpt lat="45.34521" lon="5.72343">
        <ele>1639.8</ele>
        <time>2021-12-19T11:17:49Z</time>
      </trkpt>
      <trkpt lat="45.34521" lon="5.72344">
        <ele>1639.8</ele>
        <time>2021-12-19T11:17:50Z</time>
      </trkpt>
      <trkpt lat="45.34521" lon="5.72344">
        <ele>1639.8</ele>
        <time>2021-12-19T11:17:51Z</time>
      </trkpt>
      <trkpt lat="45.34521" lon="5.72343">
        <ele>1639.8</ele>
        <time>2021-12-19T11:17:52Z</time>
      </trkpt>
      <trkpt lat="45.3452" lon="5.72343">
        <ele>1639.8</ele>
        <time>2021-12-19T11:17:53Z</time>
      </trkpt>
      <trkpt lat="45.3452" lon="5.72344">
        <ele>1639.8</ele>
        <time>2021-12-19T11:17:54Z</time>
      </trkpt>
      <trkpt lat="45.3452" lon="5.72344">
        <ele>1639.8</ele>
        <time>2021-12-19T11:17:55Z</time>
      </trkpt>
      <trkpt lat="45.3452" lon="5.72344">
        <ele>1639.8</ele>
        <time>2021-12-19T11:17:56Z</time>
      </trkpt>
      <trkpt lat="45.3452" lon="5.72343">
        <ele>1639.8</ele>
        <time>2021-12-19T11:17:57Z</time>
      </trkpt>
      <trkpt lat="45.34519" lon="5.72343">
        <ele>1639.7</ele>
        <time>2021-12-19T11:17:58Z</time>
      </trkpt>
      <trkpt lat="45.34518" lon="5.72344">
        <ele>1639.7</ele>
        <time>2021-12-19T11:17:59Z</time>
      </trkpt>
      <trkpt lat="45.34518" lon="5.72345">
        <ele>1639.7</ele>
        <time>2021-12-19T11:18:00Z</time>
      </trkpt>
      <trkpt lat="45.34517" lon="5.72346">
        <ele>1639.7</ele>
        <time>2021-12-19T11:18:01Z</time>
      </trkpt>
      <trkpt lat="45.34517" lon="5.72346">
        <ele>1639.7</ele>
        <time>2021-12-19T11:18:02Z</time>
      </trkpt>
      <trkpt lat="45.34516" lon="5.72346">
        <ele>1639.7</ele>
        <time>2021-12-19T11:18:03Z</time>
      </trkpt>
      <trkpt lat="45.34516" lon="5.72347">
        <ele>1639.7</ele>
        <time>2021-12-19T11:18:04Z</time>
      </trkpt>
      <trkpt lat="45.34516" lon="5.72347">
        <ele>1639.7</ele>
        <time>2021-12-19T11:18:05Z</time>
      </trkpt>
      <trkpt lat="45.34515" lon="5.72348">
        <ele>1639.7</ele>
        <time>2021-12-19T11:18:06Z</time>
      </trkpt>
      <trkpt lat="45.34515" lon="5.72348">
        <ele>1639.7</ele>
        <time>2021-12-19T11:18:07Z</time>
      </trkpt>
      <trkpt lat="45.34514" lon="5.72348">
        <ele>1639.7</ele>
        <time>2021-12-19T11:18:08Z</time>
      </trkpt>
      <trkpt lat="45.34513" lon="5.72348">
        <ele>1639.6</ele>
        <time>2021-12-19T11:18:09Z</time>
      </trkpt>
      <trkpt lat="45.34512" lon="5.72349">
        <ele>1639.6</ele>
        <time>2021-12-19T11:18:10Z</time>
      </trkpt>
      <trkpt lat="45.34511" lon="5.72349">
        <ele>1639.6</ele>
        <time>2021-12-19T11:18:11Z</time>
      </trkpt>
      <trkpt lat="45.34511" lon="5.72349">
        <ele>1639.6</ele>
        <time>2021-12-19T11:18:12Z</time>
      </trkpt>
      <trkpt lat="45.3451" lon="5.7235">
        <ele>1639.6</ele>
        <time>2021-12-19T11:18:13Z</time>
      </trkpt>
      <trkpt lat="45.34509" lon="5.7235">
        <ele>1639.5</ele>
        <time>2021-12-19T11:18:14Z</time>
      </trkpt>
      <trkpt lat="45.34509" lon="5.7235">
        <ele>1639.5</ele>
        <time>2021-12-19T11:18:15Z</time>
      </trkpt>
      <trkpt lat="45.34508" lon="5.7235">
        <ele>1639.5</ele>
        <time>2021-12-19T11:18:16Z</time>
      </trkpt>
      <trkpt lat="45.34507" lon="5.7235">
        <ele>1639.5</ele>
        <time>2021-12-19T11:18:17Z</time>
      </trkpt>
      <trkpt lat="45.34507" lon="5.7235">
        <ele>1639.5</ele>
        <time>2021-12-19T11:18:18Z</time>
      </trkpt>
      <trkpt lat="45.34506" lon="5.7235">
        <ele>1639.5</ele>
        <time>2021-12-19T11:18:19Z</time>
      </trkpt>
      <trkpt lat="45.34505" lon="5.7235">
        <ele>1639.4</ele>
        <time>2021-12-19T11:18:20Z</time>
      </trkpt>
      <trkpt lat="45.34505" lon="5.7235">
        <ele>1639.4</ele>
        <time>2021-12-19T11:18:21Z</time>
      </trkpt>
      <trkpt lat="45.34504" lon="5.7235">
        <ele>1639.4</ele>
        <time>2021-12-19T11:18:22Z</time>
      </trkpt>
      <trkpt lat="45.34503" lon="5.72351">
        <ele>1639.4</ele>
        <time>2021-12-19T11:18:23Z</time>
      </trkpt>
      <trkpt lat="45.34503" lon="5.72351">
        <ele>1639.3</ele>
        <time>2021-12-19T11:18:24Z</time>
      </trkpt>
      <trkpt lat="45.34502" lon="5.72351">
        <ele>1639.3</ele>
        <time>2021-12-19T11:18:25Z</time>
      </trkpt>
      <trkpt lat="45.34502" lon="5.72352">
        <ele>1639.3</ele>
        <time>2021-12-19T11:18:26Z</time>
      </trkpt>
      <trkpt lat="45.34501" lon="5.72352">
        <ele>1639.3</ele>
        <time>2021-12-19T11:18:27Z</time>
      </trkpt>
      <trkpt lat="45.345" lon="5.72352">
        <ele>1639.3</ele>
        <time>2021-12-19T11:18:28Z</time>
      </trkpt>
      <trkpt lat="45.345" lon="5.72353">
        <ele>1639.2</ele>
        <time>2021-12-19T11:18:29Z</time>
      </trkpt>
      <trkpt lat="45.34499" lon="5.72353">
        <ele>1639.2</ele>
        <time>2021-12-19T11:18:30Z</time>
      </trkpt>
      <trkpt lat="45.34499" lon="5.72354">
        <ele>1639.2</ele>
        <time>2021-12-19T11:18:31Z</time>
      </trkpt>
      <trkpt lat="45.34498" lon="5.72354">
        <ele>1639.2</ele>
        <time>2021-12-19T11:18:32Z</time>
      </trkpt>
      <trkpt lat="45.34498" lon="5.72355">
        <ele>1639.1</ele>
        <time>2021-12-19T11:18:33Z</time>
      </trkpt>
      <trkpt lat="45.34497" lon="5.72355">
        <ele>1639.1</ele>
        <time>2021-12-19T11:18:34Z</time>
      </trkpt>
      <trkpt lat="45.34496" lon="5.72355">
        <ele>1639.1</ele>
        <time>2021-12-19T11:18:35Z</time>
      </trkpt>
      <trkpt lat="45.34496" lon="5.72355">
        <ele>1639</ele>
        <time>2021-12-19T11:18:36Z</time>
      </trkpt>
      <trkpt lat="45.34496" lon="5.72355">
        <ele>1639</ele>
        <time>2021-12-19T11:18:37Z</time>
      </trkpt>
      <trkpt lat="45.34495" lon="5.72355">
        <ele>1639</ele>
        <time>2021-12-19T11:18:38Z</time>
      </trkpt>
      <trkpt lat="45.34494" lon="5.72354">
        <ele>1639</ele>
        <time>2021-12-19T11:18:39Z</time>
      </trkpt>
      <trkpt lat="45.34493" lon="5.72354">
        <ele>1638.9</ele>
        <time>2021-12-19T11:18:40Z</time>
      </trkpt>
      <trkpt lat="45.34492" lon="5.72354">
        <ele>1638.9</ele>
        <time>2021-12-19T11:18:41Z</time>
      </trkpt>
      <trkpt lat="45.34492" lon="5.72354">
        <ele>1638.8</ele>
        <time>2021-12-19T11:18:42Z</time>
      </trkpt>
      <trkpt lat="45.34491" lon="5.72354">
        <ele>1638.8</ele>
        <time>2021-12-19T11:18:43Z</time>
      </trkpt>
      <trkpt lat="45.34491" lon="5.72354">
        <ele>1638.8</ele>
        <time>2021-12-19T11:18:44Z</time>
      </trkpt>
      <trkpt lat="45.34491" lon="5.72354">
        <ele>1638.8</ele>
        <time>2021-12-19T11:18:45Z</time>
      </trkpt>
      <trkpt lat="45.3449" lon="5.72354">
        <ele>1638.8</ele>
        <time>2021-12-19T11:18:46Z</time>
      </trkpt>
      <trkpt lat="45.3449" lon="5.72354">
        <ele>1638.8</ele>
        <time>2021-12-19T11:18:47Z</time>
      </trkpt>
      <trkpt lat="45.3449" lon="5.72354">
        <ele>1638.8</ele>
        <time>2021-12-19T11:18:48Z</time>
      </trkpt>
      <trkpt lat="45.3449" lon="5.72354">
        <ele>1638.8</ele>
        <time>2021-12-19T11:18:49Z</time>
      </trkpt>
      <trkpt lat="45.3449" lon="5.72354">
        <ele>1638.8</ele>
        <time>2021-12-19T11:18:50Z</time>
      </trkpt>
      <trkpt lat="45.3449" lon="5.72355">
        <ele>1638.7</ele>
        <time>2021-12-19T11:18:51Z</time>
      </trkpt>
      <trkpt lat="45.3449" lon="5.72355">
        <ele>1638.7</ele>
        <time>2021-12-19T11:18:52Z</time>
      </trkpt>
      <trkpt lat="45.34489" lon="5.72354">
        <ele>1638.7</ele>
        <time>2021-12-19T11:18:53Z</time>
      </trkpt>
      <trkpt lat="45.3449" lon="5.72354">
        <ele>1638.7</ele>
        <time>2021-12-19T11:18:54Z</time>
      </trkpt>
      <trkpt lat="45.3449" lon="5.72355">
        <ele>1638.7</ele>
        <time>2021-12-19T11:18:55Z</time>
      </trkpt>
      <trkpt lat="45.3449" lon="5.72355">
        <ele>1638.6</ele>
        <time>2021-12-19T11:18:56Z</time>
      </trkpt>
      <trkpt lat="45.3449" lon="5.72355">
        <ele>1638.6</ele>
        <time>2021-12-19T11:18:57Z</time>
      </trkpt>
      <trkpt lat="45.3449" lon="5.72355">
        <ele>1638.6</ele>
        <time>2021-12-19T11:18:58Z</time>
      </trkpt>
      <trkpt lat="45.3449" lon="5.72355">
        <ele>1638.6</ele>
        <time>2021-12-19T11:18:59Z</time>
      </trkpt>
      <trkpt lat="45.3449" lon="5.72355">
        <ele>1638.6</ele>
        <time>2021-12-19T11:19:00Z</time>
      </trkpt>
      <trkpt lat="45.3449" lon="5.72355">
        <ele>1638.6</ele>
        <time>2021-12-19T11:19:01Z</time>
      </trkpt>
      <trkpt lat="45.3449" lon="5.72355">
        <ele>1638.6</ele>
        <time>2021-12-19T11:19:02Z</time>
      </trkpt>
      <trkpt lat="45.3449" lon="5.72355">
        <ele>1638.6</ele>
        <time>2021-12-19T11:19:03Z</time>
      </trkpt>
      <trkpt lat="45.3449" lon="5.72355">
        <ele>1638.6</ele>
        <time>2021-12-19T11:19:04Z</time>
      </trkpt>
      <trkpt lat="45.3449" lon="5.72355">
        <ele>1638.6</ele>
        <time>2021-12-19T11:19:05Z</time>
      </trkpt>
      <trkpt lat="45.3449" lon="5.72355">
        <ele>1638.6</ele>
        <time>2021-12-19T11:19:06Z</time>
      </trkpt>
      <trkpt lat="45.3449" lon="5.72355">
        <ele>1638.6</ele>
        <time>2021-12-19T11:19:07Z</time>
      </trkpt>
      <trkpt lat="45.3449" lon="5.72355">
        <ele>1638.6</ele>
        <time>2021-12-19T11:19:08Z</time>
      </trkpt>
      <trkpt lat="45.3449" lon="5.72355">
        <ele>1638.6</ele>
        <time>2021-12-19T11:19:09Z</time>
      </trkpt>
      <trkpt lat="45.3449" lon="5.72355">
        <ele>1638.6</ele>
        <time>2021-12-19T11:19:10Z</time>
      </trkpt>
      <trkpt lat="45.3449" lon="5.72355">
        <ele>1638.6</ele>
        <time>2021-12-19T11:19:11Z</time>
      </trkpt>
      <trkpt lat="45.3449" lon="5.72355">
        <ele>1638.6</ele>
        <time>2021-12-19T11:19:12Z</time>
      </trkpt>
      <trkpt lat="45.3449" lon="5.72355">
        <ele>1638.6</ele>
        <time>2021-12-19T11:19:13Z</time>
      </trkpt>
      <trkpt lat="45.3449" lon="5.72355">
        <ele>1638.6</ele>
        <time>2021-12-19T11:19:14Z</time>
      </trkpt>
      <trkpt lat="45.34489" lon="5.72355">
        <ele>1638.5</ele>
        <time>2021-12-19T11:19:15Z</time>
      </trkpt>
      <trkpt lat="45.34489" lon="5.72355">
        <ele>1638.5</ele>
        <time>2021-12-19T11:19:16Z</time>
      </trkpt>
      <trkpt lat="45.34489" lon="5.72355">
        <ele>1638.5</ele>
        <time>2021-12-19T11:19:17Z</time>
      </trkpt>
      <trkpt lat="45.34489" lon="5.72355">
        <ele>1638.5</ele>
        <time>2021-12-19T11:19:18Z</time>
      </trkpt>
      <trkpt lat="45.34489" lon="5.72355">
        <ele>1638.5</ele>
        <time>2021-12-19T11:19:19Z</time>
      </trkpt>
      <trkpt lat="45.34489" lon="5.72355">
        <ele>1638.5</ele>
        <time>2021-12-19T11:19:20Z</time>
      </trkpt>
      <trkpt lat="45.34489" lon="5.72355">
        <ele>1638.5</ele>
        <time>2021-12-19T11:19:21Z</time>
      </trkpt>
      <trkpt lat="45.34489" lon="5.72355">
        <ele>1638.5</ele>
        <time>2021-12-19T11:19:22Z</time>
      </trkpt>
      <trkpt lat="45.34489" lon="5.72355">
        <ele>1638.5</ele>
        <time>2021-12-19T11:19:23Z</time>
      </trkpt>
      <trkpt lat="45.34489" lon="5.72355">
        <ele>1638.5</ele>
        <time>2021-12-19T11:19:24Z</time>
      </trkpt>
      <trkpt lat="45.34489" lon="5.72355">
        <ele>1638.5</ele>
        <time>2021-12-19T11:19:25Z</time>
      </trkpt>
      <trkpt lat="45.34489" lon="5.72355">
        <ele>1638.5</ele>
        <time>2021-12-19T11:19:26Z</time>
      </trkpt>
      <trkpt lat="45.34489" lon="5.72354">
        <ele>1638.5</ele>
        <time>2021-12-19T11:19:27Z</time>
      </trkpt>
      <trkpt lat="45.34489" lon="5.72354">
        <ele>1638.5</ele>
        <time>2021-12-19T11:19:28Z</time>
      </trkpt>
      <trkpt lat="45.34489" lon="5.72354">
        <ele>1638.5</ele>
        <time>2021-12-19T11:19:29Z</time>
      </trkpt>
      <trkpt lat="45.34489" lon="5.72354">
        <ele>1638.5</ele>
        <time>2021-12-19T11:19:30Z</time>
      </trkpt>
      <trkpt lat="45.34489" lon="5.72354">
        <ele>1638.5</ele>
        <time>2021-12-19T11:19:31Z</time>
      </trkpt>
      <trkpt lat="45.34489" lon="5.72354">
        <ele>1638.5</ele>
        <time>2021-12-19T11:19:32Z</time>
      </trkpt>
      <trkpt lat="45.34489" lon="5.72354">
        <ele>1638.4</ele>
        <time>2021-12-19T11:19:33Z</time>
      </trkpt>
      <trkpt lat="45.34489" lon="5.72354">
        <ele>1638.4</ele>
        <time>2021-12-19T11:19:34Z</time>
      </trkpt>
      <trkpt lat="45.34489" lon="5.72354">
        <ele>1638.4</ele>
        <time>2021-12-19T11:19:35Z</time>
      </trkpt>
      <trkpt lat="45.34489" lon="5.72354">
        <ele>1638.4</ele>
        <time>2021-12-19T11:19:36Z</time>
      </trkpt>
      <trkpt lat="45.34489" lon="5.72354">
        <ele>1638.4</ele>
        <time>2021-12-19T11:19:37Z</time>
      </trkpt>
      <trkpt lat="45.34489" lon="5.72354">
        <ele>1638.4</ele>
        <time>2021-12-19T11:19:38Z</time>
      </trkpt>
      <trkpt lat="45.34489" lon="5.72354">
        <ele>1638.4</ele>
        <time>2021-12-19T11:19:39Z</time>
      </trkpt>
      <trkpt lat="45.34489" lon="5.72354">
        <ele>1638.4</ele>
        <time>2021-12-19T11:19:40Z</time>
      </trkpt>
      <trkpt lat="45.3449" lon="5.72354">
        <ele>1638.4</ele>
        <time>2021-12-19T11:19:41Z</time>
      </trkpt>
      <trkpt lat="45.3449" lon="5.72354">
        <ele>1638.4</ele>
        <time>2021-12-19T11:19:42Z</time>
      </trkpt>
      <trkpt lat="45.3449" lon="5.72354">
        <ele>1638.3</ele>
        <time>2021-12-19T11:19:43Z</time>
      </trkpt>
      <trkpt lat="45.34489" lon="5.72355">
        <ele>1638.3</ele>
        <time>2021-12-19T11:19:44Z</time>
      </trkpt>
      <trkpt lat="45.34489" lon="5.72354">
        <ele>1638.3</ele>
        <time>2021-12-19T11:19:45Z</time>
      </trkpt>
      <trkpt lat="45.34489" lon="5.72354">
        <ele>1638.3</ele>
        <time>2021-12-19T11:19:46Z</time>
      </trkpt>
      <trkpt lat="45.34489" lon="5.72354">
        <ele>1638.3</ele>
        <time>2021-12-19T11:19:47Z</time>
      </trkpt>
      <trkpt lat="45.34489" lon="5.72354">
        <ele>1638.3</ele>
        <time>2021-12-19T11:19:48Z</time>
      </trkpt>
      <trkpt lat="45.3449" lon="5.72353">
        <ele>1638.3</ele>
        <time>2021-12-19T11:19:49Z</time>
      </trkpt>
      <trkpt lat="45.3449" lon="5.72353">
        <ele>1638.3</ele>
        <time>2021-12-19T11:19:50Z</time>
      </trkpt>
      <trkpt lat="45.3449" lon="5.72353">
        <ele>1638.3</ele>
        <time>2021-12-19T11:19:51Z</time>
      </trkpt>
      <trkpt lat="45.3449" lon="5.72353">
        <ele>1638.2</ele>
        <time>2021-12-19T11:19:52Z</time>
      </trkpt>
      <trkpt lat="45.3449" lon="5.72353">
        <ele>1638.2</ele>
        <time>2021-12-19T11:19:53Z</time>
      </trkpt>
      <trkpt lat="45.3449" lon="5.72352">
        <ele>1638.2</ele>
        <time>2021-12-19T11:19:54Z</time>
      </trkpt>
      <trkpt lat="45.3449" lon="5.72352">
        <ele>1638.2</ele>
        <time>2021-12-19T11:19:55Z</time>
      </trkpt>
      <trkpt lat="45.3449" lon="5.72352">
        <ele>1638.2</ele>
        <time>2021-12-19T11:19:56Z</time>
      </trkpt>
      <trkpt lat="45.3449" lon="5.72352">
        <ele>1638.2</ele>
        <time>2021-12-19T11:19:57Z</time>
      </trkpt>
      <trkpt lat="45.3449" lon="5.72352">
        <ele>1638.1</ele>
        <time>2021-12-19T11:19:58Z</time>
      </trkpt>
      <trkpt lat="45.34489" lon="5.72352">
        <ele>1638.1</ele>
        <time>2021-12-19T11:19:59Z</time>
      </trkpt>
      <trkpt lat="45.34489" lon="5.72352">
        <ele>1638.1</ele>
        <time>2021-12-19T11:20:00Z</time>
      </trkpt>
      <trkpt lat="45.34489" lon="5.72352">
        <ele>1638.1</ele>
        <time>2021-12-19T11:20:01Z</time>
      </trkpt>
      <trkpt lat="45.34489" lon="5.72352">
        <ele>1638.1</ele>
        <time>2021-12-19T11:20:02Z</time>
      </trkpt>
      <trkpt lat="45.34489" lon="5.72352">
        <ele>1638.1</ele>
        <time>2021-12-19T11:20:03Z</time>
      </trkpt>
      <trkpt lat="45.34489" lon="5.72352">
        <ele>1638.1</ele>
        <time>2021-12-19T11:20:04Z</time>
      </trkpt>
      <trkpt lat="45.34489" lon="5.72352">
        <ele>1638.1</ele>
        <time>2021-12-19T11:20:05Z</time>
      </trkpt>
      <trkpt lat="45.34489" lon="5.72352">
        <ele>1638.1</ele>
        <time>2021-12-19T11:20:06Z</time>
      </trkpt>
      <trkpt lat="45.34489" lon="5.72352">
        <ele>1638.1</ele>
        <time>2021-12-19T11:20:07Z</time>
      </trkpt>
      <trkpt lat="45.34489" lon="5.72352">
        <ele>1638.1</ele>
        <time>2021-12-19T11:20:08Z</time>
      </trkpt>
      <trkpt lat="45.34489" lon="5.72352">
        <ele>1638.1</ele>
        <time>2021-12-19T11:20:09Z</time>
      </trkpt>
      <trkpt lat="45.3449" lon="5.72352">
        <ele>1638.1</ele>
        <time>2021-12-19T11:20:10Z</time>
      </trkpt>
      <trkpt lat="45.3449" lon="5.72352">
        <ele>1638.1</ele>
        <time>2021-12-19T11:20:11Z</time>
      </trkpt>
      <trkpt lat="45.34489" lon="5.72352">
        <ele>1638.1</ele>
        <time>2021-12-19T11:20:12Z</time>
      </trkpt>
      <trkpt lat="45.34489" lon="5.72351">
        <ele>1638</ele>
        <time>2021-12-19T11:20:13Z</time>
      </trkpt>
      <trkpt lat="45.34489" lon="5.7235">
        <ele>1638</ele>
        <time>2021-12-19T11:20:14Z</time>
      </trkpt>
      <trkpt lat="45.34489" lon="5.7235">
        <ele>1638</ele>
        <time>2021-12-19T11:20:15Z</time>
      </trkpt>
      <trkpt lat="45.34489" lon="5.7235">
        <ele>1638</ele>
        <time>2021-12-19T11:20:16Z</time>
      </trkpt>
      <trkpt lat="45.3449" lon="5.7235">
        <ele>1638</ele>
        <time>2021-12-19T11:20:17Z</time>
      </trkpt>
      <trkpt lat="45.34489" lon="5.7235">
        <ele>1638</ele>
        <time>2021-12-19T11:20:18Z</time>
      </trkpt>
      <trkpt lat="45.34489" lon="5.7235">
        <ele>1638</ele>
        <time>2021-12-19T11:20:19Z</time>
      </trkpt>
      <trkpt lat="45.34489" lon="5.72349">
        <ele>1638</ele>
        <time>2021-12-19T11:20:20Z</time>
      </trkpt>
      <trkpt lat="45.3449" lon="5.7235">
        <ele>1638</ele>
        <time>2021-12-19T11:20:21Z</time>
      </trkpt>
      <trkpt lat="45.3449" lon="5.7235">
        <ele>1638</ele>
        <time>2021-12-19T11:20:22Z</time>
      </trkpt>
      <trkpt lat="45.3449" lon="5.72349">
        <ele>1638</ele>
        <time>2021-12-19T11:20:23Z</time>
      </trkpt>
      <trkpt lat="45.3449" lon="5.72349">
        <ele>1638</ele>
        <time>2021-12-19T11:20:24Z</time>
      </trkpt>
      <trkpt lat="45.34489" lon="5.72349">
        <ele>1638</ele>
        <time>2021-12-19T11:20:25Z</time>
      </trkpt>
      <trkpt lat="45.34489" lon="5.7235">
        <ele>1637.9</ele>
        <time>2021-12-19T11:20:26Z</time>
      </trkpt>
      <trkpt lat="45.34489" lon="5.7235">
        <ele>1637.9</ele>
        <time>2021-12-19T11:20:27Z</time>
      </trkpt>
      <trkpt lat="45.34489" lon="5.7235">
        <ele>1637.9</ele>
        <time>2021-12-19T11:20:28Z</time>
      </trkpt>
      <trkpt lat="45.3449" lon="5.7235">
        <ele>1637.9</ele>
        <time>2021-12-19T11:20:29Z</time>
      </trkpt>
      <trkpt lat="45.3449" lon="5.7235">
        <ele>1637.9</ele>
        <time>2021-12-19T11:20:30Z</time>
      </trkpt>
      <trkpt lat="45.3449" lon="5.7235">
        <ele>1637.9</ele>
        <time>2021-12-19T11:20:31Z</time>
      </trkpt>
      <trkpt lat="45.3449" lon="5.7235">
        <ele>1637.9</ele>
        <time>2021-12-19T11:20:32Z</time>
      </trkpt>
      <trkpt lat="45.3449" lon="5.7235">
        <ele>1637.9</ele>
        <time>2021-12-19T11:20:33Z</time>
      </trkpt>
      <trkpt lat="45.3449" lon="5.7235">
        <ele>1637.9</ele>
        <time>2021-12-19T11:20:34Z</time>
      </trkpt>
      <trkpt lat="45.3449" lon="5.7235">
        <ele>1637.9</ele>
        <time>2021-12-19T11:20:35Z</time>
      </trkpt>
      <trkpt lat="45.3449" lon="5.7235">
        <ele>1637.9</ele>
        <time>2021-12-19T11:20:36Z</time>
      </trkpt>
      <trkpt lat="45.3449" lon="5.7235">
        <ele>1637.9</ele>
        <time>2021-12-19T11:20:37Z</time>
      </trkpt>
      <trkpt lat="45.3449" lon="5.7235">
        <ele>1637.9</ele>
        <time>2021-12-19T11:20:38Z</time>
      </trkpt>
      <trkpt lat="45.3449" lon="5.7235">
        <ele>1637.9</ele>
        <time>2021-12-19T11:20:39Z</time>
      </trkpt>
      <trkpt lat="45.3449" lon="5.72351">
        <ele>1637.9</ele>
        <time>2021-12-19T11:20:40Z</time>
      </trkpt>
      <trkpt lat="45.3449" lon="5.72351">
        <ele>1637.9</ele>
        <time>2021-12-19T11:20:41Z</time>
      </trkpt>
      <trkpt lat="45.3449" lon="5.72351">
        <ele>1637.9</ele>
        <time>2021-12-19T11:20:42Z</time>
      </trkpt>
      <trkpt lat="45.3449" lon="5.72351">
        <ele>1637.9</ele>
        <time>2021-12-19T11:20:43Z</time>
      </trkpt>
      <trkpt lat="45.3449" lon="5.72351">
        <ele>1637.8</ele>
        <time>2021-12-19T11:20:44Z</time>
      </trkpt>
      <trkpt lat="45.3449" lon="5.72351">
        <ele>1637.8</ele>
        <time>2021-12-19T11:20:45Z</time>
      </trkpt>
      <trkpt lat="45.3449" lon="5.72351">
        <ele>1637.8</ele>
        <time>2021-12-19T11:20:46Z</time>
      </trkpt>
      <trkpt lat="45.3449" lon="5.72351">
        <ele>1637.8</ele>
        <time>2021-12-19T11:20:47Z</time>
      </trkpt>
      <trkpt lat="45.3449" lon="5.72352">
        <ele>1637.8</ele>
        <time>2021-12-19T11:20:48Z</time>
      </trkpt>
      <trkpt lat="45.3449" lon="5.72351">
        <ele>1637.8</ele>
        <time>2021-12-19T11:20:49Z</time>
      </trkpt>
      <trkpt lat="45.3449" lon="5.72351">
        <ele>1637.8</ele>
        <time>2021-12-19T11:20:50Z</time>
      </trkpt>
      <trkpt lat="45.3449" lon="5.72351">
        <ele>1637.8</ele>
        <time>2021-12-19T11:20:51Z</time>
      </trkpt>
      <trkpt lat="45.3449" lon="5.72351">
        <ele>1637.8</ele>
        <time>2021-12-19T11:20:52Z</time>
      </trkpt>
      <trkpt lat="45.34489" lon="5.72351">
        <ele>1637.8</ele>
        <time>2021-12-19T11:20:53Z</time>
      </trkpt>
      <trkpt lat="45.34489" lon="5.72351">
        <ele>1637.8</ele>
        <time>2021-12-19T11:20:54Z</time>
      </trkpt>
      <trkpt lat="45.34489" lon="5.72352">
        <ele>1637.8</ele>
        <time>2021-12-19T11:20:55Z</time>
      </trkpt>
      <trkpt lat="45.34489" lon="5.72352">
        <ele>1637.8</ele>
        <time>2021-12-19T11:20:56Z</time>
      </trkpt>
      <trkpt lat="45.3449" lon="5.72352">
        <ele>1637.8</ele>
        <time>2021-12-19T11:20:57Z</time>
      </trkpt>
      <trkpt lat="45.3449" lon="5.72352">
        <ele>1637.8</ele>
        <time>2021-12-19T11:20:58Z</time>
      </trkpt>
      <trkpt lat="45.3449" lon="5.72352">
        <ele>1637.8</ele>
        <time>2021-12-19T11:20:59Z</time>
      </trkpt>
      <trkpt lat="45.3449" lon="5.72352">
        <ele>1637.8</ele>
        <time>2021-12-19T11:21:00Z</time>
      </trkpt>
      <trkpt lat="45.3449" lon="5.72352">
        <ele>1637.8</ele>
        <time>2021-12-19T11:21:01Z</time>
      </trkpt>
      <trkpt lat="45.3449" lon="5.72352">
        <ele>1637.8</ele>
        <time>2021-12-19T11:21:02Z</time>
      </trkpt>
      <trkpt lat="45.3449" lon="5.72352">
        <ele>1637.8</ele>
        <time>2021-12-19T11:21:03Z</time>
      </trkpt>
      <trkpt lat="45.3449" lon="5.72352">
        <ele>1637.8</ele>
        <time>2021-12-19T11:21:04Z</time>
      </trkpt>
      <trkpt lat="45.3449" lon="5.72352">
        <ele>1637.8</ele>
        <time>2021-12-19T11:21:05Z</time>
      </trkpt>
      <trkpt lat="45.3449" lon="5.72352">
        <ele>1637.8</ele>
        <time>2021-12-19T11:21:06Z</time>
      </trkpt>
      <trkpt lat="45.3449" lon="5.72352">
        <ele>1637.8</ele>
        <time>2021-12-19T11:21:07Z</time>
      </trkpt>
      <trkpt lat="45.34489" lon="5.72352">
        <ele>1637.8</ele>
        <time>2021-12-19T11:21:08Z</time>
      </trkpt>
      <trkpt lat="45.34489" lon="5.72352">
        <ele>1637.8</ele>
        <time>2021-12-19T11:21:09Z</time>
      </trkpt>
      <trkpt lat="45.34489" lon="5.72352">
        <ele>1637.8</ele>
        <time>2021-12-19T11:21:10Z</time>
      </trkpt>
      <trkpt lat="45.34489" lon="5.72352">
        <ele>1637.8</ele>
        <time>2021-12-19T11:21:11Z</time>
      </trkpt>
      <trkpt lat="45.34489" lon="5.72352">
        <ele>1637.8</ele>
        <time>2021-12-19T11:21:12Z</time>
      </trkpt>
      <trkpt lat="45.34489" lon="5.72352">
        <ele>1637.8</ele>
        <time>2021-12-19T11:21:13Z</time>
      </trkpt>
      <trkpt lat="45.34489" lon="5.72352">
        <ele>1637.8</ele>
        <time>2021-12-19T11:21:14Z</time>
      </trkpt>
      <trkpt lat="45.34489" lon="5.72352">
        <ele>1637.8</ele>
        <time>2021-12-19T11:21:15Z</time>
      </trkpt>
      <trkpt lat="45.34489" lon="5.72352">
        <ele>1637.8</ele>
        <time>2021-12-19T11:21:16Z</time>
      </trkpt>
      <trkpt lat="45.34489" lon="5.72352">
        <ele>1637.8</ele>
        <time>2021-12-19T11:21:17Z</time>
      </trkpt>
      <trkpt lat="45.34489" lon="5.72352">
        <ele>1637.8</ele>
        <time>2021-12-19T11:21:18Z</time>
      </trkpt>
      <trkpt lat="45.34489" lon="5.72352">
        <ele>1637.8</ele>
        <time>2021-12-19T11:21:19Z</time>
      </trkpt>
      <trkpt lat="45.34489" lon="5.72352">
        <ele>1637.8</ele>
        <time>2021-12-19T11:21:20Z</time>
      </trkpt>
      <trkpt lat="45.34489" lon="5.72352">
        <ele>1637.8</ele>
        <time>2021-12-19T11:21:21Z</time>
      </trkpt>
      <trkpt lat="45.34489" lon="5.72352">
        <ele>1637.8</ele>
        <time>2021-12-19T11:21:22Z</time>
      </trkpt>
      <trkpt lat="45.34489" lon="5.72352">
        <ele>1637.8</ele>
        <time>2021-12-19T11:21:23Z</time>
      </trkpt>
      <trkpt lat="45.34489" lon="5.72352">
        <ele>1637.8</ele>
        <time>2021-12-19T11:21:24Z</time>
      </trkpt>
      <trkpt lat="45.34489" lon="5.72352">
        <ele>1637.8</ele>
        <time>2021-12-19T11:21:25Z</time>
      </trkpt>
      <trkpt lat="45.34489" lon="5.72352">
        <ele>1637.8</ele>
        <time>2021-12-19T11:21:26Z</time>
      </trkpt>
      <trkpt lat="45.34489" lon="5.72352">
        <ele>1637.8</ele>
        <time>2021-12-19T11:21:27Z</time>
      </trkpt>
      <trkpt lat="45.34489" lon="5.72352">
        <ele>1637.8</ele>
        <time>2021-12-19T11:21:28Z</time>
      </trkpt>
      <trkpt lat="45.34489" lon="5.72352">
        <ele>1637.8</ele>
        <time>2021-12-19T11:21:29Z</time>
      </trkpt>
      <trkpt lat="45.34489" lon="5.72352">
        <ele>1637.8</ele>
        <time>2021-12-19T11:21:30Z</time>
      </trkpt>
      <trkpt lat="45.34489" lon="5.72352">
        <ele>1637.8</ele>
        <time>2021-12-19T11:21:31Z</time>
      </trkpt>
      <trkpt lat="45.34489" lon="5.72352">
        <ele>1637.8</ele>
        <time>2021-12-19T11:21:32Z</time>
      </trkpt>
      <trkpt lat="45.34489" lon="5.72352">
        <ele>1637.8</ele>
        <time>2021-12-19T11:21:33Z</time>
      </trkpt>
      <trkpt lat="45.34489" lon="5.72352">
        <ele>1637.8</ele>
        <time>2021-12-19T11:21:34Z</time>
      </trkpt>
      <trkpt lat="45.34489" lon="5.72352">
        <ele>1637.8</ele>
        <time>2021-12-19T11:21:35Z</time>
      </trkpt>
      <trkpt lat="45.34489" lon="5.72352">
        <ele>1637.8</ele>
        <time>2021-12-19T11:21:36Z</time>
      </trkpt>
      <trkpt lat="45.34489" lon="5.72352">
        <ele>1637.8</ele>
        <time>2021-12-19T11:21:37Z</time>
      </trkpt>
      <trkpt lat="45.34489" lon="5.72352">
        <ele>1637.8</ele>
        <time>2021-12-19T11:21:38Z</time>
      </trkpt>
      <trkpt lat="45.34489" lon="5.72352">
        <ele>1637.8</ele>
        <time>2021-12-19T11:21:39Z</time>
      </trkpt>
      <trkpt lat="45.34489" lon="5.72352">
        <ele>1637.8</ele>
        <time>2021-12-19T11:21:40Z</time>
      </trkpt>
      <trkpt lat="45.34489" lon="5.72352">
        <ele>1637.8</ele>
        <time>2021-12-19T11:21:41Z</time>
      </trkpt>
      <trkpt lat="45.34489" lon="5.72352">
        <ele>1637.8</ele>
        <time>2021-12-19T11:21:42Z</time>
      </trkpt>
      <trkpt lat="45.34489" lon="5.72352">
        <ele>1637.8</ele>
        <time>2021-12-19T11:21:43Z</time>
      </trkpt>
      <trkpt lat="45.34489" lon="5.72352">
        <ele>1637.8</ele>
        <time>2021-12-19T11:21:44Z</time>
      </trkpt>
      <trkpt lat="45.34489" lon="5.72352">
        <ele>1637.8</ele>
        <time>2021-12-19T11:21:45Z</time>
      </trkpt>
      <trkpt lat="45.34489" lon="5.72352">
        <ele>1637.8</ele>
        <time>2021-12-19T11:21:46Z</time>
      </trkpt>
      <trkpt lat="45.34489" lon="5.72352">
        <ele>1637.8</ele>
        <time>2021-12-19T11:21:47Z</time>
      </trkpt>
      <trkpt lat="45.34489" lon="5.72352">
        <ele>1637.8</ele>
        <time>2021-12-19T11:21:48Z</time>
      </trkpt>
      <trkpt lat="45.34489" lon="5.72352">
        <ele>1637.8</ele>
        <time>2021-12-19T11:21:49Z</time>
      </trkpt>
      <trkpt lat="45.34489" lon="5.72352">
        <ele>1637.8</ele>
        <time>2021-12-19T11:21:50Z</time>
      </trkpt>
      <trkpt lat="45.34489" lon="5.72352">
        <ele>1637.8</ele>
        <time>2021-12-19T11:21:51Z</time>
      </trkpt>
      <trkpt lat="45.34489" lon="5.72352">
        <ele>1637.8</ele>
        <time>2021-12-19T11:21:52Z</time>
      </trkpt>
      <trkpt lat="45.34489" lon="5.72352">
        <ele>1637.8</ele>
        <time>2021-12-19T11:21:53Z</time>
      </trkpt>
      <trkpt lat="45.34489" lon="5.72352">
        <ele>1637.8</ele>
        <time>2021-12-19T11:21:54Z</time>
      </trkpt>
      <trkpt lat="45.34489" lon="5.72352">
        <ele>1637.8</ele>
        <time>2021-12-19T11:21:55Z</time>
      </trkpt>
      <trkpt lat="45.34489" lon="5.72352">
        <ele>1637.8</ele>
        <time>2021-12-19T11:21:56Z</time>
      </trkpt>
      <trkpt lat="45.34489" lon="5.72352">
        <ele>1637.8</ele>
        <time>2021-12-19T11:21:57Z</time>
      </trkpt>
      <trkpt lat="45.34489" lon="5.72352">
        <ele>1637.8</ele>
        <time>2021-12-19T11:21:58Z</time>
      </trkpt>
      <trkpt lat="45.34489" lon="5.72352">
        <ele>1637.8</ele>
        <time>2021-12-19T11:21:59Z</time>
      </trkpt>
      <trkpt lat="45.34489" lon="5.72352">
        <ele>1637.8</ele>
        <time>2021-12-19T11:22:00Z</time>
      </trkpt>
      <trkpt lat="45.34489" lon="5.72352">
        <ele>1637.8</ele>
        <time>2021-12-19T11:22:01Z</time>
      </trkpt>
      <trkpt lat="45.34489" lon="5.72352">
        <ele>1637.8</ele>
        <time>2021-12-19T11:22:02Z</time>
      </trkpt>
      <trkpt lat="45.34489" lon="5.72352">
        <ele>1637.8</ele>
        <time>2021-12-19T11:22:03Z</time>
      </trkpt>
      <trkpt lat="45.34489" lon="5.72352">
        <ele>1637.8</ele>
        <time>2021-12-19T11:22:04Z</time>
      </trkpt>
      <trkpt lat="45.34489" lon="5.72351">
        <ele>1637.7</ele>
        <time>2021-12-19T11:22:05Z</time>
      </trkpt>
      <trkpt lat="45.34489" lon="5.72351">
        <ele>1637.7</ele>
        <time>2021-12-19T11:22:06Z</time>
      </trkpt>
      <trkpt lat="45.3449" lon="5.72351">
        <ele>1637.7</ele>
        <time>2021-12-19T11:22:07Z</time>
      </trkpt>
      <trkpt lat="45.34489" lon="5.72351">
        <ele>1637.7</ele>
        <time>2021-12-19T11:22:08Z</time>
      </trkpt>
      <trkpt lat="45.34489" lon="5.72351">
        <ele>1637.7</ele>
        <time>2021-12-19T11:22:09Z</time>
      </trkpt>
      <trkpt lat="45.34489" lon="5.72351">
        <ele>1637.7</ele>
        <time>2021-12-19T11:22:10Z</time>
      </trkpt>
      <trkpt lat="45.34489" lon="5.72351">
        <ele>1637.7</ele>
        <time>2021-12-19T11:22:11Z</time>
      </trkpt>
      <trkpt lat="45.34489" lon="5.72351">
        <ele>1637.7</ele>
        <time>2021-12-19T11:22:12Z</time>
      </trkpt>
      <trkpt lat="45.34489" lon="5.72351">
        <ele>1637.7</ele>
        <time>2021-12-19T11:22:13Z</time>
      </trkpt>
      <trkpt lat="45.34489" lon="5.72351">
        <ele>1637.7</ele>
        <time>2021-12-19T11:22:14Z</time>
      </trkpt>
      <trkpt lat="45.34489" lon="5.72351">
        <ele>1637.7</ele>
        <time>2021-12-19T11:22:15Z</time>
      </trkpt>
      <trkpt lat="45.34489" lon="5.72351">
        <ele>1637.7</ele>
        <time>2021-12-19T11:22:16Z</time>
      </trkpt>
      <trkpt lat="45.34489" lon="5.72351">
        <ele>1637.7</ele>
        <time>2021-12-19T11:22:17Z</time>
      </trkpt>
      <trkpt lat="45.34489" lon="5.72351">
        <ele>1637.7</ele>
        <time>2021-12-19T11:22:18Z</time>
      </trkpt>
      <trkpt lat="45.34489" lon="5.72351">
        <ele>1637.7</ele>
        <time>2021-12-19T11:22:19Z</time>
      </trkpt>
      <trkpt lat="45.34489" lon="5.72351">
        <ele>1637.7</ele>
        <time>2021-12-19T11:22:20Z</time>
      </trkpt>
      <trkpt lat="45.34489" lon="5.72351">
        <ele>1637.7</ele>
        <time>2021-12-19T11:22:21Z</time>
      </trkpt>
      <trkpt lat="45.34489" lon="5.72351">
        <ele>1637.7</ele>
        <time>2021-12-19T11:22:22Z</time>
      </trkpt>
      <trkpt lat="45.34489" lon="5.72351">
        <ele>1637.7</ele>
        <time>2021-12-19T11:22:23Z</time>
      </trkpt>
      <trkpt lat="45.34489" lon="5.72351">
        <ele>1637.7</ele>
        <time>2021-12-19T11:22:24Z</time>
      </trkpt>
      <trkpt lat="45.34489" lon="5.72351">
        <ele>1637.7</ele>
        <time>2021-12-19T11:22:25Z</time>
      </trkpt>
      <trkpt lat="45.34489" lon="5.72351">
        <ele>1637.7</ele>
        <time>2021-12-19T11:22:26Z</time>
      </trkpt>
      <trkpt lat="45.34489" lon="5.72351">
        <ele>1637.7</ele>
        <time>2021-12-19T11:22:27Z</time>
      </trkpt>
      <trkpt lat="45.34489" lon="5.72351">
        <ele>1637.7</ele>
        <time>2021-12-19T11:22:28Z</time>
      </trkpt>
      <trkpt lat="45.34489" lon="5.72351">
        <ele>1637.7</ele>
        <time>2021-12-19T11:22:29Z</time>
      </trkpt>
      <trkpt lat="45.34489" lon="5.72351">
        <ele>1637.7</ele>
        <time>2021-12-19T11:22:30Z</time>
      </trkpt>
      <trkpt lat="45.34489" lon="5.72351">
        <ele>1637.7</ele>
        <time>2021-12-19T11:22:31Z</time>
      </trkpt>
      <trkpt lat="45.34489" lon="5.72351">
        <ele>1637.7</ele>
        <time>2021-12-19T11:22:32Z</time>
      </trkpt>
      <trkpt lat="45.34489" lon="5.72351">
        <ele>1637.7</ele>
        <time>2021-12-19T11:22:33Z</time>
      </trkpt>
      <trkpt lat="45.34489" lon="5.72351">
        <ele>1637.7</ele>
        <time>2021-12-19T11:22:34Z</time>
      </trkpt>
      <trkpt lat="45.34489" lon="5.72351">
        <ele>1637.7</ele>
        <time>2021-12-19T11:22:35Z</time>
      </trkpt>
      <trkpt lat="45.34489" lon="5.72351">
        <ele>1637.7</ele>
        <time>2021-12-19T11:22:36Z</time>
      </trkpt>
      <trkpt lat="45.34489" lon="5.72351">
        <ele>1637.7</ele>
        <time>2021-12-19T11:22:37Z</time>
      </trkpt>
      <trkpt lat="45.34489" lon="5.72351">
        <ele>1637.7</ele>
        <time>2021-12-19T11:22:38Z</time>
      </trkpt>
      <trkpt lat="45.34489" lon="5.72351">
        <ele>1637.7</ele>
        <time>2021-12-19T11:22:39Z</time>
      </trkpt>
      <trkpt lat="45.34489" lon="5.72351">
        <ele>1637.7</ele>
        <time>2021-12-19T11:22:40Z</time>
      </trkpt>
      <trkpt lat="45.34489" lon="5.72351">
        <ele>1637.7</ele>
        <time>2021-12-19T11:22:41Z</time>
      </trkpt>
      <trkpt lat="45.34489" lon="5.72351">
        <ele>1637.7</ele>
        <time>2021-12-19T11:22:42Z</time>
      </trkpt>
      <trkpt lat="45.34489" lon="5.72351">
        <ele>1637.7</ele>
        <time>2021-12-19T11:22:43Z</time>
      </trkpt>
      <trkpt lat="45.34489" lon="5.72351">
        <ele>1637.7</ele>
        <time>2021-12-19T11:22:44Z</time>
      </trkpt>
      <trkpt lat="45.34489" lon="5.72351">
        <ele>1637.7</ele>
        <time>2021-12-19T11:22:45Z</time>
      </trkpt>
      <trkpt lat="45.34489" lon="5.72351">
        <ele>1637.7</ele>
        <time>2021-12-19T11:22:46Z</time>
      </trkpt>
      <trkpt lat="45.34489" lon="5.72351">
        <ele>1637.7</ele>
        <time>2021-12-19T11:22:47Z</time>
      </trkpt>
      <trkpt lat="45.34489" lon="5.72351">
        <ele>1637.7</ele>
        <time>2021-12-19T11:22:48Z</time>
      </trkpt>
      <trkpt lat="45.34489" lon="5.72351">
        <ele>1637.7</ele>
        <time>2021-12-19T11:22:49Z</time>
      </trkpt>
      <trkpt lat="45.34489" lon="5.72351">
        <ele>1637.7</ele>
        <time>2021-12-19T11:22:50Z</time>
      </trkpt>
      <trkpt lat="45.34489" lon="5.72351">
        <ele>1637.7</ele>
        <time>2021-12-19T11:22:51Z</time>
      </trkpt>
      <trkpt lat="45.34489" lon="5.72351">
        <ele>1637.7</ele>
        <time>2021-12-19T11:22:52Z</time>
      </trkpt>
      <trkpt lat="45.34489" lon="5.72351">
        <ele>1637.7</ele>
        <time>2021-12-19T11:22:53Z</time>
      </trkpt>
      <trkpt lat="45.34489" lon="5.72351">
        <ele>1637.7</ele>
        <time>2021-12-19T11:22:54Z</time>
      </trkpt>
      <trkpt lat="45.34489" lon="5.72351">
        <ele>1637.7</ele>
        <time>2021-12-19T11:22:55Z</time>
      </trkpt>
      <trkpt lat="45.34489" lon="5.72351">
        <ele>1637.7</ele>
        <time>2021-12-19T11:22:56Z</time>
      </trkpt>
      <trkpt lat="45.34488" lon="5.72351">
        <ele>1637.6</ele>
        <time>2021-12-19T11:22:57Z</time>
      </trkpt>
      <trkpt lat="45.34488" lon="5.72351">
        <ele>1637.6</ele>
        <time>2021-12-19T11:22:58Z</time>
      </trkpt>
      <trkpt lat="45.34489" lon="5.72351">
        <ele>1637.6</ele>
        <time>2021-12-19T11:22:59Z</time>
      </trkpt>
      <trkpt lat="45.34489" lon="5.72351">
        <ele>1637.6</ele>
        <time>2021-12-19T11:23:00Z</time>
      </trkpt>
      <trkpt lat="45.34489" lon="5.72351">
        <ele>1637.6</ele>
        <time>2021-12-19T11:23:01Z</time>
      </trkpt>
      <trkpt lat="45.34488" lon="5.72351">
        <ele>1637.6</ele>
        <time>2021-12-19T11:23:02Z</time>
      </trkpt>
      <trkpt lat="45.34488" lon="5.72351">
        <ele>1637.6</ele>
        <time>2021-12-19T11:23:03Z</time>
      </trkpt>
      <trkpt lat="45.34488" lon="5.72351">
        <ele>1637.6</ele>
        <time>2021-12-19T11:23:04Z</time>
      </trkpt>
      <trkpt lat="45.34488" lon="5.72352">
        <ele>1637.6</ele>
        <time>2021-12-19T11:23:05Z</time>
      </trkpt>
      <trkpt lat="45.34487" lon="5.72352">
        <ele>1637.6</ele>
        <time>2021-12-19T11:23:06Z</time>
      </trkpt>
      <trkpt lat="45.34487" lon="5.72352">
        <ele>1637.6</ele>
        <time>2021-12-19T11:23:07Z</time>
      </trkpt>
      <trkpt lat="45.34486" lon="5.72352">
        <ele>1637.6</ele>
        <time>2021-12-19T11:23:08Z</time>
      </trkpt>
      <trkpt lat="45.34486" lon="5.72352">
        <ele>1637.6</ele>
        <time>2021-12-19T11:23:09Z</time>
      </trkpt>
      <trkpt lat="45.34486" lon="5.72352">
        <ele>1637.6</ele>
        <time>2021-12-19T11:23:10Z</time>
      </trkpt>
      <trkpt lat="45.34486" lon="5.72353">
        <ele>1637.6</ele>
        <time>2021-12-19T11:23:11Z</time>
      </trkpt>
      <trkpt lat="45.34486" lon="5.72353">
        <ele>1637.6</ele>
        <time>2021-12-19T11:23:12Z</time>
      </trkpt>
      <trkpt lat="45.34486" lon="5.72353">
        <ele>1637.6</ele>
        <time>2021-12-19T11:23:13Z</time>
      </trkpt>
      <trkpt lat="45.34486" lon="5.72353">
        <ele>1637.6</ele>
        <time>2021-12-19T11:23:14Z</time>
      </trkpt>
      <trkpt lat="45.34486" lon="5.72353">
        <ele>1637.6</ele>
        <time>2021-12-19T11:23:15Z</time>
      </trkpt>
      <trkpt lat="45.34485" lon="5.72353">
        <ele>1637.6</ele>
        <time>2021-12-19T11:23:16Z</time>
      </trkpt>
      <trkpt lat="45.34485" lon="5.72353">
        <ele>1637.6</ele>
        <time>2021-12-19T11:23:17Z</time>
      </trkpt>
      <trkpt lat="45.34485" lon="5.72353">
        <ele>1637.6</ele>
        <time>2021-12-19T11:23:18Z</time>
      </trkpt>
      <trkpt lat="45.34485" lon="5.72353">
        <ele>1637.6</ele>
        <time>2021-12-19T11:23:19Z</time>
      </trkpt>
      <trkpt lat="45.34485" lon="5.72353">
        <ele>1637.6</ele>
        <time>2021-12-19T11:23:20Z</time>
      </trkpt>
      <trkpt lat="45.34485" lon="5.72353">
        <ele>1637.6</ele>
        <time>2021-12-19T11:23:21Z</time>
      </trkpt>
      <trkpt lat="45.34485" lon="5.72353">
        <ele>1637.6</ele>
        <time>2021-12-19T11:23:22Z</time>
      </trkpt>
      <trkpt lat="45.34485" lon="5.72353">
        <ele>1637.6</ele>
        <time>2021-12-19T11:23:23Z</time>
      </trkpt>
      <trkpt lat="45.34485" lon="5.72353">
        <ele>1637.6</ele>
        <time>2021-12-19T11:23:24Z</time>
      </trkpt>
      <trkpt lat="45.34485" lon="5.72353">
        <ele>1637.6</ele>
        <time>2021-12-19T11:23:25Z</time>
      </trkpt>
      <trkpt lat="45.34484" lon="5.72353">
        <ele>1637.6</ele>
        <time>2021-12-19T11:23:26Z</time>
      </trkpt>
      <trkpt lat="45.34484" lon="5.72353">
        <ele>1637.6</ele>
        <time>2021-12-19T11:23:27Z</time>
      </trkpt>
      <trkpt lat="45.34484" lon="5.72354">
        <ele>1637.6</ele>
        <time>2021-12-19T11:23:28Z</time>
      </trkpt>
      <trkpt lat="45.34484" lon="5.72354">
        <ele>1637.6</ele>
        <time>2021-12-19T11:23:29Z</time>
      </trkpt>
      <trkpt lat="45.34484" lon="5.72354">
        <ele>1637.5</ele>
        <time>2021-12-19T11:23:30Z</time>
      </trkpt>
      <trkpt lat="45.34483" lon="5.72353">
        <ele>1637.5</ele>
        <time>2021-12-19T11:23:31Z</time>
      </trkpt>
      <trkpt lat="45.34483" lon="5.72354">
        <ele>1637.5</ele>
        <time>2021-12-19T11:23:32Z</time>
      </trkpt>
      <trkpt lat="45.34483" lon="5.72354">
        <ele>1637.5</ele>
        <time>2021-12-19T11:23:33Z</time>
      </trkpt>
      <trkpt lat="45.34482" lon="5.72354">
        <ele>1637.5</ele>
        <time>2021-12-19T11:23:34Z</time>
      </trkpt>
      <trkpt lat="45.34482" lon="5.72355">
        <ele>1637.5</ele>
        <time>2021-12-19T11:23:35Z</time>
      </trkpt>
      <trkpt lat="45.34482" lon="5.72355">
        <ele>1637.5</ele>
        <time>2021-12-19T11:23:36Z</time>
      </trkpt>
      <trkpt lat="45.34482" lon="5.72356">
        <ele>1637.5</ele>
        <time>2021-12-19T11:23:37Z</time>
      </trkpt>
      <trkpt lat="45.34482" lon="5.72356">
        <ele>1637.5</ele>
        <time>2021-12-19T11:23:38Z</time>
      </trkpt>
      <trkpt lat="45.34482" lon="5.72357">
        <ele>1637.5</ele>
        <time>2021-12-19T11:23:39Z</time>
      </trkpt>
      <trkpt lat="45.34482" lon="5.72357">
        <ele>1637.5</ele>
        <time>2021-12-19T11:23:40Z</time>
      </trkpt>
      <trkpt lat="45.34482" lon="5.72357">
        <ele>1637.5</ele>
        <time>2021-12-19T11:23:41Z</time>
      </trkpt>
      <trkpt lat="45.34482" lon="5.72357">
        <ele>1637.5</ele>
        <time>2021-12-19T11:23:42Z</time>
      </trkpt>
      <trkpt lat="45.34482" lon="5.72358">
        <ele>1637.5</ele>
        <time>2021-12-19T11:23:43Z</time>
      </trkpt>
      <trkpt lat="45.34483" lon="5.72359">
        <ele>1637.5</ele>
        <time>2021-12-19T11:23:44Z</time>
      </trkpt>
      <trkpt lat="45.34483" lon="5.72359">
        <ele>1637.5</ele>
        <time>2021-12-19T11:23:45Z</time>
      </trkpt>
      <trkpt lat="45.34483" lon="5.7236">
        <ele>1637.5</ele>
        <time>2021-12-19T11:23:46Z</time>
      </trkpt>
      <trkpt lat="45.34483" lon="5.72361">
        <ele>1637.5</ele>
        <time>2021-12-19T11:23:47Z</time>
      </trkpt>
      <trkpt lat="45.34484" lon="5.72362">
        <ele>1637.5</ele>
        <time>2021-12-19T11:23:48Z</time>
      </trkpt>
      <trkpt lat="45.34485" lon="5.72363">
        <ele>1637.5</ele>
        <time>2021-12-19T11:23:49Z</time>
      </trkpt>
      <trkpt lat="45.34485" lon="5.72364">
        <ele>1637.5</ele>
        <time>2021-12-19T11:23:50Z</time>
      </trkpt>
      <trkpt lat="45.34485" lon="5.72365">
        <ele>1637.5</ele>
        <time>2021-12-19T11:23:51Z</time>
      </trkpt>
      <trkpt lat="45.34486" lon="5.72366">
        <ele>1637.4</ele>
        <time>2021-12-19T11:23:52Z</time>
      </trkpt>
      <trkpt lat="45.34486" lon="5.72367">
        <ele>1637.4</ele>
        <time>2021-12-19T11:23:53Z</time>
      </trkpt>
      <trkpt lat="45.34486" lon="5.72368">
        <ele>1637.4</ele>
        <time>2021-12-19T11:23:54Z</time>
      </trkpt>
      <trkpt lat="45.34486" lon="5.72369">
        <ele>1637.4</ele>
        <time>2021-12-19T11:23:55Z</time>
      </trkpt>
      <trkpt lat="45.34486" lon="5.7237">
        <ele>1637.4</ele>
        <time>2021-12-19T11:23:56Z</time>
      </trkpt>
      <trkpt lat="45.34486" lon="5.72371">
        <ele>1637.4</ele>
        <time>2021-12-19T11:23:57Z</time>
      </trkpt>
      <trkpt lat="45.34486" lon="5.72371">
        <ele>1637.4</ele>
        <time>2021-12-19T11:23:58Z</time>
      </trkpt>
      <trkpt lat="45.34486" lon="5.72371">
        <ele>1637.4</ele>
        <time>2021-12-19T11:23:59Z</time>
      </trkpt>
      <trkpt lat="45.34486" lon="5.72372">
        <ele>1637.4</ele>
        <time>2021-12-19T11:24:00Z</time>
      </trkpt>
      <trkpt lat="45.34486" lon="5.72372">
        <ele>1637.4</ele>
        <time>2021-12-19T11:24:01Z</time>
      </trkpt>
      <trkpt lat="45.34486" lon="5.72372">
        <ele>1637.4</ele>
        <time>2021-12-19T11:24:02Z</time>
      </trkpt>
      <trkpt lat="45.34486" lon="5.72373">
        <ele>1637.4</ele>
        <time>2021-12-19T11:24:03Z</time>
      </trkpt>
      <trkpt lat="45.34486" lon="5.72373">
        <ele>1637.4</ele>
        <time>2021-12-19T11:24:04Z</time>
      </trkpt>
      <trkpt lat="45.34486" lon="5.72373">
        <ele>1637.4</ele>
        <time>2021-12-19T11:24:05Z</time>
      </trkpt>
      <trkpt lat="45.34485" lon="5.72373">
        <ele>1637.3</ele>
        <time>2021-12-19T11:24:06Z</time>
      </trkpt>
      <trkpt lat="45.34485" lon="5.72373">
        <ele>1637.3</ele>
        <time>2021-12-19T11:24:07Z</time>
      </trkpt>
      <trkpt lat="45.34485" lon="5.72373">
        <ele>1637.3</ele>
        <time>2021-12-19T11:24:08Z</time>
      </trkpt>
      <trkpt lat="45.34485" lon="5.72373">
        <ele>1637.3</ele>
        <time>2021-12-19T11:24:09Z</time>
      </trkpt>
      <trkpt lat="45.34485" lon="5.72373">
        <ele>1637.3</ele>
        <time>2021-12-19T11:24:10Z</time>
      </trkpt>
      <trkpt lat="45.34485" lon="5.72373">
        <ele>1637.3</ele>
        <time>2021-12-19T11:24:11Z</time>
      </trkpt>
      <trkpt lat="45.34485" lon="5.72373">
        <ele>1637.3</ele>
        <time>2021-12-19T11:24:12Z</time>
      </trkpt>
      <trkpt lat="45.34485" lon="5.72373">
        <ele>1637.3</ele>
        <time>2021-12-19T11:24:13Z</time>
      </trkpt>
      <trkpt lat="45.34485" lon="5.72373">
        <ele>1637.3</ele>
        <time>2021-12-19T11:24:14Z</time>
      </trkpt>
      <trkpt lat="45.34485" lon="5.72373">
        <ele>1637.3</ele>
        <time>2021-12-19T11:24:15Z</time>
      </trkpt>
      <trkpt lat="45.34485" lon="5.72373">
        <ele>1637.3</ele>
        <time>2021-12-19T11:24:16Z</time>
      </trkpt>
      <trkpt lat="45.34485" lon="5.72373">
        <ele>1637.3</ele>
        <time>2021-12-19T11:24:17Z</time>
      </trkpt>
      <trkpt lat="45.34485" lon="5.72373">
        <ele>1637.3</ele>
        <time>2021-12-19T11:24:18Z</time>
      </trkpt>
      <trkpt lat="45.34485" lon="5.72373">
        <ele>1637.3</ele>
        <time>2021-12-19T11:24:19Z</time>
      </trkpt>
      <trkpt lat="45.34485" lon="5.72373">
        <ele>1637.3</ele>
        <time>2021-12-19T11:24:20Z</time>
      </trkpt>
      <trkpt lat="45.34486" lon="5.72372">
        <ele>1637.3</ele>
        <time>2021-12-19T11:24:21Z</time>
      </trkpt>
      <trkpt lat="45.34486" lon="5.72372">
        <ele>1637.3</ele>
        <time>2021-12-19T11:24:22Z</time>
      </trkpt>
      <trkpt lat="45.34486" lon="5.72372">
        <ele>1637.3</ele>
        <time>2021-12-19T11:24:23Z</time>
      </trkpt>
      <trkpt lat="45.34485" lon="5.72372">
        <ele>1637.3</ele>
        <time>2021-12-19T11:24:24Z</time>
      </trkpt>
      <trkpt lat="45.34486" lon="5.72372">
        <ele>1637.3</ele>
        <time>2021-12-19T11:24:25Z</time>
      </trkpt>
      <trkpt lat="45.34486" lon="5.72372">
        <ele>1637.3</ele>
        <time>2021-12-19T11:24:26Z</time>
      </trkpt>
      <trkpt lat="45.34486" lon="5.72372">
        <ele>1637.3</ele>
        <time>2021-12-19T11:24:27Z</time>
      </trkpt>
      <trkpt lat="45.34486" lon="5.72372">
        <ele>1637.3</ele>
        <time>2021-12-19T11:24:28Z</time>
      </trkpt>
      <trkpt lat="45.34486" lon="5.72372">
        <ele>1637.3</ele>
        <time>2021-12-19T11:24:29Z</time>
      </trkpt>
      <trkpt lat="45.34486" lon="5.72372">
        <ele>1637.3</ele>
        <time>2021-12-19T11:24:30Z</time>
      </trkpt>
      <trkpt lat="45.34485" lon="5.72372">
        <ele>1637.3</ele>
        <time>2021-12-19T11:24:31Z</time>
      </trkpt>
      <trkpt lat="45.34485" lon="5.72372">
        <ele>1637.3</ele>
        <time>2021-12-19T11:24:32Z</time>
      </trkpt>
      <trkpt lat="45.34485" lon="5.72372">
        <ele>1637.3</ele>
        <time>2021-12-19T11:24:33Z</time>
      </trkpt>
      <trkpt lat="45.34485" lon="5.72372">
        <ele>1637.3</ele>
        <time>2021-12-19T11:24:34Z</time>
      </trkpt>
      <trkpt lat="45.34485" lon="5.72372">
        <ele>1637.3</ele>
        <time>2021-12-19T11:24:35Z</time>
      </trkpt>
      <trkpt lat="45.34485" lon="5.72372">
        <ele>1637.3</ele>
        <time>2021-12-19T11:24:36Z</time>
      </trkpt>
      <trkpt lat="45.34486" lon="5.72372">
        <ele>1637.3</ele>
        <time>2021-12-19T11:24:37Z</time>
      </trkpt>
      <trkpt lat="45.34486" lon="5.72372">
        <ele>1637.3</ele>
        <time>2021-12-19T11:24:38Z</time>
      </trkpt>
      <trkpt lat="45.34486" lon="5.72372">
        <ele>1637.3</ele>
        <time>2021-12-19T11:24:39Z</time>
      </trkpt>
      <trkpt lat="45.34486" lon="5.72372">
        <ele>1637.3</ele>
        <time>2021-12-19T11:24:40Z</time>
      </trkpt>
      <trkpt lat="45.34485" lon="5.72372">
        <ele>1637.3</ele>
        <time>2021-12-19T11:24:41Z</time>
      </trkpt>
      <trkpt lat="45.34485" lon="5.72372">
        <ele>1637.3</ele>
        <time>2021-12-19T11:24:42Z</time>
      </trkpt>
      <trkpt lat="45.34484" lon="5.72372">
        <ele>1637.2</ele>
        <time>2021-12-19T11:24:43Z</time>
      </trkpt>
      <trkpt lat="45.34483" lon="5.72372">
        <ele>1637.2</ele>
        <time>2021-12-19T11:24:44Z</time>
      </trkpt>
      <trkpt lat="45.34483" lon="5.72371">
        <ele>1637.2</ele>
        <time>2021-12-19T11:24:45Z</time>
      </trkpt>
      <trkpt lat="45.34481" lon="5.72371">
        <ele>1637.2</ele>
        <time>2021-12-19T11:24:46Z</time>
      </trkpt>
      <trkpt lat="45.34481" lon="5.7237">
        <ele>1637.1</ele>
        <time>2021-12-19T11:24:47Z</time>
      </trkpt>
      <trkpt lat="45.3448" lon="5.7237">
        <ele>1637.1</ele>
        <time>2021-12-19T11:24:48Z</time>
      </trkpt>
      <trkpt lat="45.34479" lon="5.72369">
        <ele>1637.1</ele>
        <time>2021-12-19T11:24:49Z</time>
      </trkpt>
      <trkpt lat="45.34478" lon="5.72369">
        <ele>1637</ele>
        <time>2021-12-19T11:24:50Z</time>
      </trkpt>
      <trkpt lat="45.34477" lon="5.72369">
        <ele>1637</ele>
        <time>2021-12-19T11:24:51Z</time>
      </trkpt>
      <trkpt lat="45.34476" lon="5.72368">
        <ele>1637</ele>
        <time>2021-12-19T11:24:52Z</time>
      </trkpt>
      <trkpt lat="45.34475" lon="5.72368">
        <ele>1637</ele>
        <time>2021-12-19T11:24:53Z</time>
      </trkpt>
      <trkpt lat="45.34475" lon="5.72367">
        <ele>1637</ele>
        <time>2021-12-19T11:24:54Z</time>
      </trkpt>
      <trkpt lat="45.34474" lon="5.72366">
        <ele>1637</ele>
        <time>2021-12-19T11:24:55Z</time>
      </trkpt>
      <trkpt lat="45.34473" lon="5.72366">
        <ele>1637</ele>
        <time>2021-12-19T11:24:56Z</time>
      </trkpt>
      <trkpt lat="45.34473" lon="5.72365">
        <ele>1637</ele>
        <time>2021-12-19T11:24:57Z</time>
      </trkpt>
      <trkpt lat="45.34472" lon="5.72364">
        <ele>1637</ele>
        <time>2021-12-19T11:24:58Z</time>
      </trkpt>
      <trkpt lat="45.34471" lon="5.72363">
        <ele>1637</ele>
        <time>2021-12-19T11:24:59Z</time>
      </trkpt>
      <trkpt lat="45.34471" lon="5.72363">
        <ele>1637</ele>
        <time>2021-12-19T11:25:00Z</time>
      </trkpt>
      <trkpt lat="45.3447" lon="5.72363">
        <ele>1637</ele>
        <time>2021-12-19T11:25:01Z</time>
      </trkpt>
      <trkpt lat="45.3447" lon="5.72362">
        <ele>1637</ele>
        <time>2021-12-19T11:25:02Z</time>
      </trkpt>
      <trkpt lat="45.34469" lon="5.72361">
        <ele>1637</ele>
        <time>2021-12-19T11:25:03Z</time>
      </trkpt>
      <trkpt lat="45.34469" lon="5.72361">
        <ele>1637</ele>
        <time>2021-12-19T11:25:04Z</time>
      </trkpt>
      <trkpt lat="45.34468" lon="5.7236">
        <ele>1637</ele>
        <time>2021-12-19T11:25:05Z</time>
      </trkpt>
      <trkpt lat="45.34468" lon="5.72359">
        <ele>1637</ele>
        <time>2021-12-19T11:25:06Z</time>
      </trkpt>
      <trkpt lat="45.34467" lon="5.72359">
        <ele>1637</ele>
        <time>2021-12-19T11:25:07Z</time>
      </trkpt>
      <trkpt lat="45.34467" lon="5.72359">
        <ele>1637</ele>
        <time>2021-12-19T11:25:08Z</time>
      </trkpt>
      <trkpt lat="45.34466" lon="5.72358">
        <ele>1636.8</ele>
        <time>2021-12-19T11:25:09Z</time>
      </trkpt>
      <trkpt lat="45.34466" lon="5.72358">
        <ele>1636.2</ele>
        <time>2021-12-19T11:25:10Z</time>
      </trkpt>
      <trkpt lat="45.34466" lon="5.72357">
        <ele>1636.2</ele>
        <time>2021-12-19T11:25:11Z</time>
      </trkpt>
      <trkpt lat="45.34466" lon="5.72357">
        <ele>1636.2</ele>
        <time>2021-12-19T11:25:12Z</time>
      </trkpt>
      <trkpt lat="45.34466" lon="5.72357">
        <ele>1636.2</ele>
        <time>2021-12-19T11:25:13Z</time>
      </trkpt>
      <trkpt lat="45.34466" lon="5.72357">
        <ele>1636.2</ele>
        <time>2021-12-19T11:25:14Z</time>
      </trkpt>
      <trkpt lat="45.34465" lon="5.72357">
        <ele>1636.2</ele>
        <time>2021-12-19T11:25:15Z</time>
      </trkpt>
      <trkpt lat="45.34465" lon="5.72357">
        <ele>1636.2</ele>
        <time>2021-12-19T11:25:16Z</time>
      </trkpt>
      <trkpt lat="45.34465" lon="5.72358">
        <ele>1636.2</ele>
        <time>2021-12-19T11:25:17Z</time>
      </trkpt>
      <trkpt lat="45.34465" lon="5.72358">
        <ele>1636.8</ele>
        <time>2021-12-19T11:25:18Z</time>
      </trkpt>
      <trkpt lat="45.34465" lon="5.72358">
        <ele>1636.8</ele>
        <time>2021-12-19T11:25:19Z</time>
      </trkpt>
      <trkpt lat="45.34465" lon="5.72358">
        <ele>1636.8</ele>
        <time>2021-12-19T11:25:20Z</time>
      </trkpt>
      <trkpt lat="45.34465" lon="5.72358">
        <ele>1636.8</ele>
        <time>2021-12-19T11:25:21Z</time>
      </trkpt>
      <trkpt lat="45.34465" lon="5.72358">
        <ele>1636.8</ele>
        <time>2021-12-19T11:25:22Z</time>
      </trkpt>
      <trkpt lat="45.34465" lon="5.72359">
        <ele>1636.8</ele>
        <time>2021-12-19T11:25:23Z</time>
      </trkpt>
      <trkpt lat="45.34465" lon="5.72358">
        <ele>1636.8</ele>
        <time>2021-12-19T11:25:24Z</time>
      </trkpt>
      <trkpt lat="45.34464" lon="5.72358">
        <ele>1636.8</ele>
        <time>2021-12-19T11:25:25Z</time>
      </trkpt>
      <trkpt lat="45.34464" lon="5.72359">
        <ele>1636.8</ele>
        <time>2021-12-19T11:25:26Z</time>
      </trkpt>
      <trkpt lat="45.34464" lon="5.72359">
        <ele>1636.8</ele>
        <time>2021-12-19T11:25:27Z</time>
      </trkpt>
      <trkpt lat="45.34463" lon="5.72358">
        <ele>1636.6</ele>
        <time>2021-12-19T11:25:28Z</time>
      </trkpt>
      <trkpt lat="45.34463" lon="5.72358">
        <ele>1636.6</ele>
        <time>2021-12-19T11:25:29Z</time>
      </trkpt>
      <trkpt lat="45.34462" lon="5.72357">
        <ele>1636.1</ele>
        <time>2021-12-19T11:25:30Z</time>
      </trkpt>
      <trkpt lat="45.34461" lon="5.72357">
        <ele>1636.1</ele>
        <time>2021-12-19T11:25:31Z</time>
      </trkpt>
      <trkpt lat="45.3446" lon="5.72356">
        <ele>1636</ele>
        <time>2021-12-19T11:25:32Z</time>
      </trkpt>
      <trkpt lat="45.3446" lon="5.72357">
        <ele>1636</ele>
        <time>2021-12-19T11:25:33Z</time>
      </trkpt>
      <trkpt lat="45.34459" lon="5.72357">
        <ele>1636</ele>
        <time>2021-12-19T11:25:34Z</time>
      </trkpt>
      <trkpt lat="45.34459" lon="5.72357">
        <ele>1636</ele>
        <time>2021-12-19T11:25:35Z</time>
      </trkpt>
      <trkpt lat="45.34458" lon="5.72358">
        <ele>1636.5</ele>
        <time>2021-12-19T11:25:36Z</time>
      </trkpt>
      <trkpt lat="45.34457" lon="5.72358">
        <ele>1636.5</ele>
        <time>2021-12-19T11:25:37Z</time>
      </trkpt>
      <trkpt lat="45.34456" lon="5.72359">
        <ele>1636.5</ele>
        <time>2021-12-19T11:25:38Z</time>
      </trkpt>
      <trkpt lat="45.34456" lon="5.72359">
        <ele>1636.5</ele>
        <time>2021-12-19T11:25:39Z</time>
      </trkpt>
      <trkpt lat="45.34455" lon="5.7236">
        <ele>1636.5</ele>
        <time>2021-12-19T11:25:40Z</time>
      </trkpt>
      <trkpt lat="45.34454" lon="5.7236">
        <ele>1636.4</ele>
        <time>2021-12-19T11:25:41Z</time>
      </trkpt>
      <trkpt lat="45.34453" lon="5.7236">
        <ele>1636.4</ele>
        <time>2021-12-19T11:25:42Z</time>
      </trkpt>
      <trkpt lat="45.34452" lon="5.7236">
        <ele>1636.4</ele>
        <time>2021-12-19T11:25:43Z</time>
      </trkpt>
      <trkpt lat="45.34452" lon="5.7236">
        <ele>1636.4</ele>
        <time>2021-12-19T11:25:44Z</time>
      </trkpt>
      <trkpt lat="45.34451" lon="5.7236">
        <ele>1636.5</ele>
        <time>2021-12-19T11:25:45Z</time>
      </trkpt>
      <trkpt lat="45.34451" lon="5.7236">
        <ele>1636.5</ele>
        <time>2021-12-19T11:25:46Z</time>
      </trkpt>
      <trkpt lat="45.3445" lon="5.7236">
        <ele>1636.5</ele>
        <time>2021-12-19T11:25:47Z</time>
      </trkpt>
      <trkpt lat="45.34449" lon="5.7236">
        <ele>1636.5</ele>
        <time>2021-12-19T11:25:48Z</time>
      </trkpt>
      <trkpt lat="45.34449" lon="5.72361">
        <ele>1636.5</ele>
        <time>2021-12-19T11:25:49Z</time>
      </trkpt>
      <trkpt lat="45.34448" lon="5.72361">
        <ele>1636.5</ele>
        <time>2021-12-19T11:25:50Z</time>
      </trkpt>
      <trkpt lat="45.34447" lon="5.72361">
        <ele>1636.5</ele>
        <time>2021-12-19T11:25:51Z</time>
      </trkpt>
      <trkpt lat="45.34446" lon="5.72361">
        <ele>1636.5</ele>
        <time>2021-12-19T11:25:52Z</time>
      </trkpt>
      <trkpt lat="45.34445" lon="5.72362">
        <ele>1636.6</ele>
        <time>2021-12-19T11:25:53Z</time>
      </trkpt>
      <trkpt lat="45.34445" lon="5.72362">
        <ele>1636.6</ele>
        <time>2021-12-19T11:25:54Z</time>
      </trkpt>
      <trkpt lat="45.34444" lon="5.72362">
        <ele>1636.6</ele>
        <time>2021-12-19T11:25:55Z</time>
      </trkpt>
      <trkpt lat="45.34444" lon="5.72362">
        <ele>1636.6</ele>
        <time>2021-12-19T11:25:56Z</time>
      </trkpt>
      <trkpt lat="45.34443" lon="5.72362">
        <ele>1636.8</ele>
        <time>2021-12-19T11:25:57Z</time>
      </trkpt>
      <trkpt lat="45.34443" lon="5.72362">
        <ele>1636.8</ele>
        <time>2021-12-19T11:25:58Z</time>
      </trkpt>
      <trkpt lat="45.34442" lon="5.72362">
        <ele>1636.9</ele>
        <time>2021-12-19T11:25:59Z</time>
      </trkpt>
      <trkpt lat="45.34442" lon="5.72363">
        <ele>1636.9</ele>
        <time>2021-12-19T11:26:00Z</time>
      </trkpt>
      <trkpt lat="45.34442" lon="5.72362">
        <ele>1636.9</ele>
        <time>2021-12-19T11:26:01Z</time>
      </trkpt>
      <trkpt lat="45.34442" lon="5.72362">
        <ele>1636.9</ele>
        <time>2021-12-19T11:26:02Z</time>
      </trkpt>
      <trkpt lat="45.34441" lon="5.72362">
        <ele>1636.9</ele>
        <time>2021-12-19T11:26:03Z</time>
      </trkpt>
      <trkpt lat="45.34441" lon="5.72362">
        <ele>1636.9</ele>
        <time>2021-12-19T11:26:04Z</time>
      </trkpt>
      <trkpt lat="45.34441" lon="5.72362">
        <ele>1636.9</ele>
        <time>2021-12-19T11:26:05Z</time>
      </trkpt>
      <trkpt lat="45.34441" lon="5.72362">
        <ele>1636.8</ele>
        <time>2021-12-19T11:26:06Z</time>
      </trkpt>
      <trkpt lat="45.34441" lon="5.72362">
        <ele>1636.8</ele>
        <time>2021-12-19T11:26:07Z</time>
      </trkpt>
      <trkpt lat="45.3444" lon="5.72362">
        <ele>1636.8</ele>
        <time>2021-12-19T11:26:08Z</time>
      </trkpt>
      <trkpt lat="45.3444" lon="5.72362">
        <ele>1636.8</ele>
        <time>2021-12-19T11:26:09Z</time>
      </trkpt>
      <trkpt lat="45.3444" lon="5.72362">
        <ele>1636.8</ele>
        <time>2021-12-19T11:26:10Z</time>
      </trkpt>
      <trkpt lat="45.3444" lon="5.72362">
        <ele>1636.8</ele>
        <time>2021-12-19T11:26:11Z</time>
      </trkpt>
      <trkpt lat="45.3444" lon="5.72362">
        <ele>1636.8</ele>
        <time>2021-12-19T11:26:12Z</time>
      </trkpt>
      <trkpt lat="45.3444" lon="5.72362">
        <ele>1636.8</ele>
        <time>2021-12-19T11:26:13Z</time>
      </trkpt>
      <trkpt lat="45.3444" lon="5.72362">
        <ele>1636.8</ele>
        <time>2021-12-19T11:26:14Z</time>
      </trkpt>
      <trkpt lat="45.3444" lon="5.72362">
        <ele>1636.8</ele>
        <time>2021-12-19T11:26:15Z</time>
      </trkpt>
      <trkpt lat="45.34441" lon="5.72362">
        <ele>1636.8</ele>
        <time>2021-12-19T11:26:16Z</time>
      </trkpt>
      <trkpt lat="45.34441" lon="5.72361">
        <ele>1636.8</ele>
        <time>2021-12-19T11:26:17Z</time>
      </trkpt>
      <trkpt lat="45.3444" lon="5.72361">
        <ele>1636.8</ele>
        <time>2021-12-19T11:26:18Z</time>
      </trkpt>
      <trkpt lat="45.3444" lon="5.72361">
        <ele>1636.8</ele>
        <time>2021-12-19T11:26:19Z</time>
      </trkpt>
      <trkpt lat="45.3444" lon="5.72361">
        <ele>1636.8</ele>
        <time>2021-12-19T11:26:20Z</time>
      </trkpt>
      <trkpt lat="45.34441" lon="5.72361">
        <ele>1636.8</ele>
        <time>2021-12-19T11:26:21Z</time>
      </trkpt>
      <trkpt lat="45.34441" lon="5.7236">
        <ele>1636.8</ele>
        <time>2021-12-19T11:26:22Z</time>
      </trkpt>
      <trkpt lat="45.34441" lon="5.7236">
        <ele>1636.8</ele>
        <time>2021-12-19T11:26:23Z</time>
      </trkpt>
      <trkpt lat="45.34441" lon="5.72361">
        <ele>1636.8</ele>
        <time>2021-12-19T11:26:24Z</time>
      </trkpt>
      <trkpt lat="45.3444" lon="5.72361">
        <ele>1636.8</ele>
        <time>2021-12-19T11:26:25Z</time>
      </trkpt>
      <trkpt lat="45.3444" lon="5.72361">
        <ele>1636.8</ele>
        <time>2021-12-19T11:26:26Z</time>
      </trkpt>
      <trkpt lat="45.34439" lon="5.72361">
        <ele>1636.8</ele>
        <time>2021-12-19T11:26:27Z</time>
      </trkpt>
      <trkpt lat="45.34438" lon="5.7236">
        <ele>1636.9</ele>
        <time>2021-12-19T11:26:28Z</time>
      </trkpt>
      <trkpt lat="45.34436" lon="5.72358">
        <ele>1636.9</ele>
        <time>2021-12-19T11:26:29Z</time>
      </trkpt>
      <trkpt lat="45.34435" lon="5.72357">
        <ele>1636.9</ele>
        <time>2021-12-19T11:26:30Z</time>
      </trkpt>
      <trkpt lat="45.34433" lon="5.72356">
        <ele>1637</ele>
        <time>2021-12-19T11:26:31Z</time>
      </trkpt>
      <trkpt lat="45.34431" lon="5.72354">
        <ele>1637</ele>
        <time>2021-12-19T11:26:32Z</time>
      </trkpt>
      <trkpt lat="45.3443" lon="5.72353">
        <ele>1637</ele>
        <time>2021-12-19T11:26:33Z</time>
      </trkpt>
      <trkpt lat="45.34429" lon="5.72353">
        <ele>1637</ele>
        <time>2021-12-19T11:26:34Z</time>
      </trkpt>
      <trkpt lat="45.34428" lon="5.72353">
        <ele>1637</ele>
        <time>2021-12-19T11:26:35Z</time>
      </trkpt>
      <trkpt lat="45.34428" lon="5.72352">
        <ele>1637</ele>
        <time>2021-12-19T11:26:36Z</time>
      </trkpt>
      <trkpt lat="45.34427" lon="5.72351">
        <ele>1637.1</ele>
        <time>2021-12-19T11:26:37Z</time>
      </trkpt>
      <trkpt lat="45.34426" lon="5.72351">
        <ele>1637.1</ele>
        <time>2021-12-19T11:26:38Z</time>
      </trkpt>
      <trkpt lat="45.34425" lon="5.7235">
        <ele>1637.1</ele>
        <time>2021-12-19T11:26:39Z</time>
      </trkpt>
      <trkpt lat="45.34425" lon="5.72349">
        <ele>1637.1</ele>
        <time>2021-12-19T11:26:40Z</time>
      </trkpt>
      <trkpt lat="45.34424" lon="5.72349">
        <ele>1637.1</ele>
        <time>2021-12-19T11:26:41Z</time>
      </trkpt>
      <trkpt lat="45.34423" lon="5.72349">
        <ele>1637.1</ele>
        <time>2021-12-19T11:26:42Z</time>
      </trkpt>
      <trkpt lat="45.34422" lon="5.72348">
        <ele>1637.1</ele>
        <time>2021-12-19T11:26:43Z</time>
      </trkpt>
      <trkpt lat="45.34421" lon="5.72347">
        <ele>1637.1</ele>
        <time>2021-12-19T11:26:44Z</time>
      </trkpt>
      <trkpt lat="45.34421" lon="5.72347">
        <ele>1637.2</ele>
        <time>2021-12-19T11:26:45Z</time>
      </trkpt>
      <trkpt lat="45.3442" lon="5.72346">
        <ele>1637.2</ele>
        <time>2021-12-19T11:26:46Z</time>
      </trkpt>
      <trkpt lat="45.34419" lon="5.72346">
        <ele>1637.2</ele>
        <time>2021-12-19T11:26:47Z</time>
      </trkpt>
      <trkpt lat="45.34419" lon="5.72345">
        <ele>1637.2</ele>
        <time>2021-12-19T11:26:48Z</time>
      </trkpt>
      <trkpt lat="45.34418" lon="5.72344">
        <ele>1637.1</ele>
        <time>2021-12-19T11:26:49Z</time>
      </trkpt>
      <trkpt lat="45.34418" lon="5.72344">
        <ele>1637.3</ele>
        <time>2021-12-19T11:26:50Z</time>
      </trkpt>
      <trkpt lat="45.34417" lon="5.72344">
        <ele>1637.3</ele>
        <time>2021-12-19T11:26:51Z</time>
      </trkpt>
      <trkpt lat="45.34416" lon="5.72344">
        <ele>1637.3</ele>
        <time>2021-12-19T11:26:52Z</time>
      </trkpt>
      <trkpt lat="45.34415" lon="5.72344">
        <ele>1637.4</ele>
        <time>2021-12-19T11:26:53Z</time>
      </trkpt>
      <trkpt lat="45.34414" lon="5.72344">
        <ele>1637.4</ele>
        <time>2021-12-19T11:26:54Z</time>
      </trkpt>
      <trkpt lat="45.34413" lon="5.72344">
        <ele>1637.4</ele>
        <time>2021-12-19T11:26:55Z</time>
      </trkpt>
      <trkpt lat="45.34413" lon="5.72344">
        <ele>1637.4</ele>
        <time>2021-12-19T11:26:56Z</time>
      </trkpt>
      <trkpt lat="45.34412" lon="5.72343">
        <ele>1637.5</ele>
        <time>2021-12-19T11:26:57Z</time>
      </trkpt>
      <trkpt lat="45.34411" lon="5.72344">
        <ele>1637.5</ele>
        <time>2021-12-19T11:26:58Z</time>
      </trkpt>
      <trkpt lat="45.3441" lon="5.72343">
        <ele>1637.5</ele>
        <time>2021-12-19T11:26:59Z</time>
      </trkpt>
      <trkpt lat="45.34409" lon="5.72342">
        <ele>1637.5</ele>
        <time>2021-12-19T11:27:00Z</time>
      </trkpt>
      <trkpt lat="45.34409" lon="5.72342">
        <ele>1637.7</ele>
        <time>2021-12-19T11:27:01Z</time>
      </trkpt>
      <trkpt lat="45.34408" lon="5.72341">
        <ele>1637.7</ele>
        <time>2021-12-19T11:27:02Z</time>
      </trkpt>
      <trkpt lat="45.34407" lon="5.7234">
        <ele>1637.8</ele>
        <time>2021-12-19T11:27:03Z</time>
      </trkpt>
      <trkpt lat="45.34407" lon="5.72339">
        <ele>1637.8</ele>
        <time>2021-12-19T11:27:04Z</time>
      </trkpt>
      <trkpt lat="45.34406" lon="5.72338">
        <ele>1638</ele>
        <time>2021-12-19T11:27:05Z</time>
      </trkpt>
      <trkpt lat="45.34405" lon="5.72337">
        <ele>1638</ele>
        <time>2021-12-19T11:27:06Z</time>
      </trkpt>
      <trkpt lat="45.34404" lon="5.72336">
        <ele>1638.1</ele>
        <time>2021-12-19T11:27:07Z</time>
      </trkpt>
      <trkpt lat="45.34404" lon="5.72335">
        <ele>1638.1</ele>
        <time>2021-12-19T11:27:08Z</time>
      </trkpt>
      <trkpt lat="45.34403" lon="5.72334">
        <ele>1638.3</ele>
        <time>2021-12-19T11:27:09Z</time>
      </trkpt>
      <trkpt lat="45.34403" lon="5.72333">
        <ele>1638.3</ele>
        <time>2021-12-19T11:27:10Z</time>
      </trkpt>
      <trkpt lat="45.34402" lon="5.72332">
        <ele>1638.5</ele>
        <time>2021-12-19T11:27:11Z</time>
      </trkpt>
      <trkpt lat="45.34402" lon="5.72331">
        <ele>1638.5</ele>
        <time>2021-12-19T11:27:12Z</time>
      </trkpt>
      <trkpt lat="45.34401" lon="5.7233">
        <ele>1638.5</ele>
        <time>2021-12-19T11:27:13Z</time>
      </trkpt>
      <trkpt lat="45.344" lon="5.7233">
        <ele>1638.8</ele>
        <time>2021-12-19T11:27:14Z</time>
      </trkpt>
      <trkpt lat="45.34399" lon="5.72329">
        <ele>1638.8</ele>
        <time>2021-12-19T11:27:15Z</time>
      </trkpt>
      <trkpt lat="45.34399" lon="5.72328">
        <ele>1638.8</ele>
        <time>2021-12-19T11:27:16Z</time>
      </trkpt>
      <trkpt lat="45.34398" lon="5.72327">
        <ele>1638.9</ele>
        <time>2021-12-19T11:27:17Z</time>
      </trkpt>
      <trkpt lat="45.34398" lon="5.72327">
        <ele>1638.9</ele>
        <time>2021-12-19T11:27:18Z</time>
      </trkpt>
      <trkpt lat="45.34398" lon="5.72325">
        <ele>1638.9</ele>
        <time>2021-12-19T11:27:19Z</time>
      </trkpt>
      <trkpt lat="45.34397" lon="5.72324">
        <ele>1638.9</ele>
        <time>2021-12-19T11:27:20Z</time>
      </trkpt>
      <trkpt lat="45.34397" lon="5.72324">
        <ele>1639.2</ele>
        <time>2021-12-19T11:27:21Z</time>
      </trkpt>
      <trkpt lat="45.34397" lon="5.72322">
        <ele>1639.3</ele>
        <time>2021-12-19T11:27:22Z</time>
      </trkpt>
      <trkpt lat="45.34397" lon="5.72322">
        <ele>1639.3</ele>
        <time>2021-12-19T11:27:23Z</time>
      </trkpt>
      <trkpt lat="45.34397" lon="5.7232">
        <ele>1639.3</ele>
        <time>2021-12-19T11:27:24Z</time>
      </trkpt>
      <trkpt lat="45.34396" lon="5.72319">
        <ele>1639.3</ele>
        <time>2021-12-19T11:27:25Z</time>
      </trkpt>
      <trkpt lat="45.34396" lon="5.72318">
        <ele>1639.4</ele>
        <time>2021-12-19T11:27:26Z</time>
      </trkpt>
      <trkpt lat="45.34395" lon="5.72317">
        <ele>1639.4</ele>
        <time>2021-12-19T11:27:27Z</time>
      </trkpt>
      <trkpt lat="45.34395" lon="5.72316">
        <ele>1639.4</ele>
        <time>2021-12-19T11:27:28Z</time>
      </trkpt>
      <trkpt lat="45.34395" lon="5.72315">
        <ele>1639.4</ele>
        <time>2021-12-19T11:27:29Z</time>
      </trkpt>
      <trkpt lat="45.34395" lon="5.72314">
        <ele>1639.4</ele>
        <time>2021-12-19T11:27:30Z</time>
      </trkpt>
      <trkpt lat="45.34394" lon="5.72313">
        <ele>1639.4</ele>
        <time>2021-12-19T11:27:31Z</time>
      </trkpt>
      <trkpt lat="45.34394" lon="5.72311">
        <ele>1639.8</ele>
        <time>2021-12-19T11:27:32Z</time>
      </trkpt>
      <trkpt lat="45.34394" lon="5.72311">
        <ele>1639.8</ele>
        <time>2021-12-19T11:27:33Z</time>
      </trkpt>
      <trkpt lat="45.34394" lon="5.7231">
        <ele>1639.9</ele>
        <time>2021-12-19T11:27:34Z</time>
      </trkpt>
      <trkpt lat="45.34393" lon="5.72309">
        <ele>1639.9</ele>
        <time>2021-12-19T11:27:35Z</time>
      </trkpt>
      <trkpt lat="45.34393" lon="5.72308">
        <ele>1639.9</ele>
        <time>2021-12-19T11:27:36Z</time>
      </trkpt>
      <trkpt lat="45.34393" lon="5.72307">
        <ele>1639.9</ele>
        <time>2021-12-19T11:27:37Z</time>
      </trkpt>
      <trkpt lat="45.34392" lon="5.72306">
        <ele>1639.9</ele>
        <time>2021-12-19T11:27:38Z</time>
      </trkpt>
      <trkpt lat="45.34392" lon="5.72305">
        <ele>1639.9</ele>
        <time>2021-12-19T11:27:39Z</time>
      </trkpt>
      <trkpt lat="45.34392" lon="5.72303">
        <ele>1639.9</ele>
        <time>2021-12-19T11:27:40Z</time>
      </trkpt>
      <trkpt lat="45.34392" lon="5.72302">
        <ele>1639.8</ele>
        <time>2021-12-19T11:27:41Z</time>
      </trkpt>
      <trkpt lat="45.34391" lon="5.72301">
        <ele>1639.8</ele>
        <time>2021-12-19T11:27:42Z</time>
      </trkpt>
      <trkpt lat="45.34391" lon="5.723">
        <ele>1640.3</ele>
        <time>2021-12-19T11:27:43Z</time>
      </trkpt>
      <trkpt lat="45.34391" lon="5.72299">
        <ele>1640.3</ele>
        <time>2021-12-19T11:27:44Z</time>
      </trkpt>
      <trkpt lat="45.3439" lon="5.72297">
        <ele>1640.2</ele>
        <time>2021-12-19T11:27:45Z</time>
      </trkpt>
      <trkpt lat="45.3439" lon="5.72296">
        <ele>1640.2</ele>
        <time>2021-12-19T11:27:46Z</time>
      </trkpt>
      <trkpt lat="45.3439" lon="5.72295">
        <ele>1640.2</ele>
        <time>2021-12-19T11:27:47Z</time>
      </trkpt>
      <trkpt lat="45.34389" lon="5.72294">
        <ele>1640.2</ele>
        <time>2021-12-19T11:27:48Z</time>
      </trkpt>
      <trkpt lat="45.34388" lon="5.72293">
        <ele>1640.2</ele>
        <time>2021-12-19T11:27:49Z</time>
      </trkpt>
      <trkpt lat="45.34388" lon="5.72293">
        <ele>1640.7</ele>
        <time>2021-12-19T11:27:50Z</time>
      </trkpt>
      <trkpt lat="45.34387" lon="5.72292">
        <ele>1640.7</ele>
        <time>2021-12-19T11:27:51Z</time>
      </trkpt>
      <trkpt lat="45.34387" lon="5.72291">
        <ele>1640.7</ele>
        <time>2021-12-19T11:27:52Z</time>
      </trkpt>
      <trkpt lat="45.34386" lon="5.7229">
        <ele>1640.7</ele>
        <time>2021-12-19T11:27:53Z</time>
      </trkpt>
      <trkpt lat="45.34385" lon="5.72289">
        <ele>1640.7</ele>
        <time>2021-12-19T11:27:54Z</time>
      </trkpt>
      <trkpt lat="45.34385" lon="5.72288">
        <ele>1641.1</ele>
        <time>2021-12-19T11:27:55Z</time>
      </trkpt>
      <trkpt lat="45.34384" lon="5.72288">
        <ele>1641.1</ele>
        <time>2021-12-19T11:27:56Z</time>
      </trkpt>
      <trkpt lat="45.34383" lon="5.72287">
        <ele>1641.1</ele>
        <time>2021-12-19T11:27:57Z</time>
      </trkpt>
      <trkpt lat="45.34383" lon="5.72286">
        <ele>1641.1</ele>
        <time>2021-12-19T11:27:58Z</time>
      </trkpt>
      <trkpt lat="45.34382" lon="5.72286">
        <ele>1641.1</ele>
        <time>2021-12-19T11:27:59Z</time>
      </trkpt>
      <trkpt lat="45.34382" lon="5.72285">
        <ele>1641.6</ele>
        <time>2021-12-19T11:28:00Z</time>
      </trkpt>
      <trkpt lat="45.34382" lon="5.72284">
        <ele>1641.5</ele>
        <time>2021-12-19T11:28:01Z</time>
      </trkpt>
      <trkpt lat="45.34381" lon="5.72283">
        <ele>1641.5</ele>
        <time>2021-12-19T11:28:02Z</time>
      </trkpt>
      <trkpt lat="45.3438" lon="5.72283">
        <ele>1641.5</ele>
        <time>2021-12-19T11:28:03Z</time>
      </trkpt>
      <trkpt lat="45.34379" lon="5.72282">
        <ele>1641.5</ele>
        <time>2021-12-19T11:28:04Z</time>
      </trkpt>
      <trkpt lat="45.34379" lon="5.72281">
        <ele>1642</ele>
        <time>2021-12-19T11:28:05Z</time>
      </trkpt>
      <trkpt lat="45.34378" lon="5.7228">
        <ele>1642</ele>
        <time>2021-12-19T11:28:06Z</time>
      </trkpt>
      <trkpt lat="45.34378" lon="5.7228">
        <ele>1642</ele>
        <time>2021-12-19T11:28:07Z</time>
      </trkpt>
      <trkpt lat="45.34377" lon="5.72279">
        <ele>1642</ele>
        <time>2021-12-19T11:28:08Z</time>
      </trkpt>
      <trkpt lat="45.34376" lon="5.72278">
        <ele>1642</ele>
        <time>2021-12-19T11:28:09Z</time>
      </trkpt>
      <trkpt lat="45.34376" lon="5.72277">
        <ele>1642.5</ele>
        <time>2021-12-19T11:28:10Z</time>
      </trkpt>
      <trkpt lat="45.34375" lon="5.72276">
        <ele>1642.5</ele>
        <time>2021-12-19T11:28:11Z</time>
      </trkpt>
      <trkpt lat="45.34375" lon="5.72275">
        <ele>1642.5</ele>
        <time>2021-12-19T11:28:12Z</time>
      </trkpt>
      <trkpt lat="45.34374" lon="5.72275">
        <ele>1642.5</ele>
        <time>2021-12-19T11:28:13Z</time>
      </trkpt>
      <trkpt lat="45.34373" lon="5.72274">
        <ele>1642.5</ele>
        <time>2021-12-19T11:28:14Z</time>
      </trkpt>
      <trkpt lat="45.34373" lon="5.72273">
        <ele>1643</ele>
        <time>2021-12-19T11:28:15Z</time>
      </trkpt>
      <trkpt lat="45.34372" lon="5.72272">
        <ele>1643</ele>
        <time>2021-12-19T11:28:16Z</time>
      </trkpt>
      <trkpt lat="45.34371" lon="5.72272">
        <ele>1643</ele>
        <time>2021-12-19T11:28:17Z</time>
      </trkpt>
      <trkpt lat="45.3437" lon="5.72271">
        <ele>1643</ele>
        <time>2021-12-19T11:28:18Z</time>
      </trkpt>
      <trkpt lat="45.34369" lon="5.7227">
        <ele>1643.6</ele>
        <time>2021-12-19T11:28:19Z</time>
      </trkpt>
      <trkpt lat="45.34369" lon="5.7227">
        <ele>1643.6</ele>
        <time>2021-12-19T11:28:20Z</time>
      </trkpt>
      <trkpt lat="45.34368" lon="5.72269">
        <ele>1643.6</ele>
        <time>2021-12-19T11:28:21Z</time>
      </trkpt>
      <trkpt lat="45.34367" lon="5.72269">
        <ele>1643.6</ele>
        <time>2021-12-19T11:28:22Z</time>
      </trkpt>
      <trkpt lat="45.34367" lon="5.72268">
        <ele>1644.1</ele>
        <time>2021-12-19T11:28:23Z</time>
      </trkpt>
      <trkpt lat="45.34366" lon="5.72268">
        <ele>1644.2</ele>
        <time>2021-12-19T11:28:24Z</time>
      </trkpt>
      <trkpt lat="45.34366" lon="5.72267">
        <ele>1644.2</ele>
        <time>2021-12-19T11:28:25Z</time>
      </trkpt>
      <trkpt lat="45.34365" lon="5.72267">
        <ele>1644.2</ele>
        <time>2021-12-19T11:28:26Z</time>
      </trkpt>
      <trkpt lat="45.34364" lon="5.72266">
        <ele>1644.8</ele>
        <time>2021-12-19T11:28:27Z</time>
      </trkpt>
      <trkpt lat="45.34363" lon="5.72266">
        <ele>1644.8</ele>
        <time>2021-12-19T11:28:28Z</time>
      </trkpt>
      <trkpt lat="45.34362" lon="5.72265">
        <ele>1644.8</ele>
        <time>2021-12-19T11:28:29Z</time>
      </trkpt>
      <trkpt lat="45.34361" lon="5.72264">
        <ele>1645.4</ele>
        <time>2021-12-19T11:28:30Z</time>
      </trkpt>
      <trkpt lat="45.3436" lon="5.72263">
        <ele>1645.4</ele>
        <time>2021-12-19T11:28:31Z</time>
      </trkpt>
      <trkpt lat="45.34359" lon="5.72263">
        <ele>1645.5</ele>
        <time>2021-12-19T11:28:32Z</time>
      </trkpt>
      <trkpt lat="45.34358" lon="5.72262">
        <ele>1645.5</ele>
        <time>2021-12-19T11:28:33Z</time>
      </trkpt>
      <trkpt lat="45.34357" lon="5.72262">
        <ele>1646.1</ele>
        <time>2021-12-19T11:28:34Z</time>
      </trkpt>
      <trkpt lat="45.34356" lon="5.72261">
        <ele>1646.1</ele>
        <time>2021-12-19T11:28:35Z</time>
      </trkpt>
      <trkpt lat="45.34355" lon="5.72261">
        <ele>1646.1</ele>
        <time>2021-12-19T11:28:36Z</time>
      </trkpt>
      <trkpt lat="45.34355" lon="5.7226">
        <ele>1646.7</ele>
        <time>2021-12-19T11:28:37Z</time>
      </trkpt>
      <trkpt lat="45.34354" lon="5.72259">
        <ele>1646.7</ele>
        <time>2021-12-19T11:28:38Z</time>
      </trkpt>
      <trkpt lat="45.34353" lon="5.72258">
        <ele>1646.9</ele>
        <time>2021-12-19T11:28:39Z</time>
      </trkpt>
      <trkpt lat="45.34352" lon="5.72257">
        <ele>1647.5</ele>
        <time>2021-12-19T11:28:40Z</time>
      </trkpt>
      <trkpt lat="45.34351" lon="5.72257">
        <ele>1647.5</ele>
        <time>2021-12-19T11:28:41Z</time>
      </trkpt>
      <trkpt lat="45.3435" lon="5.72256">
        <ele>1647.5</ele>
        <time>2021-12-19T11:28:42Z</time>
      </trkpt>
      <trkpt lat="45.34349" lon="5.72255">
        <ele>1647.5</ele>
        <time>2021-12-19T11:28:43Z</time>
      </trkpt>
      <trkpt lat="45.34348" lon="5.72255">
        <ele>1648</ele>
        <time>2021-12-19T11:28:44Z</time>
      </trkpt>
      <trkpt lat="45.34348" lon="5.72255">
        <ele>1648</ele>
        <time>2021-12-19T11:28:45Z</time>
      </trkpt>
      <trkpt lat="45.34348" lon="5.72255">
        <ele>1648</ele>
        <time>2021-12-19T11:28:46Z</time>
      </trkpt>
      <trkpt lat="45.34348" lon="5.72255">
        <ele>1648</ele>
        <time>2021-12-19T11:28:47Z</time>
      </trkpt>
      <trkpt lat="45.34347" lon="5.72255">
        <ele>1648</ele>
        <time>2021-12-19T11:28:48Z</time>
      </trkpt>
      <trkpt lat="45.34347" lon="5.72254">
        <ele>1648.2</ele>
        <time>2021-12-19T11:28:49Z</time>
      </trkpt>
      <trkpt lat="45.34346" lon="5.72254">
        <ele>1648.2</ele>
        <time>2021-12-19T11:28:50Z</time>
      </trkpt>
      <trkpt lat="45.34346" lon="5.72253">
        <ele>1648.8</ele>
        <time>2021-12-19T11:28:51Z</time>
      </trkpt>
      <trkpt lat="45.34345" lon="5.72252">
        <ele>1648.8</ele>
        <time>2021-12-19T11:28:52Z</time>
      </trkpt>
      <trkpt lat="45.34345" lon="5.72251">
        <ele>1648.8</ele>
        <time>2021-12-19T11:28:53Z</time>
      </trkpt>
      <trkpt lat="45.34344" lon="5.7225">
        <ele>1649</ele>
        <time>2021-12-19T11:28:54Z</time>
      </trkpt>
      <trkpt lat="45.34343" lon="5.72249">
        <ele>1649</ele>
        <time>2021-12-19T11:28:55Z</time>
      </trkpt>
      <trkpt lat="45.34343" lon="5.72248">
        <ele>1649.6</ele>
        <time>2021-12-19T11:28:56Z</time>
      </trkpt>
      <trkpt lat="45.34342" lon="5.72248">
        <ele>1649.6</ele>
        <time>2021-12-19T11:28:57Z</time>
      </trkpt>
      <trkpt lat="45.34342" lon="5.72247">
        <ele>1649.6</ele>
        <time>2021-12-19T11:28:58Z</time>
      </trkpt>
      <trkpt lat="45.34341" lon="5.72246">
        <ele>1649.6</ele>
        <time>2021-12-19T11:28:59Z</time>
      </trkpt>
      <trkpt lat="45.3434" lon="5.72246">
        <ele>1649.9</ele>
        <time>2021-12-19T11:29:00Z</time>
      </trkpt>
      <trkpt lat="45.34339" lon="5.72245">
        <ele>1650.5</ele>
        <time>2021-12-19T11:29:01Z</time>
      </trkpt>
      <trkpt lat="45.34339" lon="5.72244">
        <ele>1650.5</ele>
        <time>2021-12-19T11:29:02Z</time>
      </trkpt>
      <trkpt lat="45.34338" lon="5.72243">
        <ele>1650.5</ele>
        <time>2021-12-19T11:29:03Z</time>
      </trkpt>
      <trkpt lat="45.34337" lon="5.72243">
        <ele>1650.5</ele>
        <time>2021-12-19T11:29:04Z</time>
      </trkpt>
      <trkpt lat="45.34337" lon="5.72242">
        <ele>1651.1</ele>
        <time>2021-12-19T11:29:05Z</time>
      </trkpt>
      <trkpt lat="45.34336" lon="5.72241">
        <ele>1651.4</ele>
        <time>2021-12-19T11:29:06Z</time>
      </trkpt>
      <trkpt lat="45.34335" lon="5.7224">
        <ele>1651.4</ele>
        <time>2021-12-19T11:29:07Z</time>
      </trkpt>
      <trkpt lat="45.34335" lon="5.7224">
        <ele>1651.4</ele>
        <time>2021-12-19T11:29:08Z</time>
      </trkpt>
      <trkpt lat="45.34334" lon="5.72238">
        <ele>1651.4</ele>
        <time>2021-12-19T11:29:09Z</time>
      </trkpt>
      <trkpt lat="45.34334" lon="5.72237">
        <ele>1652.3</ele>
        <time>2021-12-19T11:29:10Z</time>
      </trkpt>
      <trkpt lat="45.34333" lon="5.72237">
        <ele>1652.3</ele>
        <time>2021-12-19T11:29:11Z</time>
      </trkpt>
      <trkpt lat="45.34333" lon="5.72236">
        <ele>1652.3</ele>
        <time>2021-12-19T11:29:12Z</time>
      </trkpt>
      <trkpt lat="45.34332" lon="5.72235">
        <ele>1652.3</ele>
        <time>2021-12-19T11:29:13Z</time>
      </trkpt>
      <trkpt lat="45.34331" lon="5.72234">
        <ele>1652.3</ele>
        <time>2021-12-19T11:29:14Z</time>
      </trkpt>
      <trkpt lat="45.34331" lon="5.72234">
        <ele>1652.3</ele>
        <time>2021-12-19T11:29:15Z</time>
      </trkpt>
      <trkpt lat="45.3433" lon="5.72233">
        <ele>1653.3</ele>
        <time>2021-12-19T11:29:16Z</time>
      </trkpt>
      <trkpt lat="45.3433" lon="5.72232">
        <ele>1653.3</ele>
        <time>2021-12-19T11:29:17Z</time>
      </trkpt>
      <trkpt lat="45.3433" lon="5.72231">
        <ele>1653.3</ele>
        <time>2021-12-19T11:29:18Z</time>
      </trkpt>
      <trkpt lat="45.34329" lon="5.7223">
        <ele>1653.3</ele>
        <time>2021-12-19T11:29:19Z</time>
      </trkpt>
      <trkpt lat="45.34328" lon="5.7223">
        <ele>1653.3</ele>
        <time>2021-12-19T11:29:20Z</time>
      </trkpt>
      <trkpt lat="45.34328" lon="5.72229">
        <ele>1653.3</ele>
        <time>2021-12-19T11:29:21Z</time>
      </trkpt>
      <trkpt lat="45.34328" lon="5.72228">
        <ele>1654.1</ele>
        <time>2021-12-19T11:29:22Z</time>
      </trkpt>
      <trkpt lat="45.34327" lon="5.72227">
        <ele>1654.1</ele>
        <time>2021-12-19T11:29:23Z</time>
      </trkpt>
      <trkpt lat="45.34327" lon="5.72226">
        <ele>1654.1</ele>
        <time>2021-12-19T11:29:24Z</time>
      </trkpt>
      <trkpt lat="45.34326" lon="5.72225">
        <ele>1654.1</ele>
        <time>2021-12-19T11:29:25Z</time>
      </trkpt>
      <trkpt lat="45.34325" lon="5.72224">
        <ele>1654.4</ele>
        <time>2021-12-19T11:29:26Z</time>
      </trkpt>
      <trkpt lat="45.34325" lon="5.72223">
        <ele>1654.8</ele>
        <time>2021-12-19T11:29:27Z</time>
      </trkpt>
      <trkpt lat="45.34324" lon="5.72223">
        <ele>1654.8</ele>
        <time>2021-12-19T11:29:28Z</time>
      </trkpt>
      <trkpt lat="45.34324" lon="5.72222">
        <ele>1654.8</ele>
        <time>2021-12-19T11:29:29Z</time>
      </trkpt>
      <trkpt lat="45.34323" lon="5.72221">
        <ele>1654.8</ele>
        <time>2021-12-19T11:29:30Z</time>
      </trkpt>
      <trkpt lat="45.34322" lon="5.7222">
        <ele>1655.1</ele>
        <time>2021-12-19T11:29:31Z</time>
      </trkpt>
      <trkpt lat="45.34322" lon="5.72219">
        <ele>1655.1</ele>
        <time>2021-12-19T11:29:32Z</time>
      </trkpt>
      <trkpt lat="45.34321" lon="5.72218">
        <ele>1655.5</ele>
        <time>2021-12-19T11:29:33Z</time>
      </trkpt>
      <trkpt lat="45.3432" lon="5.72218">
        <ele>1655.5</ele>
        <time>2021-12-19T11:29:34Z</time>
      </trkpt>
      <trkpt lat="45.3432" lon="5.72217">
        <ele>1655.5</ele>
        <time>2021-12-19T11:29:35Z</time>
      </trkpt>
      <trkpt lat="45.34319" lon="5.72216">
        <ele>1655.9</ele>
        <time>2021-12-19T11:29:36Z</time>
      </trkpt>
      <trkpt lat="45.34318" lon="5.72215">
        <ele>1656.2</ele>
        <time>2021-12-19T11:29:37Z</time>
      </trkpt>
      <trkpt lat="45.34318" lon="5.72214">
        <ele>1656.2</ele>
        <time>2021-12-19T11:29:38Z</time>
      </trkpt>
      <trkpt lat="45.34317" lon="5.72213">
        <ele>1656.2</ele>
        <time>2021-12-19T11:29:39Z</time>
      </trkpt>
      <trkpt lat="45.34317" lon="5.72212">
        <ele>1656.2</ele>
        <time>2021-12-19T11:29:40Z</time>
      </trkpt>
      <trkpt lat="45.34316" lon="5.72211">
        <ele>1656.6</ele>
        <time>2021-12-19T11:29:41Z</time>
      </trkpt>
      <trkpt lat="45.34316" lon="5.72211">
        <ele>1656.9</ele>
        <time>2021-12-19T11:29:42Z</time>
      </trkpt>
      <trkpt lat="45.34315" lon="5.7221">
        <ele>1656.9</ele>
        <time>2021-12-19T11:29:43Z</time>
      </trkpt>
      <trkpt lat="45.34315" lon="5.72209">
        <ele>1656.9</ele>
        <time>2021-12-19T11:29:44Z</time>
      </trkpt>
      <trkpt lat="45.34315" lon="5.72208">
        <ele>1656.9</ele>
        <time>2021-12-19T11:29:45Z</time>
      </trkpt>
      <trkpt lat="45.34314" lon="5.72208">
        <ele>1656.9</ele>
        <time>2021-12-19T11:29:46Z</time>
      </trkpt>
      <trkpt lat="45.34314" lon="5.72207">
        <ele>1657.3</ele>
        <time>2021-12-19T11:29:47Z</time>
      </trkpt>
      <trkpt lat="45.34313" lon="5.72206">
        <ele>1657.7</ele>
        <time>2021-12-19T11:29:48Z</time>
      </trkpt>
      <trkpt lat="45.34312" lon="5.72205">
        <ele>1657.7</ele>
        <time>2021-12-19T11:29:49Z</time>
      </trkpt>
      <trkpt lat="45.34312" lon="5.72204">
        <ele>1657.7</ele>
        <time>2021-12-19T11:29:50Z</time>
      </trkpt>
      <trkpt lat="45.34311" lon="5.72204">
        <ele>1657.7</ele>
        <time>2021-12-19T11:29:51Z</time>
      </trkpt>
      <trkpt lat="45.34311" lon="5.72202">
        <ele>1658</ele>
        <time>2021-12-19T11:29:52Z</time>
      </trkpt>
      <trkpt lat="45.3431" lon="5.72201">
        <ele>1658</ele>
        <time>2021-12-19T11:29:53Z</time>
      </trkpt>
      <trkpt lat="45.3431" lon="5.722">
        <ele>1658</ele>
        <time>2021-12-19T11:29:54Z</time>
      </trkpt>
      <trkpt lat="45.34309" lon="5.72199">
        <ele>1658.4</ele>
        <time>2021-12-19T11:29:55Z</time>
      </trkpt>
      <trkpt lat="45.34309" lon="5.72198">
        <ele>1658.8</ele>
        <time>2021-12-19T11:29:56Z</time>
      </trkpt>
      <trkpt lat="45.34308" lon="5.72197">
        <ele>1658.8</ele>
        <time>2021-12-19T11:29:57Z</time>
      </trkpt>
      <trkpt lat="45.34308" lon="5.72197">
        <ele>1658.8</ele>
        <time>2021-12-19T11:29:58Z</time>
      </trkpt>
      <trkpt lat="45.34308" lon="5.72196">
        <ele>1658.8</ele>
        <time>2021-12-19T11:29:59Z</time>
      </trkpt>
      <trkpt lat="45.34307" lon="5.72195">
        <ele>1658.8</ele>
        <time>2021-12-19T11:30:00Z</time>
      </trkpt>
      <trkpt lat="45.34307" lon="5.72194">
        <ele>1659.1</ele>
        <time>2021-12-19T11:30:01Z</time>
      </trkpt>
      <trkpt lat="45.34307" lon="5.72194">
        <ele>1659.1</ele>
        <time>2021-12-19T11:30:02Z</time>
      </trkpt>
      <trkpt lat="45.34307" lon="5.72194">
        <ele>1659.6</ele>
        <time>2021-12-19T11:30:03Z</time>
      </trkpt>
      <trkpt lat="45.34307" lon="5.72193">
        <ele>1659.1</ele>
        <time>2021-12-19T11:30:04Z</time>
      </trkpt>
      <trkpt lat="45.34306" lon="5.72192">
        <ele>1659.6</ele>
        <time>2021-12-19T11:30:05Z</time>
      </trkpt>
      <trkpt lat="45.34306" lon="5.72191">
        <ele>1659.6</ele>
        <time>2021-12-19T11:30:06Z</time>
      </trkpt>
      <trkpt lat="45.34305" lon="5.72191">
        <ele>1659.6</ele>
        <time>2021-12-19T11:30:07Z</time>
      </trkpt>
      <trkpt lat="45.34305" lon="5.7219">
        <ele>1659.8</ele>
        <time>2021-12-19T11:30:08Z</time>
      </trkpt>
      <trkpt lat="45.34304" lon="5.7219">
        <ele>1660.3</ele>
        <time>2021-12-19T11:30:09Z</time>
      </trkpt>
      <trkpt lat="45.34303" lon="5.72189">
        <ele>1660.3</ele>
        <time>2021-12-19T11:30:10Z</time>
      </trkpt>
      <trkpt lat="45.34302" lon="5.72188">
        <ele>1660.3</ele>
        <time>2021-12-19T11:30:11Z</time>
      </trkpt>
      <trkpt lat="45.34301" lon="5.72187">
        <ele>1660.3</ele>
        <time>2021-12-19T11:30:12Z</time>
      </trkpt>
      <trkpt lat="45.343" lon="5.72187">
        <ele>1660.6</ele>
        <time>2021-12-19T11:30:13Z</time>
      </trkpt>
      <trkpt lat="45.34299" lon="5.72186">
        <ele>1660.6</ele>
        <time>2021-12-19T11:30:14Z</time>
      </trkpt>
      <trkpt lat="45.34298" lon="5.72186">
        <ele>1661.3</ele>
        <time>2021-12-19T11:30:15Z</time>
      </trkpt>
      <trkpt lat="45.34297" lon="5.72185">
        <ele>1661.3</ele>
        <time>2021-12-19T11:30:16Z</time>
      </trkpt>
      <trkpt lat="45.34296" lon="5.72185">
        <ele>1661.3</ele>
        <time>2021-12-19T11:30:17Z</time>
      </trkpt>
      <trkpt lat="45.34295" lon="5.72184">
        <ele>1661.3</ele>
        <time>2021-12-19T11:30:18Z</time>
      </trkpt>
      <trkpt lat="45.34294" lon="5.72184">
        <ele>1661.6</ele>
        <time>2021-12-19T11:30:19Z</time>
      </trkpt>
      <trkpt lat="45.34293" lon="5.72183">
        <ele>1661.6</ele>
        <time>2021-12-19T11:30:20Z</time>
      </trkpt>
      <trkpt lat="45.34292" lon="5.72183">
        <ele>1661.6</ele>
        <time>2021-12-19T11:30:21Z</time>
      </trkpt>
      <trkpt lat="45.34291" lon="5.72183">
        <ele>1661.9</ele>
        <time>2021-12-19T11:30:22Z</time>
      </trkpt>
      <trkpt lat="45.3429" lon="5.72182">
        <ele>1661.9</ele>
        <time>2021-12-19T11:30:23Z</time>
      </trkpt>
      <trkpt lat="45.34289" lon="5.72182">
        <ele>1662.3</ele>
        <time>2021-12-19T11:30:24Z</time>
      </trkpt>
      <trkpt lat="45.34289" lon="5.72181">
        <ele>1662.3</ele>
        <time>2021-12-19T11:30:25Z</time>
      </trkpt>
      <trkpt lat="45.34288" lon="5.7218">
        <ele>1662.6</ele>
        <time>2021-12-19T11:30:26Z</time>
      </trkpt>
      <trkpt lat="45.34287" lon="5.7218">
        <ele>1662.6</ele>
        <time>2021-12-19T11:30:27Z</time>
      </trkpt>
      <trkpt lat="45.34286" lon="5.72179">
        <ele>1662.6</ele>
        <time>2021-12-19T11:30:28Z</time>
      </trkpt>
      <trkpt lat="45.34285" lon="5.72179">
        <ele>1662.9</ele>
        <time>2021-12-19T11:30:29Z</time>
      </trkpt>
      <trkpt lat="45.34284" lon="5.72178">
        <ele>1662.9</ele>
        <time>2021-12-19T11:30:30Z</time>
      </trkpt>
      <trkpt lat="45.34284" lon="5.72177">
        <ele>1663.3</ele>
        <time>2021-12-19T11:30:31Z</time>
      </trkpt>
      <trkpt lat="45.34283" lon="5.72176">
        <ele>1663.3</ele>
        <time>2021-12-19T11:30:32Z</time>
      </trkpt>
      <trkpt lat="45.34282" lon="5.72176">
        <ele>1663.7</ele>
        <time>2021-12-19T11:30:33Z</time>
      </trkpt>
      <trkpt lat="45.34281" lon="5.72175">
        <ele>1663.7</ele>
        <time>2021-12-19T11:30:34Z</time>
      </trkpt>
      <trkpt lat="45.34281" lon="5.72174">
        <ele>1663.7</ele>
        <time>2021-12-19T11:30:35Z</time>
      </trkpt>
      <trkpt lat="45.3428" lon="5.72173">
        <ele>1664.1</ele>
        <time>2021-12-19T11:30:36Z</time>
      </trkpt>
      <trkpt lat="45.34279" lon="5.72172">
        <ele>1664.5</ele>
        <time>2021-12-19T11:30:37Z</time>
      </trkpt>
      <trkpt lat="45.34278" lon="5.72171">
        <ele>1664.5</ele>
        <time>2021-12-19T11:30:38Z</time>
      </trkpt>
      <trkpt lat="45.34278" lon="5.7217">
        <ele>1664.5</ele>
        <time>2021-12-19T11:30:39Z</time>
      </trkpt>
      <trkpt lat="45.34277" lon="5.72169">
        <ele>1664.5</ele>
        <time>2021-12-19T11:30:40Z</time>
      </trkpt>
      <trkpt lat="45.34276" lon="5.72169">
        <ele>1665.3</ele>
        <time>2021-12-19T11:30:41Z</time>
      </trkpt>
      <trkpt lat="45.34276" lon="5.72168">
        <ele>1665.3</ele>
        <time>2021-12-19T11:30:42Z</time>
      </trkpt>
      <trkpt lat="45.34275" lon="5.72167">
        <ele>1665.3</ele>
        <time>2021-12-19T11:30:43Z</time>
      </trkpt>
      <trkpt lat="45.34274" lon="5.72166">
        <ele>1665.3</ele>
        <time>2021-12-19T11:30:44Z</time>
      </trkpt>
      <trkpt lat="45.34273" lon="5.72166">
        <ele>1665.6</ele>
        <time>2021-12-19T11:30:45Z</time>
      </trkpt>
      <trkpt lat="45.34273" lon="5.72165">
        <ele>1665.6</ele>
        <time>2021-12-19T11:30:46Z</time>
      </trkpt>
      <trkpt lat="45.34272" lon="5.72165">
        <ele>1665.6</ele>
        <time>2021-12-19T11:30:47Z</time>
      </trkpt>
      <trkpt lat="45.34271" lon="5.72164">
        <ele>1666.1</ele>
        <time>2021-12-19T11:30:48Z</time>
      </trkpt>
      <trkpt lat="45.34271" lon="5.72163">
        <ele>1666.1</ele>
        <time>2021-12-19T11:30:49Z</time>
      </trkpt>
      <trkpt lat="45.3427" lon="5.72163">
        <ele>1666.5</ele>
        <time>2021-12-19T11:30:50Z</time>
      </trkpt>
      <trkpt lat="45.3427" lon="5.72162">
        <ele>1666.5</ele>
        <time>2021-12-19T11:30:51Z</time>
      </trkpt>
      <trkpt lat="45.34269" lon="5.72161">
        <ele>1666.5</ele>
        <time>2021-12-19T11:30:52Z</time>
      </trkpt>
      <trkpt lat="45.34269" lon="5.72161">
        <ele>1666.5</ele>
        <time>2021-12-19T11:30:53Z</time>
      </trkpt>
      <trkpt lat="45.34268" lon="5.7216">
        <ele>1667</ele>
        <time>2021-12-19T11:30:54Z</time>
      </trkpt>
      <trkpt lat="45.34268" lon="5.7216">
        <ele>1667</ele>
        <time>2021-12-19T11:30:55Z</time>
      </trkpt>
      <trkpt lat="45.34268" lon="5.72159">
        <ele>1667</ele>
        <time>2021-12-19T11:30:56Z</time>
      </trkpt>
      <trkpt lat="45.34267" lon="5.72159">
        <ele>1667.3</ele>
        <time>2021-12-19T11:30:57Z</time>
      </trkpt>
      <trkpt lat="45.34267" lon="5.72159">
        <ele>1667.3</ele>
        <time>2021-12-19T11:30:58Z</time>
      </trkpt>
      <trkpt lat="45.34267" lon="5.72159">
        <ele>1667.3</ele>
        <time>2021-12-19T11:30:59Z</time>
      </trkpt>
      <trkpt lat="45.34267" lon="5.72159">
        <ele>1667.3</ele>
        <time>2021-12-19T11:31:00Z</time>
      </trkpt>
      <trkpt lat="45.34267" lon="5.72159">
        <ele>1667.3</ele>
        <time>2021-12-19T11:31:01Z</time>
      </trkpt>
      <trkpt lat="45.34267" lon="5.72159">
        <ele>1667.3</ele>
        <time>2021-12-19T11:31:02Z</time>
      </trkpt>
      <trkpt lat="45.34267" lon="5.72159">
        <ele>1667.3</ele>
        <time>2021-12-19T11:31:03Z</time>
      </trkpt>
      <trkpt lat="45.34268" lon="5.72159">
        <ele>1667</ele>
        <time>2021-12-19T11:31:04Z</time>
      </trkpt>
      <trkpt lat="45.34268" lon="5.72159">
        <ele>1667</ele>
        <time>2021-12-19T11:31:05Z</time>
      </trkpt>
      <trkpt lat="45.34268" lon="5.72159">
        <ele>1667</ele>
        <time>2021-12-19T11:31:06Z</time>
      </trkpt>
      <trkpt lat="45.34268" lon="5.72159">
        <ele>1667</ele>
        <time>2021-12-19T11:31:07Z</time>
      </trkpt>
      <trkpt lat="45.34268" lon="5.72158">
        <ele>1667</ele>
        <time>2021-12-19T11:31:08Z</time>
      </trkpt>
      <trkpt lat="45.34269" lon="5.72158">
        <ele>1667</ele>
        <time>2021-12-19T11:31:09Z</time>
      </trkpt>
      <trkpt lat="45.34269" lon="5.72158">
        <ele>1667</ele>
        <time>2021-12-19T11:31:10Z</time>
      </trkpt>
      <trkpt lat="45.34269" lon="5.72158">
        <ele>1667</ele>
        <time>2021-12-19T11:31:11Z</time>
      </trkpt>
      <trkpt lat="45.34269" lon="5.72157">
        <ele>1667</ele>
        <time>2021-12-19T11:31:12Z</time>
      </trkpt>
      <trkpt lat="45.34269" lon="5.72158">
        <ele>1667</ele>
        <time>2021-12-19T11:31:13Z</time>
      </trkpt>
      <trkpt lat="45.34269" lon="5.72158">
        <ele>1667</ele>
        <time>2021-12-19T11:31:14Z</time>
      </trkpt>
      <trkpt lat="45.34269" lon="5.72158">
        <ele>1667</ele>
        <time>2021-12-19T11:31:15Z</time>
      </trkpt>
      <trkpt lat="45.34269" lon="5.72158">
        <ele>1667</ele>
        <time>2021-12-19T11:31:16Z</time>
      </trkpt>
      <trkpt lat="45.3427" lon="5.72158">
        <ele>1667</ele>
        <time>2021-12-19T11:31:17Z</time>
      </trkpt>
      <trkpt lat="45.3427" lon="5.72158">
        <ele>1667</ele>
        <time>2021-12-19T11:31:18Z</time>
      </trkpt>
      <trkpt lat="45.3427" lon="5.72158">
        <ele>1667</ele>
        <time>2021-12-19T11:31:19Z</time>
      </trkpt>
      <trkpt lat="45.34269" lon="5.72158">
        <ele>1667</ele>
        <time>2021-12-19T11:31:20Z</time>
      </trkpt>
      <trkpt lat="45.3427" lon="5.72158">
        <ele>1667</ele>
        <time>2021-12-19T11:31:21Z</time>
      </trkpt>
      <trkpt lat="45.3427" lon="5.72158">
        <ele>1667</ele>
        <time>2021-12-19T11:31:22Z</time>
      </trkpt>
      <trkpt lat="45.3427" lon="5.72157">
        <ele>1667</ele>
        <time>2021-12-19T11:31:23Z</time>
      </trkpt>
      <trkpt lat="45.3427" lon="5.72157">
        <ele>1667</ele>
        <time>2021-12-19T11:31:24Z</time>
      </trkpt>
      <trkpt lat="45.3427" lon="5.72158">
        <ele>1667</ele>
        <time>2021-12-19T11:31:25Z</time>
      </trkpt>
      <trkpt lat="45.3427" lon="5.72157">
        <ele>1667</ele>
        <time>2021-12-19T11:31:26Z</time>
      </trkpt>
      <trkpt lat="45.3427" lon="5.72157">
        <ele>1667</ele>
        <time>2021-12-19T11:31:27Z</time>
      </trkpt>
      <trkpt lat="45.3427" lon="5.72157">
        <ele>1667</ele>
        <time>2021-12-19T11:31:28Z</time>
      </trkpt>
      <trkpt lat="45.3427" lon="5.72157">
        <ele>1667</ele>
        <time>2021-12-19T11:31:29Z</time>
      </trkpt>
      <trkpt lat="45.3427" lon="5.72157">
        <ele>1667</ele>
        <time>2021-12-19T11:31:30Z</time>
      </trkpt>
      <trkpt lat="45.34269" lon="5.72157">
        <ele>1667</ele>
        <time>2021-12-19T11:31:31Z</time>
      </trkpt>
      <trkpt lat="45.34269" lon="5.72157">
        <ele>1667</ele>
        <time>2021-12-19T11:31:32Z</time>
      </trkpt>
      <trkpt lat="45.34269" lon="5.72157">
        <ele>1667</ele>
        <time>2021-12-19T11:31:33Z</time>
      </trkpt>
      <trkpt lat="45.34269" lon="5.72157">
        <ele>1667</ele>
        <time>2021-12-19T11:31:34Z</time>
      </trkpt>
      <trkpt lat="45.34269" lon="5.72157">
        <ele>1667</ele>
        <time>2021-12-19T11:31:35Z</time>
      </trkpt>
      <trkpt lat="45.34269" lon="5.72157">
        <ele>1667</ele>
        <time>2021-12-19T11:31:36Z</time>
      </trkpt>
      <trkpt lat="45.34269" lon="5.72157">
        <ele>1667</ele>
        <time>2021-12-19T11:31:37Z</time>
      </trkpt>
      <trkpt lat="45.34269" lon="5.72157">
        <ele>1667</ele>
        <time>2021-12-19T11:31:38Z</time>
      </trkpt>
      <trkpt lat="45.34269" lon="5.72158">
        <ele>1667</ele>
        <time>2021-12-19T11:31:39Z</time>
      </trkpt>
      <trkpt lat="45.34269" lon="5.72157">
        <ele>1667</ele>
        <time>2021-12-19T11:31:40Z</time>
      </trkpt>
      <trkpt lat="45.34269" lon="5.72157">
        <ele>1667</ele>
        <time>2021-12-19T11:31:41Z</time>
      </trkpt>
      <trkpt lat="45.34269" lon="5.72157">
        <ele>1667</ele>
        <time>2021-12-19T11:31:42Z</time>
      </trkpt>
      <trkpt lat="45.34269" lon="5.72156">
        <ele>1667</ele>
        <time>2021-12-19T11:31:43Z</time>
      </trkpt>
      <trkpt lat="45.34269" lon="5.72156">
        <ele>1667</ele>
        <time>2021-12-19T11:31:44Z</time>
      </trkpt>
      <trkpt lat="45.34269" lon="5.72156">
        <ele>1667</ele>
        <time>2021-12-19T11:31:45Z</time>
      </trkpt>
      <trkpt lat="45.34268" lon="5.72156">
        <ele>1667</ele>
        <time>2021-12-19T11:31:46Z</time>
      </trkpt>
      <trkpt lat="45.34268" lon="5.72156">
        <ele>1667</ele>
        <time>2021-12-19T11:31:47Z</time>
      </trkpt>
      <trkpt lat="45.34268" lon="5.72156">
        <ele>1667</ele>
        <time>2021-12-19T11:31:48Z</time>
      </trkpt>
      <trkpt lat="45.34268" lon="5.72156">
        <ele>1667</ele>
        <time>2021-12-19T11:31:49Z</time>
      </trkpt>
      <trkpt lat="45.34269" lon="5.72156">
        <ele>1667.5</ele>
        <time>2021-12-19T11:31:50Z</time>
      </trkpt>
      <trkpt lat="45.34269" lon="5.72156">
        <ele>1667.5</ele>
        <time>2021-12-19T11:31:51Z</time>
      </trkpt>
      <trkpt lat="45.34269" lon="5.72156">
        <ele>1667.5</ele>
        <time>2021-12-19T11:31:52Z</time>
      </trkpt>
      <trkpt lat="45.34269" lon="5.72156">
        <ele>1667.5</ele>
        <time>2021-12-19T11:31:53Z</time>
      </trkpt>
      <trkpt lat="45.34269" lon="5.72156">
        <ele>1667.5</ele>
        <time>2021-12-19T11:31:54Z</time>
      </trkpt>
      <trkpt lat="45.34269" lon="5.72154">
        <ele>1667.5</ele>
        <time>2021-12-19T11:31:55Z</time>
      </trkpt>
      <trkpt lat="45.34268" lon="5.72154">
        <ele>1667.5</ele>
        <time>2021-12-19T11:31:56Z</time>
      </trkpt>
      <trkpt lat="45.34268" lon="5.72155">
        <ele>1667.5</ele>
        <time>2021-12-19T11:31:57Z</time>
      </trkpt>
      <trkpt lat="45.34268" lon="5.72154">
        <ele>1667.5</ele>
        <time>2021-12-19T11:31:58Z</time>
      </trkpt>
      <trkpt lat="45.34268" lon="5.72154">
        <ele>1667.5</ele>
        <time>2021-12-19T11:31:59Z</time>
      </trkpt>
      <trkpt lat="45.34269" lon="5.72154">
        <ele>1667.5</ele>
        <time>2021-12-19T11:32:00Z</time>
      </trkpt>
      <trkpt lat="45.34268" lon="5.72154">
        <ele>1667.5</ele>
        <time>2021-12-19T11:32:01Z</time>
      </trkpt>
      <trkpt lat="45.34269" lon="5.72154">
        <ele>1667.5</ele>
        <time>2021-12-19T11:32:02Z</time>
      </trkpt>
      <trkpt lat="45.34269" lon="5.72154">
        <ele>1667.5</ele>
        <time>2021-12-19T11:32:03Z</time>
      </trkpt>
      <trkpt lat="45.34269" lon="5.72155">
        <ele>1667.1</ele>
        <time>2021-12-19T11:32:04Z</time>
      </trkpt>
      <trkpt lat="45.34269" lon="5.72155">
        <ele>1666.7</ele>
        <time>2021-12-19T11:32:05Z</time>
      </trkpt>
      <trkpt lat="45.34269" lon="5.72155">
        <ele>1666.2</ele>
        <time>2021-12-19T11:32:06Z</time>
      </trkpt>
      <trkpt lat="45.34269" lon="5.72155">
        <ele>1665.8</ele>
        <time>2021-12-19T11:32:07Z</time>
      </trkpt>
      <trkpt lat="45.3427" lon="5.72155">
        <ele>1665.4</ele>
        <time>2021-12-19T11:32:08Z</time>
      </trkpt>
      <trkpt lat="45.3427" lon="5.72155">
        <ele>1665</ele>
        <time>2021-12-19T11:32:09Z</time>
      </trkpt>
      <trkpt lat="45.3427" lon="5.72154">
        <ele>1664.6</ele>
        <time>2021-12-19T11:32:10Z</time>
      </trkpt>
      <trkpt lat="45.34271" lon="5.72154">
        <ele>1663.6</ele>
        <time>2021-12-19T11:32:11Z</time>
      </trkpt>
      <trkpt lat="45.34271" lon="5.72154">
        <ele>1663.2</ele>
        <time>2021-12-19T11:32:12Z</time>
      </trkpt>
      <trkpt lat="45.34271" lon="5.72154">
        <ele>1662.8</ele>
        <time>2021-12-19T11:32:13Z</time>
      </trkpt>
      <trkpt lat="45.34271" lon="5.72154">
        <ele>1662.4</ele>
        <time>2021-12-19T11:32:14Z</time>
      </trkpt>
      <trkpt lat="45.34271" lon="5.72153">
        <ele>1661.9</ele>
        <time>2021-12-19T11:32:15Z</time>
      </trkpt>
      <trkpt lat="45.34271" lon="5.72153">
        <ele>1661.5</ele>
        <time>2021-12-19T11:32:16Z</time>
      </trkpt>
      <trkpt lat="45.34271" lon="5.72153">
        <ele>1661.1</ele>
        <time>2021-12-19T11:32:17Z</time>
      </trkpt>
      <trkpt lat="45.34271" lon="5.72153">
        <ele>1660.7</ele>
        <time>2021-12-19T11:32:18Z</time>
      </trkpt>
      <trkpt lat="45.34271" lon="5.72153">
        <ele>1660.3</ele>
        <time>2021-12-19T11:32:19Z</time>
      </trkpt>
      <trkpt lat="45.34271" lon="5.72153">
        <ele>1659.8</ele>
        <time>2021-12-19T11:32:20Z</time>
      </trkpt>
      <trkpt lat="45.34271" lon="5.72152">
        <ele>1659.4</ele>
        <time>2021-12-19T11:32:21Z</time>
      </trkpt>
      <trkpt lat="45.34271" lon="5.72152">
        <ele>1659</ele>
        <time>2021-12-19T11:32:22Z</time>
      </trkpt>
      <trkpt lat="45.34271" lon="5.72152">
        <ele>1658.6</ele>
        <time>2021-12-19T11:32:23Z</time>
      </trkpt>
      <trkpt lat="45.34271" lon="5.72152">
        <ele>1658.2</ele>
        <time>2021-12-19T11:32:24Z</time>
      </trkpt>
      <trkpt lat="45.34271" lon="5.72152">
        <ele>1657.7</ele>
        <time>2021-12-19T11:32:25Z</time>
      </trkpt>
      <trkpt lat="45.34271" lon="5.72152">
        <ele>1657.3</ele>
        <time>2021-12-19T11:32:26Z</time>
      </trkpt>
      <trkpt lat="45.34271" lon="5.72152">
        <ele>1656.9</ele>
        <time>2021-12-19T11:32:27Z</time>
      </trkpt>
      <trkpt lat="45.34271" lon="5.72152">
        <ele>1656.5</ele>
        <time>2021-12-19T11:32:28Z</time>
      </trkpt>
      <trkpt lat="45.34271" lon="5.72152">
        <ele>1656.1</ele>
        <time>2021-12-19T11:32:29Z</time>
      </trkpt>
      <trkpt lat="45.3427" lon="5.72153">
        <ele>1656.2</ele>
        <time>2021-12-19T11:32:30Z</time>
      </trkpt>
      <trkpt lat="45.3427" lon="5.72153">
        <ele>1655.7</ele>
        <time>2021-12-19T11:32:31Z</time>
      </trkpt>
      <trkpt lat="45.3427" lon="5.72153">
        <ele>1655.3</ele>
        <time>2021-12-19T11:32:32Z</time>
      </trkpt>
      <trkpt lat="45.3427" lon="5.72153">
        <ele>1654.9</ele>
        <time>2021-12-19T11:32:33Z</time>
      </trkpt>
      <trkpt lat="45.3427" lon="5.72152">
        <ele>1654.5</ele>
        <time>2021-12-19T11:32:34Z</time>
      </trkpt>
      <trkpt lat="45.3427" lon="5.72152">
        <ele>1654.1</ele>
        <time>2021-12-19T11:32:35Z</time>
      </trkpt>
      <trkpt lat="45.3427" lon="5.72152">
        <ele>1653.6</ele>
        <time>2021-12-19T11:32:36Z</time>
      </trkpt>
      <trkpt lat="45.3427" lon="5.72152">
        <ele>1653.2</ele>
        <time>2021-12-19T11:32:37Z</time>
      </trkpt>
      <trkpt lat="45.3427" lon="5.72152">
        <ele>1652.8</ele>
        <time>2021-12-19T11:32:38Z</time>
      </trkpt>
      <trkpt lat="45.3427" lon="5.72152">
        <ele>1652.4</ele>
        <time>2021-12-19T11:32:39Z</time>
      </trkpt>
      <trkpt lat="45.3427" lon="5.72152">
        <ele>1652.3</ele>
        <time>2021-12-19T11:32:40Z</time>
      </trkpt>
      <trkpt lat="45.3427" lon="5.72152">
        <ele>1651.9</ele>
        <time>2021-12-19T11:32:41Z</time>
      </trkpt>
      <trkpt lat="45.3427" lon="5.72152">
        <ele>1651.1</ele>
        <time>2021-12-19T11:32:42Z</time>
      </trkpt>
      <trkpt lat="45.3427" lon="5.72152">
        <ele>1650.7</ele>
        <time>2021-12-19T11:32:43Z</time>
      </trkpt>
      <trkpt lat="45.3427" lon="5.72152">
        <ele>1650.3</ele>
        <time>2021-12-19T11:32:44Z</time>
      </trkpt>
      <trkpt lat="45.3427" lon="5.72152">
        <ele>1649.9</ele>
        <time>2021-12-19T11:32:45Z</time>
      </trkpt>
      <trkpt lat="45.3427" lon="5.72152">
        <ele>1649.4</ele>
        <time>2021-12-19T11:32:46Z</time>
      </trkpt>
      <trkpt lat="45.3427" lon="5.72152">
        <ele>1649</ele>
        <time>2021-12-19T11:32:47Z</time>
      </trkpt>
      <trkpt lat="45.3427" lon="5.72152">
        <ele>1648.6</ele>
        <time>2021-12-19T11:32:48Z</time>
      </trkpt>
      <trkpt lat="45.3427" lon="5.72152">
        <ele>1648.2</ele>
        <time>2021-12-19T11:32:49Z</time>
      </trkpt>
      <trkpt lat="45.3427" lon="5.72152">
        <ele>1647.8</ele>
        <time>2021-12-19T11:32:50Z</time>
      </trkpt>
      <trkpt lat="45.3427" lon="5.72151">
        <ele>1647.7</ele>
        <time>2021-12-19T11:32:51Z</time>
      </trkpt>
      <trkpt lat="45.3427" lon="5.72151">
        <ele>1647.3</ele>
        <time>2021-12-19T11:32:52Z</time>
      </trkpt>
      <trkpt lat="45.3427" lon="5.72151">
        <ele>1646.9</ele>
        <time>2021-12-19T11:32:53Z</time>
      </trkpt>
      <trkpt lat="45.3427" lon="5.72151">
        <ele>1646.4</ele>
        <time>2021-12-19T11:32:54Z</time>
      </trkpt>
      <trkpt lat="45.3427" lon="5.72151">
        <ele>1646</ele>
        <time>2021-12-19T11:32:55Z</time>
      </trkpt>
      <trkpt lat="45.3427" lon="5.72151">
        <ele>1645.6</ele>
        <time>2021-12-19T11:32:56Z</time>
      </trkpt>
      <trkpt lat="45.3427" lon="5.72151">
        <ele>1645.2</ele>
        <time>2021-12-19T11:32:57Z</time>
      </trkpt>
      <trkpt lat="45.3427" lon="5.72152">
        <ele>1644.4</ele>
        <time>2021-12-19T11:32:58Z</time>
      </trkpt>
      <trkpt lat="45.3427" lon="5.72152">
        <ele>1644</ele>
        <time>2021-12-19T11:32:59Z</time>
      </trkpt>
      <trkpt lat="45.3427" lon="5.72152">
        <ele>1643.6</ele>
        <time>2021-12-19T11:33:00Z</time>
      </trkpt>
      <trkpt lat="45.3427" lon="5.72152">
        <ele>1643.1</ele>
        <time>2021-12-19T11:33:01Z</time>
      </trkpt>
      <trkpt lat="45.3427" lon="5.72152">
        <ele>1642.7</ele>
        <time>2021-12-19T11:33:02Z</time>
      </trkpt>
      <trkpt lat="45.3427" lon="5.72152">
        <ele>1642.3</ele>
        <time>2021-12-19T11:33:03Z</time>
      </trkpt>
      <trkpt lat="45.3427" lon="5.72153">
        <ele>1641.9</ele>
        <time>2021-12-19T11:33:04Z</time>
      </trkpt>
      <trkpt lat="45.3427" lon="5.72153">
        <ele>1641.5</ele>
        <time>2021-12-19T11:33:05Z</time>
      </trkpt>
      <trkpt lat="45.3427" lon="5.72153">
        <ele>1641</ele>
        <time>2021-12-19T11:33:06Z</time>
      </trkpt>
      <trkpt lat="45.3427" lon="5.72153">
        <ele>1640.6</ele>
        <time>2021-12-19T11:33:07Z</time>
      </trkpt>
      <trkpt lat="45.3427" lon="5.72154">
        <ele>1640.2</ele>
        <time>2021-12-19T11:33:08Z</time>
      </trkpt>
      <trkpt lat="45.3427" lon="5.72154">
        <ele>1639.8</ele>
        <time>2021-12-19T11:33:09Z</time>
      </trkpt>
      <trkpt lat="45.3427" lon="5.72154">
        <ele>1639.4</ele>
        <time>2021-12-19T11:33:10Z</time>
      </trkpt>
      <trkpt lat="45.3427" lon="5.72154">
        <ele>1638.9</ele>
        <time>2021-12-19T11:33:11Z</time>
      </trkpt>
      <trkpt lat="45.3427" lon="5.72154">
        <ele>1638.5</ele>
        <time>2021-12-19T11:33:12Z</time>
      </trkpt>
      <trkpt lat="45.3427" lon="5.72154">
        <ele>1638.1</ele>
        <time>2021-12-19T11:33:13Z</time>
      </trkpt>
      <trkpt lat="45.3427" lon="5.72154">
        <ele>1637.7</ele>
        <time>2021-12-19T11:33:14Z</time>
      </trkpt>
      <trkpt lat="45.3427" lon="5.72154">
        <ele>1637.3</ele>
        <time>2021-12-19T11:33:15Z</time>
      </trkpt>
      <trkpt lat="45.3427" lon="5.72154">
        <ele>1636.8</ele>
        <time>2021-12-19T11:33:16Z</time>
      </trkpt>
      <trkpt lat="45.3427" lon="5.72153">
        <ele>1636.4</ele>
        <time>2021-12-19T11:33:17Z</time>
      </trkpt>
      <trkpt lat="45.34269" lon="5.72153">
        <ele>1636</ele>
        <time>2021-12-19T11:33:18Z</time>
      </trkpt>
      <trkpt lat="45.34269" lon="5.72152">
        <ele>1635.6</ele>
        <time>2021-12-19T11:33:19Z</time>
      </trkpt>
      <trkpt lat="45.34269" lon="5.72152">
        <ele>1635.2</ele>
        <time>2021-12-19T11:33:20Z</time>
      </trkpt>
      <trkpt lat="45.34269" lon="5.72152">
        <ele>1634.7</ele>
        <time>2021-12-19T11:33:21Z</time>
      </trkpt>
      <trkpt lat="45.3427" lon="5.72152">
        <ele>1634.3</ele>
        <time>2021-12-19T11:33:22Z</time>
      </trkpt>
      <trkpt lat="45.3427" lon="5.72152">
        <ele>1633.9</ele>
        <time>2021-12-19T11:33:23Z</time>
      </trkpt>
      <trkpt lat="45.3427" lon="5.72153">
        <ele>1633.5</ele>
        <time>2021-12-19T11:33:24Z</time>
      </trkpt>
      <trkpt lat="45.3427" lon="5.72153">
        <ele>1633.1</ele>
        <time>2021-12-19T11:33:25Z</time>
      </trkpt>
      <trkpt lat="45.3427" lon="5.72153">
        <ele>1632.6</ele>
        <time>2021-12-19T11:33:26Z</time>
      </trkpt>
      <trkpt lat="45.34271" lon="5.72153">
        <ele>1631.6</ele>
        <time>2021-12-19T11:33:27Z</time>
      </trkpt>
      <trkpt lat="45.34271" lon="5.72153">
        <ele>1631.2</ele>
        <time>2021-12-19T11:33:28Z</time>
      </trkpt>
      <trkpt lat="45.34272" lon="5.72153">
        <ele>1630.8</ele>
        <time>2021-12-19T11:33:29Z</time>
      </trkpt>
      <trkpt lat="45.34273" lon="5.72153">
        <ele>1630.4</ele>
        <time>2021-12-19T11:33:30Z</time>
      </trkpt>
      <trkpt lat="45.34273" lon="5.72153">
        <ele>1630</ele>
        <time>2021-12-19T11:33:31Z</time>
      </trkpt>
      <trkpt lat="45.34273" lon="5.72153">
        <ele>1629.5</ele>
        <time>2021-12-19T11:33:32Z</time>
      </trkpt>
      <trkpt lat="45.34273" lon="5.72153">
        <ele>1629.1</ele>
        <time>2021-12-19T11:33:33Z</time>
      </trkpt>
      <trkpt lat="45.34273" lon="5.72153">
        <ele>1628.7</ele>
        <time>2021-12-19T11:33:34Z</time>
      </trkpt>
      <trkpt lat="45.34273" lon="5.72152">
        <ele>1628.3</ele>
        <time>2021-12-19T11:33:35Z</time>
      </trkpt>
      <trkpt lat="45.34271" lon="5.72152">
        <ele>1627.8</ele>
        <time>2021-12-19T11:33:36Z</time>
      </trkpt>
      <trkpt lat="45.34271" lon="5.72152">
        <ele>1627.4</ele>
        <time>2021-12-19T11:33:37Z</time>
      </trkpt>
      <trkpt lat="45.34271" lon="5.72152">
        <ele>1627</ele>
        <time>2021-12-19T11:33:38Z</time>
      </trkpt>
      <trkpt lat="45.34272" lon="5.72152">
        <ele>1626.6</ele>
        <time>2021-12-19T11:33:39Z</time>
      </trkpt>
      <trkpt lat="45.34272" lon="5.72152">
        <ele>1626.2</ele>
        <time>2021-12-19T11:33:40Z</time>
      </trkpt>
      <trkpt lat="45.34272" lon="5.72152">
        <ele>1625.7</ele>
        <time>2021-12-19T11:33:41Z</time>
      </trkpt>
      <trkpt lat="45.34272" lon="5.72152">
        <ele>1625.3</ele>
        <time>2021-12-19T11:33:42Z</time>
      </trkpt>
      <trkpt lat="45.34272" lon="5.72152">
        <ele>1624.9</ele>
        <time>2021-12-19T11:33:43Z</time>
      </trkpt>
      <trkpt lat="45.34271" lon="5.72152">
        <ele>1624.9</ele>
        <time>2021-12-19T11:33:44Z</time>
      </trkpt>
      <trkpt lat="45.34271" lon="5.72152">
        <ele>1624.9</ele>
        <time>2021-12-19T11:33:45Z</time>
      </trkpt>
      <trkpt lat="45.34271" lon="5.72152">
        <ele>1624.9</ele>
        <time>2021-12-19T11:33:46Z</time>
      </trkpt>
      <trkpt lat="45.34271" lon="5.72152">
        <ele>1624.9</ele>
        <time>2021-12-19T11:33:47Z</time>
      </trkpt>
      <trkpt lat="45.34271" lon="5.72152">
        <ele>1624.9</ele>
        <time>2021-12-19T11:33:48Z</time>
      </trkpt>
      <trkpt lat="45.34271" lon="5.72152">
        <ele>1624.9</ele>
        <time>2021-12-19T11:33:49Z</time>
      </trkpt>
      <trkpt lat="45.34271" lon="5.72152">
        <ele>1624.9</ele>
        <time>2021-12-19T11:33:50Z</time>
      </trkpt>
      <trkpt lat="45.34271" lon="5.72152">
        <ele>1624.9</ele>
        <time>2021-12-19T11:33:51Z</time>
      </trkpt>
      <trkpt lat="45.34271" lon="5.72152">
        <ele>1624.9</ele>
        <time>2021-12-19T11:33:52Z</time>
      </trkpt>
      <trkpt lat="45.34271" lon="5.72152">
        <ele>1624.9</ele>
        <time>2021-12-19T11:33:53Z</time>
      </trkpt>
      <trkpt lat="45.34271" lon="5.72152">
        <ele>1624.9</ele>
        <time>2021-12-19T11:33:54Z</time>
      </trkpt>
      <trkpt lat="45.34271" lon="5.72152">
        <ele>1624.9</ele>
        <time>2021-12-19T11:33:55Z</time>
      </trkpt>
      <trkpt lat="45.34271" lon="5.72152">
        <ele>1624.9</ele>
        <time>2021-12-19T11:33:56Z</time>
      </trkpt>
      <trkpt lat="45.34271" lon="5.72152">
        <ele>1624.9</ele>
        <time>2021-12-19T11:33:57Z</time>
      </trkpt>
      <trkpt lat="45.34271" lon="5.72152">
        <ele>1624.9</ele>
        <time>2021-12-19T11:33:58Z</time>
      </trkpt>
      <trkpt lat="45.34271" lon="5.72152">
        <ele>1624.9</ele>
        <time>2021-12-19T11:33:59Z</time>
      </trkpt>
      <trkpt lat="45.34271" lon="5.72152">
        <ele>1624.9</ele>
        <time>2021-12-19T11:34:00Z</time>
      </trkpt>
      <trkpt lat="45.34271" lon="5.72152">
        <ele>1624.9</ele>
        <time>2021-12-19T11:34:01Z</time>
      </trkpt>
      <trkpt lat="45.34271" lon="5.72152">
        <ele>1624.9</ele>
        <time>2021-12-19T11:34:02Z</time>
      </trkpt>
      <trkpt lat="45.34271" lon="5.72152">
        <ele>1624.9</ele>
        <time>2021-12-19T11:34:03Z</time>
      </trkpt>
      <trkpt lat="45.34271" lon="5.72152">
        <ele>1624.9</ele>
        <time>2021-12-19T11:34:04Z</time>
      </trkpt>
      <trkpt lat="45.34271" lon="5.72152">
        <ele>1624.9</ele>
        <time>2021-12-19T11:34:05Z</time>
      </trkpt>
      <trkpt lat="45.34271" lon="5.72152">
        <ele>1624.9</ele>
        <time>2021-12-19T11:34:06Z</time>
      </trkpt>
      <trkpt lat="45.34271" lon="5.72152">
        <ele>1624.9</ele>
        <time>2021-12-19T11:34:07Z</time>
      </trkpt>
      <trkpt lat="45.34271" lon="5.72152">
        <ele>1624.9</ele>
        <time>2021-12-19T11:34:08Z</time>
      </trkpt>
      <trkpt lat="45.34271" lon="5.72152">
        <ele>1624.9</ele>
        <time>2021-12-19T11:34:09Z</time>
      </trkpt>
      <trkpt lat="45.34271" lon="5.72152">
        <ele>1624.9</ele>
        <time>2021-12-19T11:34:10Z</time>
      </trkpt>
      <trkpt lat="45.34271" lon="5.72152">
        <ele>1624.9</ele>
        <time>2021-12-19T11:34:11Z</time>
      </trkpt>
      <trkpt lat="45.34271" lon="5.72152">
        <ele>1624.9</ele>
        <time>2021-12-19T11:34:12Z</time>
      </trkpt>
      <trkpt lat="45.34271" lon="5.72152">
        <ele>1624.9</ele>
        <time>2021-12-19T11:34:13Z</time>
      </trkpt>
      <trkpt lat="45.34271" lon="5.72152">
        <ele>1624.9</ele>
        <time>2021-12-19T11:34:14Z</time>
      </trkpt>
      <trkpt lat="45.34271" lon="5.72152">
        <ele>1624.9</ele>
        <time>2021-12-19T11:34:15Z</time>
      </trkpt>
      <trkpt lat="45.34271" lon="5.72152">
        <ele>1624.9</ele>
        <time>2021-12-19T11:34:16Z</time>
      </trkpt>
      <trkpt lat="45.34271" lon="5.72152">
        <ele>1624.9</ele>
        <time>2021-12-19T11:34:17Z</time>
      </trkpt>
      <trkpt lat="45.34271" lon="5.72152">
        <ele>1624.9</ele>
        <time>2021-12-19T11:34:18Z</time>
      </trkpt>
      <trkpt lat="45.34271" lon="5.72152">
        <ele>1625.2</ele>
        <time>2021-12-19T11:34:19Z</time>
      </trkpt>
      <trkpt lat="45.34271" lon="5.72151">
        <ele>1625.2</ele>
        <time>2021-12-19T11:34:20Z</time>
      </trkpt>
      <trkpt lat="45.3427" lon="5.72151">
        <ele>1625.8</ele>
        <time>2021-12-19T11:34:21Z</time>
      </trkpt>
      <trkpt lat="45.3427" lon="5.7215">
        <ele>1625.8</ele>
        <time>2021-12-19T11:34:22Z</time>
      </trkpt>
      <trkpt lat="45.3427" lon="5.7215">
        <ele>1625.8</ele>
        <time>2021-12-19T11:34:23Z</time>
      </trkpt>
      <trkpt lat="45.3427" lon="5.7215">
        <ele>1625.8</ele>
        <time>2021-12-19T11:34:24Z</time>
      </trkpt>
      <trkpt lat="45.3427" lon="5.7215">
        <ele>1625.8</ele>
        <time>2021-12-19T11:34:25Z</time>
      </trkpt>
      <trkpt lat="45.3427" lon="5.7215">
        <ele>1625.8</ele>
        <time>2021-12-19T11:34:26Z</time>
      </trkpt>
      <trkpt lat="45.3427" lon="5.7215">
        <ele>1625.8</ele>
        <time>2021-12-19T11:34:27Z</time>
      </trkpt>
      <trkpt lat="45.3427" lon="5.72151">
        <ele>1625.8</ele>
        <time>2021-12-19T11:34:28Z</time>
      </trkpt>
      <trkpt lat="45.34269" lon="5.72151">
        <ele>1625.8</ele>
        <time>2021-12-19T11:34:29Z</time>
      </trkpt>
      <trkpt lat="45.34269" lon="5.72151">
        <ele>1625.8</ele>
        <time>2021-12-19T11:34:30Z</time>
      </trkpt>
      <trkpt lat="45.34269" lon="5.72151">
        <ele>1625.8</ele>
        <time>2021-12-19T11:34:31Z</time>
      </trkpt>
      <trkpt lat="45.34269" lon="5.72151">
        <ele>1625.8</ele>
        <time>2021-12-19T11:34:32Z</time>
      </trkpt>
      <trkpt lat="45.34269" lon="5.72151">
        <ele>1625.8</ele>
        <time>2021-12-19T11:34:33Z</time>
      </trkpt>
      <trkpt lat="45.34269" lon="5.72151">
        <ele>1625.8</ele>
        <time>2021-12-19T11:34:34Z</time>
      </trkpt>
      <trkpt lat="45.34269" lon="5.7215">
        <ele>1625.8</ele>
        <time>2021-12-19T11:34:35Z</time>
      </trkpt>
      <trkpt lat="45.34269" lon="5.72151">
        <ele>1625.8</ele>
        <time>2021-12-19T11:34:36Z</time>
      </trkpt>
      <trkpt lat="45.34269" lon="5.72151">
        <ele>1625.8</ele>
        <time>2021-12-19T11:34:37Z</time>
      </trkpt>
      <trkpt lat="45.34269" lon="5.72151">
        <ele>1625.8</ele>
        <time>2021-12-19T11:34:38Z</time>
      </trkpt>
      <trkpt lat="45.34269" lon="5.7215">
        <ele>1625.8</ele>
        <time>2021-12-19T11:34:39Z</time>
      </trkpt>
      <trkpt lat="45.34269" lon="5.7215">
        <ele>1625.8</ele>
        <time>2021-12-19T11:34:40Z</time>
      </trkpt>
      <trkpt lat="45.34269" lon="5.7215">
        <ele>1625.8</ele>
        <time>2021-12-19T11:34:41Z</time>
      </trkpt>
      <trkpt lat="45.34269" lon="5.7215">
        <ele>1625.8</ele>
        <time>2021-12-19T11:34:42Z</time>
      </trkpt>
      <trkpt lat="45.34269" lon="5.7215">
        <ele>1625.8</ele>
        <time>2021-12-19T11:34:43Z</time>
      </trkpt>
      <trkpt lat="45.34269" lon="5.7215">
        <ele>1625.8</ele>
        <time>2021-12-19T11:34:44Z</time>
      </trkpt>
      <trkpt lat="45.34269" lon="5.7215">
        <ele>1625.8</ele>
        <time>2021-12-19T11:34:45Z</time>
      </trkpt>
      <trkpt lat="45.34269" lon="5.7215">
        <ele>1625.8</ele>
        <time>2021-12-19T11:34:46Z</time>
      </trkpt>
      <trkpt lat="45.34269" lon="5.7215">
        <ele>1625.8</ele>
        <time>2021-12-19T11:34:47Z</time>
      </trkpt>
      <trkpt lat="45.34269" lon="5.7215">
        <ele>1625.8</ele>
        <time>2021-12-19T11:34:48Z</time>
      </trkpt>
      <trkpt lat="45.34269" lon="5.7215">
        <ele>1625.8</ele>
        <time>2021-12-19T11:34:49Z</time>
      </trkpt>
      <trkpt lat="45.34269" lon="5.7215">
        <ele>1625.8</ele>
        <time>2021-12-19T11:34:50Z</time>
      </trkpt>
      <trkpt lat="45.34269" lon="5.7215">
        <ele>1625.8</ele>
        <time>2021-12-19T11:34:51Z</time>
      </trkpt>
      <trkpt lat="45.34269" lon="5.7215">
        <ele>1625.8</ele>
        <time>2021-12-19T11:34:52Z</time>
      </trkpt>
      <trkpt lat="45.34269" lon="5.7215">
        <ele>1625.8</ele>
        <time>2021-12-19T11:34:53Z</time>
      </trkpt>
      <trkpt lat="45.34269" lon="5.7215">
        <ele>1625.8</ele>
        <time>2021-12-19T11:34:54Z</time>
      </trkpt>
      <trkpt lat="45.34269" lon="5.7215">
        <ele>1625.8</ele>
        <time>2021-12-19T11:34:55Z</time>
      </trkpt>
      <trkpt lat="45.34268" lon="5.7215">
        <ele>1625.8</ele>
        <time>2021-12-19T11:34:56Z</time>
      </trkpt>
      <trkpt lat="45.34268" lon="5.7215">
        <ele>1625.8</ele>
        <time>2021-12-19T11:34:57Z</time>
      </trkpt>
      <trkpt lat="45.34268" lon="5.7215">
        <ele>1625.8</ele>
        <time>2021-12-19T11:34:58Z</time>
      </trkpt>
      <trkpt lat="45.34267" lon="5.72149">
        <ele>1626.3</ele>
        <time>2021-12-19T11:34:59Z</time>
      </trkpt>
      <trkpt lat="45.34267" lon="5.72149">
        <ele>1626.3</ele>
        <time>2021-12-19T11:35:00Z</time>
      </trkpt>
      <trkpt lat="45.34266" lon="5.72148">
        <ele>1626.3</ele>
        <time>2021-12-19T11:35:01Z</time>
      </trkpt>
      <trkpt lat="45.34266" lon="5.72147">
        <ele>1626.7</ele>
        <time>2021-12-19T11:35:02Z</time>
      </trkpt>
      <trkpt lat="45.34265" lon="5.72147">
        <ele>1626.7</ele>
        <time>2021-12-19T11:35:03Z</time>
      </trkpt>
      <trkpt lat="45.34265" lon="5.72146">
        <ele>1626.7</ele>
        <time>2021-12-19T11:35:04Z</time>
      </trkpt>
      <trkpt lat="45.34264" lon="5.72146">
        <ele>1627.2</ele>
        <time>2021-12-19T11:35:05Z</time>
      </trkpt>
      <trkpt lat="45.34263" lon="5.72145">
        <ele>1627.2</ele>
        <time>2021-12-19T11:35:06Z</time>
      </trkpt>
      <trkpt lat="45.34262" lon="5.72145">
        <ele>1627.2</ele>
        <time>2021-12-19T11:35:07Z</time>
      </trkpt>
      <trkpt lat="45.34262" lon="5.72144">
        <ele>1627.2</ele>
        <time>2021-12-19T11:35:08Z</time>
      </trkpt>
      <trkpt lat="45.34261" lon="5.72144">
        <ele>1627.6</ele>
        <time>2021-12-19T11:35:09Z</time>
      </trkpt>
      <trkpt lat="45.3426" lon="5.72143">
        <ele>1627.6</ele>
        <time>2021-12-19T11:35:10Z</time>
      </trkpt>
      <trkpt lat="45.34259" lon="5.72143">
        <ele>1628.1</ele>
        <time>2021-12-19T11:35:11Z</time>
      </trkpt>
      <trkpt lat="45.34258" lon="5.72143">
        <ele>1628.5</ele>
        <time>2021-12-19T11:35:12Z</time>
      </trkpt>
      <trkpt lat="45.34257" lon="5.72143">
        <ele>1628.5</ele>
        <time>2021-12-19T11:35:13Z</time>
      </trkpt>
      <trkpt lat="45.34257" lon="5.72142">
        <ele>1628.5</ele>
        <time>2021-12-19T11:35:14Z</time>
      </trkpt>
      <trkpt lat="45.34256" lon="5.72142">
        <ele>1628.5</ele>
        <time>2021-12-19T11:35:15Z</time>
      </trkpt>
      <trkpt lat="45.34255" lon="5.72142">
        <ele>1628.9</ele>
        <time>2021-12-19T11:35:16Z</time>
      </trkpt>
      <trkpt lat="45.34255" lon="5.72142">
        <ele>1628.9</ele>
        <time>2021-12-19T11:35:17Z</time>
      </trkpt>
      <trkpt lat="45.34254" lon="5.72143">
        <ele>1628.9</ele>
        <time>2021-12-19T11:35:18Z</time>
      </trkpt>
      <trkpt lat="45.34253" lon="5.72143">
        <ele>1628.9</ele>
        <time>2021-12-19T11:35:19Z</time>
      </trkpt>
      <trkpt lat="45.34253" lon="5.72142">
        <ele>1628.9</ele>
        <time>2021-12-19T11:35:20Z</time>
      </trkpt>
      <trkpt lat="45.34252" lon="5.72142">
        <ele>1628.9</ele>
        <time>2021-12-19T11:35:21Z</time>
      </trkpt>
      <trkpt lat="45.34252" lon="5.72142">
        <ele>1629.3</ele>
        <time>2021-12-19T11:35:22Z</time>
      </trkpt>
      <trkpt lat="45.34252" lon="5.72142">
        <ele>1629.3</ele>
        <time>2021-12-19T11:35:23Z</time>
      </trkpt>
      <trkpt lat="45.34251" lon="5.72142">
        <ele>1629.3</ele>
        <time>2021-12-19T11:35:24Z</time>
      </trkpt>
      <trkpt lat="45.34251" lon="5.72141">
        <ele>1629.3</ele>
        <time>2021-12-19T11:35:25Z</time>
      </trkpt>
      <trkpt lat="45.3425" lon="5.72141">
        <ele>1629.3</ele>
        <time>2021-12-19T11:35:26Z</time>
      </trkpt>
      <trkpt lat="45.3425" lon="5.72141">
        <ele>1629.3</ele>
        <time>2021-12-19T11:35:27Z</time>
      </trkpt>
      <trkpt lat="45.34249" lon="5.7214">
        <ele>1629.7</ele>
        <time>2021-12-19T11:35:28Z</time>
      </trkpt>
      <trkpt lat="45.34248" lon="5.7214">
        <ele>1629.7</ele>
        <time>2021-12-19T11:35:29Z</time>
      </trkpt>
      <trkpt lat="45.34248" lon="5.7214">
        <ele>1629.7</ele>
        <time>2021-12-19T11:35:30Z</time>
      </trkpt>
      <trkpt lat="45.34247" lon="5.7214">
        <ele>1629.7</ele>
        <time>2021-12-19T11:35:31Z</time>
      </trkpt>
      <trkpt lat="45.34247" lon="5.72139">
        <ele>1629.7</ele>
        <time>2021-12-19T11:35:32Z</time>
      </trkpt>
      <trkpt lat="45.34246" lon="5.72139">
        <ele>1630.9</ele>
        <time>2021-12-19T11:35:33Z</time>
      </trkpt>
      <trkpt lat="45.34246" lon="5.72138">
        <ele>1630.9</ele>
        <time>2021-12-19T11:35:34Z</time>
      </trkpt>
      <trkpt lat="45.34245" lon="5.72138">
        <ele>1630.9</ele>
        <time>2021-12-19T11:35:35Z</time>
      </trkpt>
      <trkpt lat="45.34245" lon="5.72137">
        <ele>1630.9</ele>
        <time>2021-12-19T11:35:36Z</time>
      </trkpt>
      <trkpt lat="45.34245" lon="5.72137">
        <ele>1630.9</ele>
        <time>2021-12-19T11:35:37Z</time>
      </trkpt>
      <trkpt lat="45.34244" lon="5.72136">
        <ele>1630.9</ele>
        <time>2021-12-19T11:35:38Z</time>
      </trkpt>
      <trkpt lat="45.34244" lon="5.72136">
        <ele>1630.9</ele>
        <time>2021-12-19T11:35:39Z</time>
      </trkpt>
      <trkpt lat="45.34243" lon="5.72135">
        <ele>1631.2</ele>
        <time>2021-12-19T11:35:40Z</time>
      </trkpt>
      <trkpt lat="45.34242" lon="5.72135">
        <ele>1631.2</ele>
        <time>2021-12-19T11:35:41Z</time>
      </trkpt>
      <trkpt lat="45.34242" lon="5.72134">
        <ele>1632.2</ele>
        <time>2021-12-19T11:35:42Z</time>
      </trkpt>
      <trkpt lat="45.34241" lon="5.72134">
        <ele>1632.2</ele>
        <time>2021-12-19T11:35:43Z</time>
      </trkpt>
      <trkpt lat="45.3424" lon="5.72133">
        <ele>1632.5</ele>
        <time>2021-12-19T11:35:44Z</time>
      </trkpt>
      <trkpt lat="45.3424" lon="5.72133">
        <ele>1632.5</ele>
        <time>2021-12-19T11:35:45Z</time>
      </trkpt>
      <trkpt lat="45.3424" lon="5.72133">
        <ele>1632.5</ele>
        <time>2021-12-19T11:35:46Z</time>
      </trkpt>
      <trkpt lat="45.34239" lon="5.72132">
        <ele>1632.5</ele>
        <time>2021-12-19T11:35:47Z</time>
      </trkpt>
      <trkpt lat="45.34239" lon="5.72133">
        <ele>1632.5</ele>
        <time>2021-12-19T11:35:48Z</time>
      </trkpt>
      <trkpt lat="45.34239" lon="5.72133">
        <ele>1632.5</ele>
        <time>2021-12-19T11:35:49Z</time>
      </trkpt>
      <trkpt lat="45.34239" lon="5.72133">
        <ele>1632.5</ele>
        <time>2021-12-19T11:35:50Z</time>
      </trkpt>
      <trkpt lat="45.34238" lon="5.72132">
        <ele>1632.5</ele>
        <time>2021-12-19T11:35:51Z</time>
      </trkpt>
      <trkpt lat="45.34239" lon="5.72133">
        <ele>1632.5</ele>
        <time>2021-12-19T11:35:52Z</time>
      </trkpt>
      <trkpt lat="45.34239" lon="5.72133">
        <ele>1632.5</ele>
        <time>2021-12-19T11:35:53Z</time>
      </trkpt>
      <trkpt lat="45.3424" lon="5.72133">
        <ele>1632.5</ele>
        <time>2021-12-19T11:35:54Z</time>
      </trkpt>
      <trkpt lat="45.3424" lon="5.72132">
        <ele>1632.5</ele>
        <time>2021-12-19T11:35:55Z</time>
      </trkpt>
      <trkpt lat="45.34241" lon="5.72132">
        <ele>1632.2</ele>
        <time>2021-12-19T11:35:56Z</time>
      </trkpt>
      <trkpt lat="45.34241" lon="5.72132">
        <ele>1632.2</ele>
        <time>2021-12-19T11:35:57Z</time>
      </trkpt>
      <trkpt lat="45.34242" lon="5.72132">
        <ele>1632.2</ele>
        <time>2021-12-19T11:35:58Z</time>
      </trkpt>
      <trkpt lat="45.34242" lon="5.72132">
        <ele>1632.2</ele>
        <time>2021-12-19T11:35:59Z</time>
      </trkpt>
      <trkpt lat="45.34242" lon="5.72132">
        <ele>1632.2</ele>
        <time>2021-12-19T11:36:00Z</time>
      </trkpt>
      <trkpt lat="45.34242" lon="5.72132">
        <ele>1632.2</ele>
        <time>2021-12-19T11:36:01Z</time>
      </trkpt>
      <trkpt lat="45.34242" lon="5.72131">
        <ele>1632.2</ele>
        <time>2021-12-19T11:36:02Z</time>
      </trkpt>
      <trkpt lat="45.34242" lon="5.72131">
        <ele>1632.2</ele>
        <time>2021-12-19T11:36:03Z</time>
      </trkpt>
      <trkpt lat="45.34242" lon="5.72131">
        <ele>1632.2</ele>
        <time>2021-12-19T11:36:04Z</time>
      </trkpt>
      <trkpt lat="45.34242" lon="5.72131">
        <ele>1632.2</ele>
        <time>2021-12-19T11:36:05Z</time>
      </trkpt>
      <trkpt lat="45.34241" lon="5.72131">
        <ele>1632.2</ele>
        <time>2021-12-19T11:36:06Z</time>
      </trkpt>
      <trkpt lat="45.34241" lon="5.7213">
        <ele>1633.1</ele>
        <time>2021-12-19T11:36:07Z</time>
      </trkpt>
      <trkpt lat="45.34241" lon="5.7213">
        <ele>1633.1</ele>
        <time>2021-12-19T11:36:08Z</time>
      </trkpt>
      <trkpt lat="45.3424" lon="5.72129">
        <ele>1633.5</ele>
        <time>2021-12-19T11:36:09Z</time>
      </trkpt>
      <trkpt lat="45.3424" lon="5.72129">
        <ele>1633.5</ele>
        <time>2021-12-19T11:36:10Z</time>
      </trkpt>
      <trkpt lat="45.3424" lon="5.72128">
        <ele>1633.5</ele>
        <time>2021-12-19T11:36:11Z</time>
      </trkpt>
      <trkpt lat="45.3424" lon="5.72128">
        <ele>1633.5</ele>
        <time>2021-12-19T11:36:12Z</time>
      </trkpt>
      <trkpt lat="45.34239" lon="5.72128">
        <ele>1633.5</ele>
        <time>2021-12-19T11:36:13Z</time>
      </trkpt>
      <trkpt lat="45.34239" lon="5.72128">
        <ele>1633.5</ele>
        <time>2021-12-19T11:36:14Z</time>
      </trkpt>
      <trkpt lat="45.34239" lon="5.72127">
        <ele>1633.5</ele>
        <time>2021-12-19T11:36:15Z</time>
      </trkpt>
      <trkpt lat="45.34239" lon="5.72127">
        <ele>1633.5</ele>
        <time>2021-12-19T11:36:16Z</time>
      </trkpt>
      <trkpt lat="45.34239" lon="5.72127">
        <ele>1633.5</ele>
        <time>2021-12-19T11:36:17Z</time>
      </trkpt>
      <trkpt lat="45.34239" lon="5.72127">
        <ele>1633.5</ele>
        <time>2021-12-19T11:36:18Z</time>
      </trkpt>
      <trkpt lat="45.34239" lon="5.72127">
        <ele>1633.5</ele>
        <time>2021-12-19T11:36:19Z</time>
      </trkpt>
      <trkpt lat="45.34239" lon="5.72127">
        <ele>1633.5</ele>
        <time>2021-12-19T11:36:20Z</time>
      </trkpt>
      <trkpt lat="45.34239" lon="5.72127">
        <ele>1633.5</ele>
        <time>2021-12-19T11:36:21Z</time>
      </trkpt>
      <trkpt lat="45.34239" lon="5.72126">
        <ele>1633.5</ele>
        <time>2021-12-19T11:36:22Z</time>
      </trkpt>
      <trkpt lat="45.34239" lon="5.72126">
        <ele>1634.5</ele>
        <time>2021-12-19T11:36:23Z</time>
      </trkpt>
      <trkpt lat="45.34239" lon="5.72126">
        <ele>1634.5</ele>
        <time>2021-12-19T11:36:24Z</time>
      </trkpt>
      <trkpt lat="45.34239" lon="5.72126">
        <ele>1634.5</ele>
        <time>2021-12-19T11:36:25Z</time>
      </trkpt>
      <trkpt lat="45.34239" lon="5.72126">
        <ele>1634.5</ele>
        <time>2021-12-19T11:36:26Z</time>
      </trkpt>
      <trkpt lat="45.34239" lon="5.72126">
        <ele>1633.5</ele>
        <time>2021-12-19T11:36:27Z</time>
      </trkpt>
      <trkpt lat="45.34239" lon="5.72127">
        <ele>1633.5</ele>
        <time>2021-12-19T11:36:28Z</time>
      </trkpt>
      <trkpt lat="45.34239" lon="5.72127">
        <ele>1633.5</ele>
        <time>2021-12-19T11:36:29Z</time>
      </trkpt>
      <trkpt lat="45.34238" lon="5.72127">
        <ele>1633.5</ele>
        <time>2021-12-19T11:36:30Z</time>
      </trkpt>
      <trkpt lat="45.34238" lon="5.72128">
        <ele>1633.5</ele>
        <time>2021-12-19T11:36:31Z</time>
      </trkpt>
      <trkpt lat="45.34238" lon="5.72128">
        <ele>1633.5</ele>
        <time>2021-12-19T11:36:32Z</time>
      </trkpt>
      <trkpt lat="45.34238" lon="5.72128">
        <ele>1633.5</ele>
        <time>2021-12-19T11:36:33Z</time>
      </trkpt>
      <trkpt lat="45.34238" lon="5.72128">
        <ele>1633.5</ele>
        <time>2021-12-19T11:36:34Z</time>
      </trkpt>
      <trkpt lat="45.34238" lon="5.72127">
        <ele>1633.5</ele>
        <time>2021-12-19T11:36:35Z</time>
      </trkpt>
      <trkpt lat="45.34238" lon="5.72127">
        <ele>1633.5</ele>
        <time>2021-12-19T11:36:36Z</time>
      </trkpt>
      <trkpt lat="45.34238" lon="5.72127">
        <ele>1633.5</ele>
        <time>2021-12-19T11:36:37Z</time>
      </trkpt>
      <trkpt lat="45.34238" lon="5.72127">
        <ele>1633.5</ele>
        <time>2021-12-19T11:36:38Z</time>
      </trkpt>
      <trkpt lat="45.34238" lon="5.72127">
        <ele>1633.5</ele>
        <time>2021-12-19T11:36:39Z</time>
      </trkpt>
      <trkpt lat="45.34238" lon="5.72127">
        <ele>1633.5</ele>
        <time>2021-12-19T11:36:40Z</time>
      </trkpt>
      <trkpt lat="45.34238" lon="5.72127">
        <ele>1633.5</ele>
        <time>2021-12-19T11:36:41Z</time>
      </trkpt>
      <trkpt lat="45.34238" lon="5.72127">
        <ele>1633.5</ele>
        <time>2021-12-19T11:36:42Z</time>
      </trkpt>
      <trkpt lat="45.34238" lon="5.72127">
        <ele>1633.5</ele>
        <time>2021-12-19T11:36:43Z</time>
      </trkpt>
      <trkpt lat="45.34238" lon="5.72127">
        <ele>1633.5</ele>
        <time>2021-12-19T11:36:44Z</time>
      </trkpt>
      <trkpt lat="45.34238" lon="5.72127">
        <ele>1633.5</ele>
        <time>2021-12-19T11:36:45Z</time>
      </trkpt>
      <trkpt lat="45.34238" lon="5.72127">
        <ele>1633.5</ele>
        <time>2021-12-19T11:36:46Z</time>
      </trkpt>
      <trkpt lat="45.34238" lon="5.72127">
        <ele>1633.5</ele>
        <time>2021-12-19T11:36:47Z</time>
      </trkpt>
      <trkpt lat="45.34238" lon="5.72127">
        <ele>1633.5</ele>
        <time>2021-12-19T11:36:48Z</time>
      </trkpt>
      <trkpt lat="45.34238" lon="5.72127">
        <ele>1633.5</ele>
        <time>2021-12-19T11:36:49Z</time>
      </trkpt>
      <trkpt lat="45.34238" lon="5.72127">
        <ele>1633.5</ele>
        <time>2021-12-19T11:36:50Z</time>
      </trkpt>
      <trkpt lat="45.34238" lon="5.72127">
        <ele>1633.5</ele>
        <time>2021-12-19T11:36:51Z</time>
      </trkpt>
      <trkpt lat="45.34238" lon="5.72127">
        <ele>1633.5</ele>
        <time>2021-12-19T11:36:52Z</time>
      </trkpt>
      <trkpt lat="45.34238" lon="5.72127">
        <ele>1633.5</ele>
        <time>2021-12-19T11:36:53Z</time>
      </trkpt>
      <trkpt lat="45.34238" lon="5.72127">
        <ele>1633.5</ele>
        <time>2021-12-19T11:36:54Z</time>
      </trkpt>
      <trkpt lat="45.34238" lon="5.72127">
        <ele>1633.5</ele>
        <time>2021-12-19T11:36:55Z</time>
      </trkpt>
      <trkpt lat="45.34238" lon="5.72127">
        <ele>1633.5</ele>
        <time>2021-12-19T11:36:56Z</time>
      </trkpt>
      <trkpt lat="45.34238" lon="5.72127">
        <ele>1633.5</ele>
        <time>2021-12-19T11:36:57Z</time>
      </trkpt>
      <trkpt lat="45.34238" lon="5.72127">
        <ele>1633.5</ele>
        <time>2021-12-19T11:36:58Z</time>
      </trkpt>
      <trkpt lat="45.34238" lon="5.72127">
        <ele>1633.5</ele>
        <time>2021-12-19T11:36:59Z</time>
      </trkpt>
      <trkpt lat="45.34238" lon="5.72127">
        <ele>1633.5</ele>
        <time>2021-12-19T11:37:00Z</time>
      </trkpt>
      <trkpt lat="45.34238" lon="5.72127">
        <ele>1633.5</ele>
        <time>2021-12-19T11:37:01Z</time>
      </trkpt>
      <trkpt lat="45.34238" lon="5.72127">
        <ele>1633.5</ele>
        <time>2021-12-19T11:37:02Z</time>
      </trkpt>
      <trkpt lat="45.34238" lon="5.72127">
        <ele>1633.5</ele>
        <time>2021-12-19T11:37:03Z</time>
      </trkpt>
      <trkpt lat="45.34238" lon="5.72128">
        <ele>1633.5</ele>
        <time>2021-12-19T11:37:04Z</time>
      </trkpt>
      <trkpt lat="45.34238" lon="5.72128">
        <ele>1633.5</ele>
        <time>2021-12-19T11:37:05Z</time>
      </trkpt>
      <trkpt lat="45.34238" lon="5.72128">
        <ele>1633.5</ele>
        <time>2021-12-19T11:37:06Z</time>
      </trkpt>
      <trkpt lat="45.34238" lon="5.72128">
        <ele>1633.5</ele>
        <time>2021-12-19T11:37:07Z</time>
      </trkpt>
      <trkpt lat="45.34238" lon="5.72128">
        <ele>1633.5</ele>
        <time>2021-12-19T11:37:08Z</time>
      </trkpt>
      <trkpt lat="45.34238" lon="5.72128">
        <ele>1633.5</ele>
        <time>2021-12-19T11:37:09Z</time>
      </trkpt>
      <trkpt lat="45.34238" lon="5.72128">
        <ele>1633.5</ele>
        <time>2021-12-19T11:37:10Z</time>
      </trkpt>
      <trkpt lat="45.34238" lon="5.72128">
        <ele>1633.5</ele>
        <time>2021-12-19T11:37:11Z</time>
      </trkpt>
      <trkpt lat="45.34238" lon="5.72128">
        <ele>1633.5</ele>
        <time>2021-12-19T11:37:12Z</time>
      </trkpt>
      <trkpt lat="45.34238" lon="5.72128">
        <ele>1633.5</ele>
        <time>2021-12-19T11:37:13Z</time>
      </trkpt>
      <trkpt lat="45.34237" lon="5.72128">
        <ele>1633.9</ele>
        <time>2021-12-19T11:37:14Z</time>
      </trkpt>
      <trkpt lat="45.34236" lon="5.72127">
        <ele>1633.9</ele>
        <time>2021-12-19T11:37:15Z</time>
      </trkpt>
      <trkpt lat="45.34236" lon="5.72127">
        <ele>1633.9</ele>
        <time>2021-12-19T11:37:16Z</time>
      </trkpt>
      <trkpt lat="45.34234" lon="5.72126">
        <ele>1633.9</ele>
        <time>2021-12-19T11:37:17Z</time>
      </trkpt>
      <trkpt lat="45.34234" lon="5.72126">
        <ele>1635.4</ele>
        <time>2021-12-19T11:37:18Z</time>
      </trkpt>
      <trkpt lat="45.34233" lon="5.72125">
        <ele>1635.4</ele>
        <time>2021-12-19T11:37:19Z</time>
      </trkpt>
      <trkpt lat="45.34233" lon="5.72124">
        <ele>1635.4</ele>
        <time>2021-12-19T11:37:20Z</time>
      </trkpt>
      <trkpt lat="45.34233" lon="5.72124">
        <ele>1635.4</ele>
        <time>2021-12-19T11:37:21Z</time>
      </trkpt>
      <trkpt lat="45.34232" lon="5.72123">
        <ele>1635.4</ele>
        <time>2021-12-19T11:37:22Z</time>
      </trkpt>
      <trkpt lat="45.34231" lon="5.72123">
        <ele>1635.4</ele>
        <time>2021-12-19T11:37:23Z</time>
      </trkpt>
      <trkpt lat="45.34231" lon="5.72122">
        <ele>1635.8</ele>
        <time>2021-12-19T11:37:24Z</time>
      </trkpt>
      <trkpt lat="45.3423" lon="5.72122">
        <ele>1635.8</ele>
        <time>2021-12-19T11:37:25Z</time>
      </trkpt>
      <trkpt lat="45.3423" lon="5.72121">
        <ele>1636.9</ele>
        <time>2021-12-19T11:37:26Z</time>
      </trkpt>
      <trkpt lat="45.34229" lon="5.72121">
        <ele>1636.9</ele>
        <time>2021-12-19T11:37:27Z</time>
      </trkpt>
      <trkpt lat="45.34229" lon="5.7212">
        <ele>1636.9</ele>
        <time>2021-12-19T11:37:28Z</time>
      </trkpt>
      <trkpt lat="45.34229" lon="5.7212">
        <ele>1636.9</ele>
        <time>2021-12-19T11:37:29Z</time>
      </trkpt>
      <trkpt lat="45.34228" lon="5.72119">
        <ele>1636.9</ele>
        <time>2021-12-19T11:37:30Z</time>
      </trkpt>
      <trkpt lat="45.34228" lon="5.72119">
        <ele>1636.9</ele>
        <time>2021-12-19T11:37:31Z</time>
      </trkpt>
      <trkpt lat="45.34228" lon="5.72119">
        <ele>1636.9</ele>
        <time>2021-12-19T11:37:32Z</time>
      </trkpt>
      <trkpt lat="45.34229" lon="5.72118">
        <ele>1636.9</ele>
        <time>2021-12-19T11:37:33Z</time>
      </trkpt>
      <trkpt lat="45.34229" lon="5.72118">
        <ele>1636.9</ele>
        <time>2021-12-19T11:37:34Z</time>
      </trkpt>
      <trkpt lat="45.3423" lon="5.72119">
        <ele>1636.9</ele>
        <time>2021-12-19T11:37:35Z</time>
      </trkpt>
      <trkpt lat="45.3423" lon="5.72118">
        <ele>1636.9</ele>
        <time>2021-12-19T11:37:36Z</time>
      </trkpt>
      <trkpt lat="45.34231" lon="5.72118">
        <ele>1636.9</ele>
        <time>2021-12-19T11:37:37Z</time>
      </trkpt>
      <trkpt lat="45.34231" lon="5.72118">
        <ele>1636.9</ele>
        <time>2021-12-19T11:37:38Z</time>
      </trkpt>
      <trkpt lat="45.34232" lon="5.72118">
        <ele>1636.4</ele>
        <time>2021-12-19T11:37:39Z</time>
      </trkpt>
      <trkpt lat="45.34232" lon="5.72117">
        <ele>1636.4</ele>
        <time>2021-12-19T11:37:40Z</time>
      </trkpt>
      <trkpt lat="45.34233" lon="5.72117">
        <ele>1637.3</ele>
        <time>2021-12-19T11:37:41Z</time>
      </trkpt>
      <trkpt lat="45.34234" lon="5.72116">
        <ele>1637.3</ele>
        <time>2021-12-19T11:37:42Z</time>
      </trkpt>
      <trkpt lat="45.34234" lon="5.72116">
        <ele>1637.3</ele>
        <time>2021-12-19T11:37:43Z</time>
      </trkpt>
      <trkpt lat="45.34235" lon="5.72115">
        <ele>1636.7</ele>
        <time>2021-12-19T11:37:44Z</time>
      </trkpt>
      <trkpt lat="45.34235" lon="5.72115">
        <ele>1636.7</ele>
        <time>2021-12-19T11:37:45Z</time>
      </trkpt>
      <trkpt lat="45.34235" lon="5.72115">
        <ele>1636.7</ele>
        <time>2021-12-19T11:37:46Z</time>
      </trkpt>
      <trkpt lat="45.34235" lon="5.72115">
        <ele>1636.7</ele>
        <time>2021-12-19T11:37:47Z</time>
      </trkpt>
      <trkpt lat="45.34236" lon="5.72114">
        <ele>1636.7</ele>
        <time>2021-12-19T11:37:48Z</time>
      </trkpt>
      <trkpt lat="45.34236" lon="5.72114">
        <ele>1636.7</ele>
        <time>2021-12-19T11:37:49Z</time>
      </trkpt>
      <trkpt lat="45.34236" lon="5.72114">
        <ele>1636.7</ele>
        <time>2021-12-19T11:37:50Z</time>
      </trkpt>
      <trkpt lat="45.34236" lon="5.72114">
        <ele>1636.7</ele>
        <time>2021-12-19T11:37:51Z</time>
      </trkpt>
      <trkpt lat="45.34236" lon="5.72114">
        <ele>1636.7</ele>
        <time>2021-12-19T11:37:52Z</time>
      </trkpt>
      <trkpt lat="45.34236" lon="5.72114">
        <ele>1636.7</ele>
        <time>2021-12-19T11:37:53Z</time>
      </trkpt>
      <trkpt lat="45.34236" lon="5.72114">
        <ele>1636.7</ele>
        <time>2021-12-19T11:37:54Z</time>
      </trkpt>
      <trkpt lat="45.34236" lon="5.72114">
        <ele>1636.7</ele>
        <time>2021-12-19T11:37:55Z</time>
      </trkpt>
      <trkpt lat="45.34236" lon="5.72114">
        <ele>1636.7</ele>
        <time>2021-12-19T11:37:56Z</time>
      </trkpt>
      <trkpt lat="45.34235" lon="5.72114">
        <ele>1636.7</ele>
        <time>2021-12-19T11:37:57Z</time>
      </trkpt>
      <trkpt lat="45.34235" lon="5.72114">
        <ele>1636.7</ele>
        <time>2021-12-19T11:37:58Z</time>
      </trkpt>
      <trkpt lat="45.34234" lon="5.72113">
        <ele>1637.3</ele>
        <time>2021-12-19T11:37:59Z</time>
      </trkpt>
      <trkpt lat="45.34234" lon="5.72113">
        <ele>1638.1</ele>
        <time>2021-12-19T11:38:00Z</time>
      </trkpt>
      <trkpt lat="45.34233" lon="5.72113">
        <ele>1638.1</ele>
        <time>2021-12-19T11:38:01Z</time>
      </trkpt>
      <trkpt lat="45.34233" lon="5.72112">
        <ele>1638.1</ele>
        <time>2021-12-19T11:38:02Z</time>
      </trkpt>
      <trkpt lat="45.34233" lon="5.72112">
        <ele>1638.1</ele>
        <time>2021-12-19T11:38:03Z</time>
      </trkpt>
      <trkpt lat="45.34233" lon="5.72112">
        <ele>1638.1</ele>
        <time>2021-12-19T11:38:04Z</time>
      </trkpt>
      <trkpt lat="45.34233" lon="5.72113">
        <ele>1638.1</ele>
        <time>2021-12-19T11:38:05Z</time>
      </trkpt>
      <trkpt lat="45.34233" lon="5.72113">
        <ele>1638.1</ele>
        <time>2021-12-19T11:38:06Z</time>
      </trkpt>
      <trkpt lat="45.34233" lon="5.72113">
        <ele>1638.1</ele>
        <time>2021-12-19T11:38:07Z</time>
      </trkpt>
      <trkpt lat="45.34233" lon="5.72113">
        <ele>1638.1</ele>
        <time>2021-12-19T11:38:08Z</time>
      </trkpt>
      <trkpt lat="45.34233" lon="5.72113">
        <ele>1638.1</ele>
        <time>2021-12-19T11:38:09Z</time>
      </trkpt>
      <trkpt lat="45.34233" lon="5.72113">
        <ele>1638.1</ele>
        <time>2021-12-19T11:38:10Z</time>
      </trkpt>
      <trkpt lat="45.34233" lon="5.72113">
        <ele>1638.1</ele>
        <time>2021-12-19T11:38:11Z</time>
      </trkpt>
      <trkpt lat="45.34233" lon="5.72113">
        <ele>1638.1</ele>
        <time>2021-12-19T11:38:12Z</time>
      </trkpt>
      <trkpt lat="45.34233" lon="5.72113">
        <ele>1638.1</ele>
        <time>2021-12-19T11:38:13Z</time>
      </trkpt>
      <trkpt lat="45.34233" lon="5.72113">
        <ele>1638.1</ele>
        <time>2021-12-19T11:38:14Z</time>
      </trkpt>
      <trkpt lat="45.34233" lon="5.72113">
        <ele>1638.1</ele>
        <time>2021-12-19T11:38:15Z</time>
      </trkpt>
      <trkpt lat="45.34233" lon="5.72113">
        <ele>1638.1</ele>
        <time>2021-12-19T11:38:16Z</time>
      </trkpt>
      <trkpt lat="45.34233" lon="5.72113">
        <ele>1638.1</ele>
        <time>2021-12-19T11:38:17Z</time>
      </trkpt>
      <trkpt lat="45.34233" lon="5.72113">
        <ele>1638.1</ele>
        <time>2021-12-19T11:38:18Z</time>
      </trkpt>
      <trkpt lat="45.34233" lon="5.72113">
        <ele>1638.1</ele>
        <time>2021-12-19T11:38:19Z</time>
      </trkpt>
      <trkpt lat="45.34233" lon="5.72113">
        <ele>1638.1</ele>
        <time>2021-12-19T11:38:20Z</time>
      </trkpt>
      <trkpt lat="45.34233" lon="5.72113">
        <ele>1638.1</ele>
        <time>2021-12-19T11:38:21Z</time>
      </trkpt>
      <trkpt lat="45.34233" lon="5.72113">
        <ele>1638.1</ele>
        <time>2021-12-19T11:38:22Z</time>
      </trkpt>
      <trkpt lat="45.34233" lon="5.72113">
        <ele>1638.1</ele>
        <time>2021-12-19T11:38:23Z</time>
      </trkpt>
      <trkpt lat="45.34233" lon="5.72113">
        <ele>1638.1</ele>
        <time>2021-12-19T11:38:24Z</time>
      </trkpt>
      <trkpt lat="45.34233" lon="5.72113">
        <ele>1638.1</ele>
        <time>2021-12-19T11:38:25Z</time>
      </trkpt>
      <trkpt lat="45.34233" lon="5.72113">
        <ele>1638.1</ele>
        <time>2021-12-19T11:38:26Z</time>
      </trkpt>
      <trkpt lat="45.34233" lon="5.72113">
        <ele>1638.1</ele>
        <time>2021-12-19T11:38:27Z</time>
      </trkpt>
      <trkpt lat="45.34233" lon="5.72113">
        <ele>1638.1</ele>
        <time>2021-12-19T11:38:28Z</time>
      </trkpt>
      <trkpt lat="45.34233" lon="5.72113">
        <ele>1638.1</ele>
        <time>2021-12-19T11:38:29Z</time>
      </trkpt>
      <trkpt lat="45.34233" lon="5.72113">
        <ele>1638.1</ele>
        <time>2021-12-19T11:38:30Z</time>
      </trkpt>
      <trkpt lat="45.34233" lon="5.72113">
        <ele>1638.1</ele>
        <time>2021-12-19T11:38:31Z</time>
      </trkpt>
      <trkpt lat="45.34233" lon="5.72113">
        <ele>1638.1</ele>
        <time>2021-12-19T11:38:32Z</time>
      </trkpt>
      <trkpt lat="45.34233" lon="5.72113">
        <ele>1638.1</ele>
        <time>2021-12-19T11:38:33Z</time>
      </trkpt>
      <trkpt lat="45.34233" lon="5.72113">
        <ele>1638.1</ele>
        <time>2021-12-19T11:38:34Z</time>
      </trkpt>
      <trkpt lat="45.34233" lon="5.72113">
        <ele>1638.1</ele>
        <time>2021-12-19T11:38:35Z</time>
      </trkpt>
      <trkpt lat="45.34233" lon="5.72113">
        <ele>1638.1</ele>
        <time>2021-12-19T11:38:36Z</time>
      </trkpt>
      <trkpt lat="45.34232" lon="5.72113">
        <ele>1638.1</ele>
        <time>2021-12-19T11:38:37Z</time>
      </trkpt>
      <trkpt lat="45.34231" lon="5.72112">
        <ele>1638.1</ele>
        <time>2021-12-19T11:38:38Z</time>
      </trkpt>
      <trkpt lat="45.34231" lon="5.72112">
        <ele>1638.8</ele>
        <time>2021-12-19T11:38:39Z</time>
      </trkpt>
      <trkpt lat="45.3423" lon="5.72111">
        <ele>1638.8</ele>
        <time>2021-12-19T11:38:40Z</time>
      </trkpt>
      <trkpt lat="45.34229" lon="5.72111">
        <ele>1638.8</ele>
        <time>2021-12-19T11:38:41Z</time>
      </trkpt>
      <trkpt lat="45.34229" lon="5.7211">
        <ele>1638.8</ele>
        <time>2021-12-19T11:38:42Z</time>
      </trkpt>
      <trkpt lat="45.34227" lon="5.7211">
        <ele>1639.6</ele>
        <time>2021-12-19T11:38:43Z</time>
      </trkpt>
      <trkpt lat="45.34227" lon="5.7211">
        <ele>1639.6</ele>
        <time>2021-12-19T11:38:44Z</time>
      </trkpt>
      <trkpt lat="45.34226" lon="5.72109">
        <ele>1639.6</ele>
        <time>2021-12-19T11:38:45Z</time>
      </trkpt>
      <trkpt lat="45.34225" lon="5.72109">
        <ele>1640.4</ele>
        <time>2021-12-19T11:38:46Z</time>
      </trkpt>
      <trkpt lat="45.34225" lon="5.72108">
        <ele>1641.2</ele>
        <time>2021-12-19T11:38:47Z</time>
      </trkpt>
      <trkpt lat="45.34224" lon="5.72107">
        <ele>1641.2</ele>
        <time>2021-12-19T11:38:48Z</time>
      </trkpt>
      <trkpt lat="45.34224" lon="5.72106">
        <ele>1641.2</ele>
        <time>2021-12-19T11:38:49Z</time>
      </trkpt>
      <trkpt lat="45.34223" lon="5.72106">
        <ele>1641.2</ele>
        <time>2021-12-19T11:38:50Z</time>
      </trkpt>
      <trkpt lat="45.34223" lon="5.72105">
        <ele>1641.2</ele>
        <time>2021-12-19T11:38:51Z</time>
      </trkpt>
      <trkpt lat="45.34222" lon="5.72104">
        <ele>1642.7</ele>
        <time>2021-12-19T11:38:52Z</time>
      </trkpt>
      <trkpt lat="45.34221" lon="5.72104">
        <ele>1642.7</ele>
        <time>2021-12-19T11:38:53Z</time>
      </trkpt>
      <trkpt lat="45.34221" lon="5.72103">
        <ele>1642.7</ele>
        <time>2021-12-19T11:38:54Z</time>
      </trkpt>
      <trkpt lat="45.3422" lon="5.72102">
        <ele>1642.7</ele>
        <time>2021-12-19T11:38:55Z</time>
      </trkpt>
      <trkpt lat="45.3422" lon="5.72101">
        <ele>1642.7</ele>
        <time>2021-12-19T11:38:56Z</time>
      </trkpt>
      <trkpt lat="45.34219" lon="5.72101">
        <ele>1642.7</ele>
        <time>2021-12-19T11:38:57Z</time>
      </trkpt>
      <trkpt lat="45.34219" lon="5.721">
        <ele>1644.1</ele>
        <time>2021-12-19T11:38:58Z</time>
      </trkpt>
      <trkpt lat="45.34218" lon="5.72099">
        <ele>1644.1</ele>
        <time>2021-12-19T11:38:59Z</time>
      </trkpt>
      <trkpt lat="45.34218" lon="5.72098">
        <ele>1644.1</ele>
        <time>2021-12-19T11:39:00Z</time>
      </trkpt>
      <trkpt lat="45.34217" lon="5.72099">
        <ele>1644.1</ele>
        <time>2021-12-19T11:39:01Z</time>
      </trkpt>
      <trkpt lat="45.34217" lon="5.72098">
        <ele>1644.1</ele>
        <time>2021-12-19T11:39:02Z</time>
      </trkpt>
      <trkpt lat="45.34216" lon="5.72097">
        <ele>1644.1</ele>
        <time>2021-12-19T11:39:03Z</time>
      </trkpt>
      <trkpt lat="45.34216" lon="5.72097">
        <ele>1644.2</ele>
        <time>2021-12-19T11:39:04Z</time>
      </trkpt>
      <trkpt lat="45.34215" lon="5.72096">
        <ele>1644.2</ele>
        <time>2021-12-19T11:39:05Z</time>
      </trkpt>
      <trkpt lat="45.34215" lon="5.72096">
        <ele>1644.2</ele>
        <time>2021-12-19T11:39:06Z</time>
      </trkpt>
      <trkpt lat="45.34214" lon="5.72095">
        <ele>1644.3</ele>
        <time>2021-12-19T11:39:07Z</time>
      </trkpt>
      <trkpt lat="45.34214" lon="5.72095">
        <ele>1644.3</ele>
        <time>2021-12-19T11:39:08Z</time>
      </trkpt>
      <trkpt lat="45.34213" lon="5.72095">
        <ele>1644.3</ele>
        <time>2021-12-19T11:39:09Z</time>
      </trkpt>
      <trkpt lat="45.34213" lon="5.72094">
        <ele>1644.4</ele>
        <time>2021-12-19T11:39:10Z</time>
      </trkpt>
      <trkpt lat="45.34212" lon="5.72093">
        <ele>1644.4</ele>
        <time>2021-12-19T11:39:11Z</time>
      </trkpt>
      <trkpt lat="45.34212" lon="5.72092">
        <ele>1644.5</ele>
        <time>2021-12-19T11:39:12Z</time>
      </trkpt>
      <trkpt lat="45.34211" lon="5.72092">
        <ele>1644.5</ele>
        <time>2021-12-19T11:39:13Z</time>
      </trkpt>
      <trkpt lat="45.34211" lon="5.72091">
        <ele>1644.5</ele>
        <time>2021-12-19T11:39:14Z</time>
      </trkpt>
      <trkpt lat="45.34211" lon="5.72091">
        <ele>1644.6</ele>
        <time>2021-12-19T11:39:15Z</time>
      </trkpt>
      <trkpt lat="45.34211" lon="5.7209">
        <ele>1644.6</ele>
        <time>2021-12-19T11:39:16Z</time>
      </trkpt>
      <trkpt lat="45.3421" lon="5.7209">
        <ele>1644.6</ele>
        <time>2021-12-19T11:39:17Z</time>
      </trkpt>
      <trkpt lat="45.3421" lon="5.72089">
        <ele>1644.6</ele>
        <time>2021-12-19T11:39:18Z</time>
      </trkpt>
      <trkpt lat="45.34211" lon="5.72089">
        <ele>1644.7</ele>
        <time>2021-12-19T11:39:19Z</time>
      </trkpt>
      <trkpt lat="45.34211" lon="5.72089">
        <ele>1644.7</ele>
        <time>2021-12-19T11:39:20Z</time>
      </trkpt>
      <trkpt lat="45.34211" lon="5.72089">
        <ele>1644.7</ele>
        <time>2021-12-19T11:39:21Z</time>
      </trkpt>
      <trkpt lat="45.3421" lon="5.72089">
        <ele>1644.7</ele>
        <time>2021-12-19T11:39:22Z</time>
      </trkpt>
      <trkpt lat="45.3421" lon="5.7209">
        <ele>1644.7</ele>
        <time>2021-12-19T11:39:23Z</time>
      </trkpt>
      <trkpt lat="45.3421" lon="5.7209">
        <ele>1644.7</ele>
        <time>2021-12-19T11:39:24Z</time>
      </trkpt>
      <trkpt lat="45.3421" lon="5.7209">
        <ele>1644.7</ele>
        <time>2021-12-19T11:39:25Z</time>
      </trkpt>
      <trkpt lat="45.3421" lon="5.7209">
        <ele>1644.7</ele>
        <time>2021-12-19T11:39:26Z</time>
      </trkpt>
      <trkpt lat="45.34209" lon="5.7209">
        <ele>1644.8</ele>
        <time>2021-12-19T11:39:27Z</time>
      </trkpt>
      <trkpt lat="45.34209" lon="5.72091">
        <ele>1644.8</ele>
        <time>2021-12-19T11:39:28Z</time>
      </trkpt>
      <trkpt lat="45.34209" lon="5.72091">
        <ele>1644.8</ele>
        <time>2021-12-19T11:39:29Z</time>
      </trkpt>
      <trkpt lat="45.34208" lon="5.72091">
        <ele>1644.8</ele>
        <time>2021-12-19T11:39:30Z</time>
      </trkpt>
      <trkpt lat="45.34208" lon="5.7209">
        <ele>1644.9</ele>
        <time>2021-12-19T11:39:31Z</time>
      </trkpt>
      <trkpt lat="45.34208" lon="5.7209">
        <ele>1644.9</ele>
        <time>2021-12-19T11:39:32Z</time>
      </trkpt>
      <trkpt lat="45.34207" lon="5.7209">
        <ele>1644.9</ele>
        <time>2021-12-19T11:39:33Z</time>
      </trkpt>
      <trkpt lat="45.34207" lon="5.7209">
        <ele>1644.9</ele>
        <time>2021-12-19T11:39:34Z</time>
      </trkpt>
      <trkpt lat="45.34207" lon="5.72089">
        <ele>1644.9</ele>
        <time>2021-12-19T11:39:35Z</time>
      </trkpt>
      <trkpt lat="45.34206" lon="5.72089">
        <ele>1645</ele>
        <time>2021-12-19T11:39:36Z</time>
      </trkpt>
      <trkpt lat="45.34206" lon="5.72089">
        <ele>1645</ele>
        <time>2021-12-19T11:39:37Z</time>
      </trkpt>
      <trkpt lat="45.34206" lon="5.72089">
        <ele>1645</ele>
        <time>2021-12-19T11:39:38Z</time>
      </trkpt>
      <trkpt lat="45.34205" lon="5.72088">
        <ele>1645</ele>
        <time>2021-12-19T11:39:39Z</time>
      </trkpt>
      <trkpt lat="45.34205" lon="5.72088">
        <ele>1645.1</ele>
        <time>2021-12-19T11:39:40Z</time>
      </trkpt>
      <trkpt lat="45.34204" lon="5.72088">
        <ele>1645.1</ele>
        <time>2021-12-19T11:39:41Z</time>
      </trkpt>
      <trkpt lat="45.34204" lon="5.72087">
        <ele>1645.1</ele>
        <time>2021-12-19T11:39:42Z</time>
      </trkpt>
      <trkpt lat="45.34203" lon="5.72087">
        <ele>1645.2</ele>
        <time>2021-12-19T11:39:43Z</time>
      </trkpt>
      <trkpt lat="45.34203" lon="5.72086">
        <ele>1645.2</ele>
        <time>2021-12-19T11:39:44Z</time>
      </trkpt>
      <trkpt lat="45.34203" lon="5.72086">
        <ele>1645.2</ele>
        <time>2021-12-19T11:39:45Z</time>
      </trkpt>
      <trkpt lat="45.34203" lon="5.72086">
        <ele>1645.2</ele>
        <time>2021-12-19T11:39:46Z</time>
      </trkpt>
      <trkpt lat="45.34203" lon="5.72086">
        <ele>1645.2</ele>
        <time>2021-12-19T11:39:47Z</time>
      </trkpt>
      <trkpt lat="45.34203" lon="5.72086">
        <ele>1645.2</ele>
        <time>2021-12-19T11:39:48Z</time>
      </trkpt>
      <trkpt lat="45.34203" lon="5.72086">
        <ele>1645.2</ele>
        <time>2021-12-19T11:39:49Z</time>
      </trkpt>
      <trkpt lat="45.34203" lon="5.72086">
        <ele>1645.2</ele>
        <time>2021-12-19T11:39:50Z</time>
      </trkpt>
      <trkpt lat="45.34203" lon="5.72086">
        <ele>1645.3</ele>
        <time>2021-12-19T11:39:51Z</time>
      </trkpt>
      <trkpt lat="45.34203" lon="5.72086">
        <ele>1645.3</ele>
        <time>2021-12-19T11:39:52Z</time>
      </trkpt>
      <trkpt lat="45.34203" lon="5.72086">
        <ele>1645.3</ele>
        <time>2021-12-19T11:39:53Z</time>
      </trkpt>
      <trkpt lat="45.34203" lon="5.72086">
        <ele>1645.3</ele>
        <time>2021-12-19T11:39:54Z</time>
      </trkpt>
      <trkpt lat="45.34203" lon="5.72086">
        <ele>1645.3</ele>
        <time>2021-12-19T11:39:55Z</time>
      </trkpt>
      <trkpt lat="45.34203" lon="5.72086">
        <ele>1645.3</ele>
        <time>2021-12-19T11:39:56Z</time>
      </trkpt>
      <trkpt lat="45.34203" lon="5.72086">
        <ele>1645.3</ele>
        <time>2021-12-19T11:39:57Z</time>
      </trkpt>
      <trkpt lat="45.34203" lon="5.72086">
        <ele>1645.3</ele>
        <time>2021-12-19T11:39:58Z</time>
      </trkpt>
      <trkpt lat="45.34203" lon="5.72086">
        <ele>1645.3</ele>
        <time>2021-12-19T11:39:59Z</time>
      </trkpt>
      <trkpt lat="45.34203" lon="5.72086">
        <ele>1645.3</ele>
        <time>2021-12-19T11:40:00Z</time>
      </trkpt>
      <trkpt lat="45.34203" lon="5.72086">
        <ele>1645.3</ele>
        <time>2021-12-19T11:40:01Z</time>
      </trkpt>
      <trkpt lat="45.34203" lon="5.72086">
        <ele>1645.3</ele>
        <time>2021-12-19T11:40:02Z</time>
      </trkpt>
      <trkpt lat="45.34203" lon="5.72086">
        <ele>1645.3</ele>
        <time>2021-12-19T11:40:03Z</time>
      </trkpt>
      <trkpt lat="45.34203" lon="5.72086">
        <ele>1645.3</ele>
        <time>2021-12-19T11:40:04Z</time>
      </trkpt>
      <trkpt lat="45.34203" lon="5.72086">
        <ele>1645.3</ele>
        <time>2021-12-19T11:40:05Z</time>
      </trkpt>
      <trkpt lat="45.34203" lon="5.72086">
        <ele>1645.3</ele>
        <time>2021-12-19T11:40:06Z</time>
      </trkpt>
      <trkpt lat="45.34203" lon="5.72086">
        <ele>1645.3</ele>
        <time>2021-12-19T11:40:07Z</time>
      </trkpt>
      <trkpt lat="45.34203" lon="5.72086">
        <ele>1645.3</ele>
        <time>2021-12-19T11:40:08Z</time>
      </trkpt>
      <trkpt lat="45.34203" lon="5.72086">
        <ele>1645.4</ele>
        <time>2021-12-19T11:40:09Z</time>
      </trkpt>
      <trkpt lat="45.34203" lon="5.72086">
        <ele>1645.4</ele>
        <time>2021-12-19T11:40:10Z</time>
      </trkpt>
      <trkpt lat="45.34203" lon="5.72086">
        <ele>1645.4</ele>
        <time>2021-12-19T11:40:11Z</time>
      </trkpt>
      <trkpt lat="45.34203" lon="5.72086">
        <ele>1645.4</ele>
        <time>2021-12-19T11:40:12Z</time>
      </trkpt>
      <trkpt lat="45.34203" lon="5.72086">
        <ele>1645.4</ele>
        <time>2021-12-19T11:40:13Z</time>
      </trkpt>
      <trkpt lat="45.34203" lon="5.72085">
        <ele>1645.4</ele>
        <time>2021-12-19T11:40:14Z</time>
      </trkpt>
      <trkpt lat="45.34203" lon="5.72085">
        <ele>1645.4</ele>
        <time>2021-12-19T11:40:15Z</time>
      </trkpt>
      <trkpt lat="45.34203" lon="5.72085">
        <ele>1645.4</ele>
        <time>2021-12-19T11:40:16Z</time>
      </trkpt>
      <trkpt lat="45.34203" lon="5.72085">
        <ele>1645.4</ele>
        <time>2021-12-19T11:40:17Z</time>
      </trkpt>
      <trkpt lat="45.34203" lon="5.72086">
        <ele>1645.4</ele>
        <time>2021-12-19T11:40:18Z</time>
      </trkpt>
      <trkpt lat="45.34203" lon="5.72086">
        <ele>1645.4</ele>
        <time>2021-12-19T11:40:19Z</time>
      </trkpt>
      <trkpt lat="45.34203" lon="5.72086">
        <ele>1645.4</ele>
        <time>2021-12-19T11:40:20Z</time>
      </trkpt>
      <trkpt lat="45.34203" lon="5.72086">
        <ele>1645.4</ele>
        <time>2021-12-19T11:40:21Z</time>
      </trkpt>
      <trkpt lat="45.34203" lon="5.72086">
        <ele>1645.4</ele>
        <time>2021-12-19T11:40:22Z</time>
      </trkpt>
      <trkpt lat="45.34203" lon="5.72085">
        <ele>1645.4</ele>
        <time>2021-12-19T11:40:23Z</time>
      </trkpt>
      <trkpt lat="45.34203" lon="5.72085">
        <ele>1645.4</ele>
        <time>2021-12-19T11:40:24Z</time>
      </trkpt>
      <trkpt lat="45.34203" lon="5.72085">
        <ele>1645.4</ele>
        <time>2021-12-19T11:40:25Z</time>
      </trkpt>
      <trkpt lat="45.34203" lon="5.72085">
        <ele>1645.4</ele>
        <time>2021-12-19T11:40:26Z</time>
      </trkpt>
      <trkpt lat="45.34203" lon="5.72085">
        <ele>1645.4</ele>
        <time>2021-12-19T11:40:27Z</time>
      </trkpt>
      <trkpt lat="45.34203" lon="5.72085">
        <ele>1645.4</ele>
        <time>2021-12-19T11:40:28Z</time>
      </trkpt>
      <trkpt lat="45.34203" lon="5.72086">
        <ele>1645.4</ele>
        <time>2021-12-19T11:40:29Z</time>
      </trkpt>
      <trkpt lat="45.34203" lon="5.72086">
        <ele>1645.4</ele>
        <time>2021-12-19T11:40:30Z</time>
      </trkpt>
      <trkpt lat="45.34203" lon="5.72085">
        <ele>1645.4</ele>
        <time>2021-12-19T11:40:31Z</time>
      </trkpt>
      <trkpt lat="45.34203" lon="5.72085">
        <ele>1645.4</ele>
        <time>2021-12-19T11:40:32Z</time>
      </trkpt>
      <trkpt lat="45.34203" lon="5.72086">
        <ele>1645.4</ele>
        <time>2021-12-19T11:40:33Z</time>
      </trkpt>
      <trkpt lat="45.34203" lon="5.72085">
        <ele>1645.4</ele>
        <time>2021-12-19T11:40:34Z</time>
      </trkpt>
      <trkpt lat="45.34203" lon="5.72085">
        <ele>1645.5</ele>
        <time>2021-12-19T11:40:35Z</time>
      </trkpt>
      <trkpt lat="45.34202" lon="5.72085">
        <ele>1645.5</ele>
        <time>2021-12-19T11:40:36Z</time>
      </trkpt>
      <trkpt lat="45.34202" lon="5.72084">
        <ele>1645.5</ele>
        <time>2021-12-19T11:40:37Z</time>
      </trkpt>
      <trkpt lat="45.34201" lon="5.72083">
        <ele>1645.6</ele>
        <time>2021-12-19T11:40:38Z</time>
      </trkpt>
      <trkpt lat="45.342" lon="5.72082">
        <ele>1645.7</ele>
        <time>2021-12-19T11:40:39Z</time>
      </trkpt>
      <trkpt lat="45.34199" lon="5.72082">
        <ele>1645.7</ele>
        <time>2021-12-19T11:40:40Z</time>
      </trkpt>
      <trkpt lat="45.34198" lon="5.72081">
        <ele>1645.8</ele>
        <time>2021-12-19T11:40:41Z</time>
      </trkpt>
      <trkpt lat="45.34197" lon="5.7208">
        <ele>1645.8</ele>
        <time>2021-12-19T11:40:42Z</time>
      </trkpt>
      <trkpt lat="45.34197" lon="5.72079">
        <ele>1645.9</ele>
        <time>2021-12-19T11:40:43Z</time>
      </trkpt>
      <trkpt lat="45.34196" lon="5.72078">
        <ele>1645.9</ele>
        <time>2021-12-19T11:40:44Z</time>
      </trkpt>
      <trkpt lat="45.34195" lon="5.72078">
        <ele>1646</ele>
        <time>2021-12-19T11:40:45Z</time>
      </trkpt>
      <trkpt lat="45.34194" lon="5.72077">
        <ele>1646</ele>
        <time>2021-12-19T11:40:46Z</time>
      </trkpt>
      <trkpt lat="45.34194" lon="5.72077">
        <ele>1646.1</ele>
        <time>2021-12-19T11:40:47Z</time>
      </trkpt>
      <trkpt lat="45.34193" lon="5.72076">
        <ele>1646.1</ele>
        <time>2021-12-19T11:40:48Z</time>
      </trkpt>
      <trkpt lat="45.34192" lon="5.72076">
        <ele>1646.2</ele>
        <time>2021-12-19T11:40:49Z</time>
      </trkpt>
      <trkpt lat="45.34192" lon="5.72076">
        <ele>1646.2</ele>
        <time>2021-12-19T11:40:50Z</time>
      </trkpt>
      <trkpt lat="45.34191" lon="5.72075">
        <ele>1646.3</ele>
        <time>2021-12-19T11:40:51Z</time>
      </trkpt>
      <trkpt lat="45.34191" lon="5.72075">
        <ele>1646.3</ele>
        <time>2021-12-19T11:40:52Z</time>
      </trkpt>
      <trkpt lat="45.3419" lon="5.72074">
        <ele>1646.3</ele>
        <time>2021-12-19T11:40:53Z</time>
      </trkpt>
      <trkpt lat="45.34189" lon="5.72074">
        <ele>1646.4</ele>
        <time>2021-12-19T11:40:54Z</time>
      </trkpt>
      <trkpt lat="45.34189" lon="5.72073">
        <ele>1646.4</ele>
        <time>2021-12-19T11:40:55Z</time>
      </trkpt>
      <trkpt lat="45.34188" lon="5.72073">
        <ele>1646.4</ele>
        <time>2021-12-19T11:40:56Z</time>
      </trkpt>
      <trkpt lat="45.34188" lon="5.72072">
        <ele>1646.5</ele>
        <time>2021-12-19T11:40:57Z</time>
      </trkpt>
      <trkpt lat="45.34187" lon="5.72071">
        <ele>1646.5</ele>
        <time>2021-12-19T11:40:58Z</time>
      </trkpt>
      <trkpt lat="45.34187" lon="5.72071">
        <ele>1646.6</ele>
        <time>2021-12-19T11:40:59Z</time>
      </trkpt>
      <trkpt lat="45.34186" lon="5.7207">
        <ele>1646.6</ele>
        <time>2021-12-19T11:41:00Z</time>
      </trkpt>
      <trkpt lat="45.34185" lon="5.7207">
        <ele>1646.7</ele>
        <time>2021-12-19T11:41:01Z</time>
      </trkpt>
      <trkpt lat="45.34185" lon="5.7207">
        <ele>1646.7</ele>
        <time>2021-12-19T11:41:02Z</time>
      </trkpt>
      <trkpt lat="45.34184" lon="5.72069">
        <ele>1646.7</ele>
        <time>2021-12-19T11:41:03Z</time>
      </trkpt>
      <trkpt lat="45.34184" lon="5.72068">
        <ele>1646.8</ele>
        <time>2021-12-19T11:41:04Z</time>
      </trkpt>
      <trkpt lat="45.34183" lon="5.72068">
        <ele>1646.8</ele>
        <time>2021-12-19T11:41:05Z</time>
      </trkpt>
      <trkpt lat="45.34183" lon="5.72067">
        <ele>1646.9</ele>
        <time>2021-12-19T11:41:06Z</time>
      </trkpt>
      <trkpt lat="45.34182" lon="5.72067">
        <ele>1646.9</ele>
        <time>2021-12-19T11:41:07Z</time>
      </trkpt>
      <trkpt lat="45.34181" lon="5.72067">
        <ele>1647</ele>
        <time>2021-12-19T11:41:08Z</time>
      </trkpt>
      <trkpt lat="45.3418" lon="5.72067">
        <ele>1647</ele>
        <time>2021-12-19T11:41:09Z</time>
      </trkpt>
      <trkpt lat="45.3418" lon="5.72067">
        <ele>1647</ele>
        <time>2021-12-19T11:41:10Z</time>
      </trkpt>
      <trkpt lat="45.3418" lon="5.72066">
        <ele>1647</ele>
        <time>2021-12-19T11:41:11Z</time>
      </trkpt>
      <trkpt lat="45.3418" lon="5.72065">
        <ele>1647.1</ele>
        <time>2021-12-19T11:41:12Z</time>
      </trkpt>
      <trkpt lat="45.3418" lon="5.72066">
        <ele>1647.1</ele>
        <time>2021-12-19T11:41:13Z</time>
      </trkpt>
      <trkpt lat="45.3418" lon="5.72066">
        <ele>1647.1</ele>
        <time>2021-12-19T11:41:14Z</time>
      </trkpt>
      <trkpt lat="45.3418" lon="5.72066">
        <ele>1647.1</ele>
        <time>2021-12-19T11:41:15Z</time>
      </trkpt>
      <trkpt lat="45.3418" lon="5.72066">
        <ele>1647.1</ele>
        <time>2021-12-19T11:41:16Z</time>
      </trkpt>
      <trkpt lat="45.3418" lon="5.72065">
        <ele>1647.1</ele>
        <time>2021-12-19T11:41:17Z</time>
      </trkpt>
      <trkpt lat="45.3418" lon="5.72065">
        <ele>1647.1</ele>
        <time>2021-12-19T11:41:18Z</time>
      </trkpt>
      <trkpt lat="45.3418" lon="5.72065">
        <ele>1647.1</ele>
        <time>2021-12-19T11:41:19Z</time>
      </trkpt>
      <trkpt lat="45.3418" lon="5.72065">
        <ele>1647.2</ele>
        <time>2021-12-19T11:41:20Z</time>
      </trkpt>
      <trkpt lat="45.34181" lon="5.72064">
        <ele>1647.2</ele>
        <time>2021-12-19T11:41:21Z</time>
      </trkpt>
      <trkpt lat="45.34181" lon="5.72064">
        <ele>1647.2</ele>
        <time>2021-12-19T11:41:22Z</time>
      </trkpt>
      <trkpt lat="45.34181" lon="5.72063">
        <ele>1647.2</ele>
        <time>2021-12-19T11:41:23Z</time>
      </trkpt>
      <trkpt lat="45.34182" lon="5.72063">
        <ele>1647.3</ele>
        <time>2021-12-19T11:41:24Z</time>
      </trkpt>
      <trkpt lat="45.34182" lon="5.72062">
        <ele>1647.3</ele>
        <time>2021-12-19T11:41:25Z</time>
      </trkpt>
      <trkpt lat="45.34182" lon="5.72062">
        <ele>1647.3</ele>
        <time>2021-12-19T11:41:26Z</time>
      </trkpt>
      <trkpt lat="45.34182" lon="5.72061">
        <ele>1647.3</ele>
        <time>2021-12-19T11:41:27Z</time>
      </trkpt>
      <trkpt lat="45.34183" lon="5.72061">
        <ele>1647.4</ele>
        <time>2021-12-19T11:41:28Z</time>
      </trkpt>
      <trkpt lat="45.34183" lon="5.72061">
        <ele>1647.4</ele>
        <time>2021-12-19T11:41:29Z</time>
      </trkpt>
      <trkpt lat="45.34182" lon="5.7206">
        <ele>1647.4</ele>
        <time>2021-12-19T11:41:30Z</time>
      </trkpt>
      <trkpt lat="45.34182" lon="5.7206">
        <ele>1647.4</ele>
        <time>2021-12-19T11:41:31Z</time>
      </trkpt>
      <trkpt lat="45.34182" lon="5.7206">
        <ele>1647.4</ele>
        <time>2021-12-19T11:41:32Z</time>
      </trkpt>
      <trkpt lat="45.34182" lon="5.7206">
        <ele>1647.4</ele>
        <time>2021-12-19T11:41:33Z</time>
      </trkpt>
      <trkpt lat="45.34182" lon="5.7206">
        <ele>1647.4</ele>
        <time>2021-12-19T11:41:34Z</time>
      </trkpt>
      <trkpt lat="45.34182" lon="5.7206">
        <ele>1647.5</ele>
        <time>2021-12-19T11:41:35Z</time>
      </trkpt>
      <trkpt lat="45.34181" lon="5.72059">
        <ele>1647.5</ele>
        <time>2021-12-19T11:41:36Z</time>
      </trkpt>
      <trkpt lat="45.34181" lon="5.72059">
        <ele>1647.5</ele>
        <time>2021-12-19T11:41:37Z</time>
      </trkpt>
      <trkpt lat="45.3418" lon="5.72058">
        <ele>1647.6</ele>
        <time>2021-12-19T11:41:38Z</time>
      </trkpt>
      <trkpt lat="45.3418" lon="5.72058">
        <ele>1647.6</ele>
        <time>2021-12-19T11:41:39Z</time>
      </trkpt>
      <trkpt lat="45.34179" lon="5.72058">
        <ele>1647.6</ele>
        <time>2021-12-19T11:41:40Z</time>
      </trkpt>
      <trkpt lat="45.34179" lon="5.72057">
        <ele>1647.6</ele>
        <time>2021-12-19T11:41:41Z</time>
      </trkpt>
      <trkpt lat="45.34179" lon="5.72057">
        <ele>1647.7</ele>
        <time>2021-12-19T11:41:42Z</time>
      </trkpt>
      <trkpt lat="45.34179" lon="5.72058">
        <ele>1647.7</ele>
        <time>2021-12-19T11:41:43Z</time>
      </trkpt>
      <trkpt lat="45.34178" lon="5.72057">
        <ele>1647.7</ele>
        <time>2021-12-19T11:41:44Z</time>
      </trkpt>
      <trkpt lat="45.34178" lon="5.72057">
        <ele>1647.7</ele>
        <time>2021-12-19T11:41:45Z</time>
      </trkpt>
      <trkpt lat="45.34178" lon="5.72056">
        <ele>1647.7</ele>
        <time>2021-12-19T11:41:46Z</time>
      </trkpt>
      <trkpt lat="45.34178" lon="5.72056">
        <ele>1647.8</ele>
        <time>2021-12-19T11:41:47Z</time>
      </trkpt>
      <trkpt lat="45.34177" lon="5.72055">
        <ele>1647.8</ele>
        <time>2021-12-19T11:41:48Z</time>
      </trkpt>
      <trkpt lat="45.34176" lon="5.72055">
        <ele>1647.9</ele>
        <time>2021-12-19T11:41:49Z</time>
      </trkpt>
      <trkpt lat="45.34175" lon="5.72054">
        <ele>1647.9</ele>
        <time>2021-12-19T11:41:50Z</time>
      </trkpt>
      <trkpt lat="45.34175" lon="5.72054">
        <ele>1648</ele>
        <time>2021-12-19T11:41:51Z</time>
      </trkpt>
      <trkpt lat="45.34174" lon="5.72053">
        <ele>1648</ele>
        <time>2021-12-19T11:41:52Z</time>
      </trkpt>
      <trkpt lat="45.34173" lon="5.72052">
        <ele>1648.1</ele>
        <time>2021-12-19T11:41:53Z</time>
      </trkpt>
      <trkpt lat="45.34173" lon="5.72052">
        <ele>1648.1</ele>
        <time>2021-12-19T11:41:54Z</time>
      </trkpt>
      <trkpt lat="45.34172" lon="5.72051">
        <ele>1648.2</ele>
        <time>2021-12-19T11:41:55Z</time>
      </trkpt>
      <trkpt lat="45.34172" lon="5.7205">
        <ele>1648.2</ele>
        <time>2021-12-19T11:41:56Z</time>
      </trkpt>
      <trkpt lat="45.34171" lon="5.7205">
        <ele>1648.2</ele>
        <time>2021-12-19T11:41:57Z</time>
      </trkpt>
      <trkpt lat="45.34171" lon="5.7205">
        <ele>1648.2</ele>
        <time>2021-12-19T11:41:58Z</time>
      </trkpt>
      <trkpt lat="45.34171" lon="5.72049">
        <ele>1648.2</ele>
        <time>2021-12-19T11:41:59Z</time>
      </trkpt>
      <trkpt lat="45.34171" lon="5.7205">
        <ele>1648.3</ele>
        <time>2021-12-19T11:42:00Z</time>
      </trkpt>
      <trkpt lat="45.34171" lon="5.7205">
        <ele>1648.3</ele>
        <time>2021-12-19T11:42:01Z</time>
      </trkpt>
      <trkpt lat="45.34171" lon="5.7205">
        <ele>1648.3</ele>
        <time>2021-12-19T11:42:02Z</time>
      </trkpt>
      <trkpt lat="45.34171" lon="5.7205">
        <ele>1648.3</ele>
        <time>2021-12-19T11:42:03Z</time>
      </trkpt>
      <trkpt lat="45.34171" lon="5.7205">
        <ele>1648.3</ele>
        <time>2021-12-19T11:42:04Z</time>
      </trkpt>
      <trkpt lat="45.34171" lon="5.7205">
        <ele>1648.3</ele>
        <time>2021-12-19T11:42:05Z</time>
      </trkpt>
      <trkpt lat="45.34171" lon="5.7205">
        <ele>1648.3</ele>
        <time>2021-12-19T11:42:06Z</time>
      </trkpt>
      <trkpt lat="45.34171" lon="5.7205">
        <ele>1648.3</ele>
        <time>2021-12-19T11:42:07Z</time>
      </trkpt>
      <trkpt lat="45.34171" lon="5.72049">
        <ele>1648.3</ele>
        <time>2021-12-19T11:42:08Z</time>
      </trkpt>
      <trkpt lat="45.3417" lon="5.72049">
        <ele>1648.3</ele>
        <time>2021-12-19T11:42:09Z</time>
      </trkpt>
      <trkpt lat="45.3417" lon="5.72048">
        <ele>1648.4</ele>
        <time>2021-12-19T11:42:10Z</time>
      </trkpt>
      <trkpt lat="45.34169" lon="5.72047">
        <ele>1648.4</ele>
        <time>2021-12-19T11:42:11Z</time>
      </trkpt>
      <trkpt lat="45.34168" lon="5.72047">
        <ele>1648.5</ele>
        <time>2021-12-19T11:42:12Z</time>
      </trkpt>
      <trkpt lat="45.34168" lon="5.72046">
        <ele>1648.5</ele>
        <time>2021-12-19T11:42:13Z</time>
      </trkpt>
      <trkpt lat="45.34167" lon="5.72045">
        <ele>1648.6</ele>
        <time>2021-12-19T11:42:14Z</time>
      </trkpt>
      <trkpt lat="45.34167" lon="5.72045">
        <ele>1648.6</ele>
        <time>2021-12-19T11:42:15Z</time>
      </trkpt>
      <trkpt lat="45.34166" lon="5.72044">
        <ele>1648.7</ele>
        <time>2021-12-19T11:42:16Z</time>
      </trkpt>
      <trkpt lat="45.34165" lon="5.72043">
        <ele>1648.7</ele>
        <time>2021-12-19T11:42:17Z</time>
      </trkpt>
      <trkpt lat="45.34164" lon="5.72042">
        <ele>1648.8</ele>
        <time>2021-12-19T11:42:18Z</time>
      </trkpt>
      <trkpt lat="45.34164" lon="5.72042">
        <ele>1648.8</ele>
        <time>2021-12-19T11:42:19Z</time>
      </trkpt>
      <trkpt lat="45.34163" lon="5.72041">
        <ele>1648.9</ele>
        <time>2021-12-19T11:42:20Z</time>
      </trkpt>
      <trkpt lat="45.34162" lon="5.7204">
        <ele>1648.9</ele>
        <time>2021-12-19T11:42:21Z</time>
      </trkpt>
      <trkpt lat="45.34162" lon="5.72039">
        <ele>1649</ele>
        <time>2021-12-19T11:42:22Z</time>
      </trkpt>
      <trkpt lat="45.34161" lon="5.72039">
        <ele>1649</ele>
        <time>2021-12-19T11:42:23Z</time>
      </trkpt>
      <trkpt lat="45.34161" lon="5.72038">
        <ele>1649</ele>
        <time>2021-12-19T11:42:24Z</time>
      </trkpt>
      <trkpt lat="45.34161" lon="5.72037">
        <ele>1649.1</ele>
        <time>2021-12-19T11:42:25Z</time>
      </trkpt>
      <trkpt lat="45.3416" lon="5.72037">
        <ele>1649.1</ele>
        <time>2021-12-19T11:42:26Z</time>
      </trkpt>
      <trkpt lat="45.34159" lon="5.72037">
        <ele>1649.2</ele>
        <time>2021-12-19T11:42:27Z</time>
      </trkpt>
      <trkpt lat="45.34159" lon="5.72036">
        <ele>1649.2</ele>
        <time>2021-12-19T11:42:28Z</time>
      </trkpt>
      <trkpt lat="45.34158" lon="5.72036">
        <ele>1649.3</ele>
        <time>2021-12-19T11:42:29Z</time>
      </trkpt>
      <trkpt lat="45.34157" lon="5.72035">
        <ele>1649.3</ele>
        <time>2021-12-19T11:42:30Z</time>
      </trkpt>
      <trkpt lat="45.34156" lon="5.72035">
        <ele>1649.3</ele>
        <time>2021-12-19T11:42:31Z</time>
      </trkpt>
      <trkpt lat="45.34156" lon="5.72034">
        <ele>1649.4</ele>
        <time>2021-12-19T11:42:32Z</time>
      </trkpt>
      <trkpt lat="45.34156" lon="5.72034">
        <ele>1649.4</ele>
        <time>2021-12-19T11:42:33Z</time>
      </trkpt>
      <trkpt lat="45.34156" lon="5.72034">
        <ele>1649.4</ele>
        <time>2021-12-19T11:42:34Z</time>
      </trkpt>
      <trkpt lat="45.34156" lon="5.72034">
        <ele>1649.4</ele>
        <time>2021-12-19T11:42:35Z</time>
      </trkpt>
      <trkpt lat="45.34156" lon="5.72034">
        <ele>1649.4</ele>
        <time>2021-12-19T11:42:36Z</time>
      </trkpt>
      <trkpt lat="45.34156" lon="5.72034">
        <ele>1649.4</ele>
        <time>2021-12-19T11:42:37Z</time>
      </trkpt>
      <trkpt lat="45.34157" lon="5.72034">
        <ele>1649.5</ele>
        <time>2021-12-19T11:42:38Z</time>
      </trkpt>
      <trkpt lat="45.34157" lon="5.72033">
        <ele>1649.5</ele>
        <time>2021-12-19T11:42:39Z</time>
      </trkpt>
      <trkpt lat="45.34157" lon="5.72033">
        <ele>1649.5</ele>
        <time>2021-12-19T11:42:40Z</time>
      </trkpt>
      <trkpt lat="45.34158" lon="5.72034">
        <ele>1649.5</ele>
        <time>2021-12-19T11:42:41Z</time>
      </trkpt>
      <trkpt lat="45.34158" lon="5.72034">
        <ele>1649.6</ele>
        <time>2021-12-19T11:42:42Z</time>
      </trkpt>
      <trkpt lat="45.34159" lon="5.72034">
        <ele>1649.6</ele>
        <time>2021-12-19T11:42:43Z</time>
      </trkpt>
      <trkpt lat="45.34159" lon="5.72034">
        <ele>1649.6</ele>
        <time>2021-12-19T11:42:44Z</time>
      </trkpt>
      <trkpt lat="45.34159" lon="5.72034">
        <ele>1649.6</ele>
        <time>2021-12-19T11:42:45Z</time>
      </trkpt>
      <trkpt lat="45.34159" lon="5.72034">
        <ele>1649.6</ele>
        <time>2021-12-19T11:42:46Z</time>
      </trkpt>
      <trkpt lat="45.34159" lon="5.72034">
        <ele>1649.6</ele>
        <time>2021-12-19T11:42:47Z</time>
      </trkpt>
      <trkpt lat="45.34159" lon="5.72034">
        <ele>1649.6</ele>
        <time>2021-12-19T11:42:48Z</time>
      </trkpt>
      <trkpt lat="45.34159" lon="5.72034">
        <ele>1649.6</ele>
        <time>2021-12-19T11:42:49Z</time>
      </trkpt>
      <trkpt lat="45.34159" lon="5.72034">
        <ele>1649.6</ele>
        <time>2021-12-19T11:42:50Z</time>
      </trkpt>
      <trkpt lat="45.34159" lon="5.72035">
        <ele>1649.6</ele>
        <time>2021-12-19T11:42:51Z</time>
      </trkpt>
      <trkpt lat="45.34159" lon="5.72035">
        <ele>1649.6</ele>
        <time>2021-12-19T11:42:52Z</time>
      </trkpt>
      <trkpt lat="45.34159" lon="5.72035">
        <ele>1649.7</ele>
        <time>2021-12-19T11:42:53Z</time>
      </trkpt>
      <trkpt lat="45.34159" lon="5.72035">
        <ele>1649.7</ele>
        <time>2021-12-19T11:42:54Z</time>
      </trkpt>
      <trkpt lat="45.34159" lon="5.72035">
        <ele>1649.7</ele>
        <time>2021-12-19T11:42:55Z</time>
      </trkpt>
      <trkpt lat="45.34159" lon="5.72035">
        <ele>1649.7</ele>
        <time>2021-12-19T11:42:56Z</time>
      </trkpt>
      <trkpt lat="45.34159" lon="5.72035">
        <ele>1649.7</ele>
        <time>2021-12-19T11:42:57Z</time>
      </trkpt>
      <trkpt lat="45.34159" lon="5.72035">
        <ele>1649.7</ele>
        <time>2021-12-19T11:42:58Z</time>
      </trkpt>
      <trkpt lat="45.34159" lon="5.72035">
        <ele>1649.7</ele>
        <time>2021-12-19T11:42:59Z</time>
      </trkpt>
      <trkpt lat="45.34159" lon="5.72035">
        <ele>1649.7</ele>
        <time>2021-12-19T11:43:00Z</time>
      </trkpt>
      <trkpt lat="45.34159" lon="5.72035">
        <ele>1649.7</ele>
        <time>2021-12-19T11:43:01Z</time>
      </trkpt>
      <trkpt lat="45.34159" lon="5.72035">
        <ele>1649.7</ele>
        <time>2021-12-19T11:43:02Z</time>
      </trkpt>
      <trkpt lat="45.34159" lon="5.72035">
        <ele>1649.7</ele>
        <time>2021-12-19T11:43:03Z</time>
      </trkpt>
      <trkpt lat="45.34159" lon="5.72035">
        <ele>1649.7</ele>
        <time>2021-12-19T11:43:04Z</time>
      </trkpt>
      <trkpt lat="45.34159" lon="5.72035">
        <ele>1649.7</ele>
        <time>2021-12-19T11:43:05Z</time>
      </trkpt>
      <trkpt lat="45.34159" lon="5.72035">
        <ele>1649.7</ele>
        <time>2021-12-19T11:43:06Z</time>
      </trkpt>
      <trkpt lat="45.34159" lon="5.72035">
        <ele>1649.7</ele>
        <time>2021-12-19T11:43:07Z</time>
      </trkpt>
      <trkpt lat="45.34159" lon="5.72035">
        <ele>1649.7</ele>
        <time>2021-12-19T11:43:08Z</time>
      </trkpt>
      <trkpt lat="45.34159" lon="5.72035">
        <ele>1649.7</ele>
        <time>2021-12-19T11:43:09Z</time>
      </trkpt>
      <trkpt lat="45.34159" lon="5.72035">
        <ele>1649.7</ele>
        <time>2021-12-19T11:43:10Z</time>
      </trkpt>
      <trkpt lat="45.34159" lon="5.72035">
        <ele>1649.7</ele>
        <time>2021-12-19T11:43:11Z</time>
      </trkpt>
      <trkpt lat="45.34159" lon="5.72035">
        <ele>1649.7</ele>
        <time>2021-12-19T11:43:12Z</time>
      </trkpt>
      <trkpt lat="45.34159" lon="5.72035">
        <ele>1649.7</ele>
        <time>2021-12-19T11:43:13Z</time>
      </trkpt>
      <trkpt lat="45.34159" lon="5.72035">
        <ele>1649.7</ele>
        <time>2021-12-19T11:43:14Z</time>
      </trkpt>
      <trkpt lat="45.34159" lon="5.72034">
        <ele>1649.7</ele>
        <time>2021-12-19T11:43:15Z</time>
      </trkpt>
      <trkpt lat="45.3416" lon="5.72035">
        <ele>1649.7</ele>
        <time>2021-12-19T11:43:16Z</time>
      </trkpt>
      <trkpt lat="45.3416" lon="5.72035">
        <ele>1649.8</ele>
        <time>2021-12-19T11:43:17Z</time>
      </trkpt>
      <trkpt lat="45.3416" lon="5.72035">
        <ele>1649.8</ele>
        <time>2021-12-19T11:43:18Z</time>
      </trkpt>
      <trkpt lat="45.3416" lon="5.72035">
        <ele>1649.8</ele>
        <time>2021-12-19T11:43:19Z</time>
      </trkpt>
      <trkpt lat="45.3416" lon="5.72035">
        <ele>1649.8</ele>
        <time>2021-12-19T11:43:20Z</time>
      </trkpt>
      <trkpt lat="45.3416" lon="5.72035">
        <ele>1649.8</ele>
        <time>2021-12-19T11:43:21Z</time>
      </trkpt>
      <trkpt lat="45.3416" lon="5.72035">
        <ele>1649.8</ele>
        <time>2021-12-19T11:43:22Z</time>
      </trkpt>
      <trkpt lat="45.3416" lon="5.72035">
        <ele>1649.8</ele>
        <time>2021-12-19T11:43:23Z</time>
      </trkpt>
      <trkpt lat="45.3416" lon="5.72035">
        <ele>1649.8</ele>
        <time>2021-12-19T11:43:24Z</time>
      </trkpt>
      <trkpt lat="45.3416" lon="5.72035">
        <ele>1649.8</ele>
        <time>2021-12-19T11:43:25Z</time>
      </trkpt>
      <trkpt lat="45.3416" lon="5.72035">
        <ele>1649.8</ele>
        <time>2021-12-19T11:43:26Z</time>
      </trkpt>
      <trkpt lat="45.3416" lon="5.72035">
        <ele>1649.8</ele>
        <time>2021-12-19T11:43:27Z</time>
      </trkpt>
      <trkpt lat="45.3416" lon="5.72035">
        <ele>1649.8</ele>
        <time>2021-12-19T11:43:28Z</time>
      </trkpt>
      <trkpt lat="45.3416" lon="5.72035">
        <ele>1649.8</ele>
        <time>2021-12-19T11:43:29Z</time>
      </trkpt>
      <trkpt lat="45.34159" lon="5.72035">
        <ele>1649.8</ele>
        <time>2021-12-19T11:43:30Z</time>
      </trkpt>
      <trkpt lat="45.34159" lon="5.72035">
        <ele>1649.8</ele>
        <time>2021-12-19T11:43:31Z</time>
      </trkpt>
      <trkpt lat="45.34159" lon="5.72035">
        <ele>1649.8</ele>
        <time>2021-12-19T11:43:32Z</time>
      </trkpt>
      <trkpt lat="45.34159" lon="5.72035">
        <ele>1649.8</ele>
        <time>2021-12-19T11:43:33Z</time>
      </trkpt>
      <trkpt lat="45.34159" lon="5.72035">
        <ele>1649.9</ele>
        <time>2021-12-19T11:43:34Z</time>
      </trkpt>
      <trkpt lat="45.34159" lon="5.72035">
        <ele>1649.9</ele>
        <time>2021-12-19T11:43:35Z</time>
      </trkpt>
      <trkpt lat="45.34159" lon="5.72034">
        <ele>1649.9</ele>
        <time>2021-12-19T11:43:36Z</time>
      </trkpt>
      <trkpt lat="45.34158" lon="5.72034">
        <ele>1649.9</ele>
        <time>2021-12-19T11:43:37Z</time>
      </trkpt>
      <trkpt lat="45.34158" lon="5.72034">
        <ele>1649.9</ele>
        <time>2021-12-19T11:43:38Z</time>
      </trkpt>
      <trkpt lat="45.34157" lon="5.72034">
        <ele>1649.9</ele>
        <time>2021-12-19T11:43:39Z</time>
      </trkpt>
      <trkpt lat="45.34157" lon="5.72034">
        <ele>1649.9</ele>
        <time>2021-12-19T11:43:40Z</time>
      </trkpt>
      <trkpt lat="45.34157" lon="5.72034">
        <ele>1650</ele>
        <time>2021-12-19T11:43:41Z</time>
      </trkpt>
      <trkpt lat="45.34157" lon="5.72034">
        <ele>1650</ele>
        <time>2021-12-19T11:43:42Z</time>
      </trkpt>
      <trkpt lat="45.34157" lon="5.72034">
        <ele>1650</ele>
        <time>2021-12-19T11:43:43Z</time>
      </trkpt>
      <trkpt lat="45.34156" lon="5.72033">
        <ele>1650</ele>
        <time>2021-12-19T11:43:44Z</time>
      </trkpt>
      <trkpt lat="45.34155" lon="5.72033">
        <ele>1650.1</ele>
        <time>2021-12-19T11:43:45Z</time>
      </trkpt>
      <trkpt lat="45.34155" lon="5.72033">
        <ele>1650.1</ele>
        <time>2021-12-19T11:43:46Z</time>
      </trkpt>
      <trkpt lat="45.34154" lon="5.72033">
        <ele>1650.2</ele>
        <time>2021-12-19T11:43:47Z</time>
      </trkpt>
      <trkpt lat="45.34153" lon="5.72033">
        <ele>1650.2</ele>
        <time>2021-12-19T11:43:48Z</time>
      </trkpt>
      <trkpt lat="45.34152" lon="5.72033">
        <ele>1650.3</ele>
        <time>2021-12-19T11:43:49Z</time>
      </trkpt>
      <trkpt lat="45.34151" lon="5.72033">
        <ele>1650.3</ele>
        <time>2021-12-19T11:43:50Z</time>
      </trkpt>
      <trkpt lat="45.3415" lon="5.72033">
        <ele>1650.4</ele>
        <time>2021-12-19T11:43:51Z</time>
      </trkpt>
      <trkpt lat="45.34149" lon="5.72033">
        <ele>1650.4</ele>
        <time>2021-12-19T11:43:52Z</time>
      </trkpt>
      <trkpt lat="45.34149" lon="5.72032">
        <ele>1650.5</ele>
        <time>2021-12-19T11:43:53Z</time>
      </trkpt>
      <trkpt lat="45.34148" lon="5.72032">
        <ele>1650.5</ele>
        <time>2021-12-19T11:43:54Z</time>
      </trkpt>
      <trkpt lat="45.34147" lon="5.72032">
        <ele>1650.6</ele>
        <time>2021-12-19T11:43:55Z</time>
      </trkpt>
      <trkpt lat="45.34147" lon="5.72032">
        <ele>1650.6</ele>
        <time>2021-12-19T11:43:56Z</time>
      </trkpt>
      <trkpt lat="45.34147" lon="5.72032">
        <ele>1650.6</ele>
        <time>2021-12-19T11:43:57Z</time>
      </trkpt>
      <trkpt lat="45.34146" lon="5.72031">
        <ele>1650.6</ele>
        <time>2021-12-19T11:43:58Z</time>
      </trkpt>
      <trkpt lat="45.34146" lon="5.72031">
        <ele>1650.6</ele>
        <time>2021-12-19T11:43:59Z</time>
      </trkpt>
      <trkpt lat="45.34146" lon="5.72031">
        <ele>1650.7</ele>
        <time>2021-12-19T11:44:00Z</time>
      </trkpt>
      <trkpt lat="45.34145" lon="5.7203">
        <ele>1650.7</ele>
        <time>2021-12-19T11:44:01Z</time>
      </trkpt>
      <trkpt lat="45.34145" lon="5.72029">
        <ele>1650.8</ele>
        <time>2021-12-19T11:44:02Z</time>
      </trkpt>
      <trkpt lat="45.34144" lon="5.72029">
        <ele>1650.8</ele>
        <time>2021-12-19T11:44:03Z</time>
      </trkpt>
      <trkpt lat="45.34144" lon="5.72028">
        <ele>1650.8</ele>
        <time>2021-12-19T11:44:04Z</time>
      </trkpt>
      <trkpt lat="45.34144" lon="5.72028">
        <ele>1650.8</ele>
        <time>2021-12-19T11:44:05Z</time>
      </trkpt>
      <trkpt lat="45.34144" lon="5.72028">
        <ele>1650.9</ele>
        <time>2021-12-19T11:44:06Z</time>
      </trkpt>
      <trkpt lat="45.34143" lon="5.72028">
        <ele>1650.9</ele>
        <time>2021-12-19T11:44:07Z</time>
      </trkpt>
      <trkpt lat="45.34143" lon="5.72029">
        <ele>1650.9</ele>
        <time>2021-12-19T11:44:08Z</time>
      </trkpt>
      <trkpt lat="45.34143" lon="5.72028">
        <ele>1650.9</ele>
        <time>2021-12-19T11:44:09Z</time>
      </trkpt>
      <trkpt lat="45.34143" lon="5.72028">
        <ele>1650.9</ele>
        <time>2021-12-19T11:44:10Z</time>
      </trkpt>
      <trkpt lat="45.34142" lon="5.72028">
        <ele>1651</ele>
        <time>2021-12-19T11:44:11Z</time>
      </trkpt>
      <trkpt lat="45.34142" lon="5.72028">
        <ele>1651</ele>
        <time>2021-12-19T11:44:12Z</time>
      </trkpt>
      <trkpt lat="45.34141" lon="5.72028">
        <ele>1651</ele>
        <time>2021-12-19T11:44:13Z</time>
      </trkpt>
      <trkpt lat="45.34141" lon="5.72028">
        <ele>1651.1</ele>
        <time>2021-12-19T11:44:14Z</time>
      </trkpt>
      <trkpt lat="45.3414" lon="5.72027">
        <ele>1651.1</ele>
        <time>2021-12-19T11:44:15Z</time>
      </trkpt>
      <trkpt lat="45.3414" lon="5.72027">
        <ele>1651.1</ele>
        <time>2021-12-19T11:44:16Z</time>
      </trkpt>
      <trkpt lat="45.34139" lon="5.72027">
        <ele>1651.2</ele>
        <time>2021-12-19T11:44:17Z</time>
      </trkpt>
      <trkpt lat="45.34139" lon="5.72027">
        <ele>1651.2</ele>
        <time>2021-12-19T11:44:18Z</time>
      </trkpt>
      <trkpt lat="45.34138" lon="5.72026">
        <ele>1651.2</ele>
        <time>2021-12-19T11:44:19Z</time>
      </trkpt>
      <trkpt lat="45.34137" lon="5.72026">
        <ele>1651.3</ele>
        <time>2021-12-19T11:44:20Z</time>
      </trkpt>
      <trkpt lat="45.34136" lon="5.72025">
        <ele>1651.3</ele>
        <time>2021-12-19T11:44:21Z</time>
      </trkpt>
      <trkpt lat="45.34136" lon="5.72025">
        <ele>1651.4</ele>
        <time>2021-12-19T11:44:22Z</time>
      </trkpt>
      <trkpt lat="45.34135" lon="5.72024">
        <ele>1651.4</ele>
        <time>2021-12-19T11:44:23Z</time>
      </trkpt>
      <trkpt lat="45.34134" lon="5.72024">
        <ele>1651.5</ele>
        <time>2021-12-19T11:44:24Z</time>
      </trkpt>
      <trkpt lat="45.34134" lon="5.72024">
        <ele>1651.5</ele>
        <time>2021-12-19T11:44:25Z</time>
      </trkpt>
      <trkpt lat="45.34133" lon="5.72024">
        <ele>1651.5</ele>
        <time>2021-12-19T11:44:26Z</time>
      </trkpt>
      <trkpt lat="45.34132" lon="5.72024">
        <ele>1651.6</ele>
        <time>2021-12-19T11:44:27Z</time>
      </trkpt>
      <trkpt lat="45.34132" lon="5.72024">
        <ele>1651.6</ele>
        <time>2021-12-19T11:44:28Z</time>
      </trkpt>
      <trkpt lat="45.34131" lon="5.72023">
        <ele>1651.7</ele>
        <time>2021-12-19T11:44:29Z</time>
      </trkpt>
      <trkpt lat="45.34131" lon="5.72023">
        <ele>1651.7</ele>
        <time>2021-12-19T11:44:30Z</time>
      </trkpt>
      <trkpt lat="45.3413" lon="5.72024">
        <ele>1651.7</ele>
        <time>2021-12-19T11:44:31Z</time>
      </trkpt>
      <trkpt lat="45.3413" lon="5.72022">
        <ele>1651.8</ele>
        <time>2021-12-19T11:44:32Z</time>
      </trkpt>
      <trkpt lat="45.3413" lon="5.72022">
        <ele>1651.8</ele>
        <time>2021-12-19T11:44:33Z</time>
      </trkpt>
      <trkpt lat="45.3413" lon="5.72022">
        <ele>1651.8</ele>
        <time>2021-12-19T11:44:34Z</time>
      </trkpt>
      <trkpt lat="45.3413" lon="5.72022">
        <ele>1651.8</ele>
        <time>2021-12-19T11:44:35Z</time>
      </trkpt>
      <trkpt lat="45.3413" lon="5.72022">
        <ele>1651.8</ele>
        <time>2021-12-19T11:44:36Z</time>
      </trkpt>
      <trkpt lat="45.3413" lon="5.72022">
        <ele>1651.8</ele>
        <time>2021-12-19T11:44:37Z</time>
      </trkpt>
      <trkpt lat="45.3413" lon="5.72022">
        <ele>1651.8</ele>
        <time>2021-12-19T11:44:38Z</time>
      </trkpt>
      <trkpt lat="45.3413" lon="5.72022">
        <ele>1651.8</ele>
        <time>2021-12-19T11:44:39Z</time>
      </trkpt>
      <trkpt lat="45.3413" lon="5.72022">
        <ele>1651.8</ele>
        <time>2021-12-19T11:44:40Z</time>
      </trkpt>
      <trkpt lat="45.3413" lon="5.72022">
        <ele>1651.8</ele>
        <time>2021-12-19T11:44:41Z</time>
      </trkpt>
      <trkpt lat="45.3413" lon="5.72022">
        <ele>1651.8</ele>
        <time>2021-12-19T11:44:42Z</time>
      </trkpt>
      <trkpt lat="45.3413" lon="5.72022">
        <ele>1651.8</ele>
        <time>2021-12-19T11:44:43Z</time>
      </trkpt>
      <trkpt lat="45.3413" lon="5.72022">
        <ele>1651.8</ele>
        <time>2021-12-19T11:44:44Z</time>
      </trkpt>
      <trkpt lat="45.3413" lon="5.72022">
        <ele>1651.8</ele>
        <time>2021-12-19T11:44:45Z</time>
      </trkpt>
      <trkpt lat="45.3413" lon="5.72022">
        <ele>1651.8</ele>
        <time>2021-12-19T11:44:46Z</time>
      </trkpt>
      <trkpt lat="45.3413" lon="5.72022">
        <ele>1651.9</ele>
        <time>2021-12-19T11:44:47Z</time>
      </trkpt>
      <trkpt lat="45.3413" lon="5.72022">
        <ele>1651.9</ele>
        <time>2021-12-19T11:44:48Z</time>
      </trkpt>
      <trkpt lat="45.3413" lon="5.72022">
        <ele>1651.9</ele>
        <time>2021-12-19T11:44:49Z</time>
      </trkpt>
      <trkpt lat="45.3413" lon="5.72022">
        <ele>1651.9</ele>
        <time>2021-12-19T11:44:50Z</time>
      </trkpt>
      <trkpt lat="45.3413" lon="5.72022">
        <ele>1651.9</ele>
        <time>2021-12-19T11:44:51Z</time>
      </trkpt>
      <trkpt lat="45.3413" lon="5.72022">
        <ele>1651.9</ele>
        <time>2021-12-19T11:44:52Z</time>
      </trkpt>
      <trkpt lat="45.34129" lon="5.72022">
        <ele>1651.9</ele>
        <time>2021-12-19T11:44:53Z</time>
      </trkpt>
      <trkpt lat="45.34129" lon="5.72021">
        <ele>1651.9</ele>
        <time>2021-12-19T11:44:54Z</time>
      </trkpt>
      <trkpt lat="45.34129" lon="5.72021">
        <ele>1651.9</ele>
        <time>2021-12-19T11:44:55Z</time>
      </trkpt>
      <trkpt lat="45.34129" lon="5.72021">
        <ele>1651.9</ele>
        <time>2021-12-19T11:44:56Z</time>
      </trkpt>
      <trkpt lat="45.34129" lon="5.72021">
        <ele>1652</ele>
        <time>2021-12-19T11:44:57Z</time>
      </trkpt>
      <trkpt lat="45.34129" lon="5.7202">
        <ele>1652</ele>
        <time>2021-12-19T11:44:58Z</time>
      </trkpt>
      <trkpt lat="45.34129" lon="5.7202">
        <ele>1652</ele>
        <time>2021-12-19T11:44:59Z</time>
      </trkpt>
      <trkpt lat="45.34128" lon="5.72019">
        <ele>1652</ele>
        <time>2021-12-19T11:45:00Z</time>
      </trkpt>
      <trkpt lat="45.34128" lon="5.72019">
        <ele>1652.1</ele>
        <time>2021-12-19T11:45:01Z</time>
      </trkpt>
      <trkpt lat="45.34127" lon="5.72018">
        <ele>1652.1</ele>
        <time>2021-12-19T11:45:02Z</time>
      </trkpt>
      <trkpt lat="45.34126" lon="5.72018">
        <ele>1652.2</ele>
        <time>2021-12-19T11:45:03Z</time>
      </trkpt>
      <trkpt lat="45.34125" lon="5.72017">
        <ele>1652.2</ele>
        <time>2021-12-19T11:45:04Z</time>
      </trkpt>
      <trkpt lat="45.34125" lon="5.72017">
        <ele>1652.3</ele>
        <time>2021-12-19T11:45:05Z</time>
      </trkpt>
      <trkpt lat="45.34124" lon="5.72016">
        <ele>1652.3</ele>
        <time>2021-12-19T11:45:06Z</time>
      </trkpt>
      <trkpt lat="45.34123" lon="5.72015">
        <ele>1652.4</ele>
        <time>2021-12-19T11:45:07Z</time>
      </trkpt>
      <trkpt lat="45.34122" lon="5.72015">
        <ele>1652.4</ele>
        <time>2021-12-19T11:45:08Z</time>
      </trkpt>
      <trkpt lat="45.34121" lon="5.72014">
        <ele>1652.5</ele>
        <time>2021-12-19T11:45:09Z</time>
      </trkpt>
      <trkpt lat="45.34121" lon="5.72014">
        <ele>1652.5</ele>
        <time>2021-12-19T11:45:10Z</time>
      </trkpt>
      <trkpt lat="45.3412" lon="5.72013">
        <ele>1652.6</ele>
        <time>2021-12-19T11:45:11Z</time>
      </trkpt>
      <trkpt lat="45.34119" lon="5.72013">
        <ele>1652.6</ele>
        <time>2021-12-19T11:45:12Z</time>
      </trkpt>
      <trkpt lat="45.34118" lon="5.72013">
        <ele>1652.7</ele>
        <time>2021-12-19T11:45:13Z</time>
      </trkpt>
      <trkpt lat="45.34117" lon="5.72013">
        <ele>1652.8</ele>
        <time>2021-12-19T11:45:14Z</time>
      </trkpt>
      <trkpt lat="45.34116" lon="5.72012">
        <ele>1652.8</ele>
        <time>2021-12-19T11:45:15Z</time>
      </trkpt>
      <trkpt lat="45.34115" lon="5.72012">
        <ele>1652.9</ele>
        <time>2021-12-19T11:45:16Z</time>
      </trkpt>
      <trkpt lat="45.34114" lon="5.72011">
        <ele>1652.9</ele>
        <time>2021-12-19T11:45:17Z</time>
      </trkpt>
      <trkpt lat="45.34113" lon="5.72011">
        <ele>1653</ele>
        <time>2021-12-19T11:45:18Z</time>
      </trkpt>
      <trkpt lat="45.34112" lon="5.7201">
        <ele>1653.1</ele>
        <time>2021-12-19T11:45:19Z</time>
      </trkpt>
      <trkpt lat="45.34112" lon="5.72009">
        <ele>1653.1</ele>
        <time>2021-12-19T11:45:20Z</time>
      </trkpt>
      <trkpt lat="45.34111" lon="5.72009">
        <ele>1653.2</ele>
        <time>2021-12-19T11:45:21Z</time>
      </trkpt>
      <trkpt lat="45.3411" lon="5.72008">
        <ele>1653.2</ele>
        <time>2021-12-19T11:45:22Z</time>
      </trkpt>
      <trkpt lat="45.34109" lon="5.72008">
        <ele>1653.3</ele>
        <time>2021-12-19T11:45:23Z</time>
      </trkpt>
      <trkpt lat="45.34108" lon="5.72007">
        <ele>1653.3</ele>
        <time>2021-12-19T11:45:24Z</time>
      </trkpt>
      <trkpt lat="45.34108" lon="5.72006">
        <ele>1653.4</ele>
        <time>2021-12-19T11:45:25Z</time>
      </trkpt>
      <trkpt lat="45.34107" lon="5.72006">
        <ele>1653.4</ele>
        <time>2021-12-19T11:45:26Z</time>
      </trkpt>
      <trkpt lat="45.34107" lon="5.72005">
        <ele>1653.4</ele>
        <time>2021-12-19T11:45:27Z</time>
      </trkpt>
      <trkpt lat="45.34106" lon="5.72004">
        <ele>1653.5</ele>
        <time>2021-12-19T11:45:28Z</time>
      </trkpt>
      <trkpt lat="45.34106" lon="5.72004">
        <ele>1653.5</ele>
        <time>2021-12-19T11:45:29Z</time>
      </trkpt>
      <trkpt lat="45.34105" lon="5.72003">
        <ele>1653.6</ele>
        <time>2021-12-19T11:45:30Z</time>
      </trkpt>
      <trkpt lat="45.34105" lon="5.72003">
        <ele>1653.6</ele>
        <time>2021-12-19T11:45:31Z</time>
      </trkpt>
      <trkpt lat="45.34104" lon="5.72002">
        <ele>1653.6</ele>
        <time>2021-12-19T11:45:32Z</time>
      </trkpt>
      <trkpt lat="45.34103" lon="5.72001">
        <ele>1653.7</ele>
        <time>2021-12-19T11:45:33Z</time>
      </trkpt>
      <trkpt lat="45.34103" lon="5.72">
        <ele>1653.7</ele>
        <time>2021-12-19T11:45:34Z</time>
      </trkpt>
      <trkpt lat="45.34102" lon="5.72">
        <ele>1653.8</ele>
        <time>2021-12-19T11:45:35Z</time>
      </trkpt>
      <trkpt lat="45.34102" lon="5.71999">
        <ele>1653.8</ele>
        <time>2021-12-19T11:45:36Z</time>
      </trkpt>
      <trkpt lat="45.34101" lon="5.71998">
        <ele>1653.9</ele>
        <time>2021-12-19T11:45:37Z</time>
      </trkpt>
      <trkpt lat="45.341" lon="5.71997">
        <ele>1653.9</ele>
        <time>2021-12-19T11:45:38Z</time>
      </trkpt>
      <trkpt lat="45.341" lon="5.71996">
        <ele>1654</ele>
        <time>2021-12-19T11:45:39Z</time>
      </trkpt>
      <trkpt lat="45.34099" lon="5.71995">
        <ele>1654</ele>
        <time>2021-12-19T11:45:40Z</time>
      </trkpt>
      <trkpt lat="45.34099" lon="5.71995">
        <ele>1654.1</ele>
        <time>2021-12-19T11:45:41Z</time>
      </trkpt>
      <trkpt lat="45.34098" lon="5.71994">
        <ele>1654.1</ele>
        <time>2021-12-19T11:45:42Z</time>
      </trkpt>
      <trkpt lat="45.34098" lon="5.71994">
        <ele>1654.2</ele>
        <time>2021-12-19T11:45:43Z</time>
      </trkpt>
      <trkpt lat="45.34097" lon="5.71992">
        <ele>1654.2</ele>
        <time>2021-12-19T11:45:44Z</time>
      </trkpt>
      <trkpt lat="45.34097" lon="5.71992">
        <ele>1654.3</ele>
        <time>2021-12-19T11:45:45Z</time>
      </trkpt>
      <trkpt lat="45.34096" lon="5.71991">
        <ele>1654.3</ele>
        <time>2021-12-19T11:45:46Z</time>
      </trkpt>
      <trkpt lat="45.34096" lon="5.7199">
        <ele>1654.3</ele>
        <time>2021-12-19T11:45:47Z</time>
      </trkpt>
      <trkpt lat="45.34095" lon="5.71989">
        <ele>1654.4</ele>
        <time>2021-12-19T11:45:48Z</time>
      </trkpt>
      <trkpt lat="45.34095" lon="5.71988">
        <ele>1654.4</ele>
        <time>2021-12-19T11:45:49Z</time>
      </trkpt>
      <trkpt lat="45.34095" lon="5.71987">
        <ele>1654.5</ele>
        <time>2021-12-19T11:45:50Z</time>
      </trkpt>
      <trkpt lat="45.34094" lon="5.71986">
        <ele>1654.5</ele>
        <time>2021-12-19T11:45:51Z</time>
      </trkpt>
      <trkpt lat="45.34093" lon="5.71985">
        <ele>1654.6</ele>
        <time>2021-12-19T11:45:52Z</time>
      </trkpt>
      <trkpt lat="45.34093" lon="5.71984">
        <ele>1654.6</ele>
        <time>2021-12-19T11:45:53Z</time>
      </trkpt>
      <trkpt lat="45.34093" lon="5.71983">
        <ele>1654.7</ele>
        <time>2021-12-19T11:45:54Z</time>
      </trkpt>
      <trkpt lat="45.34093" lon="5.71982">
        <ele>1654.7</ele>
        <time>2021-12-19T11:45:55Z</time>
      </trkpt>
      <trkpt lat="45.34092" lon="5.71982">
        <ele>1654.8</ele>
        <time>2021-12-19T11:45:56Z</time>
      </trkpt>
      <trkpt lat="45.34092" lon="5.71981">
        <ele>1654.8</ele>
        <time>2021-12-19T11:45:57Z</time>
      </trkpt>
      <trkpt lat="45.34091" lon="5.7198">
        <ele>1654.8</ele>
        <time>2021-12-19T11:45:58Z</time>
      </trkpt>
      <trkpt lat="45.34091" lon="5.7198">
        <ele>1654.8</ele>
        <time>2021-12-19T11:45:59Z</time>
      </trkpt>
      <trkpt lat="45.34091" lon="5.71979">
        <ele>1654.9</ele>
        <time>2021-12-19T11:46:00Z</time>
      </trkpt>
      <trkpt lat="45.34091" lon="5.71978">
        <ele>1654.9</ele>
        <time>2021-12-19T11:46:01Z</time>
      </trkpt>
      <trkpt lat="45.3409" lon="5.71977">
        <ele>1655</ele>
        <time>2021-12-19T11:46:02Z</time>
      </trkpt>
      <trkpt lat="45.3409" lon="5.71976">
        <ele>1655</ele>
        <time>2021-12-19T11:46:03Z</time>
      </trkpt>
      <trkpt lat="45.3409" lon="5.71975">
        <ele>1655</ele>
        <time>2021-12-19T11:46:04Z</time>
      </trkpt>
      <trkpt lat="45.34089" lon="5.71974">
        <ele>1655.1</ele>
        <time>2021-12-19T11:46:05Z</time>
      </trkpt>
      <trkpt lat="45.34089" lon="5.71973">
        <ele>1655.1</ele>
        <time>2021-12-19T11:46:06Z</time>
      </trkpt>
      <trkpt lat="45.34089" lon="5.71972">
        <ele>1655.2</ele>
        <time>2021-12-19T11:46:07Z</time>
      </trkpt>
      <trkpt lat="45.34089" lon="5.71972">
        <ele>1655.2</ele>
        <time>2021-12-19T11:46:08Z</time>
      </trkpt>
      <trkpt lat="45.34088" lon="5.71971">
        <ele>1655.3</ele>
        <time>2021-12-19T11:46:09Z</time>
      </trkpt>
      <trkpt lat="45.34088" lon="5.7197">
        <ele>1655.3</ele>
        <time>2021-12-19T11:46:10Z</time>
      </trkpt>
      <trkpt lat="45.34088" lon="5.71969">
        <ele>1655.3</ele>
        <time>2021-12-19T11:46:11Z</time>
      </trkpt>
      <trkpt lat="45.34088" lon="5.71968">
        <ele>1655.4</ele>
        <time>2021-12-19T11:46:12Z</time>
      </trkpt>
      <trkpt lat="45.34087" lon="5.71967">
        <ele>1655.4</ele>
        <time>2021-12-19T11:46:13Z</time>
      </trkpt>
      <trkpt lat="45.34087" lon="5.71967">
        <ele>1655.4</ele>
        <time>2021-12-19T11:46:14Z</time>
      </trkpt>
      <trkpt lat="45.34087" lon="5.71966">
        <ele>1655.5</ele>
        <time>2021-12-19T11:46:15Z</time>
      </trkpt>
      <trkpt lat="45.34086" lon="5.71965">
        <ele>1655.5</ele>
        <time>2021-12-19T11:46:16Z</time>
      </trkpt>
      <trkpt lat="45.34086" lon="5.71965">
        <ele>1655.5</ele>
        <time>2021-12-19T11:46:17Z</time>
      </trkpt>
      <trkpt lat="45.34086" lon="5.71964">
        <ele>1655.6</ele>
        <time>2021-12-19T11:46:18Z</time>
      </trkpt>
      <trkpt lat="45.34086" lon="5.71963">
        <ele>1655.6</ele>
        <time>2021-12-19T11:46:19Z</time>
      </trkpt>
      <trkpt lat="45.34085" lon="5.71963">
        <ele>1655.6</ele>
        <time>2021-12-19T11:46:20Z</time>
      </trkpt>
      <trkpt lat="45.34086" lon="5.71962">
        <ele>1655.7</ele>
        <time>2021-12-19T11:46:21Z</time>
      </trkpt>
      <trkpt lat="45.34086" lon="5.71961">
        <ele>1655.7</ele>
        <time>2021-12-19T11:46:22Z</time>
      </trkpt>
      <trkpt lat="45.34086" lon="5.7196">
        <ele>1655.7</ele>
        <time>2021-12-19T11:46:23Z</time>
      </trkpt>
      <trkpt lat="45.34086" lon="5.7196">
        <ele>1655.8</ele>
        <time>2021-12-19T11:46:24Z</time>
      </trkpt>
      <trkpt lat="45.34087" lon="5.7196">
        <ele>1655.8</ele>
        <time>2021-12-19T11:46:25Z</time>
      </trkpt>
      <trkpt lat="45.34088" lon="5.7196">
        <ele>1655.8</ele>
        <time>2021-12-19T11:46:26Z</time>
      </trkpt>
      <trkpt lat="45.34088" lon="5.71961">
        <ele>1655.9</ele>
        <time>2021-12-19T11:46:27Z</time>
      </trkpt>
      <trkpt lat="45.34089" lon="5.71962">
        <ele>1655.9</ele>
        <time>2021-12-19T11:46:28Z</time>
      </trkpt>
      <trkpt lat="45.34089" lon="5.71962">
        <ele>1656</ele>
        <time>2021-12-19T11:46:29Z</time>
      </trkpt>
      <trkpt lat="45.3409" lon="5.71963">
        <ele>1656</ele>
        <time>2021-12-19T11:46:30Z</time>
      </trkpt>
      <trkpt lat="45.34089" lon="5.71963">
        <ele>1656</ele>
        <time>2021-12-19T11:46:31Z</time>
      </trkpt>
      <trkpt lat="45.34089" lon="5.71963">
        <ele>1656</ele>
        <time>2021-12-19T11:46:32Z</time>
      </trkpt>
      <trkpt lat="45.34089" lon="5.71963">
        <ele>1656</ele>
        <time>2021-12-19T11:46:33Z</time>
      </trkpt>
      <trkpt lat="45.34089" lon="5.71963">
        <ele>1656</ele>
        <time>2021-12-19T11:46:34Z</time>
      </trkpt>
      <trkpt lat="45.34089" lon="5.71963">
        <ele>1656</ele>
        <time>2021-12-19T11:46:35Z</time>
      </trkpt>
      <trkpt lat="45.34089" lon="5.71963">
        <ele>1656</ele>
        <time>2021-12-19T11:46:36Z</time>
      </trkpt>
      <trkpt lat="45.34089" lon="5.71963">
        <ele>1656</ele>
        <time>2021-12-19T11:46:37Z</time>
      </trkpt>
      <trkpt lat="45.34089" lon="5.71963">
        <ele>1656</ele>
        <time>2021-12-19T11:46:38Z</time>
      </trkpt>
      <trkpt lat="45.34089" lon="5.71963">
        <ele>1656</ele>
        <time>2021-12-19T11:46:39Z</time>
      </trkpt>
      <trkpt lat="45.34089" lon="5.71963">
        <ele>1656</ele>
        <time>2021-12-19T11:46:40Z</time>
      </trkpt>
      <trkpt lat="45.34089" lon="5.71963">
        <ele>1656</ele>
        <time>2021-12-19T11:46:41Z</time>
      </trkpt>
      <trkpt lat="45.34089" lon="5.71963">
        <ele>1656</ele>
        <time>2021-12-19T11:46:42Z</time>
      </trkpt>
      <trkpt lat="45.34089" lon="5.71963">
        <ele>1656.1</ele>
        <time>2021-12-19T11:46:43Z</time>
      </trkpt>
      <trkpt lat="45.34089" lon="5.71963">
        <ele>1656.1</ele>
        <time>2021-12-19T11:46:44Z</time>
      </trkpt>
      <trkpt lat="45.34089" lon="5.71963">
        <ele>1656.1</ele>
        <time>2021-12-19T11:46:45Z</time>
      </trkpt>
      <trkpt lat="45.34089" lon="5.71963">
        <ele>1656.1</ele>
        <time>2021-12-19T11:46:46Z</time>
      </trkpt>
      <trkpt lat="45.34089" lon="5.71963">
        <ele>1656.1</ele>
        <time>2021-12-19T11:46:47Z</time>
      </trkpt>
      <trkpt lat="45.34089" lon="5.71963">
        <ele>1656.1</ele>
        <time>2021-12-19T11:46:48Z</time>
      </trkpt>
      <trkpt lat="45.34089" lon="5.71963">
        <ele>1656.1</ele>
        <time>2021-12-19T11:46:49Z</time>
      </trkpt>
      <trkpt lat="45.34089" lon="5.71963">
        <ele>1656.1</ele>
        <time>2021-12-19T11:46:50Z</time>
      </trkpt>
      <trkpt lat="45.34089" lon="5.71963">
        <ele>1656.1</ele>
        <time>2021-12-19T11:46:51Z</time>
      </trkpt>
      <trkpt lat="45.34089" lon="5.71963">
        <ele>1656.1</ele>
        <time>2021-12-19T11:46:52Z</time>
      </trkpt>
      <trkpt lat="45.34089" lon="5.71963">
        <ele>1656.1</ele>
        <time>2021-12-19T11:46:53Z</time>
      </trkpt>
      <trkpt lat="45.34089" lon="5.71963">
        <ele>1656.1</ele>
        <time>2021-12-19T11:46:54Z</time>
      </trkpt>
      <trkpt lat="45.34089" lon="5.71963">
        <ele>1656.1</ele>
        <time>2021-12-19T11:46:55Z</time>
      </trkpt>
      <trkpt lat="45.34089" lon="5.71963">
        <ele>1656.1</ele>
        <time>2021-12-19T11:46:56Z</time>
      </trkpt>
      <trkpt lat="45.34089" lon="5.71964">
        <ele>1656.1</ele>
        <time>2021-12-19T11:46:57Z</time>
      </trkpt>
      <trkpt lat="45.34089" lon="5.71964">
        <ele>1656.1</ele>
        <time>2021-12-19T11:46:58Z</time>
      </trkpt>
      <trkpt lat="45.34089" lon="5.71964">
        <ele>1656.1</ele>
        <time>2021-12-19T11:46:59Z</time>
      </trkpt>
      <trkpt lat="45.34089" lon="5.71964">
        <ele>1656.1</ele>
        <time>2021-12-19T11:47:00Z</time>
      </trkpt>
      <trkpt lat="45.34089" lon="5.71964">
        <ele>1656.2</ele>
        <time>2021-12-19T11:47:01Z</time>
      </trkpt>
      <trkpt lat="45.34089" lon="5.71963">
        <ele>1656.2</ele>
        <time>2021-12-19T11:47:02Z</time>
      </trkpt>
      <trkpt lat="45.34089" lon="5.71963">
        <ele>1656.2</ele>
        <time>2021-12-19T11:47:03Z</time>
      </trkpt>
      <trkpt lat="45.34089" lon="5.71963">
        <ele>1656.2</ele>
        <time>2021-12-19T11:47:04Z</time>
      </trkpt>
      <trkpt lat="45.34089" lon="5.71963">
        <ele>1656.2</ele>
        <time>2021-12-19T11:47:05Z</time>
      </trkpt>
      <trkpt lat="45.34088" lon="5.71963">
        <ele>1656.2</ele>
        <time>2021-12-19T11:47:06Z</time>
      </trkpt>
      <trkpt lat="45.34088" lon="5.71963">
        <ele>1656.3</ele>
        <time>2021-12-19T11:47:07Z</time>
      </trkpt>
      <trkpt lat="45.34088" lon="5.71963">
        <ele>1656.3</ele>
        <time>2021-12-19T11:47:08Z</time>
      </trkpt>
      <trkpt lat="45.34088" lon="5.71963">
        <ele>1656.3</ele>
        <time>2021-12-19T11:47:09Z</time>
      </trkpt>
      <trkpt lat="45.34087" lon="5.71963">
        <ele>1656.3</ele>
        <time>2021-12-19T11:47:10Z</time>
      </trkpt>
      <trkpt lat="45.34087" lon="5.71963">
        <ele>1656.3</ele>
        <time>2021-12-19T11:47:11Z</time>
      </trkpt>
      <trkpt lat="45.34087" lon="5.71963">
        <ele>1656.3</ele>
        <time>2021-12-19T11:47:12Z</time>
      </trkpt>
      <trkpt lat="45.34087" lon="5.71963">
        <ele>1656.3</ele>
        <time>2021-12-19T11:47:13Z</time>
      </trkpt>
      <trkpt lat="45.34087" lon="5.71963">
        <ele>1656.3</ele>
        <time>2021-12-19T11:47:14Z</time>
      </trkpt>
      <trkpt lat="45.34087" lon="5.71962">
        <ele>1656.3</ele>
        <time>2021-12-19T11:47:15Z</time>
      </trkpt>
      <trkpt lat="45.34087" lon="5.71962">
        <ele>1656.3</ele>
        <time>2021-12-19T11:47:16Z</time>
      </trkpt>
      <trkpt lat="45.34087" lon="5.71963">
        <ele>1656.4</ele>
        <time>2021-12-19T11:47:17Z</time>
      </trkpt>
      <trkpt lat="45.34087" lon="5.71963">
        <ele>1656.4</ele>
        <time>2021-12-19T11:47:18Z</time>
      </trkpt>
      <trkpt lat="45.34087" lon="5.71963">
        <ele>1656.4</ele>
        <time>2021-12-19T11:47:19Z</time>
      </trkpt>
      <trkpt lat="45.34087" lon="5.71963">
        <ele>1656.4</ele>
        <time>2021-12-19T11:47:20Z</time>
      </trkpt>
      <trkpt lat="45.34087" lon="5.71963">
        <ele>1656.4</ele>
        <time>2021-12-19T11:47:21Z</time>
      </trkpt>
      <trkpt lat="45.34087" lon="5.71963">
        <ele>1656.4</ele>
        <time>2021-12-19T11:47:22Z</time>
      </trkpt>
      <trkpt lat="45.34087" lon="5.71963">
        <ele>1656.4</ele>
        <time>2021-12-19T11:47:23Z</time>
      </trkpt>
      <trkpt lat="45.34087" lon="5.71963">
        <ele>1656.4</ele>
        <time>2021-12-19T11:47:24Z</time>
      </trkpt>
      <trkpt lat="45.34087" lon="5.71963">
        <ele>1656.4</ele>
        <time>2021-12-19T11:47:25Z</time>
      </trkpt>
      <trkpt lat="45.34088" lon="5.71962">
        <ele>1656.4</ele>
        <time>2021-12-19T11:47:26Z</time>
      </trkpt>
      <trkpt lat="45.34087" lon="5.71963">
        <ele>1656.4</ele>
        <time>2021-12-19T11:47:27Z</time>
      </trkpt>
      <trkpt lat="45.34087" lon="5.71963">
        <ele>1656.5</ele>
        <time>2021-12-19T11:47:28Z</time>
      </trkpt>
      <trkpt lat="45.34087" lon="5.71963">
        <ele>1656.5</ele>
        <time>2021-12-19T11:47:29Z</time>
      </trkpt>
      <trkpt lat="45.34087" lon="5.71963">
        <ele>1656.5</ele>
        <time>2021-12-19T11:47:30Z</time>
      </trkpt>
      <trkpt lat="45.34088" lon="5.71963">
        <ele>1656.5</ele>
        <time>2021-12-19T11:47:31Z</time>
      </trkpt>
      <trkpt lat="45.34087" lon="5.71963">
        <ele>1656.5</ele>
        <time>2021-12-19T11:47:32Z</time>
      </trkpt>
      <trkpt lat="45.34087" lon="5.71963">
        <ele>1656.5</ele>
        <time>2021-12-19T11:47:33Z</time>
      </trkpt>
      <trkpt lat="45.34087" lon="5.71963">
        <ele>1656.5</ele>
        <time>2021-12-19T11:47:34Z</time>
      </trkpt>
      <trkpt lat="45.34087" lon="5.71962">
        <ele>1656.5</ele>
        <time>2021-12-19T11:47:35Z</time>
      </trkpt>
      <trkpt lat="45.34087" lon="5.71962">
        <ele>1656.6</ele>
        <time>2021-12-19T11:47:36Z</time>
      </trkpt>
      <trkpt lat="45.34087" lon="5.71962">
        <ele>1656.6</ele>
        <time>2021-12-19T11:47:37Z</time>
      </trkpt>
      <trkpt lat="45.34087" lon="5.71962">
        <ele>1656.6</ele>
        <time>2021-12-19T11:47:38Z</time>
      </trkpt>
      <trkpt lat="45.34087" lon="5.71962">
        <ele>1656.6</ele>
        <time>2021-12-19T11:47:39Z</time>
      </trkpt>
      <trkpt lat="45.34088" lon="5.71963">
        <ele>1656.6</ele>
        <time>2021-12-19T11:47:40Z</time>
      </trkpt>
      <trkpt lat="45.34088" lon="5.71963">
        <ele>1656.6</ele>
        <time>2021-12-19T11:47:41Z</time>
      </trkpt>
      <trkpt lat="45.34088" lon="5.71963">
        <ele>1656.7</ele>
        <time>2021-12-19T11:47:42Z</time>
      </trkpt>
      <trkpt lat="45.34088" lon="5.71963">
        <ele>1656.7</ele>
        <time>2021-12-19T11:47:43Z</time>
      </trkpt>
      <trkpt lat="45.34089" lon="5.71963">
        <ele>1656.7</ele>
        <time>2021-12-19T11:47:44Z</time>
      </trkpt>
      <trkpt lat="45.34089" lon="5.71964">
        <ele>1656.7</ele>
        <time>2021-12-19T11:47:45Z</time>
      </trkpt>
      <trkpt lat="45.34089" lon="5.71964">
        <ele>1656.7</ele>
        <time>2021-12-19T11:47:46Z</time>
      </trkpt>
      <trkpt lat="45.34089" lon="5.71964">
        <ele>1656.8</ele>
        <time>2021-12-19T11:47:47Z</time>
      </trkpt>
      <trkpt lat="45.34089" lon="5.71964">
        <ele>1656.8</ele>
        <time>2021-12-19T11:47:48Z</time>
      </trkpt>
      <trkpt lat="45.3409" lon="5.71964">
        <ele>1656.8</ele>
        <time>2021-12-19T11:47:49Z</time>
      </trkpt>
      <trkpt lat="45.3409" lon="5.71964">
        <ele>1656.8</ele>
        <time>2021-12-19T11:47:50Z</time>
      </trkpt>
      <trkpt lat="45.3409" lon="5.71964">
        <ele>1656.8</ele>
        <time>2021-12-19T11:47:51Z</time>
      </trkpt>
      <trkpt lat="45.3409" lon="5.71964">
        <ele>1656.8</ele>
        <time>2021-12-19T11:47:52Z</time>
      </trkpt>
      <trkpt lat="45.3409" lon="5.71964">
        <ele>1656.8</ele>
        <time>2021-12-19T11:47:53Z</time>
      </trkpt>
      <trkpt lat="45.3409" lon="5.71964">
        <ele>1656.8</ele>
        <time>2021-12-19T11:47:54Z</time>
      </trkpt>
      <trkpt lat="45.3409" lon="5.71964">
        <ele>1656.8</ele>
        <time>2021-12-19T11:47:55Z</time>
      </trkpt>
      <trkpt lat="45.3409" lon="5.71964">
        <ele>1656.8</ele>
        <time>2021-12-19T11:47:56Z</time>
      </trkpt>
      <trkpt lat="45.3409" lon="5.71964">
        <ele>1656.8</ele>
        <time>2021-12-19T11:47:57Z</time>
      </trkpt>
      <trkpt lat="45.34089" lon="5.71964">
        <ele>1656.9</ele>
        <time>2021-12-19T11:47:58Z</time>
      </trkpt>
      <trkpt lat="45.34089" lon="5.71964">
        <ele>1656.9</ele>
        <time>2021-12-19T11:47:59Z</time>
      </trkpt>
      <trkpt lat="45.34089" lon="5.71964">
        <ele>1656.9</ele>
        <time>2021-12-19T11:48:00Z</time>
      </trkpt>
      <trkpt lat="45.3409" lon="5.71964">
        <ele>1656.9</ele>
        <time>2021-12-19T11:48:01Z</time>
      </trkpt>
      <trkpt lat="45.3409" lon="5.71964">
        <ele>1656.9</ele>
        <time>2021-12-19T11:48:02Z</time>
      </trkpt>
      <trkpt lat="45.3409" lon="5.71964">
        <ele>1656.9</ele>
        <time>2021-12-19T11:48:03Z</time>
      </trkpt>
      <trkpt lat="45.3409" lon="5.71964">
        <ele>1656.9</ele>
        <time>2021-12-19T11:48:04Z</time>
      </trkpt>
      <trkpt lat="45.3409" lon="5.71964">
        <ele>1656.9</ele>
        <time>2021-12-19T11:48:05Z</time>
      </trkpt>
      <trkpt lat="45.34089" lon="5.71965">
        <ele>1656.9</ele>
        <time>2021-12-19T11:48:06Z</time>
      </trkpt>
      <trkpt lat="45.34089" lon="5.71965">
        <ele>1657</ele>
        <time>2021-12-19T11:48:07Z</time>
      </trkpt>
      <trkpt lat="45.34089" lon="5.71965">
        <ele>1657</ele>
        <time>2021-12-19T11:48:08Z</time>
      </trkpt>
      <trkpt lat="45.34089" lon="5.71966">
        <ele>1657</ele>
        <time>2021-12-19T11:48:09Z</time>
      </trkpt>
      <trkpt lat="45.34089" lon="5.71966">
        <ele>1657</ele>
        <time>2021-12-19T11:48:10Z</time>
      </trkpt>
      <trkpt lat="45.34089" lon="5.71966">
        <ele>1657</ele>
        <time>2021-12-19T11:48:11Z</time>
      </trkpt>
      <trkpt lat="45.34089" lon="5.71966">
        <ele>1657</ele>
        <time>2021-12-19T11:48:12Z</time>
      </trkpt>
      <trkpt lat="45.34089" lon="5.71966">
        <ele>1657</ele>
        <time>2021-12-19T11:48:13Z</time>
      </trkpt>
      <trkpt lat="45.34089" lon="5.71966">
        <ele>1657</ele>
        <time>2021-12-19T11:48:14Z</time>
      </trkpt>
      <trkpt lat="45.34089" lon="5.71966">
        <ele>1657</ele>
        <time>2021-12-19T11:48:15Z</time>
      </trkpt>
      <trkpt lat="45.34089" lon="5.71966">
        <ele>1657</ele>
        <time>2021-12-19T11:48:16Z</time>
      </trkpt>
      <trkpt lat="45.34089" lon="5.71966">
        <ele>1657</ele>
        <time>2021-12-19T11:48:17Z</time>
      </trkpt>
      <trkpt lat="45.34089" lon="5.71966">
        <ele>1657</ele>
        <time>2021-12-19T11:48:18Z</time>
      </trkpt>
      <trkpt lat="45.34089" lon="5.71966">
        <ele>1657</ele>
        <time>2021-12-19T11:48:19Z</time>
      </trkpt>
      <trkpt lat="45.34089" lon="5.71965">
        <ele>1657</ele>
        <time>2021-12-19T11:48:20Z</time>
      </trkpt>
      <trkpt lat="45.34089" lon="5.71965">
        <ele>1657.1</ele>
        <time>2021-12-19T11:48:21Z</time>
      </trkpt>
      <trkpt lat="45.34089" lon="5.71965">
        <ele>1657.1</ele>
        <time>2021-12-19T11:48:22Z</time>
      </trkpt>
      <trkpt lat="45.34089" lon="5.71965">
        <ele>1657.1</ele>
        <time>2021-12-19T11:48:23Z</time>
      </trkpt>
      <trkpt lat="45.34088" lon="5.71965">
        <ele>1657.1</ele>
        <time>2021-12-19T11:48:24Z</time>
      </trkpt>
      <trkpt lat="45.34088" lon="5.71965">
        <ele>1657.1</ele>
        <time>2021-12-19T11:48:25Z</time>
      </trkpt>
      <trkpt lat="45.34089" lon="5.71965">
        <ele>1657.1</ele>
        <time>2021-12-19T11:48:26Z</time>
      </trkpt>
      <trkpt lat="45.34089" lon="5.71965">
        <ele>1657.1</ele>
        <time>2021-12-19T11:48:27Z</time>
      </trkpt>
      <trkpt lat="45.34089" lon="5.71965">
        <ele>1657.1</ele>
        <time>2021-12-19T11:48:28Z</time>
      </trkpt>
      <trkpt lat="45.34088" lon="5.71965">
        <ele>1657.1</ele>
        <time>2021-12-19T11:48:29Z</time>
      </trkpt>
      <trkpt lat="45.34088" lon="5.71965">
        <ele>1657.1</ele>
        <time>2021-12-19T11:48:30Z</time>
      </trkpt>
      <trkpt lat="45.34088" lon="5.71965">
        <ele>1657.1</ele>
        <time>2021-12-19T11:48:31Z</time>
      </trkpt>
      <trkpt lat="45.34088" lon="5.71965">
        <ele>1657.1</ele>
        <time>2021-12-19T11:48:32Z</time>
      </trkpt>
      <trkpt lat="45.34088" lon="5.71965">
        <ele>1657.1</ele>
        <time>2021-12-19T11:48:33Z</time>
      </trkpt>
      <trkpt lat="45.34088" lon="5.71965">
        <ele>1657.1</ele>
        <time>2021-12-19T11:48:34Z</time>
      </trkpt>
      <trkpt lat="45.34088" lon="5.71965">
        <ele>1657.1</ele>
        <time>2021-12-19T11:48:35Z</time>
      </trkpt>
      <trkpt lat="45.34088" lon="5.71965">
        <ele>1657.1</ele>
        <time>2021-12-19T11:48:36Z</time>
      </trkpt>
      <trkpt lat="45.34089" lon="5.71965">
        <ele>1657.1</ele>
        <time>2021-12-19T11:48:37Z</time>
      </trkpt>
      <trkpt lat="45.34089" lon="5.71965">
        <ele>1657.1</ele>
        <time>2021-12-19T11:48:38Z</time>
      </trkpt>
      <trkpt lat="45.34089" lon="5.71965">
        <ele>1657.1</ele>
        <time>2021-12-19T11:48:39Z</time>
      </trkpt>
      <trkpt lat="45.34089" lon="5.71965">
        <ele>1657.1</ele>
        <time>2021-12-19T11:48:40Z</time>
      </trkpt>
      <trkpt lat="45.34088" lon="5.71965">
        <ele>1657.2</ele>
        <time>2021-12-19T11:48:41Z</time>
      </trkpt>
      <trkpt lat="45.34088" lon="5.71965">
        <ele>1657.2</ele>
        <time>2021-12-19T11:48:42Z</time>
      </trkpt>
      <trkpt lat="45.34088" lon="5.71965">
        <ele>1657.2</ele>
        <time>2021-12-19T11:48:43Z</time>
      </trkpt>
      <trkpt lat="45.34088" lon="5.71965">
        <ele>1657.2</ele>
        <time>2021-12-19T11:48:44Z</time>
      </trkpt>
      <trkpt lat="45.34088" lon="5.71965">
        <ele>1657.2</ele>
        <time>2021-12-19T11:48:45Z</time>
      </trkpt>
      <trkpt lat="45.34089" lon="5.71965">
        <ele>1657.2</ele>
        <time>2021-12-19T11:48:46Z</time>
      </trkpt>
      <trkpt lat="45.34088" lon="5.71965">
        <ele>1657.2</ele>
        <time>2021-12-19T11:48:47Z</time>
      </trkpt>
      <trkpt lat="45.34088" lon="5.71965">
        <ele>1657.2</ele>
        <time>2021-12-19T11:48:48Z</time>
      </trkpt>
      <trkpt lat="45.34088" lon="5.71965">
        <ele>1657.2</ele>
        <time>2021-12-19T11:48:49Z</time>
      </trkpt>
      <trkpt lat="45.34088" lon="5.71965">
        <ele>1657.2</ele>
        <time>2021-12-19T11:48:50Z</time>
      </trkpt>
      <trkpt lat="45.34088" lon="5.71964">
        <ele>1657.2</ele>
        <time>2021-12-19T11:48:51Z</time>
      </trkpt>
      <trkpt lat="45.34088" lon="5.71964">
        <ele>1657.2</ele>
        <time>2021-12-19T11:48:52Z</time>
      </trkpt>
      <trkpt lat="45.34088" lon="5.71964">
        <ele>1657.3</ele>
        <time>2021-12-19T11:48:53Z</time>
      </trkpt>
      <trkpt lat="45.34088" lon="5.71964">
        <ele>1657.3</ele>
        <time>2021-12-19T11:48:54Z</time>
      </trkpt>
      <trkpt lat="45.34088" lon="5.71964">
        <ele>1657.3</ele>
        <time>2021-12-19T11:48:55Z</time>
      </trkpt>
      <trkpt lat="45.34088" lon="5.71964">
        <ele>1657.3</ele>
        <time>2021-12-19T11:48:56Z</time>
      </trkpt>
      <trkpt lat="45.34088" lon="5.71964">
        <ele>1657.3</ele>
        <time>2021-12-19T11:48:57Z</time>
      </trkpt>
      <trkpt lat="45.34088" lon="5.71964">
        <ele>1657.3</ele>
        <time>2021-12-19T11:48:58Z</time>
      </trkpt>
      <trkpt lat="45.34088" lon="5.71964">
        <ele>1657.3</ele>
        <time>2021-12-19T11:48:59Z</time>
      </trkpt>
      <trkpt lat="45.34089" lon="5.71964">
        <ele>1657.3</ele>
        <time>2021-12-19T11:49:00Z</time>
      </trkpt>
      <trkpt lat="45.34088" lon="5.71964">
        <ele>1657.4</ele>
        <time>2021-12-19T11:49:01Z</time>
      </trkpt>
      <trkpt lat="45.34089" lon="5.71964">
        <ele>1657.4</ele>
        <time>2021-12-19T11:49:02Z</time>
      </trkpt>
      <trkpt lat="45.34088" lon="5.71964">
        <ele>1657.4</ele>
        <time>2021-12-19T11:49:03Z</time>
      </trkpt>
      <trkpt lat="45.34088" lon="5.71964">
        <ele>1657.4</ele>
        <time>2021-12-19T11:49:04Z</time>
      </trkpt>
      <trkpt lat="45.34089" lon="5.71964">
        <ele>1657.4</ele>
        <time>2021-12-19T11:49:05Z</time>
      </trkpt>
      <trkpt lat="45.34089" lon="5.71964">
        <ele>1657.4</ele>
        <time>2021-12-19T11:49:06Z</time>
      </trkpt>
      <trkpt lat="45.34088" lon="5.71964">
        <ele>1657.4</ele>
        <time>2021-12-19T11:49:07Z</time>
      </trkpt>
      <trkpt lat="45.34088" lon="5.71964">
        <ele>1657.4</ele>
        <time>2021-12-19T11:49:08Z</time>
      </trkpt>
      <trkpt lat="45.34089" lon="5.71964">
        <ele>1657.4</ele>
        <time>2021-12-19T11:49:09Z</time>
      </trkpt>
      <trkpt lat="45.34089" lon="5.71964">
        <ele>1657.5</ele>
        <time>2021-12-19T11:49:10Z</time>
      </trkpt>
      <trkpt lat="45.34089" lon="5.71964">
        <ele>1657.5</ele>
        <time>2021-12-19T11:49:11Z</time>
      </trkpt>
      <trkpt lat="45.34089" lon="5.71964">
        <ele>1657.5</ele>
        <time>2021-12-19T11:49:12Z</time>
      </trkpt>
      <trkpt lat="45.34089" lon="5.71964">
        <ele>1657.5</ele>
        <time>2021-12-19T11:49:13Z</time>
      </trkpt>
      <trkpt lat="45.34089" lon="5.71964">
        <ele>1657.5</ele>
        <time>2021-12-19T11:49:14Z</time>
      </trkpt>
      <trkpt lat="45.34089" lon="5.71964">
        <ele>1657.5</ele>
        <time>2021-12-19T11:49:15Z</time>
      </trkpt>
      <trkpt lat="45.34089" lon="5.71965">
        <ele>1657.5</ele>
        <time>2021-12-19T11:49:16Z</time>
      </trkpt>
      <trkpt lat="45.34089" lon="5.71965">
        <ele>1657.5</ele>
        <time>2021-12-19T11:49:17Z</time>
      </trkpt>
      <trkpt lat="45.34089" lon="5.71965">
        <ele>1657.5</ele>
        <time>2021-12-19T11:49:18Z</time>
      </trkpt>
      <trkpt lat="45.34089" lon="5.71965">
        <ele>1657.5</ele>
        <time>2021-12-19T11:49:19Z</time>
      </trkpt>
      <trkpt lat="45.34089" lon="5.71965">
        <ele>1657.5</ele>
        <time>2021-12-19T11:49:20Z</time>
      </trkpt>
      <trkpt lat="45.34089" lon="5.71965">
        <ele>1657.5</ele>
        <time>2021-12-19T11:49:21Z</time>
      </trkpt>
      <trkpt lat="45.34089" lon="5.71965">
        <ele>1657.6</ele>
        <time>2021-12-19T11:49:22Z</time>
      </trkpt>
      <trkpt lat="45.34089" lon="5.71965">
        <ele>1657.6</ele>
        <time>2021-12-19T11:49:23Z</time>
      </trkpt>
      <trkpt lat="45.34089" lon="5.71965">
        <ele>1657.6</ele>
        <time>2021-12-19T11:49:24Z</time>
      </trkpt>
      <trkpt lat="45.34089" lon="5.71965">
        <ele>1657.6</ele>
        <time>2021-12-19T11:49:25Z</time>
      </trkpt>
      <trkpt lat="45.34089" lon="5.71965">
        <ele>1657.6</ele>
        <time>2021-12-19T11:49:26Z</time>
      </trkpt>
      <trkpt lat="45.34089" lon="5.71965">
        <ele>1657.6</ele>
        <time>2021-12-19T11:49:27Z</time>
      </trkpt>
      <trkpt lat="45.34089" lon="5.71966">
        <ele>1657.6</ele>
        <time>2021-12-19T11:49:28Z</time>
      </trkpt>
      <trkpt lat="45.34089" lon="5.71966">
        <ele>1657.6</ele>
        <time>2021-12-19T11:49:29Z</time>
      </trkpt>
      <trkpt lat="45.3409" lon="5.71966">
        <ele>1657.6</ele>
        <time>2021-12-19T11:49:30Z</time>
      </trkpt>
      <trkpt lat="45.3409" lon="5.71965">
        <ele>1657.6</ele>
        <time>2021-12-19T11:49:31Z</time>
      </trkpt>
      <trkpt lat="45.3409" lon="5.71965">
        <ele>1657.7</ele>
        <time>2021-12-19T11:49:32Z</time>
      </trkpt>
      <trkpt lat="45.3409" lon="5.71965">
        <ele>1657.7</ele>
        <time>2021-12-19T11:49:33Z</time>
      </trkpt>
      <trkpt lat="45.3409" lon="5.71965">
        <ele>1657.7</ele>
        <time>2021-12-19T11:49:34Z</time>
      </trkpt>
      <trkpt lat="45.3409" lon="5.71965">
        <ele>1657.7</ele>
        <time>2021-12-19T11:49:35Z</time>
      </trkpt>
      <trkpt lat="45.3409" lon="5.71964">
        <ele>1657.7</ele>
        <time>2021-12-19T11:49:36Z</time>
      </trkpt>
      <trkpt lat="45.3409" lon="5.71964">
        <ele>1657.7</ele>
        <time>2021-12-19T11:49:37Z</time>
      </trkpt>
      <trkpt lat="45.34089" lon="5.71964">
        <ele>1657.8</ele>
        <time>2021-12-19T11:49:38Z</time>
      </trkpt>
      <trkpt lat="45.34089" lon="5.71964">
        <ele>1657.8</ele>
        <time>2021-12-19T11:49:39Z</time>
      </trkpt>
      <trkpt lat="45.34089" lon="5.71964">
        <ele>1657.8</ele>
        <time>2021-12-19T11:49:40Z</time>
      </trkpt>
      <trkpt lat="45.34089" lon="5.71965">
        <ele>1657.8</ele>
        <time>2021-12-19T11:49:41Z</time>
      </trkpt>
      <trkpt lat="45.34088" lon="5.71965">
        <ele>1657.8</ele>
        <time>2021-12-19T11:49:42Z</time>
      </trkpt>
      <trkpt lat="45.34088" lon="5.71965">
        <ele>1657.8</ele>
        <time>2021-12-19T11:49:43Z</time>
      </trkpt>
      <trkpt lat="45.34088" lon="5.71965">
        <ele>1657.9</ele>
        <time>2021-12-19T11:49:44Z</time>
      </trkpt>
      <trkpt lat="45.34088" lon="5.71965">
        <ele>1657.9</ele>
        <time>2021-12-19T11:49:45Z</time>
      </trkpt>
      <trkpt lat="45.34088" lon="5.71965">
        <ele>1657.9</ele>
        <time>2021-12-19T11:49:46Z</time>
      </trkpt>
      <trkpt lat="45.34088" lon="5.71965">
        <ele>1657.9</ele>
        <time>2021-12-19T11:49:47Z</time>
      </trkpt>
      <trkpt lat="45.34088" lon="5.71965">
        <ele>1657.9</ele>
        <time>2021-12-19T11:49:48Z</time>
      </trkpt>
      <trkpt lat="45.34088" lon="5.71965">
        <ele>1657.9</ele>
        <time>2021-12-19T11:49:49Z</time>
      </trkpt>
      <trkpt lat="45.34088" lon="5.71965">
        <ele>1657.9</ele>
        <time>2021-12-19T11:49:50Z</time>
      </trkpt>
      <trkpt lat="45.34087" lon="5.71965">
        <ele>1657.9</ele>
        <time>2021-12-19T11:49:51Z</time>
      </trkpt>
      <trkpt lat="45.34087" lon="5.71965">
        <ele>1657.9</ele>
        <time>2021-12-19T11:49:52Z</time>
      </trkpt>
      <trkpt lat="45.34087" lon="5.71965">
        <ele>1657.9</ele>
        <time>2021-12-19T11:49:53Z</time>
      </trkpt>
      <trkpt lat="45.34087" lon="5.71965">
        <ele>1657.9</ele>
        <time>2021-12-19T11:49:54Z</time>
      </trkpt>
      <trkpt lat="45.34087" lon="5.71965">
        <ele>1658</ele>
        <time>2021-12-19T11:49:55Z</time>
      </trkpt>
      <trkpt lat="45.34087" lon="5.71965">
        <ele>1658</ele>
        <time>2021-12-19T11:49:56Z</time>
      </trkpt>
      <trkpt lat="45.34087" lon="5.71965">
        <ele>1658</ele>
        <time>2021-12-19T11:49:57Z</time>
      </trkpt>
      <trkpt lat="45.34088" lon="5.71965">
        <ele>1658</ele>
        <time>2021-12-19T11:49:58Z</time>
      </trkpt>
      <trkpt lat="45.34088" lon="5.71965">
        <ele>1658</ele>
        <time>2021-12-19T11:49:59Z</time>
      </trkpt>
      <trkpt lat="45.34088" lon="5.71965">
        <ele>1658</ele>
        <time>2021-12-19T11:50:00Z</time>
      </trkpt>
      <trkpt lat="45.34088" lon="5.71965">
        <ele>1658</ele>
        <time>2021-12-19T11:50:01Z</time>
      </trkpt>
      <trkpt lat="45.34088" lon="5.71965">
        <ele>1658</ele>
        <time>2021-12-19T11:50:02Z</time>
      </trkpt>
      <trkpt lat="45.34088" lon="5.71965">
        <ele>1658</ele>
        <time>2021-12-19T11:50:03Z</time>
      </trkpt>
      <trkpt lat="45.34088" lon="5.71965">
        <ele>1658</ele>
        <time>2021-12-19T11:50:04Z</time>
      </trkpt>
      <trkpt lat="45.34088" lon="5.71965">
        <ele>1658</ele>
        <time>2021-12-19T11:50:05Z</time>
      </trkpt>
      <trkpt lat="45.34088" lon="5.71965">
        <ele>1658</ele>
        <time>2021-12-19T11:50:06Z</time>
      </trkpt>
      <trkpt lat="45.34088" lon="5.71965">
        <ele>1658</ele>
        <time>2021-12-19T11:50:07Z</time>
      </trkpt>
      <trkpt lat="45.34088" lon="5.71965">
        <ele>1658</ele>
        <time>2021-12-19T11:50:08Z</time>
      </trkpt>
      <trkpt lat="45.34088" lon="5.71965">
        <ele>1658</ele>
        <time>2021-12-19T11:50:09Z</time>
      </trkpt>
      <trkpt lat="45.34088" lon="5.71965">
        <ele>1658</ele>
        <time>2021-12-19T11:50:10Z</time>
      </trkpt>
      <trkpt lat="45.34088" lon="5.71965">
        <ele>1658</ele>
        <time>2021-12-19T11:50:11Z</time>
      </trkpt>
      <trkpt lat="45.34088" lon="5.71965">
        <ele>1658</ele>
        <time>2021-12-19T11:50:12Z</time>
      </trkpt>
      <trkpt lat="45.34088" lon="5.71965">
        <ele>1658</ele>
        <time>2021-12-19T11:50:13Z</time>
      </trkpt>
      <trkpt lat="45.34088" lon="5.71965">
        <ele>1658</ele>
        <time>2021-12-19T11:50:14Z</time>
      </trkpt>
      <trkpt lat="45.34088" lon="5.71965">
        <ele>1658</ele>
        <time>2021-12-19T11:50:15Z</time>
      </trkpt>
      <trkpt lat="45.34088" lon="5.71965">
        <ele>1658</ele>
        <time>2021-12-19T11:50:16Z</time>
      </trkpt>
      <trkpt lat="45.34087" lon="5.71965">
        <ele>1658</ele>
        <time>2021-12-19T11:50:17Z</time>
      </trkpt>
      <trkpt lat="45.34088" lon="5.71965">
        <ele>1658.1</ele>
        <time>2021-12-19T11:50:18Z</time>
      </trkpt>
      <trkpt lat="45.34088" lon="5.71965">
        <ele>1658.1</ele>
        <time>2021-12-19T11:50:19Z</time>
      </trkpt>
      <trkpt lat="45.34088" lon="5.71965">
        <ele>1658.1</ele>
        <time>2021-12-19T11:50:20Z</time>
      </trkpt>
      <trkpt lat="45.34088" lon="5.71965">
        <ele>1658.1</ele>
        <time>2021-12-19T11:50:21Z</time>
      </trkpt>
      <trkpt lat="45.34087" lon="5.71965">
        <ele>1658.1</ele>
        <time>2021-12-19T11:50:22Z</time>
      </trkpt>
      <trkpt lat="45.34087" lon="5.71966">
        <ele>1658.1</ele>
        <time>2021-12-19T11:50:23Z</time>
      </trkpt>
      <trkpt lat="45.34087" lon="5.71966">
        <ele>1658.1</ele>
        <time>2021-12-19T11:50:24Z</time>
      </trkpt>
      <trkpt lat="45.34088" lon="5.71966">
        <ele>1658.1</ele>
        <time>2021-12-19T11:50:25Z</time>
      </trkpt>
      <trkpt lat="45.34088" lon="5.71966">
        <ele>1658.2</ele>
        <time>2021-12-19T11:50:26Z</time>
      </trkpt>
      <trkpt lat="45.34089" lon="5.71966">
        <ele>1658.2</ele>
        <time>2021-12-19T11:50:27Z</time>
      </trkpt>
      <trkpt lat="45.3409" lon="5.71966">
        <ele>1658.3</ele>
        <time>2021-12-19T11:50:28Z</time>
      </trkpt>
      <trkpt lat="45.3409" lon="5.71966">
        <ele>1658.3</ele>
        <time>2021-12-19T11:50:29Z</time>
      </trkpt>
      <trkpt lat="45.34091" lon="5.71966">
        <ele>1658.3</ele>
        <time>2021-12-19T11:50:30Z</time>
      </trkpt>
      <trkpt lat="45.34091" lon="5.71966">
        <ele>1658.3</ele>
        <time>2021-12-19T11:50:31Z</time>
      </trkpt>
      <trkpt lat="45.34091" lon="5.71966">
        <ele>1658.3</ele>
        <time>2021-12-19T11:50:32Z</time>
      </trkpt>
      <trkpt lat="45.34091" lon="5.71966">
        <ele>1658.3</ele>
        <time>2021-12-19T11:50:33Z</time>
      </trkpt>
      <trkpt lat="45.34091" lon="5.71966">
        <ele>1658.3</ele>
        <time>2021-12-19T11:50:34Z</time>
      </trkpt>
      <trkpt lat="45.34091" lon="5.71966">
        <ele>1658.3</ele>
        <time>2021-12-19T11:50:35Z</time>
      </trkpt>
      <trkpt lat="45.34091" lon="5.71966">
        <ele>1658.4</ele>
        <time>2021-12-19T11:50:36Z</time>
      </trkpt>
      <trkpt lat="45.34091" lon="5.71967">
        <ele>1658.4</ele>
        <time>2021-12-19T11:50:37Z</time>
      </trkpt>
      <trkpt lat="45.34091" lon="5.71967">
        <ele>1658.4</ele>
        <time>2021-12-19T11:50:38Z</time>
      </trkpt>
      <trkpt lat="45.34091" lon="5.71967">
        <ele>1658.4</ele>
        <time>2021-12-19T11:50:39Z</time>
      </trkpt>
      <trkpt lat="45.34091" lon="5.71967">
        <ele>1658.4</ele>
        <time>2021-12-19T11:50:40Z</time>
      </trkpt>
      <trkpt lat="45.34091" lon="5.71967">
        <ele>1658.4</ele>
        <time>2021-12-19T11:50:41Z</time>
      </trkpt>
      <trkpt lat="45.34091" lon="5.71967">
        <ele>1658.4</ele>
        <time>2021-12-19T11:50:42Z</time>
      </trkpt>
      <trkpt lat="45.34091" lon="5.71967">
        <ele>1658.4</ele>
        <time>2021-12-19T11:50:43Z</time>
      </trkpt>
      <trkpt lat="45.34091" lon="5.71966">
        <ele>1658.4</ele>
        <time>2021-12-19T11:50:44Z</time>
      </trkpt>
      <trkpt lat="45.34091" lon="5.71966">
        <ele>1658.4</ele>
        <time>2021-12-19T11:50:45Z</time>
      </trkpt>
      <trkpt lat="45.34091" lon="5.71966">
        <ele>1658.4</ele>
        <time>2021-12-19T11:50:46Z</time>
      </trkpt>
      <trkpt lat="45.34091" lon="5.71966">
        <ele>1658.4</ele>
        <time>2021-12-19T11:50:47Z</time>
      </trkpt>
      <trkpt lat="45.3409" lon="5.71966">
        <ele>1658.4</ele>
        <time>2021-12-19T11:50:48Z</time>
      </trkpt>
      <trkpt lat="45.3409" lon="5.71966">
        <ele>1658.5</ele>
        <time>2021-12-19T11:50:49Z</time>
      </trkpt>
      <trkpt lat="45.34089" lon="5.71966">
        <ele>1658.5</ele>
        <time>2021-12-19T11:50:50Z</time>
      </trkpt>
      <trkpt lat="45.34088" lon="5.71966">
        <ele>1658.5</ele>
        <time>2021-12-19T11:50:51Z</time>
      </trkpt>
      <trkpt lat="45.34088" lon="5.71966">
        <ele>1658.6</ele>
        <time>2021-12-19T11:50:52Z</time>
      </trkpt>
      <trkpt lat="45.34088" lon="5.71966">
        <ele>1658.6</ele>
        <time>2021-12-19T11:50:53Z</time>
      </trkpt>
      <trkpt lat="45.34088" lon="5.71966">
        <ele>1658.6</ele>
        <time>2021-12-19T11:50:54Z</time>
      </trkpt>
      <trkpt lat="45.34088" lon="5.71966">
        <ele>1658.6</ele>
        <time>2021-12-19T11:50:55Z</time>
      </trkpt>
      <trkpt lat="45.34088" lon="5.71966">
        <ele>1658.6</ele>
        <time>2021-12-19T11:50:56Z</time>
      </trkpt>
      <trkpt lat="45.34088" lon="5.71966">
        <ele>1658.6</ele>
        <time>2021-12-19T11:50:57Z</time>
      </trkpt>
      <trkpt lat="45.34088" lon="5.71966">
        <ele>1658.6</ele>
        <time>2021-12-19T11:50:58Z</time>
      </trkpt>
      <trkpt lat="45.34088" lon="5.71966">
        <ele>1658.6</ele>
        <time>2021-12-19T11:50:59Z</time>
      </trkpt>
      <trkpt lat="45.34088" lon="5.71966">
        <ele>1658.6</ele>
        <time>2021-12-19T11:51:00Z</time>
      </trkpt>
      <trkpt lat="45.34088" lon="5.71966">
        <ele>1658.6</ele>
        <time>2021-12-19T11:51:01Z</time>
      </trkpt>
      <trkpt lat="45.34088" lon="5.71966">
        <ele>1658.6</ele>
        <time>2021-12-19T11:51:02Z</time>
      </trkpt>
      <trkpt lat="45.34088" lon="5.71966">
        <ele>1658.6</ele>
        <time>2021-12-19T11:51:03Z</time>
      </trkpt>
      <trkpt lat="45.34088" lon="5.71966">
        <ele>1658.7</ele>
        <time>2021-12-19T11:51:04Z</time>
      </trkpt>
      <trkpt lat="45.34088" lon="5.71966">
        <ele>1658.7</ele>
        <time>2021-12-19T11:51:05Z</time>
      </trkpt>
      <trkpt lat="45.34088" lon="5.71966">
        <ele>1658.7</ele>
        <time>2021-12-19T11:51:06Z</time>
      </trkpt>
      <trkpt lat="45.34089" lon="5.71966">
        <ele>1658.7</ele>
        <time>2021-12-19T11:51:07Z</time>
      </trkpt>
      <trkpt lat="45.34089" lon="5.71966">
        <ele>1658.7</ele>
        <time>2021-12-19T11:51:08Z</time>
      </trkpt>
      <trkpt lat="45.34089" lon="5.71966">
        <ele>1658.7</ele>
        <time>2021-12-19T11:51:09Z</time>
      </trkpt>
      <trkpt lat="45.34088" lon="5.71966">
        <ele>1658.7</ele>
        <time>2021-12-19T11:51:10Z</time>
      </trkpt>
      <trkpt lat="45.34088" lon="5.71966">
        <ele>1658.7</ele>
        <time>2021-12-19T11:51:11Z</time>
      </trkpt>
      <trkpt lat="45.34088" lon="5.71966">
        <ele>1658.7</ele>
        <time>2021-12-19T11:51:12Z</time>
      </trkpt>
      <trkpt lat="45.34088" lon="5.71966">
        <ele>1658.7</ele>
        <time>2021-12-19T11:51:13Z</time>
      </trkpt>
      <trkpt lat="45.34088" lon="5.71966">
        <ele>1658.7</ele>
        <time>2021-12-19T11:51:14Z</time>
      </trkpt>
      <trkpt lat="45.34089" lon="5.71966">
        <ele>1658.7</ele>
        <time>2021-12-19T11:51:15Z</time>
      </trkpt>
      <trkpt lat="45.34089" lon="5.71966">
        <ele>1658.7</ele>
        <time>2021-12-19T11:51:16Z</time>
      </trkpt>
      <trkpt lat="45.34089" lon="5.71966">
        <ele>1658.7</ele>
        <time>2021-12-19T11:51:17Z</time>
      </trkpt>
      <trkpt lat="45.34089" lon="5.71966">
        <ele>1658.7</ele>
        <time>2021-12-19T11:51:18Z</time>
      </trkpt>
      <trkpt lat="45.34089" lon="5.71966">
        <ele>1658.7</ele>
        <time>2021-12-19T11:51:19Z</time>
      </trkpt>
      <trkpt lat="45.34089" lon="5.71966">
        <ele>1658.7</ele>
        <time>2021-12-19T11:51:20Z</time>
      </trkpt>
      <trkpt lat="45.34089" lon="5.71966">
        <ele>1658.7</ele>
        <time>2021-12-19T11:51:21Z</time>
      </trkpt>
      <trkpt lat="45.34089" lon="5.71966">
        <ele>1658.7</ele>
        <time>2021-12-19T11:51:22Z</time>
      </trkpt>
      <trkpt lat="45.34089" lon="5.71966">
        <ele>1658.7</ele>
        <time>2021-12-19T11:51:23Z</time>
      </trkpt>
      <trkpt lat="45.34088" lon="5.71965">
        <ele>1658.7</ele>
        <time>2021-12-19T11:51:24Z</time>
      </trkpt>
      <trkpt lat="45.34088" lon="5.71965">
        <ele>1658.7</ele>
        <time>2021-12-19T11:51:25Z</time>
      </trkpt>
      <trkpt lat="45.34088" lon="5.71965">
        <ele>1658.7</ele>
        <time>2021-12-19T11:51:26Z</time>
      </trkpt>
      <trkpt lat="45.34088" lon="5.71964">
        <ele>1658.8</ele>
        <time>2021-12-19T11:51:27Z</time>
      </trkpt>
      <trkpt lat="45.34089" lon="5.71963">
        <ele>1658.8</ele>
        <time>2021-12-19T11:51:28Z</time>
      </trkpt>
      <trkpt lat="45.34089" lon="5.71962">
        <ele>1658.8</ele>
        <time>2021-12-19T11:51:29Z</time>
      </trkpt>
      <trkpt lat="45.34088" lon="5.71962">
        <ele>1658.9</ele>
        <time>2021-12-19T11:51:30Z</time>
      </trkpt>
      <trkpt lat="45.34088" lon="5.71961">
        <ele>1658.9</ele>
        <time>2021-12-19T11:51:31Z</time>
      </trkpt>
      <trkpt lat="45.34088" lon="5.71961">
        <ele>1658.9</ele>
        <time>2021-12-19T11:51:32Z</time>
      </trkpt>
      <trkpt lat="45.34088" lon="5.71961">
        <ele>1658.9</ele>
        <time>2021-12-19T11:51:33Z</time>
      </trkpt>
      <trkpt lat="45.34088" lon="5.71961">
        <ele>1658.9</ele>
        <time>2021-12-19T11:51:34Z</time>
      </trkpt>
      <trkpt lat="45.34088" lon="5.71961">
        <ele>1658.9</ele>
        <time>2021-12-19T11:51:35Z</time>
      </trkpt>
      <trkpt lat="45.34089" lon="5.71961">
        <ele>1658.9</ele>
        <time>2021-12-19T11:51:36Z</time>
      </trkpt>
      <trkpt lat="45.34089" lon="5.71961">
        <ele>1658.9</ele>
        <time>2021-12-19T11:51:37Z</time>
      </trkpt>
      <trkpt lat="45.34089" lon="5.71961">
        <ele>1658.9</ele>
        <time>2021-12-19T11:51:38Z</time>
      </trkpt>
      <trkpt lat="45.34089" lon="5.71961">
        <ele>1659</ele>
        <time>2021-12-19T11:51:39Z</time>
      </trkpt>
      <trkpt lat="45.34088" lon="5.71962">
        <ele>1659</ele>
        <time>2021-12-19T11:51:40Z</time>
      </trkpt>
      <trkpt lat="45.34088" lon="5.71962">
        <ele>1659</ele>
        <time>2021-12-19T11:51:41Z</time>
      </trkpt>
      <trkpt lat="45.34088" lon="5.71962">
        <ele>1659</ele>
        <time>2021-12-19T11:51:42Z</time>
      </trkpt>
      <trkpt lat="45.34088" lon="5.71963">
        <ele>1659</ele>
        <time>2021-12-19T11:51:43Z</time>
      </trkpt>
      <trkpt lat="45.34088" lon="5.71964">
        <ele>1659.1</ele>
        <time>2021-12-19T11:51:44Z</time>
      </trkpt>
      <trkpt lat="45.34088" lon="5.71965">
        <ele>1659.1</ele>
        <time>2021-12-19T11:51:45Z</time>
      </trkpt>
      <trkpt lat="45.34088" lon="5.71965">
        <ele>1659.1</ele>
        <time>2021-12-19T11:51:46Z</time>
      </trkpt>
      <trkpt lat="45.34088" lon="5.71966">
        <ele>1659.1</ele>
        <time>2021-12-19T11:51:47Z</time>
      </trkpt>
      <trkpt lat="45.34088" lon="5.71966">
        <ele>1659.2</ele>
        <time>2021-12-19T11:51:48Z</time>
      </trkpt>
      <trkpt lat="45.34088" lon="5.71966">
        <ele>1659.2</ele>
        <time>2021-12-19T11:51:49Z</time>
      </trkpt>
      <trkpt lat="45.34088" lon="5.71966">
        <ele>1659.2</ele>
        <time>2021-12-19T11:51:50Z</time>
      </trkpt>
      <trkpt lat="45.34088" lon="5.71966">
        <ele>1659.2</ele>
        <time>2021-12-19T11:51:51Z</time>
      </trkpt>
      <trkpt lat="45.34088" lon="5.71966">
        <ele>1659.2</ele>
        <time>2021-12-19T11:51:52Z</time>
      </trkpt>
      <trkpt lat="45.34088" lon="5.71966">
        <ele>1659.2</ele>
        <time>2021-12-19T11:51:53Z</time>
      </trkpt>
      <trkpt lat="45.34088" lon="5.71966">
        <ele>1659.2</ele>
        <time>2021-12-19T11:51:54Z</time>
      </trkpt>
      <trkpt lat="45.34088" lon="5.71966">
        <ele>1659.2</ele>
        <time>2021-12-19T11:51:55Z</time>
      </trkpt>
      <trkpt lat="45.34088" lon="5.71966">
        <ele>1659.2</ele>
        <time>2021-12-19T11:51:56Z</time>
      </trkpt>
      <trkpt lat="45.34088" lon="5.71966">
        <ele>1659.2</ele>
        <time>2021-12-19T11:51:57Z</time>
      </trkpt>
      <trkpt lat="45.34088" lon="5.71966">
        <ele>1659.2</ele>
        <time>2021-12-19T11:51:58Z</time>
      </trkpt>
      <trkpt lat="45.34088" lon="5.71966">
        <ele>1659.2</ele>
        <time>2021-12-19T11:51:59Z</time>
      </trkpt>
      <trkpt lat="45.34088" lon="5.71966">
        <ele>1659.2</ele>
        <time>2021-12-19T11:52:00Z</time>
      </trkpt>
      <trkpt lat="45.34088" lon="5.71966">
        <ele>1659.2</ele>
        <time>2021-12-19T11:52:01Z</time>
      </trkpt>
      <trkpt lat="45.34088" lon="5.71966">
        <ele>1659.2</ele>
        <time>2021-12-19T11:52:02Z</time>
      </trkpt>
      <trkpt lat="45.34088" lon="5.71966">
        <ele>1659.2</ele>
        <time>2021-12-19T11:52:03Z</time>
      </trkpt>
      <trkpt lat="45.34088" lon="5.71966">
        <ele>1659.2</ele>
        <time>2021-12-19T11:52:04Z</time>
      </trkpt>
      <trkpt lat="45.34088" lon="5.71966">
        <ele>1659.2</ele>
        <time>2021-12-19T11:52:05Z</time>
      </trkpt>
      <trkpt lat="45.34087" lon="5.71966">
        <ele>1659.2</ele>
        <time>2021-12-19T11:52:06Z</time>
      </trkpt>
      <trkpt lat="45.34087" lon="5.71966">
        <ele>1659.3</ele>
        <time>2021-12-19T11:52:07Z</time>
      </trkpt>
      <trkpt lat="45.34087" lon="5.71967">
        <ele>1659.3</ele>
        <time>2021-12-19T11:52:08Z</time>
      </trkpt>
      <trkpt lat="45.34087" lon="5.71967">
        <ele>1659.3</ele>
        <time>2021-12-19T11:52:09Z</time>
      </trkpt>
      <trkpt lat="45.34087" lon="5.71967">
        <ele>1659.3</ele>
        <time>2021-12-19T11:52:10Z</time>
      </trkpt>
      <trkpt lat="45.34088" lon="5.71967">
        <ele>1659.3</ele>
        <time>2021-12-19T11:52:11Z</time>
      </trkpt>
      <trkpt lat="45.34088" lon="5.71967">
        <ele>1659.3</ele>
        <time>2021-12-19T11:52:12Z</time>
      </trkpt>
      <trkpt lat="45.34088" lon="5.71967">
        <ele>1659.3</ele>
        <time>2021-12-19T11:52:13Z</time>
      </trkpt>
      <trkpt lat="45.34088" lon="5.71967">
        <ele>1659.3</ele>
        <time>2021-12-19T11:52:14Z</time>
      </trkpt>
      <trkpt lat="45.34087" lon="5.71967">
        <ele>1659.3</ele>
        <time>2021-12-19T11:52:15Z</time>
      </trkpt>
      <trkpt lat="45.34088" lon="5.71967">
        <ele>1659.3</ele>
        <time>2021-12-19T11:52:16Z</time>
      </trkpt>
      <trkpt lat="45.34088" lon="5.71967">
        <ele>1659.3</ele>
        <time>2021-12-19T11:52:17Z</time>
      </trkpt>
      <trkpt lat="45.34088" lon="5.71967">
        <ele>1659.3</ele>
        <time>2021-12-19T11:52:18Z</time>
      </trkpt>
      <trkpt lat="45.34088" lon="5.71967">
        <ele>1659.3</ele>
        <time>2021-12-19T11:52:19Z</time>
      </trkpt>
      <trkpt lat="45.34087" lon="5.71967">
        <ele>1659.3</ele>
        <time>2021-12-19T11:52:20Z</time>
      </trkpt>
      <trkpt lat="45.34087" lon="5.71967">
        <ele>1659.3</ele>
        <time>2021-12-19T11:52:21Z</time>
      </trkpt>
      <trkpt lat="45.34088" lon="5.71967">
        <ele>1659.3</ele>
        <time>2021-12-19T11:52:22Z</time>
      </trkpt>
      <trkpt lat="45.34088" lon="5.71967">
        <ele>1659.3</ele>
        <time>2021-12-19T11:52:23Z</time>
      </trkpt>
      <trkpt lat="45.34087" lon="5.71967">
        <ele>1659.3</ele>
        <time>2021-12-19T11:52:24Z</time>
      </trkpt>
      <trkpt lat="45.34087" lon="5.71967">
        <ele>1659.3</ele>
        <time>2021-12-19T11:52:25Z</time>
      </trkpt>
      <trkpt lat="45.34087" lon="5.71967">
        <ele>1659.3</ele>
        <time>2021-12-19T11:52:26Z</time>
      </trkpt>
      <trkpt lat="45.34088" lon="5.71967">
        <ele>1659.3</ele>
        <time>2021-12-19T11:52:27Z</time>
      </trkpt>
      <trkpt lat="45.34088" lon="5.71967">
        <ele>1659.3</ele>
        <time>2021-12-19T11:52:28Z</time>
      </trkpt>
      <trkpt lat="45.34088" lon="5.71967">
        <ele>1659.3</ele>
        <time>2021-12-19T11:52:29Z</time>
      </trkpt>
      <trkpt lat="45.34088" lon="5.71967">
        <ele>1659.3</ele>
        <time>2021-12-19T11:52:30Z</time>
      </trkpt>
      <trkpt lat="45.34087" lon="5.71967">
        <ele>1659.3</ele>
        <time>2021-12-19T11:52:31Z</time>
      </trkpt>
      <trkpt lat="45.34087" lon="5.71967">
        <ele>1659.3</ele>
        <time>2021-12-19T11:52:32Z</time>
      </trkpt>
      <trkpt lat="45.34087" lon="5.71967">
        <ele>1659.3</ele>
        <time>2021-12-19T11:52:33Z</time>
      </trkpt>
      <trkpt lat="45.34088" lon="5.71967">
        <ele>1659.3</ele>
        <time>2021-12-19T11:52:34Z</time>
      </trkpt>
      <trkpt lat="45.34088" lon="5.71966">
        <ele>1659.3</ele>
        <time>2021-12-19T11:52:35Z</time>
      </trkpt>
      <trkpt lat="45.34088" lon="5.71966">
        <ele>1659.3</ele>
        <time>2021-12-19T11:52:36Z</time>
      </trkpt>
      <trkpt lat="45.34088" lon="5.71966">
        <ele>1659.3</ele>
        <time>2021-12-19T11:52:37Z</time>
      </trkpt>
      <trkpt lat="45.34088" lon="5.71966">
        <ele>1659.3</ele>
        <time>2021-12-19T11:52:38Z</time>
      </trkpt>
      <trkpt lat="45.34088" lon="5.71966">
        <ele>1659.3</ele>
        <time>2021-12-19T11:52:39Z</time>
      </trkpt>
      <trkpt lat="45.34088" lon="5.71966">
        <ele>1659.3</ele>
        <time>2021-12-19T11:52:40Z</time>
      </trkpt>
      <trkpt lat="45.34088" lon="5.71966">
        <ele>1659.3</ele>
        <time>2021-12-19T11:52:41Z</time>
      </trkpt>
      <trkpt lat="45.34088" lon="5.71966">
        <ele>1659.3</ele>
        <time>2021-12-19T11:52:42Z</time>
      </trkpt>
      <trkpt lat="45.34088" lon="5.71966">
        <ele>1659.3</ele>
        <time>2021-12-19T11:52:43Z</time>
      </trkpt>
      <trkpt lat="45.34088" lon="5.71966">
        <ele>1659.3</ele>
        <time>2021-12-19T11:52:44Z</time>
      </trkpt>
      <trkpt lat="45.34088" lon="5.71966">
        <ele>1659.3</ele>
        <time>2021-12-19T11:52:45Z</time>
      </trkpt>
      <trkpt lat="45.34088" lon="5.71966">
        <ele>1659.3</ele>
        <time>2021-12-19T11:52:46Z</time>
      </trkpt>
      <trkpt lat="45.34088" lon="5.71966">
        <ele>1659.3</ele>
        <time>2021-12-19T11:52:47Z</time>
      </trkpt>
      <trkpt lat="45.34088" lon="5.71966">
        <ele>1659.3</ele>
        <time>2021-12-19T11:52:48Z</time>
      </trkpt>
      <trkpt lat="45.34088" lon="5.71966">
        <ele>1659.3</ele>
        <time>2021-12-19T11:52:49Z</time>
      </trkpt>
      <trkpt lat="45.34088" lon="5.71966">
        <ele>1659.3</ele>
        <time>2021-12-19T11:52:50Z</time>
      </trkpt>
      <trkpt lat="45.34088" lon="5.71966">
        <ele>1659.3</ele>
        <time>2021-12-19T11:52:51Z</time>
      </trkpt>
      <trkpt lat="45.34088" lon="5.71966">
        <ele>1659.3</ele>
        <time>2021-12-19T11:52:52Z</time>
      </trkpt>
      <trkpt lat="45.34088" lon="5.71966">
        <ele>1659.3</ele>
        <time>2021-12-19T11:52:53Z</time>
      </trkpt>
      <trkpt lat="45.34088" lon="5.71966">
        <ele>1659.3</ele>
        <time>2021-12-19T11:52:54Z</time>
      </trkpt>
      <trkpt lat="45.34088" lon="5.71966">
        <ele>1659.3</ele>
        <time>2021-12-19T11:52:55Z</time>
      </trkpt>
      <trkpt lat="45.34088" lon="5.71966">
        <ele>1659.3</ele>
        <time>2021-12-19T11:52:56Z</time>
      </trkpt>
      <trkpt lat="45.34088" lon="5.71966">
        <ele>1659.3</ele>
        <time>2021-12-19T11:52:57Z</time>
      </trkpt>
      <trkpt lat="45.34088" lon="5.71966">
        <ele>1659.3</ele>
        <time>2021-12-19T11:52:58Z</time>
      </trkpt>
      <trkpt lat="45.34088" lon="5.71966">
        <ele>1659.3</ele>
        <time>2021-12-19T11:52:59Z</time>
      </trkpt>
      <trkpt lat="45.34088" lon="5.71966">
        <ele>1659.3</ele>
        <time>2021-12-19T11:53:00Z</time>
      </trkpt>
      <trkpt lat="45.34088" lon="5.71966">
        <ele>1659.3</ele>
        <time>2021-12-19T11:53:01Z</time>
      </trkpt>
      <trkpt lat="45.34088" lon="5.71966">
        <ele>1659.3</ele>
        <time>2021-12-19T11:53:02Z</time>
      </trkpt>
      <trkpt lat="45.34088" lon="5.71966">
        <ele>1659.3</ele>
        <time>2021-12-19T11:53:03Z</time>
      </trkpt>
      <trkpt lat="45.34088" lon="5.71966">
        <ele>1659.3</ele>
        <time>2021-12-19T11:53:04Z</time>
      </trkpt>
      <trkpt lat="45.34088" lon="5.71966">
        <ele>1659.3</ele>
        <time>2021-12-19T11:53:05Z</time>
      </trkpt>
      <trkpt lat="45.34088" lon="5.71966">
        <ele>1659.3</ele>
        <time>2021-12-19T11:53:06Z</time>
      </trkpt>
      <trkpt lat="45.34088" lon="5.71966">
        <ele>1659.3</ele>
        <time>2021-12-19T11:53:07Z</time>
      </trkpt>
      <trkpt lat="45.34088" lon="5.71966">
        <ele>1659.3</ele>
        <time>2021-12-19T11:53:08Z</time>
      </trkpt>
      <trkpt lat="45.34088" lon="5.71966">
        <ele>1659.3</ele>
        <time>2021-12-19T11:53:09Z</time>
      </trkpt>
      <trkpt lat="45.34088" lon="5.71966">
        <ele>1659.3</ele>
        <time>2021-12-19T11:53:10Z</time>
      </trkpt>
      <trkpt lat="45.34088" lon="5.71966">
        <ele>1659.2</ele>
        <time>2021-12-19T11:53:11Z</time>
      </trkpt>
      <trkpt lat="45.34088" lon="5.71966">
        <ele>1659.2</ele>
        <time>2021-12-19T11:53:12Z</time>
      </trkpt>
      <trkpt lat="45.34088" lon="5.71966">
        <ele>1659.2</ele>
        <time>2021-12-19T11:53:13Z</time>
      </trkpt>
      <trkpt lat="45.34089" lon="5.71967">
        <ele>1659.2</ele>
        <time>2021-12-19T11:53:14Z</time>
      </trkpt>
      <trkpt lat="45.34088" lon="5.71967">
        <ele>1659.2</ele>
        <time>2021-12-19T11:53:15Z</time>
      </trkpt>
      <trkpt lat="45.34088" lon="5.71966">
        <ele>1659.2</ele>
        <time>2021-12-19T11:53:16Z</time>
      </trkpt>
      <trkpt lat="45.34088" lon="5.71967">
        <ele>1659.2</ele>
        <time>2021-12-19T11:53:17Z</time>
      </trkpt>
      <trkpt lat="45.34088" lon="5.71967">
        <ele>1659.2</ele>
        <time>2021-12-19T11:53:18Z</time>
      </trkpt>
      <trkpt lat="45.34089" lon="5.71967">
        <ele>1659.2</ele>
        <time>2021-12-19T11:53:19Z</time>
      </trkpt>
      <trkpt lat="45.34089" lon="5.71967">
        <ele>1659.2</ele>
        <time>2021-12-19T11:53:20Z</time>
      </trkpt>
      <trkpt lat="45.34088" lon="5.71967">
        <ele>1659.2</ele>
        <time>2021-12-19T11:53:21Z</time>
      </trkpt>
      <trkpt lat="45.34088" lon="5.71967">
        <ele>1659.2</ele>
        <time>2021-12-19T11:53:22Z</time>
      </trkpt>
      <trkpt lat="45.34089" lon="5.71967">
        <ele>1659.1</ele>
        <time>2021-12-19T11:53:23Z</time>
      </trkpt>
      <trkpt lat="45.34089" lon="5.71967">
        <ele>1659.1</ele>
        <time>2021-12-19T11:53:24Z</time>
      </trkpt>
      <trkpt lat="45.34089" lon="5.71967">
        <ele>1659.1</ele>
        <time>2021-12-19T11:53:25Z</time>
      </trkpt>
      <trkpt lat="45.34089" lon="5.71967">
        <ele>1659.1</ele>
        <time>2021-12-19T11:53:26Z</time>
      </trkpt>
      <trkpt lat="45.34089" lon="5.71967">
        <ele>1659.1</ele>
        <time>2021-12-19T11:53:27Z</time>
      </trkpt>
      <trkpt lat="45.34089" lon="5.71967">
        <ele>1659.1</ele>
        <time>2021-12-19T11:53:28Z</time>
      </trkpt>
      <trkpt lat="45.34089" lon="5.71967">
        <ele>1659.1</ele>
        <time>2021-12-19T11:53:29Z</time>
      </trkpt>
      <trkpt lat="45.34089" lon="5.71967">
        <ele>1659.1</ele>
        <time>2021-12-19T11:53:30Z</time>
      </trkpt>
      <trkpt lat="45.34089" lon="5.71967">
        <ele>1659.1</ele>
        <time>2021-12-19T11:53:31Z</time>
      </trkpt>
      <trkpt lat="45.34089" lon="5.71967">
        <ele>1659.1</ele>
        <time>2021-12-19T11:53:32Z</time>
      </trkpt>
      <trkpt lat="45.34089" lon="5.71967">
        <ele>1659.1</ele>
        <time>2021-12-19T11:53:33Z</time>
      </trkpt>
      <trkpt lat="45.34089" lon="5.71967">
        <ele>1659.1</ele>
        <time>2021-12-19T11:53:34Z</time>
      </trkpt>
      <trkpt lat="45.34089" lon="5.71967">
        <ele>1659.1</ele>
        <time>2021-12-19T11:53:35Z</time>
      </trkpt>
      <trkpt lat="45.34089" lon="5.71967">
        <ele>1659.1</ele>
        <time>2021-12-19T11:53:36Z</time>
      </trkpt>
      <trkpt lat="45.34089" lon="5.71967">
        <ele>1659.1</ele>
        <time>2021-12-19T11:53:37Z</time>
      </trkpt>
      <trkpt lat="45.34089" lon="5.71967">
        <ele>1659.1</ele>
        <time>2021-12-19T11:53:38Z</time>
      </trkpt>
      <trkpt lat="45.34089" lon="5.71967">
        <ele>1659.1</ele>
        <time>2021-12-19T11:53:39Z</time>
      </trkpt>
      <trkpt lat="45.34089" lon="5.71967">
        <ele>1659.1</ele>
        <time>2021-12-19T11:53:40Z</time>
      </trkpt>
      <trkpt lat="45.34089" lon="5.71967">
        <ele>1659.1</ele>
        <time>2021-12-19T11:53:41Z</time>
      </trkpt>
      <trkpt lat="45.34089" lon="5.71967">
        <ele>1659.1</ele>
        <time>2021-12-19T11:53:42Z</time>
      </trkpt>
      <trkpt lat="45.34089" lon="5.71967">
        <ele>1659.1</ele>
        <time>2021-12-19T11:53:43Z</time>
      </trkpt>
      <trkpt lat="45.34089" lon="5.71967">
        <ele>1659.1</ele>
        <time>2021-12-19T11:53:44Z</time>
      </trkpt>
      <trkpt lat="45.34089" lon="5.71967">
        <ele>1659.1</ele>
        <time>2021-12-19T11:53:45Z</time>
      </trkpt>
      <trkpt lat="45.34089" lon="5.71967">
        <ele>1659.1</ele>
        <time>2021-12-19T11:53:46Z</time>
      </trkpt>
      <trkpt lat="45.34089" lon="5.71967">
        <ele>1659.1</ele>
        <time>2021-12-19T11:53:47Z</time>
      </trkpt>
      <trkpt lat="45.34089" lon="5.71968">
        <ele>1659.1</ele>
        <time>2021-12-19T11:53:48Z</time>
      </trkpt>
      <trkpt lat="45.34089" lon="5.71967">
        <ele>1659.1</ele>
        <time>2021-12-19T11:53:49Z</time>
      </trkpt>
      <trkpt lat="45.34089" lon="5.71967">
        <ele>1659.1</ele>
        <time>2021-12-19T11:53:50Z</time>
      </trkpt>
      <trkpt lat="45.34089" lon="5.71967">
        <ele>1659.1</ele>
        <time>2021-12-19T11:53:51Z</time>
      </trkpt>
      <trkpt lat="45.34089" lon="5.71966">
        <ele>1659.1</ele>
        <time>2021-12-19T11:53:52Z</time>
      </trkpt>
      <trkpt lat="45.34088" lon="5.71966">
        <ele>1659.1</ele>
        <time>2021-12-19T11:53:53Z</time>
      </trkpt>
      <trkpt lat="45.34088" lon="5.71966">
        <ele>1659.1</ele>
        <time>2021-12-19T11:53:54Z</time>
      </trkpt>
      <trkpt lat="45.34088" lon="5.71965">
        <ele>1659.1</ele>
        <time>2021-12-19T11:53:55Z</time>
      </trkpt>
      <trkpt lat="45.34088" lon="5.71966">
        <ele>1659</ele>
        <time>2021-12-19T11:53:56Z</time>
      </trkpt>
      <trkpt lat="45.34088" lon="5.71965">
        <ele>1659</ele>
        <time>2021-12-19T11:53:57Z</time>
      </trkpt>
      <trkpt lat="45.34088" lon="5.71965">
        <ele>1659</ele>
        <time>2021-12-19T11:53:58Z</time>
      </trkpt>
      <trkpt lat="45.34087" lon="5.71964">
        <ele>1659</ele>
        <time>2021-12-19T11:53:59Z</time>
      </trkpt>
      <trkpt lat="45.34087" lon="5.71964">
        <ele>1659</ele>
        <time>2021-12-19T11:54:00Z</time>
      </trkpt>
      <trkpt lat="45.34087" lon="5.71964">
        <ele>1659</ele>
        <time>2021-12-19T11:54:01Z</time>
      </trkpt>
      <trkpt lat="45.34088" lon="5.71964">
        <ele>1659</ele>
        <time>2021-12-19T11:54:02Z</time>
      </trkpt>
      <trkpt lat="45.34088" lon="5.71964">
        <ele>1659</ele>
        <time>2021-12-19T11:54:03Z</time>
      </trkpt>
      <trkpt lat="45.34088" lon="5.71964">
        <ele>1659</ele>
        <time>2021-12-19T11:54:04Z</time>
      </trkpt>
      <trkpt lat="45.34088" lon="5.71964">
        <ele>1659</ele>
        <time>2021-12-19T11:54:05Z</time>
      </trkpt>
      <trkpt lat="45.34088" lon="5.71964">
        <ele>1659</ele>
        <time>2021-12-19T11:54:06Z</time>
      </trkpt>
      <trkpt lat="45.34088" lon="5.71964">
        <ele>1659</ele>
        <time>2021-12-19T11:54:07Z</time>
      </trkpt>
      <trkpt lat="45.34088" lon="5.71963">
        <ele>1659</ele>
        <time>2021-12-19T11:54:08Z</time>
      </trkpt>
      <trkpt lat="45.34088" lon="5.71963">
        <ele>1659</ele>
        <time>2021-12-19T11:54:09Z</time>
      </trkpt>
      <trkpt lat="45.34088" lon="5.71963">
        <ele>1659</ele>
        <time>2021-12-19T11:54:10Z</time>
      </trkpt>
      <trkpt lat="45.34088" lon="5.71963">
        <ele>1659</ele>
        <time>2021-12-19T11:54:11Z</time>
      </trkpt>
      <trkpt lat="45.34087" lon="5.71963">
        <ele>1659</ele>
        <time>2021-12-19T11:54:12Z</time>
      </trkpt>
      <trkpt lat="45.34087" lon="5.71963">
        <ele>1659</ele>
        <time>2021-12-19T11:54:13Z</time>
      </trkpt>
      <trkpt lat="45.34088" lon="5.71963">
        <ele>1658.9</ele>
        <time>2021-12-19T11:54:14Z</time>
      </trkpt>
      <trkpt lat="45.34088" lon="5.71963">
        <ele>1658.9</ele>
        <time>2021-12-19T11:54:15Z</time>
      </trkpt>
      <trkpt lat="45.34088" lon="5.71963">
        <ele>1658.9</ele>
        <time>2021-12-19T11:54:16Z</time>
      </trkpt>
      <trkpt lat="45.34088" lon="5.71963">
        <ele>1658.9</ele>
        <time>2021-12-19T11:54:17Z</time>
      </trkpt>
      <trkpt lat="45.34088" lon="5.71963">
        <ele>1658.9</ele>
        <time>2021-12-19T11:54:18Z</time>
      </trkpt>
      <trkpt lat="45.34088" lon="5.71963">
        <ele>1658.9</ele>
        <time>2021-12-19T11:54:19Z</time>
      </trkpt>
      <trkpt lat="45.34088" lon="5.71963">
        <ele>1658.9</ele>
        <time>2021-12-19T11:54:20Z</time>
      </trkpt>
      <trkpt lat="45.34088" lon="5.71963">
        <ele>1658.9</ele>
        <time>2021-12-19T11:54:21Z</time>
      </trkpt>
      <trkpt lat="45.34088" lon="5.71963">
        <ele>1658.9</ele>
        <time>2021-12-19T11:54:22Z</time>
      </trkpt>
      <trkpt lat="45.34088" lon="5.71963">
        <ele>1658.9</ele>
        <time>2021-12-19T11:54:23Z</time>
      </trkpt>
      <trkpt lat="45.34088" lon="5.71963">
        <ele>1658.9</ele>
        <time>2021-12-19T11:54:24Z</time>
      </trkpt>
      <trkpt lat="45.34088" lon="5.71963">
        <ele>1658.9</ele>
        <time>2021-12-19T11:54:25Z</time>
      </trkpt>
      <trkpt lat="45.34088" lon="5.71963">
        <ele>1658.9</ele>
        <time>2021-12-19T11:54:26Z</time>
      </trkpt>
      <trkpt lat="45.34088" lon="5.71963">
        <ele>1658.9</ele>
        <time>2021-12-19T11:54:27Z</time>
      </trkpt>
      <trkpt lat="45.34088" lon="5.71963">
        <ele>1658.9</ele>
        <time>2021-12-19T11:54:28Z</time>
      </trkpt>
      <trkpt lat="45.34088" lon="5.71963">
        <ele>1658.9</ele>
        <time>2021-12-19T11:54:29Z</time>
      </trkpt>
      <trkpt lat="45.34088" lon="5.71963">
        <ele>1658.9</ele>
        <time>2021-12-19T11:54:30Z</time>
      </trkpt>
      <trkpt lat="45.34088" lon="5.71963">
        <ele>1658.9</ele>
        <time>2021-12-19T11:54:31Z</time>
      </trkpt>
      <trkpt lat="45.34088" lon="5.71963">
        <ele>1658.9</ele>
        <time>2021-12-19T11:54:32Z</time>
      </trkpt>
      <trkpt lat="45.34088" lon="5.71963">
        <ele>1658.9</ele>
        <time>2021-12-19T11:54:33Z</time>
      </trkpt>
      <trkpt lat="45.34088" lon="5.71963">
        <ele>1658.9</ele>
        <time>2021-12-19T11:54:34Z</time>
      </trkpt>
      <trkpt lat="45.34088" lon="5.71963">
        <ele>1658.9</ele>
        <time>2021-12-19T11:54:35Z</time>
      </trkpt>
      <trkpt lat="45.34088" lon="5.71963">
        <ele>1658.9</ele>
        <time>2021-12-19T11:54:36Z</time>
      </trkpt>
      <trkpt lat="45.34089" lon="5.71963">
        <ele>1658.9</ele>
        <time>2021-12-19T11:54:37Z</time>
      </trkpt>
      <trkpt lat="45.34089" lon="5.71963">
        <ele>1658.8</ele>
        <time>2021-12-19T11:54:38Z</time>
      </trkpt>
      <trkpt lat="45.34089" lon="5.71963">
        <ele>1658.8</ele>
        <time>2021-12-19T11:54:39Z</time>
      </trkpt>
      <trkpt lat="45.34088" lon="5.71963">
        <ele>1658.8</ele>
        <time>2021-12-19T11:54:40Z</time>
      </trkpt>
      <trkpt lat="45.34088" lon="5.71963">
        <ele>1658.8</ele>
        <time>2021-12-19T11:54:41Z</time>
      </trkpt>
      <trkpt lat="45.34088" lon="5.71963">
        <ele>1658.8</ele>
        <time>2021-12-19T11:54:42Z</time>
      </trkpt>
      <trkpt lat="45.34088" lon="5.71963">
        <ele>1658.8</ele>
        <time>2021-12-19T11:54:43Z</time>
      </trkpt>
      <trkpt lat="45.34088" lon="5.71963">
        <ele>1658.8</ele>
        <time>2021-12-19T11:54:44Z</time>
      </trkpt>
      <trkpt lat="45.34088" lon="5.71963">
        <ele>1658.8</ele>
        <time>2021-12-19T11:54:45Z</time>
      </trkpt>
      <trkpt lat="45.34088" lon="5.71963">
        <ele>1658.8</ele>
        <time>2021-12-19T11:54:46Z</time>
      </trkpt>
      <trkpt lat="45.34088" lon="5.71963">
        <ele>1658.8</ele>
        <time>2021-12-19T11:54:47Z</time>
      </trkpt>
      <trkpt lat="45.34088" lon="5.71963">
        <ele>1658.8</ele>
        <time>2021-12-19T11:54:48Z</time>
      </trkpt>
      <trkpt lat="45.34088" lon="5.71964">
        <ele>1658.8</ele>
        <time>2021-12-19T11:54:49Z</time>
      </trkpt>
      <trkpt lat="45.34089" lon="5.71964">
        <ele>1658.8</ele>
        <time>2021-12-19T11:54:50Z</time>
      </trkpt>
      <trkpt lat="45.34089" lon="5.71964">
        <ele>1658.8</ele>
        <time>2021-12-19T11:54:51Z</time>
      </trkpt>
      <trkpt lat="45.34089" lon="5.71964">
        <ele>1658.7</ele>
        <time>2021-12-19T11:54:52Z</time>
      </trkpt>
      <trkpt lat="45.34089" lon="5.71963">
        <ele>1658.7</ele>
        <time>2021-12-19T11:54:53Z</time>
      </trkpt>
      <trkpt lat="45.34089" lon="5.71963">
        <ele>1658.7</ele>
        <time>2021-12-19T11:54:54Z</time>
      </trkpt>
      <trkpt lat="45.34089" lon="5.71963">
        <ele>1658.7</ele>
        <time>2021-12-19T11:54:55Z</time>
      </trkpt>
      <trkpt lat="45.34089" lon="5.71963">
        <ele>1658.7</ele>
        <time>2021-12-19T11:54:56Z</time>
      </trkpt>
      <trkpt lat="45.34089" lon="5.71963">
        <ele>1658.7</ele>
        <time>2021-12-19T11:54:57Z</time>
      </trkpt>
      <trkpt lat="45.34089" lon="5.71963">
        <ele>1658.7</ele>
        <time>2021-12-19T11:54:58Z</time>
      </trkpt>
      <trkpt lat="45.34089" lon="5.71963">
        <ele>1658.7</ele>
        <time>2021-12-19T11:54:59Z</time>
      </trkpt>
      <trkpt lat="45.34089" lon="5.71963">
        <ele>1658.7</ele>
        <time>2021-12-19T11:55:00Z</time>
      </trkpt>
      <trkpt lat="45.34088" lon="5.71963">
        <ele>1658.7</ele>
        <time>2021-12-19T11:55:01Z</time>
      </trkpt>
      <trkpt lat="45.34088" lon="5.71963">
        <ele>1658.7</ele>
        <time>2021-12-19T11:55:02Z</time>
      </trkpt>
      <trkpt lat="45.34088" lon="5.71963">
        <ele>1658.7</ele>
        <time>2021-12-19T11:55:03Z</time>
      </trkpt>
      <trkpt lat="45.34088" lon="5.71963">
        <ele>1658.7</ele>
        <time>2021-12-19T11:55:04Z</time>
      </trkpt>
      <trkpt lat="45.34088" lon="5.71963">
        <ele>1658.7</ele>
        <time>2021-12-19T11:55:05Z</time>
      </trkpt>
      <trkpt lat="45.34088" lon="5.71963">
        <ele>1658.7</ele>
        <time>2021-12-19T11:55:06Z</time>
      </trkpt>
      <trkpt lat="45.34088" lon="5.71963">
        <ele>1658.7</ele>
        <time>2021-12-19T11:55:07Z</time>
      </trkpt>
      <trkpt lat="45.34088" lon="5.71963">
        <ele>1658.7</ele>
        <time>2021-12-19T11:55:08Z</time>
      </trkpt>
      <trkpt lat="45.34088" lon="5.71963">
        <ele>1658.7</ele>
        <time>2021-12-19T11:55:09Z</time>
      </trkpt>
      <trkpt lat="45.34088" lon="5.71963">
        <ele>1658.7</ele>
        <time>2021-12-19T11:55:10Z</time>
      </trkpt>
      <trkpt lat="45.34088" lon="5.71963">
        <ele>1658.7</ele>
        <time>2021-12-19T11:55:11Z</time>
      </trkpt>
      <trkpt lat="45.34088" lon="5.71963">
        <ele>1658.7</ele>
        <time>2021-12-19T11:55:12Z</time>
      </trkpt>
      <trkpt lat="45.34088" lon="5.71963">
        <ele>1658.7</ele>
        <time>2021-12-19T11:55:13Z</time>
      </trkpt>
      <trkpt lat="45.34088" lon="5.71963">
        <ele>1658.7</ele>
        <time>2021-12-19T11:55:14Z</time>
      </trkpt>
      <trkpt lat="45.34088" lon="5.71964">
        <ele>1658.7</ele>
        <time>2021-12-19T11:55:15Z</time>
      </trkpt>
      <trkpt lat="45.34088" lon="5.71964">
        <ele>1658.7</ele>
        <time>2021-12-19T11:55:16Z</time>
      </trkpt>
      <trkpt lat="45.34088" lon="5.71964">
        <ele>1658.7</ele>
        <time>2021-12-19T11:55:17Z</time>
      </trkpt>
      <trkpt lat="45.34088" lon="5.71964">
        <ele>1658.7</ele>
        <time>2021-12-19T11:55:18Z</time>
      </trkpt>
      <trkpt lat="45.34088" lon="5.71964">
        <ele>1658.7</ele>
        <time>2021-12-19T11:55:19Z</time>
      </trkpt>
      <trkpt lat="45.34088" lon="5.71964">
        <ele>1658.7</ele>
        <time>2021-12-19T11:55:20Z</time>
      </trkpt>
      <trkpt lat="45.34088" lon="5.71964">
        <ele>1658.7</ele>
        <time>2021-12-19T11:55:21Z</time>
      </trkpt>
      <trkpt lat="45.34088" lon="5.71964">
        <ele>1658.7</ele>
        <time>2021-12-19T11:55:22Z</time>
      </trkpt>
      <trkpt lat="45.34088" lon="5.71964">
        <ele>1658.7</ele>
        <time>2021-12-19T11:55:23Z</time>
      </trkpt>
      <trkpt lat="45.34088" lon="5.71964">
        <ele>1658.7</ele>
        <time>2021-12-19T11:55:24Z</time>
      </trkpt>
      <trkpt lat="45.34088" lon="5.71964">
        <ele>1658.7</ele>
        <time>2021-12-19T11:55:25Z</time>
      </trkpt>
      <trkpt lat="45.34088" lon="5.71964">
        <ele>1658.7</ele>
        <time>2021-12-19T11:55:26Z</time>
      </trkpt>
      <trkpt lat="45.34088" lon="5.71964">
        <ele>1658.7</ele>
        <time>2021-12-19T11:55:27Z</time>
      </trkpt>
      <trkpt lat="45.34088" lon="5.71964">
        <ele>1658.7</ele>
        <time>2021-12-19T11:55:28Z</time>
      </trkpt>
      <trkpt lat="45.34088" lon="5.71964">
        <ele>1658.7</ele>
        <time>2021-12-19T11:55:29Z</time>
      </trkpt>
      <trkpt lat="45.34088" lon="5.71964">
        <ele>1658.7</ele>
        <time>2021-12-19T11:55:30Z</time>
      </trkpt>
      <trkpt lat="45.34088" lon="5.71964">
        <ele>1658.7</ele>
        <time>2021-12-19T11:55:31Z</time>
      </trkpt>
      <trkpt lat="45.34088" lon="5.71964">
        <ele>1658.7</ele>
        <time>2021-12-19T11:55:32Z</time>
      </trkpt>
      <trkpt lat="45.34088" lon="5.71964">
        <ele>1658.7</ele>
        <time>2021-12-19T11:55:33Z</time>
      </trkpt>
      <trkpt lat="45.34088" lon="5.71964">
        <ele>1658.7</ele>
        <time>2021-12-19T11:55:34Z</time>
      </trkpt>
      <trkpt lat="45.34088" lon="5.71964">
        <ele>1658.7</ele>
        <time>2021-12-19T11:55:35Z</time>
      </trkpt>
      <trkpt lat="45.34088" lon="5.71964">
        <ele>1658.6</ele>
        <time>2021-12-19T11:55:36Z</time>
      </trkpt>
      <trkpt lat="45.34088" lon="5.71964">
        <ele>1658.6</ele>
        <time>2021-12-19T11:55:37Z</time>
      </trkpt>
      <trkpt lat="45.34088" lon="5.71964">
        <ele>1658.6</ele>
        <time>2021-12-19T11:55:38Z</time>
      </trkpt>
      <trkpt lat="45.34088" lon="5.71964">
        <ele>1658.6</ele>
        <time>2021-12-19T11:55:39Z</time>
      </trkpt>
      <trkpt lat="45.34088" lon="5.71964">
        <ele>1658.6</ele>
        <time>2021-12-19T11:55:40Z</time>
      </trkpt>
      <trkpt lat="45.34088" lon="5.71964">
        <ele>1658.6</ele>
        <time>2021-12-19T11:55:41Z</time>
      </trkpt>
      <trkpt lat="45.34088" lon="5.71964">
        <ele>1658.6</ele>
        <time>2021-12-19T11:55:42Z</time>
      </trkpt>
      <trkpt lat="45.34088" lon="5.71964">
        <ele>1658.6</ele>
        <time>2021-12-19T11:55:43Z</time>
      </trkpt>
      <trkpt lat="45.34088" lon="5.71964">
        <ele>1658.6</ele>
        <time>2021-12-19T11:55:44Z</time>
      </trkpt>
      <trkpt lat="45.34088" lon="5.71963">
        <ele>1658.6</ele>
        <time>2021-12-19T11:55:45Z</time>
      </trkpt>
      <trkpt lat="45.34088" lon="5.71963">
        <ele>1658.6</ele>
        <time>2021-12-19T11:55:46Z</time>
      </trkpt>
      <trkpt lat="45.34088" lon="5.71963">
        <ele>1658.6</ele>
        <time>2021-12-19T11:55:47Z</time>
      </trkpt>
      <trkpt lat="45.34088" lon="5.71963">
        <ele>1658.6</ele>
        <time>2021-12-19T11:55:48Z</time>
      </trkpt>
      <trkpt lat="45.34087" lon="5.71963">
        <ele>1658.6</ele>
        <time>2021-12-19T11:55:49Z</time>
      </trkpt>
      <trkpt lat="45.34087" lon="5.71964">
        <ele>1658.6</ele>
        <time>2021-12-19T11:55:50Z</time>
      </trkpt>
      <trkpt lat="45.34087" lon="5.71964">
        <ele>1658.6</ele>
        <time>2021-12-19T11:55:51Z</time>
      </trkpt>
      <trkpt lat="45.34087" lon="5.71964">
        <ele>1658.6</ele>
        <time>2021-12-19T11:55:52Z</time>
      </trkpt>
      <trkpt lat="45.34087" lon="5.71964">
        <ele>1658.6</ele>
        <time>2021-12-19T11:55:53Z</time>
      </trkpt>
      <trkpt lat="45.34087" lon="5.71964">
        <ele>1658.6</ele>
        <time>2021-12-19T11:55:54Z</time>
      </trkpt>
      <trkpt lat="45.34087" lon="5.71964">
        <ele>1658.6</ele>
        <time>2021-12-19T11:55:55Z</time>
      </trkpt>
      <trkpt lat="45.34087" lon="5.71964">
        <ele>1658.6</ele>
        <time>2021-12-19T11:55:56Z</time>
      </trkpt>
      <trkpt lat="45.34087" lon="5.71964">
        <ele>1658.6</ele>
        <time>2021-12-19T11:55:57Z</time>
      </trkpt>
      <trkpt lat="45.34087" lon="5.71964">
        <ele>1658.6</ele>
        <time>2021-12-19T11:55:58Z</time>
      </trkpt>
      <trkpt lat="45.34087" lon="5.71964">
        <ele>1658.6</ele>
        <time>2021-12-19T11:55:59Z</time>
      </trkpt>
      <trkpt lat="45.34087" lon="5.71964">
        <ele>1658.6</ele>
        <time>2021-12-19T11:56:00Z</time>
      </trkpt>
      <trkpt lat="45.34087" lon="5.71964">
        <ele>1658.6</ele>
        <time>2021-12-19T11:56:01Z</time>
      </trkpt>
      <trkpt lat="45.34088" lon="5.71964">
        <ele>1658.6</ele>
        <time>2021-12-19T11:56:02Z</time>
      </trkpt>
      <trkpt lat="45.34087" lon="5.71964">
        <ele>1658.6</ele>
        <time>2021-12-19T11:56:03Z</time>
      </trkpt>
      <trkpt lat="45.34087" lon="5.71964">
        <ele>1658.5</ele>
        <time>2021-12-19T11:56:04Z</time>
      </trkpt>
      <trkpt lat="45.34087" lon="5.71964">
        <ele>1658.5</ele>
        <time>2021-12-19T11:56:05Z</time>
      </trkpt>
      <trkpt lat="45.34087" lon="5.71964">
        <ele>1658.5</ele>
        <time>2021-12-19T11:56:06Z</time>
      </trkpt>
      <trkpt lat="45.34087" lon="5.71964">
        <ele>1658.5</ele>
        <time>2021-12-19T11:56:07Z</time>
      </trkpt>
      <trkpt lat="45.34087" lon="5.71964">
        <ele>1658.5</ele>
        <time>2021-12-19T11:56:08Z</time>
      </trkpt>
      <trkpt lat="45.34087" lon="5.71964">
        <ele>1658.5</ele>
        <time>2021-12-19T11:56:09Z</time>
      </trkpt>
      <trkpt lat="45.34087" lon="5.71964">
        <ele>1658.5</ele>
        <time>2021-12-19T11:56:10Z</time>
      </trkpt>
      <trkpt lat="45.34087" lon="5.71964">
        <ele>1658.5</ele>
        <time>2021-12-19T11:56:11Z</time>
      </trkpt>
      <trkpt lat="45.34087" lon="5.71964">
        <ele>1658.5</ele>
        <time>2021-12-19T11:56:12Z</time>
      </trkpt>
      <trkpt lat="45.34087" lon="5.71964">
        <ele>1658.5</ele>
        <time>2021-12-19T11:56:13Z</time>
      </trkpt>
      <trkpt lat="45.34087" lon="5.71964">
        <ele>1658.5</ele>
        <time>2021-12-19T11:56:14Z</time>
      </trkpt>
      <trkpt lat="45.34086" lon="5.71963">
        <ele>1658.5</ele>
        <time>2021-12-19T11:56:15Z</time>
      </trkpt>
      <trkpt lat="45.34086" lon="5.71963">
        <ele>1658.5</ele>
        <time>2021-12-19T11:56:16Z</time>
      </trkpt>
      <trkpt lat="45.34086" lon="5.71963">
        <ele>1658.5</ele>
        <time>2021-12-19T11:56:17Z</time>
      </trkpt>
      <trkpt lat="45.34086" lon="5.71963">
        <ele>1658.5</ele>
        <time>2021-12-19T11:56:18Z</time>
      </trkpt>
      <trkpt lat="45.34086" lon="5.71963">
        <ele>1658.5</ele>
        <time>2021-12-19T11:56:19Z</time>
      </trkpt>
      <trkpt lat="45.34086" lon="5.71963">
        <ele>1658.5</ele>
        <time>2021-12-19T11:56:20Z</time>
      </trkpt>
      <trkpt lat="45.34086" lon="5.71963">
        <ele>1658.5</ele>
        <time>2021-12-19T11:56:21Z</time>
      </trkpt>
      <trkpt lat="45.34086" lon="5.71963">
        <ele>1658.5</ele>
        <time>2021-12-19T11:56:22Z</time>
      </trkpt>
      <trkpt lat="45.34086" lon="5.71963">
        <ele>1658.5</ele>
        <time>2021-12-19T11:56:23Z</time>
      </trkpt>
      <trkpt lat="45.34086" lon="5.71963">
        <ele>1658.5</ele>
        <time>2021-12-19T11:56:24Z</time>
      </trkpt>
      <trkpt lat="45.34086" lon="5.71963">
        <ele>1658.5</ele>
        <time>2021-12-19T11:56:25Z</time>
      </trkpt>
      <trkpt lat="45.34086" lon="5.71963">
        <ele>1658.5</ele>
        <time>2021-12-19T11:56:26Z</time>
      </trkpt>
      <trkpt lat="45.34086" lon="5.71963">
        <ele>1658.5</ele>
        <time>2021-12-19T11:56:27Z</time>
      </trkpt>
      <trkpt lat="45.34086" lon="5.71963">
        <ele>1658.5</ele>
        <time>2021-12-19T11:56:28Z</time>
      </trkpt>
      <trkpt lat="45.34086" lon="5.71963">
        <ele>1658.5</ele>
        <time>2021-12-19T11:56:29Z</time>
      </trkpt>
      <trkpt lat="45.34086" lon="5.71964">
        <ele>1658.4</ele>
        <time>2021-12-19T11:56:30Z</time>
      </trkpt>
      <trkpt lat="45.34086" lon="5.71963">
        <ele>1658.4</ele>
        <time>2021-12-19T11:56:31Z</time>
      </trkpt>
      <trkpt lat="45.34086" lon="5.71963">
        <ele>1658.4</ele>
        <time>2021-12-19T11:56:32Z</time>
      </trkpt>
      <trkpt lat="45.34086" lon="5.71964">
        <ele>1658.4</ele>
        <time>2021-12-19T11:56:33Z</time>
      </trkpt>
      <trkpt lat="45.34087" lon="5.71964">
        <ele>1658.4</ele>
        <time>2021-12-19T11:56:34Z</time>
      </trkpt>
      <trkpt lat="45.34087" lon="5.71964">
        <ele>1658.4</ele>
        <time>2021-12-19T11:56:35Z</time>
      </trkpt>
      <trkpt lat="45.34087" lon="5.71964">
        <ele>1658.4</ele>
        <time>2021-12-19T11:56:36Z</time>
      </trkpt>
      <trkpt lat="45.34087" lon="5.71964">
        <ele>1658.4</ele>
        <time>2021-12-19T11:56:37Z</time>
      </trkpt>
      <trkpt lat="45.34087" lon="5.71964">
        <ele>1658.4</ele>
        <time>2021-12-19T11:56:38Z</time>
      </trkpt>
      <trkpt lat="45.34087" lon="5.71964">
        <ele>1658.4</ele>
        <time>2021-12-19T11:56:39Z</time>
      </trkpt>
      <trkpt lat="45.34087" lon="5.71964">
        <ele>1658.4</ele>
        <time>2021-12-19T11:56:40Z</time>
      </trkpt>
      <trkpt lat="45.34087" lon="5.71964">
        <ele>1658.4</ele>
        <time>2021-12-19T11:56:41Z</time>
      </trkpt>
      <trkpt lat="45.34087" lon="5.71964">
        <ele>1658.4</ele>
        <time>2021-12-19T11:56:42Z</time>
      </trkpt>
      <trkpt lat="45.34087" lon="5.71964">
        <ele>1658.4</ele>
        <time>2021-12-19T11:56:43Z</time>
      </trkpt>
      <trkpt lat="45.34087" lon="5.71965">
        <ele>1658.4</ele>
        <time>2021-12-19T11:56:44Z</time>
      </trkpt>
      <trkpt lat="45.34087" lon="5.71965">
        <ele>1658.4</ele>
        <time>2021-12-19T11:56:45Z</time>
      </trkpt>
      <trkpt lat="45.34087" lon="5.71964">
        <ele>1658.4</ele>
        <time>2021-12-19T11:56:46Z</time>
      </trkpt>
      <trkpt lat="45.34087" lon="5.71964">
        <ele>1658.4</ele>
        <time>2021-12-19T11:56:47Z</time>
      </trkpt>
      <trkpt lat="45.34087" lon="5.71964">
        <ele>1658.4</ele>
        <time>2021-12-19T11:56:48Z</time>
      </trkpt>
      <trkpt lat="45.34087" lon="5.71964">
        <ele>1658.4</ele>
        <time>2021-12-19T11:56:49Z</time>
      </trkpt>
      <trkpt lat="45.34087" lon="5.71964">
        <ele>1658.4</ele>
        <time>2021-12-19T11:56:50Z</time>
      </trkpt>
      <trkpt lat="45.34087" lon="5.71964">
        <ele>1658.4</ele>
        <time>2021-12-19T11:56:51Z</time>
      </trkpt>
      <trkpt lat="45.34087" lon="5.71964">
        <ele>1658.3</ele>
        <time>2021-12-19T11:56:52Z</time>
      </trkpt>
      <trkpt lat="45.34087" lon="5.71964">
        <ele>1658.3</ele>
        <time>2021-12-19T11:56:53Z</time>
      </trkpt>
      <trkpt lat="45.34087" lon="5.71964">
        <ele>1658.3</ele>
        <time>2021-12-19T11:56:54Z</time>
      </trkpt>
      <trkpt lat="45.34087" lon="5.71964">
        <ele>1658.3</ele>
        <time>2021-12-19T11:56:55Z</time>
      </trkpt>
      <trkpt lat="45.34088" lon="5.71964">
        <ele>1658.3</ele>
        <time>2021-12-19T11:56:56Z</time>
      </trkpt>
      <trkpt lat="45.34088" lon="5.71964">
        <ele>1658.3</ele>
        <time>2021-12-19T11:56:57Z</time>
      </trkpt>
      <trkpt lat="45.34087" lon="5.71964">
        <ele>1658.3</ele>
        <time>2021-12-19T11:56:58Z</time>
      </trkpt>
      <trkpt lat="45.34087" lon="5.71964">
        <ele>1658.3</ele>
        <time>2021-12-19T11:56:59Z</time>
      </trkpt>
      <trkpt lat="45.34087" lon="5.71964">
        <ele>1658.3</ele>
        <time>2021-12-19T11:57:00Z</time>
      </trkpt>
      <trkpt lat="45.34087" lon="5.71964">
        <ele>1658.3</ele>
        <time>2021-12-19T11:57:01Z</time>
      </trkpt>
      <trkpt lat="45.34088" lon="5.71965">
        <ele>1658.3</ele>
        <time>2021-12-19T11:57:02Z</time>
      </trkpt>
      <trkpt lat="45.34089" lon="5.71967">
        <ele>1658.2</ele>
        <time>2021-12-19T11:57:03Z</time>
      </trkpt>
      <trkpt lat="45.3409" lon="5.71968">
        <ele>1658.2</ele>
        <time>2021-12-19T11:57:04Z</time>
      </trkpt>
      <trkpt lat="45.34091" lon="5.7197">
        <ele>1658.1</ele>
        <time>2021-12-19T11:57:05Z</time>
      </trkpt>
      <trkpt lat="45.34092" lon="5.71971">
        <ele>1658.1</ele>
        <time>2021-12-19T11:57:06Z</time>
      </trkpt>
      <trkpt lat="45.34093" lon="5.71973">
        <ele>1658.1</ele>
        <time>2021-12-19T11:57:07Z</time>
      </trkpt>
      <trkpt lat="45.34093" lon="5.71976">
        <ele>1658</ele>
        <time>2021-12-19T11:57:08Z</time>
      </trkpt>
      <trkpt lat="45.34093" lon="5.71978">
        <ele>1658</ele>
        <time>2021-12-19T11:57:09Z</time>
      </trkpt>
      <trkpt lat="45.34091" lon="5.7198">
        <ele>1657.9</ele>
        <time>2021-12-19T11:57:10Z</time>
      </trkpt>
      <trkpt lat="45.3409" lon="5.71982">
        <ele>1657.8</ele>
        <time>2021-12-19T11:57:11Z</time>
      </trkpt>
      <trkpt lat="45.34091" lon="5.71986">
        <ele>1657.8</ele>
        <time>2021-12-19T11:57:12Z</time>
      </trkpt>
      <trkpt lat="45.34093" lon="5.71991">
        <ele>1657.6</ele>
        <time>2021-12-19T11:57:13Z</time>
      </trkpt>
      <trkpt lat="45.34095" lon="5.71996">
        <ele>1657.5</ele>
        <time>2021-12-19T11:57:14Z</time>
      </trkpt>
      <trkpt lat="45.34098" lon="5.72">
        <ele>1657.4</ele>
        <time>2021-12-19T11:57:15Z</time>
      </trkpt>
      <trkpt lat="45.34101" lon="5.72004">
        <ele>1657.3</ele>
        <time>2021-12-19T11:57:16Z</time>
      </trkpt>
      <trkpt lat="45.34103" lon="5.72007">
        <ele>1657.2</ele>
        <time>2021-12-19T11:57:17Z</time>
      </trkpt>
      <trkpt lat="45.34106" lon="5.72009">
        <ele>1657.1</ele>
        <time>2021-12-19T11:57:18Z</time>
      </trkpt>
      <trkpt lat="45.34108" lon="5.72011">
        <ele>1657.1</ele>
        <time>2021-12-19T11:57:19Z</time>
      </trkpt>
      <trkpt lat="45.34109" lon="5.72012">
        <ele>1657</ele>
        <time>2021-12-19T11:57:20Z</time>
      </trkpt>
      <trkpt lat="45.34109" lon="5.72012">
        <ele>1657</ele>
        <time>2021-12-19T11:57:21Z</time>
      </trkpt>
      <trkpt lat="45.34109" lon="5.72012">
        <ele>1657</ele>
        <time>2021-12-19T11:57:22Z</time>
      </trkpt>
      <trkpt lat="45.34109" lon="5.72012">
        <ele>1657</ele>
        <time>2021-12-19T11:57:23Z</time>
      </trkpt>
      <trkpt lat="45.34109" lon="5.72012">
        <ele>1657</ele>
        <time>2021-12-19T11:57:24Z</time>
      </trkpt>
      <trkpt lat="45.34109" lon="5.72012">
        <ele>1657</ele>
        <time>2021-12-19T11:57:25Z</time>
      </trkpt>
      <trkpt lat="45.34109" lon="5.72012">
        <ele>1657</ele>
        <time>2021-12-19T11:57:26Z</time>
      </trkpt>
      <trkpt lat="45.34109" lon="5.72012">
        <ele>1657</ele>
        <time>2021-12-19T11:57:27Z</time>
      </trkpt>
      <trkpt lat="45.34109" lon="5.72012">
        <ele>1657</ele>
        <time>2021-12-19T11:57:28Z</time>
      </trkpt>
      <trkpt lat="45.3411" lon="5.72012">
        <ele>1657</ele>
        <time>2021-12-19T11:57:29Z</time>
      </trkpt>
      <trkpt lat="45.34112" lon="5.72014">
        <ele>1656.9</ele>
        <time>2021-12-19T11:57:30Z</time>
      </trkpt>
      <trkpt lat="45.34113" lon="5.72015">
        <ele>1656.9</ele>
        <time>2021-12-19T11:57:31Z</time>
      </trkpt>
      <trkpt lat="45.34114" lon="5.72017">
        <ele>1656.8</ele>
        <time>2021-12-19T11:57:32Z</time>
      </trkpt>
      <trkpt lat="45.34115" lon="5.72019">
        <ele>1656.8</ele>
        <time>2021-12-19T11:57:33Z</time>
      </trkpt>
      <trkpt lat="45.34115" lon="5.72021">
        <ele>1656.7</ele>
        <time>2021-12-19T11:57:34Z</time>
      </trkpt>
      <trkpt lat="45.34116" lon="5.72023">
        <ele>1656.7</ele>
        <time>2021-12-19T11:57:35Z</time>
      </trkpt>
      <trkpt lat="45.34118" lon="5.72025">
        <ele>1656.6</ele>
        <time>2021-12-19T11:57:36Z</time>
      </trkpt>
      <trkpt lat="45.3412" lon="5.72027">
        <ele>1656.5</ele>
        <time>2021-12-19T11:57:37Z</time>
      </trkpt>
      <trkpt lat="45.34122" lon="5.72028">
        <ele>1656.5</ele>
        <time>2021-12-19T11:57:38Z</time>
      </trkpt>
      <trkpt lat="45.34124" lon="5.7203">
        <ele>1656.4</ele>
        <time>2021-12-19T11:57:39Z</time>
      </trkpt>
      <trkpt lat="45.34125" lon="5.7203">
        <ele>1656.4</ele>
        <time>2021-12-19T11:57:40Z</time>
      </trkpt>
      <trkpt lat="45.34125" lon="5.7203">
        <ele>1656.4</ele>
        <time>2021-12-19T11:57:41Z</time>
      </trkpt>
      <trkpt lat="45.34125" lon="5.7203">
        <ele>1656.4</ele>
        <time>2021-12-19T11:57:42Z</time>
      </trkpt>
      <trkpt lat="45.34125" lon="5.72031">
        <ele>1656.4</ele>
        <time>2021-12-19T11:57:43Z</time>
      </trkpt>
      <trkpt lat="45.34125" lon="5.7203">
        <ele>1656.4</ele>
        <time>2021-12-19T11:57:44Z</time>
      </trkpt>
      <trkpt lat="45.34125" lon="5.7203">
        <ele>1656.4</ele>
        <time>2021-12-19T11:57:45Z</time>
      </trkpt>
      <trkpt lat="45.34125" lon="5.7203">
        <ele>1656.4</ele>
        <time>2021-12-19T11:57:46Z</time>
      </trkpt>
      <trkpt lat="45.34125" lon="5.72031">
        <ele>1656.4</ele>
        <time>2021-12-19T11:57:47Z</time>
      </trkpt>
      <trkpt lat="45.34125" lon="5.7203">
        <ele>1656.4</ele>
        <time>2021-12-19T11:57:48Z</time>
      </trkpt>
      <trkpt lat="45.34125" lon="5.7203">
        <ele>1656.4</ele>
        <time>2021-12-19T11:57:49Z</time>
      </trkpt>
      <trkpt lat="45.34125" lon="5.7203">
        <ele>1656.4</ele>
        <time>2021-12-19T11:57:50Z</time>
      </trkpt>
      <trkpt lat="45.34125" lon="5.7203">
        <ele>1656.4</ele>
        <time>2021-12-19T11:57:51Z</time>
      </trkpt>
      <trkpt lat="45.34125" lon="5.7203">
        <ele>1656.4</ele>
        <time>2021-12-19T11:57:52Z</time>
      </trkpt>
      <trkpt lat="45.34125" lon="5.7203">
        <ele>1656.4</ele>
        <time>2021-12-19T11:57:53Z</time>
      </trkpt>
      <trkpt lat="45.34125" lon="5.7203">
        <ele>1656.4</ele>
        <time>2021-12-19T11:57:54Z</time>
      </trkpt>
      <trkpt lat="45.34125" lon="5.72031">
        <ele>1656.4</ele>
        <time>2021-12-19T11:57:55Z</time>
      </trkpt>
      <trkpt lat="45.34125" lon="5.72031">
        <ele>1656.4</ele>
        <time>2021-12-19T11:57:56Z</time>
      </trkpt>
      <trkpt lat="45.34125" lon="5.72031">
        <ele>1656.3</ele>
        <time>2021-12-19T11:57:57Z</time>
      </trkpt>
      <trkpt lat="45.34125" lon="5.72031">
        <ele>1656.3</ele>
        <time>2021-12-19T11:57:58Z</time>
      </trkpt>
      <trkpt lat="45.34125" lon="5.72031">
        <ele>1656.3</ele>
        <time>2021-12-19T11:57:59Z</time>
      </trkpt>
      <trkpt lat="45.34125" lon="5.72031">
        <ele>1656.3</ele>
        <time>2021-12-19T11:58:00Z</time>
      </trkpt>
      <trkpt lat="45.34125" lon="5.72031">
        <ele>1656.3</ele>
        <time>2021-12-19T11:58:01Z</time>
      </trkpt>
      <trkpt lat="45.34125" lon="5.72031">
        <ele>1656.3</ele>
        <time>2021-12-19T11:58:02Z</time>
      </trkpt>
      <trkpt lat="45.34125" lon="5.72031">
        <ele>1656.3</ele>
        <time>2021-12-19T11:58:03Z</time>
      </trkpt>
      <trkpt lat="45.34125" lon="5.72031">
        <ele>1656.3</ele>
        <time>2021-12-19T11:58:04Z</time>
      </trkpt>
      <trkpt lat="45.34125" lon="5.72031">
        <ele>1656.3</ele>
        <time>2021-12-19T11:58:05Z</time>
      </trkpt>
      <trkpt lat="45.34125" lon="5.72031">
        <ele>1656.3</ele>
        <time>2021-12-19T11:58:06Z</time>
      </trkpt>
      <trkpt lat="45.34125" lon="5.72031">
        <ele>1656.3</ele>
        <time>2021-12-19T11:58:07Z</time>
      </trkpt>
      <trkpt lat="45.34125" lon="5.72031">
        <ele>1656.3</ele>
        <time>2021-12-19T11:58:08Z</time>
      </trkpt>
      <trkpt lat="45.34125" lon="5.72031">
        <ele>1656.3</ele>
        <time>2021-12-19T11:58:09Z</time>
      </trkpt>
      <trkpt lat="45.34125" lon="5.72031">
        <ele>1656.3</ele>
        <time>2021-12-19T11:58:10Z</time>
      </trkpt>
      <trkpt lat="45.34125" lon="5.72031">
        <ele>1656.3</ele>
        <time>2021-12-19T11:58:11Z</time>
      </trkpt>
      <trkpt lat="45.34125" lon="5.72031">
        <ele>1656.3</ele>
        <time>2021-12-19T11:58:12Z</time>
      </trkpt>
      <trkpt lat="45.34125" lon="5.72031">
        <ele>1656.3</ele>
        <time>2021-12-19T11:58:13Z</time>
      </trkpt>
      <trkpt lat="45.34125" lon="5.72031">
        <ele>1656.3</ele>
        <time>2021-12-19T11:58:14Z</time>
      </trkpt>
      <trkpt lat="45.34125" lon="5.72031">
        <ele>1656.3</ele>
        <time>2021-12-19T11:58:15Z</time>
      </trkpt>
      <trkpt lat="45.34125" lon="5.72031">
        <ele>1656.3</ele>
        <time>2021-12-19T11:58:16Z</time>
      </trkpt>
      <trkpt lat="45.34126" lon="5.72031">
        <ele>1656.3</ele>
        <time>2021-12-19T11:58:17Z</time>
      </trkpt>
      <trkpt lat="45.34127" lon="5.72032">
        <ele>1656.3</ele>
        <time>2021-12-19T11:58:18Z</time>
      </trkpt>
      <trkpt lat="45.34129" lon="5.72033">
        <ele>1656.2</ele>
        <time>2021-12-19T11:58:19Z</time>
      </trkpt>
      <trkpt lat="45.3413" lon="5.72033">
        <ele>1656.2</ele>
        <time>2021-12-19T11:58:20Z</time>
      </trkpt>
      <trkpt lat="45.34131" lon="5.72033">
        <ele>1656.2</ele>
        <time>2021-12-19T11:58:21Z</time>
      </trkpt>
      <trkpt lat="45.34132" lon="5.72034">
        <ele>1656.1</ele>
        <time>2021-12-19T11:58:22Z</time>
      </trkpt>
      <trkpt lat="45.34134" lon="5.72034">
        <ele>1656.1</ele>
        <time>2021-12-19T11:58:23Z</time>
      </trkpt>
      <trkpt lat="45.34136" lon="5.72035">
        <ele>1656</ele>
        <time>2021-12-19T11:58:24Z</time>
      </trkpt>
      <trkpt lat="45.34138" lon="5.72035">
        <ele>1655.9</ele>
        <time>2021-12-19T11:58:25Z</time>
      </trkpt>
      <trkpt lat="45.34141" lon="5.72035">
        <ele>1655.9</ele>
        <time>2021-12-19T11:58:26Z</time>
      </trkpt>
      <trkpt lat="45.34143" lon="5.72035">
        <ele>1655.8</ele>
        <time>2021-12-19T11:58:27Z</time>
      </trkpt>
      <trkpt lat="45.34146" lon="5.72035">
        <ele>1655.7</ele>
        <time>2021-12-19T11:58:28Z</time>
      </trkpt>
      <trkpt lat="45.34148" lon="5.72035">
        <ele>1655.7</ele>
        <time>2021-12-19T11:58:29Z</time>
      </trkpt>
      <trkpt lat="45.3415" lon="5.72035">
        <ele>1655.6</ele>
        <time>2021-12-19T11:58:30Z</time>
      </trkpt>
      <trkpt lat="45.34151" lon="5.72035">
        <ele>1655.6</ele>
        <time>2021-12-19T11:58:31Z</time>
      </trkpt>
      <trkpt lat="45.34153" lon="5.72034">
        <ele>1655.5</ele>
        <time>2021-12-19T11:58:32Z</time>
      </trkpt>
      <trkpt lat="45.34155" lon="5.72034">
        <ele>1655.5</ele>
        <time>2021-12-19T11:58:33Z</time>
      </trkpt>
      <trkpt lat="45.34155" lon="5.72033">
        <ele>1655.5</ele>
        <time>2021-12-19T11:58:34Z</time>
      </trkpt>
      <trkpt lat="45.34156" lon="5.72033">
        <ele>1655.4</ele>
        <time>2021-12-19T11:58:35Z</time>
      </trkpt>
      <trkpt lat="45.34156" lon="5.72033">
        <ele>1655.4</ele>
        <time>2021-12-19T11:58:36Z</time>
      </trkpt>
      <trkpt lat="45.34157" lon="5.72033">
        <ele>1655.4</ele>
        <time>2021-12-19T11:58:37Z</time>
      </trkpt>
      <trkpt lat="45.34157" lon="5.72033">
        <ele>1655.4</ele>
        <time>2021-12-19T11:58:38Z</time>
      </trkpt>
      <trkpt lat="45.34158" lon="5.72033">
        <ele>1655.4</ele>
        <time>2021-12-19T11:58:39Z</time>
      </trkpt>
      <trkpt lat="45.34158" lon="5.72033">
        <ele>1655.4</ele>
        <time>2021-12-19T11:58:40Z</time>
      </trkpt>
      <trkpt lat="45.34158" lon="5.72033">
        <ele>1655.4</ele>
        <time>2021-12-19T11:58:41Z</time>
      </trkpt>
      <trkpt lat="45.34158" lon="5.72033">
        <ele>1655.4</ele>
        <time>2021-12-19T11:58:42Z</time>
      </trkpt>
      <trkpt lat="45.34158" lon="5.72033">
        <ele>1655.4</ele>
        <time>2021-12-19T11:58:43Z</time>
      </trkpt>
      <trkpt lat="45.34158" lon="5.72033">
        <ele>1655.4</ele>
        <time>2021-12-19T11:58:44Z</time>
      </trkpt>
      <trkpt lat="45.34158" lon="5.72033">
        <ele>1655.3</ele>
        <time>2021-12-19T11:58:45Z</time>
      </trkpt>
      <trkpt lat="45.34158" lon="5.72032">
        <ele>1655.3</ele>
        <time>2021-12-19T11:58:46Z</time>
      </trkpt>
      <trkpt lat="45.34158" lon="5.72032">
        <ele>1655.3</ele>
        <time>2021-12-19T11:58:47Z</time>
      </trkpt>
      <trkpt lat="45.34158" lon="5.72032">
        <ele>1655.3</ele>
        <time>2021-12-19T11:58:48Z</time>
      </trkpt>
      <trkpt lat="45.34158" lon="5.72033">
        <ele>1655.3</ele>
        <time>2021-12-19T11:58:49Z</time>
      </trkpt>
      <trkpt lat="45.34158" lon="5.72033">
        <ele>1655.3</ele>
        <time>2021-12-19T11:58:50Z</time>
      </trkpt>
      <trkpt lat="45.34158" lon="5.72034">
        <ele>1655.3</ele>
        <time>2021-12-19T11:58:51Z</time>
      </trkpt>
      <trkpt lat="45.34158" lon="5.72034">
        <ele>1655.3</ele>
        <time>2021-12-19T11:58:52Z</time>
      </trkpt>
      <trkpt lat="45.34158" lon="5.72034">
        <ele>1655.3</ele>
        <time>2021-12-19T11:58:53Z</time>
      </trkpt>
      <trkpt lat="45.34158" lon="5.72034">
        <ele>1655.3</ele>
        <time>2021-12-19T11:58:54Z</time>
      </trkpt>
      <trkpt lat="45.34158" lon="5.72034">
        <ele>1655.3</ele>
        <time>2021-12-19T11:58:55Z</time>
      </trkpt>
      <trkpt lat="45.34157" lon="5.72034">
        <ele>1655.2</ele>
        <time>2021-12-19T11:58:56Z</time>
      </trkpt>
      <trkpt lat="45.34157" lon="5.72033">
        <ele>1655.2</ele>
        <time>2021-12-19T11:58:57Z</time>
      </trkpt>
      <trkpt lat="45.34156" lon="5.72033">
        <ele>1655.2</ele>
        <time>2021-12-19T11:58:58Z</time>
      </trkpt>
      <trkpt lat="45.34156" lon="5.72033">
        <ele>1655.2</ele>
        <time>2021-12-19T11:58:59Z</time>
      </trkpt>
      <trkpt lat="45.34156" lon="5.72032">
        <ele>1655.2</ele>
        <time>2021-12-19T11:59:00Z</time>
      </trkpt>
      <trkpt lat="45.34156" lon="5.72032">
        <ele>1655.2</ele>
        <time>2021-12-19T11:59:01Z</time>
      </trkpt>
      <trkpt lat="45.34156" lon="5.72032">
        <ele>1655.2</ele>
        <time>2021-12-19T11:59:02Z</time>
      </trkpt>
      <trkpt lat="45.34156" lon="5.72032">
        <ele>1655.2</ele>
        <time>2021-12-19T11:59:03Z</time>
      </trkpt>
      <trkpt lat="45.34156" lon="5.72032">
        <ele>1655.2</ele>
        <time>2021-12-19T11:59:04Z</time>
      </trkpt>
      <trkpt lat="45.34156" lon="5.72032">
        <ele>1655.2</ele>
        <time>2021-12-19T11:59:05Z</time>
      </trkpt>
      <trkpt lat="45.34156" lon="5.72032">
        <ele>1655.2</ele>
        <time>2021-12-19T11:59:06Z</time>
      </trkpt>
      <trkpt lat="45.34156" lon="5.72032">
        <ele>1655.2</ele>
        <time>2021-12-19T11:59:07Z</time>
      </trkpt>
      <trkpt lat="45.34156" lon="5.72032">
        <ele>1655.2</ele>
        <time>2021-12-19T11:59:08Z</time>
      </trkpt>
      <trkpt lat="45.34156" lon="5.72032">
        <ele>1655.2</ele>
        <time>2021-12-19T11:59:09Z</time>
      </trkpt>
      <trkpt lat="45.34156" lon="5.72032">
        <ele>1655.2</ele>
        <time>2021-12-19T11:59:10Z</time>
      </trkpt>
      <trkpt lat="45.34156" lon="5.72032">
        <ele>1655.2</ele>
        <time>2021-12-19T11:59:11Z</time>
      </trkpt>
      <trkpt lat="45.34156" lon="5.72031">
        <ele>1655.2</ele>
        <time>2021-12-19T11:59:12Z</time>
      </trkpt>
      <trkpt lat="45.34155" lon="5.72031">
        <ele>1655.1</ele>
        <time>2021-12-19T11:59:13Z</time>
      </trkpt>
      <trkpt lat="45.34155" lon="5.72031">
        <ele>1655.1</ele>
        <time>2021-12-19T11:59:14Z</time>
      </trkpt>
      <trkpt lat="45.34155" lon="5.72031">
        <ele>1655.1</ele>
        <time>2021-12-19T11:59:15Z</time>
      </trkpt>
      <trkpt lat="45.34155" lon="5.72031">
        <ele>1655.1</ele>
        <time>2021-12-19T11:59:16Z</time>
      </trkpt>
      <trkpt lat="45.34155" lon="5.72031">
        <ele>1655.1</ele>
        <time>2021-12-19T11:59:17Z</time>
      </trkpt>
      <trkpt lat="45.34155" lon="5.72031">
        <ele>1655.1</ele>
        <time>2021-12-19T11:59:18Z</time>
      </trkpt>
      <trkpt lat="45.34155" lon="5.72031">
        <ele>1655.1</ele>
        <time>2021-12-19T11:59:19Z</time>
      </trkpt>
      <trkpt lat="45.34155" lon="5.72031">
        <ele>1655.1</ele>
        <time>2021-12-19T11:59:20Z</time>
      </trkpt>
      <trkpt lat="45.34155" lon="5.72031">
        <ele>1655.1</ele>
        <time>2021-12-19T11:59:21Z</time>
      </trkpt>
      <trkpt lat="45.34155" lon="5.72031">
        <ele>1655.1</ele>
        <time>2021-12-19T11:59:22Z</time>
      </trkpt>
      <trkpt lat="45.34155" lon="5.72031">
        <ele>1655.1</ele>
        <time>2021-12-19T11:59:23Z</time>
      </trkpt>
      <trkpt lat="45.34155" lon="5.72031">
        <ele>1655.1</ele>
        <time>2021-12-19T11:59:24Z</time>
      </trkpt>
      <trkpt lat="45.34155" lon="5.72031">
        <ele>1655.1</ele>
        <time>2021-12-19T11:59:25Z</time>
      </trkpt>
      <trkpt lat="45.34155" lon="5.72031">
        <ele>1655.1</ele>
        <time>2021-12-19T11:59:26Z</time>
      </trkpt>
      <trkpt lat="45.34155" lon="5.72032">
        <ele>1655.1</ele>
        <time>2021-12-19T11:59:27Z</time>
      </trkpt>
      <trkpt lat="45.34155" lon="5.72031">
        <ele>1655.1</ele>
        <time>2021-12-19T11:59:28Z</time>
      </trkpt>
      <trkpt lat="45.34155" lon="5.72031">
        <ele>1655.1</ele>
        <time>2021-12-19T11:59:29Z</time>
      </trkpt>
      <trkpt lat="45.34155" lon="5.72031">
        <ele>1655.1</ele>
        <time>2021-12-19T11:59:30Z</time>
      </trkpt>
      <trkpt lat="45.34155" lon="5.72031">
        <ele>1655.1</ele>
        <time>2021-12-19T11:59:31Z</time>
      </trkpt>
      <trkpt lat="45.34155" lon="5.72031">
        <ele>1655.1</ele>
        <time>2021-12-19T11:59:32Z</time>
      </trkpt>
      <trkpt lat="45.34155" lon="5.72031">
        <ele>1655.1</ele>
        <time>2021-12-19T11:59:33Z</time>
      </trkpt>
      <trkpt lat="45.34155" lon="5.72031">
        <ele>1655.1</ele>
        <time>2021-12-19T11:59:34Z</time>
      </trkpt>
      <trkpt lat="45.34155" lon="5.72031">
        <ele>1655.1</ele>
        <time>2021-12-19T11:59:35Z</time>
      </trkpt>
      <trkpt lat="45.34155" lon="5.72031">
        <ele>1655.1</ele>
        <time>2021-12-19T11:59:36Z</time>
      </trkpt>
      <trkpt lat="45.34155" lon="5.72031">
        <ele>1655.1</ele>
        <time>2021-12-19T11:59:37Z</time>
      </trkpt>
      <trkpt lat="45.34155" lon="5.72031">
        <ele>1655.1</ele>
        <time>2021-12-19T11:59:38Z</time>
      </trkpt>
      <trkpt lat="45.34155" lon="5.72031">
        <ele>1655</ele>
        <time>2021-12-19T11:59:39Z</time>
      </trkpt>
      <trkpt lat="45.34155" lon="5.72031">
        <ele>1655</ele>
        <time>2021-12-19T11:59:40Z</time>
      </trkpt>
      <trkpt lat="45.34155" lon="5.72031">
        <ele>1655</ele>
        <time>2021-12-19T11:59:41Z</time>
      </trkpt>
      <trkpt lat="45.34155" lon="5.72031">
        <ele>1655</ele>
        <time>2021-12-19T11:59:42Z</time>
      </trkpt>
      <trkpt lat="45.34155" lon="5.72032">
        <ele>1655</ele>
        <time>2021-12-19T11:59:43Z</time>
      </trkpt>
      <trkpt lat="45.34156" lon="5.72032">
        <ele>1655</ele>
        <time>2021-12-19T11:59:44Z</time>
      </trkpt>
      <trkpt lat="45.34156" lon="5.72032">
        <ele>1655</ele>
        <time>2021-12-19T11:59:45Z</time>
      </trkpt>
      <trkpt lat="45.34156" lon="5.72031">
        <ele>1655</ele>
        <time>2021-12-19T11:59:46Z</time>
      </trkpt>
      <trkpt lat="45.34156" lon="5.72031">
        <ele>1655</ele>
        <time>2021-12-19T11:59:47Z</time>
      </trkpt>
      <trkpt lat="45.34156" lon="5.72031">
        <ele>1655</ele>
        <time>2021-12-19T11:59:48Z</time>
      </trkpt>
      <trkpt lat="45.34156" lon="5.72031">
        <ele>1655</ele>
        <time>2021-12-19T11:59:49Z</time>
      </trkpt>
      <trkpt lat="45.34156" lon="5.72031">
        <ele>1655</ele>
        <time>2021-12-19T11:59:50Z</time>
      </trkpt>
      <trkpt lat="45.34156" lon="5.72031">
        <ele>1655</ele>
        <time>2021-12-19T11:59:51Z</time>
      </trkpt>
      <trkpt lat="45.34156" lon="5.72031">
        <ele>1655</ele>
        <time>2021-12-19T11:59:52Z</time>
      </trkpt>
      <trkpt lat="45.34156" lon="5.72031">
        <ele>1655</ele>
        <time>2021-12-19T11:59:53Z</time>
      </trkpt>
      <trkpt lat="45.34156" lon="5.72031">
        <ele>1655</ele>
        <time>2021-12-19T11:59:54Z</time>
      </trkpt>
      <trkpt lat="45.34156" lon="5.72031">
        <ele>1655</ele>
        <time>2021-12-19T11:59:55Z</time>
      </trkpt>
      <trkpt lat="45.34156" lon="5.72031">
        <ele>1655</ele>
        <time>2021-12-19T11:59:56Z</time>
      </trkpt>
      <trkpt lat="45.34156" lon="5.72031">
        <ele>1655</ele>
        <time>2021-12-19T11:59:57Z</time>
      </trkpt>
      <trkpt lat="45.34156" lon="5.72031">
        <ele>1655</ele>
        <time>2021-12-19T11:59:58Z</time>
      </trkpt>
      <trkpt lat="45.34156" lon="5.72031">
        <ele>1655</ele>
        <time>2021-12-19T11:59:59Z</time>
      </trkpt>
      <trkpt lat="45.34156" lon="5.72031">
        <ele>1655</ele>
        <time>2021-12-19T12:00:00Z</time>
      </trkpt>
      <trkpt lat="45.34156" lon="5.7203">
        <ele>1655</ele>
        <time>2021-12-19T12:00:01Z</time>
      </trkpt>
      <trkpt lat="45.34156" lon="5.7203">
        <ele>1655</ele>
        <time>2021-12-19T12:00:02Z</time>
      </trkpt>
      <trkpt lat="45.34156" lon="5.7203">
        <ele>1655</ele>
        <time>2021-12-19T12:00:03Z</time>
      </trkpt>
      <trkpt lat="45.34156" lon="5.7203">
        <ele>1654.9</ele>
        <time>2021-12-19T12:00:04Z</time>
      </trkpt>
      <trkpt lat="45.34156" lon="5.7203">
        <ele>1654.9</ele>
        <time>2021-12-19T12:00:05Z</time>
      </trkpt>
      <trkpt lat="45.34156" lon="5.7203">
        <ele>1654.9</ele>
        <time>2021-12-19T12:00:06Z</time>
      </trkpt>
      <trkpt lat="45.34156" lon="5.7203">
        <ele>1654.9</ele>
        <time>2021-12-19T12:00:07Z</time>
      </trkpt>
      <trkpt lat="45.34156" lon="5.7203">
        <ele>1654.9</ele>
        <time>2021-12-19T12:00:08Z</time>
      </trkpt>
      <trkpt lat="45.34156" lon="5.7203">
        <ele>1654.9</ele>
        <time>2021-12-19T12:00:09Z</time>
      </trkpt>
      <trkpt lat="45.34156" lon="5.7203">
        <ele>1654.9</ele>
        <time>2021-12-19T12:00:10Z</time>
      </trkpt>
      <trkpt lat="45.34156" lon="5.7203">
        <ele>1654.9</ele>
        <time>2021-12-19T12:00:11Z</time>
      </trkpt>
      <trkpt lat="45.34156" lon="5.7203">
        <ele>1654.9</ele>
        <time>2021-12-19T12:00:12Z</time>
      </trkpt>
      <trkpt lat="45.34156" lon="5.7203">
        <ele>1654.9</ele>
        <time>2021-12-19T12:00:13Z</time>
      </trkpt>
      <trkpt lat="45.34156" lon="5.7203">
        <ele>1654.9</ele>
        <time>2021-12-19T12:00:14Z</time>
      </trkpt>
      <trkpt lat="45.34156" lon="5.7203">
        <ele>1654.9</ele>
        <time>2021-12-19T12:00:15Z</time>
      </trkpt>
      <trkpt lat="45.34156" lon="5.7203">
        <ele>1654.9</ele>
        <time>2021-12-19T12:00:16Z</time>
      </trkpt>
      <trkpt lat="45.34156" lon="5.7203">
        <ele>1654.9</ele>
        <time>2021-12-19T12:00:17Z</time>
      </trkpt>
      <trkpt lat="45.34156" lon="5.72029">
        <ele>1654.9</ele>
        <time>2021-12-19T12:00:18Z</time>
      </trkpt>
      <trkpt lat="45.34156" lon="5.72029">
        <ele>1654.9</ele>
        <time>2021-12-19T12:00:19Z</time>
      </trkpt>
      <trkpt lat="45.34156" lon="5.72029">
        <ele>1654.9</ele>
        <time>2021-12-19T12:00:20Z</time>
      </trkpt>
      <trkpt lat="45.34156" lon="5.72028">
        <ele>1654.9</ele>
        <time>2021-12-19T12:00:21Z</time>
      </trkpt>
      <trkpt lat="45.34156" lon="5.72028">
        <ele>1654.9</ele>
        <time>2021-12-19T12:00:22Z</time>
      </trkpt>
      <trkpt lat="45.34156" lon="5.72028">
        <ele>1654.9</ele>
        <time>2021-12-19T12:00:23Z</time>
      </trkpt>
      <trkpt lat="45.34156" lon="5.72029">
        <ele>1654.9</ele>
        <time>2021-12-19T12:00:24Z</time>
      </trkpt>
      <trkpt lat="45.34156" lon="5.72029">
        <ele>1654.9</ele>
        <time>2021-12-19T12:00:25Z</time>
      </trkpt>
      <trkpt lat="45.34155" lon="5.72029">
        <ele>1654.9</ele>
        <time>2021-12-19T12:00:26Z</time>
      </trkpt>
      <trkpt lat="45.34155" lon="5.72029">
        <ele>1654.9</ele>
        <time>2021-12-19T12:00:27Z</time>
      </trkpt>
      <trkpt lat="45.34155" lon="5.7203">
        <ele>1654.9</ele>
        <time>2021-12-19T12:00:28Z</time>
      </trkpt>
      <trkpt lat="45.34155" lon="5.7203">
        <ele>1654.9</ele>
        <time>2021-12-19T12:00:29Z</time>
      </trkpt>
      <trkpt lat="45.34155" lon="5.7203">
        <ele>1654.9</ele>
        <time>2021-12-19T12:00:30Z</time>
      </trkpt>
      <trkpt lat="45.34155" lon="5.7203">
        <ele>1654.9</ele>
        <time>2021-12-19T12:00:31Z</time>
      </trkpt>
      <trkpt lat="45.34155" lon="5.7203">
        <ele>1654.9</ele>
        <time>2021-12-19T12:00:32Z</time>
      </trkpt>
      <trkpt lat="45.34155" lon="5.7203">
        <ele>1654.9</ele>
        <time>2021-12-19T12:00:33Z</time>
      </trkpt>
      <trkpt lat="45.34155" lon="5.7203">
        <ele>1654.9</ele>
        <time>2021-12-19T12:00:34Z</time>
      </trkpt>
      <trkpt lat="45.34155" lon="5.7203">
        <ele>1654.9</ele>
        <time>2021-12-19T12:00:35Z</time>
      </trkpt>
      <trkpt lat="45.34155" lon="5.72029">
        <ele>1654.9</ele>
        <time>2021-12-19T12:00:36Z</time>
      </trkpt>
      <trkpt lat="45.34155" lon="5.7203">
        <ele>1654.8</ele>
        <time>2021-12-19T12:00:37Z</time>
      </trkpt>
      <trkpt lat="45.34155" lon="5.7203">
        <ele>1654.8</ele>
        <time>2021-12-19T12:00:38Z</time>
      </trkpt>
      <trkpt lat="45.34155" lon="5.7203">
        <ele>1654.8</ele>
        <time>2021-12-19T12:00:39Z</time>
      </trkpt>
      <trkpt lat="45.34155" lon="5.7203">
        <ele>1654.8</ele>
        <time>2021-12-19T12:00:40Z</time>
      </trkpt>
      <trkpt lat="45.34155" lon="5.72029">
        <ele>1654.8</ele>
        <time>2021-12-19T12:00:41Z</time>
      </trkpt>
      <trkpt lat="45.34155" lon="5.72029">
        <ele>1654.8</ele>
        <time>2021-12-19T12:00:42Z</time>
      </trkpt>
      <trkpt lat="45.34155" lon="5.72029">
        <ele>1654.8</ele>
        <time>2021-12-19T12:00:43Z</time>
      </trkpt>
      <trkpt lat="45.34155" lon="5.72029">
        <ele>1654.8</ele>
        <time>2021-12-19T12:00:44Z</time>
      </trkpt>
      <trkpt lat="45.34155" lon="5.7203">
        <ele>1654.8</ele>
        <time>2021-12-19T12:00:45Z</time>
      </trkpt>
      <trkpt lat="45.34155" lon="5.72029">
        <ele>1654.8</ele>
        <time>2021-12-19T12:00:46Z</time>
      </trkpt>
      <trkpt lat="45.34155" lon="5.72029">
        <ele>1654.8</ele>
        <time>2021-12-19T12:00:47Z</time>
      </trkpt>
      <trkpt lat="45.34155" lon="5.72029">
        <ele>1654.8</ele>
        <time>2021-12-19T12:00:48Z</time>
      </trkpt>
      <trkpt lat="45.34155" lon="5.72029">
        <ele>1654.8</ele>
        <time>2021-12-19T12:00:49Z</time>
      </trkpt>
      <trkpt lat="45.34155" lon="5.72029">
        <ele>1654.8</ele>
        <time>2021-12-19T12:00:50Z</time>
      </trkpt>
      <trkpt lat="45.34155" lon="5.72029">
        <ele>1654.8</ele>
        <time>2021-12-19T12:00:51Z</time>
      </trkpt>
      <trkpt lat="45.34155" lon="5.72029">
        <ele>1654.8</ele>
        <time>2021-12-19T12:00:52Z</time>
      </trkpt>
      <trkpt lat="45.34155" lon="5.72029">
        <ele>1654.8</ele>
        <time>2021-12-19T12:00:53Z</time>
      </trkpt>
      <trkpt lat="45.34155" lon="5.72029">
        <ele>1654.8</ele>
        <time>2021-12-19T12:00:54Z</time>
      </trkpt>
      <trkpt lat="45.34155" lon="5.72029">
        <ele>1654.8</ele>
        <time>2021-12-19T12:00:55Z</time>
      </trkpt>
      <trkpt lat="45.34155" lon="5.72029">
        <ele>1654.8</ele>
        <time>2021-12-19T12:00:56Z</time>
      </trkpt>
      <trkpt lat="45.34155" lon="5.72029">
        <ele>1654.8</ele>
        <time>2021-12-19T12:00:57Z</time>
      </trkpt>
      <trkpt lat="45.34155" lon="5.72029">
        <ele>1654.8</ele>
        <time>2021-12-19T12:00:58Z</time>
      </trkpt>
      <trkpt lat="45.34155" lon="5.72029">
        <ele>1654.8</ele>
        <time>2021-12-19T12:00:59Z</time>
      </trkpt>
      <trkpt lat="45.34156" lon="5.72029">
        <ele>1654.8</ele>
        <time>2021-12-19T12:01:00Z</time>
      </trkpt>
      <trkpt lat="45.34156" lon="5.72029">
        <ele>1654.7</ele>
        <time>2021-12-19T12:01:01Z</time>
      </trkpt>
      <trkpt lat="45.34156" lon="5.72029">
        <ele>1654.7</ele>
        <time>2021-12-19T12:01:02Z</time>
      </trkpt>
      <trkpt lat="45.34156" lon="5.72029">
        <ele>1654.7</ele>
        <time>2021-12-19T12:01:03Z</time>
      </trkpt>
      <trkpt lat="45.34156" lon="5.72029">
        <ele>1654.7</ele>
        <time>2021-12-19T12:01:04Z</time>
      </trkpt>
      <trkpt lat="45.34157" lon="5.72029">
        <ele>1654.7</ele>
        <time>2021-12-19T12:01:05Z</time>
      </trkpt>
      <trkpt lat="45.34157" lon="5.72029">
        <ele>1654.7</ele>
        <time>2021-12-19T12:01:06Z</time>
      </trkpt>
      <trkpt lat="45.34157" lon="5.72028">
        <ele>1654.7</ele>
        <time>2021-12-19T12:01:07Z</time>
      </trkpt>
      <trkpt lat="45.34157" lon="5.72028">
        <ele>1654.7</ele>
        <time>2021-12-19T12:01:08Z</time>
      </trkpt>
      <trkpt lat="45.34157" lon="5.72028">
        <ele>1654.7</ele>
        <time>2021-12-19T12:01:09Z</time>
      </trkpt>
      <trkpt lat="45.34156" lon="5.72028">
        <ele>1654.7</ele>
        <time>2021-12-19T12:01:10Z</time>
      </trkpt>
      <trkpt lat="45.34156" lon="5.72028">
        <ele>1654.7</ele>
        <time>2021-12-19T12:01:11Z</time>
      </trkpt>
      <trkpt lat="45.34156" lon="5.72029">
        <ele>1654.7</ele>
        <time>2021-12-19T12:01:12Z</time>
      </trkpt>
      <trkpt lat="45.34156" lon="5.72029">
        <ele>1654.7</ele>
        <time>2021-12-19T12:01:13Z</time>
      </trkpt>
      <trkpt lat="45.34156" lon="5.72029">
        <ele>1654.7</ele>
        <time>2021-12-19T12:01:14Z</time>
      </trkpt>
      <trkpt lat="45.34156" lon="5.72029">
        <ele>1654.7</ele>
        <time>2021-12-19T12:01:15Z</time>
      </trkpt>
      <trkpt lat="45.34156" lon="5.72029">
        <ele>1654.6</ele>
        <time>2021-12-19T12:01:16Z</time>
      </trkpt>
      <trkpt lat="45.34156" lon="5.7203">
        <ele>1654.6</ele>
        <time>2021-12-19T12:01:17Z</time>
      </trkpt>
      <trkpt lat="45.34156" lon="5.7203">
        <ele>1654.6</ele>
        <time>2021-12-19T12:01:18Z</time>
      </trkpt>
      <trkpt lat="45.34156" lon="5.7203">
        <ele>1654.6</ele>
        <time>2021-12-19T12:01:19Z</time>
      </trkpt>
      <trkpt lat="45.34156" lon="5.7203">
        <ele>1654.6</ele>
        <time>2021-12-19T12:01:20Z</time>
      </trkpt>
      <trkpt lat="45.34156" lon="5.7203">
        <ele>1654.6</ele>
        <time>2021-12-19T12:01:21Z</time>
      </trkpt>
      <trkpt lat="45.34156" lon="5.7203">
        <ele>1654.6</ele>
        <time>2021-12-19T12:01:22Z</time>
      </trkpt>
      <trkpt lat="45.34156" lon="5.7203">
        <ele>1654.6</ele>
        <time>2021-12-19T12:01:23Z</time>
      </trkpt>
      <trkpt lat="45.34156" lon="5.7203">
        <ele>1654.6</ele>
        <time>2021-12-19T12:01:24Z</time>
      </trkpt>
      <trkpt lat="45.34156" lon="5.7203">
        <ele>1654.6</ele>
        <time>2021-12-19T12:01:25Z</time>
      </trkpt>
      <trkpt lat="45.34156" lon="5.7203">
        <ele>1654.6</ele>
        <time>2021-12-19T12:01:26Z</time>
      </trkpt>
      <trkpt lat="45.34156" lon="5.7203">
        <ele>1654.6</ele>
        <time>2021-12-19T12:01:27Z</time>
      </trkpt>
      <trkpt lat="45.34156" lon="5.7203">
        <ele>1654.6</ele>
        <time>2021-12-19T12:01:28Z</time>
      </trkpt>
      <trkpt lat="45.34156" lon="5.7203">
        <ele>1654.6</ele>
        <time>2021-12-19T12:01:29Z</time>
      </trkpt>
      <trkpt lat="45.34156" lon="5.7203">
        <ele>1654.6</ele>
        <time>2021-12-19T12:01:30Z</time>
      </trkpt>
      <trkpt lat="45.34156" lon="5.7203">
        <ele>1654.6</ele>
        <time>2021-12-19T12:01:31Z</time>
      </trkpt>
      <trkpt lat="45.34156" lon="5.7203">
        <ele>1654.6</ele>
        <time>2021-12-19T12:01:32Z</time>
      </trkpt>
      <trkpt lat="45.34156" lon="5.7203">
        <ele>1654.6</ele>
        <time>2021-12-19T12:01:33Z</time>
      </trkpt>
      <trkpt lat="45.34156" lon="5.7203">
        <ele>1654.6</ele>
        <time>2021-12-19T12:01:34Z</time>
      </trkpt>
      <trkpt lat="45.34156" lon="5.7203">
        <ele>1654.6</ele>
        <time>2021-12-19T12:01:35Z</time>
      </trkpt>
      <trkpt lat="45.34156" lon="5.7203">
        <ele>1654.6</ele>
        <time>2021-12-19T12:01:36Z</time>
      </trkpt>
      <trkpt lat="45.34156" lon="5.7203">
        <ele>1654.6</ele>
        <time>2021-12-19T12:01:37Z</time>
      </trkpt>
      <trkpt lat="45.34156" lon="5.72029">
        <ele>1654.6</ele>
        <time>2021-12-19T12:01:38Z</time>
      </trkpt>
      <trkpt lat="45.34156" lon="5.72029">
        <ele>1654.6</ele>
        <time>2021-12-19T12:01:39Z</time>
      </trkpt>
      <trkpt lat="45.34156" lon="5.72029">
        <ele>1654.5</ele>
        <time>2021-12-19T12:01:40Z</time>
      </trkpt>
      <trkpt lat="45.34156" lon="5.72029">
        <ele>1654.5</ele>
        <time>2021-12-19T12:01:41Z</time>
      </trkpt>
      <trkpt lat="45.34156" lon="5.72029">
        <ele>1654.5</ele>
        <time>2021-12-19T12:01:42Z</time>
      </trkpt>
      <trkpt lat="45.34156" lon="5.72029">
        <ele>1654.5</ele>
        <time>2021-12-19T12:01:43Z</time>
      </trkpt>
      <trkpt lat="45.34156" lon="5.72029">
        <ele>1654.5</ele>
        <time>2021-12-19T12:01:44Z</time>
      </trkpt>
      <trkpt lat="45.34156" lon="5.72029">
        <ele>1654.5</ele>
        <time>2021-12-19T12:01:45Z</time>
      </trkpt>
      <trkpt lat="45.34156" lon="5.72029">
        <ele>1654.5</ele>
        <time>2021-12-19T12:01:46Z</time>
      </trkpt>
      <trkpt lat="45.34156" lon="5.72029">
        <ele>1654.5</ele>
        <time>2021-12-19T12:01:47Z</time>
      </trkpt>
      <trkpt lat="45.34156" lon="5.72029">
        <ele>1654.5</ele>
        <time>2021-12-19T12:01:48Z</time>
      </trkpt>
      <trkpt lat="45.34156" lon="5.72029">
        <ele>1654.5</ele>
        <time>2021-12-19T12:01:49Z</time>
      </trkpt>
      <trkpt lat="45.34156" lon="5.72029">
        <ele>1654.5</ele>
        <time>2021-12-19T12:01:50Z</time>
      </trkpt>
      <trkpt lat="45.34156" lon="5.72029">
        <ele>1654.5</ele>
        <time>2021-12-19T12:01:51Z</time>
      </trkpt>
      <trkpt lat="45.34156" lon="5.72029">
        <ele>1654.5</ele>
        <time>2021-12-19T12:01:52Z</time>
      </trkpt>
      <trkpt lat="45.34156" lon="5.72029">
        <ele>1654.5</ele>
        <time>2021-12-19T12:01:53Z</time>
      </trkpt>
      <trkpt lat="45.34156" lon="5.72028">
        <ele>1654.5</ele>
        <time>2021-12-19T12:01:54Z</time>
      </trkpt>
      <trkpt lat="45.34156" lon="5.72028">
        <ele>1654.5</ele>
        <time>2021-12-19T12:01:55Z</time>
      </trkpt>
      <trkpt lat="45.34156" lon="5.72028">
        <ele>1654.5</ele>
        <time>2021-12-19T12:01:56Z</time>
      </trkpt>
      <trkpt lat="45.34156" lon="5.72028">
        <ele>1654.5</ele>
        <time>2021-12-19T12:01:57Z</time>
      </trkpt>
      <trkpt lat="45.34156" lon="5.72028">
        <ele>1654.5</ele>
        <time>2021-12-19T12:01:58Z</time>
      </trkpt>
      <trkpt lat="45.34155" lon="5.72028">
        <ele>1654.5</ele>
        <time>2021-12-19T12:01:59Z</time>
      </trkpt>
      <trkpt lat="45.34155" lon="5.72028">
        <ele>1654.5</ele>
        <time>2021-12-19T12:02:00Z</time>
      </trkpt>
      <trkpt lat="45.34155" lon="5.72028">
        <ele>1654.5</ele>
        <time>2021-12-19T12:02:01Z</time>
      </trkpt>
      <trkpt lat="45.34155" lon="5.72028">
        <ele>1654.5</ele>
        <time>2021-12-19T12:02:02Z</time>
      </trkpt>
      <trkpt lat="45.34155" lon="5.72028">
        <ele>1654.5</ele>
        <time>2021-12-19T12:02:03Z</time>
      </trkpt>
      <trkpt lat="45.34155" lon="5.72028">
        <ele>1654.5</ele>
        <time>2021-12-19T12:02:04Z</time>
      </trkpt>
      <trkpt lat="45.34155" lon="5.72028">
        <ele>1654.5</ele>
        <time>2021-12-19T12:02:05Z</time>
      </trkpt>
      <trkpt lat="45.34155" lon="5.72028">
        <ele>1654.5</ele>
        <time>2021-12-19T12:02:06Z</time>
      </trkpt>
      <trkpt lat="45.34155" lon="5.72028">
        <ele>1654.5</ele>
        <time>2021-12-19T12:02:07Z</time>
      </trkpt>
      <trkpt lat="45.34155" lon="5.72028">
        <ele>1654.5</ele>
        <time>2021-12-19T12:02:08Z</time>
      </trkpt>
      <trkpt lat="45.34155" lon="5.72028">
        <ele>1654.5</ele>
        <time>2021-12-19T12:02:09Z</time>
      </trkpt>
      <trkpt lat="45.34155" lon="5.72028">
        <ele>1654.4</ele>
        <time>2021-12-19T12:02:10Z</time>
      </trkpt>
      <trkpt lat="45.34155" lon="5.72028">
        <ele>1654.4</ele>
        <time>2021-12-19T12:02:11Z</time>
      </trkpt>
      <trkpt lat="45.34155" lon="5.72028">
        <ele>1654.4</ele>
        <time>2021-12-19T12:02:12Z</time>
      </trkpt>
      <trkpt lat="45.34155" lon="5.72028">
        <ele>1654.4</ele>
        <time>2021-12-19T12:02:13Z</time>
      </trkpt>
      <trkpt lat="45.34155" lon="5.72028">
        <ele>1654.4</ele>
        <time>2021-12-19T12:02:14Z</time>
      </trkpt>
      <trkpt lat="45.34155" lon="5.72028">
        <ele>1654.4</ele>
        <time>2021-12-19T12:02:15Z</time>
      </trkpt>
      <trkpt lat="45.34155" lon="5.72028">
        <ele>1654.4</ele>
        <time>2021-12-19T12:02:16Z</time>
      </trkpt>
      <trkpt lat="45.34155" lon="5.72028">
        <ele>1654.4</ele>
        <time>2021-12-19T12:02:17Z</time>
      </trkpt>
      <trkpt lat="45.34155" lon="5.72029">
        <ele>1654.4</ele>
        <time>2021-12-19T12:02:18Z</time>
      </trkpt>
      <trkpt lat="45.34155" lon="5.72029">
        <ele>1654.4</ele>
        <time>2021-12-19T12:02:19Z</time>
      </trkpt>
      <trkpt lat="45.34155" lon="5.72029">
        <ele>1654.4</ele>
        <time>2021-12-19T12:02:20Z</time>
      </trkpt>
      <trkpt lat="45.34156" lon="5.72029">
        <ele>1654.4</ele>
        <time>2021-12-19T12:02:21Z</time>
      </trkpt>
      <trkpt lat="45.34156" lon="5.72029">
        <ele>1654.4</ele>
        <time>2021-12-19T12:02:22Z</time>
      </trkpt>
      <trkpt lat="45.34156" lon="5.72028">
        <ele>1654.4</ele>
        <time>2021-12-19T12:02:23Z</time>
      </trkpt>
      <trkpt lat="45.34156" lon="5.72028">
        <ele>1654.4</ele>
        <time>2021-12-19T12:02:24Z</time>
      </trkpt>
      <trkpt lat="45.34156" lon="5.72028">
        <ele>1654.4</ele>
        <time>2021-12-19T12:02:25Z</time>
      </trkpt>
      <trkpt lat="45.34156" lon="5.72028">
        <ele>1654.4</ele>
        <time>2021-12-19T12:02:26Z</time>
      </trkpt>
      <trkpt lat="45.34156" lon="5.72028">
        <ele>1654.4</ele>
        <time>2021-12-19T12:02:27Z</time>
      </trkpt>
      <trkpt lat="45.34156" lon="5.72028">
        <ele>1654.4</ele>
        <time>2021-12-19T12:02:28Z</time>
      </trkpt>
      <trkpt lat="45.34156" lon="5.72028">
        <ele>1654.4</ele>
        <time>2021-12-19T12:02:29Z</time>
      </trkpt>
      <trkpt lat="45.34156" lon="5.72028">
        <ele>1654.4</ele>
        <time>2021-12-19T12:02:30Z</time>
      </trkpt>
      <trkpt lat="45.34156" lon="5.72028">
        <ele>1654.4</ele>
        <time>2021-12-19T12:02:31Z</time>
      </trkpt>
      <trkpt lat="45.34156" lon="5.72028">
        <ele>1654.4</ele>
        <time>2021-12-19T12:02:32Z</time>
      </trkpt>
      <trkpt lat="45.34156" lon="5.72028">
        <ele>1654.4</ele>
        <time>2021-12-19T12:02:33Z</time>
      </trkpt>
      <trkpt lat="45.34157" lon="5.72028">
        <ele>1654.4</ele>
        <time>2021-12-19T12:02:34Z</time>
      </trkpt>
      <trkpt lat="45.34157" lon="5.72028">
        <ele>1654.4</ele>
        <time>2021-12-19T12:02:35Z</time>
      </trkpt>
      <trkpt lat="45.34157" lon="5.72028">
        <ele>1654.4</ele>
        <time>2021-12-19T12:02:36Z</time>
      </trkpt>
      <trkpt lat="45.34157" lon="5.72029">
        <ele>1654.3</ele>
        <time>2021-12-19T12:02:37Z</time>
      </trkpt>
      <trkpt lat="45.34157" lon="5.72029">
        <ele>1654.3</ele>
        <time>2021-12-19T12:02:38Z</time>
      </trkpt>
      <trkpt lat="45.34157" lon="5.72029">
        <ele>1654.3</ele>
        <time>2021-12-19T12:02:39Z</time>
      </trkpt>
      <trkpt lat="45.34157" lon="5.72029">
        <ele>1654.3</ele>
        <time>2021-12-19T12:02:40Z</time>
      </trkpt>
      <trkpt lat="45.34157" lon="5.72029">
        <ele>1654.3</ele>
        <time>2021-12-19T12:02:41Z</time>
      </trkpt>
      <trkpt lat="45.34156" lon="5.7203">
        <ele>1654.3</ele>
        <time>2021-12-19T12:02:42Z</time>
      </trkpt>
      <trkpt lat="45.34156" lon="5.7203">
        <ele>1654.3</ele>
        <time>2021-12-19T12:02:43Z</time>
      </trkpt>
      <trkpt lat="45.34156" lon="5.7203">
        <ele>1654.3</ele>
        <time>2021-12-19T12:02:44Z</time>
      </trkpt>
      <trkpt lat="45.34156" lon="5.7203">
        <ele>1654.3</ele>
        <time>2021-12-19T12:02:45Z</time>
      </trkpt>
      <trkpt lat="45.34156" lon="5.7203">
        <ele>1654.3</ele>
        <time>2021-12-19T12:02:46Z</time>
      </trkpt>
      <trkpt lat="45.34156" lon="5.7203">
        <ele>1654.3</ele>
        <time>2021-12-19T12:02:47Z</time>
      </trkpt>
      <trkpt lat="45.34156" lon="5.7203">
        <ele>1654.3</ele>
        <time>2021-12-19T12:02:48Z</time>
      </trkpt>
      <trkpt lat="45.34156" lon="5.72031">
        <ele>1654.3</ele>
        <time>2021-12-19T12:02:49Z</time>
      </trkpt>
      <trkpt lat="45.34156" lon="5.7203">
        <ele>1654.3</ele>
        <time>2021-12-19T12:02:50Z</time>
      </trkpt>
      <trkpt lat="45.34156" lon="5.7203">
        <ele>1654.3</ele>
        <time>2021-12-19T12:02:51Z</time>
      </trkpt>
      <trkpt lat="45.34156" lon="5.7203">
        <ele>1654.3</ele>
        <time>2021-12-19T12:02:52Z</time>
      </trkpt>
      <trkpt lat="45.34156" lon="5.7203">
        <ele>1654.3</ele>
        <time>2021-12-19T12:02:53Z</time>
      </trkpt>
      <trkpt lat="45.34156" lon="5.7203">
        <ele>1654.3</ele>
        <time>2021-12-19T12:02:54Z</time>
      </trkpt>
      <trkpt lat="45.34156" lon="5.7203">
        <ele>1654.3</ele>
        <time>2021-12-19T12:02:55Z</time>
      </trkpt>
      <trkpt lat="45.34156" lon="5.7203">
        <ele>1654.3</ele>
        <time>2021-12-19T12:02:56Z</time>
      </trkpt>
      <trkpt lat="45.34156" lon="5.7203">
        <ele>1654.3</ele>
        <time>2021-12-19T12:02:57Z</time>
      </trkpt>
      <trkpt lat="45.34156" lon="5.72031">
        <ele>1654.3</ele>
        <time>2021-12-19T12:02:58Z</time>
      </trkpt>
      <trkpt lat="45.34156" lon="5.72031">
        <ele>1654.3</ele>
        <time>2021-12-19T12:02:59Z</time>
      </trkpt>
      <trkpt lat="45.34156" lon="5.72031">
        <ele>1654.3</ele>
        <time>2021-12-19T12:03:00Z</time>
      </trkpt>
      <trkpt lat="45.34155" lon="5.72031">
        <ele>1654.2</ele>
        <time>2021-12-19T12:03:01Z</time>
      </trkpt>
      <trkpt lat="45.34155" lon="5.72031">
        <ele>1654.2</ele>
        <time>2021-12-19T12:03:02Z</time>
      </trkpt>
      <trkpt lat="45.34155" lon="5.72031">
        <ele>1654.2</ele>
        <time>2021-12-19T12:03:03Z</time>
      </trkpt>
      <trkpt lat="45.34155" lon="5.72031">
        <ele>1654.2</ele>
        <time>2021-12-19T12:03:04Z</time>
      </trkpt>
      <trkpt lat="45.34155" lon="5.72031">
        <ele>1654.2</ele>
        <time>2021-12-19T12:03:05Z</time>
      </trkpt>
      <trkpt lat="45.34155" lon="5.72031">
        <ele>1654.2</ele>
        <time>2021-12-19T12:03:06Z</time>
      </trkpt>
      <trkpt lat="45.34155" lon="5.72031">
        <ele>1654.2</ele>
        <time>2021-12-19T12:03:07Z</time>
      </trkpt>
      <trkpt lat="45.34155" lon="5.72031">
        <ele>1654.2</ele>
        <time>2021-12-19T12:03:08Z</time>
      </trkpt>
      <trkpt lat="45.34155" lon="5.72031">
        <ele>1654.2</ele>
        <time>2021-12-19T12:03:09Z</time>
      </trkpt>
      <trkpt lat="45.34155" lon="5.72031">
        <ele>1654.2</ele>
        <time>2021-12-19T12:03:10Z</time>
      </trkpt>
      <trkpt lat="45.34155" lon="5.72031">
        <ele>1654.2</ele>
        <time>2021-12-19T12:03:11Z</time>
      </trkpt>
      <trkpt lat="45.34155" lon="5.72031">
        <ele>1654.2</ele>
        <time>2021-12-19T12:03:12Z</time>
      </trkpt>
      <trkpt lat="45.34154" lon="5.72031">
        <ele>1654.2</ele>
        <time>2021-12-19T12:03:13Z</time>
      </trkpt>
      <trkpt lat="45.34154" lon="5.72031">
        <ele>1654.2</ele>
        <time>2021-12-19T12:03:14Z</time>
      </trkpt>
      <trkpt lat="45.34154" lon="5.72031">
        <ele>1654.2</ele>
        <time>2021-12-19T12:03:15Z</time>
      </trkpt>
      <trkpt lat="45.34154" lon="5.72032">
        <ele>1654.2</ele>
        <time>2021-12-19T12:03:16Z</time>
      </trkpt>
      <trkpt lat="45.34154" lon="5.72032">
        <ele>1654.2</ele>
        <time>2021-12-19T12:03:17Z</time>
      </trkpt>
      <trkpt lat="45.34154" lon="5.72031">
        <ele>1654.2</ele>
        <time>2021-12-19T12:03:18Z</time>
      </trkpt>
      <trkpt lat="45.34154" lon="5.72031">
        <ele>1654.2</ele>
        <time>2021-12-19T12:03:19Z</time>
      </trkpt>
      <trkpt lat="45.34154" lon="5.72031">
        <ele>1654.2</ele>
        <time>2021-12-19T12:03:20Z</time>
      </trkpt>
      <trkpt lat="45.34154" lon="5.72031">
        <ele>1654.2</ele>
        <time>2021-12-19T12:03:21Z</time>
      </trkpt>
      <trkpt lat="45.34154" lon="5.7203">
        <ele>1654.2</ele>
        <time>2021-12-19T12:03:22Z</time>
      </trkpt>
      <trkpt lat="45.34154" lon="5.7203">
        <ele>1654.2</ele>
        <time>2021-12-19T12:03:23Z</time>
      </trkpt>
      <trkpt lat="45.34154" lon="5.7203">
        <ele>1654.2</ele>
        <time>2021-12-19T12:03:24Z</time>
      </trkpt>
      <trkpt lat="45.34154" lon="5.7203">
        <ele>1654.2</ele>
        <time>2021-12-19T12:03:25Z</time>
      </trkpt>
      <trkpt lat="45.34154" lon="5.7203">
        <ele>1654.2</ele>
        <time>2021-12-19T12:03:26Z</time>
      </trkpt>
      <trkpt lat="45.34154" lon="5.7203">
        <ele>1654.2</ele>
        <time>2021-12-19T12:03:27Z</time>
      </trkpt>
      <trkpt lat="45.34154" lon="5.7203">
        <ele>1654.2</ele>
        <time>2021-12-19T12:03:28Z</time>
      </trkpt>
      <trkpt lat="45.34154" lon="5.7203">
        <ele>1654.1</ele>
        <time>2021-12-19T12:03:29Z</time>
      </trkpt>
      <trkpt lat="45.34154" lon="5.7203">
        <ele>1654.1</ele>
        <time>2021-12-19T12:03:30Z</time>
      </trkpt>
      <trkpt lat="45.34154" lon="5.72031">
        <ele>1654.1</ele>
        <time>2021-12-19T12:03:31Z</time>
      </trkpt>
      <trkpt lat="45.34154" lon="5.72031">
        <ele>1654.1</ele>
        <time>2021-12-19T12:03:32Z</time>
      </trkpt>
      <trkpt lat="45.34154" lon="5.72031">
        <ele>1654.1</ele>
        <time>2021-12-19T12:03:33Z</time>
      </trkpt>
      <trkpt lat="45.34154" lon="5.72031">
        <ele>1654.1</ele>
        <time>2021-12-19T12:03:34Z</time>
      </trkpt>
      <trkpt lat="45.34154" lon="5.72031">
        <ele>1654.1</ele>
        <time>2021-12-19T12:03:35Z</time>
      </trkpt>
      <trkpt lat="45.34154" lon="5.72031">
        <ele>1654.1</ele>
        <time>2021-12-19T12:03:36Z</time>
      </trkpt>
      <trkpt lat="45.34154" lon="5.7203">
        <ele>1654.1</ele>
        <time>2021-12-19T12:03:37Z</time>
      </trkpt>
      <trkpt lat="45.34154" lon="5.7203">
        <ele>1654.1</ele>
        <time>2021-12-19T12:03:38Z</time>
      </trkpt>
      <trkpt lat="45.34154" lon="5.7203">
        <ele>1654.1</ele>
        <time>2021-12-19T12:03:39Z</time>
      </trkpt>
      <trkpt lat="45.34154" lon="5.7203">
        <ele>1654.1</ele>
        <time>2021-12-19T12:03:40Z</time>
      </trkpt>
      <trkpt lat="45.34154" lon="5.7203">
        <ele>1654.1</ele>
        <time>2021-12-19T12:03:41Z</time>
      </trkpt>
      <trkpt lat="45.34154" lon="5.7203">
        <ele>1654.1</ele>
        <time>2021-12-19T12:03:42Z</time>
      </trkpt>
      <trkpt lat="45.34154" lon="5.7203">
        <ele>1654.1</ele>
        <time>2021-12-19T12:03:43Z</time>
      </trkpt>
      <trkpt lat="45.34154" lon="5.7203">
        <ele>1654.1</ele>
        <time>2021-12-19T12:03:44Z</time>
      </trkpt>
      <trkpt lat="45.34154" lon="5.7203">
        <ele>1654.1</ele>
        <time>2021-12-19T12:03:45Z</time>
      </trkpt>
      <trkpt lat="45.34154" lon="5.7203">
        <ele>1654.1</ele>
        <time>2021-12-19T12:03:46Z</time>
      </trkpt>
      <trkpt lat="45.34154" lon="5.7203">
        <ele>1654.1</ele>
        <time>2021-12-19T12:03:47Z</time>
      </trkpt>
      <trkpt lat="45.34154" lon="5.7203">
        <ele>1654.1</ele>
        <time>2021-12-19T12:03:48Z</time>
      </trkpt>
      <trkpt lat="45.34154" lon="5.7203">
        <ele>1654.1</ele>
        <time>2021-12-19T12:03:49Z</time>
      </trkpt>
      <trkpt lat="45.34154" lon="5.7203">
        <ele>1654.1</ele>
        <time>2021-12-19T12:03:50Z</time>
      </trkpt>
      <trkpt lat="45.34154" lon="5.7203">
        <ele>1654.1</ele>
        <time>2021-12-19T12:03:51Z</time>
      </trkpt>
      <trkpt lat="45.34154" lon="5.7203">
        <ele>1654.1</ele>
        <time>2021-12-19T12:03:52Z</time>
      </trkpt>
      <trkpt lat="45.34154" lon="5.7203">
        <ele>1654.1</ele>
        <time>2021-12-19T12:03:53Z</time>
      </trkpt>
      <trkpt lat="45.34154" lon="5.7203">
        <ele>1654.1</ele>
        <time>2021-12-19T12:03:54Z</time>
      </trkpt>
      <trkpt lat="45.34154" lon="5.7203">
        <ele>1654.1</ele>
        <time>2021-12-19T12:03:55Z</time>
      </trkpt>
      <trkpt lat="45.34155" lon="5.7203">
        <ele>1654.1</ele>
        <time>2021-12-19T12:03:56Z</time>
      </trkpt>
      <trkpt lat="45.34154" lon="5.7203">
        <ele>1654.1</ele>
        <time>2021-12-19T12:03:57Z</time>
      </trkpt>
      <trkpt lat="45.34154" lon="5.7203">
        <ele>1654.1</ele>
        <time>2021-12-19T12:03:58Z</time>
      </trkpt>
      <trkpt lat="45.34154" lon="5.7203">
        <ele>1654.1</ele>
        <time>2021-12-19T12:03:59Z</time>
      </trkpt>
      <trkpt lat="45.34154" lon="5.7203">
        <ele>1654.1</ele>
        <time>2021-12-19T12:04:00Z</time>
      </trkpt>
      <trkpt lat="45.34154" lon="5.7203">
        <ele>1654.1</ele>
        <time>2021-12-19T12:04:01Z</time>
      </trkpt>
      <trkpt lat="45.34154" lon="5.7203">
        <ele>1654.1</ele>
        <time>2021-12-19T12:04:02Z</time>
      </trkpt>
      <trkpt lat="45.34154" lon="5.7203">
        <ele>1654.1</ele>
        <time>2021-12-19T12:04:03Z</time>
      </trkpt>
      <trkpt lat="45.34154" lon="5.7203">
        <ele>1654.1</ele>
        <time>2021-12-19T12:04:04Z</time>
      </trkpt>
      <trkpt lat="45.34153" lon="5.7203">
        <ele>1654.1</ele>
        <time>2021-12-19T12:04:05Z</time>
      </trkpt>
      <trkpt lat="45.34153" lon="5.7203">
        <ele>1654.1</ele>
        <time>2021-12-19T12:04:06Z</time>
      </trkpt>
      <trkpt lat="45.34153" lon="5.7203">
        <ele>1654.1</ele>
        <time>2021-12-19T12:04:07Z</time>
      </trkpt>
      <trkpt lat="45.34153" lon="5.7203">
        <ele>1654.1</ele>
        <time>2021-12-19T12:04:08Z</time>
      </trkpt>
      <trkpt lat="45.34153" lon="5.7203">
        <ele>1654.1</ele>
        <time>2021-12-19T12:04:09Z</time>
      </trkpt>
      <trkpt lat="45.34153" lon="5.7203">
        <ele>1654.1</ele>
        <time>2021-12-19T12:04:10Z</time>
      </trkpt>
      <trkpt lat="45.34153" lon="5.7203">
        <ele>1654</ele>
        <time>2021-12-19T12:04:11Z</time>
      </trkpt>
      <trkpt lat="45.34153" lon="5.7203">
        <ele>1654</ele>
        <time>2021-12-19T12:04:12Z</time>
      </trkpt>
      <trkpt lat="45.34153" lon="5.7203">
        <ele>1654</ele>
        <time>2021-12-19T12:04:13Z</time>
      </trkpt>
      <trkpt lat="45.34153" lon="5.7203">
        <ele>1654</ele>
        <time>2021-12-19T12:04:14Z</time>
      </trkpt>
      <trkpt lat="45.34153" lon="5.7203">
        <ele>1654</ele>
        <time>2021-12-19T12:04:15Z</time>
      </trkpt>
      <trkpt lat="45.34153" lon="5.7203">
        <ele>1654</ele>
        <time>2021-12-19T12:04:16Z</time>
      </trkpt>
      <trkpt lat="45.34152" lon="5.7203">
        <ele>1654</ele>
        <time>2021-12-19T12:04:17Z</time>
      </trkpt>
      <trkpt lat="45.34152" lon="5.7203">
        <ele>1654</ele>
        <time>2021-12-19T12:04:18Z</time>
      </trkpt>
      <trkpt lat="45.34152" lon="5.7203">
        <ele>1654</ele>
        <time>2021-12-19T12:04:19Z</time>
      </trkpt>
      <trkpt lat="45.34152" lon="5.7203">
        <ele>1654</ele>
        <time>2021-12-19T12:04:20Z</time>
      </trkpt>
      <trkpt lat="45.34152" lon="5.7203">
        <ele>1654</ele>
        <time>2021-12-19T12:04:21Z</time>
      </trkpt>
      <trkpt lat="45.34153" lon="5.7203">
        <ele>1654</ele>
        <time>2021-12-19T12:04:22Z</time>
      </trkpt>
      <trkpt lat="45.34153" lon="5.7203">
        <ele>1654</ele>
        <time>2021-12-19T12:04:23Z</time>
      </trkpt>
      <trkpt lat="45.34152" lon="5.7203">
        <ele>1654</ele>
        <time>2021-12-19T12:04:24Z</time>
      </trkpt>
      <trkpt lat="45.34152" lon="5.72029">
        <ele>1654</ele>
        <time>2021-12-19T12:04:25Z</time>
      </trkpt>
      <trkpt lat="45.34152" lon="5.72029">
        <ele>1654</ele>
        <time>2021-12-19T12:04:26Z</time>
      </trkpt>
      <trkpt lat="45.34152" lon="5.72029">
        <ele>1654</ele>
        <time>2021-12-19T12:04:27Z</time>
      </trkpt>
      <trkpt lat="45.34153" lon="5.72029">
        <ele>1654</ele>
        <time>2021-12-19T12:04:28Z</time>
      </trkpt>
      <trkpt lat="45.34153" lon="5.72029">
        <ele>1654</ele>
        <time>2021-12-19T12:04:29Z</time>
      </trkpt>
      <trkpt lat="45.34152" lon="5.72029">
        <ele>1653.9</ele>
        <time>2021-12-19T12:04:30Z</time>
      </trkpt>
      <trkpt lat="45.34152" lon="5.72029">
        <ele>1653.9</ele>
        <time>2021-12-19T12:04:31Z</time>
      </trkpt>
      <trkpt lat="45.34152" lon="5.72029">
        <ele>1653.9</ele>
        <time>2021-12-19T12:04:32Z</time>
      </trkpt>
      <trkpt lat="45.34152" lon="5.72028">
        <ele>1653.9</ele>
        <time>2021-12-19T12:04:33Z</time>
      </trkpt>
      <trkpt lat="45.34153" lon="5.72028">
        <ele>1653.9</ele>
        <time>2021-12-19T12:04:34Z</time>
      </trkpt>
      <trkpt lat="45.34153" lon="5.72028">
        <ele>1653.9</ele>
        <time>2021-12-19T12:04:35Z</time>
      </trkpt>
      <trkpt lat="45.34153" lon="5.72028">
        <ele>1653.9</ele>
        <time>2021-12-19T12:04:36Z</time>
      </trkpt>
      <trkpt lat="45.34153" lon="5.72028">
        <ele>1653.9</ele>
        <time>2021-12-19T12:04:37Z</time>
      </trkpt>
      <trkpt lat="45.34153" lon="5.72028">
        <ele>1653.9</ele>
        <time>2021-12-19T12:04:38Z</time>
      </trkpt>
      <trkpt lat="45.34153" lon="5.72028">
        <ele>1653.9</ele>
        <time>2021-12-19T12:04:39Z</time>
      </trkpt>
      <trkpt lat="45.34153" lon="5.72028">
        <ele>1653.9</ele>
        <time>2021-12-19T12:04:40Z</time>
      </trkpt>
      <trkpt lat="45.34153" lon="5.72028">
        <ele>1653.9</ele>
        <time>2021-12-19T12:04:41Z</time>
      </trkpt>
      <trkpt lat="45.34153" lon="5.72028">
        <ele>1653.9</ele>
        <time>2021-12-19T12:04:42Z</time>
      </trkpt>
      <trkpt lat="45.34153" lon="5.72028">
        <ele>1653.9</ele>
        <time>2021-12-19T12:04:43Z</time>
      </trkpt>
      <trkpt lat="45.34153" lon="5.72028">
        <ele>1653.9</ele>
        <time>2021-12-19T12:04:44Z</time>
      </trkpt>
      <trkpt lat="45.34153" lon="5.72028">
        <ele>1653.9</ele>
        <time>2021-12-19T12:04:45Z</time>
      </trkpt>
      <trkpt lat="45.34153" lon="5.72028">
        <ele>1653.9</ele>
        <time>2021-12-19T12:04:46Z</time>
      </trkpt>
      <trkpt lat="45.34153" lon="5.72028">
        <ele>1653.9</ele>
        <time>2021-12-19T12:04:47Z</time>
      </trkpt>
      <trkpt lat="45.34153" lon="5.72028">
        <ele>1653.9</ele>
        <time>2021-12-19T12:04:48Z</time>
      </trkpt>
      <trkpt lat="45.34153" lon="5.72028">
        <ele>1653.9</ele>
        <time>2021-12-19T12:04:49Z</time>
      </trkpt>
      <trkpt lat="45.34153" lon="5.72028">
        <ele>1653.9</ele>
        <time>2021-12-19T12:04:50Z</time>
      </trkpt>
      <trkpt lat="45.34153" lon="5.72028">
        <ele>1653.9</ele>
        <time>2021-12-19T12:04:51Z</time>
      </trkpt>
      <trkpt lat="45.34153" lon="5.72028">
        <ele>1653.9</ele>
        <time>2021-12-19T12:04:52Z</time>
      </trkpt>
      <trkpt lat="45.34153" lon="5.72028">
        <ele>1653.9</ele>
        <time>2021-12-19T12:04:53Z</time>
      </trkpt>
      <trkpt lat="45.34153" lon="5.72028">
        <ele>1653.9</ele>
        <time>2021-12-19T12:04:54Z</time>
      </trkpt>
      <trkpt lat="45.34153" lon="5.72028">
        <ele>1653.9</ele>
        <time>2021-12-19T12:04:55Z</time>
      </trkpt>
      <trkpt lat="45.34153" lon="5.72028">
        <ele>1653.9</ele>
        <time>2021-12-19T12:04:56Z</time>
      </trkpt>
      <trkpt lat="45.34153" lon="5.72028">
        <ele>1653.9</ele>
        <time>2021-12-19T12:04:57Z</time>
      </trkpt>
      <trkpt lat="45.34153" lon="5.72028">
        <ele>1653.9</ele>
        <time>2021-12-19T12:04:58Z</time>
      </trkpt>
      <trkpt lat="45.34153" lon="5.72027">
        <ele>1653.9</ele>
        <time>2021-12-19T12:04:59Z</time>
      </trkpt>
      <trkpt lat="45.34153" lon="5.72027">
        <ele>1653.9</ele>
        <time>2021-12-19T12:05:00Z</time>
      </trkpt>
      <trkpt lat="45.34153" lon="5.72027">
        <ele>1653.9</ele>
        <time>2021-12-19T12:05:01Z</time>
      </trkpt>
      <trkpt lat="45.34153" lon="5.72027">
        <ele>1653.9</ele>
        <time>2021-12-19T12:05:02Z</time>
      </trkpt>
      <trkpt lat="45.34153" lon="5.72027">
        <ele>1653.9</ele>
        <time>2021-12-19T12:05:03Z</time>
      </trkpt>
      <trkpt lat="45.34153" lon="5.72027">
        <ele>1653.9</ele>
        <time>2021-12-19T12:05:04Z</time>
      </trkpt>
      <trkpt lat="45.34153" lon="5.72027">
        <ele>1653.9</ele>
        <time>2021-12-19T12:05:05Z</time>
      </trkpt>
      <trkpt lat="45.34153" lon="5.72028">
        <ele>1653.9</ele>
        <time>2021-12-19T12:05:06Z</time>
      </trkpt>
      <trkpt lat="45.34154" lon="5.72028">
        <ele>1653.8</ele>
        <time>2021-12-19T12:05:07Z</time>
      </trkpt>
      <trkpt lat="45.34154" lon="5.72028">
        <ele>1653.8</ele>
        <time>2021-12-19T12:05:08Z</time>
      </trkpt>
      <trkpt lat="45.34154" lon="5.72028">
        <ele>1653.8</ele>
        <time>2021-12-19T12:05:09Z</time>
      </trkpt>
      <trkpt lat="45.34154" lon="5.72029">
        <ele>1653.8</ele>
        <time>2021-12-19T12:05:10Z</time>
      </trkpt>
      <trkpt lat="45.34154" lon="5.72029">
        <ele>1653.8</ele>
        <time>2021-12-19T12:05:11Z</time>
      </trkpt>
      <trkpt lat="45.34154" lon="5.72029">
        <ele>1653.8</ele>
        <time>2021-12-19T12:05:12Z</time>
      </trkpt>
      <trkpt lat="45.34154" lon="5.72029">
        <ele>1653.8</ele>
        <time>2021-12-19T12:05:13Z</time>
      </trkpt>
      <trkpt lat="45.34154" lon="5.72029">
        <ele>1653.8</ele>
        <time>2021-12-19T12:05:14Z</time>
      </trkpt>
      <trkpt lat="45.34154" lon="5.72029">
        <ele>1653.8</ele>
        <time>2021-12-19T12:05:15Z</time>
      </trkpt>
      <trkpt lat="45.34154" lon="5.72029">
        <ele>1653.8</ele>
        <time>2021-12-19T12:05:16Z</time>
      </trkpt>
      <trkpt lat="45.34154" lon="5.7203">
        <ele>1653.8</ele>
        <time>2021-12-19T12:05:17Z</time>
      </trkpt>
      <trkpt lat="45.34154" lon="5.7203">
        <ele>1653.8</ele>
        <time>2021-12-19T12:05:18Z</time>
      </trkpt>
      <trkpt lat="45.34154" lon="5.7203">
        <ele>1653.8</ele>
        <time>2021-12-19T12:05:19Z</time>
      </trkpt>
      <trkpt lat="45.34154" lon="5.7203">
        <ele>1653.8</ele>
        <time>2021-12-19T12:05:20Z</time>
      </trkpt>
      <trkpt lat="45.34154" lon="5.7203">
        <ele>1653.8</ele>
        <time>2021-12-19T12:05:21Z</time>
      </trkpt>
      <trkpt lat="45.34154" lon="5.7203">
        <ele>1653.8</ele>
        <time>2021-12-19T12:05:22Z</time>
      </trkpt>
      <trkpt lat="45.34154" lon="5.7203">
        <ele>1653.8</ele>
        <time>2021-12-19T12:05:23Z</time>
      </trkpt>
      <trkpt lat="45.34154" lon="5.7203">
        <ele>1653.8</ele>
        <time>2021-12-19T12:05:24Z</time>
      </trkpt>
      <trkpt lat="45.34154" lon="5.7203">
        <ele>1653.8</ele>
        <time>2021-12-19T12:05:25Z</time>
      </trkpt>
      <trkpt lat="45.34154" lon="5.7203">
        <ele>1653.8</ele>
        <time>2021-12-19T12:05:26Z</time>
      </trkpt>
      <trkpt lat="45.34154" lon="5.72029">
        <ele>1653.8</ele>
        <time>2021-12-19T12:05:27Z</time>
      </trkpt>
      <trkpt lat="45.34154" lon="5.72029">
        <ele>1653.8</ele>
        <time>2021-12-19T12:05:28Z</time>
      </trkpt>
      <trkpt lat="45.34154" lon="5.72029">
        <ele>1653.8</ele>
        <time>2021-12-19T12:05:29Z</time>
      </trkpt>
      <trkpt lat="45.34154" lon="5.72029">
        <ele>1653.8</ele>
        <time>2021-12-19T12:05:30Z</time>
      </trkpt>
      <trkpt lat="45.34154" lon="5.72029">
        <ele>1653.8</ele>
        <time>2021-12-19T12:05:31Z</time>
      </trkpt>
      <trkpt lat="45.34154" lon="5.72029">
        <ele>1653.8</ele>
        <time>2021-12-19T12:05:32Z</time>
      </trkpt>
      <trkpt lat="45.34154" lon="5.72029">
        <ele>1653.8</ele>
        <time>2021-12-19T12:05:33Z</time>
      </trkpt>
      <trkpt lat="45.34154" lon="5.72029">
        <ele>1653.8</ele>
        <time>2021-12-19T12:05:34Z</time>
      </trkpt>
      <trkpt lat="45.34154" lon="5.72029">
        <ele>1653.8</ele>
        <time>2021-12-19T12:05:35Z</time>
      </trkpt>
      <trkpt lat="45.34154" lon="5.72029">
        <ele>1653.8</ele>
        <time>2021-12-19T12:05:36Z</time>
      </trkpt>
      <trkpt lat="45.34154" lon="5.72029">
        <ele>1653.8</ele>
        <time>2021-12-19T12:05:37Z</time>
      </trkpt>
      <trkpt lat="45.34154" lon="5.7203">
        <ele>1653.8</ele>
        <time>2021-12-19T12:05:38Z</time>
      </trkpt>
      <trkpt lat="45.34154" lon="5.7203">
        <ele>1653.8</ele>
        <time>2021-12-19T12:05:39Z</time>
      </trkpt>
      <trkpt lat="45.34154" lon="5.7203">
        <ele>1653.8</ele>
        <time>2021-12-19T12:05:40Z</time>
      </trkpt>
      <trkpt lat="45.34154" lon="5.7203">
        <ele>1653.8</ele>
        <time>2021-12-19T12:05:41Z</time>
      </trkpt>
      <trkpt lat="45.34154" lon="5.7203">
        <ele>1653.8</ele>
        <time>2021-12-19T12:05:42Z</time>
      </trkpt>
      <trkpt lat="45.34154" lon="5.7203">
        <ele>1653.8</ele>
        <time>2021-12-19T12:05:43Z</time>
      </trkpt>
      <trkpt lat="45.34154" lon="5.7203">
        <ele>1653.7</ele>
        <time>2021-12-19T12:05:44Z</time>
      </trkpt>
      <trkpt lat="45.34154" lon="5.7203">
        <ele>1653.7</ele>
        <time>2021-12-19T12:05:45Z</time>
      </trkpt>
      <trkpt lat="45.34154" lon="5.7203">
        <ele>1653.7</ele>
        <time>2021-12-19T12:05:46Z</time>
      </trkpt>
      <trkpt lat="45.34154" lon="5.7203">
        <ele>1653.7</ele>
        <time>2021-12-19T12:05:47Z</time>
      </trkpt>
      <trkpt lat="45.34154" lon="5.7203">
        <ele>1653.7</ele>
        <time>2021-12-19T12:05:48Z</time>
      </trkpt>
      <trkpt lat="45.34154" lon="5.7203">
        <ele>1653.7</ele>
        <time>2021-12-19T12:05:49Z</time>
      </trkpt>
      <trkpt lat="45.34154" lon="5.7203">
        <ele>1653.7</ele>
        <time>2021-12-19T12:05:50Z</time>
      </trkpt>
      <trkpt lat="45.34154" lon="5.7203">
        <ele>1653.7</ele>
        <time>2021-12-19T12:05:51Z</time>
      </trkpt>
      <trkpt lat="45.34154" lon="5.7203">
        <ele>1653.7</ele>
        <time>2021-12-19T12:05:52Z</time>
      </trkpt>
      <trkpt lat="45.34155" lon="5.7203">
        <ele>1653.7</ele>
        <time>2021-12-19T12:05:53Z</time>
      </trkpt>
      <trkpt lat="45.34155" lon="5.7203">
        <ele>1653.7</ele>
        <time>2021-12-19T12:05:54Z</time>
      </trkpt>
      <trkpt lat="45.34155" lon="5.7203">
        <ele>1653.7</ele>
        <time>2021-12-19T12:05:55Z</time>
      </trkpt>
      <trkpt lat="45.34154" lon="5.7203">
        <ele>1653.7</ele>
        <time>2021-12-19T12:05:56Z</time>
      </trkpt>
      <trkpt lat="45.34154" lon="5.7203">
        <ele>1653.7</ele>
        <time>2021-12-19T12:05:57Z</time>
      </trkpt>
      <trkpt lat="45.34154" lon="5.7203">
        <ele>1653.7</ele>
        <time>2021-12-19T12:05:58Z</time>
      </trkpt>
      <trkpt lat="45.34154" lon="5.7203">
        <ele>1653.7</ele>
        <time>2021-12-19T12:05:59Z</time>
      </trkpt>
      <trkpt lat="45.34154" lon="5.7203">
        <ele>1653.7</ele>
        <time>2021-12-19T12:06:00Z</time>
      </trkpt>
      <trkpt lat="45.34154" lon="5.7203">
        <ele>1653.7</ele>
        <time>2021-12-19T12:06:01Z</time>
      </trkpt>
      <trkpt lat="45.34154" lon="5.7203">
        <ele>1653.7</ele>
        <time>2021-12-19T12:06:02Z</time>
      </trkpt>
      <trkpt lat="45.34154" lon="5.7203">
        <ele>1653.7</ele>
        <time>2021-12-19T12:06:03Z</time>
      </trkpt>
      <trkpt lat="45.34154" lon="5.72031">
        <ele>1653.7</ele>
        <time>2021-12-19T12:06:04Z</time>
      </trkpt>
      <trkpt lat="45.34154" lon="5.72031">
        <ele>1653.7</ele>
        <time>2021-12-19T12:06:05Z</time>
      </trkpt>
      <trkpt lat="45.34154" lon="5.72031">
        <ele>1653.7</ele>
        <time>2021-12-19T12:06:06Z</time>
      </trkpt>
      <trkpt lat="45.34154" lon="5.72031">
        <ele>1653.7</ele>
        <time>2021-12-19T12:06:07Z</time>
      </trkpt>
      <trkpt lat="45.34153" lon="5.72031">
        <ele>1653.7</ele>
        <time>2021-12-19T12:06:08Z</time>
      </trkpt>
      <trkpt lat="45.34153" lon="5.72031">
        <ele>1653.7</ele>
        <time>2021-12-19T12:06:09Z</time>
      </trkpt>
      <trkpt lat="45.34154" lon="5.72031">
        <ele>1653.7</ele>
        <time>2021-12-19T12:06:10Z</time>
      </trkpt>
      <trkpt lat="45.34154" lon="5.72031">
        <ele>1653.7</ele>
        <time>2021-12-19T12:06:11Z</time>
      </trkpt>
      <trkpt lat="45.34154" lon="5.72031">
        <ele>1653.7</ele>
        <time>2021-12-19T12:06:12Z</time>
      </trkpt>
      <trkpt lat="45.34154" lon="5.72031">
        <ele>1653.7</ele>
        <time>2021-12-19T12:06:13Z</time>
      </trkpt>
      <trkpt lat="45.34154" lon="5.72031">
        <ele>1653.7</ele>
        <time>2021-12-19T12:06:14Z</time>
      </trkpt>
      <trkpt lat="45.34154" lon="5.72031">
        <ele>1653.7</ele>
        <time>2021-12-19T12:06:15Z</time>
      </trkpt>
      <trkpt lat="45.34154" lon="5.72031">
        <ele>1653.7</ele>
        <time>2021-12-19T12:06:16Z</time>
      </trkpt>
      <trkpt lat="45.34154" lon="5.72031">
        <ele>1653.6</ele>
        <time>2021-12-19T12:06:17Z</time>
      </trkpt>
      <trkpt lat="45.34154" lon="5.72031">
        <ele>1653.6</ele>
        <time>2021-12-19T12:06:18Z</time>
      </trkpt>
      <trkpt lat="45.34154" lon="5.72032">
        <ele>1653.6</ele>
        <time>2021-12-19T12:06:19Z</time>
      </trkpt>
      <trkpt lat="45.34154" lon="5.72032">
        <ele>1653.6</ele>
        <time>2021-12-19T12:06:20Z</time>
      </trkpt>
      <trkpt lat="45.34154" lon="5.72032">
        <ele>1653.6</ele>
        <time>2021-12-19T12:06:21Z</time>
      </trkpt>
      <trkpt lat="45.34154" lon="5.72032">
        <ele>1653.6</ele>
        <time>2021-12-19T12:06:22Z</time>
      </trkpt>
      <trkpt lat="45.34154" lon="5.72032">
        <ele>1653.6</ele>
        <time>2021-12-19T12:06:23Z</time>
      </trkpt>
      <trkpt lat="45.34154" lon="5.72032">
        <ele>1653.6</ele>
        <time>2021-12-19T12:06:24Z</time>
      </trkpt>
      <trkpt lat="45.34154" lon="5.72032">
        <ele>1653.6</ele>
        <time>2021-12-19T12:06:25Z</time>
      </trkpt>
      <trkpt lat="45.34154" lon="5.72032">
        <ele>1653.6</ele>
        <time>2021-12-19T12:06:26Z</time>
      </trkpt>
      <trkpt lat="45.34154" lon="5.72032">
        <ele>1653.6</ele>
        <time>2021-12-19T12:06:27Z</time>
      </trkpt>
      <trkpt lat="45.34154" lon="5.72032">
        <ele>1653.6</ele>
        <time>2021-12-19T12:06:28Z</time>
      </trkpt>
      <trkpt lat="45.34154" lon="5.72032">
        <ele>1653.6</ele>
        <time>2021-12-19T12:06:29Z</time>
      </trkpt>
      <trkpt lat="45.34154" lon="5.72032">
        <ele>1653.6</ele>
        <time>2021-12-19T12:06:30Z</time>
      </trkpt>
      <trkpt lat="45.34154" lon="5.72032">
        <ele>1653.6</ele>
        <time>2021-12-19T12:06:31Z</time>
      </trkpt>
      <trkpt lat="45.34154" lon="5.72032">
        <ele>1653.6</ele>
        <time>2021-12-19T12:06:32Z</time>
      </trkpt>
      <trkpt lat="45.34154" lon="5.72032">
        <ele>1653.6</ele>
        <time>2021-12-19T12:06:33Z</time>
      </trkpt>
      <trkpt lat="45.34154" lon="5.72032">
        <ele>1653.6</ele>
        <time>2021-12-19T12:06:34Z</time>
      </trkpt>
      <trkpt lat="45.34154" lon="5.72032">
        <ele>1653.6</ele>
        <time>2021-12-19T12:06:35Z</time>
      </trkpt>
      <trkpt lat="45.34154" lon="5.72032">
        <ele>1653.6</ele>
        <time>2021-12-19T12:06:36Z</time>
      </trkpt>
      <trkpt lat="45.34154" lon="5.72032">
        <ele>1653.6</ele>
        <time>2021-12-19T12:06:37Z</time>
      </trkpt>
      <trkpt lat="45.34154" lon="5.72032">
        <ele>1653.6</ele>
        <time>2021-12-19T12:06:38Z</time>
      </trkpt>
      <trkpt lat="45.34153" lon="5.72031">
        <ele>1653.6</ele>
        <time>2021-12-19T12:06:39Z</time>
      </trkpt>
      <trkpt lat="45.34153" lon="5.72031">
        <ele>1653.6</ele>
        <time>2021-12-19T12:06:40Z</time>
      </trkpt>
      <trkpt lat="45.34153" lon="5.72031">
        <ele>1653.6</ele>
        <time>2021-12-19T12:06:41Z</time>
      </trkpt>
      <trkpt lat="45.34153" lon="5.72031">
        <ele>1653.6</ele>
        <time>2021-12-19T12:06:42Z</time>
      </trkpt>
      <trkpt lat="45.34153" lon="5.72031">
        <ele>1653.6</ele>
        <time>2021-12-19T12:06:43Z</time>
      </trkpt>
      <trkpt lat="45.34153" lon="5.72031">
        <ele>1653.6</ele>
        <time>2021-12-19T12:06:44Z</time>
      </trkpt>
      <trkpt lat="45.34153" lon="5.72031">
        <ele>1653.6</ele>
        <time>2021-12-19T12:06:45Z</time>
      </trkpt>
      <trkpt lat="45.34153" lon="5.72031">
        <ele>1653.6</ele>
        <time>2021-12-19T12:06:46Z</time>
      </trkpt>
      <trkpt lat="45.34153" lon="5.72031">
        <ele>1653.6</ele>
        <time>2021-12-19T12:06:47Z</time>
      </trkpt>
      <trkpt lat="45.34153" lon="5.72031">
        <ele>1653.6</ele>
        <time>2021-12-19T12:06:48Z</time>
      </trkpt>
      <trkpt lat="45.34153" lon="5.72031">
        <ele>1653.6</ele>
        <time>2021-12-19T12:06:49Z</time>
      </trkpt>
      <trkpt lat="45.34153" lon="5.72031">
        <ele>1653.6</ele>
        <time>2021-12-19T12:06:50Z</time>
      </trkpt>
      <trkpt lat="45.34153" lon="5.72031">
        <ele>1653.6</ele>
        <time>2021-12-19T12:06:51Z</time>
      </trkpt>
      <trkpt lat="45.34153" lon="5.72031">
        <ele>1653.6</ele>
        <time>2021-12-19T12:06:52Z</time>
      </trkpt>
      <trkpt lat="45.34153" lon="5.72031">
        <ele>1653.6</ele>
        <time>2021-12-19T12:06:53Z</time>
      </trkpt>
      <trkpt lat="45.34153" lon="5.72031">
        <ele>1653.6</ele>
        <time>2021-12-19T12:06:54Z</time>
      </trkpt>
      <trkpt lat="45.34153" lon="5.72031">
        <ele>1653.6</ele>
        <time>2021-12-19T12:06:55Z</time>
      </trkpt>
      <trkpt lat="45.34153" lon="5.72031">
        <ele>1653.6</ele>
        <time>2021-12-19T12:06:56Z</time>
      </trkpt>
      <trkpt lat="45.34153" lon="5.72031">
        <ele>1653.6</ele>
        <time>2021-12-19T12:06:57Z</time>
      </trkpt>
      <trkpt lat="45.34153" lon="5.72031">
        <ele>1653.6</ele>
        <time>2021-12-19T12:06:58Z</time>
      </trkpt>
      <trkpt lat="45.34154" lon="5.72031">
        <ele>1653.6</ele>
        <time>2021-12-19T12:06:59Z</time>
      </trkpt>
      <trkpt lat="45.34154" lon="5.72031">
        <ele>1653.6</ele>
        <time>2021-12-19T12:07:00Z</time>
      </trkpt>
      <trkpt lat="45.34153" lon="5.72031">
        <ele>1653.6</ele>
        <time>2021-12-19T12:07:01Z</time>
      </trkpt>
      <trkpt lat="45.34153" lon="5.72031">
        <ele>1653.6</ele>
        <time>2021-12-19T12:07:02Z</time>
      </trkpt>
      <trkpt lat="45.34153" lon="5.72032">
        <ele>1653.6</ele>
        <time>2021-12-19T12:07:03Z</time>
      </trkpt>
      <trkpt lat="45.34153" lon="5.72032">
        <ele>1653.6</ele>
        <time>2021-12-19T12:07:04Z</time>
      </trkpt>
      <trkpt lat="45.34153" lon="5.72032">
        <ele>1653.6</ele>
        <time>2021-12-19T12:07:05Z</time>
      </trkpt>
      <trkpt lat="45.34153" lon="5.72032">
        <ele>1653.5</ele>
        <time>2021-12-19T12:07:06Z</time>
      </trkpt>
      <trkpt lat="45.34153" lon="5.72032">
        <ele>1653.5</ele>
        <time>2021-12-19T12:07:07Z</time>
      </trkpt>
      <trkpt lat="45.34153" lon="5.72032">
        <ele>1653.5</ele>
        <time>2021-12-19T12:07:08Z</time>
      </trkpt>
      <trkpt lat="45.34153" lon="5.72032">
        <ele>1653.5</ele>
        <time>2021-12-19T12:07:09Z</time>
      </trkpt>
      <trkpt lat="45.34153" lon="5.72032">
        <ele>1653.5</ele>
        <time>2021-12-19T12:07:10Z</time>
      </trkpt>
      <trkpt lat="45.34153" lon="5.72032">
        <ele>1653.5</ele>
        <time>2021-12-19T12:07:11Z</time>
      </trkpt>
      <trkpt lat="45.34153" lon="5.72032">
        <ele>1653.5</ele>
        <time>2021-12-19T12:07:12Z</time>
      </trkpt>
      <trkpt lat="45.34153" lon="5.72032">
        <ele>1653.5</ele>
        <time>2021-12-19T12:07:13Z</time>
      </trkpt>
      <trkpt lat="45.34153" lon="5.72032">
        <ele>1653.5</ele>
        <time>2021-12-19T12:07:14Z</time>
      </trkpt>
      <trkpt lat="45.34153" lon="5.72032">
        <ele>1653.5</ele>
        <time>2021-12-19T12:07:15Z</time>
      </trkpt>
      <trkpt lat="45.34153" lon="5.72032">
        <ele>1653.5</ele>
        <time>2021-12-19T12:07:16Z</time>
      </trkpt>
      <trkpt lat="45.34153" lon="5.72032">
        <ele>1653.5</ele>
        <time>2021-12-19T12:07:17Z</time>
      </trkpt>
      <trkpt lat="45.34153" lon="5.72032">
        <ele>1653.5</ele>
        <time>2021-12-19T12:07:18Z</time>
      </trkpt>
      <trkpt lat="45.34153" lon="5.72032">
        <ele>1653.5</ele>
        <time>2021-12-19T12:07:19Z</time>
      </trkpt>
      <trkpt lat="45.34153" lon="5.72032">
        <ele>1653.5</ele>
        <time>2021-12-19T12:07:20Z</time>
      </trkpt>
      <trkpt lat="45.34153" lon="5.72032">
        <ele>1653.5</ele>
        <time>2021-12-19T12:07:21Z</time>
      </trkpt>
      <trkpt lat="45.34153" lon="5.72032">
        <ele>1653.5</ele>
        <time>2021-12-19T12:07:22Z</time>
      </trkpt>
      <trkpt lat="45.34153" lon="5.72032">
        <ele>1653.5</ele>
        <time>2021-12-19T12:07:23Z</time>
      </trkpt>
      <trkpt lat="45.34153" lon="5.72032">
        <ele>1653.5</ele>
        <time>2021-12-19T12:07:24Z</time>
      </trkpt>
      <trkpt lat="45.34153" lon="5.72032">
        <ele>1653.5</ele>
        <time>2021-12-19T12:07:25Z</time>
      </trkpt>
      <trkpt lat="45.34153" lon="5.72032">
        <ele>1653.5</ele>
        <time>2021-12-19T12:07:26Z</time>
      </trkpt>
      <trkpt lat="45.34153" lon="5.72031">
        <ele>1653.5</ele>
        <time>2021-12-19T12:07:27Z</time>
      </trkpt>
      <trkpt lat="45.34153" lon="5.72031">
        <ele>1653.5</ele>
        <time>2021-12-19T12:07:28Z</time>
      </trkpt>
      <trkpt lat="45.34153" lon="5.72031">
        <ele>1653.5</ele>
        <time>2021-12-19T12:07:29Z</time>
      </trkpt>
      <trkpt lat="45.34153" lon="5.72031">
        <ele>1653.5</ele>
        <time>2021-12-19T12:07:30Z</time>
      </trkpt>
      <trkpt lat="45.34153" lon="5.72031">
        <ele>1653.5</ele>
        <time>2021-12-19T12:07:31Z</time>
      </trkpt>
      <trkpt lat="45.34153" lon="5.72032">
        <ele>1653.5</ele>
        <time>2021-12-19T12:07:32Z</time>
      </trkpt>
      <trkpt lat="45.34153" lon="5.72032">
        <ele>1653.5</ele>
        <time>2021-12-19T12:07:33Z</time>
      </trkpt>
      <trkpt lat="45.34153" lon="5.72032">
        <ele>1653.5</ele>
        <time>2021-12-19T12:07:34Z</time>
      </trkpt>
      <trkpt lat="45.34153" lon="5.72032">
        <ele>1653.5</ele>
        <time>2021-12-19T12:07:35Z</time>
      </trkpt>
      <trkpt lat="45.34153" lon="5.72032">
        <ele>1653.5</ele>
        <time>2021-12-19T12:07:36Z</time>
      </trkpt>
      <trkpt lat="45.34153" lon="5.72032">
        <ele>1653.5</ele>
        <time>2021-12-19T12:07:37Z</time>
      </trkpt>
      <trkpt lat="45.34153" lon="5.72032">
        <ele>1653.5</ele>
        <time>2021-12-19T12:07:38Z</time>
      </trkpt>
      <trkpt lat="45.34153" lon="5.72032">
        <ele>1653.5</ele>
        <time>2021-12-19T12:07:39Z</time>
      </trkpt>
      <trkpt lat="45.34153" lon="5.72032">
        <ele>1653.5</ele>
        <time>2021-12-19T12:07:40Z</time>
      </trkpt>
      <trkpt lat="45.34153" lon="5.72032">
        <ele>1653.5</ele>
        <time>2021-12-19T12:07:41Z</time>
      </trkpt>
      <trkpt lat="45.34153" lon="5.72032">
        <ele>1653.5</ele>
        <time>2021-12-19T12:07:42Z</time>
      </trkpt>
      <trkpt lat="45.34153" lon="5.72032">
        <ele>1653.5</ele>
        <time>2021-12-19T12:07:43Z</time>
      </trkpt>
      <trkpt lat="45.34153" lon="5.72032">
        <ele>1653.4</ele>
        <time>2021-12-19T12:07:44Z</time>
      </trkpt>
      <trkpt lat="45.34153" lon="5.72032">
        <ele>1653.4</ele>
        <time>2021-12-19T12:07:45Z</time>
      </trkpt>
      <trkpt lat="45.34153" lon="5.72032">
        <ele>1653.4</ele>
        <time>2021-12-19T12:07:46Z</time>
      </trkpt>
      <trkpt lat="45.34153" lon="5.72032">
        <ele>1653.4</ele>
        <time>2021-12-19T12:07:47Z</time>
      </trkpt>
      <trkpt lat="45.34153" lon="5.72032">
        <ele>1653.4</ele>
        <time>2021-12-19T12:07:48Z</time>
      </trkpt>
      <trkpt lat="45.34153" lon="5.72032">
        <ele>1653.4</ele>
        <time>2021-12-19T12:07:49Z</time>
      </trkpt>
      <trkpt lat="45.34153" lon="5.72032">
        <ele>1653.4</ele>
        <time>2021-12-19T12:07:50Z</time>
      </trkpt>
      <trkpt lat="45.34153" lon="5.72032">
        <ele>1653.4</ele>
        <time>2021-12-19T12:07:51Z</time>
      </trkpt>
      <trkpt lat="45.34153" lon="5.72032">
        <ele>1653.4</ele>
        <time>2021-12-19T12:07:52Z</time>
      </trkpt>
      <trkpt lat="45.34153" lon="5.72032">
        <ele>1653.4</ele>
        <time>2021-12-19T12:07:53Z</time>
      </trkpt>
      <trkpt lat="45.34153" lon="5.72032">
        <ele>1653.4</ele>
        <time>2021-12-19T12:07:54Z</time>
      </trkpt>
      <trkpt lat="45.34153" lon="5.72032">
        <ele>1653.4</ele>
        <time>2021-12-19T12:07:55Z</time>
      </trkpt>
      <trkpt lat="45.34153" lon="5.72032">
        <ele>1653.4</ele>
        <time>2021-12-19T12:07:56Z</time>
      </trkpt>
      <trkpt lat="45.34153" lon="5.72033">
        <ele>1653.4</ele>
        <time>2021-12-19T12:07:57Z</time>
      </trkpt>
      <trkpt lat="45.34153" lon="5.72033">
        <ele>1653.4</ele>
        <time>2021-12-19T12:07:58Z</time>
      </trkpt>
      <trkpt lat="45.34152" lon="5.72033">
        <ele>1653.4</ele>
        <time>2021-12-19T12:07:59Z</time>
      </trkpt>
      <trkpt lat="45.34152" lon="5.72033">
        <ele>1653.4</ele>
        <time>2021-12-19T12:08:00Z</time>
      </trkpt>
      <trkpt lat="45.34152" lon="5.72033">
        <ele>1653.4</ele>
        <time>2021-12-19T12:08:01Z</time>
      </trkpt>
      <trkpt lat="45.34152" lon="5.72033">
        <ele>1653.4</ele>
        <time>2021-12-19T12:08:02Z</time>
      </trkpt>
      <trkpt lat="45.34152" lon="5.72033">
        <ele>1653.4</ele>
        <time>2021-12-19T12:08:03Z</time>
      </trkpt>
      <trkpt lat="45.34152" lon="5.72033">
        <ele>1653.4</ele>
        <time>2021-12-19T12:08:04Z</time>
      </trkpt>
      <trkpt lat="45.34152" lon="5.72033">
        <ele>1653.4</ele>
        <time>2021-12-19T12:08:05Z</time>
      </trkpt>
      <trkpt lat="45.34152" lon="5.72033">
        <ele>1653.4</ele>
        <time>2021-12-19T12:08:06Z</time>
      </trkpt>
      <trkpt lat="45.34152" lon="5.72033">
        <ele>1653.4</ele>
        <time>2021-12-19T12:08:07Z</time>
      </trkpt>
      <trkpt lat="45.34152" lon="5.72033">
        <ele>1653.4</ele>
        <time>2021-12-19T12:08:08Z</time>
      </trkpt>
      <trkpt lat="45.34152" lon="5.72033">
        <ele>1653.4</ele>
        <time>2021-12-19T12:08:09Z</time>
      </trkpt>
      <trkpt lat="45.34152" lon="5.72033">
        <ele>1653.4</ele>
        <time>2021-12-19T12:08:10Z</time>
      </trkpt>
      <trkpt lat="45.34152" lon="5.72033">
        <ele>1653.4</ele>
        <time>2021-12-19T12:08:11Z</time>
      </trkpt>
      <trkpt lat="45.34152" lon="5.72033">
        <ele>1653.4</ele>
        <time>2021-12-19T12:08:12Z</time>
      </trkpt>
      <trkpt lat="45.34152" lon="5.72033">
        <ele>1653.4</ele>
        <time>2021-12-19T12:08:13Z</time>
      </trkpt>
      <trkpt lat="45.34152" lon="5.72033">
        <ele>1653.4</ele>
        <time>2021-12-19T12:08:14Z</time>
      </trkpt>
      <trkpt lat="45.34152" lon="5.72033">
        <ele>1653.4</ele>
        <time>2021-12-19T12:08:15Z</time>
      </trkpt>
      <trkpt lat="45.34152" lon="5.72033">
        <ele>1653.3</ele>
        <time>2021-12-19T12:08:16Z</time>
      </trkpt>
      <trkpt lat="45.34152" lon="5.72033">
        <ele>1653.3</ele>
        <time>2021-12-19T12:08:17Z</time>
      </trkpt>
      <trkpt lat="45.34152" lon="5.72033">
        <ele>1653.3</ele>
        <time>2021-12-19T12:08:18Z</time>
      </trkpt>
      <trkpt lat="45.34152" lon="5.72033">
        <ele>1653.3</ele>
        <time>2021-12-19T12:08:19Z</time>
      </trkpt>
      <trkpt lat="45.34152" lon="5.72033">
        <ele>1653.3</ele>
        <time>2021-12-19T12:08:20Z</time>
      </trkpt>
      <trkpt lat="45.34152" lon="5.72033">
        <ele>1653.3</ele>
        <time>2021-12-19T12:08:21Z</time>
      </trkpt>
      <trkpt lat="45.34152" lon="5.72033">
        <ele>1653.3</ele>
        <time>2021-12-19T12:08:22Z</time>
      </trkpt>
      <trkpt lat="45.34152" lon="5.72033">
        <ele>1653.3</ele>
        <time>2021-12-19T12:08:23Z</time>
      </trkpt>
      <trkpt lat="45.34152" lon="5.72033">
        <ele>1653.3</ele>
        <time>2021-12-19T12:08:24Z</time>
      </trkpt>
      <trkpt lat="45.34152" lon="5.72033">
        <ele>1653.3</ele>
        <time>2021-12-19T12:08:25Z</time>
      </trkpt>
      <trkpt lat="45.34152" lon="5.72033">
        <ele>1653.3</ele>
        <time>2021-12-19T12:08:26Z</time>
      </trkpt>
      <trkpt lat="45.34152" lon="5.72033">
        <ele>1653.3</ele>
        <time>2021-12-19T12:08:27Z</time>
      </trkpt>
      <trkpt lat="45.34151" lon="5.72033">
        <ele>1653.3</ele>
        <time>2021-12-19T12:08:28Z</time>
      </trkpt>
      <trkpt lat="45.34151" lon="5.72033">
        <ele>1653.3</ele>
        <time>2021-12-19T12:08:29Z</time>
      </trkpt>
      <trkpt lat="45.34151" lon="5.72033">
        <ele>1653.3</ele>
        <time>2021-12-19T12:08:30Z</time>
      </trkpt>
      <trkpt lat="45.34151" lon="5.72032">
        <ele>1653.3</ele>
        <time>2021-12-19T12:08:31Z</time>
      </trkpt>
      <trkpt lat="45.34151" lon="5.72032">
        <ele>1653.3</ele>
        <time>2021-12-19T12:08:32Z</time>
      </trkpt>
      <trkpt lat="45.34151" lon="5.72032">
        <ele>1653.3</ele>
        <time>2021-12-19T12:08:33Z</time>
      </trkpt>
      <trkpt lat="45.34151" lon="5.72032">
        <ele>1653.3</ele>
        <time>2021-12-19T12:08:34Z</time>
      </trkpt>
      <trkpt lat="45.34152" lon="5.72032">
        <ele>1653.3</ele>
        <time>2021-12-19T12:08:35Z</time>
      </trkpt>
      <trkpt lat="45.34151" lon="5.72032">
        <ele>1653.3</ele>
        <time>2021-12-19T12:08:36Z</time>
      </trkpt>
      <trkpt lat="45.34151" lon="5.72032">
        <ele>1653.3</ele>
        <time>2021-12-19T12:08:37Z</time>
      </trkpt>
      <trkpt lat="45.34152" lon="5.72032">
        <ele>1653.3</ele>
        <time>2021-12-19T12:08:38Z</time>
      </trkpt>
      <trkpt lat="45.34152" lon="5.72032">
        <ele>1653.3</ele>
        <time>2021-12-19T12:08:39Z</time>
      </trkpt>
      <trkpt lat="45.34152" lon="5.72032">
        <ele>1653.3</ele>
        <time>2021-12-19T12:08:40Z</time>
      </trkpt>
      <trkpt lat="45.34151" lon="5.72032">
        <ele>1653.3</ele>
        <time>2021-12-19T12:08:41Z</time>
      </trkpt>
      <trkpt lat="45.34151" lon="5.72032">
        <ele>1653.3</ele>
        <time>2021-12-19T12:08:42Z</time>
      </trkpt>
      <trkpt lat="45.34152" lon="5.72032">
        <ele>1653.3</ele>
        <time>2021-12-19T12:08:43Z</time>
      </trkpt>
      <trkpt lat="45.34152" lon="5.72032">
        <ele>1653.3</ele>
        <time>2021-12-19T12:08:44Z</time>
      </trkpt>
      <trkpt lat="45.34152" lon="5.72032">
        <ele>1653.2</ele>
        <time>2021-12-19T12:08:45Z</time>
      </trkpt>
      <trkpt lat="45.34152" lon="5.72032">
        <ele>1653.2</ele>
        <time>2021-12-19T12:08:46Z</time>
      </trkpt>
      <trkpt lat="45.34152" lon="5.72032">
        <ele>1653.2</ele>
        <time>2021-12-19T12:08:47Z</time>
      </trkpt>
      <trkpt lat="45.34152" lon="5.72032">
        <ele>1653.2</ele>
        <time>2021-12-19T12:08:48Z</time>
      </trkpt>
      <trkpt lat="45.34152" lon="5.72032">
        <ele>1653.2</ele>
        <time>2021-12-19T12:08:49Z</time>
      </trkpt>
      <trkpt lat="45.34152" lon="5.72032">
        <ele>1653.2</ele>
        <time>2021-12-19T12:08:50Z</time>
      </trkpt>
      <trkpt lat="45.34152" lon="5.72032">
        <ele>1653.2</ele>
        <time>2021-12-19T12:08:51Z</time>
      </trkpt>
      <trkpt lat="45.34152" lon="5.72032">
        <ele>1653.2</ele>
        <time>2021-12-19T12:08:52Z</time>
      </trkpt>
      <trkpt lat="45.34152" lon="5.72032">
        <ele>1653.2</ele>
        <time>2021-12-19T12:08:53Z</time>
      </trkpt>
      <trkpt lat="45.34152" lon="5.72032">
        <ele>1653.2</ele>
        <time>2021-12-19T12:08:54Z</time>
      </trkpt>
      <trkpt lat="45.34152" lon="5.72032">
        <ele>1653.2</ele>
        <time>2021-12-19T12:08:55Z</time>
      </trkpt>
      <trkpt lat="45.34151" lon="5.72032">
        <ele>1653.2</ele>
        <time>2021-12-19T12:08:56Z</time>
      </trkpt>
      <trkpt lat="45.34151" lon="5.72032">
        <ele>1653.2</ele>
        <time>2021-12-19T12:08:57Z</time>
      </trkpt>
      <trkpt lat="45.34151" lon="5.72032">
        <ele>1653.2</ele>
        <time>2021-12-19T12:08:58Z</time>
      </trkpt>
      <trkpt lat="45.34152" lon="5.72032">
        <ele>1653.2</ele>
        <time>2021-12-19T12:08:59Z</time>
      </trkpt>
      <trkpt lat="45.34152" lon="5.72032">
        <ele>1653.2</ele>
        <time>2021-12-19T12:09:00Z</time>
      </trkpt>
      <trkpt lat="45.34152" lon="5.72032">
        <ele>1653.2</ele>
        <time>2021-12-19T12:09:01Z</time>
      </trkpt>
      <trkpt lat="45.34152" lon="5.72032">
        <ele>1653.2</ele>
        <time>2021-12-19T12:09:02Z</time>
      </trkpt>
      <trkpt lat="45.34152" lon="5.72032">
        <ele>1653.2</ele>
        <time>2021-12-19T12:09:03Z</time>
      </trkpt>
      <trkpt lat="45.34152" lon="5.72032">
        <ele>1653.2</ele>
        <time>2021-12-19T12:09:04Z</time>
      </trkpt>
      <trkpt lat="45.34152" lon="5.72032">
        <ele>1653.2</ele>
        <time>2021-12-19T12:09:05Z</time>
      </trkpt>
      <trkpt lat="45.34152" lon="5.72032">
        <ele>1653.2</ele>
        <time>2021-12-19T12:09:06Z</time>
      </trkpt>
      <trkpt lat="45.34152" lon="5.72032">
        <ele>1653.2</ele>
        <time>2021-12-19T12:09:07Z</time>
      </trkpt>
      <trkpt lat="45.34152" lon="5.72033">
        <ele>1653.2</ele>
        <time>2021-12-19T12:09:08Z</time>
      </trkpt>
      <trkpt lat="45.34152" lon="5.72033">
        <ele>1653.2</ele>
        <time>2021-12-19T12:09:09Z</time>
      </trkpt>
      <trkpt lat="45.34152" lon="5.72033">
        <ele>1653.2</ele>
        <time>2021-12-19T12:09:10Z</time>
      </trkpt>
      <trkpt lat="45.34152" lon="5.72033">
        <ele>1653.2</ele>
        <time>2021-12-19T12:09:11Z</time>
      </trkpt>
      <trkpt lat="45.34152" lon="5.72032">
        <ele>1653.2</ele>
        <time>2021-12-19T12:09:12Z</time>
      </trkpt>
      <trkpt lat="45.34152" lon="5.72032">
        <ele>1653.2</ele>
        <time>2021-12-19T12:09:13Z</time>
      </trkpt>
      <trkpt lat="45.34152" lon="5.72032">
        <ele>1653.2</ele>
        <time>2021-12-19T12:09:14Z</time>
      </trkpt>
      <trkpt lat="45.34152" lon="5.72032">
        <ele>1653.2</ele>
        <time>2021-12-19T12:09:15Z</time>
      </trkpt>
      <trkpt lat="45.34152" lon="5.72032">
        <ele>1653.2</ele>
        <time>2021-12-19T12:09:16Z</time>
      </trkpt>
      <trkpt lat="45.34152" lon="5.72032">
        <ele>1653.2</ele>
        <time>2021-12-19T12:09:17Z</time>
      </trkpt>
      <trkpt lat="45.34152" lon="5.72033">
        <ele>1653.2</ele>
        <time>2021-12-19T12:09:18Z</time>
      </trkpt>
      <trkpt lat="45.34152" lon="5.72033">
        <ele>1653.2</ele>
        <time>2021-12-19T12:09:19Z</time>
      </trkpt>
      <trkpt lat="45.34152" lon="5.72033">
        <ele>1653.2</ele>
        <time>2021-12-19T12:09:20Z</time>
      </trkpt>
      <trkpt lat="45.34152" lon="5.72033">
        <ele>1653.2</ele>
        <time>2021-12-19T12:09:21Z</time>
      </trkpt>
      <trkpt lat="45.34152" lon="5.72033">
        <ele>1653.2</ele>
        <time>2021-12-19T12:09:22Z</time>
      </trkpt>
      <trkpt lat="45.34152" lon="5.72033">
        <ele>1653.2</ele>
        <time>2021-12-19T12:09:23Z</time>
      </trkpt>
      <trkpt lat="45.34152" lon="5.72033">
        <ele>1653.2</ele>
        <time>2021-12-19T12:09:24Z</time>
      </trkpt>
      <trkpt lat="45.34152" lon="5.72032">
        <ele>1653.2</ele>
        <time>2021-12-19T12:09:25Z</time>
      </trkpt>
      <trkpt lat="45.34152" lon="5.72032">
        <ele>1653.2</ele>
        <time>2021-12-19T12:09:26Z</time>
      </trkpt>
      <trkpt lat="45.34152" lon="5.72032">
        <ele>1653.2</ele>
        <time>2021-12-19T12:09:27Z</time>
      </trkpt>
      <trkpt lat="45.34153" lon="5.72032">
        <ele>1653.2</ele>
        <time>2021-12-19T12:09:28Z</time>
      </trkpt>
      <trkpt lat="45.34153" lon="5.72032">
        <ele>1653.2</ele>
        <time>2021-12-19T12:09:29Z</time>
      </trkpt>
      <trkpt lat="45.34153" lon="5.72032">
        <ele>1653.2</ele>
        <time>2021-12-19T12:09:30Z</time>
      </trkpt>
      <trkpt lat="45.34153" lon="5.72032">
        <ele>1653.1</ele>
        <time>2021-12-19T12:09:31Z</time>
      </trkpt>
      <trkpt lat="45.34153" lon="5.72032">
        <ele>1653.1</ele>
        <time>2021-12-19T12:09:32Z</time>
      </trkpt>
      <trkpt lat="45.34153" lon="5.72032">
        <ele>1653.1</ele>
        <time>2021-12-19T12:09:33Z</time>
      </trkpt>
      <trkpt lat="45.34153" lon="5.72032">
        <ele>1653.1</ele>
        <time>2021-12-19T12:09:34Z</time>
      </trkpt>
      <trkpt lat="45.34153" lon="5.72032">
        <ele>1653.1</ele>
        <time>2021-12-19T12:09:35Z</time>
      </trkpt>
      <trkpt lat="45.34153" lon="5.72032">
        <ele>1653.1</ele>
        <time>2021-12-19T12:09:36Z</time>
      </trkpt>
      <trkpt lat="45.34153" lon="5.72032">
        <ele>1653.1</ele>
        <time>2021-12-19T12:09:37Z</time>
      </trkpt>
      <trkpt lat="45.34153" lon="5.72032">
        <ele>1653.1</ele>
        <time>2021-12-19T12:09:38Z</time>
      </trkpt>
      <trkpt lat="45.34152" lon="5.72032">
        <ele>1653.1</ele>
        <time>2021-12-19T12:09:39Z</time>
      </trkpt>
      <trkpt lat="45.34153" lon="5.72032">
        <ele>1653.1</ele>
        <time>2021-12-19T12:09:40Z</time>
      </trkpt>
      <trkpt lat="45.34153" lon="5.72032">
        <ele>1653.1</ele>
        <time>2021-12-19T12:09:41Z</time>
      </trkpt>
      <trkpt lat="45.34153" lon="5.72032">
        <ele>1653.1</ele>
        <time>2021-12-19T12:09:42Z</time>
      </trkpt>
      <trkpt lat="45.34153" lon="5.72032">
        <ele>1653.1</ele>
        <time>2021-12-19T12:09:43Z</time>
      </trkpt>
      <trkpt lat="45.34153" lon="5.72032">
        <ele>1653.1</ele>
        <time>2021-12-19T12:09:44Z</time>
      </trkpt>
      <trkpt lat="45.34153" lon="5.72032">
        <ele>1653.1</ele>
        <time>2021-12-19T12:09:45Z</time>
      </trkpt>
      <trkpt lat="45.34153" lon="5.72032">
        <ele>1653.1</ele>
        <time>2021-12-19T12:09:46Z</time>
      </trkpt>
      <trkpt lat="45.34153" lon="5.72032">
        <ele>1653.1</ele>
        <time>2021-12-19T12:09:47Z</time>
      </trkpt>
      <trkpt lat="45.34153" lon="5.72033">
        <ele>1653.1</ele>
        <time>2021-12-19T12:09:48Z</time>
      </trkpt>
      <trkpt lat="45.34152" lon="5.72033">
        <ele>1653.1</ele>
        <time>2021-12-19T12:09:49Z</time>
      </trkpt>
      <trkpt lat="45.34153" lon="5.72033">
        <ele>1653.1</ele>
        <time>2021-12-19T12:09:50Z</time>
      </trkpt>
      <trkpt lat="45.34153" lon="5.72033">
        <ele>1653.1</ele>
        <time>2021-12-19T12:09:51Z</time>
      </trkpt>
      <trkpt lat="45.34153" lon="5.72033">
        <ele>1653.1</ele>
        <time>2021-12-19T12:09:52Z</time>
      </trkpt>
      <trkpt lat="45.34152" lon="5.72033">
        <ele>1653.1</ele>
        <time>2021-12-19T12:09:53Z</time>
      </trkpt>
      <trkpt lat="45.34152" lon="5.72033">
        <ele>1653.1</ele>
        <time>2021-12-19T12:09:54Z</time>
      </trkpt>
      <trkpt lat="45.34153" lon="5.72033">
        <ele>1653.1</ele>
        <time>2021-12-19T12:09:55Z</time>
      </trkpt>
      <trkpt lat="45.34152" lon="5.72034">
        <ele>1653.1</ele>
        <time>2021-12-19T12:09:56Z</time>
      </trkpt>
      <trkpt lat="45.34153" lon="5.72034">
        <ele>1653.1</ele>
        <time>2021-12-19T12:09:57Z</time>
      </trkpt>
      <trkpt lat="45.34153" lon="5.72034">
        <ele>1653.1</ele>
        <time>2021-12-19T12:09:58Z</time>
      </trkpt>
      <trkpt lat="45.34153" lon="5.72034">
        <ele>1653.1</ele>
        <time>2021-12-19T12:09:59Z</time>
      </trkpt>
      <trkpt lat="45.34153" lon="5.72034">
        <ele>1653.1</ele>
        <time>2021-12-19T12:10:00Z</time>
      </trkpt>
      <trkpt lat="45.34153" lon="5.72034">
        <ele>1653.1</ele>
        <time>2021-12-19T12:10:01Z</time>
      </trkpt>
      <trkpt lat="45.34153" lon="5.72034">
        <ele>1653.1</ele>
        <time>2021-12-19T12:10:02Z</time>
      </trkpt>
      <trkpt lat="45.34153" lon="5.72034">
        <ele>1653.1</ele>
        <time>2021-12-19T12:10:03Z</time>
      </trkpt>
      <trkpt lat="45.34153" lon="5.72034">
        <ele>1653.1</ele>
        <time>2021-12-19T12:10:04Z</time>
      </trkpt>
      <trkpt lat="45.34153" lon="5.72034">
        <ele>1653.1</ele>
        <time>2021-12-19T12:10:05Z</time>
      </trkpt>
      <trkpt lat="45.34153" lon="5.72033">
        <ele>1653</ele>
        <time>2021-12-19T12:10:06Z</time>
      </trkpt>
      <trkpt lat="45.34153" lon="5.72033">
        <ele>1653</ele>
        <time>2021-12-19T12:10:07Z</time>
      </trkpt>
      <trkpt lat="45.34153" lon="5.72033">
        <ele>1653</ele>
        <time>2021-12-19T12:10:08Z</time>
      </trkpt>
      <trkpt lat="45.34153" lon="5.72033">
        <ele>1653</ele>
        <time>2021-12-19T12:10:09Z</time>
      </trkpt>
      <trkpt lat="45.34153" lon="5.72033">
        <ele>1653</ele>
        <time>2021-12-19T12:10:10Z</time>
      </trkpt>
      <trkpt lat="45.34153" lon="5.72033">
        <ele>1653</ele>
        <time>2021-12-19T12:10:11Z</time>
      </trkpt>
      <trkpt lat="45.34153" lon="5.72033">
        <ele>1653</ele>
        <time>2021-12-19T12:10:12Z</time>
      </trkpt>
      <trkpt lat="45.34153" lon="5.72033">
        <ele>1653</ele>
        <time>2021-12-19T12:10:13Z</time>
      </trkpt>
      <trkpt lat="45.34153" lon="5.72033">
        <ele>1653</ele>
        <time>2021-12-19T12:10:14Z</time>
      </trkpt>
      <trkpt lat="45.34153" lon="5.72033">
        <ele>1653</ele>
        <time>2021-12-19T12:10:15Z</time>
      </trkpt>
      <trkpt lat="45.34153" lon="5.72033">
        <ele>1653</ele>
        <time>2021-12-19T12:10:16Z</time>
      </trkpt>
      <trkpt lat="45.34153" lon="5.72033">
        <ele>1653</ele>
        <time>2021-12-19T12:10:17Z</time>
      </trkpt>
      <trkpt lat="45.34153" lon="5.72033">
        <ele>1653</ele>
        <time>2021-12-19T12:10:18Z</time>
      </trkpt>
      <trkpt lat="45.34153" lon="5.72033">
        <ele>1653</ele>
        <time>2021-12-19T12:10:19Z</time>
      </trkpt>
      <trkpt lat="45.34153" lon="5.72033">
        <ele>1653</ele>
        <time>2021-12-19T12:10:20Z</time>
      </trkpt>
      <trkpt lat="45.34153" lon="5.72033">
        <ele>1653</ele>
        <time>2021-12-19T12:10:21Z</time>
      </trkpt>
      <trkpt lat="45.34153" lon="5.72033">
        <ele>1653</ele>
        <time>2021-12-19T12:10:22Z</time>
      </trkpt>
      <trkpt lat="45.34153" lon="5.72033">
        <ele>1653</ele>
        <time>2021-12-19T12:10:23Z</time>
      </trkpt>
      <trkpt lat="45.34153" lon="5.72033">
        <ele>1653</ele>
        <time>2021-12-19T12:10:24Z</time>
      </trkpt>
      <trkpt lat="45.34153" lon="5.72033">
        <ele>1653</ele>
        <time>2021-12-19T12:10:25Z</time>
      </trkpt>
      <trkpt lat="45.34153" lon="5.72033">
        <ele>1653</ele>
        <time>2021-12-19T12:10:26Z</time>
      </trkpt>
      <trkpt lat="45.34153" lon="5.72033">
        <ele>1653</ele>
        <time>2021-12-19T12:10:27Z</time>
      </trkpt>
      <trkpt lat="45.34153" lon="5.72033">
        <ele>1653</ele>
        <time>2021-12-19T12:10:28Z</time>
      </trkpt>
      <trkpt lat="45.34153" lon="5.72033">
        <ele>1653</ele>
        <time>2021-12-19T12:10:29Z</time>
      </trkpt>
      <trkpt lat="45.34153" lon="5.72033">
        <ele>1653</ele>
        <time>2021-12-19T12:10:30Z</time>
      </trkpt>
      <trkpt lat="45.34153" lon="5.72033">
        <ele>1653</ele>
        <time>2021-12-19T12:10:31Z</time>
      </trkpt>
      <trkpt lat="45.34153" lon="5.72033">
        <ele>1652.9</ele>
        <time>2021-12-19T12:10:32Z</time>
      </trkpt>
      <trkpt lat="45.34153" lon="5.72033">
        <ele>1652.9</ele>
        <time>2021-12-19T12:10:33Z</time>
      </trkpt>
      <trkpt lat="45.34153" lon="5.72033">
        <ele>1652.9</ele>
        <time>2021-12-19T12:10:34Z</time>
      </trkpt>
      <trkpt lat="45.34152" lon="5.72033">
        <ele>1652.9</ele>
        <time>2021-12-19T12:10:35Z</time>
      </trkpt>
      <trkpt lat="45.34153" lon="5.72033">
        <ele>1652.9</ele>
        <time>2021-12-19T12:10:36Z</time>
      </trkpt>
      <trkpt lat="45.34152" lon="5.72033">
        <ele>1652.9</ele>
        <time>2021-12-19T12:10:37Z</time>
      </trkpt>
      <trkpt lat="45.34152" lon="5.72033">
        <ele>1652.9</ele>
        <time>2021-12-19T12:10:38Z</time>
      </trkpt>
      <trkpt lat="45.34152" lon="5.72033">
        <ele>1652.9</ele>
        <time>2021-12-19T12:10:39Z</time>
      </trkpt>
      <trkpt lat="45.34153" lon="5.72033">
        <ele>1652.9</ele>
        <time>2021-12-19T12:10:40Z</time>
      </trkpt>
      <trkpt lat="45.34153" lon="5.72033">
        <ele>1652.9</ele>
        <time>2021-12-19T12:10:41Z</time>
      </trkpt>
      <trkpt lat="45.34153" lon="5.72032">
        <ele>1652.9</ele>
        <time>2021-12-19T12:10:42Z</time>
      </trkpt>
      <trkpt lat="45.34152" lon="5.72032">
        <ele>1652.9</ele>
        <time>2021-12-19T12:10:43Z</time>
      </trkpt>
      <trkpt lat="45.34152" lon="5.72032">
        <ele>1652.9</ele>
        <time>2021-12-19T12:10:44Z</time>
      </trkpt>
      <trkpt lat="45.34152" lon="5.72032">
        <ele>1652.9</ele>
        <time>2021-12-19T12:10:45Z</time>
      </trkpt>
      <trkpt lat="45.34153" lon="5.72032">
        <ele>1652.9</ele>
        <time>2021-12-19T12:10:46Z</time>
      </trkpt>
      <trkpt lat="45.34153" lon="5.72032">
        <ele>1652.9</ele>
        <time>2021-12-19T12:10:47Z</time>
      </trkpt>
      <trkpt lat="45.34153" lon="5.72032">
        <ele>1652.9</ele>
        <time>2021-12-19T12:10:48Z</time>
      </trkpt>
      <trkpt lat="45.34153" lon="5.72032">
        <ele>1652.9</ele>
        <time>2021-12-19T12:10:49Z</time>
      </trkpt>
      <trkpt lat="45.34153" lon="5.72031">
        <ele>1652.9</ele>
        <time>2021-12-19T12:10:50Z</time>
      </trkpt>
      <trkpt lat="45.34153" lon="5.72031">
        <ele>1652.9</ele>
        <time>2021-12-19T12:10:51Z</time>
      </trkpt>
      <trkpt lat="45.34153" lon="5.72031">
        <ele>1652.9</ele>
        <time>2021-12-19T12:10:52Z</time>
      </trkpt>
      <trkpt lat="45.34153" lon="5.72031">
        <ele>1652.9</ele>
        <time>2021-12-19T12:10:53Z</time>
      </trkpt>
      <trkpt lat="45.34153" lon="5.72031">
        <ele>1652.9</ele>
        <time>2021-12-19T12:10:54Z</time>
      </trkpt>
      <trkpt lat="45.34153" lon="5.72031">
        <ele>1652.9</ele>
        <time>2021-12-19T12:10:55Z</time>
      </trkpt>
      <trkpt lat="45.34153" lon="5.72031">
        <ele>1652.9</ele>
        <time>2021-12-19T12:10:56Z</time>
      </trkpt>
      <trkpt lat="45.34153" lon="5.72031">
        <ele>1652.9</ele>
        <time>2021-12-19T12:10:57Z</time>
      </trkpt>
      <trkpt lat="45.34153" lon="5.72031">
        <ele>1652.9</ele>
        <time>2021-12-19T12:10:58Z</time>
      </trkpt>
      <trkpt lat="45.34153" lon="5.72031">
        <ele>1652.9</ele>
        <time>2021-12-19T12:10:59Z</time>
      </trkpt>
      <trkpt lat="45.34153" lon="5.72031">
        <ele>1652.9</ele>
        <time>2021-12-19T12:11:00Z</time>
      </trkpt>
      <trkpt lat="45.34153" lon="5.72031">
        <ele>1652.9</ele>
        <time>2021-12-19T12:11:01Z</time>
      </trkpt>
      <trkpt lat="45.34153" lon="5.72031">
        <ele>1652.9</ele>
        <time>2021-12-19T12:11:02Z</time>
      </trkpt>
      <trkpt lat="45.34153" lon="5.72031">
        <ele>1652.9</ele>
        <time>2021-12-19T12:11:03Z</time>
      </trkpt>
      <trkpt lat="45.34153" lon="5.72031">
        <ele>1652.9</ele>
        <time>2021-12-19T12:11:04Z</time>
      </trkpt>
      <trkpt lat="45.34153" lon="5.72031">
        <ele>1652.9</ele>
        <time>2021-12-19T12:11:05Z</time>
      </trkpt>
      <trkpt lat="45.34153" lon="5.72032">
        <ele>1652.9</ele>
        <time>2021-12-19T12:11:06Z</time>
      </trkpt>
      <trkpt lat="45.34153" lon="5.72032">
        <ele>1652.8</ele>
        <time>2021-12-19T12:11:07Z</time>
      </trkpt>
      <trkpt lat="45.34153" lon="5.72032">
        <ele>1652.8</ele>
        <time>2021-12-19T12:11:08Z</time>
      </trkpt>
      <trkpt lat="45.34153" lon="5.72032">
        <ele>1652.8</ele>
        <time>2021-12-19T12:11:09Z</time>
      </trkpt>
      <trkpt lat="45.34153" lon="5.72032">
        <ele>1652.8</ele>
        <time>2021-12-19T12:11:10Z</time>
      </trkpt>
      <trkpt lat="45.34153" lon="5.72032">
        <ele>1652.8</ele>
        <time>2021-12-19T12:11:11Z</time>
      </trkpt>
      <trkpt lat="45.34153" lon="5.72032">
        <ele>1652.8</ele>
        <time>2021-12-19T12:11:12Z</time>
      </trkpt>
      <trkpt lat="45.34154" lon="5.72032">
        <ele>1652.8</ele>
        <time>2021-12-19T12:11:13Z</time>
      </trkpt>
      <trkpt lat="45.34154" lon="5.72032">
        <ele>1652.8</ele>
        <time>2021-12-19T12:11:14Z</time>
      </trkpt>
      <trkpt lat="45.34154" lon="5.72032">
        <ele>1652.8</ele>
        <time>2021-12-19T12:11:15Z</time>
      </trkpt>
      <trkpt lat="45.34154" lon="5.72032">
        <ele>1652.8</ele>
        <time>2021-12-19T12:11:16Z</time>
      </trkpt>
      <trkpt lat="45.34154" lon="5.72033">
        <ele>1652.8</ele>
        <time>2021-12-19T12:11:17Z</time>
      </trkpt>
      <trkpt lat="45.34154" lon="5.72033">
        <ele>1652.8</ele>
        <time>2021-12-19T12:11:18Z</time>
      </trkpt>
      <trkpt lat="45.34154" lon="5.72033">
        <ele>1652.8</ele>
        <time>2021-12-19T12:11:19Z</time>
      </trkpt>
      <trkpt lat="45.34154" lon="5.72033">
        <ele>1652.8</ele>
        <time>2021-12-19T12:11:20Z</time>
      </trkpt>
      <trkpt lat="45.34153" lon="5.72033">
        <ele>1652.8</ele>
        <time>2021-12-19T12:11:21Z</time>
      </trkpt>
      <trkpt lat="45.34153" lon="5.72033">
        <ele>1653.4</ele>
        <time>2021-12-19T12:11:22Z</time>
      </trkpt>
      <trkpt lat="45.34153" lon="5.72033">
        <ele>1654</ele>
        <time>2021-12-19T12:11:23Z</time>
      </trkpt>
      <trkpt lat="45.34154" lon="5.72033">
        <ele>1654.6</ele>
        <time>2021-12-19T12:11:24Z</time>
      </trkpt>
      <trkpt lat="45.34154" lon="5.72033">
        <ele>1655.3</ele>
        <time>2021-12-19T12:11:25Z</time>
      </trkpt>
      <trkpt lat="45.34154" lon="5.72033">
        <ele>1655.9</ele>
        <time>2021-12-19T12:11:26Z</time>
      </trkpt>
      <trkpt lat="45.34154" lon="5.72033">
        <ele>1656.5</ele>
        <time>2021-12-19T12:11:27Z</time>
      </trkpt>
      <trkpt lat="45.34154" lon="5.72033">
        <ele>1657.1</ele>
        <time>2021-12-19T12:11:28Z</time>
      </trkpt>
      <trkpt lat="45.34154" lon="5.72033">
        <ele>1657.7</ele>
        <time>2021-12-19T12:11:29Z</time>
      </trkpt>
      <trkpt lat="45.34154" lon="5.72033">
        <ele>1658.3</ele>
        <time>2021-12-19T12:11:30Z</time>
      </trkpt>
      <trkpt lat="45.34154" lon="5.72033">
        <ele>1659</ele>
        <time>2021-12-19T12:11:31Z</time>
      </trkpt>
      <trkpt lat="45.34154" lon="5.72033">
        <ele>1659.6</ele>
        <time>2021-12-19T12:11:32Z</time>
      </trkpt>
      <trkpt lat="45.34154" lon="5.72033">
        <ele>1660.2</ele>
        <time>2021-12-19T12:11:33Z</time>
      </trkpt>
      <trkpt lat="45.34154" lon="5.72033">
        <ele>1660.8</ele>
        <time>2021-12-19T12:11:34Z</time>
      </trkpt>
      <trkpt lat="45.34154" lon="5.72033">
        <ele>1661.4</ele>
        <time>2021-12-19T12:11:35Z</time>
      </trkpt>
      <trkpt lat="45.34154" lon="5.72033">
        <ele>1662</ele>
        <time>2021-12-19T12:11:36Z</time>
      </trkpt>
      <trkpt lat="45.34153" lon="5.72033">
        <ele>1662.7</ele>
        <time>2021-12-19T12:11:37Z</time>
      </trkpt>
      <trkpt lat="45.34154" lon="5.72033">
        <ele>1663.3</ele>
        <time>2021-12-19T12:11:38Z</time>
      </trkpt>
      <trkpt lat="45.34154" lon="5.72033">
        <ele>1663.9</ele>
        <time>2021-12-19T12:11:39Z</time>
      </trkpt>
      <trkpt lat="45.34154" lon="5.72033">
        <ele>1664.5</ele>
        <time>2021-12-19T12:11:40Z</time>
      </trkpt>
      <trkpt lat="45.34154" lon="5.72033">
        <ele>1665.1</ele>
        <time>2021-12-19T12:11:41Z</time>
      </trkpt>
      <trkpt lat="45.34154" lon="5.72033">
        <ele>1665.7</ele>
        <time>2021-12-19T12:11:42Z</time>
      </trkpt>
      <trkpt lat="45.34153" lon="5.72033">
        <ele>1666.4</ele>
        <time>2021-12-19T12:11:43Z</time>
      </trkpt>
      <trkpt lat="45.34153" lon="5.72032">
        <ele>1667</ele>
        <time>2021-12-19T12:11:44Z</time>
      </trkpt>
      <trkpt lat="45.34153" lon="5.72032">
        <ele>1667.6</ele>
        <time>2021-12-19T12:11:45Z</time>
      </trkpt>
      <trkpt lat="45.34153" lon="5.72032">
        <ele>1668.2</ele>
        <time>2021-12-19T12:11:46Z</time>
      </trkpt>
      <trkpt lat="45.34154" lon="5.72032">
        <ele>1668.8</ele>
        <time>2021-12-19T12:11:47Z</time>
      </trkpt>
      <trkpt lat="45.34154" lon="5.72032">
        <ele>1669.4</ele>
        <time>2021-12-19T12:11:48Z</time>
      </trkpt>
      <trkpt lat="45.34154" lon="5.72032">
        <ele>1670</ele>
        <time>2021-12-19T12:11:49Z</time>
      </trkpt>
      <trkpt lat="45.34154" lon="5.72032">
        <ele>1670.7</ele>
        <time>2021-12-19T12:11:50Z</time>
      </trkpt>
      <trkpt lat="45.34154" lon="5.72032">
        <ele>1671.2</ele>
        <time>2021-12-19T12:11:51Z</time>
      </trkpt>
      <trkpt lat="45.34154" lon="5.72032">
        <ele>1671.8</ele>
        <time>2021-12-19T12:11:52Z</time>
      </trkpt>
      <trkpt lat="45.34153" lon="5.72032">
        <ele>1672.4</ele>
        <time>2021-12-19T12:11:53Z</time>
      </trkpt>
      <trkpt lat="45.34154" lon="5.72032">
        <ele>1673.1</ele>
        <time>2021-12-19T12:11:54Z</time>
      </trkpt>
      <trkpt lat="45.34154" lon="5.72032">
        <ele>1673.7</ele>
        <time>2021-12-19T12:11:55Z</time>
      </trkpt>
      <trkpt lat="45.34153" lon="5.72032">
        <ele>1674.3</ele>
        <time>2021-12-19T12:11:56Z</time>
      </trkpt>
      <trkpt lat="45.34153" lon="5.72032">
        <ele>1674.9</ele>
        <time>2021-12-19T12:11:57Z</time>
      </trkpt>
      <trkpt lat="45.34153" lon="5.72032">
        <ele>1675.5</ele>
        <time>2021-12-19T12:11:58Z</time>
      </trkpt>
      <trkpt lat="45.34153" lon="5.72032">
        <ele>1676.1</ele>
        <time>2021-12-19T12:11:59Z</time>
      </trkpt>
      <trkpt lat="45.34153" lon="5.72032">
        <ele>1676.8</ele>
        <time>2021-12-19T12:12:00Z</time>
      </trkpt>
      <trkpt lat="45.34153" lon="5.72032">
        <ele>1677.4</ele>
        <time>2021-12-19T12:12:01Z</time>
      </trkpt>
      <trkpt lat="45.34153" lon="5.72032">
        <ele>1678</ele>
        <time>2021-12-19T12:12:02Z</time>
      </trkpt>
      <trkpt lat="45.34153" lon="5.72032">
        <ele>1678.6</ele>
        <time>2021-12-19T12:12:03Z</time>
      </trkpt>
      <trkpt lat="45.34153" lon="5.72032">
        <ele>1679.2</ele>
        <time>2021-12-19T12:12:04Z</time>
      </trkpt>
      <trkpt lat="45.34153" lon="5.72032">
        <ele>1679.8</ele>
        <time>2021-12-19T12:12:05Z</time>
      </trkpt>
      <trkpt lat="45.34153" lon="5.72032">
        <ele>1680.5</ele>
        <time>2021-12-19T12:12:06Z</time>
      </trkpt>
      <trkpt lat="45.34153" lon="5.72032">
        <ele>1681.1</ele>
        <time>2021-12-19T12:12:07Z</time>
      </trkpt>
      <trkpt lat="45.34153" lon="5.72033">
        <ele>1681.7</ele>
        <time>2021-12-19T12:12:08Z</time>
      </trkpt>
      <trkpt lat="45.34153" lon="5.72033">
        <ele>1682.3</ele>
        <time>2021-12-19T12:12:09Z</time>
      </trkpt>
      <trkpt lat="45.34153" lon="5.72032">
        <ele>1682.9</ele>
        <time>2021-12-19T12:12:10Z</time>
      </trkpt>
      <trkpt lat="45.34153" lon="5.72032">
        <ele>1683.6</ele>
        <time>2021-12-19T12:12:11Z</time>
      </trkpt>
      <trkpt lat="45.34153" lon="5.72032">
        <ele>1684.2</ele>
        <time>2021-12-19T12:12:12Z</time>
      </trkpt>
      <trkpt lat="45.34154" lon="5.72032">
        <ele>1684.8</ele>
        <time>2021-12-19T12:12:13Z</time>
      </trkpt>
      <trkpt lat="45.34153" lon="5.72032">
        <ele>1685.4</ele>
        <time>2021-12-19T12:12:14Z</time>
      </trkpt>
      <trkpt lat="45.34153" lon="5.72032">
        <ele>1686</ele>
        <time>2021-12-19T12:12:15Z</time>
      </trkpt>
      <trkpt lat="45.34153" lon="5.72032">
        <ele>1686.6</ele>
        <time>2021-12-19T12:12:16Z</time>
      </trkpt>
      <trkpt lat="45.34153" lon="5.72032">
        <ele>1687.3</ele>
        <time>2021-12-19T12:12:17Z</time>
      </trkpt>
      <trkpt lat="45.34153" lon="5.72032">
        <ele>1687.9</ele>
        <time>2021-12-19T12:12:18Z</time>
      </trkpt>
      <trkpt lat="45.34153" lon="5.72032">
        <ele>1688.5</ele>
        <time>2021-12-19T12:12:19Z</time>
      </trkpt>
      <trkpt lat="45.34153" lon="5.72032">
        <ele>1689.1</ele>
        <time>2021-12-19T12:12:20Z</time>
      </trkpt>
      <trkpt lat="45.34153" lon="5.72032">
        <ele>1689.7</ele>
        <time>2021-12-19T12:12:21Z</time>
      </trkpt>
      <trkpt lat="45.34153" lon="5.72033">
        <ele>1690.3</ele>
        <time>2021-12-19T12:12:22Z</time>
      </trkpt>
      <trkpt lat="45.34154" lon="5.72033">
        <ele>1691</ele>
        <time>2021-12-19T12:12:23Z</time>
      </trkpt>
      <trkpt lat="45.34154" lon="5.72032">
        <ele>1691.6</ele>
        <time>2021-12-19T12:12:24Z</time>
      </trkpt>
      <trkpt lat="45.34154" lon="5.72033">
        <ele>1692.2</ele>
        <time>2021-12-19T12:12:25Z</time>
      </trkpt>
      <trkpt lat="45.34153" lon="5.72033">
        <ele>1692.8</ele>
        <time>2021-12-19T12:12:26Z</time>
      </trkpt>
      <trkpt lat="45.34153" lon="5.72032">
        <ele>1693.4</ele>
        <time>2021-12-19T12:12:27Z</time>
      </trkpt>
      <trkpt lat="45.34153" lon="5.72032">
        <ele>1694</ele>
        <time>2021-12-19T12:12:28Z</time>
      </trkpt>
      <trkpt lat="45.34153" lon="5.72032">
        <ele>1694.6</ele>
        <time>2021-12-19T12:12:29Z</time>
      </trkpt>
      <trkpt lat="45.34153" lon="5.72033">
        <ele>1695.2</ele>
        <time>2021-12-19T12:12:30Z</time>
      </trkpt>
      <trkpt lat="45.34153" lon="5.72033">
        <ele>1695.9</ele>
        <time>2021-12-19T12:12:31Z</time>
      </trkpt>
      <trkpt lat="45.34153" lon="5.72032">
        <ele>1696.5</ele>
        <time>2021-12-19T12:12:32Z</time>
      </trkpt>
      <trkpt lat="45.34153" lon="5.72032">
        <ele>1697.1</ele>
        <time>2021-12-19T12:12:33Z</time>
      </trkpt>
      <trkpt lat="45.34153" lon="5.72032">
        <ele>1697.7</ele>
        <time>2021-12-19T12:12:34Z</time>
      </trkpt>
      <trkpt lat="45.34153" lon="5.72032">
        <ele>1698.3</ele>
        <time>2021-12-19T12:12:35Z</time>
      </trkpt>
      <trkpt lat="45.34153" lon="5.72032">
        <ele>1699</ele>
        <time>2021-12-19T12:12:36Z</time>
      </trkpt>
      <trkpt lat="45.34153" lon="5.72032">
        <ele>1699.6</ele>
        <time>2021-12-19T12:12:37Z</time>
      </trkpt>
      <trkpt lat="45.34153" lon="5.72033">
        <ele>1700.2</ele>
        <time>2021-12-19T12:12:38Z</time>
      </trkpt>
      <trkpt lat="45.34153" lon="5.72033">
        <ele>1700.8</ele>
        <time>2021-12-19T12:12:39Z</time>
      </trkpt>
      <trkpt lat="45.34153" lon="5.72033">
        <ele>1701.4</ele>
        <time>2021-12-19T12:12:40Z</time>
      </trkpt>
      <trkpt lat="45.34153" lon="5.72033">
        <ele>1702</ele>
        <time>2021-12-19T12:12:41Z</time>
      </trkpt>
      <trkpt lat="45.34153" lon="5.72033">
        <ele>1702.7</ele>
        <time>2021-12-19T12:12:42Z</time>
      </trkpt>
      <trkpt lat="45.34153" lon="5.72033">
        <ele>1703.3</ele>
        <time>2021-12-19T12:12:43Z</time>
      </trkpt>
      <trkpt lat="45.34153" lon="5.72033">
        <ele>1703.9</ele>
        <time>2021-12-19T12:12:44Z</time>
      </trkpt>
      <trkpt lat="45.34153" lon="5.72033">
        <ele>1704.5</ele>
        <time>2021-12-19T12:12:45Z</time>
      </trkpt>
      <trkpt lat="45.34153" lon="5.72033">
        <ele>1705.1</ele>
        <time>2021-12-19T12:12:46Z</time>
      </trkpt>
      <trkpt lat="45.34153" lon="5.72033">
        <ele>1705.7</ele>
        <time>2021-12-19T12:12:47Z</time>
      </trkpt>
      <trkpt lat="45.34153" lon="5.72033">
        <ele>1706.4</ele>
        <time>2021-12-19T12:12:48Z</time>
      </trkpt>
      <trkpt lat="45.34153" lon="5.72033">
        <ele>1707</ele>
        <time>2021-12-19T12:12:49Z</time>
      </trkpt>
      <trkpt lat="45.34153" lon="5.72033">
        <ele>1707.6</ele>
        <time>2021-12-19T12:12:50Z</time>
      </trkpt>
      <trkpt lat="45.34153" lon="5.72033">
        <ele>1708.2</ele>
        <time>2021-12-19T12:12:51Z</time>
      </trkpt>
      <trkpt lat="45.34153" lon="5.72033">
        <ele>1708.8</ele>
        <time>2021-12-19T12:12:52Z</time>
      </trkpt>
      <trkpt lat="45.34153" lon="5.72033">
        <ele>1709.5</ele>
        <time>2021-12-19T12:12:53Z</time>
      </trkpt>
      <trkpt lat="45.34153" lon="5.72033">
        <ele>1710.1</ele>
        <time>2021-12-19T12:12:54Z</time>
      </trkpt>
      <trkpt lat="45.34153" lon="5.72033">
        <ele>1710.7</ele>
        <time>2021-12-19T12:12:55Z</time>
      </trkpt>
      <trkpt lat="45.34153" lon="5.72033">
        <ele>1711.3</ele>
        <time>2021-12-19T12:12:56Z</time>
      </trkpt>
      <trkpt lat="45.34153" lon="5.72033">
        <ele>1711.9</ele>
        <time>2021-12-19T12:12:57Z</time>
      </trkpt>
      <trkpt lat="45.34153" lon="5.72033">
        <ele>1712.5</ele>
        <time>2021-12-19T12:12:58Z</time>
      </trkpt>
      <trkpt lat="45.34153" lon="5.72033">
        <ele>1713.2</ele>
        <time>2021-12-19T12:12:59Z</time>
      </trkpt>
      <trkpt lat="45.34153" lon="5.72033">
        <ele>1713.8</ele>
        <time>2021-12-19T12:13:00Z</time>
      </trkpt>
      <trkpt lat="45.34153" lon="5.72033">
        <ele>1715.9</ele>
        <time>2021-12-19T12:13:01Z</time>
      </trkpt>
      <trkpt lat="45.34153" lon="5.72033">
        <ele>1715.9</ele>
        <time>2021-12-19T12:13:02Z</time>
      </trkpt>
      <trkpt lat="45.34153" lon="5.72033">
        <ele>1715.9</ele>
        <time>2021-12-19T12:13:03Z</time>
      </trkpt>
      <trkpt lat="45.34153" lon="5.72033">
        <ele>1715.9</ele>
        <time>2021-12-19T12:13:04Z</time>
      </trkpt>
      <trkpt lat="45.34153" lon="5.72033">
        <ele>1715.9</ele>
        <time>2021-12-19T12:13:05Z</time>
      </trkpt>
      <trkpt lat="45.34153" lon="5.72033">
        <ele>1715.9</ele>
        <time>2021-12-19T12:13:06Z</time>
      </trkpt>
      <trkpt lat="45.34153" lon="5.72033">
        <ele>1715.9</ele>
        <time>2021-12-19T12:13:07Z</time>
      </trkpt>
      <trkpt lat="45.34153" lon="5.72033">
        <ele>1715.9</ele>
        <time>2021-12-19T12:13:08Z</time>
      </trkpt>
      <trkpt lat="45.34153" lon="5.72033">
        <ele>1715.9</ele>
        <time>2021-12-19T12:13:09Z</time>
      </trkpt>
      <trkpt lat="45.34153" lon="5.72033">
        <ele>1715.9</ele>
        <time>2021-12-19T12:13:10Z</time>
      </trkpt>
      <trkpt lat="45.34153" lon="5.72033">
        <ele>1715.9</ele>
        <time>2021-12-19T12:13:11Z</time>
      </trkpt>
      <trkpt lat="45.34153" lon="5.72033">
        <ele>1715.9</ele>
        <time>2021-12-19T12:13:12Z</time>
      </trkpt>
      <trkpt lat="45.34152" lon="5.72033">
        <ele>1715.9</ele>
        <time>2021-12-19T12:13:13Z</time>
      </trkpt>
      <trkpt lat="45.34152" lon="5.72033">
        <ele>1715.9</ele>
        <time>2021-12-19T12:13:14Z</time>
      </trkpt>
      <trkpt lat="45.34152" lon="5.72033">
        <ele>1715.9</ele>
        <time>2021-12-19T12:13:15Z</time>
      </trkpt>
      <trkpt lat="45.34152" lon="5.72033">
        <ele>1715.9</ele>
        <time>2021-12-19T12:13:16Z</time>
      </trkpt>
      <trkpt lat="45.34152" lon="5.72033">
        <ele>1715.9</ele>
        <time>2021-12-19T12:13:17Z</time>
      </trkpt>
      <trkpt lat="45.34152" lon="5.72033">
        <ele>1715.9</ele>
        <time>2021-12-19T12:13:18Z</time>
      </trkpt>
      <trkpt lat="45.34152" lon="5.72033">
        <ele>1715.9</ele>
        <time>2021-12-19T12:13:19Z</time>
      </trkpt>
      <trkpt lat="45.34152" lon="5.72033">
        <ele>1715.9</ele>
        <time>2021-12-19T12:13:20Z</time>
      </trkpt>
      <trkpt lat="45.34152" lon="5.72033">
        <ele>1715.9</ele>
        <time>2021-12-19T12:13:21Z</time>
      </trkpt>
      <trkpt lat="45.34152" lon="5.72033">
        <ele>1715.9</ele>
        <time>2021-12-19T12:13:22Z</time>
      </trkpt>
      <trkpt lat="45.34152" lon="5.72033">
        <ele>1715.9</ele>
        <time>2021-12-19T12:13:23Z</time>
      </trkpt>
      <trkpt lat="45.34152" lon="5.72033">
        <ele>1715.9</ele>
        <time>2021-12-19T12:13:24Z</time>
      </trkpt>
      <trkpt lat="45.34152" lon="5.72033">
        <ele>1715.9</ele>
        <time>2021-12-19T12:13:25Z</time>
      </trkpt>
      <trkpt lat="45.34152" lon="5.72033">
        <ele>1715.9</ele>
        <time>2021-12-19T12:13:26Z</time>
      </trkpt>
      <trkpt lat="45.34152" lon="5.72033">
        <ele>1715.9</ele>
        <time>2021-12-19T12:13:27Z</time>
      </trkpt>
      <trkpt lat="45.34152" lon="5.72033">
        <ele>1715.9</ele>
        <time>2021-12-19T12:13:28Z</time>
      </trkpt>
      <trkpt lat="45.34152" lon="5.72033">
        <ele>1715.9</ele>
        <time>2021-12-19T12:13:29Z</time>
      </trkpt>
      <trkpt lat="45.34152" lon="5.72033">
        <ele>1715.9</ele>
        <time>2021-12-19T12:13:30Z</time>
      </trkpt>
      <trkpt lat="45.34152" lon="5.72033">
        <ele>1715.9</ele>
        <time>2021-12-19T12:13:31Z</time>
      </trkpt>
      <trkpt lat="45.34152" lon="5.72033">
        <ele>1715.9</ele>
        <time>2021-12-19T12:13:32Z</time>
      </trkpt>
      <trkpt lat="45.34152" lon="5.72033">
        <ele>1715.9</ele>
        <time>2021-12-19T12:13:33Z</time>
      </trkpt>
      <trkpt lat="45.34152" lon="5.72033">
        <ele>1715.9</ele>
        <time>2021-12-19T12:13:34Z</time>
      </trkpt>
      <trkpt lat="45.34152" lon="5.72033">
        <ele>1715.9</ele>
        <time>2021-12-19T12:13:35Z</time>
      </trkpt>
      <trkpt lat="45.34152" lon="5.72033">
        <ele>1715.9</ele>
        <time>2021-12-19T12:13:36Z</time>
      </trkpt>
      <trkpt lat="45.34152" lon="5.72033">
        <ele>1715.9</ele>
        <time>2021-12-19T12:13:37Z</time>
      </trkpt>
      <trkpt lat="45.34152" lon="5.72033">
        <ele>1715.9</ele>
        <time>2021-12-19T12:13:38Z</time>
      </trkpt>
      <trkpt lat="45.34152" lon="5.72033">
        <ele>1715.9</ele>
        <time>2021-12-19T12:13:39Z</time>
      </trkpt>
      <trkpt lat="45.34152" lon="5.72033">
        <ele>1715.9</ele>
        <time>2021-12-19T12:13:40Z</time>
      </trkpt>
      <trkpt lat="45.34152" lon="5.72033">
        <ele>1715.9</ele>
        <time>2021-12-19T12:13:41Z</time>
      </trkpt>
      <trkpt lat="45.34152" lon="5.72033">
        <ele>1715.9</ele>
        <time>2021-12-19T12:13:42Z</time>
      </trkpt>
      <trkpt lat="45.34152" lon="5.72033">
        <ele>1715.9</ele>
        <time>2021-12-19T12:13:43Z</time>
      </trkpt>
      <trkpt lat="45.34152" lon="5.72033">
        <ele>1715.9</ele>
        <time>2021-12-19T12:13:44Z</time>
      </trkpt>
      <trkpt lat="45.34152" lon="5.72033">
        <ele>1715.9</ele>
        <time>2021-12-19T12:13:45Z</time>
      </trkpt>
      <trkpt lat="45.34152" lon="5.72033">
        <ele>1715.9</ele>
        <time>2021-12-19T12:13:46Z</time>
      </trkpt>
      <trkpt lat="45.34152" lon="5.72033">
        <ele>1715.9</ele>
        <time>2021-12-19T12:13:47Z</time>
      </trkpt>
      <trkpt lat="45.34152" lon="5.72033">
        <ele>1715.9</ele>
        <time>2021-12-19T12:13:48Z</time>
      </trkpt>
      <trkpt lat="45.34152" lon="5.72033">
        <ele>1715.9</ele>
        <time>2021-12-19T12:13:49Z</time>
      </trkpt>
      <trkpt lat="45.34152" lon="5.72033">
        <ele>1715.9</ele>
        <time>2021-12-19T12:13:50Z</time>
      </trkpt>
      <trkpt lat="45.34152" lon="5.72034">
        <ele>1715.9</ele>
        <time>2021-12-19T12:13:51Z</time>
      </trkpt>
      <trkpt lat="45.34152" lon="5.72034">
        <ele>1715.9</ele>
        <time>2021-12-19T12:13:52Z</time>
      </trkpt>
      <trkpt lat="45.34152" lon="5.72034">
        <ele>1715.9</ele>
        <time>2021-12-19T12:13:53Z</time>
      </trkpt>
      <trkpt lat="45.34152" lon="5.72033">
        <ele>1715.9</ele>
        <time>2021-12-19T12:13:54Z</time>
      </trkpt>
      <trkpt lat="45.34152" lon="5.72033">
        <ele>1715.9</ele>
        <time>2021-12-19T12:13:55Z</time>
      </trkpt>
      <trkpt lat="45.34152" lon="5.72033">
        <ele>1715.9</ele>
        <time>2021-12-19T12:13:56Z</time>
      </trkpt>
      <trkpt lat="45.34152" lon="5.72033">
        <ele>1715.9</ele>
        <time>2021-12-19T12:13:57Z</time>
      </trkpt>
      <trkpt lat="45.34152" lon="5.72033">
        <ele>1715.9</ele>
        <time>2021-12-19T12:13:58Z</time>
      </trkpt>
      <trkpt lat="45.34152" lon="5.72033">
        <ele>1715.9</ele>
        <time>2021-12-19T12:13:59Z</time>
      </trkpt>
      <trkpt lat="45.34152" lon="5.72033">
        <ele>1715.9</ele>
        <time>2021-12-19T12:14:00Z</time>
      </trkpt>
      <trkpt lat="45.34152" lon="5.72033">
        <ele>1715.9</ele>
        <time>2021-12-19T12:14:01Z</time>
      </trkpt>
      <trkpt lat="45.34152" lon="5.72033">
        <ele>1715.9</ele>
        <time>2021-12-19T12:14:02Z</time>
      </trkpt>
      <trkpt lat="45.34152" lon="5.72033">
        <ele>1715.9</ele>
        <time>2021-12-19T12:14:03Z</time>
      </trkpt>
      <trkpt lat="45.34152" lon="5.72033">
        <ele>1715.9</ele>
        <time>2021-12-19T12:14:04Z</time>
      </trkpt>
      <trkpt lat="45.34152" lon="5.72033">
        <ele>1715.9</ele>
        <time>2021-12-19T12:14:05Z</time>
      </trkpt>
      <trkpt lat="45.34151" lon="5.72034">
        <ele>1715.9</ele>
        <time>2021-12-19T12:14:06Z</time>
      </trkpt>
      <trkpt lat="45.34151" lon="5.72034">
        <ele>1715.9</ele>
        <time>2021-12-19T12:14:07Z</time>
      </trkpt>
      <trkpt lat="45.34151" lon="5.72034">
        <ele>1715.9</ele>
        <time>2021-12-19T12:14:08Z</time>
      </trkpt>
      <trkpt lat="45.34151" lon="5.72034">
        <ele>1715.9</ele>
        <time>2021-12-19T12:14:09Z</time>
      </trkpt>
      <trkpt lat="45.34151" lon="5.72034">
        <ele>1715.9</ele>
        <time>2021-12-19T12:14:10Z</time>
      </trkpt>
      <trkpt lat="45.34151" lon="5.72034">
        <ele>1715.9</ele>
        <time>2021-12-19T12:14:11Z</time>
      </trkpt>
      <trkpt lat="45.34151" lon="5.72034">
        <ele>1715.9</ele>
        <time>2021-12-19T12:14:12Z</time>
      </trkpt>
      <trkpt lat="45.34151" lon="5.72034">
        <ele>1715.9</ele>
        <time>2021-12-19T12:14:13Z</time>
      </trkpt>
      <trkpt lat="45.34151" lon="5.72034">
        <ele>1715.9</ele>
        <time>2021-12-19T12:14:14Z</time>
      </trkpt>
      <trkpt lat="45.34151" lon="5.72034">
        <ele>1715.9</ele>
        <time>2021-12-19T12:14:15Z</time>
      </trkpt>
      <trkpt lat="45.34151" lon="5.72034">
        <ele>1715.9</ele>
        <time>2021-12-19T12:14:16Z</time>
      </trkpt>
      <trkpt lat="45.34151" lon="5.72034">
        <ele>1715.9</ele>
        <time>2021-12-19T12:14:17Z</time>
      </trkpt>
      <trkpt lat="45.34151" lon="5.72034">
        <ele>1715.9</ele>
        <time>2021-12-19T12:14:18Z</time>
      </trkpt>
      <trkpt lat="45.34151" lon="5.72034">
        <ele>1715.9</ele>
        <time>2021-12-19T12:14:19Z</time>
      </trkpt>
      <trkpt lat="45.34151" lon="5.72034">
        <ele>1715.9</ele>
        <time>2021-12-19T12:14:20Z</time>
      </trkpt>
      <trkpt lat="45.34151" lon="5.72034">
        <ele>1715.9</ele>
        <time>2021-12-19T12:14:21Z</time>
      </trkpt>
      <trkpt lat="45.34151" lon="5.72034">
        <ele>1715.9</ele>
        <time>2021-12-19T12:14:22Z</time>
      </trkpt>
      <trkpt lat="45.34151" lon="5.72034">
        <ele>1715.9</ele>
        <time>2021-12-19T12:14:23Z</time>
      </trkpt>
      <trkpt lat="45.34151" lon="5.72034">
        <ele>1715.9</ele>
        <time>2021-12-19T12:14:24Z</time>
      </trkpt>
      <trkpt lat="45.34151" lon="5.72034">
        <ele>1715.9</ele>
        <time>2021-12-19T12:14:25Z</time>
      </trkpt>
      <trkpt lat="45.34151" lon="5.72034">
        <ele>1715.9</ele>
        <time>2021-12-19T12:14:26Z</time>
      </trkpt>
      <trkpt lat="45.34151" lon="5.72034">
        <ele>1715.9</ele>
        <time>2021-12-19T12:14:27Z</time>
      </trkpt>
      <trkpt lat="45.34151" lon="5.72034">
        <ele>1715.9</ele>
        <time>2021-12-19T12:14:28Z</time>
      </trkpt>
      <trkpt lat="45.34151" lon="5.72034">
        <ele>1715.9</ele>
        <time>2021-12-19T12:14:29Z</time>
      </trkpt>
      <trkpt lat="45.34151" lon="5.72034">
        <ele>1715.9</ele>
        <time>2021-12-19T12:14:30Z</time>
      </trkpt>
      <trkpt lat="45.34151" lon="5.72034">
        <ele>1715.9</ele>
        <time>2021-12-19T12:14:31Z</time>
      </trkpt>
      <trkpt lat="45.34151" lon="5.72034">
        <ele>1715.9</ele>
        <time>2021-12-19T12:14:32Z</time>
      </trkpt>
      <trkpt lat="45.34151" lon="5.72034">
        <ele>1715.9</ele>
        <time>2021-12-19T12:14:33Z</time>
      </trkpt>
      <trkpt lat="45.34151" lon="5.72034">
        <ele>1715.9</ele>
        <time>2021-12-19T12:14:34Z</time>
      </trkpt>
      <trkpt lat="45.34151" lon="5.72034">
        <ele>1715.9</ele>
        <time>2021-12-19T12:14:35Z</time>
      </trkpt>
      <trkpt lat="45.34151" lon="5.72034">
        <ele>1715.9</ele>
        <time>2021-12-19T12:14:36Z</time>
      </trkpt>
      <trkpt lat="45.34151" lon="5.72034">
        <ele>1715.9</ele>
        <time>2021-12-19T12:14:37Z</time>
      </trkpt>
      <trkpt lat="45.34152" lon="5.72034">
        <ele>1715.9</ele>
        <time>2021-12-19T12:14:38Z</time>
      </trkpt>
      <trkpt lat="45.34152" lon="5.72034">
        <ele>1715.9</ele>
        <time>2021-12-19T12:14:39Z</time>
      </trkpt>
      <trkpt lat="45.34152" lon="5.72034">
        <ele>1715.9</ele>
        <time>2021-12-19T12:14:40Z</time>
      </trkpt>
      <trkpt lat="45.34152" lon="5.72034">
        <ele>1715.9</ele>
        <time>2021-12-19T12:14:41Z</time>
      </trkpt>
      <trkpt lat="45.34152" lon="5.72034">
        <ele>1715.9</ele>
        <time>2021-12-19T12:14:42Z</time>
      </trkpt>
      <trkpt lat="45.34152" lon="5.72034">
        <ele>1715.9</ele>
        <time>2021-12-19T12:14:43Z</time>
      </trkpt>
      <trkpt lat="45.34152" lon="5.72034">
        <ele>1715.9</ele>
        <time>2021-12-19T12:14:44Z</time>
      </trkpt>
      <trkpt lat="45.34152" lon="5.72034">
        <ele>1715.9</ele>
        <time>2021-12-19T12:14:45Z</time>
      </trkpt>
      <trkpt lat="45.34152" lon="5.72034">
        <ele>1715.9</ele>
        <time>2021-12-19T12:14:46Z</time>
      </trkpt>
      <trkpt lat="45.34152" lon="5.72034">
        <ele>1715.9</ele>
        <time>2021-12-19T12:14:47Z</time>
      </trkpt>
      <trkpt lat="45.34152" lon="5.72034">
        <ele>1715.9</ele>
        <time>2021-12-19T12:14:48Z</time>
      </trkpt>
      <trkpt lat="45.34152" lon="5.72034">
        <ele>1715.9</ele>
        <time>2021-12-19T12:14:49Z</time>
      </trkpt>
      <trkpt lat="45.34152" lon="5.72033">
        <ele>1715.9</ele>
        <time>2021-12-19T12:14:50Z</time>
      </trkpt>
      <trkpt lat="45.34152" lon="5.72033">
        <ele>1715.9</ele>
        <time>2021-12-19T12:14:51Z</time>
      </trkpt>
      <trkpt lat="45.34152" lon="5.72033">
        <ele>1715.9</ele>
        <time>2021-12-19T12:14:52Z</time>
      </trkpt>
      <trkpt lat="45.34153" lon="5.72033">
        <ele>1715.9</ele>
        <time>2021-12-19T12:14:53Z</time>
      </trkpt>
      <trkpt lat="45.34153" lon="5.72033">
        <ele>1715.9</ele>
        <time>2021-12-19T12:14:54Z</time>
      </trkpt>
      <trkpt lat="45.34153" lon="5.72033">
        <ele>1715.9</ele>
        <time>2021-12-19T12:14:55Z</time>
      </trkpt>
      <trkpt lat="45.34153" lon="5.72033">
        <ele>1715.9</ele>
        <time>2021-12-19T12:14:56Z</time>
      </trkpt>
      <trkpt lat="45.34152" lon="5.72033">
        <ele>1715.9</ele>
        <time>2021-12-19T12:14:57Z</time>
      </trkpt>
      <trkpt lat="45.34152" lon="5.72033">
        <ele>1715.9</ele>
        <time>2021-12-19T12:14:58Z</time>
      </trkpt>
      <trkpt lat="45.34152" lon="5.72033">
        <ele>1715.9</ele>
        <time>2021-12-19T12:14:59Z</time>
      </trkpt>
      <trkpt lat="45.34152" lon="5.72033">
        <ele>1715.9</ele>
        <time>2021-12-19T12:15:00Z</time>
      </trkpt>
      <trkpt lat="45.34152" lon="5.72033">
        <ele>1715.9</ele>
        <time>2021-12-19T12:15:01Z</time>
      </trkpt>
      <trkpt lat="45.34152" lon="5.72033">
        <ele>1715.9</ele>
        <time>2021-12-19T12:15:02Z</time>
      </trkpt>
      <trkpt lat="45.34152" lon="5.72033">
        <ele>1715.9</ele>
        <time>2021-12-19T12:15:03Z</time>
      </trkpt>
      <trkpt lat="45.34152" lon="5.72033">
        <ele>1715.9</ele>
        <time>2021-12-19T12:15:04Z</time>
      </trkpt>
      <trkpt lat="45.34152" lon="5.72033">
        <ele>1715.9</ele>
        <time>2021-12-19T12:15:05Z</time>
      </trkpt>
      <trkpt lat="45.34152" lon="5.72033">
        <ele>1715.9</ele>
        <time>2021-12-19T12:15:06Z</time>
      </trkpt>
      <trkpt lat="45.34152" lon="5.72033">
        <ele>1715.9</ele>
        <time>2021-12-19T12:15:07Z</time>
      </trkpt>
      <trkpt lat="45.34152" lon="5.72032">
        <ele>1715.9</ele>
        <time>2021-12-19T12:15:08Z</time>
      </trkpt>
      <trkpt lat="45.34153" lon="5.72032">
        <ele>1715.9</ele>
        <time>2021-12-19T12:15:09Z</time>
      </trkpt>
      <trkpt lat="45.34153" lon="5.72032">
        <ele>1715.9</ele>
        <time>2021-12-19T12:15:10Z</time>
      </trkpt>
      <trkpt lat="45.34153" lon="5.72032">
        <ele>1714.4</ele>
        <time>2021-12-19T12:15:11Z</time>
      </trkpt>
      <trkpt lat="45.34153" lon="5.72032">
        <ele>1714.4</ele>
        <time>2021-12-19T12:15:12Z</time>
      </trkpt>
      <trkpt lat="45.34153" lon="5.72033">
        <ele>1714.4</ele>
        <time>2021-12-19T12:15:13Z</time>
      </trkpt>
      <trkpt lat="45.34153" lon="5.72033">
        <ele>1714.4</ele>
        <time>2021-12-19T12:15:14Z</time>
      </trkpt>
      <trkpt lat="45.34153" lon="5.72033">
        <ele>1714.4</ele>
        <time>2021-12-19T12:15:15Z</time>
      </trkpt>
      <trkpt lat="45.34153" lon="5.72033">
        <ele>1714.4</ele>
        <time>2021-12-19T12:15:16Z</time>
      </trkpt>
      <trkpt lat="45.34153" lon="5.72033">
        <ele>1714.4</ele>
        <time>2021-12-19T12:15:17Z</time>
      </trkpt>
      <trkpt lat="45.34153" lon="5.72033">
        <ele>1714.4</ele>
        <time>2021-12-19T12:15:18Z</time>
      </trkpt>
      <trkpt lat="45.34153" lon="5.72033">
        <ele>1714.4</ele>
        <time>2021-12-19T12:15:19Z</time>
      </trkpt>
      <trkpt lat="45.34153" lon="5.72033">
        <ele>1714.4</ele>
        <time>2021-12-19T12:15:20Z</time>
      </trkpt>
      <trkpt lat="45.34153" lon="5.72033">
        <ele>1714.4</ele>
        <time>2021-12-19T12:15:21Z</time>
      </trkpt>
      <trkpt lat="45.34153" lon="5.72033">
        <ele>1714.4</ele>
        <time>2021-12-19T12:15:22Z</time>
      </trkpt>
      <trkpt lat="45.34153" lon="5.72033">
        <ele>1714.4</ele>
        <time>2021-12-19T12:15:23Z</time>
      </trkpt>
      <trkpt lat="45.34153" lon="5.72033">
        <ele>1714.4</ele>
        <time>2021-12-19T12:15:24Z</time>
      </trkpt>
      <trkpt lat="45.34153" lon="5.72033">
        <ele>1714.4</ele>
        <time>2021-12-19T12:15:25Z</time>
      </trkpt>
      <trkpt lat="45.34153" lon="5.72033">
        <ele>1714.4</ele>
        <time>2021-12-19T12:15:26Z</time>
      </trkpt>
      <trkpt lat="45.34153" lon="5.72033">
        <ele>1714.4</ele>
        <time>2021-12-19T12:15:27Z</time>
      </trkpt>
      <trkpt lat="45.34153" lon="5.72033">
        <ele>1714.4</ele>
        <time>2021-12-19T12:15:28Z</time>
      </trkpt>
      <trkpt lat="45.34154" lon="5.72033">
        <ele>1714.4</ele>
        <time>2021-12-19T12:15:29Z</time>
      </trkpt>
      <trkpt lat="45.34154" lon="5.72032">
        <ele>1714.4</ele>
        <time>2021-12-19T12:15:30Z</time>
      </trkpt>
      <trkpt lat="45.34154" lon="5.72032">
        <ele>1714.4</ele>
        <time>2021-12-19T12:15:31Z</time>
      </trkpt>
      <trkpt lat="45.34154" lon="5.72032">
        <ele>1714.4</ele>
        <time>2021-12-19T12:15:32Z</time>
      </trkpt>
      <trkpt lat="45.34153" lon="5.72032">
        <ele>1714.4</ele>
        <time>2021-12-19T12:15:33Z</time>
      </trkpt>
      <trkpt lat="45.34154" lon="5.72032">
        <ele>1714.4</ele>
        <time>2021-12-19T12:15:34Z</time>
      </trkpt>
      <trkpt lat="45.34154" lon="5.72032">
        <ele>1714.4</ele>
        <time>2021-12-19T12:15:35Z</time>
      </trkpt>
      <trkpt lat="45.34154" lon="5.72032">
        <ele>1714.4</ele>
        <time>2021-12-19T12:15:36Z</time>
      </trkpt>
      <trkpt lat="45.34154" lon="5.72032">
        <ele>1714.4</ele>
        <time>2021-12-19T12:15:37Z</time>
      </trkpt>
      <trkpt lat="45.34154" lon="5.72032">
        <ele>1714.4</ele>
        <time>2021-12-19T12:15:38Z</time>
      </trkpt>
      <trkpt lat="45.34154" lon="5.72032">
        <ele>1714.4</ele>
        <time>2021-12-19T12:15:39Z</time>
      </trkpt>
      <trkpt lat="45.34154" lon="5.72032">
        <ele>1714.4</ele>
        <time>2021-12-19T12:15:40Z</time>
      </trkpt>
      <trkpt lat="45.34154" lon="5.72032">
        <ele>1714.4</ele>
        <time>2021-12-19T12:15:41Z</time>
      </trkpt>
      <trkpt lat="45.34154" lon="5.72032">
        <ele>1714.4</ele>
        <time>2021-12-19T12:15:42Z</time>
      </trkpt>
      <trkpt lat="45.34154" lon="5.72032">
        <ele>1714.4</ele>
        <time>2021-12-19T12:15:43Z</time>
      </trkpt>
      <trkpt lat="45.34154" lon="5.72032">
        <ele>1714.4</ele>
        <time>2021-12-19T12:15:44Z</time>
      </trkpt>
      <trkpt lat="45.34153" lon="5.72032">
        <ele>1714.4</ele>
        <time>2021-12-19T12:15:45Z</time>
      </trkpt>
      <trkpt lat="45.34153" lon="5.72032">
        <ele>1714.4</ele>
        <time>2021-12-19T12:15:46Z</time>
      </trkpt>
      <trkpt lat="45.34154" lon="5.72032">
        <ele>1714.4</ele>
        <time>2021-12-19T12:15:47Z</time>
      </trkpt>
      <trkpt lat="45.34153" lon="5.72032">
        <ele>1714.4</ele>
        <time>2021-12-19T12:15:48Z</time>
      </trkpt>
      <trkpt lat="45.34153" lon="5.72032">
        <ele>1714.4</ele>
        <time>2021-12-19T12:15:49Z</time>
      </trkpt>
      <trkpt lat="45.34153" lon="5.72032">
        <ele>1714.4</ele>
        <time>2021-12-19T12:15:50Z</time>
      </trkpt>
      <trkpt lat="45.34153" lon="5.72032">
        <ele>1714.4</ele>
        <time>2021-12-19T12:15:51Z</time>
      </trkpt>
      <trkpt lat="45.34153" lon="5.72032">
        <ele>1714.4</ele>
        <time>2021-12-19T12:15:52Z</time>
      </trkpt>
      <trkpt lat="45.34153" lon="5.72032">
        <ele>1714.4</ele>
        <time>2021-12-19T12:15:53Z</time>
      </trkpt>
      <trkpt lat="45.34153" lon="5.72032">
        <ele>1714.4</ele>
        <time>2021-12-19T12:15:54Z</time>
      </trkpt>
      <trkpt lat="45.34153" lon="5.72032">
        <ele>1714.4</ele>
        <time>2021-12-19T12:15:55Z</time>
      </trkpt>
      <trkpt lat="45.34153" lon="5.72032">
        <ele>1714.4</ele>
        <time>2021-12-19T12:15:56Z</time>
      </trkpt>
      <trkpt lat="45.34153" lon="5.72032">
        <ele>1714.4</ele>
        <time>2021-12-19T12:15:57Z</time>
      </trkpt>
      <trkpt lat="45.34153" lon="5.72032">
        <ele>1714.4</ele>
        <time>2021-12-19T12:15:58Z</time>
      </trkpt>
      <trkpt lat="45.34153" lon="5.72032">
        <ele>1714.4</ele>
        <time>2021-12-19T12:15:59Z</time>
      </trkpt>
      <trkpt lat="45.34153" lon="5.72032">
        <ele>1714.4</ele>
        <time>2021-12-19T12:16:00Z</time>
      </trkpt>
      <trkpt lat="45.34153" lon="5.72032">
        <ele>1714.4</ele>
        <time>2021-12-19T12:16:01Z</time>
      </trkpt>
      <trkpt lat="45.34153" lon="5.72032">
        <ele>1714.4</ele>
        <time>2021-12-19T12:16:02Z</time>
      </trkpt>
      <trkpt lat="45.34153" lon="5.72032">
        <ele>1714.4</ele>
        <time>2021-12-19T12:16:03Z</time>
      </trkpt>
      <trkpt lat="45.34153" lon="5.72032">
        <ele>1714.4</ele>
        <time>2021-12-19T12:16:04Z</time>
      </trkpt>
      <trkpt lat="45.34153" lon="5.72032">
        <ele>1714.4</ele>
        <time>2021-12-19T12:16:05Z</time>
      </trkpt>
      <trkpt lat="45.34153" lon="5.72032">
        <ele>1714.4</ele>
        <time>2021-12-19T12:16:06Z</time>
      </trkpt>
      <trkpt lat="45.34153" lon="5.72032">
        <ele>1714.4</ele>
        <time>2021-12-19T12:16:07Z</time>
      </trkpt>
      <trkpt lat="45.34153" lon="5.72032">
        <ele>1714.4</ele>
        <time>2021-12-19T12:16:08Z</time>
      </trkpt>
      <trkpt lat="45.34153" lon="5.72032">
        <ele>1715.9</ele>
        <time>2021-12-19T12:16:09Z</time>
      </trkpt>
      <trkpt lat="45.34153" lon="5.72032">
        <ele>1715.9</ele>
        <time>2021-12-19T12:16:10Z</time>
      </trkpt>
      <trkpt lat="45.34153" lon="5.72032">
        <ele>1715.9</ele>
        <time>2021-12-19T12:16:11Z</time>
      </trkpt>
      <trkpt lat="45.34153" lon="5.72032">
        <ele>1714.4</ele>
        <time>2021-12-19T12:16:12Z</time>
      </trkpt>
      <trkpt lat="45.34153" lon="5.72032">
        <ele>1715.9</ele>
        <time>2021-12-19T12:16:13Z</time>
      </trkpt>
      <trkpt lat="45.34152" lon="5.72033">
        <ele>1715.9</ele>
        <time>2021-12-19T12:16:14Z</time>
      </trkpt>
      <trkpt lat="45.34152" lon="5.72033">
        <ele>1715.9</ele>
        <time>2021-12-19T12:16:15Z</time>
      </trkpt>
      <trkpt lat="45.34152" lon="5.72033">
        <ele>1715.9</ele>
        <time>2021-12-19T12:16:16Z</time>
      </trkpt>
      <trkpt lat="45.34152" lon="5.72032">
        <ele>1715.9</ele>
        <time>2021-12-19T12:16:17Z</time>
      </trkpt>
      <trkpt lat="45.34152" lon="5.72032">
        <ele>1715.9</ele>
        <time>2021-12-19T12:16:18Z</time>
      </trkpt>
      <trkpt lat="45.34152" lon="5.72032">
        <ele>1715.9</ele>
        <time>2021-12-19T12:16:19Z</time>
      </trkpt>
      <trkpt lat="45.34152" lon="5.72032">
        <ele>1715.9</ele>
        <time>2021-12-19T12:16:20Z</time>
      </trkpt>
      <trkpt lat="45.34153" lon="5.72032">
        <ele>1715.9</ele>
        <time>2021-12-19T12:16:21Z</time>
      </trkpt>
      <trkpt lat="45.34153" lon="5.72032">
        <ele>1715.9</ele>
        <time>2021-12-19T12:16:22Z</time>
      </trkpt>
      <trkpt lat="45.34153" lon="5.72032">
        <ele>1715.9</ele>
        <time>2021-12-19T12:16:23Z</time>
      </trkpt>
      <trkpt lat="45.34153" lon="5.72032">
        <ele>1715.9</ele>
        <time>2021-12-19T12:16:24Z</time>
      </trkpt>
      <trkpt lat="45.34153" lon="5.72032">
        <ele>1715.9</ele>
        <time>2021-12-19T12:16:25Z</time>
      </trkpt>
      <trkpt lat="45.34153" lon="5.72032">
        <ele>1715.9</ele>
        <time>2021-12-19T12:16:26Z</time>
      </trkpt>
      <trkpt lat="45.34153" lon="5.72032">
        <ele>1715.9</ele>
        <time>2021-12-19T12:16:27Z</time>
      </trkpt>
      <trkpt lat="45.34153" lon="5.72032">
        <ele>1715.9</ele>
        <time>2021-12-19T12:16:28Z</time>
      </trkpt>
      <trkpt lat="45.34153" lon="5.72031">
        <ele>1715.3</ele>
        <time>2021-12-19T12:16:29Z</time>
      </trkpt>
      <trkpt lat="45.34152" lon="5.72032">
        <ele>1715.9</ele>
        <time>2021-12-19T12:16:30Z</time>
      </trkpt>
      <trkpt lat="45.34152" lon="5.72031">
        <ele>1715.3</ele>
        <time>2021-12-19T12:16:31Z</time>
      </trkpt>
      <trkpt lat="45.34152" lon="5.72031">
        <ele>1715.3</ele>
        <time>2021-12-19T12:16:32Z</time>
      </trkpt>
      <trkpt lat="45.34152" lon="5.72031">
        <ele>1715.3</ele>
        <time>2021-12-19T12:16:33Z</time>
      </trkpt>
      <trkpt lat="45.34152" lon="5.72031">
        <ele>1715.3</ele>
        <time>2021-12-19T12:16:34Z</time>
      </trkpt>
      <trkpt lat="45.34152" lon="5.72031">
        <ele>1715.3</ele>
        <time>2021-12-19T12:16:35Z</time>
      </trkpt>
      <trkpt lat="45.34152" lon="5.72031">
        <ele>1715.3</ele>
        <time>2021-12-19T12:16:36Z</time>
      </trkpt>
      <trkpt lat="45.34152" lon="5.72031">
        <ele>1715.3</ele>
        <time>2021-12-19T12:16:37Z</time>
      </trkpt>
      <trkpt lat="45.34152" lon="5.72031">
        <ele>1715.3</ele>
        <time>2021-12-19T12:16:38Z</time>
      </trkpt>
      <trkpt lat="45.34152" lon="5.72031">
        <ele>1715.3</ele>
        <time>2021-12-19T12:16:39Z</time>
      </trkpt>
      <trkpt lat="45.34152" lon="5.72031">
        <ele>1715.3</ele>
        <time>2021-12-19T12:16:40Z</time>
      </trkpt>
      <trkpt lat="45.34152" lon="5.72031">
        <ele>1715.3</ele>
        <time>2021-12-19T12:16:41Z</time>
      </trkpt>
      <trkpt lat="45.34152" lon="5.72031">
        <ele>1715.3</ele>
        <time>2021-12-19T12:16:42Z</time>
      </trkpt>
      <trkpt lat="45.34152" lon="5.72031">
        <ele>1715.3</ele>
        <time>2021-12-19T12:16:43Z</time>
      </trkpt>
      <trkpt lat="45.34152" lon="5.72031">
        <ele>1715.3</ele>
        <time>2021-12-19T12:16:44Z</time>
      </trkpt>
      <trkpt lat="45.34152" lon="5.72031">
        <ele>1715.3</ele>
        <time>2021-12-19T12:16:45Z</time>
      </trkpt>
      <trkpt lat="45.34152" lon="5.72031">
        <ele>1715.3</ele>
        <time>2021-12-19T12:16:46Z</time>
      </trkpt>
      <trkpt lat="45.34152" lon="5.72031">
        <ele>1715.3</ele>
        <time>2021-12-19T12:16:47Z</time>
      </trkpt>
      <trkpt lat="45.34152" lon="5.72031">
        <ele>1715.3</ele>
        <time>2021-12-19T12:16:48Z</time>
      </trkpt>
      <trkpt lat="45.34152" lon="5.72031">
        <ele>1715.3</ele>
        <time>2021-12-19T12:16:49Z</time>
      </trkpt>
      <trkpt lat="45.34152" lon="5.72031">
        <ele>1715.3</ele>
        <time>2021-12-19T12:16:50Z</time>
      </trkpt>
      <trkpt lat="45.34152" lon="5.72031">
        <ele>1715.3</ele>
        <time>2021-12-19T12:16:51Z</time>
      </trkpt>
      <trkpt lat="45.34152" lon="5.72031">
        <ele>1715.3</ele>
        <time>2021-12-19T12:16:52Z</time>
      </trkpt>
      <trkpt lat="45.34152" lon="5.72031">
        <ele>1715.3</ele>
        <time>2021-12-19T12:16:53Z</time>
      </trkpt>
      <trkpt lat="45.34152" lon="5.72031">
        <ele>1715.3</ele>
        <time>2021-12-19T12:16:54Z</time>
      </trkpt>
      <trkpt lat="45.34152" lon="5.72031">
        <ele>1715.3</ele>
        <time>2021-12-19T12:16:55Z</time>
      </trkpt>
      <trkpt lat="45.34152" lon="5.72031">
        <ele>1715.3</ele>
        <time>2021-12-19T12:16:56Z</time>
      </trkpt>
      <trkpt lat="45.34152" lon="5.72031">
        <ele>1715.3</ele>
        <time>2021-12-19T12:16:57Z</time>
      </trkpt>
      <trkpt lat="45.34152" lon="5.72031">
        <ele>1715.3</ele>
        <time>2021-12-19T12:16:58Z</time>
      </trkpt>
      <trkpt lat="45.34152" lon="5.72031">
        <ele>1715.3</ele>
        <time>2021-12-19T12:16:59Z</time>
      </trkpt>
      <trkpt lat="45.34152" lon="5.72031">
        <ele>1715.3</ele>
        <time>2021-12-19T12:17:00Z</time>
      </trkpt>
      <trkpt lat="45.34152" lon="5.72031">
        <ele>1715.3</ele>
        <time>2021-12-19T12:17:01Z</time>
      </trkpt>
      <trkpt lat="45.34152" lon="5.72031">
        <ele>1715.3</ele>
        <time>2021-12-19T12:17:02Z</time>
      </trkpt>
      <trkpt lat="45.34152" lon="5.72031">
        <ele>1715.3</ele>
        <time>2021-12-19T12:17:03Z</time>
      </trkpt>
      <trkpt lat="45.34152" lon="5.72031">
        <ele>1715.3</ele>
        <time>2021-12-19T12:17:04Z</time>
      </trkpt>
      <trkpt lat="45.34152" lon="5.72031">
        <ele>1715.3</ele>
        <time>2021-12-19T12:17:05Z</time>
      </trkpt>
      <trkpt lat="45.34152" lon="5.72031">
        <ele>1715.3</ele>
        <time>2021-12-19T12:17:06Z</time>
      </trkpt>
      <trkpt lat="45.34152" lon="5.72031">
        <ele>1715.3</ele>
        <time>2021-12-19T12:17:07Z</time>
      </trkpt>
      <trkpt lat="45.34152" lon="5.72031">
        <ele>1715.3</ele>
        <time>2021-12-19T12:17:08Z</time>
      </trkpt>
      <trkpt lat="45.34152" lon="5.72031">
        <ele>1715.3</ele>
        <time>2021-12-19T12:17:09Z</time>
      </trkpt>
      <trkpt lat="45.34152" lon="5.72031">
        <ele>1715.3</ele>
        <time>2021-12-19T12:17:10Z</time>
      </trkpt>
      <trkpt lat="45.34152" lon="5.72031">
        <ele>1715.3</ele>
        <time>2021-12-19T12:17:11Z</time>
      </trkpt>
      <trkpt lat="45.34152" lon="5.72031">
        <ele>1715.3</ele>
        <time>2021-12-19T12:17:12Z</time>
      </trkpt>
      <trkpt lat="45.34152" lon="5.72031">
        <ele>1715.3</ele>
        <time>2021-12-19T12:17:13Z</time>
      </trkpt>
      <trkpt lat="45.34152" lon="5.72031">
        <ele>1715.3</ele>
        <time>2021-12-19T12:17:14Z</time>
      </trkpt>
      <trkpt lat="45.34152" lon="5.72031">
        <ele>1715.3</ele>
        <time>2021-12-19T12:17:15Z</time>
      </trkpt>
      <trkpt lat="45.34152" lon="5.72031">
        <ele>1715.3</ele>
        <time>2021-12-19T12:17:16Z</time>
      </trkpt>
      <trkpt lat="45.34152" lon="5.72031">
        <ele>1715.3</ele>
        <time>2021-12-19T12:17:17Z</time>
      </trkpt>
      <trkpt lat="45.34152" lon="5.72031">
        <ele>1715.3</ele>
        <time>2021-12-19T12:17:18Z</time>
      </trkpt>
      <trkpt lat="45.34152" lon="5.72031">
        <ele>1715.3</ele>
        <time>2021-12-19T12:17:19Z</time>
      </trkpt>
      <trkpt lat="45.34152" lon="5.72031">
        <ele>1715.3</ele>
        <time>2021-12-19T12:17:20Z</time>
      </trkpt>
      <trkpt lat="45.34152" lon="5.72031">
        <ele>1715.3</ele>
        <time>2021-12-19T12:17:21Z</time>
      </trkpt>
      <trkpt lat="45.34152" lon="5.72031">
        <ele>1715.3</ele>
        <time>2021-12-19T12:17:22Z</time>
      </trkpt>
      <trkpt lat="45.34152" lon="5.72031">
        <ele>1715.3</ele>
        <time>2021-12-19T12:17:23Z</time>
      </trkpt>
      <trkpt lat="45.34152" lon="5.72031">
        <ele>1715.3</ele>
        <time>2021-12-19T12:17:24Z</time>
      </trkpt>
      <trkpt lat="45.34152" lon="5.72031">
        <ele>1715.3</ele>
        <time>2021-12-19T12:17:25Z</time>
      </trkpt>
      <trkpt lat="45.34152" lon="5.72031">
        <ele>1715.3</ele>
        <time>2021-12-19T12:17:26Z</time>
      </trkpt>
      <trkpt lat="45.34152" lon="5.72031">
        <ele>1715.3</ele>
        <time>2021-12-19T12:17:27Z</time>
      </trkpt>
      <trkpt lat="45.34152" lon="5.72031">
        <ele>1715.3</ele>
        <time>2021-12-19T12:17:28Z</time>
      </trkpt>
      <trkpt lat="45.34152" lon="5.72031">
        <ele>1715.3</ele>
        <time>2021-12-19T12:17:29Z</time>
      </trkpt>
      <trkpt lat="45.34152" lon="5.72031">
        <ele>1715.3</ele>
        <time>2021-12-19T12:17:30Z</time>
      </trkpt>
      <trkpt lat="45.34152" lon="5.72031">
        <ele>1715.3</ele>
        <time>2021-12-19T12:17:31Z</time>
      </trkpt>
      <trkpt lat="45.34152" lon="5.72032">
        <ele>1715.9</ele>
        <time>2021-12-19T12:17:32Z</time>
      </trkpt>
      <trkpt lat="45.34152" lon="5.72032">
        <ele>1715.9</ele>
        <time>2021-12-19T12:17:33Z</time>
      </trkpt>
      <trkpt lat="45.34152" lon="5.72032">
        <ele>1715.9</ele>
        <time>2021-12-19T12:17:34Z</time>
      </trkpt>
      <trkpt lat="45.34152" lon="5.72031">
        <ele>1715.3</ele>
        <time>2021-12-19T12:17:35Z</time>
      </trkpt>
      <trkpt lat="45.34153" lon="5.72032">
        <ele>1715.9</ele>
        <time>2021-12-19T12:17:36Z</time>
      </trkpt>
      <trkpt lat="45.34153" lon="5.72032">
        <ele>1715.9</ele>
        <time>2021-12-19T12:17:37Z</time>
      </trkpt>
      <trkpt lat="45.34153" lon="5.72032">
        <ele>1715.9</ele>
        <time>2021-12-19T12:17:38Z</time>
      </trkpt>
      <trkpt lat="45.34153" lon="5.72031">
        <ele>1715.3</ele>
        <time>2021-12-19T12:17:39Z</time>
      </trkpt>
      <trkpt lat="45.34153" lon="5.72031">
        <ele>1715.3</ele>
        <time>2021-12-19T12:17:40Z</time>
      </trkpt>
      <trkpt lat="45.34153" lon="5.72031">
        <ele>1715.3</ele>
        <time>2021-12-19T12:17:41Z</time>
      </trkpt>
      <trkpt lat="45.34153" lon="5.72031">
        <ele>1715.3</ele>
        <time>2021-12-19T12:17:42Z</time>
      </trkpt>
      <trkpt lat="45.34153" lon="5.72031">
        <ele>1715.3</ele>
        <time>2021-12-19T12:17:43Z</time>
      </trkpt>
      <trkpt lat="45.34153" lon="5.72031">
        <ele>1715.3</ele>
        <time>2021-12-19T12:17:44Z</time>
      </trkpt>
      <trkpt lat="45.34153" lon="5.72031">
        <ele>1715.3</ele>
        <time>2021-12-19T12:17:45Z</time>
      </trkpt>
      <trkpt lat="45.34153" lon="5.72031">
        <ele>1715.3</ele>
        <time>2021-12-19T12:17:46Z</time>
      </trkpt>
      <trkpt lat="45.34153" lon="5.72031">
        <ele>1715.3</ele>
        <time>2021-12-19T12:17:47Z</time>
      </trkpt>
      <trkpt lat="45.34153" lon="5.72031">
        <ele>1715.3</ele>
        <time>2021-12-19T12:17:48Z</time>
      </trkpt>
      <trkpt lat="45.34153" lon="5.72031">
        <ele>1715.3</ele>
        <time>2021-12-19T12:17:49Z</time>
      </trkpt>
      <trkpt lat="45.34153" lon="5.72031">
        <ele>1715.3</ele>
        <time>2021-12-19T12:17:50Z</time>
      </trkpt>
      <trkpt lat="45.34153" lon="5.72031">
        <ele>1715.3</ele>
        <time>2021-12-19T12:17:51Z</time>
      </trkpt>
      <trkpt lat="45.34153" lon="5.72031">
        <ele>1713.7</ele>
        <time>2021-12-19T12:17:52Z</time>
      </trkpt>
      <trkpt lat="45.34153" lon="5.72031">
        <ele>1713.7</ele>
        <time>2021-12-19T12:17:53Z</time>
      </trkpt>
      <trkpt lat="45.34153" lon="5.72031">
        <ele>1713.7</ele>
        <time>2021-12-19T12:17:54Z</time>
      </trkpt>
      <trkpt lat="45.34153" lon="5.72031">
        <ele>1713.7</ele>
        <time>2021-12-19T12:17:55Z</time>
      </trkpt>
      <trkpt lat="45.34153" lon="5.72032">
        <ele>1714.4</ele>
        <time>2021-12-19T12:17:56Z</time>
      </trkpt>
      <trkpt lat="45.34153" lon="5.72032">
        <ele>1714.4</ele>
        <time>2021-12-19T12:17:57Z</time>
      </trkpt>
      <trkpt lat="45.34153" lon="5.72032">
        <ele>1714.4</ele>
        <time>2021-12-19T12:17:58Z</time>
      </trkpt>
      <trkpt lat="45.34153" lon="5.72032">
        <ele>1714.4</ele>
        <time>2021-12-19T12:17:59Z</time>
      </trkpt>
      <trkpt lat="45.34153" lon="5.72032">
        <ele>1714.4</ele>
        <time>2021-12-19T12:18:00Z</time>
      </trkpt>
      <trkpt lat="45.34153" lon="5.72032">
        <ele>1714.4</ele>
        <time>2021-12-19T12:18:01Z</time>
      </trkpt>
      <trkpt lat="45.34153" lon="5.72031">
        <ele>1713.7</ele>
        <time>2021-12-19T12:18:02Z</time>
      </trkpt>
      <trkpt lat="45.34154" lon="5.72031">
        <ele>1713.7</ele>
        <time>2021-12-19T12:18:03Z</time>
      </trkpt>
      <trkpt lat="45.34154" lon="5.72031">
        <ele>1713.7</ele>
        <time>2021-12-19T12:18:04Z</time>
      </trkpt>
      <trkpt lat="45.34154" lon="5.72031">
        <ele>1713.7</ele>
        <time>2021-12-19T12:18:05Z</time>
      </trkpt>
      <trkpt lat="45.34154" lon="5.72031">
        <ele>1713.7</ele>
        <time>2021-12-19T12:18:06Z</time>
      </trkpt>
      <trkpt lat="45.34154" lon="5.72031">
        <ele>1713.7</ele>
        <time>2021-12-19T12:18:07Z</time>
      </trkpt>
      <trkpt lat="45.34154" lon="5.72031">
        <ele>1713.7</ele>
        <time>2021-12-19T12:18:08Z</time>
      </trkpt>
      <trkpt lat="45.34154" lon="5.72031">
        <ele>1713.7</ele>
        <time>2021-12-19T12:18:09Z</time>
      </trkpt>
      <trkpt lat="45.34154" lon="5.72031">
        <ele>1713.7</ele>
        <time>2021-12-19T12:18:10Z</time>
      </trkpt>
      <trkpt lat="45.34154" lon="5.72031">
        <ele>1713.7</ele>
        <time>2021-12-19T12:18:11Z</time>
      </trkpt>
      <trkpt lat="45.34154" lon="5.72031">
        <ele>1713.7</ele>
        <time>2021-12-19T12:18:12Z</time>
      </trkpt>
      <trkpt lat="45.34154" lon="5.72031">
        <ele>1713.7</ele>
        <time>2021-12-19T12:18:13Z</time>
      </trkpt>
      <trkpt lat="45.34154" lon="5.72031">
        <ele>1713.7</ele>
        <time>2021-12-19T12:18:14Z</time>
      </trkpt>
      <trkpt lat="45.34154" lon="5.72031">
        <ele>1713.7</ele>
        <time>2021-12-19T12:18:15Z</time>
      </trkpt>
      <trkpt lat="45.34154" lon="5.72031">
        <ele>1713.7</ele>
        <time>2021-12-19T12:18:16Z</time>
      </trkpt>
      <trkpt lat="45.34154" lon="5.7203">
        <ele>1713.7</ele>
        <time>2021-12-19T12:18:17Z</time>
      </trkpt>
      <trkpt lat="45.34154" lon="5.7203">
        <ele>1713.7</ele>
        <time>2021-12-19T12:18:18Z</time>
      </trkpt>
      <trkpt lat="45.34154" lon="5.72029">
        <ele>1713.7</ele>
        <time>2021-12-19T12:18:19Z</time>
      </trkpt>
      <trkpt lat="45.34153" lon="5.72029">
        <ele>1713.7</ele>
        <time>2021-12-19T12:18:20Z</time>
      </trkpt>
      <trkpt lat="45.34153" lon="5.72029">
        <ele>1713.7</ele>
        <time>2021-12-19T12:18:21Z</time>
      </trkpt>
      <trkpt lat="45.34153" lon="5.72029">
        <ele>1715.3</ele>
        <time>2021-12-19T12:18:22Z</time>
      </trkpt>
      <trkpt lat="45.34153" lon="5.72029">
        <ele>1713.7</ele>
        <time>2021-12-19T12:18:23Z</time>
      </trkpt>
      <trkpt lat="45.34153" lon="5.72029">
        <ele>1713.7</ele>
        <time>2021-12-19T12:18:24Z</time>
      </trkpt>
      <trkpt lat="45.34153" lon="5.72029">
        <ele>1713.7</ele>
        <time>2021-12-19T12:18:25Z</time>
      </trkpt>
      <trkpt lat="45.34153" lon="5.72029">
        <ele>1713.7</ele>
        <time>2021-12-19T12:18:26Z</time>
      </trkpt>
      <trkpt lat="45.34153" lon="5.72029">
        <ele>1713.7</ele>
        <time>2021-12-19T12:18:27Z</time>
      </trkpt>
      <trkpt lat="45.34153" lon="5.72029">
        <ele>1713.7</ele>
        <time>2021-12-19T12:18:28Z</time>
      </trkpt>
      <trkpt lat="45.34153" lon="5.72029">
        <ele>1713.7</ele>
        <time>2021-12-19T12:18:29Z</time>
      </trkpt>
      <trkpt lat="45.34153" lon="5.72029">
        <ele>1713.7</ele>
        <time>2021-12-19T12:18:30Z</time>
      </trkpt>
      <trkpt lat="45.34153" lon="5.72029">
        <ele>1713.7</ele>
        <time>2021-12-19T12:18:31Z</time>
      </trkpt>
      <trkpt lat="45.34153" lon="5.72029">
        <ele>1713.7</ele>
        <time>2021-12-19T12:18:32Z</time>
      </trkpt>
      <trkpt lat="45.34153" lon="5.72029">
        <ele>1713.7</ele>
        <time>2021-12-19T12:18:33Z</time>
      </trkpt>
      <trkpt lat="45.34153" lon="5.72029">
        <ele>1713.7</ele>
        <time>2021-12-19T12:18:34Z</time>
      </trkpt>
      <trkpt lat="45.34153" lon="5.72029">
        <ele>1713.7</ele>
        <time>2021-12-19T12:18:35Z</time>
      </trkpt>
      <trkpt lat="45.34153" lon="5.72029">
        <ele>1713.7</ele>
        <time>2021-12-19T12:18:36Z</time>
      </trkpt>
      <trkpt lat="45.34153" lon="5.72029">
        <ele>1713.7</ele>
        <time>2021-12-19T12:18:37Z</time>
      </trkpt>
      <trkpt lat="45.34153" lon="5.72029">
        <ele>1713.7</ele>
        <time>2021-12-19T12:18:38Z</time>
      </trkpt>
      <trkpt lat="45.34153" lon="5.72029">
        <ele>1713.7</ele>
        <time>2021-12-19T12:18:39Z</time>
      </trkpt>
      <trkpt lat="45.34153" lon="5.72029">
        <ele>1713.7</ele>
        <time>2021-12-19T12:18:40Z</time>
      </trkpt>
      <trkpt lat="45.34153" lon="5.72029">
        <ele>1713.7</ele>
        <time>2021-12-19T12:18:41Z</time>
      </trkpt>
      <trkpt lat="45.34153" lon="5.72029">
        <ele>1713.7</ele>
        <time>2021-12-19T12:18:42Z</time>
      </trkpt>
      <trkpt lat="45.34153" lon="5.72029">
        <ele>1713.7</ele>
        <time>2021-12-19T12:18:43Z</time>
      </trkpt>
      <trkpt lat="45.34153" lon="5.72029">
        <ele>1713.7</ele>
        <time>2021-12-19T12:18:44Z</time>
      </trkpt>
      <trkpt lat="45.34153" lon="5.72029">
        <ele>1713.7</ele>
        <time>2021-12-19T12:18:45Z</time>
      </trkpt>
      <trkpt lat="45.34154" lon="5.72029">
        <ele>1713.7</ele>
        <time>2021-12-19T12:18:46Z</time>
      </trkpt>
      <trkpt lat="45.34154" lon="5.72029">
        <ele>1713.7</ele>
        <time>2021-12-19T12:18:47Z</time>
      </trkpt>
      <trkpt lat="45.34153" lon="5.72029">
        <ele>1713.7</ele>
        <time>2021-12-19T12:18:48Z</time>
      </trkpt>
      <trkpt lat="45.34153" lon="5.72029">
        <ele>1713.7</ele>
        <time>2021-12-19T12:18:49Z</time>
      </trkpt>
      <trkpt lat="45.34153" lon="5.7203">
        <ele>1713.7</ele>
        <time>2021-12-19T12:18:50Z</time>
      </trkpt>
      <trkpt lat="45.34153" lon="5.7203">
        <ele>1715.3</ele>
        <time>2021-12-19T12:18:51Z</time>
      </trkpt>
      <trkpt lat="45.34153" lon="5.7203">
        <ele>1715.3</ele>
        <time>2021-12-19T12:18:52Z</time>
      </trkpt>
      <trkpt lat="45.34153" lon="5.7203">
        <ele>1715.3</ele>
        <time>2021-12-19T12:18:53Z</time>
      </trkpt>
      <trkpt lat="45.34153" lon="5.7203">
        <ele>1715.3</ele>
        <time>2021-12-19T12:18:54Z</time>
      </trkpt>
      <trkpt lat="45.34153" lon="5.7203">
        <ele>1715.3</ele>
        <time>2021-12-19T12:18:55Z</time>
      </trkpt>
      <trkpt lat="45.34153" lon="5.7203">
        <ele>1715.3</ele>
        <time>2021-12-19T12:18:56Z</time>
      </trkpt>
      <trkpt lat="45.34153" lon="5.7203">
        <ele>1713.7</ele>
        <time>2021-12-19T12:18:57Z</time>
      </trkpt>
      <trkpt lat="45.34153" lon="5.7203">
        <ele>1715.3</ele>
        <time>2021-12-19T12:18:58Z</time>
      </trkpt>
      <trkpt lat="45.34153" lon="5.7203">
        <ele>1715.3</ele>
        <time>2021-12-19T12:18:59Z</time>
      </trkpt>
      <trkpt lat="45.34153" lon="5.7203">
        <ele>1715.3</ele>
        <time>2021-12-19T12:19:00Z</time>
      </trkpt>
      <trkpt lat="45.34153" lon="5.7203">
        <ele>1715.3</ele>
        <time>2021-12-19T12:19:01Z</time>
      </trkpt>
      <trkpt lat="45.34153" lon="5.7203">
        <ele>1715.3</ele>
        <time>2021-12-19T12:19:02Z</time>
      </trkpt>
      <trkpt lat="45.34153" lon="5.7203">
        <ele>1715.3</ele>
        <time>2021-12-19T12:19:03Z</time>
      </trkpt>
      <trkpt lat="45.34153" lon="5.7203">
        <ele>1715.3</ele>
        <time>2021-12-19T12:19:04Z</time>
      </trkpt>
      <trkpt lat="45.34153" lon="5.7203">
        <ele>1715.3</ele>
        <time>2021-12-19T12:19:05Z</time>
      </trkpt>
      <trkpt lat="45.34153" lon="5.7203">
        <ele>1715.3</ele>
        <time>2021-12-19T12:19:06Z</time>
      </trkpt>
      <trkpt lat="45.34153" lon="5.7203">
        <ele>1715.3</ele>
        <time>2021-12-19T12:19:07Z</time>
      </trkpt>
      <trkpt lat="45.34152" lon="5.7203">
        <ele>1715.3</ele>
        <time>2021-12-19T12:19:08Z</time>
      </trkpt>
      <trkpt lat="45.34152" lon="5.7203">
        <ele>1715.3</ele>
        <time>2021-12-19T12:19:09Z</time>
      </trkpt>
      <trkpt lat="45.34152" lon="5.7203">
        <ele>1715.3</ele>
        <time>2021-12-19T12:19:10Z</time>
      </trkpt>
      <trkpt lat="45.34152" lon="5.7203">
        <ele>1715.3</ele>
        <time>2021-12-19T12:19:11Z</time>
      </trkpt>
      <trkpt lat="45.34152" lon="5.72031">
        <ele>1715.3</ele>
        <time>2021-12-19T12:19:12Z</time>
      </trkpt>
      <trkpt lat="45.34152" lon="5.72031">
        <ele>1715.3</ele>
        <time>2021-12-19T12:19:13Z</time>
      </trkpt>
      <trkpt lat="45.34152" lon="5.72031">
        <ele>1715.3</ele>
        <time>2021-12-19T12:19:14Z</time>
      </trkpt>
      <trkpt lat="45.34152" lon="5.72031">
        <ele>1715.3</ele>
        <time>2021-12-19T12:19:15Z</time>
      </trkpt>
      <trkpt lat="45.34152" lon="5.72031">
        <ele>1715.3</ele>
        <time>2021-12-19T12:19:16Z</time>
      </trkpt>
      <trkpt lat="45.34152" lon="5.72031">
        <ele>1715.3</ele>
        <time>2021-12-19T12:19:17Z</time>
      </trkpt>
      <trkpt lat="45.34153" lon="5.72031">
        <ele>1715.3</ele>
        <time>2021-12-19T12:19:18Z</time>
      </trkpt>
      <trkpt lat="45.34153" lon="5.72031">
        <ele>1715.3</ele>
        <time>2021-12-19T12:19:19Z</time>
      </trkpt>
      <trkpt lat="45.34153" lon="5.72031">
        <ele>1715.3</ele>
        <time>2021-12-19T12:19:20Z</time>
      </trkpt>
      <trkpt lat="45.34153" lon="5.72031">
        <ele>1715.3</ele>
        <time>2021-12-19T12:19:21Z</time>
      </trkpt>
      <trkpt lat="45.34153" lon="5.72031">
        <ele>1715.3</ele>
        <time>2021-12-19T12:19:22Z</time>
      </trkpt>
      <trkpt lat="45.34153" lon="5.72031">
        <ele>1715.3</ele>
        <time>2021-12-19T12:19:23Z</time>
      </trkpt>
      <trkpt lat="45.34153" lon="5.72031">
        <ele>1715.3</ele>
        <time>2021-12-19T12:19:24Z</time>
      </trkpt>
      <trkpt lat="45.34153" lon="5.72031">
        <ele>1713.7</ele>
        <time>2021-12-19T12:19:25Z</time>
      </trkpt>
      <trkpt lat="45.34153" lon="5.72031">
        <ele>1713.7</ele>
        <time>2021-12-19T12:19:26Z</time>
      </trkpt>
      <trkpt lat="45.34153" lon="5.72032">
        <ele>1714.4</ele>
        <time>2021-12-19T12:19:27Z</time>
      </trkpt>
      <trkpt lat="45.34153" lon="5.72032">
        <ele>1714.4</ele>
        <time>2021-12-19T12:19:28Z</time>
      </trkpt>
      <trkpt lat="45.34153" lon="5.72032">
        <ele>1714.4</ele>
        <time>2021-12-19T12:19:29Z</time>
      </trkpt>
      <trkpt lat="45.34153" lon="5.72032">
        <ele>1714.4</ele>
        <time>2021-12-19T12:19:30Z</time>
      </trkpt>
      <trkpt lat="45.34153" lon="5.72032">
        <ele>1714.4</ele>
        <time>2021-12-19T12:19:31Z</time>
      </trkpt>
      <trkpt lat="45.34153" lon="5.72032">
        <ele>1714.4</ele>
        <time>2021-12-19T12:19:32Z</time>
      </trkpt>
      <trkpt lat="45.34153" lon="5.72032">
        <ele>1714.4</ele>
        <time>2021-12-19T12:19:33Z</time>
      </trkpt>
      <trkpt lat="45.34153" lon="5.72033">
        <ele>1714.4</ele>
        <time>2021-12-19T12:19:34Z</time>
      </trkpt>
      <trkpt lat="45.34153" lon="5.72033">
        <ele>1714.4</ele>
        <time>2021-12-19T12:19:35Z</time>
      </trkpt>
      <trkpt lat="45.34153" lon="5.72033">
        <ele>1714.4</ele>
        <time>2021-12-19T12:19:36Z</time>
      </trkpt>
      <trkpt lat="45.34153" lon="5.72033">
        <ele>1714.4</ele>
        <time>2021-12-19T12:19:37Z</time>
      </trkpt>
      <trkpt lat="45.34153" lon="5.72033">
        <ele>1714.4</ele>
        <time>2021-12-19T12:19:38Z</time>
      </trkpt>
      <trkpt lat="45.34153" lon="5.72033">
        <ele>1714.4</ele>
        <time>2021-12-19T12:19:39Z</time>
      </trkpt>
      <trkpt lat="45.34153" lon="5.72033">
        <ele>1714.4</ele>
        <time>2021-12-19T12:19:40Z</time>
      </trkpt>
      <trkpt lat="45.34153" lon="5.72033">
        <ele>1714.4</ele>
        <time>2021-12-19T12:19:41Z</time>
      </trkpt>
      <trkpt lat="45.34153" lon="5.72033">
        <ele>1714.4</ele>
        <time>2021-12-19T12:19:42Z</time>
      </trkpt>
      <trkpt lat="45.34153" lon="5.72033">
        <ele>1714.4</ele>
        <time>2021-12-19T12:19:43Z</time>
      </trkpt>
      <trkpt lat="45.34153" lon="5.72033">
        <ele>1714.4</ele>
        <time>2021-12-19T12:19:44Z</time>
      </trkpt>
      <trkpt lat="45.34153" lon="5.72033">
        <ele>1714.4</ele>
        <time>2021-12-19T12:19:45Z</time>
      </trkpt>
      <trkpt lat="45.34153" lon="5.72033">
        <ele>1714.4</ele>
        <time>2021-12-19T12:19:46Z</time>
      </trkpt>
      <trkpt lat="45.34153" lon="5.72033">
        <ele>1714.4</ele>
        <time>2021-12-19T12:19:47Z</time>
      </trkpt>
      <trkpt lat="45.34153" lon="5.72033">
        <ele>1714.4</ele>
        <time>2021-12-19T12:19:48Z</time>
      </trkpt>
      <trkpt lat="45.34153" lon="5.72033">
        <ele>1714.4</ele>
        <time>2021-12-19T12:19:49Z</time>
      </trkpt>
      <trkpt lat="45.34153" lon="5.72033">
        <ele>1714.4</ele>
        <time>2021-12-19T12:19:50Z</time>
      </trkpt>
      <trkpt lat="45.34153" lon="5.72033">
        <ele>1714.4</ele>
        <time>2021-12-19T12:19:51Z</time>
      </trkpt>
      <trkpt lat="45.34153" lon="5.72033">
        <ele>1714.4</ele>
        <time>2021-12-19T12:19:52Z</time>
      </trkpt>
      <trkpt lat="45.34153" lon="5.72033">
        <ele>1714.4</ele>
        <time>2021-12-19T12:19:53Z</time>
      </trkpt>
      <trkpt lat="45.34153" lon="5.72033">
        <ele>1714.4</ele>
        <time>2021-12-19T12:19:54Z</time>
      </trkpt>
      <trkpt lat="45.34153" lon="5.72033">
        <ele>1714.4</ele>
        <time>2021-12-19T12:19:55Z</time>
      </trkpt>
      <trkpt lat="45.34153" lon="5.72033">
        <ele>1714.4</ele>
        <time>2021-12-19T12:19:56Z</time>
      </trkpt>
      <trkpt lat="45.34153" lon="5.72033">
        <ele>1714.4</ele>
        <time>2021-12-19T12:19:57Z</time>
      </trkpt>
      <trkpt lat="45.34153" lon="5.72033">
        <ele>1714.4</ele>
        <time>2021-12-19T12:19:58Z</time>
      </trkpt>
      <trkpt lat="45.34153" lon="5.72033">
        <ele>1714.4</ele>
        <time>2021-12-19T12:19:59Z</time>
      </trkpt>
      <trkpt lat="45.34153" lon="5.72033">
        <ele>1714.4</ele>
        <time>2021-12-19T12:20:00Z</time>
      </trkpt>
      <trkpt lat="45.34153" lon="5.72033">
        <ele>1714.4</ele>
        <time>2021-12-19T12:20:01Z</time>
      </trkpt>
      <trkpt lat="45.34153" lon="5.72033">
        <ele>1714.4</ele>
        <time>2021-12-19T12:20:02Z</time>
      </trkpt>
      <trkpt lat="45.34153" lon="5.72033">
        <ele>1715.9</ele>
        <time>2021-12-19T12:20:03Z</time>
      </trkpt>
      <trkpt lat="45.34153" lon="5.72033">
        <ele>1715.9</ele>
        <time>2021-12-19T12:20:04Z</time>
      </trkpt>
      <trkpt lat="45.34153" lon="5.72033">
        <ele>1715.9</ele>
        <time>2021-12-19T12:20:05Z</time>
      </trkpt>
      <trkpt lat="45.34153" lon="5.72032">
        <ele>1715.9</ele>
        <time>2021-12-19T12:20:06Z</time>
      </trkpt>
      <trkpt lat="45.34153" lon="5.72032">
        <ele>1715.9</ele>
        <time>2021-12-19T12:20:07Z</time>
      </trkpt>
      <trkpt lat="45.34153" lon="5.72032">
        <ele>1715.9</ele>
        <time>2021-12-19T12:20:08Z</time>
      </trkpt>
      <trkpt lat="45.34153" lon="5.72032">
        <ele>1715.9</ele>
        <time>2021-12-19T12:20:09Z</time>
      </trkpt>
      <trkpt lat="45.34153" lon="5.72032">
        <ele>1715.9</ele>
        <time>2021-12-19T12:20:10Z</time>
      </trkpt>
      <trkpt lat="45.34153" lon="5.72032">
        <ele>1715.9</ele>
        <time>2021-12-19T12:20:11Z</time>
      </trkpt>
      <trkpt lat="45.34153" lon="5.72032">
        <ele>1715.9</ele>
        <time>2021-12-19T12:20:12Z</time>
      </trkpt>
      <trkpt lat="45.34153" lon="5.72032">
        <ele>1715.9</ele>
        <time>2021-12-19T12:20:13Z</time>
      </trkpt>
      <trkpt lat="45.34153" lon="5.72033">
        <ele>1715.9</ele>
        <time>2021-12-19T12:20:14Z</time>
      </trkpt>
      <trkpt lat="45.34153" lon="5.72032">
        <ele>1715.9</ele>
        <time>2021-12-19T12:20:15Z</time>
      </trkpt>
      <trkpt lat="45.34153" lon="5.72032">
        <ele>1715.9</ele>
        <time>2021-12-19T12:20:16Z</time>
      </trkpt>
      <trkpt lat="45.34153" lon="5.72032">
        <ele>1715.9</ele>
        <time>2021-12-19T12:20:17Z</time>
      </trkpt>
      <trkpt lat="45.34153" lon="5.72032">
        <ele>1715.9</ele>
        <time>2021-12-19T12:20:18Z</time>
      </trkpt>
      <trkpt lat="45.34153" lon="5.72032">
        <ele>1714.4</ele>
        <time>2021-12-19T12:20:19Z</time>
      </trkpt>
      <trkpt lat="45.34153" lon="5.72032">
        <ele>1714.4</ele>
        <time>2021-12-19T12:20:20Z</time>
      </trkpt>
      <trkpt lat="45.34153" lon="5.72032">
        <ele>1714.4</ele>
        <time>2021-12-19T12:20:21Z</time>
      </trkpt>
      <trkpt lat="45.34153" lon="5.72032">
        <ele>1714.4</ele>
        <time>2021-12-19T12:20:22Z</time>
      </trkpt>
      <trkpt lat="45.34153" lon="5.72032">
        <ele>1714.4</ele>
        <time>2021-12-19T12:20:23Z</time>
      </trkpt>
      <trkpt lat="45.34153" lon="5.72032">
        <ele>1714.4</ele>
        <time>2021-12-19T12:20:24Z</time>
      </trkpt>
      <trkpt lat="45.34153" lon="5.72032">
        <ele>1714.4</ele>
        <time>2021-12-19T12:20:25Z</time>
      </trkpt>
      <trkpt lat="45.34153" lon="5.72032">
        <ele>1714.4</ele>
        <time>2021-12-19T12:20:26Z</time>
      </trkpt>
      <trkpt lat="45.34153" lon="5.72032">
        <ele>1714.4</ele>
        <time>2021-12-19T12:20:27Z</time>
      </trkpt>
      <trkpt lat="45.34153" lon="5.72032">
        <ele>1714.4</ele>
        <time>2021-12-19T12:20:28Z</time>
      </trkpt>
      <trkpt lat="45.34153" lon="5.72031">
        <ele>1713.7</ele>
        <time>2021-12-19T12:20:29Z</time>
      </trkpt>
      <trkpt lat="45.34153" lon="5.72031">
        <ele>1713.7</ele>
        <time>2021-12-19T12:20:30Z</time>
      </trkpt>
      <trkpt lat="45.34153" lon="5.72031">
        <ele>1713.7</ele>
        <time>2021-12-19T12:20:31Z</time>
      </trkpt>
      <trkpt lat="45.34153" lon="5.72031">
        <ele>1713.7</ele>
        <time>2021-12-19T12:20:32Z</time>
      </trkpt>
      <trkpt lat="45.34153" lon="5.72031">
        <ele>1713.7</ele>
        <time>2021-12-19T12:20:33Z</time>
      </trkpt>
      <trkpt lat="45.34153" lon="5.72031">
        <ele>1713.7</ele>
        <time>2021-12-19T12:20:34Z</time>
      </trkpt>
      <trkpt lat="45.34153" lon="5.72031">
        <ele>1713.7</ele>
        <time>2021-12-19T12:20:35Z</time>
      </trkpt>
      <trkpt lat="45.34153" lon="5.72031">
        <ele>1713.7</ele>
        <time>2021-12-19T12:20:36Z</time>
      </trkpt>
      <trkpt lat="45.34153" lon="5.72031">
        <ele>1713.7</ele>
        <time>2021-12-19T12:20:37Z</time>
      </trkpt>
      <trkpt lat="45.34153" lon="5.72031">
        <ele>1713.7</ele>
        <time>2021-12-19T12:20:38Z</time>
      </trkpt>
      <trkpt lat="45.34153" lon="5.72031">
        <ele>1713.7</ele>
        <time>2021-12-19T12:20:39Z</time>
      </trkpt>
      <trkpt lat="45.34153" lon="5.72032">
        <ele>1714.4</ele>
        <time>2021-12-19T12:20:40Z</time>
      </trkpt>
      <trkpt lat="45.34153" lon="5.72032">
        <ele>1714.4</ele>
        <time>2021-12-19T12:20:41Z</time>
      </trkpt>
      <trkpt lat="45.34154" lon="5.72031">
        <ele>1713.7</ele>
        <time>2021-12-19T12:20:42Z</time>
      </trkpt>
      <trkpt lat="45.34154" lon="5.72031">
        <ele>1713.7</ele>
        <time>2021-12-19T12:20:43Z</time>
      </trkpt>
      <trkpt lat="45.34154" lon="5.72031">
        <ele>1713.7</ele>
        <time>2021-12-19T12:20:44Z</time>
      </trkpt>
      <trkpt lat="45.34154" lon="5.72031">
        <ele>1713.7</ele>
        <time>2021-12-19T12:20:45Z</time>
      </trkpt>
      <trkpt lat="45.34154" lon="5.72031">
        <ele>1713.7</ele>
        <time>2021-12-19T12:20:46Z</time>
      </trkpt>
      <trkpt lat="45.34154" lon="5.72031">
        <ele>1713.7</ele>
        <time>2021-12-19T12:20:47Z</time>
      </trkpt>
      <trkpt lat="45.34154" lon="5.72031">
        <ele>1713.7</ele>
        <time>2021-12-19T12:20:48Z</time>
      </trkpt>
      <trkpt lat="45.34154" lon="5.7203">
        <ele>1713.7</ele>
        <time>2021-12-19T12:20:49Z</time>
      </trkpt>
      <trkpt lat="45.34154" lon="5.7203">
        <ele>1713.7</ele>
        <time>2021-12-19T12:20:50Z</time>
      </trkpt>
      <trkpt lat="45.34154" lon="5.7203">
        <ele>1713.7</ele>
        <time>2021-12-19T12:20:51Z</time>
      </trkpt>
      <trkpt lat="45.34154" lon="5.72031">
        <ele>1713.7</ele>
        <time>2021-12-19T12:20:52Z</time>
      </trkpt>
      <trkpt lat="45.34154" lon="5.72031">
        <ele>1713.7</ele>
        <time>2021-12-19T12:20:53Z</time>
      </trkpt>
      <trkpt lat="45.34154" lon="5.72031">
        <ele>1713.7</ele>
        <time>2021-12-19T12:20:54Z</time>
      </trkpt>
      <trkpt lat="45.34154" lon="5.72031">
        <ele>1713.7</ele>
        <time>2021-12-19T12:20:55Z</time>
      </trkpt>
      <trkpt lat="45.34154" lon="5.72031">
        <ele>1713.7</ele>
        <time>2021-12-19T12:20:56Z</time>
      </trkpt>
      <trkpt lat="45.34154" lon="5.7203">
        <ele>1713.7</ele>
        <time>2021-12-19T12:20:57Z</time>
      </trkpt>
      <trkpt lat="45.34154" lon="5.7203">
        <ele>1713.7</ele>
        <time>2021-12-19T12:20:58Z</time>
      </trkpt>
      <trkpt lat="45.34154" lon="5.7203">
        <ele>1713.7</ele>
        <time>2021-12-19T12:20:59Z</time>
      </trkpt>
      <trkpt lat="45.34155" lon="5.7203">
        <ele>1713.7</ele>
        <time>2021-12-19T12:21:00Z</time>
      </trkpt>
      <trkpt lat="45.34155" lon="5.7203">
        <ele>1713.7</ele>
        <time>2021-12-19T12:21:01Z</time>
      </trkpt>
      <trkpt lat="45.34155" lon="5.7203">
        <ele>1713.7</ele>
        <time>2021-12-19T12:21:02Z</time>
      </trkpt>
      <trkpt lat="45.34155" lon="5.7203">
        <ele>1713.7</ele>
        <time>2021-12-19T12:21:03Z</time>
      </trkpt>
      <trkpt lat="45.34155" lon="5.7203">
        <ele>1713.7</ele>
        <time>2021-12-19T12:21:04Z</time>
      </trkpt>
      <trkpt lat="45.34155" lon="5.7203">
        <ele>1713.7</ele>
        <time>2021-12-19T12:21:05Z</time>
      </trkpt>
      <trkpt lat="45.34155" lon="5.7203">
        <ele>1713.7</ele>
        <time>2021-12-19T12:21:06Z</time>
      </trkpt>
      <trkpt lat="45.34155" lon="5.7203">
        <ele>1713.7</ele>
        <time>2021-12-19T12:21:07Z</time>
      </trkpt>
      <trkpt lat="45.34155" lon="5.7203">
        <ele>1713.7</ele>
        <time>2021-12-19T12:21:08Z</time>
      </trkpt>
      <trkpt lat="45.34155" lon="5.7203">
        <ele>1713.7</ele>
        <time>2021-12-19T12:21:09Z</time>
      </trkpt>
      <trkpt lat="45.34155" lon="5.7203">
        <ele>1713.7</ele>
        <time>2021-12-19T12:21:10Z</time>
      </trkpt>
      <trkpt lat="45.34155" lon="5.7203">
        <ele>1713.7</ele>
        <time>2021-12-19T12:21:11Z</time>
      </trkpt>
      <trkpt lat="45.34155" lon="5.7203">
        <ele>1713.7</ele>
        <time>2021-12-19T12:21:12Z</time>
      </trkpt>
      <trkpt lat="45.34155" lon="5.7203">
        <ele>1713.7</ele>
        <time>2021-12-19T12:21:13Z</time>
      </trkpt>
      <trkpt lat="45.34155" lon="5.7203">
        <ele>1713.7</ele>
        <time>2021-12-19T12:21:14Z</time>
      </trkpt>
      <trkpt lat="45.34155" lon="5.7203">
        <ele>1713.7</ele>
        <time>2021-12-19T12:21:15Z</time>
      </trkpt>
      <trkpt lat="45.34155" lon="5.72029">
        <ele>1713.7</ele>
        <time>2021-12-19T12:21:16Z</time>
      </trkpt>
      <trkpt lat="45.34155" lon="5.7203">
        <ele>1713.7</ele>
        <time>2021-12-19T12:21:17Z</time>
      </trkpt>
      <trkpt lat="45.34155" lon="5.7203">
        <ele>1713.7</ele>
        <time>2021-12-19T12:21:18Z</time>
      </trkpt>
      <trkpt lat="45.34155" lon="5.7203">
        <ele>1713.7</ele>
        <time>2021-12-19T12:21:19Z</time>
      </trkpt>
      <trkpt lat="45.34155" lon="5.7203">
        <ele>1713.7</ele>
        <time>2021-12-19T12:21:20Z</time>
      </trkpt>
      <trkpt lat="45.34155" lon="5.7203">
        <ele>1713.7</ele>
        <time>2021-12-19T12:21:21Z</time>
      </trkpt>
      <trkpt lat="45.34155" lon="5.7203">
        <ele>1713.7</ele>
        <time>2021-12-19T12:21:22Z</time>
      </trkpt>
      <trkpt lat="45.34155" lon="5.7203">
        <ele>1713.7</ele>
        <time>2021-12-19T12:21:23Z</time>
      </trkpt>
      <trkpt lat="45.34155" lon="5.7203">
        <ele>1713.7</ele>
        <time>2021-12-19T12:21:24Z</time>
      </trkpt>
      <trkpt lat="45.34155" lon="5.7203">
        <ele>1713.7</ele>
        <time>2021-12-19T12:21:25Z</time>
      </trkpt>
      <trkpt lat="45.34155" lon="5.7203">
        <ele>1713.7</ele>
        <time>2021-12-19T12:21:26Z</time>
      </trkpt>
      <trkpt lat="45.34155" lon="5.7203">
        <ele>1713.7</ele>
        <time>2021-12-19T12:21:27Z</time>
      </trkpt>
      <trkpt lat="45.34155" lon="5.7203">
        <ele>1713.7</ele>
        <time>2021-12-19T12:21:28Z</time>
      </trkpt>
      <trkpt lat="45.34155" lon="5.7203">
        <ele>1713.7</ele>
        <time>2021-12-19T12:21:29Z</time>
      </trkpt>
      <trkpt lat="45.34155" lon="5.7203">
        <ele>1713.7</ele>
        <time>2021-12-19T12:21:30Z</time>
      </trkpt>
      <trkpt lat="45.34155" lon="5.7203">
        <ele>1713.7</ele>
        <time>2021-12-19T12:21:31Z</time>
      </trkpt>
      <trkpt lat="45.34155" lon="5.7203">
        <ele>1713.7</ele>
        <time>2021-12-19T12:21:32Z</time>
      </trkpt>
      <trkpt lat="45.34155" lon="5.72029">
        <ele>1713.7</ele>
        <time>2021-12-19T12:21:33Z</time>
      </trkpt>
      <trkpt lat="45.34155" lon="5.72029">
        <ele>1713.7</ele>
        <time>2021-12-19T12:21:34Z</time>
      </trkpt>
      <trkpt lat="45.34155" lon="5.72029">
        <ele>1713.7</ele>
        <time>2021-12-19T12:21:35Z</time>
      </trkpt>
      <trkpt lat="45.34155" lon="5.72029">
        <ele>1713.7</ele>
        <time>2021-12-19T12:21:36Z</time>
      </trkpt>
      <trkpt lat="45.34155" lon="5.72029">
        <ele>1713.7</ele>
        <time>2021-12-19T12:21:37Z</time>
      </trkpt>
      <trkpt lat="45.34155" lon="5.72029">
        <ele>1713.7</ele>
        <time>2021-12-19T12:21:38Z</time>
      </trkpt>
      <trkpt lat="45.34155" lon="5.72029">
        <ele>1713.7</ele>
        <time>2021-12-19T12:21:39Z</time>
      </trkpt>
      <trkpt lat="45.34155" lon="5.72029">
        <ele>1713.7</ele>
        <time>2021-12-19T12:21:40Z</time>
      </trkpt>
      <trkpt lat="45.34155" lon="5.72029">
        <ele>1713.7</ele>
        <time>2021-12-19T12:21:41Z</time>
      </trkpt>
      <trkpt lat="45.34155" lon="5.72029">
        <ele>1713.7</ele>
        <time>2021-12-19T12:21:42Z</time>
      </trkpt>
      <trkpt lat="45.34155" lon="5.72029">
        <ele>1713.7</ele>
        <time>2021-12-19T12:21:43Z</time>
      </trkpt>
      <trkpt lat="45.34155" lon="5.72029">
        <ele>1713.7</ele>
        <time>2021-12-19T12:21:44Z</time>
      </trkpt>
      <trkpt lat="45.34155" lon="5.72029">
        <ele>1713.7</ele>
        <time>2021-12-19T12:21:45Z</time>
      </trkpt>
      <trkpt lat="45.34155" lon="5.7203">
        <ele>1713.7</ele>
        <time>2021-12-19T12:21:46Z</time>
      </trkpt>
      <trkpt lat="45.34155" lon="5.7203">
        <ele>1713.7</ele>
        <time>2021-12-19T12:21:47Z</time>
      </trkpt>
      <trkpt lat="45.34155" lon="5.7203">
        <ele>1713.7</ele>
        <time>2021-12-19T12:21:48Z</time>
      </trkpt>
      <trkpt lat="45.34155" lon="5.7203">
        <ele>1713.7</ele>
        <time>2021-12-19T12:21:49Z</time>
      </trkpt>
      <trkpt lat="45.34155" lon="5.7203">
        <ele>1713.7</ele>
        <time>2021-12-19T12:21:50Z</time>
      </trkpt>
      <trkpt lat="45.34155" lon="5.7203">
        <ele>1713.7</ele>
        <time>2021-12-19T12:21:51Z</time>
      </trkpt>
      <trkpt lat="45.34155" lon="5.7203">
        <ele>1713.7</ele>
        <time>2021-12-19T12:21:52Z</time>
      </trkpt>
      <trkpt lat="45.34155" lon="5.7203">
        <ele>1713.7</ele>
        <time>2021-12-19T12:21:53Z</time>
      </trkpt>
      <trkpt lat="45.34155" lon="5.7203">
        <ele>1713.7</ele>
        <time>2021-12-19T12:21:54Z</time>
      </trkpt>
      <trkpt lat="45.34155" lon="5.7203">
        <ele>1713.7</ele>
        <time>2021-12-19T12:21:55Z</time>
      </trkpt>
      <trkpt lat="45.34155" lon="5.7203">
        <ele>1713.7</ele>
        <time>2021-12-19T12:21:56Z</time>
      </trkpt>
      <trkpt lat="45.34155" lon="5.7203">
        <ele>1713.7</ele>
        <time>2021-12-19T12:21:57Z</time>
      </trkpt>
      <trkpt lat="45.34155" lon="5.7203">
        <ele>1713.7</ele>
        <time>2021-12-19T12:21:58Z</time>
      </trkpt>
      <trkpt lat="45.34155" lon="5.7203">
        <ele>1713.7</ele>
        <time>2021-12-19T12:21:59Z</time>
      </trkpt>
      <trkpt lat="45.34155" lon="5.72029">
        <ele>1713.7</ele>
        <time>2021-12-19T12:22:00Z</time>
      </trkpt>
      <trkpt lat="45.34155" lon="5.72029">
        <ele>1713.7</ele>
        <time>2021-12-19T12:22:01Z</time>
      </trkpt>
      <trkpt lat="45.34155" lon="5.7203">
        <ele>1713.7</ele>
        <time>2021-12-19T12:22:02Z</time>
      </trkpt>
      <trkpt lat="45.34155" lon="5.7203">
        <ele>1713.7</ele>
        <time>2021-12-19T12:22:03Z</time>
      </trkpt>
      <trkpt lat="45.34156" lon="5.7203">
        <ele>1713.7</ele>
        <time>2021-12-19T12:22:04Z</time>
      </trkpt>
      <trkpt lat="45.34156" lon="5.7203">
        <ele>1713.7</ele>
        <time>2021-12-19T12:22:05Z</time>
      </trkpt>
      <trkpt lat="45.34156" lon="5.7203">
        <ele>1713.7</ele>
        <time>2021-12-19T12:22:06Z</time>
      </trkpt>
      <trkpt lat="45.34156" lon="5.72029">
        <ele>1713.7</ele>
        <time>2021-12-19T12:22:07Z</time>
      </trkpt>
      <trkpt lat="45.34156" lon="5.72029">
        <ele>1713.7</ele>
        <time>2021-12-19T12:22:08Z</time>
      </trkpt>
      <trkpt lat="45.34156" lon="5.7203">
        <ele>1713.7</ele>
        <time>2021-12-19T12:22:09Z</time>
      </trkpt>
      <trkpt lat="45.34155" lon="5.7203">
        <ele>1713.7</ele>
        <time>2021-12-19T12:22:10Z</time>
      </trkpt>
      <trkpt lat="45.34155" lon="5.7203">
        <ele>1713.7</ele>
        <time>2021-12-19T12:22:11Z</time>
      </trkpt>
      <trkpt lat="45.34155" lon="5.7203">
        <ele>1713.7</ele>
        <time>2021-12-19T12:22:12Z</time>
      </trkpt>
      <trkpt lat="45.34155" lon="5.7203">
        <ele>1713.7</ele>
        <time>2021-12-19T12:22:13Z</time>
      </trkpt>
      <trkpt lat="45.34155" lon="5.7203">
        <ele>1713.7</ele>
        <time>2021-12-19T12:22:14Z</time>
      </trkpt>
      <trkpt lat="45.34155" lon="5.7203">
        <ele>1713.7</ele>
        <time>2021-12-19T12:22:15Z</time>
      </trkpt>
      <trkpt lat="45.34155" lon="5.7203">
        <ele>1713.7</ele>
        <time>2021-12-19T12:22:16Z</time>
      </trkpt>
      <trkpt lat="45.34155" lon="5.7203">
        <ele>1713.7</ele>
        <time>2021-12-19T12:22:17Z</time>
      </trkpt>
      <trkpt lat="45.34155" lon="5.7203">
        <ele>1713.7</ele>
        <time>2021-12-19T12:22:18Z</time>
      </trkpt>
      <trkpt lat="45.34155" lon="5.72031">
        <ele>1713.7</ele>
        <time>2021-12-19T12:22:19Z</time>
      </trkpt>
      <trkpt lat="45.34155" lon="5.7203">
        <ele>1713.7</ele>
        <time>2021-12-19T12:22:20Z</time>
      </trkpt>
      <trkpt lat="45.34155" lon="5.7203">
        <ele>1713.7</ele>
        <time>2021-12-19T12:22:21Z</time>
      </trkpt>
      <trkpt lat="45.34155" lon="5.7203">
        <ele>1713.7</ele>
        <time>2021-12-19T12:22:22Z</time>
      </trkpt>
      <trkpt lat="45.34155" lon="5.7203">
        <ele>1713.7</ele>
        <time>2021-12-19T12:22:23Z</time>
      </trkpt>
      <trkpt lat="45.34155" lon="5.7203">
        <ele>1713.7</ele>
        <time>2021-12-19T12:22:24Z</time>
      </trkpt>
      <trkpt lat="45.34155" lon="5.7203">
        <ele>1713.7</ele>
        <time>2021-12-19T12:22:25Z</time>
      </trkpt>
      <trkpt lat="45.34155" lon="5.7203">
        <ele>1713.7</ele>
        <time>2021-12-19T12:22:26Z</time>
      </trkpt>
      <trkpt lat="45.34155" lon="5.7203">
        <ele>1713.7</ele>
        <time>2021-12-19T12:22:27Z</time>
      </trkpt>
      <trkpt lat="45.34155" lon="5.7203">
        <ele>1713.7</ele>
        <time>2021-12-19T12:22:28Z</time>
      </trkpt>
      <trkpt lat="45.34155" lon="5.7203">
        <ele>1713.7</ele>
        <time>2021-12-19T12:22:29Z</time>
      </trkpt>
      <trkpt lat="45.34155" lon="5.7203">
        <ele>1713.7</ele>
        <time>2021-12-19T12:22:30Z</time>
      </trkpt>
      <trkpt lat="45.34155" lon="5.7203">
        <ele>1713.7</ele>
        <time>2021-12-19T12:22:31Z</time>
      </trkpt>
      <trkpt lat="45.34155" lon="5.7203">
        <ele>1713.7</ele>
        <time>2021-12-19T12:22:32Z</time>
      </trkpt>
      <trkpt lat="45.34155" lon="5.7203">
        <ele>1713.7</ele>
        <time>2021-12-19T12:22:33Z</time>
      </trkpt>
      <trkpt lat="45.34155" lon="5.7203">
        <ele>1713.7</ele>
        <time>2021-12-19T12:22:34Z</time>
      </trkpt>
      <trkpt lat="45.34155" lon="5.7203">
        <ele>1713.7</ele>
        <time>2021-12-19T12:22:35Z</time>
      </trkpt>
      <trkpt lat="45.34155" lon="5.7203">
        <ele>1713.7</ele>
        <time>2021-12-19T12:22:36Z</time>
      </trkpt>
      <trkpt lat="45.34155" lon="5.7203">
        <ele>1713.7</ele>
        <time>2021-12-19T12:22:37Z</time>
      </trkpt>
      <trkpt lat="45.34155" lon="5.7203">
        <ele>1713.7</ele>
        <time>2021-12-19T12:22:38Z</time>
      </trkpt>
      <trkpt lat="45.34155" lon="5.7203">
        <ele>1713.7</ele>
        <time>2021-12-19T12:22:39Z</time>
      </trkpt>
      <trkpt lat="45.34155" lon="5.7203">
        <ele>1713.7</ele>
        <time>2021-12-19T12:22:40Z</time>
      </trkpt>
      <trkpt lat="45.34155" lon="5.72031">
        <ele>1713.7</ele>
        <time>2021-12-19T12:22:41Z</time>
      </trkpt>
      <trkpt lat="45.34155" lon="5.7203">
        <ele>1713.7</ele>
        <time>2021-12-19T12:22:42Z</time>
      </trkpt>
      <trkpt lat="45.34155" lon="5.7203">
        <ele>1713.7</ele>
        <time>2021-12-19T12:22:43Z</time>
      </trkpt>
      <trkpt lat="45.34155" lon="5.7203">
        <ele>1713.7</ele>
        <time>2021-12-19T12:22:44Z</time>
      </trkpt>
      <trkpt lat="45.34155" lon="5.7203">
        <ele>1713.7</ele>
        <time>2021-12-19T12:22:45Z</time>
      </trkpt>
      <trkpt lat="45.34155" lon="5.7203">
        <ele>1713.7</ele>
        <time>2021-12-19T12:22:46Z</time>
      </trkpt>
      <trkpt lat="45.34155" lon="5.7203">
        <ele>1713.7</ele>
        <time>2021-12-19T12:22:47Z</time>
      </trkpt>
      <trkpt lat="45.34155" lon="5.7203">
        <ele>1713.7</ele>
        <time>2021-12-19T12:22:48Z</time>
      </trkpt>
      <trkpt lat="45.34155" lon="5.7203">
        <ele>1713.7</ele>
        <time>2021-12-19T12:22:49Z</time>
      </trkpt>
      <trkpt lat="45.34155" lon="5.7203">
        <ele>1713.7</ele>
        <time>2021-12-19T12:22:50Z</time>
      </trkpt>
      <trkpt lat="45.34155" lon="5.7203">
        <ele>1713.7</ele>
        <time>2021-12-19T12:22:51Z</time>
      </trkpt>
      <trkpt lat="45.34155" lon="5.7203">
        <ele>1713.7</ele>
        <time>2021-12-19T12:22:52Z</time>
      </trkpt>
      <trkpt lat="45.34155" lon="5.7203">
        <ele>1713.7</ele>
        <time>2021-12-19T12:22:53Z</time>
      </trkpt>
      <trkpt lat="45.34155" lon="5.7203">
        <ele>1713.7</ele>
        <time>2021-12-19T12:22:54Z</time>
      </trkpt>
      <trkpt lat="45.34155" lon="5.7203">
        <ele>1713.7</ele>
        <time>2021-12-19T12:22:55Z</time>
      </trkpt>
      <trkpt lat="45.34155" lon="5.7203">
        <ele>1713.7</ele>
        <time>2021-12-19T12:22:56Z</time>
      </trkpt>
      <trkpt lat="45.34155" lon="5.7203">
        <ele>1713.7</ele>
        <time>2021-12-19T12:22:57Z</time>
      </trkpt>
      <trkpt lat="45.34155" lon="5.7203">
        <ele>1713.7</ele>
        <time>2021-12-19T12:22:58Z</time>
      </trkpt>
      <trkpt lat="45.34155" lon="5.7203">
        <ele>1713.7</ele>
        <time>2021-12-19T12:22:59Z</time>
      </trkpt>
      <trkpt lat="45.34155" lon="5.7203">
        <ele>1713.7</ele>
        <time>2021-12-19T12:23:00Z</time>
      </trkpt>
      <trkpt lat="45.34155" lon="5.7203">
        <ele>1713.7</ele>
        <time>2021-12-19T12:23:01Z</time>
      </trkpt>
      <trkpt lat="45.34155" lon="5.7203">
        <ele>1713.7</ele>
        <time>2021-12-19T12:23:02Z</time>
      </trkpt>
      <trkpt lat="45.34155" lon="5.7203">
        <ele>1713.7</ele>
        <time>2021-12-19T12:23:03Z</time>
      </trkpt>
      <trkpt lat="45.34155" lon="5.7203">
        <ele>1713.7</ele>
        <time>2021-12-19T12:23:04Z</time>
      </trkpt>
      <trkpt lat="45.34155" lon="5.7203">
        <ele>1713.7</ele>
        <time>2021-12-19T12:23:05Z</time>
      </trkpt>
      <trkpt lat="45.34155" lon="5.7203">
        <ele>1713.7</ele>
        <time>2021-12-19T12:23:06Z</time>
      </trkpt>
      <trkpt lat="45.34155" lon="5.7203">
        <ele>1713.7</ele>
        <time>2021-12-19T12:23:07Z</time>
      </trkpt>
      <trkpt lat="45.34155" lon="5.7203">
        <ele>1713.7</ele>
        <time>2021-12-19T12:23:08Z</time>
      </trkpt>
      <trkpt lat="45.34156" lon="5.7203">
        <ele>1713.7</ele>
        <time>2021-12-19T12:23:09Z</time>
      </trkpt>
      <trkpt lat="45.34156" lon="5.7203">
        <ele>1713.7</ele>
        <time>2021-12-19T12:23:10Z</time>
      </trkpt>
      <trkpt lat="45.34156" lon="5.7203">
        <ele>1713.7</ele>
        <time>2021-12-19T12:23:11Z</time>
      </trkpt>
      <trkpt lat="45.34156" lon="5.7203">
        <ele>1713.7</ele>
        <time>2021-12-19T12:23:12Z</time>
      </trkpt>
      <trkpt lat="45.34156" lon="5.7203">
        <ele>1713.7</ele>
        <time>2021-12-19T12:23:13Z</time>
      </trkpt>
      <trkpt lat="45.34156" lon="5.7203">
        <ele>1713.7</ele>
        <time>2021-12-19T12:23:14Z</time>
      </trkpt>
      <trkpt lat="45.34156" lon="5.7203">
        <ele>1713.7</ele>
        <time>2021-12-19T12:23:15Z</time>
      </trkpt>
      <trkpt lat="45.34156" lon="5.7203">
        <ele>1713.7</ele>
        <time>2021-12-19T12:23:16Z</time>
      </trkpt>
      <trkpt lat="45.34156" lon="5.7203">
        <ele>1713.7</ele>
        <time>2021-12-19T12:23:17Z</time>
      </trkpt>
      <trkpt lat="45.34155" lon="5.7203">
        <ele>1713.7</ele>
        <time>2021-12-19T12:23:18Z</time>
      </trkpt>
      <trkpt lat="45.34155" lon="5.7203">
        <ele>1713.7</ele>
        <time>2021-12-19T12:23:19Z</time>
      </trkpt>
      <trkpt lat="45.34155" lon="5.7203">
        <ele>1713.7</ele>
        <time>2021-12-19T12:23:20Z</time>
      </trkpt>
      <trkpt lat="45.34154" lon="5.7203">
        <ele>1713.7</ele>
        <time>2021-12-19T12:23:21Z</time>
      </trkpt>
      <trkpt lat="45.34154" lon="5.7203">
        <ele>1713.7</ele>
        <time>2021-12-19T12:23:22Z</time>
      </trkpt>
      <trkpt lat="45.34154" lon="5.7203">
        <ele>1713.7</ele>
        <time>2021-12-19T12:23:23Z</time>
      </trkpt>
      <trkpt lat="45.34154" lon="5.7203">
        <ele>1713.7</ele>
        <time>2021-12-19T12:23:24Z</time>
      </trkpt>
      <trkpt lat="45.34155" lon="5.7203">
        <ele>1713.7</ele>
        <time>2021-12-19T12:23:25Z</time>
      </trkpt>
      <trkpt lat="45.34154" lon="5.7203">
        <ele>1713.7</ele>
        <time>2021-12-19T12:23:26Z</time>
      </trkpt>
      <trkpt lat="45.34154" lon="5.7203">
        <ele>1713.7</ele>
        <time>2021-12-19T12:23:27Z</time>
      </trkpt>
      <trkpt lat="45.34154" lon="5.7203">
        <ele>1713.7</ele>
        <time>2021-12-19T12:23:28Z</time>
      </trkpt>
      <trkpt lat="45.34154" lon="5.7203">
        <ele>1713.7</ele>
        <time>2021-12-19T12:23:29Z</time>
      </trkpt>
      <trkpt lat="45.34154" lon="5.7203">
        <ele>1713.7</ele>
        <time>2021-12-19T12:23:30Z</time>
      </trkpt>
      <trkpt lat="45.34154" lon="5.7203">
        <ele>1713.7</ele>
        <time>2021-12-19T12:23:31Z</time>
      </trkpt>
      <trkpt lat="45.34154" lon="5.7203">
        <ele>1713.7</ele>
        <time>2021-12-19T12:23:32Z</time>
      </trkpt>
      <trkpt lat="45.34154" lon="5.7203">
        <ele>1713.7</ele>
        <time>2021-12-19T12:23:33Z</time>
      </trkpt>
      <trkpt lat="45.34154" lon="5.7203">
        <ele>1713.7</ele>
        <time>2021-12-19T12:23:34Z</time>
      </trkpt>
      <trkpt lat="45.34154" lon="5.7203">
        <ele>1713.7</ele>
        <time>2021-12-19T12:23:35Z</time>
      </trkpt>
      <trkpt lat="45.34154" lon="5.7203">
        <ele>1713.7</ele>
        <time>2021-12-19T12:23:36Z</time>
      </trkpt>
      <trkpt lat="45.34154" lon="5.7203">
        <ele>1713.7</ele>
        <time>2021-12-19T12:23:37Z</time>
      </trkpt>
      <trkpt lat="45.34154" lon="5.7203">
        <ele>1713.7</ele>
        <time>2021-12-19T12:23:38Z</time>
      </trkpt>
      <trkpt lat="45.34154" lon="5.7203">
        <ele>1713.7</ele>
        <time>2021-12-19T12:23:39Z</time>
      </trkpt>
      <trkpt lat="45.34154" lon="5.7203">
        <ele>1713.7</ele>
        <time>2021-12-19T12:23:40Z</time>
      </trkpt>
      <trkpt lat="45.34154" lon="5.7203">
        <ele>1713.7</ele>
        <time>2021-12-19T12:23:41Z</time>
      </trkpt>
      <trkpt lat="45.34154" lon="5.7203">
        <ele>1713.7</ele>
        <time>2021-12-19T12:23:42Z</time>
      </trkpt>
      <trkpt lat="45.34154" lon="5.7203">
        <ele>1713.7</ele>
        <time>2021-12-19T12:23:43Z</time>
      </trkpt>
      <trkpt lat="45.34154" lon="5.7203">
        <ele>1713.7</ele>
        <time>2021-12-19T12:23:44Z</time>
      </trkpt>
      <trkpt lat="45.34154" lon="5.7203">
        <ele>1713.7</ele>
        <time>2021-12-19T12:23:45Z</time>
      </trkpt>
      <trkpt lat="45.34154" lon="5.7203">
        <ele>1713.7</ele>
        <time>2021-12-19T12:23:46Z</time>
      </trkpt>
      <trkpt lat="45.34154" lon="5.7203">
        <ele>1713.7</ele>
        <time>2021-12-19T12:23:47Z</time>
      </trkpt>
      <trkpt lat="45.34154" lon="5.7203">
        <ele>1713.7</ele>
        <time>2021-12-19T12:23:48Z</time>
      </trkpt>
      <trkpt lat="45.34154" lon="5.7203">
        <ele>1713.7</ele>
        <time>2021-12-19T12:23:49Z</time>
      </trkpt>
      <trkpt lat="45.34154" lon="5.7203">
        <ele>1713.7</ele>
        <time>2021-12-19T12:23:50Z</time>
      </trkpt>
      <trkpt lat="45.34154" lon="5.7203">
        <ele>1713.7</ele>
        <time>2021-12-19T12:23:51Z</time>
      </trkpt>
      <trkpt lat="45.34154" lon="5.7203">
        <ele>1713.7</ele>
        <time>2021-12-19T12:23:52Z</time>
      </trkpt>
      <trkpt lat="45.34154" lon="5.7203">
        <ele>1713.7</ele>
        <time>2021-12-19T12:23:53Z</time>
      </trkpt>
      <trkpt lat="45.34154" lon="5.7203">
        <ele>1713.7</ele>
        <time>2021-12-19T12:23:54Z</time>
      </trkpt>
      <trkpt lat="45.34154" lon="5.7203">
        <ele>1713.7</ele>
        <time>2021-12-19T12:23:55Z</time>
      </trkpt>
      <trkpt lat="45.34154" lon="5.7203">
        <ele>1713.7</ele>
        <time>2021-12-19T12:23:56Z</time>
      </trkpt>
      <trkpt lat="45.34154" lon="5.7203">
        <ele>1713.7</ele>
        <time>2021-12-19T12:23:57Z</time>
      </trkpt>
      <trkpt lat="45.34154" lon="5.7203">
        <ele>1713.7</ele>
        <time>2021-12-19T12:23:58Z</time>
      </trkpt>
      <trkpt lat="45.34154" lon="5.7203">
        <ele>1713.7</ele>
        <time>2021-12-19T12:23:59Z</time>
      </trkpt>
      <trkpt lat="45.34154" lon="5.7203">
        <ele>1713.7</ele>
        <time>2021-12-19T12:24:00Z</time>
      </trkpt>
      <trkpt lat="45.34154" lon="5.7203">
        <ele>1713.7</ele>
        <time>2021-12-19T12:24:01Z</time>
      </trkpt>
      <trkpt lat="45.34154" lon="5.72029">
        <ele>1713.7</ele>
        <time>2021-12-19T12:24:02Z</time>
      </trkpt>
      <trkpt lat="45.34155" lon="5.72029">
        <ele>1713.7</ele>
        <time>2021-12-19T12:24:03Z</time>
      </trkpt>
      <trkpt lat="45.34155" lon="5.72029">
        <ele>1713.7</ele>
        <time>2021-12-19T12:24:04Z</time>
      </trkpt>
      <trkpt lat="45.34155" lon="5.72029">
        <ele>1713.7</ele>
        <time>2021-12-19T12:24:05Z</time>
      </trkpt>
      <trkpt lat="45.34155" lon="5.72029">
        <ele>1713.7</ele>
        <time>2021-12-19T12:24:06Z</time>
      </trkpt>
      <trkpt lat="45.34155" lon="5.72029">
        <ele>1713.7</ele>
        <time>2021-12-19T12:24:07Z</time>
      </trkpt>
      <trkpt lat="45.34155" lon="5.72029">
        <ele>1713.7</ele>
        <time>2021-12-19T12:24:08Z</time>
      </trkpt>
      <trkpt lat="45.34155" lon="5.72029">
        <ele>1713.7</ele>
        <time>2021-12-19T12:24:09Z</time>
      </trkpt>
      <trkpt lat="45.34155" lon="5.72029">
        <ele>1713.7</ele>
        <time>2021-12-19T12:24:10Z</time>
      </trkpt>
      <trkpt lat="45.34155" lon="5.72029">
        <ele>1713.7</ele>
        <time>2021-12-19T12:24:11Z</time>
      </trkpt>
      <trkpt lat="45.34155" lon="5.72029">
        <ele>1713.7</ele>
        <time>2021-12-19T12:24:12Z</time>
      </trkpt>
      <trkpt lat="45.34155" lon="5.72029">
        <ele>1713.7</ele>
        <time>2021-12-19T12:24:13Z</time>
      </trkpt>
      <trkpt lat="45.34155" lon="5.72029">
        <ele>1713.7</ele>
        <time>2021-12-19T12:24:14Z</time>
      </trkpt>
      <trkpt lat="45.34155" lon="5.72029">
        <ele>1713.7</ele>
        <time>2021-12-19T12:24:15Z</time>
      </trkpt>
      <trkpt lat="45.34155" lon="5.7203">
        <ele>1713.7</ele>
        <time>2021-12-19T12:24:16Z</time>
      </trkpt>
      <trkpt lat="45.34155" lon="5.72029">
        <ele>1713.7</ele>
        <time>2021-12-19T12:24:17Z</time>
      </trkpt>
      <trkpt lat="45.34155" lon="5.72029">
        <ele>1713.7</ele>
        <time>2021-12-19T12:24:18Z</time>
      </trkpt>
      <trkpt lat="45.34155" lon="5.72029">
        <ele>1713.7</ele>
        <time>2021-12-19T12:24:19Z</time>
      </trkpt>
      <trkpt lat="45.34155" lon="5.72029">
        <ele>1713.7</ele>
        <time>2021-12-19T12:24:20Z</time>
      </trkpt>
      <trkpt lat="45.34155" lon="5.72029">
        <ele>1713.7</ele>
        <time>2021-12-19T12:24:21Z</time>
      </trkpt>
      <trkpt lat="45.34155" lon="5.72029">
        <ele>1713.7</ele>
        <time>2021-12-19T12:24:22Z</time>
      </trkpt>
      <trkpt lat="45.34155" lon="5.72029">
        <ele>1713.7</ele>
        <time>2021-12-19T12:24:23Z</time>
      </trkpt>
      <trkpt lat="45.34155" lon="5.72029">
        <ele>1713.7</ele>
        <time>2021-12-19T12:24:24Z</time>
      </trkpt>
      <trkpt lat="45.34155" lon="5.72029">
        <ele>1713.7</ele>
        <time>2021-12-19T12:24:25Z</time>
      </trkpt>
      <trkpt lat="45.34155" lon="5.7203">
        <ele>1713.7</ele>
        <time>2021-12-19T12:24:26Z</time>
      </trkpt>
      <trkpt lat="45.34155" lon="5.7203">
        <ele>1713.7</ele>
        <time>2021-12-19T12:24:27Z</time>
      </trkpt>
      <trkpt lat="45.34155" lon="5.7203">
        <ele>1713.7</ele>
        <time>2021-12-19T12:24:28Z</time>
      </trkpt>
      <trkpt lat="45.34155" lon="5.72031">
        <ele>1713.7</ele>
        <time>2021-12-19T12:24:29Z</time>
      </trkpt>
      <trkpt lat="45.34155" lon="5.72031">
        <ele>1713.7</ele>
        <time>2021-12-19T12:24:30Z</time>
      </trkpt>
      <trkpt lat="45.34155" lon="5.72031">
        <ele>1713.7</ele>
        <time>2021-12-19T12:24:31Z</time>
      </trkpt>
      <trkpt lat="45.34155" lon="5.72031">
        <ele>1713.7</ele>
        <time>2021-12-19T12:24:32Z</time>
      </trkpt>
      <trkpt lat="45.34155" lon="5.72031">
        <ele>1713.7</ele>
        <time>2021-12-19T12:24:33Z</time>
      </trkpt>
      <trkpt lat="45.34155" lon="5.72031">
        <ele>1713.7</ele>
        <time>2021-12-19T12:24:34Z</time>
      </trkpt>
      <trkpt lat="45.34155" lon="5.72031">
        <ele>1713.7</ele>
        <time>2021-12-19T12:24:35Z</time>
      </trkpt>
      <trkpt lat="45.34155" lon="5.72031">
        <ele>1713.7</ele>
        <time>2021-12-19T12:24:36Z</time>
      </trkpt>
      <trkpt lat="45.34155" lon="5.72031">
        <ele>1713.7</ele>
        <time>2021-12-19T12:24:37Z</time>
      </trkpt>
      <trkpt lat="45.34155" lon="5.72031">
        <ele>1713.7</ele>
        <time>2021-12-19T12:24:38Z</time>
      </trkpt>
      <trkpt lat="45.34155" lon="5.72031">
        <ele>1713.7</ele>
        <time>2021-12-19T12:24:39Z</time>
      </trkpt>
      <trkpt lat="45.34155" lon="5.72031">
        <ele>1713.7</ele>
        <time>2021-12-19T12:24:40Z</time>
      </trkpt>
      <trkpt lat="45.34155" lon="5.72031">
        <ele>1713.7</ele>
        <time>2021-12-19T12:24:41Z</time>
      </trkpt>
      <trkpt lat="45.34155" lon="5.7203">
        <ele>1713.7</ele>
        <time>2021-12-19T12:24:42Z</time>
      </trkpt>
      <trkpt lat="45.34155" lon="5.7203">
        <ele>1713.7</ele>
        <time>2021-12-19T12:24:43Z</time>
      </trkpt>
      <trkpt lat="45.34155" lon="5.7203">
        <ele>1713.7</ele>
        <time>2021-12-19T12:24:44Z</time>
      </trkpt>
      <trkpt lat="45.34155" lon="5.7203">
        <ele>1713.7</ele>
        <time>2021-12-19T12:24:45Z</time>
      </trkpt>
      <trkpt lat="45.34156" lon="5.7203">
        <ele>1713.7</ele>
        <time>2021-12-19T12:24:46Z</time>
      </trkpt>
      <trkpt lat="45.34156" lon="5.7203">
        <ele>1713.7</ele>
        <time>2021-12-19T12:24:47Z</time>
      </trkpt>
      <trkpt lat="45.34156" lon="5.72029">
        <ele>1713.7</ele>
        <time>2021-12-19T12:24:48Z</time>
      </trkpt>
      <trkpt lat="45.34156" lon="5.72029">
        <ele>1712.1</ele>
        <time>2021-12-19T12:24:49Z</time>
      </trkpt>
      <trkpt lat="45.34156" lon="5.7203">
        <ele>1712.1</ele>
        <time>2021-12-19T12:24:50Z</time>
      </trkpt>
      <trkpt lat="45.34156" lon="5.7203">
        <ele>1712.1</ele>
        <time>2021-12-19T12:24:51Z</time>
      </trkpt>
      <trkpt lat="45.34156" lon="5.7203">
        <ele>1712.1</ele>
        <time>2021-12-19T12:24:52Z</time>
      </trkpt>
      <trkpt lat="45.34156" lon="5.7203">
        <ele>1713.7</ele>
        <time>2021-12-19T12:24:53Z</time>
      </trkpt>
      <trkpt lat="45.34156" lon="5.7203">
        <ele>1713.7</ele>
        <time>2021-12-19T12:24:54Z</time>
      </trkpt>
      <trkpt lat="45.34156" lon="5.7203">
        <ele>1712.1</ele>
        <time>2021-12-19T12:24:55Z</time>
      </trkpt>
      <trkpt lat="45.34156" lon="5.7203">
        <ele>1712.1</ele>
        <time>2021-12-19T12:24:56Z</time>
      </trkpt>
      <trkpt lat="45.34156" lon="5.7203">
        <ele>1712.1</ele>
        <time>2021-12-19T12:24:57Z</time>
      </trkpt>
      <trkpt lat="45.34156" lon="5.7203">
        <ele>1712.1</ele>
        <time>2021-12-19T12:24:58Z</time>
      </trkpt>
      <trkpt lat="45.34156" lon="5.7203">
        <ele>1712.1</ele>
        <time>2021-12-19T12:24:59Z</time>
      </trkpt>
      <trkpt lat="45.34156" lon="5.7203">
        <ele>1712.1</ele>
        <time>2021-12-19T12:25:00Z</time>
      </trkpt>
      <trkpt lat="45.34156" lon="5.7203">
        <ele>1712.1</ele>
        <time>2021-12-19T12:25:01Z</time>
      </trkpt>
      <trkpt lat="45.34156" lon="5.7203">
        <ele>1712.1</ele>
        <time>2021-12-19T12:25:02Z</time>
      </trkpt>
      <trkpt lat="45.34156" lon="5.7203">
        <ele>1712.1</ele>
        <time>2021-12-19T12:25:03Z</time>
      </trkpt>
      <trkpt lat="45.34156" lon="5.7203">
        <ele>1712.1</ele>
        <time>2021-12-19T12:25:04Z</time>
      </trkpt>
      <trkpt lat="45.34156" lon="5.7203">
        <ele>1712.1</ele>
        <time>2021-12-19T12:25:05Z</time>
      </trkpt>
      <trkpt lat="45.34156" lon="5.7203">
        <ele>1712.1</ele>
        <time>2021-12-19T12:25:06Z</time>
      </trkpt>
      <trkpt lat="45.34156" lon="5.7203">
        <ele>1712.1</ele>
        <time>2021-12-19T12:25:07Z</time>
      </trkpt>
      <trkpt lat="45.34156" lon="5.7203">
        <ele>1712.1</ele>
        <time>2021-12-19T12:25:08Z</time>
      </trkpt>
      <trkpt lat="45.34156" lon="5.7203">
        <ele>1712.1</ele>
        <time>2021-12-19T12:25:09Z</time>
      </trkpt>
      <trkpt lat="45.34156" lon="5.7203">
        <ele>1712.1</ele>
        <time>2021-12-19T12:25:10Z</time>
      </trkpt>
      <trkpt lat="45.34156" lon="5.72029">
        <ele>1712.1</ele>
        <time>2021-12-19T12:25:11Z</time>
      </trkpt>
      <trkpt lat="45.34156" lon="5.72029">
        <ele>1712.1</ele>
        <time>2021-12-19T12:25:12Z</time>
      </trkpt>
      <trkpt lat="45.34156" lon="5.72029">
        <ele>1712.1</ele>
        <time>2021-12-19T12:25:13Z</time>
      </trkpt>
      <trkpt lat="45.34157" lon="5.72029">
        <ele>1712.1</ele>
        <time>2021-12-19T12:25:14Z</time>
      </trkpt>
      <trkpt lat="45.34157" lon="5.72028">
        <ele>1712.1</ele>
        <time>2021-12-19T12:25:15Z</time>
      </trkpt>
      <trkpt lat="45.34157" lon="5.72028">
        <ele>1712.1</ele>
        <time>2021-12-19T12:25:16Z</time>
      </trkpt>
      <trkpt lat="45.34157" lon="5.72029">
        <ele>1712.1</ele>
        <time>2021-12-19T12:25:17Z</time>
      </trkpt>
      <trkpt lat="45.34157" lon="5.72028">
        <ele>1712.1</ele>
        <time>2021-12-19T12:25:18Z</time>
      </trkpt>
      <trkpt lat="45.34157" lon="5.72028">
        <ele>1712.1</ele>
        <time>2021-12-19T12:25:19Z</time>
      </trkpt>
      <trkpt lat="45.34157" lon="5.72028">
        <ele>1712.1</ele>
        <time>2021-12-19T12:25:20Z</time>
      </trkpt>
      <trkpt lat="45.34157" lon="5.72028">
        <ele>1712.1</ele>
        <time>2021-12-19T12:25:21Z</time>
      </trkpt>
      <trkpt lat="45.34157" lon="5.72028">
        <ele>1712.1</ele>
        <time>2021-12-19T12:25:22Z</time>
      </trkpt>
      <trkpt lat="45.34157" lon="5.72028">
        <ele>1712.1</ele>
        <time>2021-12-19T12:25:23Z</time>
      </trkpt>
      <trkpt lat="45.34157" lon="5.72028">
        <ele>1712.1</ele>
        <time>2021-12-19T12:25:24Z</time>
      </trkpt>
      <trkpt lat="45.34157" lon="5.72028">
        <ele>1712.1</ele>
        <time>2021-12-19T12:25:25Z</time>
      </trkpt>
      <trkpt lat="45.34157" lon="5.72029">
        <ele>1712.1</ele>
        <time>2021-12-19T12:25:26Z</time>
      </trkpt>
      <trkpt lat="45.34157" lon="5.72029">
        <ele>1712.1</ele>
        <time>2021-12-19T12:25:27Z</time>
      </trkpt>
      <trkpt lat="45.34157" lon="5.72029">
        <ele>1712.1</ele>
        <time>2021-12-19T12:25:28Z</time>
      </trkpt>
      <trkpt lat="45.34157" lon="5.72029">
        <ele>1712.1</ele>
        <time>2021-12-19T12:25:29Z</time>
      </trkpt>
      <trkpt lat="45.34157" lon="5.72029">
        <ele>1712.1</ele>
        <time>2021-12-19T12:25:30Z</time>
      </trkpt>
      <trkpt lat="45.34157" lon="5.7203">
        <ele>1712.1</ele>
        <time>2021-12-19T12:25:31Z</time>
      </trkpt>
      <trkpt lat="45.34157" lon="5.7203">
        <ele>1712.1</ele>
        <time>2021-12-19T12:25:32Z</time>
      </trkpt>
      <trkpt lat="45.34157" lon="5.72029">
        <ele>1712.1</ele>
        <time>2021-12-19T12:25:33Z</time>
      </trkpt>
      <trkpt lat="45.34157" lon="5.72029">
        <ele>1712.1</ele>
        <time>2021-12-19T12:25:34Z</time>
      </trkpt>
      <trkpt lat="45.34157" lon="5.72029">
        <ele>1712.1</ele>
        <time>2021-12-19T12:25:35Z</time>
      </trkpt>
      <trkpt lat="45.34157" lon="5.72029">
        <ele>1712.1</ele>
        <time>2021-12-19T12:25:36Z</time>
      </trkpt>
      <trkpt lat="45.34158" lon="5.72029">
        <ele>1712.1</ele>
        <time>2021-12-19T12:25:37Z</time>
      </trkpt>
      <trkpt lat="45.34158" lon="5.72029">
        <ele>1712.1</ele>
        <time>2021-12-19T12:25:38Z</time>
      </trkpt>
      <trkpt lat="45.34158" lon="5.72029">
        <ele>1712.1</ele>
        <time>2021-12-19T12:25:39Z</time>
      </trkpt>
      <trkpt lat="45.34158" lon="5.72029">
        <ele>1712.1</ele>
        <time>2021-12-19T12:25:40Z</time>
      </trkpt>
      <trkpt lat="45.34158" lon="5.7203">
        <ele>1712.1</ele>
        <time>2021-12-19T12:25:41Z</time>
      </trkpt>
      <trkpt lat="45.34158" lon="5.7203">
        <ele>1712.1</ele>
        <time>2021-12-19T12:25:42Z</time>
      </trkpt>
      <trkpt lat="45.34158" lon="5.72031">
        <ele>1712.1</ele>
        <time>2021-12-19T12:25:43Z</time>
      </trkpt>
      <trkpt lat="45.34158" lon="5.72031">
        <ele>1712.1</ele>
        <time>2021-12-19T12:25:44Z</time>
      </trkpt>
      <trkpt lat="45.34158" lon="5.72031">
        <ele>1712.1</ele>
        <time>2021-12-19T12:25:45Z</time>
      </trkpt>
      <trkpt lat="45.34158" lon="5.72031">
        <ele>1712.1</ele>
        <time>2021-12-19T12:25:46Z</time>
      </trkpt>
      <trkpt lat="45.34158" lon="5.72031">
        <ele>1712.1</ele>
        <time>2021-12-19T12:25:47Z</time>
      </trkpt>
      <trkpt lat="45.34158" lon="5.72031">
        <ele>1712.1</ele>
        <time>2021-12-19T12:25:48Z</time>
      </trkpt>
      <trkpt lat="45.34158" lon="5.72031">
        <ele>1712.1</ele>
        <time>2021-12-19T12:25:49Z</time>
      </trkpt>
      <trkpt lat="45.34158" lon="5.72031">
        <ele>1712.1</ele>
        <time>2021-12-19T12:25:50Z</time>
      </trkpt>
      <trkpt lat="45.34158" lon="5.72031">
        <ele>1712.1</ele>
        <time>2021-12-19T12:25:51Z</time>
      </trkpt>
      <trkpt lat="45.34158" lon="5.72031">
        <ele>1712.1</ele>
        <time>2021-12-19T12:25:52Z</time>
      </trkpt>
      <trkpt lat="45.34158" lon="5.72031">
        <ele>1712.1</ele>
        <time>2021-12-19T12:25:53Z</time>
      </trkpt>
      <trkpt lat="45.34158" lon="5.72031">
        <ele>1712.1</ele>
        <time>2021-12-19T12:25:54Z</time>
      </trkpt>
      <trkpt lat="45.34158" lon="5.72032">
        <ele>1713</ele>
        <time>2021-12-19T12:25:55Z</time>
      </trkpt>
      <trkpt lat="45.34158" lon="5.72032">
        <ele>1713</ele>
        <time>2021-12-19T12:25:56Z</time>
      </trkpt>
      <trkpt lat="45.34158" lon="5.72032">
        <ele>1713</ele>
        <time>2021-12-19T12:25:57Z</time>
      </trkpt>
      <trkpt lat="45.34158" lon="5.72032">
        <ele>1713</ele>
        <time>2021-12-19T12:25:58Z</time>
      </trkpt>
      <trkpt lat="45.34158" lon="5.72032">
        <ele>1713</ele>
        <time>2021-12-19T12:25:59Z</time>
      </trkpt>
      <trkpt lat="45.34158" lon="5.72032">
        <ele>1713</ele>
        <time>2021-12-19T12:26:00Z</time>
      </trkpt>
      <trkpt lat="45.34158" lon="5.72032">
        <ele>1713</ele>
        <time>2021-12-19T12:26:01Z</time>
      </trkpt>
      <trkpt lat="45.34158" lon="5.72032">
        <ele>1713</ele>
        <time>2021-12-19T12:26:02Z</time>
      </trkpt>
      <trkpt lat="45.34158" lon="5.72032">
        <ele>1713</ele>
        <time>2021-12-19T12:26:03Z</time>
      </trkpt>
      <trkpt lat="45.34158" lon="5.72032">
        <ele>1713</ele>
        <time>2021-12-19T12:26:04Z</time>
      </trkpt>
      <trkpt lat="45.34158" lon="5.72032">
        <ele>1713</ele>
        <time>2021-12-19T12:26:05Z</time>
      </trkpt>
      <trkpt lat="45.34158" lon="5.72032">
        <ele>1713</ele>
        <time>2021-12-19T12:26:06Z</time>
      </trkpt>
      <trkpt lat="45.34158" lon="5.72032">
        <ele>1713</ele>
        <time>2021-12-19T12:26:07Z</time>
      </trkpt>
      <trkpt lat="45.34158" lon="5.72032">
        <ele>1713</ele>
        <time>2021-12-19T12:26:08Z</time>
      </trkpt>
      <trkpt lat="45.34158" lon="5.72032">
        <ele>1713</ele>
        <time>2021-12-19T12:26:09Z</time>
      </trkpt>
      <trkpt lat="45.34158" lon="5.72032">
        <ele>1713</ele>
        <time>2021-12-19T12:26:10Z</time>
      </trkpt>
      <trkpt lat="45.34158" lon="5.72032">
        <ele>1713</ele>
        <time>2021-12-19T12:26:11Z</time>
      </trkpt>
      <trkpt lat="45.34158" lon="5.72032">
        <ele>1713</ele>
        <time>2021-12-19T12:26:12Z</time>
      </trkpt>
      <trkpt lat="45.34158" lon="5.72032">
        <ele>1713</ele>
        <time>2021-12-19T12:26:13Z</time>
      </trkpt>
      <trkpt lat="45.34158" lon="5.72032">
        <ele>1713</ele>
        <time>2021-12-19T12:26:14Z</time>
      </trkpt>
      <trkpt lat="45.34158" lon="5.72032">
        <ele>1713</ele>
        <time>2021-12-19T12:26:15Z</time>
      </trkpt>
      <trkpt lat="45.34158" lon="5.72032">
        <ele>1713</ele>
        <time>2021-12-19T12:26:16Z</time>
      </trkpt>
      <trkpt lat="45.34158" lon="5.72032">
        <ele>1713</ele>
        <time>2021-12-19T12:26:17Z</time>
      </trkpt>
      <trkpt lat="45.34158" lon="5.72032">
        <ele>1713</ele>
        <time>2021-12-19T12:26:18Z</time>
      </trkpt>
      <trkpt lat="45.34158" lon="5.72032">
        <ele>1713</ele>
        <time>2021-12-19T12:26:19Z</time>
      </trkpt>
      <trkpt lat="45.34158" lon="5.72033">
        <ele>1713</ele>
        <time>2021-12-19T12:26:20Z</time>
      </trkpt>
      <trkpt lat="45.34158" lon="5.72033">
        <ele>1713</ele>
        <time>2021-12-19T12:26:21Z</time>
      </trkpt>
      <trkpt lat="45.34158" lon="5.72033">
        <ele>1713</ele>
        <time>2021-12-19T12:26:22Z</time>
      </trkpt>
      <trkpt lat="45.34158" lon="5.72033">
        <ele>1713</ele>
        <time>2021-12-19T12:26:23Z</time>
      </trkpt>
      <trkpt lat="45.34159" lon="5.72033">
        <ele>1713</ele>
        <time>2021-12-19T12:26:24Z</time>
      </trkpt>
      <trkpt lat="45.34159" lon="5.72033">
        <ele>1713</ele>
        <time>2021-12-19T12:26:25Z</time>
      </trkpt>
      <trkpt lat="45.34158" lon="5.72033">
        <ele>1713</ele>
        <time>2021-12-19T12:26:26Z</time>
      </trkpt>
      <trkpt lat="45.34158" lon="5.72033">
        <ele>1713</ele>
        <time>2021-12-19T12:26:27Z</time>
      </trkpt>
      <trkpt lat="45.34158" lon="5.72033">
        <ele>1713</ele>
        <time>2021-12-19T12:26:28Z</time>
      </trkpt>
      <trkpt lat="45.34158" lon="5.72033">
        <ele>1713</ele>
        <time>2021-12-19T12:26:29Z</time>
      </trkpt>
      <trkpt lat="45.34158" lon="5.72033">
        <ele>1713</ele>
        <time>2021-12-19T12:26:30Z</time>
      </trkpt>
      <trkpt lat="45.34158" lon="5.72033">
        <ele>1713</ele>
        <time>2021-12-19T12:26:31Z</time>
      </trkpt>
      <trkpt lat="45.34158" lon="5.72033">
        <ele>1713</ele>
        <time>2021-12-19T12:26:32Z</time>
      </trkpt>
      <trkpt lat="45.34158" lon="5.72033">
        <ele>1713</ele>
        <time>2021-12-19T12:26:33Z</time>
      </trkpt>
      <trkpt lat="45.34158" lon="5.72033">
        <ele>1713</ele>
        <time>2021-12-19T12:26:34Z</time>
      </trkpt>
      <trkpt lat="45.34158" lon="5.72033">
        <ele>1713</ele>
        <time>2021-12-19T12:26:35Z</time>
      </trkpt>
      <trkpt lat="45.34158" lon="5.72032">
        <ele>1713</ele>
        <time>2021-12-19T12:26:36Z</time>
      </trkpt>
      <trkpt lat="45.34158" lon="5.72033">
        <ele>1713</ele>
        <time>2021-12-19T12:26:37Z</time>
      </trkpt>
      <trkpt lat="45.34159" lon="5.72032">
        <ele>1713</ele>
        <time>2021-12-19T12:26:38Z</time>
      </trkpt>
      <trkpt lat="45.34159" lon="5.72033">
        <ele>1711.5</ele>
        <time>2021-12-19T12:26:39Z</time>
      </trkpt>
      <trkpt lat="45.3416" lon="5.72034">
        <ele>1711.5</ele>
        <time>2021-12-19T12:26:40Z</time>
      </trkpt>
      <trkpt lat="45.3416" lon="5.72036">
        <ele>1712.2</ele>
        <time>2021-12-19T12:26:41Z</time>
      </trkpt>
      <trkpt lat="45.3416" lon="5.72038">
        <ele>1712.2</ele>
        <time>2021-12-19T12:26:42Z</time>
      </trkpt>
      <trkpt lat="45.3416" lon="5.72038">
        <ele>1712.2</ele>
        <time>2021-12-19T12:26:43Z</time>
      </trkpt>
      <trkpt lat="45.34159" lon="5.72038">
        <ele>1712.2</ele>
        <time>2021-12-19T12:26:44Z</time>
      </trkpt>
      <trkpt lat="45.34159" lon="5.72038">
        <ele>1712.2</ele>
        <time>2021-12-19T12:26:45Z</time>
      </trkpt>
      <trkpt lat="45.34159" lon="5.72038">
        <ele>1712.2</ele>
        <time>2021-12-19T12:26:46Z</time>
      </trkpt>
      <trkpt lat="45.34159" lon="5.72038">
        <ele>1713.6</ele>
        <time>2021-12-19T12:26:47Z</time>
      </trkpt>
      <trkpt lat="45.34159" lon="5.72037">
        <ele>1712.2</ele>
        <time>2021-12-19T12:26:48Z</time>
      </trkpt>
      <trkpt lat="45.34159" lon="5.72037">
        <ele>1712.2</ele>
        <time>2021-12-19T12:26:49Z</time>
      </trkpt>
      <trkpt lat="45.34159" lon="5.72037">
        <ele>1712.2</ele>
        <time>2021-12-19T12:26:50Z</time>
      </trkpt>
      <trkpt lat="45.34159" lon="5.72037">
        <ele>1712.2</ele>
        <time>2021-12-19T12:26:51Z</time>
      </trkpt>
      <trkpt lat="45.34159" lon="5.72037">
        <ele>1712.2</ele>
        <time>2021-12-19T12:26:52Z</time>
      </trkpt>
      <trkpt lat="45.34159" lon="5.72037">
        <ele>1713.6</ele>
        <time>2021-12-19T12:26:53Z</time>
      </trkpt>
      <trkpt lat="45.34159" lon="5.72036">
        <ele>1713.6</ele>
        <time>2021-12-19T12:26:54Z</time>
      </trkpt>
      <trkpt lat="45.34159" lon="5.72036">
        <ele>1713.6</ele>
        <time>2021-12-19T12:26:55Z</time>
      </trkpt>
      <trkpt lat="45.34159" lon="5.72037">
        <ele>1713.6</ele>
        <time>2021-12-19T12:26:56Z</time>
      </trkpt>
      <trkpt lat="45.34159" lon="5.72037">
        <ele>1712.2</ele>
        <time>2021-12-19T12:26:57Z</time>
      </trkpt>
      <trkpt lat="45.34159" lon="5.72037">
        <ele>1712.2</ele>
        <time>2021-12-19T12:26:58Z</time>
      </trkpt>
      <trkpt lat="45.34159" lon="5.72037">
        <ele>1712.2</ele>
        <time>2021-12-19T12:26:59Z</time>
      </trkpt>
      <trkpt lat="45.34159" lon="5.72037">
        <ele>1712.2</ele>
        <time>2021-12-19T12:27:00Z</time>
      </trkpt>
      <trkpt lat="45.34159" lon="5.72037">
        <ele>1712.2</ele>
        <time>2021-12-19T12:27:01Z</time>
      </trkpt>
      <trkpt lat="45.34159" lon="5.72037">
        <ele>1712.2</ele>
        <time>2021-12-19T12:27:02Z</time>
      </trkpt>
      <trkpt lat="45.34159" lon="5.72037">
        <ele>1712.2</ele>
        <time>2021-12-19T12:27:03Z</time>
      </trkpt>
      <trkpt lat="45.34159" lon="5.72037">
        <ele>1712.2</ele>
        <time>2021-12-19T12:27:04Z</time>
      </trkpt>
      <trkpt lat="45.34159" lon="5.72037">
        <ele>1712.2</ele>
        <time>2021-12-19T12:27:05Z</time>
      </trkpt>
      <trkpt lat="45.34159" lon="5.72037">
        <ele>1712.2</ele>
        <time>2021-12-19T12:27:06Z</time>
      </trkpt>
      <trkpt lat="45.34159" lon="5.72037">
        <ele>1712.2</ele>
        <time>2021-12-19T12:27:07Z</time>
      </trkpt>
      <trkpt lat="45.34159" lon="5.72037">
        <ele>1712.2</ele>
        <time>2021-12-19T12:27:08Z</time>
      </trkpt>
      <trkpt lat="45.34159" lon="5.72037">
        <ele>1713.6</ele>
        <time>2021-12-19T12:27:09Z</time>
      </trkpt>
      <trkpt lat="45.34159" lon="5.72037">
        <ele>1712.2</ele>
        <time>2021-12-19T12:27:10Z</time>
      </trkpt>
      <trkpt lat="45.34159" lon="5.72037">
        <ele>1712.2</ele>
        <time>2021-12-19T12:27:11Z</time>
      </trkpt>
      <trkpt lat="45.34159" lon="5.72037">
        <ele>1712.2</ele>
        <time>2021-12-19T12:27:12Z</time>
      </trkpt>
      <trkpt lat="45.34159" lon="5.72037">
        <ele>1712.2</ele>
        <time>2021-12-19T12:27:13Z</time>
      </trkpt>
      <trkpt lat="45.34159" lon="5.72037">
        <ele>1712.2</ele>
        <time>2021-12-19T12:27:14Z</time>
      </trkpt>
      <trkpt lat="45.34159" lon="5.72037">
        <ele>1712.2</ele>
        <time>2021-12-19T12:27:15Z</time>
      </trkpt>
      <trkpt lat="45.34159" lon="5.72037">
        <ele>1712.2</ele>
        <time>2021-12-19T12:27:16Z</time>
      </trkpt>
      <trkpt lat="45.34159" lon="5.72037">
        <ele>1712.2</ele>
        <time>2021-12-19T12:27:17Z</time>
      </trkpt>
      <trkpt lat="45.34159" lon="5.72037">
        <ele>1712.2</ele>
        <time>2021-12-19T12:27:18Z</time>
      </trkpt>
      <trkpt lat="45.34159" lon="5.72037">
        <ele>1712.2</ele>
        <time>2021-12-19T12:27:19Z</time>
      </trkpt>
      <trkpt lat="45.34159" lon="5.72037">
        <ele>1713.6</ele>
        <time>2021-12-19T12:27:20Z</time>
      </trkpt>
      <trkpt lat="45.34159" lon="5.72036">
        <ele>1713.6</ele>
        <time>2021-12-19T12:27:21Z</time>
      </trkpt>
      <trkpt lat="45.34158" lon="5.72036">
        <ele>1713.6</ele>
        <time>2021-12-19T12:27:22Z</time>
      </trkpt>
      <trkpt lat="45.34158" lon="5.72036">
        <ele>1713.6</ele>
        <time>2021-12-19T12:27:23Z</time>
      </trkpt>
      <trkpt lat="45.34158" lon="5.72037">
        <ele>1713.6</ele>
        <time>2021-12-19T12:27:24Z</time>
      </trkpt>
      <trkpt lat="45.34158" lon="5.72037">
        <ele>1713.6</ele>
        <time>2021-12-19T12:27:25Z</time>
      </trkpt>
      <trkpt lat="45.34158" lon="5.72039">
        <ele>1713.6</ele>
        <time>2021-12-19T12:27:26Z</time>
      </trkpt>
      <trkpt lat="45.34158" lon="5.7204">
        <ele>1714</ele>
        <time>2021-12-19T12:27:27Z</time>
      </trkpt>
      <trkpt lat="45.34159" lon="5.72041">
        <ele>1714</ele>
        <time>2021-12-19T12:27:28Z</time>
      </trkpt>
      <trkpt lat="45.34159" lon="5.72042">
        <ele>1712.7</ele>
        <time>2021-12-19T12:27:29Z</time>
      </trkpt>
      <trkpt lat="45.3416" lon="5.72044">
        <ele>1712.7</ele>
        <time>2021-12-19T12:27:30Z</time>
      </trkpt>
      <trkpt lat="45.34161" lon="5.72045">
        <ele>1712.9</ele>
        <time>2021-12-19T12:27:31Z</time>
      </trkpt>
      <trkpt lat="45.34162" lon="5.72047">
        <ele>1712.9</ele>
        <time>2021-12-19T12:27:32Z</time>
      </trkpt>
      <trkpt lat="45.34163" lon="5.72048">
        <ele>1711.6</ele>
        <time>2021-12-19T12:27:33Z</time>
      </trkpt>
      <trkpt lat="45.34164" lon="5.7205">
        <ele>1711.6</ele>
        <time>2021-12-19T12:27:34Z</time>
      </trkpt>
      <trkpt lat="45.34165" lon="5.72051">
        <ele>1711.6</ele>
        <time>2021-12-19T12:27:35Z</time>
      </trkpt>
      <trkpt lat="45.34165" lon="5.72053">
        <ele>1711.3</ele>
        <time>2021-12-19T12:27:36Z</time>
      </trkpt>
      <trkpt lat="45.34165" lon="5.72055">
        <ele>1711.3</ele>
        <time>2021-12-19T12:27:37Z</time>
      </trkpt>
      <trkpt lat="45.34161" lon="5.72056">
        <ele>1712.4</ele>
        <time>2021-12-19T12:27:38Z</time>
      </trkpt>
      <trkpt lat="45.34161" lon="5.72057">
        <ele>1712.4</ele>
        <time>2021-12-19T12:27:39Z</time>
      </trkpt>
      <trkpt lat="45.3416" lon="5.7206">
        <ele>1711.8</ele>
        <time>2021-12-19T12:27:40Z</time>
      </trkpt>
      <trkpt lat="45.3416" lon="5.72062">
        <ele>1710.9</ele>
        <time>2021-12-19T12:27:41Z</time>
      </trkpt>
      <trkpt lat="45.34161" lon="5.72062">
        <ele>1710.9</ele>
        <time>2021-12-19T12:27:42Z</time>
      </trkpt>
      <trkpt lat="45.34161" lon="5.72062">
        <ele>1710.9</ele>
        <time>2021-12-19T12:27:43Z</time>
      </trkpt>
      <trkpt lat="45.34161" lon="5.72062">
        <ele>1710.9</ele>
        <time>2021-12-19T12:27:44Z</time>
      </trkpt>
      <trkpt lat="45.34161" lon="5.72062">
        <ele>1710.9</ele>
        <time>2021-12-19T12:27:45Z</time>
      </trkpt>
      <trkpt lat="45.34162" lon="5.72062">
        <ele>1710.9</ele>
        <time>2021-12-19T12:27:46Z</time>
      </trkpt>
      <trkpt lat="45.34162" lon="5.72062">
        <ele>1710.9</ele>
        <time>2021-12-19T12:27:47Z</time>
      </trkpt>
      <trkpt lat="45.34162" lon="5.72062">
        <ele>1710.9</ele>
        <time>2021-12-19T12:27:48Z</time>
      </trkpt>
      <trkpt lat="45.34162" lon="5.72062">
        <ele>1710.9</ele>
        <time>2021-12-19T12:27:49Z</time>
      </trkpt>
      <trkpt lat="45.34162" lon="5.72063">
        <ele>1710.9</ele>
        <time>2021-12-19T12:27:50Z</time>
      </trkpt>
      <trkpt lat="45.34162" lon="5.72063">
        <ele>1710.9</ele>
        <time>2021-12-19T12:27:51Z</time>
      </trkpt>
      <trkpt lat="45.34162" lon="5.72063">
        <ele>1710.9</ele>
        <time>2021-12-19T12:27:52Z</time>
      </trkpt>
      <trkpt lat="45.34162" lon="5.72063">
        <ele>1710.9</ele>
        <time>2021-12-19T12:27:53Z</time>
      </trkpt>
      <trkpt lat="45.34162" lon="5.72062">
        <ele>1710.9</ele>
        <time>2021-12-19T12:27:54Z</time>
      </trkpt>
      <trkpt lat="45.34162" lon="5.72063">
        <ele>1709.8</ele>
        <time>2021-12-19T12:27:55Z</time>
      </trkpt>
      <trkpt lat="45.34162" lon="5.72063">
        <ele>1709.8</ele>
        <time>2021-12-19T12:27:56Z</time>
      </trkpt>
      <trkpt lat="45.34163" lon="5.72063">
        <ele>1709.8</ele>
        <time>2021-12-19T12:27:57Z</time>
      </trkpt>
      <trkpt lat="45.34165" lon="5.72064">
        <ele>1709.8</ele>
        <time>2021-12-19T12:27:58Z</time>
      </trkpt>
      <trkpt lat="45.34166" lon="5.72065">
        <ele>1708.7</ele>
        <time>2021-12-19T12:27:59Z</time>
      </trkpt>
      <trkpt lat="45.34168" lon="5.72066">
        <ele>1707.7</ele>
        <time>2021-12-19T12:28:00Z</time>
      </trkpt>
      <trkpt lat="45.34169" lon="5.72067">
        <ele>1706.7</ele>
        <time>2021-12-19T12:28:01Z</time>
      </trkpt>
      <trkpt lat="45.3417" lon="5.72069">
        <ele>1706.7</ele>
        <time>2021-12-19T12:28:02Z</time>
      </trkpt>
      <trkpt lat="45.34169" lon="5.72072">
        <ele>1705.6</ele>
        <time>2021-12-19T12:28:03Z</time>
      </trkpt>
      <trkpt lat="45.3417" lon="5.72074">
        <ele>1705.6</ele>
        <time>2021-12-19T12:28:04Z</time>
      </trkpt>
      <trkpt lat="45.34171" lon="5.72076">
        <ele>1704.4</ele>
        <time>2021-12-19T12:28:05Z</time>
      </trkpt>
      <trkpt lat="45.34172" lon="5.72077">
        <ele>1703.6</ele>
        <time>2021-12-19T12:28:06Z</time>
      </trkpt>
      <trkpt lat="45.34173" lon="5.72077">
        <ele>1703.6</ele>
        <time>2021-12-19T12:28:07Z</time>
      </trkpt>
      <trkpt lat="45.34174" lon="5.72077">
        <ele>1703.6</ele>
        <time>2021-12-19T12:28:08Z</time>
      </trkpt>
      <trkpt lat="45.34174" lon="5.72077">
        <ele>1702.9</ele>
        <time>2021-12-19T12:28:09Z</time>
      </trkpt>
      <trkpt lat="45.34174" lon="5.72077">
        <ele>1702.9</ele>
        <time>2021-12-19T12:28:10Z</time>
      </trkpt>
      <trkpt lat="45.34175" lon="5.72077">
        <ele>1702.9</ele>
        <time>2021-12-19T12:28:11Z</time>
      </trkpt>
      <trkpt lat="45.34175" lon="5.72077">
        <ele>1702.9</ele>
        <time>2021-12-19T12:28:12Z</time>
      </trkpt>
      <trkpt lat="45.34177" lon="5.72078">
        <ele>1702.9</ele>
        <time>2021-12-19T12:28:13Z</time>
      </trkpt>
      <trkpt lat="45.34178" lon="5.72078">
        <ele>1702.3</ele>
        <time>2021-12-19T12:28:14Z</time>
      </trkpt>
      <trkpt lat="45.34179" lon="5.72079">
        <ele>1701.2</ele>
        <time>2021-12-19T12:28:15Z</time>
      </trkpt>
      <trkpt lat="45.34181" lon="5.7208">
        <ele>1700.6</ele>
        <time>2021-12-19T12:28:16Z</time>
      </trkpt>
      <trkpt lat="45.34183" lon="5.72082">
        <ele>1700</ele>
        <time>2021-12-19T12:28:17Z</time>
      </trkpt>
      <trkpt lat="45.34186" lon="5.72084">
        <ele>1698.8</ele>
        <time>2021-12-19T12:28:18Z</time>
      </trkpt>
      <trkpt lat="45.34189" lon="5.72086">
        <ele>1697.6</ele>
        <time>2021-12-19T12:28:19Z</time>
      </trkpt>
      <trkpt lat="45.34192" lon="5.72089">
        <ele>1695.8</ele>
        <time>2021-12-19T12:28:20Z</time>
      </trkpt>
      <trkpt lat="45.34195" lon="5.72091">
        <ele>1695.8</ele>
        <time>2021-12-19T12:28:21Z</time>
      </trkpt>
      <trkpt lat="45.34198" lon="5.72093">
        <ele>1693.6</ele>
        <time>2021-12-19T12:28:22Z</time>
      </trkpt>
      <trkpt lat="45.34201" lon="5.72095">
        <ele>1693.1</ele>
        <time>2021-12-19T12:28:23Z</time>
      </trkpt>
      <trkpt lat="45.34204" lon="5.72096">
        <ele>1692.6</ele>
        <time>2021-12-19T12:28:24Z</time>
      </trkpt>
      <trkpt lat="45.34207" lon="5.72097">
        <ele>1691.6</ele>
        <time>2021-12-19T12:28:25Z</time>
      </trkpt>
      <trkpt lat="45.34208" lon="5.72098">
        <ele>1691.2</ele>
        <time>2021-12-19T12:28:26Z</time>
      </trkpt>
      <trkpt lat="45.34209" lon="5.72099">
        <ele>1691.2</ele>
        <time>2021-12-19T12:28:27Z</time>
      </trkpt>
      <trkpt lat="45.34209" lon="5.72101">
        <ele>1690.2</ele>
        <time>2021-12-19T12:28:28Z</time>
      </trkpt>
      <trkpt lat="45.34209" lon="5.72102">
        <ele>1690.2</ele>
        <time>2021-12-19T12:28:29Z</time>
      </trkpt>
      <trkpt lat="45.34209" lon="5.72102">
        <ele>1690.2</ele>
        <time>2021-12-19T12:28:30Z</time>
      </trkpt>
      <trkpt lat="45.34208" lon="5.72104">
        <ele>1690.2</ele>
        <time>2021-12-19T12:28:31Z</time>
      </trkpt>
      <trkpt lat="45.34208" lon="5.72104">
        <ele>1690.2</ele>
        <time>2021-12-19T12:28:32Z</time>
      </trkpt>
      <trkpt lat="45.34208" lon="5.72104">
        <ele>1690.2</ele>
        <time>2021-12-19T12:28:33Z</time>
      </trkpt>
      <trkpt lat="45.34208" lon="5.72104">
        <ele>1690.2</ele>
        <time>2021-12-19T12:28:34Z</time>
      </trkpt>
      <trkpt lat="45.34208" lon="5.72104">
        <ele>1690.2</ele>
        <time>2021-12-19T12:28:35Z</time>
      </trkpt>
      <trkpt lat="45.34208" lon="5.72103">
        <ele>1690.2</ele>
        <time>2021-12-19T12:28:36Z</time>
      </trkpt>
      <trkpt lat="45.34208" lon="5.72103">
        <ele>1690.2</ele>
        <time>2021-12-19T12:28:37Z</time>
      </trkpt>
      <trkpt lat="45.34208" lon="5.72103">
        <ele>1690.2</ele>
        <time>2021-12-19T12:28:38Z</time>
      </trkpt>
      <trkpt lat="45.34208" lon="5.72103">
        <ele>1690.2</ele>
        <time>2021-12-19T12:28:39Z</time>
      </trkpt>
      <trkpt lat="45.34208" lon="5.72103">
        <ele>1690.2</ele>
        <time>2021-12-19T12:28:40Z</time>
      </trkpt>
      <trkpt lat="45.34208" lon="5.72103">
        <ele>1690.2</ele>
        <time>2021-12-19T12:28:41Z</time>
      </trkpt>
      <trkpt lat="45.34208" lon="5.72103">
        <ele>1690.2</ele>
        <time>2021-12-19T12:28:42Z</time>
      </trkpt>
      <trkpt lat="45.34208" lon="5.72103">
        <ele>1690.2</ele>
        <time>2021-12-19T12:28:43Z</time>
      </trkpt>
      <trkpt lat="45.34208" lon="5.72103">
        <ele>1690.2</ele>
        <time>2021-12-19T12:28:44Z</time>
      </trkpt>
      <trkpt lat="45.34209" lon="5.72104">
        <ele>1690.2</ele>
        <time>2021-12-19T12:28:45Z</time>
      </trkpt>
      <trkpt lat="45.34209" lon="5.72105">
        <ele>1689.1</ele>
        <time>2021-12-19T12:28:46Z</time>
      </trkpt>
      <trkpt lat="45.34211" lon="5.72106">
        <ele>1688.8</ele>
        <time>2021-12-19T12:28:47Z</time>
      </trkpt>
      <trkpt lat="45.34212" lon="5.72108">
        <ele>1688.8</ele>
        <time>2021-12-19T12:28:48Z</time>
      </trkpt>
      <trkpt lat="45.34212" lon="5.72109">
        <ele>1687.7</ele>
        <time>2021-12-19T12:28:49Z</time>
      </trkpt>
      <trkpt lat="45.34213" lon="5.72111">
        <ele>1687.7</ele>
        <time>2021-12-19T12:28:50Z</time>
      </trkpt>
      <trkpt lat="45.34212" lon="5.72114">
        <ele>1686.4</ele>
        <time>2021-12-19T12:28:51Z</time>
      </trkpt>
      <trkpt lat="45.34211" lon="5.72116">
        <ele>1686.4</ele>
        <time>2021-12-19T12:28:52Z</time>
      </trkpt>
      <trkpt lat="45.3421" lon="5.72118">
        <ele>1685</ele>
        <time>2021-12-19T12:28:53Z</time>
      </trkpt>
      <trkpt lat="45.34211" lon="5.72121">
        <ele>1685</ele>
        <time>2021-12-19T12:28:54Z</time>
      </trkpt>
      <trkpt lat="45.34212" lon="5.72123">
        <ele>1683.6</ele>
        <time>2021-12-19T12:28:55Z</time>
      </trkpt>
      <trkpt lat="45.34213" lon="5.72124">
        <ele>1683.4</ele>
        <time>2021-12-19T12:28:56Z</time>
      </trkpt>
      <trkpt lat="45.34215" lon="5.72125">
        <ele>1683.4</ele>
        <time>2021-12-19T12:28:57Z</time>
      </trkpt>
      <trkpt lat="45.34215" lon="5.72128">
        <ele>1682</ele>
        <time>2021-12-19T12:28:58Z</time>
      </trkpt>
      <trkpt lat="45.34214" lon="5.72131">
        <ele>1680.5</ele>
        <time>2021-12-19T12:28:59Z</time>
      </trkpt>
      <trkpt lat="45.34212" lon="5.72133">
        <ele>1680.7</ele>
        <time>2021-12-19T12:29:00Z</time>
      </trkpt>
      <trkpt lat="45.3421" lon="5.72135">
        <ele>1679.3</ele>
        <time>2021-12-19T12:29:01Z</time>
      </trkpt>
      <trkpt lat="45.34209" lon="5.72137">
        <ele>1679.3</ele>
        <time>2021-12-19T12:29:02Z</time>
      </trkpt>
      <trkpt lat="45.3421" lon="5.72139">
        <ele>1677.8</ele>
        <time>2021-12-19T12:29:03Z</time>
      </trkpt>
      <trkpt lat="45.34212" lon="5.72142">
        <ele>1677.7</ele>
        <time>2021-12-19T12:29:04Z</time>
      </trkpt>
      <trkpt lat="45.34215" lon="5.72143">
        <ele>1677.5</ele>
        <time>2021-12-19T12:29:05Z</time>
      </trkpt>
      <trkpt lat="45.34218" lon="5.72145">
        <ele>1675.9</ele>
        <time>2021-12-19T12:29:06Z</time>
      </trkpt>
      <trkpt lat="45.34221" lon="5.72149">
        <ele>1674.2</ele>
        <time>2021-12-19T12:29:07Z</time>
      </trkpt>
      <trkpt lat="45.34225" lon="5.72153">
        <ele>1672.5</ele>
        <time>2021-12-19T12:29:08Z</time>
      </trkpt>
      <trkpt lat="45.34229" lon="5.72156">
        <ele>1671</ele>
        <time>2021-12-19T12:29:09Z</time>
      </trkpt>
      <trkpt lat="45.34234" lon="5.72158">
        <ele>1671</ele>
        <time>2021-12-19T12:29:10Z</time>
      </trkpt>
      <trkpt lat="45.34238" lon="5.72159">
        <ele>1671.2</ele>
        <time>2021-12-19T12:29:11Z</time>
      </trkpt>
      <trkpt lat="45.34241" lon="5.72161">
        <ele>1670.1</ele>
        <time>2021-12-19T12:29:12Z</time>
      </trkpt>
      <trkpt lat="45.34244" lon="5.72163">
        <ele>1670.2</ele>
        <time>2021-12-19T12:29:13Z</time>
      </trkpt>
      <trkpt lat="45.34247" lon="5.72163">
        <ele>1670.3</ele>
        <time>2021-12-19T12:29:14Z</time>
      </trkpt>
      <trkpt lat="45.3425" lon="5.72163">
        <ele>1670.3</ele>
        <time>2021-12-19T12:29:15Z</time>
      </trkpt>
      <trkpt lat="45.34252" lon="5.72163">
        <ele>1670.4</ele>
        <time>2021-12-19T12:29:16Z</time>
      </trkpt>
      <trkpt lat="45.34256" lon="5.72163">
        <ele>1670.4</ele>
        <time>2021-12-19T12:29:17Z</time>
      </trkpt>
      <trkpt lat="45.34259" lon="5.72162">
        <ele>1670.4</ele>
        <time>2021-12-19T12:29:18Z</time>
      </trkpt>
      <trkpt lat="45.34262" lon="5.72162">
        <ele>1670.4</ele>
        <time>2021-12-19T12:29:19Z</time>
      </trkpt>
      <trkpt lat="45.34265" lon="5.72162">
        <ele>1670.3</ele>
        <time>2021-12-19T12:29:20Z</time>
      </trkpt>
      <trkpt lat="45.34267" lon="5.72162">
        <ele>1670.3</ele>
        <time>2021-12-19T12:29:21Z</time>
      </trkpt>
      <trkpt lat="45.34268" lon="5.72162">
        <ele>1670</ele>
        <time>2021-12-19T12:29:22Z</time>
      </trkpt>
      <trkpt lat="45.34268" lon="5.72162">
        <ele>1670</ele>
        <time>2021-12-19T12:29:23Z</time>
      </trkpt>
      <trkpt lat="45.34268" lon="5.72162">
        <ele>1670</ele>
        <time>2021-12-19T12:29:24Z</time>
      </trkpt>
      <trkpt lat="45.34269" lon="5.72162">
        <ele>1670</ele>
        <time>2021-12-19T12:29:25Z</time>
      </trkpt>
      <trkpt lat="45.34269" lon="5.72161">
        <ele>1670</ele>
        <time>2021-12-19T12:29:26Z</time>
      </trkpt>
      <trkpt lat="45.34268" lon="5.72161">
        <ele>1670</ele>
        <time>2021-12-19T12:29:27Z</time>
      </trkpt>
      <trkpt lat="45.34268" lon="5.72161">
        <ele>1670</ele>
        <time>2021-12-19T12:29:28Z</time>
      </trkpt>
      <trkpt lat="45.34269" lon="5.72161">
        <ele>1670</ele>
        <time>2021-12-19T12:29:29Z</time>
      </trkpt>
      <trkpt lat="45.34269" lon="5.72161">
        <ele>1670</ele>
        <time>2021-12-19T12:29:30Z</time>
      </trkpt>
      <trkpt lat="45.34269" lon="5.72161">
        <ele>1670</ele>
        <time>2021-12-19T12:29:31Z</time>
      </trkpt>
      <trkpt lat="45.34269" lon="5.72162">
        <ele>1670</ele>
        <time>2021-12-19T12:29:32Z</time>
      </trkpt>
      <trkpt lat="45.34269" lon="5.72162">
        <ele>1670</ele>
        <time>2021-12-19T12:29:33Z</time>
      </trkpt>
      <trkpt lat="45.34269" lon="5.72162">
        <ele>1670</ele>
        <time>2021-12-19T12:29:34Z</time>
      </trkpt>
      <trkpt lat="45.34269" lon="5.72162">
        <ele>1670</ele>
        <time>2021-12-19T12:29:35Z</time>
      </trkpt>
      <trkpt lat="45.34269" lon="5.72162">
        <ele>1670</ele>
        <time>2021-12-19T12:29:36Z</time>
      </trkpt>
      <trkpt lat="45.34269" lon="5.72162">
        <ele>1670</ele>
        <time>2021-12-19T12:29:37Z</time>
      </trkpt>
      <trkpt lat="45.34269" lon="5.72162">
        <ele>1670</ele>
        <time>2021-12-19T12:29:38Z</time>
      </trkpt>
      <trkpt lat="45.34269" lon="5.72162">
        <ele>1670</ele>
        <time>2021-12-19T12:29:39Z</time>
      </trkpt>
      <trkpt lat="45.34269" lon="5.72162">
        <ele>1670</ele>
        <time>2021-12-19T12:29:40Z</time>
      </trkpt>
      <trkpt lat="45.34269" lon="5.72162">
        <ele>1670</ele>
        <time>2021-12-19T12:29:41Z</time>
      </trkpt>
      <trkpt lat="45.34269" lon="5.72161">
        <ele>1670</ele>
        <time>2021-12-19T12:29:42Z</time>
      </trkpt>
      <trkpt lat="45.34269" lon="5.72162">
        <ele>1670</ele>
        <time>2021-12-19T12:29:43Z</time>
      </trkpt>
      <trkpt lat="45.3427" lon="5.72162">
        <ele>1670</ele>
        <time>2021-12-19T12:29:44Z</time>
      </trkpt>
      <trkpt lat="45.3427" lon="5.72165">
        <ele>1669.4</ele>
        <time>2021-12-19T12:29:45Z</time>
      </trkpt>
      <trkpt lat="45.34272" lon="5.72168">
        <ele>1669.2</ele>
        <time>2021-12-19T12:29:46Z</time>
      </trkpt>
      <trkpt lat="45.34274" lon="5.72171">
        <ele>1668.4</ele>
        <time>2021-12-19T12:29:47Z</time>
      </trkpt>
      <trkpt lat="45.34277" lon="5.72175">
        <ele>1667.5</ele>
        <time>2021-12-19T12:29:48Z</time>
      </trkpt>
      <trkpt lat="45.34281" lon="5.72178">
        <ele>1666.8</ele>
        <time>2021-12-19T12:29:49Z</time>
      </trkpt>
      <trkpt lat="45.34284" lon="5.72181">
        <ele>1666.5</ele>
        <time>2021-12-19T12:29:50Z</time>
      </trkpt>
      <trkpt lat="45.34287" lon="5.72184">
        <ele>1665.7</ele>
        <time>2021-12-19T12:29:51Z</time>
      </trkpt>
      <trkpt lat="45.34291" lon="5.72187">
        <ele>1665</ele>
        <time>2021-12-19T12:29:52Z</time>
      </trkpt>
      <trkpt lat="45.34294" lon="5.72188">
        <ele>1664.8</ele>
        <time>2021-12-19T12:29:53Z</time>
      </trkpt>
      <trkpt lat="45.34296" lon="5.7219">
        <ele>1664.5</ele>
        <time>2021-12-19T12:29:54Z</time>
      </trkpt>
      <trkpt lat="45.34298" lon="5.72191">
        <ele>1663.8</ele>
        <time>2021-12-19T12:29:55Z</time>
      </trkpt>
      <trkpt lat="45.343" lon="5.72192">
        <ele>1663.8</ele>
        <time>2021-12-19T12:29:56Z</time>
      </trkpt>
      <trkpt lat="45.34301" lon="5.72192">
        <ele>1663.5</ele>
        <time>2021-12-19T12:29:57Z</time>
      </trkpt>
      <trkpt lat="45.34303" lon="5.72193">
        <ele>1663.5</ele>
        <time>2021-12-19T12:29:58Z</time>
      </trkpt>
      <trkpt lat="45.34304" lon="5.72194">
        <ele>1663.1</ele>
        <time>2021-12-19T12:29:59Z</time>
      </trkpt>
      <trkpt lat="45.34306" lon="5.72196">
        <ele>1662.8</ele>
        <time>2021-12-19T12:30:00Z</time>
      </trkpt>
      <trkpt lat="45.34308" lon="5.72198">
        <ele>1662.4</ele>
        <time>2021-12-19T12:30:01Z</time>
      </trkpt>
      <trkpt lat="45.3431" lon="5.72201">
        <ele>1661.6</ele>
        <time>2021-12-19T12:30:02Z</time>
      </trkpt>
      <trkpt lat="45.34312" lon="5.72205">
        <ele>1661.3</ele>
        <time>2021-12-19T12:30:03Z</time>
      </trkpt>
      <trkpt lat="45.34314" lon="5.72208">
        <ele>1660.5</ele>
        <time>2021-12-19T12:30:04Z</time>
      </trkpt>
      <trkpt lat="45.34317" lon="5.72213">
        <ele>1659.8</ele>
        <time>2021-12-19T12:30:05Z</time>
      </trkpt>
      <trkpt lat="45.34319" lon="5.72218">
        <ele>1659.1</ele>
        <time>2021-12-19T12:30:06Z</time>
      </trkpt>
      <trkpt lat="45.34322" lon="5.72222">
        <ele>1658.4</ele>
        <time>2021-12-19T12:30:07Z</time>
      </trkpt>
      <trkpt lat="45.34325" lon="5.72225">
        <ele>1657.7</ele>
        <time>2021-12-19T12:30:08Z</time>
      </trkpt>
      <trkpt lat="45.34327" lon="5.72228">
        <ele>1657.7</ele>
        <time>2021-12-19T12:30:09Z</time>
      </trkpt>
      <trkpt lat="45.34329" lon="5.7223">
        <ele>1656.8</ele>
        <time>2021-12-19T12:30:10Z</time>
      </trkpt>
      <trkpt lat="45.3433" lon="5.72232">
        <ele>1656.8</ele>
        <time>2021-12-19T12:30:11Z</time>
      </trkpt>
      <trkpt lat="45.34332" lon="5.72234">
        <ele>1655.9</ele>
        <time>2021-12-19T12:30:12Z</time>
      </trkpt>
      <trkpt lat="45.34335" lon="5.72235">
        <ele>1655.3</ele>
        <time>2021-12-19T12:30:13Z</time>
      </trkpt>
      <trkpt lat="45.34338" lon="5.72238">
        <ele>1654.3</ele>
        <time>2021-12-19T12:30:14Z</time>
      </trkpt>
      <trkpt lat="45.34341" lon="5.72242">
        <ele>1653.7</ele>
        <time>2021-12-19T12:30:15Z</time>
      </trkpt>
      <trkpt lat="45.34344" lon="5.72246">
        <ele>1652.9</ele>
        <time>2021-12-19T12:30:16Z</time>
      </trkpt>
      <trkpt lat="45.34346" lon="5.7225">
        <ele>1652.1</ele>
        <time>2021-12-19T12:30:17Z</time>
      </trkpt>
      <trkpt lat="45.34349" lon="5.72253">
        <ele>1651.8</ele>
        <time>2021-12-19T12:30:18Z</time>
      </trkpt>
      <trkpt lat="45.34351" lon="5.72255">
        <ele>1651</ele>
        <time>2021-12-19T12:30:19Z</time>
      </trkpt>
      <trkpt lat="45.34354" lon="5.72257">
        <ele>1650.5</ele>
        <time>2021-12-19T12:30:20Z</time>
      </trkpt>
      <trkpt lat="45.34356" lon="5.72258">
        <ele>1649.9</ele>
        <time>2021-12-19T12:30:21Z</time>
      </trkpt>
      <trkpt lat="45.34358" lon="5.72259">
        <ele>1649.1</ele>
        <time>2021-12-19T12:30:22Z</time>
      </trkpt>
      <trkpt lat="45.3436" lon="5.72261">
        <ele>1649.1</ele>
        <time>2021-12-19T12:30:23Z</time>
      </trkpt>
      <trkpt lat="45.34362" lon="5.72263">
        <ele>1648.4</ele>
        <time>2021-12-19T12:30:24Z</time>
      </trkpt>
      <trkpt lat="45.34364" lon="5.72264">
        <ele>1648.3</ele>
        <time>2021-12-19T12:30:25Z</time>
      </trkpt>
      <trkpt lat="45.34365" lon="5.72265">
        <ele>1647.8</ele>
        <time>2021-12-19T12:30:26Z</time>
      </trkpt>
      <trkpt lat="45.34367" lon="5.72267">
        <ele>1647.8</ele>
        <time>2021-12-19T12:30:27Z</time>
      </trkpt>
      <trkpt lat="45.34369" lon="5.72268">
        <ele>1647.1</ele>
        <time>2021-12-19T12:30:28Z</time>
      </trkpt>
      <trkpt lat="45.34372" lon="5.7227">
        <ele>1646.6</ele>
        <time>2021-12-19T12:30:29Z</time>
      </trkpt>
      <trkpt lat="45.34374" lon="5.72272">
        <ele>1646</ele>
        <time>2021-12-19T12:30:30Z</time>
      </trkpt>
      <trkpt lat="45.34376" lon="5.72273">
        <ele>1646.1</ele>
        <time>2021-12-19T12:30:31Z</time>
      </trkpt>
      <trkpt lat="45.34377" lon="5.72275">
        <ele>1645.5</ele>
        <time>2021-12-19T12:30:32Z</time>
      </trkpt>
      <trkpt lat="45.34379" lon="5.72276">
        <ele>1645.5</ele>
        <time>2021-12-19T12:30:33Z</time>
      </trkpt>
      <trkpt lat="45.3438" lon="5.72277">
        <ele>1645</ele>
        <time>2021-12-19T12:30:34Z</time>
      </trkpt>
      <trkpt lat="45.3438" lon="5.72277">
        <ele>1645</ele>
        <time>2021-12-19T12:30:35Z</time>
      </trkpt>
      <trkpt lat="45.3438" lon="5.72277">
        <ele>1645</ele>
        <time>2021-12-19T12:30:36Z</time>
      </trkpt>
      <trkpt lat="45.3438" lon="5.72277">
        <ele>1645</ele>
        <time>2021-12-19T12:30:37Z</time>
      </trkpt>
      <trkpt lat="45.3438" lon="5.72277">
        <ele>1645</ele>
        <time>2021-12-19T12:30:38Z</time>
      </trkpt>
      <trkpt lat="45.3438" lon="5.72278">
        <ele>1645</ele>
        <time>2021-12-19T12:30:39Z</time>
      </trkpt>
      <trkpt lat="45.3438" lon="5.72278">
        <ele>1645</ele>
        <time>2021-12-19T12:30:40Z</time>
      </trkpt>
      <trkpt lat="45.3438" lon="5.72278">
        <ele>1645</ele>
        <time>2021-12-19T12:30:41Z</time>
      </trkpt>
      <trkpt lat="45.3438" lon="5.72278">
        <ele>1645</ele>
        <time>2021-12-19T12:30:42Z</time>
      </trkpt>
      <trkpt lat="45.3438" lon="5.72278">
        <ele>1645</ele>
        <time>2021-12-19T12:30:43Z</time>
      </trkpt>
      <trkpt lat="45.3438" lon="5.72278">
        <ele>1645</ele>
        <time>2021-12-19T12:30:44Z</time>
      </trkpt>
      <trkpt lat="45.3438" lon="5.72278">
        <ele>1645</ele>
        <time>2021-12-19T12:30:45Z</time>
      </trkpt>
      <trkpt lat="45.3438" lon="5.72278">
        <ele>1645</ele>
        <time>2021-12-19T12:30:46Z</time>
      </trkpt>
      <trkpt lat="45.3438" lon="5.72279">
        <ele>1645</ele>
        <time>2021-12-19T12:30:47Z</time>
      </trkpt>
      <trkpt lat="45.34379" lon="5.72279">
        <ele>1645</ele>
        <time>2021-12-19T12:30:48Z</time>
      </trkpt>
      <trkpt lat="45.34379" lon="5.72279">
        <ele>1645</ele>
        <time>2021-12-19T12:30:49Z</time>
      </trkpt>
      <trkpt lat="45.34379" lon="5.72279">
        <ele>1645</ele>
        <time>2021-12-19T12:30:50Z</time>
      </trkpt>
      <trkpt lat="45.34379" lon="5.72279">
        <ele>1645</ele>
        <time>2021-12-19T12:30:51Z</time>
      </trkpt>
      <trkpt lat="45.34379" lon="5.72279">
        <ele>1645</ele>
        <time>2021-12-19T12:30:52Z</time>
      </trkpt>
      <trkpt lat="45.34379" lon="5.72279">
        <ele>1645</ele>
        <time>2021-12-19T12:30:53Z</time>
      </trkpt>
      <trkpt lat="45.34379" lon="5.72279">
        <ele>1645</ele>
        <time>2021-12-19T12:30:54Z</time>
      </trkpt>
      <trkpt lat="45.34379" lon="5.72279">
        <ele>1645</ele>
        <time>2021-12-19T12:30:55Z</time>
      </trkpt>
      <trkpt lat="45.3438" lon="5.72279">
        <ele>1645</ele>
        <time>2021-12-19T12:30:56Z</time>
      </trkpt>
      <trkpt lat="45.3438" lon="5.72279">
        <ele>1645</ele>
        <time>2021-12-19T12:30:57Z</time>
      </trkpt>
      <trkpt lat="45.3438" lon="5.72279">
        <ele>1645</ele>
        <time>2021-12-19T12:30:58Z</time>
      </trkpt>
      <trkpt lat="45.34381" lon="5.72279">
        <ele>1645</ele>
        <time>2021-12-19T12:30:59Z</time>
      </trkpt>
      <trkpt lat="45.34382" lon="5.7228">
        <ele>1645</ele>
        <time>2021-12-19T12:31:00Z</time>
      </trkpt>
      <trkpt lat="45.34384" lon="5.72282">
        <ele>1644.6</ele>
        <time>2021-12-19T12:31:01Z</time>
      </trkpt>
      <trkpt lat="45.34385" lon="5.72284">
        <ele>1643.9</ele>
        <time>2021-12-19T12:31:02Z</time>
      </trkpt>
      <trkpt lat="45.34388" lon="5.72287">
        <ele>1644.1</ele>
        <time>2021-12-19T12:31:03Z</time>
      </trkpt>
      <trkpt lat="45.3439" lon="5.7229">
        <ele>1643.5</ele>
        <time>2021-12-19T12:31:04Z</time>
      </trkpt>
      <trkpt lat="45.34393" lon="5.72292">
        <ele>1643</ele>
        <time>2021-12-19T12:31:05Z</time>
      </trkpt>
      <trkpt lat="45.34395" lon="5.72294">
        <ele>1642.5</ele>
        <time>2021-12-19T12:31:06Z</time>
      </trkpt>
      <trkpt lat="45.34397" lon="5.72295">
        <ele>1642.5</ele>
        <time>2021-12-19T12:31:07Z</time>
      </trkpt>
      <trkpt lat="45.34398" lon="5.72295">
        <ele>1641.9</ele>
        <time>2021-12-19T12:31:08Z</time>
      </trkpt>
      <trkpt lat="45.34399" lon="5.72296">
        <ele>1641.9</ele>
        <time>2021-12-19T12:31:09Z</time>
      </trkpt>
      <trkpt lat="45.344" lon="5.72297">
        <ele>1641.3</ele>
        <time>2021-12-19T12:31:10Z</time>
      </trkpt>
      <trkpt lat="45.34402" lon="5.72298">
        <ele>1641.5</ele>
        <time>2021-12-19T12:31:11Z</time>
      </trkpt>
      <trkpt lat="45.34404" lon="5.72301">
        <ele>1640.9</ele>
        <time>2021-12-19T12:31:12Z</time>
      </trkpt>
      <trkpt lat="45.34406" lon="5.72302">
        <ele>1641.1</ele>
        <time>2021-12-19T12:31:13Z</time>
      </trkpt>
      <trkpt lat="45.34407" lon="5.72303">
        <ele>1640.6</ele>
        <time>2021-12-19T12:31:14Z</time>
      </trkpt>
      <trkpt lat="45.34409" lon="5.72305">
        <ele>1640.6</ele>
        <time>2021-12-19T12:31:15Z</time>
      </trkpt>
      <trkpt lat="45.34411" lon="5.72307">
        <ele>1640.2</ele>
        <time>2021-12-19T12:31:16Z</time>
      </trkpt>
      <trkpt lat="45.34412" lon="5.7231">
        <ele>1639.8</ele>
        <time>2021-12-19T12:31:17Z</time>
      </trkpt>
      <trkpt lat="45.34413" lon="5.72312">
        <ele>1639.8</ele>
        <time>2021-12-19T12:31:18Z</time>
      </trkpt>
      <trkpt lat="45.34414" lon="5.72313">
        <ele>1639.8</ele>
        <time>2021-12-19T12:31:19Z</time>
      </trkpt>
      <trkpt lat="45.34414" lon="5.72314">
        <ele>1639.7</ele>
        <time>2021-12-19T12:31:20Z</time>
      </trkpt>
      <trkpt lat="45.34414" lon="5.72315">
        <ele>1639.7</ele>
        <time>2021-12-19T12:31:21Z</time>
      </trkpt>
      <trkpt lat="45.34416" lon="5.72319">
        <ele>1639.3</ele>
        <time>2021-12-19T12:31:22Z</time>
      </trkpt>
      <trkpt lat="45.34417" lon="5.72322">
        <ele>1639.4</ele>
        <time>2021-12-19T12:31:23Z</time>
      </trkpt>
      <trkpt lat="45.34416" lon="5.72325">
        <ele>1639.4</ele>
        <time>2021-12-19T12:31:24Z</time>
      </trkpt>
      <trkpt lat="45.34416" lon="5.72327">
        <ele>1639.4</ele>
        <time>2021-12-19T12:31:25Z</time>
      </trkpt>
      <trkpt lat="45.34416" lon="5.72328">
        <ele>1639.4</ele>
        <time>2021-12-19T12:31:26Z</time>
      </trkpt>
      <trkpt lat="45.34415" lon="5.72328">
        <ele>1639.7</ele>
        <time>2021-12-19T12:31:27Z</time>
      </trkpt>
      <trkpt lat="45.34415" lon="5.72328">
        <ele>1639.6</ele>
        <time>2021-12-19T12:31:28Z</time>
      </trkpt>
      <trkpt lat="45.34415" lon="5.72328">
        <ele>1639.6</ele>
        <time>2021-12-19T12:31:29Z</time>
      </trkpt>
      <trkpt lat="45.34415" lon="5.72328">
        <ele>1639.5</ele>
        <time>2021-12-19T12:31:30Z</time>
      </trkpt>
      <trkpt lat="45.34415" lon="5.72328">
        <ele>1639.5</ele>
        <time>2021-12-19T12:31:31Z</time>
      </trkpt>
      <trkpt lat="45.34415" lon="5.72328">
        <ele>1639.4</ele>
        <time>2021-12-19T12:31:32Z</time>
      </trkpt>
      <trkpt lat="45.34415" lon="5.72328">
        <ele>1639.4</ele>
        <time>2021-12-19T12:31:33Z</time>
      </trkpt>
      <trkpt lat="45.34415" lon="5.72328">
        <ele>1639.3</ele>
        <time>2021-12-19T12:31:34Z</time>
      </trkpt>
      <trkpt lat="45.34415" lon="5.72328">
        <ele>1639.3</ele>
        <time>2021-12-19T12:31:35Z</time>
      </trkpt>
      <trkpt lat="45.34415" lon="5.72329">
        <ele>1639.2</ele>
        <time>2021-12-19T12:31:36Z</time>
      </trkpt>
      <trkpt lat="45.34415" lon="5.72332">
        <ele>1638.9</ele>
        <time>2021-12-19T12:31:37Z</time>
      </trkpt>
      <trkpt lat="45.34416" lon="5.72333">
        <ele>1638.9</ele>
        <time>2021-12-19T12:31:38Z</time>
      </trkpt>
      <trkpt lat="45.34416" lon="5.72335">
        <ele>1638.9</ele>
        <time>2021-12-19T12:31:39Z</time>
      </trkpt>
      <trkpt lat="45.34417" lon="5.72337">
        <ele>1638.8</ele>
        <time>2021-12-19T12:31:40Z</time>
      </trkpt>
      <trkpt lat="45.34418" lon="5.72338">
        <ele>1638.8</ele>
        <time>2021-12-19T12:31:41Z</time>
      </trkpt>
      <trkpt lat="45.34418" lon="5.72338">
        <ele>1638.7</ele>
        <time>2021-12-19T12:31:42Z</time>
      </trkpt>
      <trkpt lat="45.34419" lon="5.72338">
        <ele>1638.5</ele>
        <time>2021-12-19T12:31:43Z</time>
      </trkpt>
      <trkpt lat="45.3442" lon="5.72339">
        <ele>1638.5</ele>
        <time>2021-12-19T12:31:44Z</time>
      </trkpt>
      <trkpt lat="45.34421" lon="5.72339">
        <ele>1638.4</ele>
        <time>2021-12-19T12:31:45Z</time>
      </trkpt>
      <trkpt lat="45.34422" lon="5.7234">
        <ele>1638.2</ele>
        <time>2021-12-19T12:31:46Z</time>
      </trkpt>
      <trkpt lat="45.34424" lon="5.72341">
        <ele>1638.3</ele>
        <time>2021-12-19T12:31:47Z</time>
      </trkpt>
      <trkpt lat="45.34426" lon="5.72342">
        <ele>1638</ele>
        <time>2021-12-19T12:31:48Z</time>
      </trkpt>
      <trkpt lat="45.34429" lon="5.72344">
        <ele>1637.8</ele>
        <time>2021-12-19T12:31:49Z</time>
      </trkpt>
      <trkpt lat="45.34433" lon="5.72346">
        <ele>1637.9</ele>
        <time>2021-12-19T12:31:50Z</time>
      </trkpt>
      <trkpt lat="45.34436" lon="5.72349">
        <ele>1637.6</ele>
        <time>2021-12-19T12:31:51Z</time>
      </trkpt>
      <trkpt lat="45.34438" lon="5.72351">
        <ele>1637.6</ele>
        <time>2021-12-19T12:31:52Z</time>
      </trkpt>
      <trkpt lat="45.34439" lon="5.72352">
        <ele>1637.5</ele>
        <time>2021-12-19T12:31:53Z</time>
      </trkpt>
      <trkpt lat="45.3444" lon="5.72352">
        <ele>1637.3</ele>
        <time>2021-12-19T12:31:54Z</time>
      </trkpt>
      <trkpt lat="45.3444" lon="5.72353">
        <ele>1637.3</ele>
        <time>2021-12-19T12:31:55Z</time>
      </trkpt>
      <trkpt lat="45.3444" lon="5.72352">
        <ele>1637.2</ele>
        <time>2021-12-19T12:31:56Z</time>
      </trkpt>
      <trkpt lat="45.34441" lon="5.72352">
        <ele>1637.2</ele>
        <time>2021-12-19T12:31:57Z</time>
      </trkpt>
      <trkpt lat="45.34441" lon="5.72353">
        <ele>1637.1</ele>
        <time>2021-12-19T12:31:58Z</time>
      </trkpt>
      <trkpt lat="45.34441" lon="5.72353">
        <ele>1637.1</ele>
        <time>2021-12-19T12:31:59Z</time>
      </trkpt>
      <trkpt lat="45.34442" lon="5.72353">
        <ele>1637</ele>
        <time>2021-12-19T12:32:00Z</time>
      </trkpt>
      <trkpt lat="45.34442" lon="5.72353">
        <ele>1637</ele>
        <time>2021-12-19T12:32:01Z</time>
      </trkpt>
      <trkpt lat="45.34442" lon="5.72354">
        <ele>1637.2</ele>
        <time>2021-12-19T12:32:02Z</time>
      </trkpt>
      <trkpt lat="45.34441" lon="5.72355">
        <ele>1637.1</ele>
        <time>2021-12-19T12:32:03Z</time>
      </trkpt>
      <trkpt lat="45.34441" lon="5.72357">
        <ele>1637.1</ele>
        <time>2021-12-19T12:32:04Z</time>
      </trkpt>
      <trkpt lat="45.34441" lon="5.72359">
        <ele>1637.2</ele>
        <time>2021-12-19T12:32:05Z</time>
      </trkpt>
      <trkpt lat="45.34442" lon="5.72361">
        <ele>1637.1</ele>
        <time>2021-12-19T12:32:06Z</time>
      </trkpt>
      <trkpt lat="45.34443" lon="5.72363">
        <ele>1637.1</ele>
        <time>2021-12-19T12:32:07Z</time>
      </trkpt>
      <trkpt lat="45.34444" lon="5.72364">
        <ele>1637.1</ele>
        <time>2021-12-19T12:32:08Z</time>
      </trkpt>
      <trkpt lat="45.34444" lon="5.72364">
        <ele>1637</ele>
        <time>2021-12-19T12:32:09Z</time>
      </trkpt>
      <trkpt lat="45.34445" lon="5.72364">
        <ele>1637</ele>
        <time>2021-12-19T12:32:10Z</time>
      </trkpt>
      <trkpt lat="45.34445" lon="5.72364">
        <ele>1636.9</ele>
        <time>2021-12-19T12:32:11Z</time>
      </trkpt>
      <trkpt lat="45.34445" lon="5.72365">
        <ele>1636.9</ele>
        <time>2021-12-19T12:32:12Z</time>
      </trkpt>
      <trkpt lat="45.34445" lon="5.72365">
        <ele>1636.8</ele>
        <time>2021-12-19T12:32:13Z</time>
      </trkpt>
      <trkpt lat="45.34445" lon="5.72366">
        <ele>1636.8</ele>
        <time>2021-12-19T12:32:14Z</time>
      </trkpt>
      <trkpt lat="45.34445" lon="5.72366">
        <ele>1636.7</ele>
        <time>2021-12-19T12:32:15Z</time>
      </trkpt>
      <trkpt lat="45.34445" lon="5.72366">
        <ele>1636.7</ele>
        <time>2021-12-19T12:32:16Z</time>
      </trkpt>
      <trkpt lat="45.34445" lon="5.72366">
        <ele>1636.6</ele>
        <time>2021-12-19T12:32:17Z</time>
      </trkpt>
      <trkpt lat="45.34444" lon="5.72366">
        <ele>1636.6</ele>
        <time>2021-12-19T12:32:18Z</time>
      </trkpt>
      <trkpt lat="45.34445" lon="5.72366">
        <ele>1636.5</ele>
        <time>2021-12-19T12:32:19Z</time>
      </trkpt>
      <trkpt lat="45.34445" lon="5.72366">
        <ele>1636.5</ele>
        <time>2021-12-19T12:32:20Z</time>
      </trkpt>
      <trkpt lat="45.34445" lon="5.72366">
        <ele>1636.4</ele>
        <time>2021-12-19T12:32:21Z</time>
      </trkpt>
      <trkpt lat="45.34445" lon="5.72366">
        <ele>1636.4</ele>
        <time>2021-12-19T12:32:22Z</time>
      </trkpt>
      <trkpt lat="45.34445" lon="5.72366">
        <ele>1636.3</ele>
        <time>2021-12-19T12:32:23Z</time>
      </trkpt>
      <trkpt lat="45.34445" lon="5.72366">
        <ele>1636.3</ele>
        <time>2021-12-19T12:32:24Z</time>
      </trkpt>
      <trkpt lat="45.34445" lon="5.72365">
        <ele>1636.2</ele>
        <time>2021-12-19T12:32:25Z</time>
      </trkpt>
      <trkpt lat="45.34445" lon="5.72365">
        <ele>1636.2</ele>
        <time>2021-12-19T12:32:26Z</time>
      </trkpt>
      <trkpt lat="45.34445" lon="5.72365">
        <ele>1636.1</ele>
        <time>2021-12-19T12:32:27Z</time>
      </trkpt>
      <trkpt lat="45.34445" lon="5.72365">
        <ele>1636.1</ele>
        <time>2021-12-19T12:32:28Z</time>
      </trkpt>
      <trkpt lat="45.34445" lon="5.72365">
        <ele>1636</ele>
        <time>2021-12-19T12:32:29Z</time>
      </trkpt>
      <trkpt lat="45.34445" lon="5.72365">
        <ele>1636</ele>
        <time>2021-12-19T12:32:30Z</time>
      </trkpt>
      <trkpt lat="45.34445" lon="5.72365">
        <ele>1635.9</ele>
        <time>2021-12-19T12:32:31Z</time>
      </trkpt>
      <trkpt lat="45.34445" lon="5.72365">
        <ele>1635.9</ele>
        <time>2021-12-19T12:32:32Z</time>
      </trkpt>
      <trkpt lat="45.34444" lon="5.72365">
        <ele>1635.8</ele>
        <time>2021-12-19T12:32:33Z</time>
      </trkpt>
      <trkpt lat="45.34444" lon="5.72365">
        <ele>1635.8</ele>
        <time>2021-12-19T12:32:34Z</time>
      </trkpt>
      <trkpt lat="45.34444" lon="5.72366">
        <ele>1635.7</ele>
        <time>2021-12-19T12:32:35Z</time>
      </trkpt>
      <trkpt lat="45.34444" lon="5.72366">
        <ele>1635.7</ele>
        <time>2021-12-19T12:32:36Z</time>
      </trkpt>
      <trkpt lat="45.34444" lon="5.72366">
        <ele>1635.6</ele>
        <time>2021-12-19T12:32:37Z</time>
      </trkpt>
      <trkpt lat="45.34444" lon="5.72367">
        <ele>1635.8</ele>
        <time>2021-12-19T12:32:38Z</time>
      </trkpt>
      <trkpt lat="45.34444" lon="5.72368">
        <ele>1635.7</ele>
        <time>2021-12-19T12:32:39Z</time>
      </trkpt>
      <trkpt lat="45.34444" lon="5.72368">
        <ele>1635.7</ele>
        <time>2021-12-19T12:32:40Z</time>
      </trkpt>
      <trkpt lat="45.34444" lon="5.72368">
        <ele>1635.7</ele>
        <time>2021-12-19T12:32:41Z</time>
      </trkpt>
      <trkpt lat="45.34444" lon="5.72368">
        <ele>1635.7</ele>
        <time>2021-12-19T12:32:42Z</time>
      </trkpt>
      <trkpt lat="45.34444" lon="5.72368">
        <ele>1635.7</ele>
        <time>2021-12-19T12:32:43Z</time>
      </trkpt>
      <trkpt lat="45.34444" lon="5.72368">
        <ele>1635.7</ele>
        <time>2021-12-19T12:32:44Z</time>
      </trkpt>
      <trkpt lat="45.34444" lon="5.72368">
        <ele>1635.7</ele>
        <time>2021-12-19T12:32:45Z</time>
      </trkpt>
      <trkpt lat="45.34444" lon="5.72368">
        <ele>1635.7</ele>
        <time>2021-12-19T12:32:46Z</time>
      </trkpt>
      <trkpt lat="45.34444" lon="5.72368">
        <ele>1635.7</ele>
        <time>2021-12-19T12:32:47Z</time>
      </trkpt>
      <trkpt lat="45.34444" lon="5.72368">
        <ele>1635.7</ele>
        <time>2021-12-19T12:32:48Z</time>
      </trkpt>
      <trkpt lat="45.34444" lon="5.72368">
        <ele>1635.7</ele>
        <time>2021-12-19T12:32:49Z</time>
      </trkpt>
      <trkpt lat="45.34444" lon="5.72367">
        <ele>1635.7</ele>
        <time>2021-12-19T12:32:50Z</time>
      </trkpt>
      <trkpt lat="45.34444" lon="5.72367">
        <ele>1635.7</ele>
        <time>2021-12-19T12:32:51Z</time>
      </trkpt>
      <trkpt lat="45.34444" lon="5.72367">
        <ele>1635.7</ele>
        <time>2021-12-19T12:32:52Z</time>
      </trkpt>
      <trkpt lat="45.34444" lon="5.72367">
        <ele>1635.7</ele>
        <time>2021-12-19T12:32:53Z</time>
      </trkpt>
      <trkpt lat="45.34444" lon="5.72367">
        <ele>1635.7</ele>
        <time>2021-12-19T12:32:54Z</time>
      </trkpt>
      <trkpt lat="45.34446" lon="5.72367">
        <ele>1635.8</ele>
        <time>2021-12-19T12:32:55Z</time>
      </trkpt>
      <trkpt lat="45.34447" lon="5.72367">
        <ele>1635.8</ele>
        <time>2021-12-19T12:32:56Z</time>
      </trkpt>
      <trkpt lat="45.34449" lon="5.72367">
        <ele>1635.8</ele>
        <time>2021-12-19T12:32:57Z</time>
      </trkpt>
      <trkpt lat="45.34451" lon="5.72366">
        <ele>1635.5</ele>
        <time>2021-12-19T12:32:58Z</time>
      </trkpt>
      <trkpt lat="45.34453" lon="5.72365">
        <ele>1635.5</ele>
        <time>2021-12-19T12:32:59Z</time>
      </trkpt>
      <trkpt lat="45.34455" lon="5.72365">
        <ele>1635.6</ele>
        <time>2021-12-19T12:33:00Z</time>
      </trkpt>
      <trkpt lat="45.34458" lon="5.72364">
        <ele>1635.7</ele>
        <time>2021-12-19T12:33:01Z</time>
      </trkpt>
      <trkpt lat="45.3446" lon="5.72363">
        <ele>1635.7</ele>
        <time>2021-12-19T12:33:02Z</time>
      </trkpt>
      <trkpt lat="45.34462" lon="5.72361">
        <ele>1635.3</ele>
        <time>2021-12-19T12:33:03Z</time>
      </trkpt>
      <trkpt lat="45.34464" lon="5.72359">
        <ele>1635.5</ele>
        <time>2021-12-19T12:33:04Z</time>
      </trkpt>
      <trkpt lat="45.34467" lon="5.72359">
        <ele>1635.7</ele>
        <time>2021-12-19T12:33:05Z</time>
      </trkpt>
      <trkpt lat="45.3447" lon="5.7236">
        <ele>1635.7</ele>
        <time>2021-12-19T12:33:06Z</time>
      </trkpt>
      <trkpt lat="45.34472" lon="5.72362">
        <ele>1636</ele>
        <time>2021-12-19T12:33:07Z</time>
      </trkpt>
      <trkpt lat="45.34475" lon="5.72363">
        <ele>1637</ele>
        <time>2021-12-19T12:33:08Z</time>
      </trkpt>
      <trkpt lat="45.34477" lon="5.72363">
        <ele>1637.1</ele>
        <time>2021-12-19T12:33:09Z</time>
      </trkpt>
      <trkpt lat="45.34478" lon="5.72362">
        <ele>1637.1</ele>
        <time>2021-12-19T12:33:10Z</time>
      </trkpt>
      <trkpt lat="45.34479" lon="5.72361">
        <ele>1637.2</ele>
        <time>2021-12-19T12:33:11Z</time>
      </trkpt>
      <trkpt lat="45.3448" lon="5.72359">
        <ele>1637.2</ele>
        <time>2021-12-19T12:33:12Z</time>
      </trkpt>
      <trkpt lat="45.3448" lon="5.72359">
        <ele>1637.2</ele>
        <time>2021-12-19T12:33:13Z</time>
      </trkpt>
      <trkpt lat="45.3448" lon="5.72359">
        <ele>1637.2</ele>
        <time>2021-12-19T12:33:14Z</time>
      </trkpt>
      <trkpt lat="45.3448" lon="5.72359">
        <ele>1637.2</ele>
        <time>2021-12-19T12:33:15Z</time>
      </trkpt>
      <trkpt lat="45.3448" lon="5.72359">
        <ele>1637.2</ele>
        <time>2021-12-19T12:33:16Z</time>
      </trkpt>
      <trkpt lat="45.3448" lon="5.72359">
        <ele>1637.2</ele>
        <time>2021-12-19T12:33:17Z</time>
      </trkpt>
      <trkpt lat="45.3448" lon="5.72359">
        <ele>1637.2</ele>
        <time>2021-12-19T12:33:18Z</time>
      </trkpt>
      <trkpt lat="45.3448" lon="5.72359">
        <ele>1637.2</ele>
        <time>2021-12-19T12:33:19Z</time>
      </trkpt>
      <trkpt lat="45.34481" lon="5.72359">
        <ele>1637.3</ele>
        <time>2021-12-19T12:33:20Z</time>
      </trkpt>
      <trkpt lat="45.34482" lon="5.72358">
        <ele>1637.3</ele>
        <time>2021-12-19T12:33:21Z</time>
      </trkpt>
      <trkpt lat="45.34482" lon="5.72358">
        <ele>1637.3</ele>
        <time>2021-12-19T12:33:22Z</time>
      </trkpt>
      <trkpt lat="45.34482" lon="5.72358">
        <ele>1637.3</ele>
        <time>2021-12-19T12:33:23Z</time>
      </trkpt>
      <trkpt lat="45.34483" lon="5.72358">
        <ele>1637.3</ele>
        <time>2021-12-19T12:33:24Z</time>
      </trkpt>
      <trkpt lat="45.34483" lon="5.72358">
        <ele>1637.3</ele>
        <time>2021-12-19T12:33:25Z</time>
      </trkpt>
      <trkpt lat="45.34483" lon="5.72358">
        <ele>1637.3</ele>
        <time>2021-12-19T12:33:26Z</time>
      </trkpt>
      <trkpt lat="45.34483" lon="5.72358">
        <ele>1637.3</ele>
        <time>2021-12-19T12:33:27Z</time>
      </trkpt>
      <trkpt lat="45.34483" lon="5.72358">
        <ele>1637.3</ele>
        <time>2021-12-19T12:33:28Z</time>
      </trkpt>
      <trkpt lat="45.34483" lon="5.72358">
        <ele>1637.3</ele>
        <time>2021-12-19T12:33:29Z</time>
      </trkpt>
      <trkpt lat="45.34484" lon="5.72358">
        <ele>1637.3</ele>
        <time>2021-12-19T12:33:30Z</time>
      </trkpt>
      <trkpt lat="45.34484" lon="5.72358">
        <ele>1637.4</ele>
        <time>2021-12-19T12:33:31Z</time>
      </trkpt>
      <trkpt lat="45.34484" lon="5.72358">
        <ele>1637.4</ele>
        <time>2021-12-19T12:33:32Z</time>
      </trkpt>
      <trkpt lat="45.34484" lon="5.72358">
        <ele>1637.4</ele>
        <time>2021-12-19T12:33:33Z</time>
      </trkpt>
      <trkpt lat="45.34484" lon="5.72357">
        <ele>1637.4</ele>
        <time>2021-12-19T12:33:34Z</time>
      </trkpt>
      <trkpt lat="45.34485" lon="5.72358">
        <ele>1637.4</ele>
        <time>2021-12-19T12:33:35Z</time>
      </trkpt>
      <trkpt lat="45.34485" lon="5.72357">
        <ele>1637.4</ele>
        <time>2021-12-19T12:33:36Z</time>
      </trkpt>
      <trkpt lat="45.34484" lon="5.72357">
        <ele>1637.4</ele>
        <time>2021-12-19T12:33:37Z</time>
      </trkpt>
      <trkpt lat="45.34484" lon="5.72357">
        <ele>1637.4</ele>
        <time>2021-12-19T12:33:38Z</time>
      </trkpt>
      <trkpt lat="45.34484" lon="5.72357">
        <ele>1637.4</ele>
        <time>2021-12-19T12:33:39Z</time>
      </trkpt>
      <trkpt lat="45.34484" lon="5.72357">
        <ele>1637.4</ele>
        <time>2021-12-19T12:33:40Z</time>
      </trkpt>
      <trkpt lat="45.34483" lon="5.72358">
        <ele>1637.4</ele>
        <time>2021-12-19T12:33:41Z</time>
      </trkpt>
      <trkpt lat="45.34483" lon="5.72358">
        <ele>1637.4</ele>
        <time>2021-12-19T12:33:42Z</time>
      </trkpt>
      <trkpt lat="45.34483" lon="5.72358">
        <ele>1637.4</ele>
        <time>2021-12-19T12:33:43Z</time>
      </trkpt>
      <trkpt lat="45.34483" lon="5.72358">
        <ele>1637.4</ele>
        <time>2021-12-19T12:33:44Z</time>
      </trkpt>
      <trkpt lat="45.34483" lon="5.72358">
        <ele>1637.4</ele>
        <time>2021-12-19T12:33:45Z</time>
      </trkpt>
      <trkpt lat="45.34483" lon="5.72358">
        <ele>1637.4</ele>
        <time>2021-12-19T12:33:46Z</time>
      </trkpt>
      <trkpt lat="45.34483" lon="5.72357">
        <ele>1637.4</ele>
        <time>2021-12-19T12:33:47Z</time>
      </trkpt>
      <trkpt lat="45.34483" lon="5.72357">
        <ele>1637.4</ele>
        <time>2021-12-19T12:33:48Z</time>
      </trkpt>
      <trkpt lat="45.34483" lon="5.72357">
        <ele>1637.4</ele>
        <time>2021-12-19T12:33:49Z</time>
      </trkpt>
      <trkpt lat="45.34483" lon="5.72357">
        <ele>1637.4</ele>
        <time>2021-12-19T12:33:50Z</time>
      </trkpt>
      <trkpt lat="45.34483" lon="5.72357">
        <ele>1637.4</ele>
        <time>2021-12-19T12:33:51Z</time>
      </trkpt>
      <trkpt lat="45.34483" lon="5.72357">
        <ele>1637.4</ele>
        <time>2021-12-19T12:33:52Z</time>
      </trkpt>
      <trkpt lat="45.34483" lon="5.72357">
        <ele>1637.4</ele>
        <time>2021-12-19T12:33:53Z</time>
      </trkpt>
      <trkpt lat="45.34483" lon="5.72357">
        <ele>1637.4</ele>
        <time>2021-12-19T12:33:54Z</time>
      </trkpt>
      <trkpt lat="45.34483" lon="5.72357">
        <ele>1637.4</ele>
        <time>2021-12-19T12:33:55Z</time>
      </trkpt>
      <trkpt lat="45.34483" lon="5.72357">
        <ele>1637.4</ele>
        <time>2021-12-19T12:33:56Z</time>
      </trkpt>
      <trkpt lat="45.34483" lon="5.72357">
        <ele>1637.4</ele>
        <time>2021-12-19T12:33:57Z</time>
      </trkpt>
      <trkpt lat="45.34483" lon="5.72357">
        <ele>1637.4</ele>
        <time>2021-12-19T12:33:58Z</time>
      </trkpt>
      <trkpt lat="45.34483" lon="5.72357">
        <ele>1637.4</ele>
        <time>2021-12-19T12:33:59Z</time>
      </trkpt>
      <trkpt lat="45.34483" lon="5.72357">
        <ele>1637.4</ele>
        <time>2021-12-19T12:34:00Z</time>
      </trkpt>
      <trkpt lat="45.34483" lon="5.72357">
        <ele>1637.4</ele>
        <time>2021-12-19T12:34:01Z</time>
      </trkpt>
      <trkpt lat="45.34483" lon="5.72357">
        <ele>1637.4</ele>
        <time>2021-12-19T12:34:02Z</time>
      </trkpt>
      <trkpt lat="45.34483" lon="5.72357">
        <ele>1637.4</ele>
        <time>2021-12-19T12:34:03Z</time>
      </trkpt>
      <trkpt lat="45.34483" lon="5.72357">
        <ele>1637.4</ele>
        <time>2021-12-19T12:34:04Z</time>
      </trkpt>
      <trkpt lat="45.34483" lon="5.72357">
        <ele>1637.4</ele>
        <time>2021-12-19T12:34:05Z</time>
      </trkpt>
      <trkpt lat="45.34483" lon="5.72357">
        <ele>1637.4</ele>
        <time>2021-12-19T12:34:06Z</time>
      </trkpt>
      <trkpt lat="45.34483" lon="5.72357">
        <ele>1637.4</ele>
        <time>2021-12-19T12:34:07Z</time>
      </trkpt>
      <trkpt lat="45.34483" lon="5.72357">
        <ele>1637.4</ele>
        <time>2021-12-19T12:34:08Z</time>
      </trkpt>
      <trkpt lat="45.34483" lon="5.72357">
        <ele>1637.4</ele>
        <time>2021-12-19T12:34:09Z</time>
      </trkpt>
      <trkpt lat="45.34483" lon="5.72357">
        <ele>1637.4</ele>
        <time>2021-12-19T12:34:10Z</time>
      </trkpt>
      <trkpt lat="45.34483" lon="5.72356">
        <ele>1637.4</ele>
        <time>2021-12-19T12:34:11Z</time>
      </trkpt>
      <trkpt lat="45.34482" lon="5.72356">
        <ele>1637.4</ele>
        <time>2021-12-19T12:34:12Z</time>
      </trkpt>
      <trkpt lat="45.34482" lon="5.72355">
        <ele>1637.5</ele>
        <time>2021-12-19T12:34:13Z</time>
      </trkpt>
      <trkpt lat="45.34482" lon="5.72355">
        <ele>1637.5</ele>
        <time>2021-12-19T12:34:14Z</time>
      </trkpt>
      <trkpt lat="45.34482" lon="5.72355">
        <ele>1637.5</ele>
        <time>2021-12-19T12:34:15Z</time>
      </trkpt>
      <trkpt lat="45.34481" lon="5.72355">
        <ele>1637.5</ele>
        <time>2021-12-19T12:34:16Z</time>
      </trkpt>
      <trkpt lat="45.34481" lon="5.72355">
        <ele>1637.5</ele>
        <time>2021-12-19T12:34:17Z</time>
      </trkpt>
      <trkpt lat="45.34481" lon="5.72354">
        <ele>1637.5</ele>
        <time>2021-12-19T12:34:18Z</time>
      </trkpt>
      <trkpt lat="45.34481" lon="5.72354">
        <ele>1637.5</ele>
        <time>2021-12-19T12:34:19Z</time>
      </trkpt>
      <trkpt lat="45.34481" lon="5.72353">
        <ele>1637.5</ele>
        <time>2021-12-19T12:34:20Z</time>
      </trkpt>
      <trkpt lat="45.34481" lon="5.72353">
        <ele>1637.5</ele>
        <time>2021-12-19T12:34:21Z</time>
      </trkpt>
      <trkpt lat="45.3448" lon="5.72352">
        <ele>1637.5</ele>
        <time>2021-12-19T12:34:22Z</time>
      </trkpt>
      <trkpt lat="45.3448" lon="5.72352">
        <ele>1637.5</ele>
        <time>2021-12-19T12:34:23Z</time>
      </trkpt>
      <trkpt lat="45.3448" lon="5.72351">
        <ele>1637.5</ele>
        <time>2021-12-19T12:34:24Z</time>
      </trkpt>
      <trkpt lat="45.3448" lon="5.72351">
        <ele>1637.5</ele>
        <time>2021-12-19T12:34:25Z</time>
      </trkpt>
      <trkpt lat="45.3448" lon="5.72351">
        <ele>1637.5</ele>
        <time>2021-12-19T12:34:26Z</time>
      </trkpt>
      <trkpt lat="45.3448" lon="5.72351">
        <ele>1637.5</ele>
        <time>2021-12-19T12:34:27Z</time>
      </trkpt>
      <trkpt lat="45.3448" lon="5.72352">
        <ele>1637.5</ele>
        <time>2021-12-19T12:34:28Z</time>
      </trkpt>
      <trkpt lat="45.3448" lon="5.72351">
        <ele>1637.5</ele>
        <time>2021-12-19T12:34:29Z</time>
      </trkpt>
      <trkpt lat="45.3448" lon="5.72351">
        <ele>1637.5</ele>
        <time>2021-12-19T12:34:30Z</time>
      </trkpt>
      <trkpt lat="45.34479" lon="5.72351">
        <ele>1637.5</ele>
        <time>2021-12-19T12:34:31Z</time>
      </trkpt>
      <trkpt lat="45.34478" lon="5.7235">
        <ele>1637.5</ele>
        <time>2021-12-19T12:34:32Z</time>
      </trkpt>
      <trkpt lat="45.34477" lon="5.72349">
        <ele>1637.5</ele>
        <time>2021-12-19T12:34:33Z</time>
      </trkpt>
      <trkpt lat="45.34476" lon="5.72347">
        <ele>1637.5</ele>
        <time>2021-12-19T12:34:34Z</time>
      </trkpt>
      <trkpt lat="45.34475" lon="5.72347">
        <ele>1637.5</ele>
        <time>2021-12-19T12:34:35Z</time>
      </trkpt>
      <trkpt lat="45.34474" lon="5.72346">
        <ele>1637.5</ele>
        <time>2021-12-19T12:34:36Z</time>
      </trkpt>
      <trkpt lat="45.34474" lon="5.72345">
        <ele>1637.6</ele>
        <time>2021-12-19T12:34:37Z</time>
      </trkpt>
      <trkpt lat="45.34474" lon="5.72345">
        <ele>1637.6</ele>
        <time>2021-12-19T12:34:38Z</time>
      </trkpt>
      <trkpt lat="45.34474" lon="5.72344">
        <ele>1637.6</ele>
        <time>2021-12-19T12:34:39Z</time>
      </trkpt>
      <trkpt lat="45.34473" lon="5.72344">
        <ele>1637.6</ele>
        <time>2021-12-19T12:34:40Z</time>
      </trkpt>
      <trkpt lat="45.34473" lon="5.72344">
        <ele>1637.6</ele>
        <time>2021-12-19T12:34:41Z</time>
      </trkpt>
      <trkpt lat="45.34473" lon="5.72345">
        <ele>1637.6</ele>
        <time>2021-12-19T12:34:42Z</time>
      </trkpt>
      <trkpt lat="45.34473" lon="5.72345">
        <ele>1637.6</ele>
        <time>2021-12-19T12:34:43Z</time>
      </trkpt>
      <trkpt lat="45.34473" lon="5.72345">
        <ele>1637.6</ele>
        <time>2021-12-19T12:34:44Z</time>
      </trkpt>
      <trkpt lat="45.34473" lon="5.72345">
        <ele>1637.6</ele>
        <time>2021-12-19T12:34:45Z</time>
      </trkpt>
      <trkpt lat="45.34473" lon="5.72345">
        <ele>1637.6</ele>
        <time>2021-12-19T12:34:46Z</time>
      </trkpt>
      <trkpt lat="45.34473" lon="5.72345">
        <ele>1637.6</ele>
        <time>2021-12-19T12:34:47Z</time>
      </trkpt>
      <trkpt lat="45.34473" lon="5.72345">
        <ele>1637.6</ele>
        <time>2021-12-19T12:34:48Z</time>
      </trkpt>
      <trkpt lat="45.34473" lon="5.72344">
        <ele>1637.6</ele>
        <time>2021-12-19T12:34:49Z</time>
      </trkpt>
      <trkpt lat="45.34472" lon="5.72344">
        <ele>1637.6</ele>
        <time>2021-12-19T12:34:50Z</time>
      </trkpt>
      <trkpt lat="45.34472" lon="5.72344">
        <ele>1637.6</ele>
        <time>2021-12-19T12:34:51Z</time>
      </trkpt>
      <trkpt lat="45.34472" lon="5.72344">
        <ele>1637.6</ele>
        <time>2021-12-19T12:34:52Z</time>
      </trkpt>
      <trkpt lat="45.34472" lon="5.72344">
        <ele>1637.6</ele>
        <time>2021-12-19T12:34:53Z</time>
      </trkpt>
      <trkpt lat="45.34472" lon="5.72344">
        <ele>1637.6</ele>
        <time>2021-12-19T12:34:54Z</time>
      </trkpt>
      <trkpt lat="45.34472" lon="5.72343">
        <ele>1637.6</ele>
        <time>2021-12-19T12:34:55Z</time>
      </trkpt>
      <trkpt lat="45.34472" lon="5.72343">
        <ele>1637.6</ele>
        <time>2021-12-19T12:34:56Z</time>
      </trkpt>
      <trkpt lat="45.34472" lon="5.72343">
        <ele>1637.6</ele>
        <time>2021-12-19T12:34:57Z</time>
      </trkpt>
      <trkpt lat="45.34472" lon="5.72342">
        <ele>1637.6</ele>
        <time>2021-12-19T12:34:58Z</time>
      </trkpt>
      <trkpt lat="45.34472" lon="5.72342">
        <ele>1637.6</ele>
        <time>2021-12-19T12:34:59Z</time>
      </trkpt>
      <trkpt lat="45.34472" lon="5.72343">
        <ele>1637.6</ele>
        <time>2021-12-19T12:35:00Z</time>
      </trkpt>
      <trkpt lat="45.34471" lon="5.72343">
        <ele>1637.6</ele>
        <time>2021-12-19T12:35:01Z</time>
      </trkpt>
      <trkpt lat="45.34472" lon="5.72343">
        <ele>1637.6</ele>
        <time>2021-12-19T12:35:02Z</time>
      </trkpt>
      <trkpt lat="45.34472" lon="5.72343">
        <ele>1637.6</ele>
        <time>2021-12-19T12:35:03Z</time>
      </trkpt>
      <trkpt lat="45.34472" lon="5.72343">
        <ele>1637.6</ele>
        <time>2021-12-19T12:35:04Z</time>
      </trkpt>
      <trkpt lat="45.34472" lon="5.72343">
        <ele>1637.6</ele>
        <time>2021-12-19T12:35:05Z</time>
      </trkpt>
      <trkpt lat="45.34472" lon="5.72344">
        <ele>1637.6</ele>
        <time>2021-12-19T12:35:06Z</time>
      </trkpt>
      <trkpt lat="45.34472" lon="5.72344">
        <ele>1637.7</ele>
        <time>2021-12-19T12:35:07Z</time>
      </trkpt>
      <trkpt lat="45.34472" lon="5.72344">
        <ele>1637.7</ele>
        <time>2021-12-19T12:35:08Z</time>
      </trkpt>
      <trkpt lat="45.34472" lon="5.72344">
        <ele>1637.7</ele>
        <time>2021-12-19T12:35:09Z</time>
      </trkpt>
      <trkpt lat="45.34472" lon="5.72344">
        <ele>1637.7</ele>
        <time>2021-12-19T12:35:10Z</time>
      </trkpt>
      <trkpt lat="45.34472" lon="5.72344">
        <ele>1637.7</ele>
        <time>2021-12-19T12:35:11Z</time>
      </trkpt>
      <trkpt lat="45.34472" lon="5.72344">
        <ele>1637.7</ele>
        <time>2021-12-19T12:35:12Z</time>
      </trkpt>
      <trkpt lat="45.34472" lon="5.72344">
        <ele>1637.7</ele>
        <time>2021-12-19T12:35:13Z</time>
      </trkpt>
      <trkpt lat="45.34472" lon="5.72344">
        <ele>1637.7</ele>
        <time>2021-12-19T12:35:14Z</time>
      </trkpt>
      <trkpt lat="45.34472" lon="5.72344">
        <ele>1637.7</ele>
        <time>2021-12-19T12:35:15Z</time>
      </trkpt>
      <trkpt lat="45.34472" lon="5.72344">
        <ele>1637.7</ele>
        <time>2021-12-19T12:35:16Z</time>
      </trkpt>
      <trkpt lat="45.34472" lon="5.72344">
        <ele>1637.7</ele>
        <time>2021-12-19T12:35:17Z</time>
      </trkpt>
      <trkpt lat="45.34472" lon="5.72344">
        <ele>1637.7</ele>
        <time>2021-12-19T12:35:18Z</time>
      </trkpt>
      <trkpt lat="45.34471" lon="5.72343">
        <ele>1637.7</ele>
        <time>2021-12-19T12:35:19Z</time>
      </trkpt>
      <trkpt lat="45.34471" lon="5.72343">
        <ele>1637.7</ele>
        <time>2021-12-19T12:35:20Z</time>
      </trkpt>
      <trkpt lat="45.34471" lon="5.72341">
        <ele>1637.7</ele>
        <time>2021-12-19T12:35:21Z</time>
      </trkpt>
      <trkpt lat="45.34473" lon="5.72339">
        <ele>1637.8</ele>
        <time>2021-12-19T12:35:22Z</time>
      </trkpt>
      <trkpt lat="45.34475" lon="5.72338">
        <ele>1637.9</ele>
        <time>2021-12-19T12:35:23Z</time>
      </trkpt>
      <trkpt lat="45.34477" lon="5.72338">
        <ele>1638</ele>
        <time>2021-12-19T12:35:24Z</time>
      </trkpt>
      <trkpt lat="45.34479" lon="5.72337">
        <ele>1638.1</ele>
        <time>2021-12-19T12:35:25Z</time>
      </trkpt>
      <trkpt lat="45.34483" lon="5.72337">
        <ele>1638.2</ele>
        <time>2021-12-19T12:35:26Z</time>
      </trkpt>
      <trkpt lat="45.34487" lon="5.72336">
        <ele>1638.4</ele>
        <time>2021-12-19T12:35:27Z</time>
      </trkpt>
      <trkpt lat="45.34491" lon="5.72334">
        <ele>1638.7</ele>
        <time>2021-12-19T12:35:28Z</time>
      </trkpt>
      <trkpt lat="45.34495" lon="5.72332">
        <ele>1638.9</ele>
        <time>2021-12-19T12:35:29Z</time>
      </trkpt>
      <trkpt lat="45.345" lon="5.7233">
        <ele>1639.1</ele>
        <time>2021-12-19T12:35:30Z</time>
      </trkpt>
      <trkpt lat="45.34505" lon="5.72328">
        <ele>1639.3</ele>
        <time>2021-12-19T12:35:31Z</time>
      </trkpt>
      <trkpt lat="45.3451" lon="5.72325">
        <ele>1639.4</ele>
        <time>2021-12-19T12:35:32Z</time>
      </trkpt>
      <trkpt lat="45.34514" lon="5.72322">
        <ele>1639.6</ele>
        <time>2021-12-19T12:35:33Z</time>
      </trkpt>
      <trkpt lat="45.34518" lon="5.7232">
        <ele>1639.7</ele>
        <time>2021-12-19T12:35:34Z</time>
      </trkpt>
      <trkpt lat="45.34521" lon="5.72318">
        <ele>1639.7</ele>
        <time>2021-12-19T12:35:35Z</time>
      </trkpt>
      <trkpt lat="45.34524" lon="5.72316">
        <ele>1639.8</ele>
        <time>2021-12-19T12:35:36Z</time>
      </trkpt>
      <trkpt lat="45.34527" lon="5.72314">
        <ele>1639.8</ele>
        <time>2021-12-19T12:35:37Z</time>
      </trkpt>
      <trkpt lat="45.3453" lon="5.72312">
        <ele>1639.8</ele>
        <time>2021-12-19T12:35:38Z</time>
      </trkpt>
      <trkpt lat="45.34533" lon="5.72309">
        <ele>1639.8</ele>
        <time>2021-12-19T12:35:39Z</time>
      </trkpt>
      <trkpt lat="45.34537" lon="5.72306">
        <ele>1639.8</ele>
        <time>2021-12-19T12:35:40Z</time>
      </trkpt>
      <trkpt lat="45.3454" lon="5.72303">
        <ele>1639.8</ele>
        <time>2021-12-19T12:35:41Z</time>
      </trkpt>
      <trkpt lat="45.34544" lon="5.723">
        <ele>1639.8</ele>
        <time>2021-12-19T12:35:42Z</time>
      </trkpt>
      <trkpt lat="45.34548" lon="5.72297">
        <ele>1639.8</ele>
        <time>2021-12-19T12:35:43Z</time>
      </trkpt>
      <trkpt lat="45.34552" lon="5.72293">
        <ele>1639.8</ele>
        <time>2021-12-19T12:35:44Z</time>
      </trkpt>
      <trkpt lat="45.34555" lon="5.7229">
        <ele>1639.8</ele>
        <time>2021-12-19T12:35:45Z</time>
      </trkpt>
      <trkpt lat="45.34559" lon="5.72287">
        <ele>1639.7</ele>
        <time>2021-12-19T12:35:46Z</time>
      </trkpt>
      <trkpt lat="45.34562" lon="5.72285">
        <ele>1639.6</ele>
        <time>2021-12-19T12:35:47Z</time>
      </trkpt>
      <trkpt lat="45.34565" lon="5.72282">
        <ele>1639.5</ele>
        <time>2021-12-19T12:35:48Z</time>
      </trkpt>
      <trkpt lat="45.34568" lon="5.7228">
        <ele>1639.3</ele>
        <time>2021-12-19T12:35:49Z</time>
      </trkpt>
      <trkpt lat="45.34571" lon="5.72278">
        <ele>1639.2</ele>
        <time>2021-12-19T12:35:50Z</time>
      </trkpt>
      <trkpt lat="45.34574" lon="5.72276">
        <ele>1639</ele>
        <time>2021-12-19T12:35:51Z</time>
      </trkpt>
      <trkpt lat="45.34578" lon="5.72275">
        <ele>1638.8</ele>
        <time>2021-12-19T12:35:52Z</time>
      </trkpt>
      <trkpt lat="45.34581" lon="5.72273">
        <ele>1638.7</ele>
        <time>2021-12-19T12:35:53Z</time>
      </trkpt>
      <trkpt lat="45.34584" lon="5.72272">
        <ele>1638.6</ele>
        <time>2021-12-19T12:35:54Z</time>
      </trkpt>
      <trkpt lat="45.34587" lon="5.72271">
        <ele>1638.5</ele>
        <time>2021-12-19T12:35:55Z</time>
      </trkpt>
      <trkpt lat="45.3459" lon="5.7227">
        <ele>1638.4</ele>
        <time>2021-12-19T12:35:56Z</time>
      </trkpt>
      <trkpt lat="45.34593" lon="5.72268">
        <ele>1638.3</ele>
        <time>2021-12-19T12:35:57Z</time>
      </trkpt>
      <trkpt lat="45.34597" lon="5.72267">
        <ele>1638.2</ele>
        <time>2021-12-19T12:35:58Z</time>
      </trkpt>
      <trkpt lat="45.346" lon="5.72267">
        <ele>1638.1</ele>
        <time>2021-12-19T12:35:59Z</time>
      </trkpt>
      <trkpt lat="45.34603" lon="5.72266">
        <ele>1638</ele>
        <time>2021-12-19T12:36:00Z</time>
      </trkpt>
      <trkpt lat="45.34605" lon="5.72266">
        <ele>1638</ele>
        <time>2021-12-19T12:36:01Z</time>
      </trkpt>
      <trkpt lat="45.34607" lon="5.72265">
        <ele>1637.9</ele>
        <time>2021-12-19T12:36:02Z</time>
      </trkpt>
      <trkpt lat="45.3461" lon="5.72264">
        <ele>1637.9</ele>
        <time>2021-12-19T12:36:03Z</time>
      </trkpt>
      <trkpt lat="45.34614" lon="5.72263">
        <ele>1637.8</ele>
        <time>2021-12-19T12:36:04Z</time>
      </trkpt>
      <trkpt lat="45.34618" lon="5.72261">
        <ele>1637.7</ele>
        <time>2021-12-19T12:36:05Z</time>
      </trkpt>
      <trkpt lat="45.34623" lon="5.72258">
        <ele>1637.6</ele>
        <time>2021-12-19T12:36:06Z</time>
      </trkpt>
      <trkpt lat="45.34628" lon="5.72256">
        <ele>1637.5</ele>
        <time>2021-12-19T12:36:07Z</time>
      </trkpt>
      <trkpt lat="45.34633" lon="5.72254">
        <ele>1637.3</ele>
        <time>2021-12-19T12:36:08Z</time>
      </trkpt>
      <trkpt lat="45.34638" lon="5.72252">
        <ele>1637.2</ele>
        <time>2021-12-19T12:36:09Z</time>
      </trkpt>
      <trkpt lat="45.34643" lon="5.7225">
        <ele>1637</ele>
        <time>2021-12-19T12:36:10Z</time>
      </trkpt>
      <trkpt lat="45.34648" lon="5.72249">
        <ele>1636.8</ele>
        <time>2021-12-19T12:36:11Z</time>
      </trkpt>
      <trkpt lat="45.34653" lon="5.72248">
        <ele>1636.6</ele>
        <time>2021-12-19T12:36:12Z</time>
      </trkpt>
      <trkpt lat="45.34657" lon="5.72247">
        <ele>1636.4</ele>
        <time>2021-12-19T12:36:13Z</time>
      </trkpt>
      <trkpt lat="45.3466" lon="5.72247">
        <ele>1636.3</ele>
        <time>2021-12-19T12:36:14Z</time>
      </trkpt>
      <trkpt lat="45.34663" lon="5.72246">
        <ele>1636.2</ele>
        <time>2021-12-19T12:36:15Z</time>
      </trkpt>
      <trkpt lat="45.34666" lon="5.72245">
        <ele>1636.1</ele>
        <time>2021-12-19T12:36:16Z</time>
      </trkpt>
      <trkpt lat="45.34668" lon="5.72245">
        <ele>1636</ele>
        <time>2021-12-19T12:36:17Z</time>
      </trkpt>
      <trkpt lat="45.3467" lon="5.72244">
        <ele>1636</ele>
        <time>2021-12-19T12:36:18Z</time>
      </trkpt>
      <trkpt lat="45.34673" lon="5.72244">
        <ele>1635.9</ele>
        <time>2021-12-19T12:36:19Z</time>
      </trkpt>
      <trkpt lat="45.34676" lon="5.72243">
        <ele>1635.8</ele>
        <time>2021-12-19T12:36:20Z</time>
      </trkpt>
      <trkpt lat="45.34678" lon="5.72243">
        <ele>1635.7</ele>
        <time>2021-12-19T12:36:21Z</time>
      </trkpt>
      <trkpt lat="45.3468" lon="5.72242">
        <ele>1635.6</ele>
        <time>2021-12-19T12:36:22Z</time>
      </trkpt>
      <trkpt lat="45.34682" lon="5.72242">
        <ele>1635.5</ele>
        <time>2021-12-19T12:36:23Z</time>
      </trkpt>
      <trkpt lat="45.34682" lon="5.72241">
        <ele>1635.5</ele>
        <time>2021-12-19T12:36:24Z</time>
      </trkpt>
      <trkpt lat="45.34682" lon="5.72242">
        <ele>1635.5</ele>
        <time>2021-12-19T12:36:25Z</time>
      </trkpt>
      <trkpt lat="45.34682" lon="5.72242">
        <ele>1635.5</ele>
        <time>2021-12-19T12:36:26Z</time>
      </trkpt>
      <trkpt lat="45.34682" lon="5.72242">
        <ele>1635.5</ele>
        <time>2021-12-19T12:36:27Z</time>
      </trkpt>
      <trkpt lat="45.34682" lon="5.72242">
        <ele>1635.5</ele>
        <time>2021-12-19T12:36:28Z</time>
      </trkpt>
      <trkpt lat="45.34682" lon="5.72242">
        <ele>1635.5</ele>
        <time>2021-12-19T12:36:29Z</time>
      </trkpt>
      <trkpt lat="45.34683" lon="5.72242">
        <ele>1635.5</ele>
        <time>2021-12-19T12:36:30Z</time>
      </trkpt>
      <trkpt lat="45.34684" lon="5.72242">
        <ele>1635.4</ele>
        <time>2021-12-19T12:36:31Z</time>
      </trkpt>
      <trkpt lat="45.34685" lon="5.72242">
        <ele>1635.4</ele>
        <time>2021-12-19T12:36:32Z</time>
      </trkpt>
      <trkpt lat="45.34685" lon="5.72241">
        <ele>1635.4</ele>
        <time>2021-12-19T12:36:33Z</time>
      </trkpt>
      <trkpt lat="45.34686" lon="5.72241">
        <ele>1635.3</ele>
        <time>2021-12-19T12:36:34Z</time>
      </trkpt>
      <trkpt lat="45.34686" lon="5.72241">
        <ele>1635.3</ele>
        <time>2021-12-19T12:36:35Z</time>
      </trkpt>
      <trkpt lat="45.34687" lon="5.72241">
        <ele>1635.3</ele>
        <time>2021-12-19T12:36:36Z</time>
      </trkpt>
      <trkpt lat="45.34687" lon="5.72241">
        <ele>1635.3</ele>
        <time>2021-12-19T12:36:37Z</time>
      </trkpt>
      <trkpt lat="45.34687" lon="5.72241">
        <ele>1635.3</ele>
        <time>2021-12-19T12:36:38Z</time>
      </trkpt>
      <trkpt lat="45.34687" lon="5.72241">
        <ele>1635.3</ele>
        <time>2021-12-19T12:36:39Z</time>
      </trkpt>
      <trkpt lat="45.34687" lon="5.72241">
        <ele>1635.3</ele>
        <time>2021-12-19T12:36:40Z</time>
      </trkpt>
      <trkpt lat="45.34687" lon="5.72241">
        <ele>1635.3</ele>
        <time>2021-12-19T12:36:41Z</time>
      </trkpt>
      <trkpt lat="45.34687" lon="5.72241">
        <ele>1635.2</ele>
        <time>2021-12-19T12:36:42Z</time>
      </trkpt>
      <trkpt lat="45.34686" lon="5.72241">
        <ele>1635.2</ele>
        <time>2021-12-19T12:36:43Z</time>
      </trkpt>
      <trkpt lat="45.34687" lon="5.72241">
        <ele>1635.2</ele>
        <time>2021-12-19T12:36:44Z</time>
      </trkpt>
      <trkpt lat="45.34687" lon="5.72241">
        <ele>1635.2</ele>
        <time>2021-12-19T12:36:45Z</time>
      </trkpt>
      <trkpt lat="45.34687" lon="5.72241">
        <ele>1635.2</ele>
        <time>2021-12-19T12:36:46Z</time>
      </trkpt>
      <trkpt lat="45.34687" lon="5.72241">
        <ele>1635.2</ele>
        <time>2021-12-19T12:36:47Z</time>
      </trkpt>
      <trkpt lat="45.34687" lon="5.72241">
        <ele>1635.2</ele>
        <time>2021-12-19T12:36:48Z</time>
      </trkpt>
      <trkpt lat="45.34687" lon="5.72241">
        <ele>1635.2</ele>
        <time>2021-12-19T12:36:49Z</time>
      </trkpt>
      <trkpt lat="45.34687" lon="5.72241">
        <ele>1635.2</ele>
        <time>2021-12-19T12:36:50Z</time>
      </trkpt>
      <trkpt lat="45.34687" lon="5.72241">
        <ele>1635.2</ele>
        <time>2021-12-19T12:36:51Z</time>
      </trkpt>
      <trkpt lat="45.34687" lon="5.72241">
        <ele>1635.2</ele>
        <time>2021-12-19T12:36:52Z</time>
      </trkpt>
      <trkpt lat="45.34687" lon="5.72241">
        <ele>1635.2</ele>
        <time>2021-12-19T12:36:53Z</time>
      </trkpt>
      <trkpt lat="45.34687" lon="5.72241">
        <ele>1635.2</ele>
        <time>2021-12-19T12:36:54Z</time>
      </trkpt>
      <trkpt lat="45.34687" lon="5.72241">
        <ele>1635.2</ele>
        <time>2021-12-19T12:36:55Z</time>
      </trkpt>
      <trkpt lat="45.34687" lon="5.72241">
        <ele>1635.2</ele>
        <time>2021-12-19T12:36:56Z</time>
      </trkpt>
      <trkpt lat="45.34687" lon="5.72241">
        <ele>1635.2</ele>
        <time>2021-12-19T12:36:57Z</time>
      </trkpt>
      <trkpt lat="45.34687" lon="5.72241">
        <ele>1635.2</ele>
        <time>2021-12-19T12:36:58Z</time>
      </trkpt>
      <trkpt lat="45.34687" lon="5.72241">
        <ele>1635.2</ele>
        <time>2021-12-19T12:36:59Z</time>
      </trkpt>
      <trkpt lat="45.34687" lon="5.7224">
        <ele>1635.2</ele>
        <time>2021-12-19T12:37:00Z</time>
      </trkpt>
      <trkpt lat="45.34687" lon="5.7224">
        <ele>1635.1</ele>
        <time>2021-12-19T12:37:01Z</time>
      </trkpt>
      <trkpt lat="45.34687" lon="5.7224">
        <ele>1635.1</ele>
        <time>2021-12-19T12:37:02Z</time>
      </trkpt>
      <trkpt lat="45.34687" lon="5.7224">
        <ele>1635.1</ele>
        <time>2021-12-19T12:37:03Z</time>
      </trkpt>
      <trkpt lat="45.34687" lon="5.7224">
        <ele>1635.1</ele>
        <time>2021-12-19T12:37:04Z</time>
      </trkpt>
      <trkpt lat="45.34687" lon="5.7224">
        <ele>1635.1</ele>
        <time>2021-12-19T12:37:05Z</time>
      </trkpt>
      <trkpt lat="45.34687" lon="5.7224">
        <ele>1635.1</ele>
        <time>2021-12-19T12:37:06Z</time>
      </trkpt>
      <trkpt lat="45.34687" lon="5.7224">
        <ele>1635.1</ele>
        <time>2021-12-19T12:37:07Z</time>
      </trkpt>
      <trkpt lat="45.34687" lon="5.7224">
        <ele>1635.1</ele>
        <time>2021-12-19T12:37:08Z</time>
      </trkpt>
      <trkpt lat="45.34687" lon="5.7224">
        <ele>1635.1</ele>
        <time>2021-12-19T12:37:09Z</time>
      </trkpt>
      <trkpt lat="45.34687" lon="5.7224">
        <ele>1635.1</ele>
        <time>2021-12-19T12:37:10Z</time>
      </trkpt>
      <trkpt lat="45.34687" lon="5.7224">
        <ele>1635.1</ele>
        <time>2021-12-19T12:37:11Z</time>
      </trkpt>
      <trkpt lat="45.34687" lon="5.7224">
        <ele>1635.1</ele>
        <time>2021-12-19T12:37:12Z</time>
      </trkpt>
      <trkpt lat="45.34687" lon="5.7224">
        <ele>1635.1</ele>
        <time>2021-12-19T12:37:13Z</time>
      </trkpt>
      <trkpt lat="45.34687" lon="5.7224">
        <ele>1635.1</ele>
        <time>2021-12-19T12:37:14Z</time>
      </trkpt>
      <trkpt lat="45.34688" lon="5.7224">
        <ele>1635.1</ele>
        <time>2021-12-19T12:37:15Z</time>
      </trkpt>
      <trkpt lat="45.34689" lon="5.72239">
        <ele>1635</ele>
        <time>2021-12-19T12:37:16Z</time>
      </trkpt>
      <trkpt lat="45.34691" lon="5.72239">
        <ele>1634.9</ele>
        <time>2021-12-19T12:37:17Z</time>
      </trkpt>
      <trkpt lat="45.34693" lon="5.72239">
        <ele>1634.8</ele>
        <time>2021-12-19T12:37:18Z</time>
      </trkpt>
      <trkpt lat="45.34695" lon="5.72239">
        <ele>1634.7</ele>
        <time>2021-12-19T12:37:19Z</time>
      </trkpt>
      <trkpt lat="45.34696" lon="5.72239">
        <ele>1634.6</ele>
        <time>2021-12-19T12:37:20Z</time>
      </trkpt>
      <trkpt lat="45.34698" lon="5.72239">
        <ele>1634.5</ele>
        <time>2021-12-19T12:37:21Z</time>
      </trkpt>
      <trkpt lat="45.347" lon="5.72238">
        <ele>1634.4</ele>
        <time>2021-12-19T12:37:22Z</time>
      </trkpt>
      <trkpt lat="45.34701" lon="5.72238">
        <ele>1634.3</ele>
        <time>2021-12-19T12:37:23Z</time>
      </trkpt>
      <trkpt lat="45.34703" lon="5.72238">
        <ele>1634.2</ele>
        <time>2021-12-19T12:37:24Z</time>
      </trkpt>
      <trkpt lat="45.34705" lon="5.72238">
        <ele>1632</ele>
        <time>2021-12-19T12:37:25Z</time>
      </trkpt>
      <trkpt lat="45.34707" lon="5.72237">
        <ele>1627.8</ele>
        <time>2021-12-19T12:37:26Z</time>
      </trkpt>
      <trkpt lat="45.34708" lon="5.72237">
        <ele>1625.3</ele>
        <time>2021-12-19T12:37:27Z</time>
      </trkpt>
      <trkpt lat="45.3471" lon="5.72236">
        <ele>1623.1</ele>
        <time>2021-12-19T12:37:28Z</time>
      </trkpt>
      <trkpt lat="45.34711" lon="5.72234">
        <ele>1620.7</ele>
        <time>2021-12-19T12:37:29Z</time>
      </trkpt>
      <trkpt lat="45.34712" lon="5.7223">
        <ele>1616.8</ele>
        <time>2021-12-19T12:37:30Z</time>
      </trkpt>
      <trkpt lat="45.34714" lon="5.72226">
        <ele>1612.7</ele>
        <time>2021-12-19T12:37:31Z</time>
      </trkpt>
      <trkpt lat="45.34716" lon="5.72222">
        <ele>1608.8</ele>
        <time>2021-12-19T12:37:32Z</time>
      </trkpt>
      <trkpt lat="45.34717" lon="5.72216">
        <ele>1604.6</ele>
        <time>2021-12-19T12:37:33Z</time>
      </trkpt>
      <trkpt lat="45.34719" lon="5.7221">
        <ele>1598.9</ele>
        <time>2021-12-19T12:37:34Z</time>
      </trkpt>
      <trkpt lat="45.3472" lon="5.72205">
        <ele>1594.9</ele>
        <time>2021-12-19T12:37:35Z</time>
      </trkpt>
      <trkpt lat="45.34722" lon="5.722">
        <ele>1591</ele>
        <time>2021-12-19T12:37:36Z</time>
      </trkpt>
      <trkpt lat="45.34724" lon="5.72194">
        <ele>1585.5</ele>
        <time>2021-12-19T12:37:37Z</time>
      </trkpt>
      <trkpt lat="45.34725" lon="5.72188">
        <ele>1581.9</ele>
        <time>2021-12-19T12:37:38Z</time>
      </trkpt>
      <trkpt lat="45.34725" lon="5.72183">
        <ele>1578.4</ele>
        <time>2021-12-19T12:37:39Z</time>
      </trkpt>
      <trkpt lat="45.34725" lon="5.72177">
        <ele>1573.5</ele>
        <time>2021-12-19T12:37:40Z</time>
      </trkpt>
      <trkpt lat="45.34725" lon="5.72171">
        <ele>1570</ele>
        <time>2021-12-19T12:37:41Z</time>
      </trkpt>
      <trkpt lat="45.34726" lon="5.72165">
        <ele>1566.4</ele>
        <time>2021-12-19T12:37:42Z</time>
      </trkpt>
      <trkpt lat="45.34726" lon="5.7216">
        <ele>1561.3</ele>
        <time>2021-12-19T12:37:43Z</time>
      </trkpt>
      <trkpt lat="45.34726" lon="5.72154">
        <ele>1557.9</ele>
        <time>2021-12-19T12:37:44Z</time>
      </trkpt>
      <trkpt lat="45.34728" lon="5.72149">
        <ele>1554.4</ele>
        <time>2021-12-19T12:37:45Z</time>
      </trkpt>
      <trkpt lat="45.34731" lon="5.72145">
        <ele>1554.7</ele>
        <time>2021-12-19T12:37:46Z</time>
      </trkpt>
      <trkpt lat="45.34734" lon="5.72143">
        <ele>1555</ele>
        <time>2021-12-19T12:37:47Z</time>
      </trkpt>
      <trkpt lat="45.34738" lon="5.72143">
        <ele>1555.3</ele>
        <time>2021-12-19T12:37:48Z</time>
      </trkpt>
      <trkpt lat="45.34743" lon="5.72143">
        <ele>1555.7</ele>
        <time>2021-12-19T12:37:49Z</time>
      </trkpt>
      <trkpt lat="45.34747" lon="5.72142">
        <ele>1556.1</ele>
        <time>2021-12-19T12:37:50Z</time>
      </trkpt>
      <trkpt lat="45.3475" lon="5.72141">
        <ele>1556.4</ele>
        <time>2021-12-19T12:37:51Z</time>
      </trkpt>
      <trkpt lat="45.34753" lon="5.72139">
        <ele>1556.6</ele>
        <time>2021-12-19T12:37:52Z</time>
      </trkpt>
      <trkpt lat="45.34755" lon="5.72137">
        <ele>1556.8</ele>
        <time>2021-12-19T12:37:53Z</time>
      </trkpt>
      <trkpt lat="45.34757" lon="5.72135">
        <ele>1557</ele>
        <time>2021-12-19T12:37:54Z</time>
      </trkpt>
      <trkpt lat="45.34758" lon="5.72133">
        <ele>1557.2</ele>
        <time>2021-12-19T12:37:55Z</time>
      </trkpt>
      <trkpt lat="45.34758" lon="5.72131">
        <ele>1557.3</ele>
        <time>2021-12-19T12:37:56Z</time>
      </trkpt>
      <trkpt lat="45.34759" lon="5.72131">
        <ele>1557.3</ele>
        <time>2021-12-19T12:37:57Z</time>
      </trkpt>
      <trkpt lat="45.34759" lon="5.72132">
        <ele>1557.3</ele>
        <time>2021-12-19T12:37:58Z</time>
      </trkpt>
      <trkpt lat="45.34759" lon="5.72132">
        <ele>1557.4</ele>
        <time>2021-12-19T12:37:59Z</time>
      </trkpt>
      <trkpt lat="45.34759" lon="5.72133">
        <ele>1557.4</ele>
        <time>2021-12-19T12:38:00Z</time>
      </trkpt>
      <trkpt lat="45.34759" lon="5.72133">
        <ele>1557.4</ele>
        <time>2021-12-19T12:38:01Z</time>
      </trkpt>
      <trkpt lat="45.34758" lon="5.72133">
        <ele>1557.4</ele>
        <time>2021-12-19T12:38:02Z</time>
      </trkpt>
      <trkpt lat="45.34758" lon="5.72134">
        <ele>1557.5</ele>
        <time>2021-12-19T12:38:03Z</time>
      </trkpt>
      <trkpt lat="45.34759" lon="5.72134">
        <ele>1557.5</ele>
        <time>2021-12-19T12:38:04Z</time>
      </trkpt>
      <trkpt lat="45.34759" lon="5.72134">
        <ele>1557.5</ele>
        <time>2021-12-19T12:38:05Z</time>
      </trkpt>
      <trkpt lat="45.34758" lon="5.72134">
        <ele>1557.5</ele>
        <time>2021-12-19T12:38:06Z</time>
      </trkpt>
      <trkpt lat="45.34758" lon="5.72134">
        <ele>1557.5</ele>
        <time>2021-12-19T12:38:07Z</time>
      </trkpt>
      <trkpt lat="45.34758" lon="5.72134">
        <ele>1557.5</ele>
        <time>2021-12-19T12:38:08Z</time>
      </trkpt>
      <trkpt lat="45.34758" lon="5.72134">
        <ele>1557.5</ele>
        <time>2021-12-19T12:38:09Z</time>
      </trkpt>
      <trkpt lat="45.34758" lon="5.72134">
        <ele>1557.5</ele>
        <time>2021-12-19T12:38:10Z</time>
      </trkpt>
      <trkpt lat="45.34758" lon="5.72134">
        <ele>1557.5</ele>
        <time>2021-12-19T12:38:11Z</time>
      </trkpt>
      <trkpt lat="45.34758" lon="5.72135">
        <ele>1557.6</ele>
        <time>2021-12-19T12:38:12Z</time>
      </trkpt>
      <trkpt lat="45.34758" lon="5.72135">
        <ele>1557.6</ele>
        <time>2021-12-19T12:38:13Z</time>
      </trkpt>
      <trkpt lat="45.34758" lon="5.72135">
        <ele>1557.6</ele>
        <time>2021-12-19T12:38:14Z</time>
      </trkpt>
      <trkpt lat="45.34758" lon="5.72135">
        <ele>1557.6</ele>
        <time>2021-12-19T12:38:15Z</time>
      </trkpt>
      <trkpt lat="45.34758" lon="5.72135">
        <ele>1557.6</ele>
        <time>2021-12-19T12:38:16Z</time>
      </trkpt>
      <trkpt lat="45.34758" lon="5.72135">
        <ele>1557.6</ele>
        <time>2021-12-19T12:38:17Z</time>
      </trkpt>
      <trkpt lat="45.34758" lon="5.72135">
        <ele>1557.7</ele>
        <time>2021-12-19T12:38:18Z</time>
      </trkpt>
      <trkpt lat="45.34758" lon="5.72135">
        <ele>1557.7</ele>
        <time>2021-12-19T12:38:19Z</time>
      </trkpt>
      <trkpt lat="45.34757" lon="5.72135">
        <ele>1557.7</ele>
        <time>2021-12-19T12:38:20Z</time>
      </trkpt>
      <trkpt lat="45.34757" lon="5.72136">
        <ele>1557.7</ele>
        <time>2021-12-19T12:38:21Z</time>
      </trkpt>
      <trkpt lat="45.34757" lon="5.72136">
        <ele>1557.7</ele>
        <time>2021-12-19T12:38:22Z</time>
      </trkpt>
      <trkpt lat="45.34757" lon="5.72136">
        <ele>1557.7</ele>
        <time>2021-12-19T12:38:23Z</time>
      </trkpt>
      <trkpt lat="45.34757" lon="5.72136">
        <ele>1557.7</ele>
        <time>2021-12-19T12:38:24Z</time>
      </trkpt>
      <trkpt lat="45.34757" lon="5.72135">
        <ele>1557.8</ele>
        <time>2021-12-19T12:38:25Z</time>
      </trkpt>
      <trkpt lat="45.34756" lon="5.72135">
        <ele>1557.8</ele>
        <time>2021-12-19T12:38:26Z</time>
      </trkpt>
      <trkpt lat="45.34756" lon="5.72134">
        <ele>1557.8</ele>
        <time>2021-12-19T12:38:27Z</time>
      </trkpt>
      <trkpt lat="45.34756" lon="5.72134">
        <ele>1557.9</ele>
        <time>2021-12-19T12:38:28Z</time>
      </trkpt>
      <trkpt lat="45.34756" lon="5.72134">
        <ele>1557.9</ele>
        <time>2021-12-19T12:38:29Z</time>
      </trkpt>
      <trkpt lat="45.34756" lon="5.72133">
        <ele>1557.9</ele>
        <time>2021-12-19T12:38:30Z</time>
      </trkpt>
      <trkpt lat="45.34756" lon="5.72133">
        <ele>1557.9</ele>
        <time>2021-12-19T12:38:31Z</time>
      </trkpt>
      <trkpt lat="45.34756" lon="5.72133">
        <ele>1557.9</ele>
        <time>2021-12-19T12:38:32Z</time>
      </trkpt>
      <trkpt lat="45.34756" lon="5.72133">
        <ele>1558</ele>
        <time>2021-12-19T12:38:33Z</time>
      </trkpt>
      <trkpt lat="45.34756" lon="5.72133">
        <ele>1558</ele>
        <time>2021-12-19T12:38:34Z</time>
      </trkpt>
      <trkpt lat="45.34756" lon="5.72133">
        <ele>1558</ele>
        <time>2021-12-19T12:38:35Z</time>
      </trkpt>
      <trkpt lat="45.34756" lon="5.72133">
        <ele>1558</ele>
        <time>2021-12-19T12:38:36Z</time>
      </trkpt>
      <trkpt lat="45.34756" lon="5.72133">
        <ele>1558</ele>
        <time>2021-12-19T12:38:37Z</time>
      </trkpt>
      <trkpt lat="45.34756" lon="5.72133">
        <ele>1558</ele>
        <time>2021-12-19T12:38:38Z</time>
      </trkpt>
      <trkpt lat="45.34756" lon="5.72133">
        <ele>1558</ele>
        <time>2021-12-19T12:38:39Z</time>
      </trkpt>
      <trkpt lat="45.34756" lon="5.72133">
        <ele>1558</ele>
        <time>2021-12-19T12:38:40Z</time>
      </trkpt>
      <trkpt lat="45.34756" lon="5.72133">
        <ele>1558</ele>
        <time>2021-12-19T12:38:41Z</time>
      </trkpt>
      <trkpt lat="45.34756" lon="5.72133">
        <ele>1558</ele>
        <time>2021-12-19T12:38:42Z</time>
      </trkpt>
      <trkpt lat="45.34756" lon="5.72133">
        <ele>1558</ele>
        <time>2021-12-19T12:38:43Z</time>
      </trkpt>
      <trkpt lat="45.34756" lon="5.72133">
        <ele>1558</ele>
        <time>2021-12-19T12:38:44Z</time>
      </trkpt>
      <trkpt lat="45.34756" lon="5.72133">
        <ele>1558</ele>
        <time>2021-12-19T12:38:45Z</time>
      </trkpt>
      <trkpt lat="45.34756" lon="5.72133">
        <ele>1558</ele>
        <time>2021-12-19T12:38:46Z</time>
      </trkpt>
      <trkpt lat="45.34756" lon="5.72133">
        <ele>1558</ele>
        <time>2021-12-19T12:38:47Z</time>
      </trkpt>
      <trkpt lat="45.34756" lon="5.72133">
        <ele>1558</ele>
        <time>2021-12-19T12:38:48Z</time>
      </trkpt>
      <trkpt lat="45.34756" lon="5.72133">
        <ele>1558.1</ele>
        <time>2021-12-19T12:38:49Z</time>
      </trkpt>
      <trkpt lat="45.34756" lon="5.72133">
        <ele>1558.1</ele>
        <time>2021-12-19T12:38:50Z</time>
      </trkpt>
      <trkpt lat="45.34756" lon="5.72133">
        <ele>1558.1</ele>
        <time>2021-12-19T12:38:51Z</time>
      </trkpt>
      <trkpt lat="45.34756" lon="5.72133">
        <ele>1558.1</ele>
        <time>2021-12-19T12:38:52Z</time>
      </trkpt>
      <trkpt lat="45.34756" lon="5.72133">
        <ele>1558.1</ele>
        <time>2021-12-19T12:38:53Z</time>
      </trkpt>
      <trkpt lat="45.34756" lon="5.72133">
        <ele>1558.1</ele>
        <time>2021-12-19T12:38:54Z</time>
      </trkpt>
      <trkpt lat="45.34756" lon="5.72133">
        <ele>1558.1</ele>
        <time>2021-12-19T12:38:55Z</time>
      </trkpt>
      <trkpt lat="45.34756" lon="5.72134">
        <ele>1558.1</ele>
        <time>2021-12-19T12:38:56Z</time>
      </trkpt>
      <trkpt lat="45.34756" lon="5.72134">
        <ele>1558.1</ele>
        <time>2021-12-19T12:38:57Z</time>
      </trkpt>
      <trkpt lat="45.34756" lon="5.72134">
        <ele>1558.2</ele>
        <time>2021-12-19T12:38:58Z</time>
      </trkpt>
      <trkpt lat="45.34756" lon="5.72134">
        <ele>1558.2</ele>
        <time>2021-12-19T12:38:59Z</time>
      </trkpt>
      <trkpt lat="45.34756" lon="5.72134">
        <ele>1558.2</ele>
        <time>2021-12-19T12:39:00Z</time>
      </trkpt>
      <trkpt lat="45.34756" lon="5.72134">
        <ele>1558.2</ele>
        <time>2021-12-19T12:39:01Z</time>
      </trkpt>
      <trkpt lat="45.34756" lon="5.72134">
        <ele>1558.2</ele>
        <time>2021-12-19T12:39:02Z</time>
      </trkpt>
      <trkpt lat="45.34756" lon="5.72134">
        <ele>1558.3</ele>
        <time>2021-12-19T12:39:03Z</time>
      </trkpt>
      <trkpt lat="45.34756" lon="5.72133">
        <ele>1558.3</ele>
        <time>2021-12-19T12:39:04Z</time>
      </trkpt>
      <trkpt lat="45.34756" lon="5.72133">
        <ele>1558.3</ele>
        <time>2021-12-19T12:39:05Z</time>
      </trkpt>
      <trkpt lat="45.34756" lon="5.72133">
        <ele>1558.3</ele>
        <time>2021-12-19T12:39:06Z</time>
      </trkpt>
      <trkpt lat="45.34756" lon="5.72133">
        <ele>1558.3</ele>
        <time>2021-12-19T12:39:07Z</time>
      </trkpt>
      <trkpt lat="45.34756" lon="5.72133">
        <ele>1558.4</ele>
        <time>2021-12-19T12:39:08Z</time>
      </trkpt>
      <trkpt lat="45.34756" lon="5.72134">
        <ele>1558.4</ele>
        <time>2021-12-19T12:39:09Z</time>
      </trkpt>
      <trkpt lat="45.34756" lon="5.72134">
        <ele>1558.4</ele>
        <time>2021-12-19T12:39:10Z</time>
      </trkpt>
      <trkpt lat="45.34756" lon="5.72134">
        <ele>1558.4</ele>
        <time>2021-12-19T12:39:11Z</time>
      </trkpt>
      <trkpt lat="45.34757" lon="5.72134">
        <ele>1558.4</ele>
        <time>2021-12-19T12:39:12Z</time>
      </trkpt>
      <trkpt lat="45.34757" lon="5.72134">
        <ele>1558.5</ele>
        <time>2021-12-19T12:39:13Z</time>
      </trkpt>
      <trkpt lat="45.34757" lon="5.72134">
        <ele>1558.5</ele>
        <time>2021-12-19T12:39:14Z</time>
      </trkpt>
      <trkpt lat="45.34757" lon="5.72134">
        <ele>1558.5</ele>
        <time>2021-12-19T12:39:15Z</time>
      </trkpt>
      <trkpt lat="45.34757" lon="5.72135">
        <ele>1558.5</ele>
        <time>2021-12-19T12:39:16Z</time>
      </trkpt>
      <trkpt lat="45.34757" lon="5.72134">
        <ele>1558.5</ele>
        <time>2021-12-19T12:39:17Z</time>
      </trkpt>
      <trkpt lat="45.34757" lon="5.72134">
        <ele>1558.5</ele>
        <time>2021-12-19T12:39:18Z</time>
      </trkpt>
      <trkpt lat="45.34757" lon="5.72135">
        <ele>1558.5</ele>
        <time>2021-12-19T12:39:19Z</time>
      </trkpt>
      <trkpt lat="45.34757" lon="5.72134">
        <ele>1558.5</ele>
        <time>2021-12-19T12:39:20Z</time>
      </trkpt>
      <trkpt lat="45.34757" lon="5.72134">
        <ele>1558.6</ele>
        <time>2021-12-19T12:39:21Z</time>
      </trkpt>
      <trkpt lat="45.34757" lon="5.72134">
        <ele>1558.6</ele>
        <time>2021-12-19T12:39:22Z</time>
      </trkpt>
      <trkpt lat="45.34757" lon="5.72134">
        <ele>1558.6</ele>
        <time>2021-12-19T12:39:23Z</time>
      </trkpt>
      <trkpt lat="45.34757" lon="5.72134">
        <ele>1558.6</ele>
        <time>2021-12-19T12:39:24Z</time>
      </trkpt>
      <trkpt lat="45.34757" lon="5.72134">
        <ele>1558.6</ele>
        <time>2021-12-19T12:39:25Z</time>
      </trkpt>
      <trkpt lat="45.34757" lon="5.72134">
        <ele>1558.6</ele>
        <time>2021-12-19T12:39:26Z</time>
      </trkpt>
      <trkpt lat="45.34757" lon="5.72134">
        <ele>1558.6</ele>
        <time>2021-12-19T12:39:27Z</time>
      </trkpt>
      <trkpt lat="45.34757" lon="5.72134">
        <ele>1558.7</ele>
        <time>2021-12-19T12:39:28Z</time>
      </trkpt>
      <trkpt lat="45.34757" lon="5.72134">
        <ele>1558.7</ele>
        <time>2021-12-19T12:39:29Z</time>
      </trkpt>
      <trkpt lat="45.34757" lon="5.72134">
        <ele>1558.7</ele>
        <time>2021-12-19T12:39:30Z</time>
      </trkpt>
      <trkpt lat="45.34757" lon="5.72134">
        <ele>1558.7</ele>
        <time>2021-12-19T12:39:31Z</time>
      </trkpt>
      <trkpt lat="45.34757" lon="5.72134">
        <ele>1558.7</ele>
        <time>2021-12-19T12:39:32Z</time>
      </trkpt>
      <trkpt lat="45.34757" lon="5.72133">
        <ele>1558.8</ele>
        <time>2021-12-19T12:39:33Z</time>
      </trkpt>
      <trkpt lat="45.34757" lon="5.72133">
        <ele>1558.8</ele>
        <time>2021-12-19T12:39:34Z</time>
      </trkpt>
      <trkpt lat="45.34756" lon="5.72133">
        <ele>1558.8</ele>
        <time>2021-12-19T12:39:35Z</time>
      </trkpt>
      <trkpt lat="45.34756" lon="5.72133">
        <ele>1558.8</ele>
        <time>2021-12-19T12:39:36Z</time>
      </trkpt>
      <trkpt lat="45.34755" lon="5.72133">
        <ele>1558.9</ele>
        <time>2021-12-19T12:39:37Z</time>
      </trkpt>
      <trkpt lat="45.34755" lon="5.72133">
        <ele>1558.9</ele>
        <time>2021-12-19T12:39:38Z</time>
      </trkpt>
      <trkpt lat="45.34755" lon="5.72133">
        <ele>1558.9</ele>
        <time>2021-12-19T12:39:39Z</time>
      </trkpt>
      <trkpt lat="45.34755" lon="5.72133">
        <ele>1559</ele>
        <time>2021-12-19T12:39:40Z</time>
      </trkpt>
      <trkpt lat="45.34754" lon="5.72133">
        <ele>1559</ele>
        <time>2021-12-19T12:39:41Z</time>
      </trkpt>
      <trkpt lat="45.34754" lon="5.72133">
        <ele>1559</ele>
        <time>2021-12-19T12:39:42Z</time>
      </trkpt>
      <trkpt lat="45.34754" lon="5.72134">
        <ele>1559</ele>
        <time>2021-12-19T12:39:43Z</time>
      </trkpt>
      <trkpt lat="45.34754" lon="5.72134">
        <ele>1559</ele>
        <time>2021-12-19T12:39:44Z</time>
      </trkpt>
      <trkpt lat="45.34754" lon="5.72134">
        <ele>1559.1</ele>
        <time>2021-12-19T12:39:45Z</time>
      </trkpt>
      <trkpt lat="45.34754" lon="5.72134">
        <ele>1559.1</ele>
        <time>2021-12-19T12:39:46Z</time>
      </trkpt>
      <trkpt lat="45.34754" lon="5.72134">
        <ele>1559.1</ele>
        <time>2021-12-19T12:39:47Z</time>
      </trkpt>
      <trkpt lat="45.34754" lon="5.72134">
        <ele>1559.1</ele>
        <time>2021-12-19T12:39:48Z</time>
      </trkpt>
      <trkpt lat="45.34754" lon="5.72134">
        <ele>1559.1</ele>
        <time>2021-12-19T12:39:49Z</time>
      </trkpt>
      <trkpt lat="45.34754" lon="5.72134">
        <ele>1559.1</ele>
        <time>2021-12-19T12:39:50Z</time>
      </trkpt>
      <trkpt lat="45.34754" lon="5.72134">
        <ele>1559.1</ele>
        <time>2021-12-19T12:39:51Z</time>
      </trkpt>
      <trkpt lat="45.34754" lon="5.72134">
        <ele>1559.2</ele>
        <time>2021-12-19T12:39:52Z</time>
      </trkpt>
      <trkpt lat="45.34754" lon="5.72134">
        <ele>1559.2</ele>
        <time>2021-12-19T12:39:53Z</time>
      </trkpt>
      <trkpt lat="45.34754" lon="5.72134">
        <ele>1559.2</ele>
        <time>2021-12-19T12:39:54Z</time>
      </trkpt>
      <trkpt lat="45.34754" lon="5.72134">
        <ele>1559.2</ele>
        <time>2021-12-19T12:39:55Z</time>
      </trkpt>
      <trkpt lat="45.34754" lon="5.72134">
        <ele>1559.2</ele>
        <time>2021-12-19T12:39:56Z</time>
      </trkpt>
      <trkpt lat="45.34755" lon="5.72133">
        <ele>1559.2</ele>
        <time>2021-12-19T12:39:57Z</time>
      </trkpt>
      <trkpt lat="45.34755" lon="5.72133">
        <ele>1559.3</ele>
        <time>2021-12-19T12:39:58Z</time>
      </trkpt>
      <trkpt lat="45.34756" lon="5.72133">
        <ele>1559.4</ele>
        <time>2021-12-19T12:39:59Z</time>
      </trkpt>
      <trkpt lat="45.34757" lon="5.72133">
        <ele>1559.4</ele>
        <time>2021-12-19T12:40:00Z</time>
      </trkpt>
      <trkpt lat="45.34757" lon="5.72133">
        <ele>1559.4</ele>
        <time>2021-12-19T12:40:01Z</time>
      </trkpt>
      <trkpt lat="45.34757" lon="5.72133">
        <ele>1559.5</ele>
        <time>2021-12-19T12:40:02Z</time>
      </trkpt>
      <trkpt lat="45.34757" lon="5.72133">
        <ele>1559.5</ele>
        <time>2021-12-19T12:40:03Z</time>
      </trkpt>
      <trkpt lat="45.34757" lon="5.72133">
        <ele>1559.5</ele>
        <time>2021-12-19T12:40:04Z</time>
      </trkpt>
      <trkpt lat="45.34757" lon="5.72132">
        <ele>1559.5</ele>
        <time>2021-12-19T12:40:05Z</time>
      </trkpt>
      <trkpt lat="45.34757" lon="5.72132">
        <ele>1559.5</ele>
        <time>2021-12-19T12:40:06Z</time>
      </trkpt>
      <trkpt lat="45.34758" lon="5.72132">
        <ele>1559.5</ele>
        <time>2021-12-19T12:40:07Z</time>
      </trkpt>
      <trkpt lat="45.34758" lon="5.72132">
        <ele>1559.5</ele>
        <time>2021-12-19T12:40:08Z</time>
      </trkpt>
      <trkpt lat="45.34758" lon="5.72131">
        <ele>1559.6</ele>
        <time>2021-12-19T12:40:09Z</time>
      </trkpt>
      <trkpt lat="45.34757" lon="5.72131">
        <ele>1559.6</ele>
        <time>2021-12-19T12:40:10Z</time>
      </trkpt>
      <trkpt lat="45.34757" lon="5.72131">
        <ele>1559.6</ele>
        <time>2021-12-19T12:40:11Z</time>
      </trkpt>
      <trkpt lat="45.34757" lon="5.72132">
        <ele>1559.6</ele>
        <time>2021-12-19T12:40:12Z</time>
      </trkpt>
      <trkpt lat="45.34757" lon="5.72132">
        <ele>1559.6</ele>
        <time>2021-12-19T12:40:13Z</time>
      </trkpt>
      <trkpt lat="45.34757" lon="5.72132">
        <ele>1559.6</ele>
        <time>2021-12-19T12:40:14Z</time>
      </trkpt>
      <trkpt lat="45.34757" lon="5.72132">
        <ele>1559.6</ele>
        <time>2021-12-19T12:40:15Z</time>
      </trkpt>
      <trkpt lat="45.34757" lon="5.72132">
        <ele>1559.6</ele>
        <time>2021-12-19T12:40:16Z</time>
      </trkpt>
      <trkpt lat="45.34757" lon="5.72132">
        <ele>1559.6</ele>
        <time>2021-12-19T12:40:17Z</time>
      </trkpt>
      <trkpt lat="45.34757" lon="5.72132">
        <ele>1559.6</ele>
        <time>2021-12-19T12:40:18Z</time>
      </trkpt>
      <trkpt lat="45.34758" lon="5.72132">
        <ele>1559.7</ele>
        <time>2021-12-19T12:40:19Z</time>
      </trkpt>
      <trkpt lat="45.34758" lon="5.72132">
        <ele>1559.7</ele>
        <time>2021-12-19T12:40:20Z</time>
      </trkpt>
      <trkpt lat="45.34758" lon="5.72132">
        <ele>1559.7</ele>
        <time>2021-12-19T12:40:21Z</time>
      </trkpt>
      <trkpt lat="45.34758" lon="5.72132">
        <ele>1559.7</ele>
        <time>2021-12-19T12:40:22Z</time>
      </trkpt>
      <trkpt lat="45.34758" lon="5.72132">
        <ele>1559.7</ele>
        <time>2021-12-19T12:40:23Z</time>
      </trkpt>
      <trkpt lat="45.34758" lon="5.72132">
        <ele>1559.7</ele>
        <time>2021-12-19T12:40:24Z</time>
      </trkpt>
      <trkpt lat="45.34758" lon="5.72132">
        <ele>1559.7</ele>
        <time>2021-12-19T12:40:25Z</time>
      </trkpt>
      <trkpt lat="45.34758" lon="5.72132">
        <ele>1559.7</ele>
        <time>2021-12-19T12:40:26Z</time>
      </trkpt>
      <trkpt lat="45.34758" lon="5.72132">
        <ele>1559.7</ele>
        <time>2021-12-19T12:40:27Z</time>
      </trkpt>
      <trkpt lat="45.34758" lon="5.72132">
        <ele>1559.7</ele>
        <time>2021-12-19T12:40:28Z</time>
      </trkpt>
      <trkpt lat="45.34758" lon="5.72132">
        <ele>1559.7</ele>
        <time>2021-12-19T12:40:29Z</time>
      </trkpt>
      <trkpt lat="45.34758" lon="5.72132">
        <ele>1559.7</ele>
        <time>2021-12-19T12:40:30Z</time>
      </trkpt>
      <trkpt lat="45.34758" lon="5.72132">
        <ele>1559.7</ele>
        <time>2021-12-19T12:40:31Z</time>
      </trkpt>
      <trkpt lat="45.34758" lon="5.72132">
        <ele>1559.7</ele>
        <time>2021-12-19T12:40:32Z</time>
      </trkpt>
      <trkpt lat="45.34758" lon="5.72132">
        <ele>1559.7</ele>
        <time>2021-12-19T12:40:33Z</time>
      </trkpt>
      <trkpt lat="45.34758" lon="5.72132">
        <ele>1559.7</ele>
        <time>2021-12-19T12:40:34Z</time>
      </trkpt>
      <trkpt lat="45.34758" lon="5.72132">
        <ele>1559.7</ele>
        <time>2021-12-19T12:40:35Z</time>
      </trkpt>
      <trkpt lat="45.34758" lon="5.72132">
        <ele>1559.7</ele>
        <time>2021-12-19T12:40:36Z</time>
      </trkpt>
      <trkpt lat="45.34758" lon="5.72132">
        <ele>1559.7</ele>
        <time>2021-12-19T12:40:37Z</time>
      </trkpt>
      <trkpt lat="45.34758" lon="5.72133">
        <ele>1559.7</ele>
        <time>2021-12-19T12:40:38Z</time>
      </trkpt>
      <trkpt lat="45.34758" lon="5.72133">
        <ele>1559.8</ele>
        <time>2021-12-19T12:40:39Z</time>
      </trkpt>
      <trkpt lat="45.34758" lon="5.72133">
        <ele>1559.8</ele>
        <time>2021-12-19T12:40:40Z</time>
      </trkpt>
      <trkpt lat="45.34759" lon="5.72133">
        <ele>1559.8</ele>
        <time>2021-12-19T12:40:41Z</time>
      </trkpt>
      <trkpt lat="45.34759" lon="5.72133">
        <ele>1559.8</ele>
        <time>2021-12-19T12:40:42Z</time>
      </trkpt>
      <trkpt lat="45.34759" lon="5.72133">
        <ele>1559.8</ele>
        <time>2021-12-19T12:40:43Z</time>
      </trkpt>
      <trkpt lat="45.34759" lon="5.72133">
        <ele>1559.8</ele>
        <time>2021-12-19T12:40:44Z</time>
      </trkpt>
      <trkpt lat="45.34759" lon="5.72133">
        <ele>1559.8</ele>
        <time>2021-12-19T12:40:45Z</time>
      </trkpt>
      <trkpt lat="45.3476" lon="5.72133">
        <ele>1559.9</ele>
        <time>2021-12-19T12:40:46Z</time>
      </trkpt>
      <trkpt lat="45.34759" lon="5.72133">
        <ele>1559.9</ele>
        <time>2021-12-19T12:40:47Z</time>
      </trkpt>
      <trkpt lat="45.34759" lon="5.72133">
        <ele>1559.9</ele>
        <time>2021-12-19T12:40:48Z</time>
      </trkpt>
      <trkpt lat="45.34759" lon="5.72133">
        <ele>1559.9</ele>
        <time>2021-12-19T12:40:49Z</time>
      </trkpt>
      <trkpt lat="45.34759" lon="5.72133">
        <ele>1560</ele>
        <time>2021-12-19T12:40:50Z</time>
      </trkpt>
      <trkpt lat="45.34759" lon="5.72133">
        <ele>1560</ele>
        <time>2021-12-19T12:40:51Z</time>
      </trkpt>
      <trkpt lat="45.34759" lon="5.72133">
        <ele>1560</ele>
        <time>2021-12-19T12:40:52Z</time>
      </trkpt>
      <trkpt lat="45.34759" lon="5.72133">
        <ele>1560</ele>
        <time>2021-12-19T12:40:53Z</time>
      </trkpt>
      <trkpt lat="45.3476" lon="5.72133">
        <ele>1560</ele>
        <time>2021-12-19T12:40:54Z</time>
      </trkpt>
      <trkpt lat="45.3476" lon="5.72133">
        <ele>1560</ele>
        <time>2021-12-19T12:40:55Z</time>
      </trkpt>
      <trkpt lat="45.3476" lon="5.72133">
        <ele>1560</ele>
        <time>2021-12-19T12:40:56Z</time>
      </trkpt>
      <trkpt lat="45.3476" lon="5.72133">
        <ele>1560.1</ele>
        <time>2021-12-19T12:40:57Z</time>
      </trkpt>
      <trkpt lat="45.3476" lon="5.72133">
        <ele>1560.1</ele>
        <time>2021-12-19T12:40:58Z</time>
      </trkpt>
      <trkpt lat="45.3476" lon="5.72133">
        <ele>1560.1</ele>
        <time>2021-12-19T12:40:59Z</time>
      </trkpt>
      <trkpt lat="45.3476" lon="5.72133">
        <ele>1560.1</ele>
        <time>2021-12-19T12:41:00Z</time>
      </trkpt>
      <trkpt lat="45.3476" lon="5.72133">
        <ele>1560.1</ele>
        <time>2021-12-19T12:41:01Z</time>
      </trkpt>
      <trkpt lat="45.34759" lon="5.72133">
        <ele>1560.2</ele>
        <time>2021-12-19T12:41:02Z</time>
      </trkpt>
      <trkpt lat="45.34759" lon="5.72133">
        <ele>1560.2</ele>
        <time>2021-12-19T12:41:03Z</time>
      </trkpt>
      <trkpt lat="45.34759" lon="5.72133">
        <ele>1560.2</ele>
        <time>2021-12-19T12:41:04Z</time>
      </trkpt>
      <trkpt lat="45.34759" lon="5.72133">
        <ele>1560.2</ele>
        <time>2021-12-19T12:41:05Z</time>
      </trkpt>
      <trkpt lat="45.34759" lon="5.72133">
        <ele>1560.2</ele>
        <time>2021-12-19T12:41:06Z</time>
      </trkpt>
      <trkpt lat="45.34759" lon="5.72133">
        <ele>1560.2</ele>
        <time>2021-12-19T12:41:07Z</time>
      </trkpt>
      <trkpt lat="45.34759" lon="5.72134">
        <ele>1560.3</ele>
        <time>2021-12-19T12:41:08Z</time>
      </trkpt>
      <trkpt lat="45.34758" lon="5.72134">
        <ele>1560.3</ele>
        <time>2021-12-19T12:41:09Z</time>
      </trkpt>
      <trkpt lat="45.34758" lon="5.72134">
        <ele>1560.3</ele>
        <time>2021-12-19T12:41:10Z</time>
      </trkpt>
      <trkpt lat="45.34758" lon="5.72134">
        <ele>1560.3</ele>
        <time>2021-12-19T12:41:11Z</time>
      </trkpt>
      <trkpt lat="45.34758" lon="5.72134">
        <ele>1560.3</ele>
        <time>2021-12-19T12:41:12Z</time>
      </trkpt>
      <trkpt lat="45.34758" lon="5.72134">
        <ele>1560.3</ele>
        <time>2021-12-19T12:41:13Z</time>
      </trkpt>
      <trkpt lat="45.34758" lon="5.72134">
        <ele>1560.3</ele>
        <time>2021-12-19T12:41:14Z</time>
      </trkpt>
      <trkpt lat="45.34758" lon="5.72134">
        <ele>1560.3</ele>
        <time>2021-12-19T12:41:15Z</time>
      </trkpt>
      <trkpt lat="45.34758" lon="5.72134">
        <ele>1560.3</ele>
        <time>2021-12-19T12:41:16Z</time>
      </trkpt>
      <trkpt lat="45.34758" lon="5.72134">
        <ele>1560.3</ele>
        <time>2021-12-19T12:41:17Z</time>
      </trkpt>
      <trkpt lat="45.34758" lon="5.72134">
        <ele>1560.3</ele>
        <time>2021-12-19T12:41:18Z</time>
      </trkpt>
      <trkpt lat="45.34758" lon="5.72134">
        <ele>1560.3</ele>
        <time>2021-12-19T12:41:19Z</time>
      </trkpt>
      <trkpt lat="45.34758" lon="5.72134">
        <ele>1560.3</ele>
        <time>2021-12-19T12:41:20Z</time>
      </trkpt>
      <trkpt lat="45.34758" lon="5.72134">
        <ele>1560.3</ele>
        <time>2021-12-19T12:41:21Z</time>
      </trkpt>
      <trkpt lat="45.34758" lon="5.72133">
        <ele>1560.4</ele>
        <time>2021-12-19T12:41:22Z</time>
      </trkpt>
      <trkpt lat="45.34758" lon="5.72133">
        <ele>1560.4</ele>
        <time>2021-12-19T12:41:23Z</time>
      </trkpt>
      <trkpt lat="45.34758" lon="5.72133">
        <ele>1560.4</ele>
        <time>2021-12-19T12:41:24Z</time>
      </trkpt>
      <trkpt lat="45.34758" lon="5.72133">
        <ele>1560.4</ele>
        <time>2021-12-19T12:41:25Z</time>
      </trkpt>
      <trkpt lat="45.34758" lon="5.72133">
        <ele>1560.4</ele>
        <time>2021-12-19T12:41:26Z</time>
      </trkpt>
      <trkpt lat="45.34758" lon="5.72133">
        <ele>1560.4</ele>
        <time>2021-12-19T12:41:27Z</time>
      </trkpt>
      <trkpt lat="45.34758" lon="5.72133">
        <ele>1560.4</ele>
        <time>2021-12-19T12:41:28Z</time>
      </trkpt>
      <trkpt lat="45.34758" lon="5.72133">
        <ele>1560.4</ele>
        <time>2021-12-19T12:41:29Z</time>
      </trkpt>
      <trkpt lat="45.34758" lon="5.72133">
        <ele>1560.4</ele>
        <time>2021-12-19T12:41:30Z</time>
      </trkpt>
      <trkpt lat="45.34758" lon="5.72133">
        <ele>1560.4</ele>
        <time>2021-12-19T12:41:31Z</time>
      </trkpt>
      <trkpt lat="45.34758" lon="5.72133">
        <ele>1560.4</ele>
        <time>2021-12-19T12:41:32Z</time>
      </trkpt>
      <trkpt lat="45.34758" lon="5.72133">
        <ele>1560.4</ele>
        <time>2021-12-19T12:41:33Z</time>
      </trkpt>
      <trkpt lat="45.34758" lon="5.72134">
        <ele>1560.5</ele>
        <time>2021-12-19T12:41:34Z</time>
      </trkpt>
      <trkpt lat="45.34758" lon="5.72134">
        <ele>1560.5</ele>
        <time>2021-12-19T12:41:35Z</time>
      </trkpt>
      <trkpt lat="45.34758" lon="5.72134">
        <ele>1560.5</ele>
        <time>2021-12-19T12:41:36Z</time>
      </trkpt>
      <trkpt lat="45.34758" lon="5.72134">
        <ele>1560.5</ele>
        <time>2021-12-19T12:41:37Z</time>
      </trkpt>
      <trkpt lat="45.34758" lon="5.72134">
        <ele>1560.5</ele>
        <time>2021-12-19T12:41:38Z</time>
      </trkpt>
      <trkpt lat="45.34758" lon="5.72133">
        <ele>1560.5</ele>
        <time>2021-12-19T12:41:39Z</time>
      </trkpt>
      <trkpt lat="45.34758" lon="5.72133">
        <ele>1560.6</ele>
        <time>2021-12-19T12:41:40Z</time>
      </trkpt>
      <trkpt lat="45.34758" lon="5.72133">
        <ele>1560.6</ele>
        <time>2021-12-19T12:41:41Z</time>
      </trkpt>
      <trkpt lat="45.34758" lon="5.72133">
        <ele>1560.6</ele>
        <time>2021-12-19T12:41:42Z</time>
      </trkpt>
      <trkpt lat="45.34758" lon="5.72133">
        <ele>1560.6</ele>
        <time>2021-12-19T12:41:43Z</time>
      </trkpt>
      <trkpt lat="45.34758" lon="5.72133">
        <ele>1560.6</ele>
        <time>2021-12-19T12:41:44Z</time>
      </trkpt>
      <trkpt lat="45.34758" lon="5.72133">
        <ele>1560.6</ele>
        <time>2021-12-19T12:41:45Z</time>
      </trkpt>
      <trkpt lat="45.34758" lon="5.72133">
        <ele>1560.6</ele>
        <time>2021-12-19T12:41:46Z</time>
      </trkpt>
      <trkpt lat="45.34758" lon="5.72133">
        <ele>1560.6</ele>
        <time>2021-12-19T12:41:47Z</time>
      </trkpt>
      <trkpt lat="45.34758" lon="5.72134">
        <ele>1560.6</ele>
        <time>2021-12-19T12:41:48Z</time>
      </trkpt>
      <trkpt lat="45.34758" lon="5.72134">
        <ele>1560.7</ele>
        <time>2021-12-19T12:41:49Z</time>
      </trkpt>
      <trkpt lat="45.34757" lon="5.72134">
        <ele>1560.7</ele>
        <time>2021-12-19T12:41:50Z</time>
      </trkpt>
      <trkpt lat="45.34757" lon="5.72134">
        <ele>1560.7</ele>
        <time>2021-12-19T12:41:51Z</time>
      </trkpt>
      <trkpt lat="45.34757" lon="5.72134">
        <ele>1560.8</ele>
        <time>2021-12-19T12:41:52Z</time>
      </trkpt>
      <trkpt lat="45.34757" lon="5.72135">
        <ele>1560.8</ele>
        <time>2021-12-19T12:41:53Z</time>
      </trkpt>
      <trkpt lat="45.34757" lon="5.72135">
        <ele>1560.8</ele>
        <time>2021-12-19T12:41:54Z</time>
      </trkpt>
      <trkpt lat="45.34757" lon="5.72135">
        <ele>1560.8</ele>
        <time>2021-12-19T12:41:55Z</time>
      </trkpt>
      <trkpt lat="45.34757" lon="5.72135">
        <ele>1560.8</ele>
        <time>2021-12-19T12:41:56Z</time>
      </trkpt>
      <trkpt lat="45.34757" lon="5.72135">
        <ele>1560.8</ele>
        <time>2021-12-19T12:41:57Z</time>
      </trkpt>
      <trkpt lat="45.34757" lon="5.72135">
        <ele>1560.8</ele>
        <time>2021-12-19T12:41:58Z</time>
      </trkpt>
      <trkpt lat="45.34757" lon="5.72135">
        <ele>1560.8</ele>
        <time>2021-12-19T12:41:59Z</time>
      </trkpt>
      <trkpt lat="45.34757" lon="5.72135">
        <ele>1560.8</ele>
        <time>2021-12-19T12:42:00Z</time>
      </trkpt>
      <trkpt lat="45.34757" lon="5.72135">
        <ele>1560.9</ele>
        <time>2021-12-19T12:42:01Z</time>
      </trkpt>
      <trkpt lat="45.34757" lon="5.72135">
        <ele>1560.9</ele>
        <time>2021-12-19T12:42:02Z</time>
      </trkpt>
      <trkpt lat="45.34757" lon="5.72135">
        <ele>1560.9</ele>
        <time>2021-12-19T12:42:03Z</time>
      </trkpt>
      <trkpt lat="45.34757" lon="5.72135">
        <ele>1560.9</ele>
        <time>2021-12-19T12:42:04Z</time>
      </trkpt>
      <trkpt lat="45.34757" lon="5.72135">
        <ele>1560.9</ele>
        <time>2021-12-19T12:42:05Z</time>
      </trkpt>
      <trkpt lat="45.34757" lon="5.72135">
        <ele>1560.9</ele>
        <time>2021-12-19T12:42:06Z</time>
      </trkpt>
      <trkpt lat="45.34757" lon="5.72135">
        <ele>1560.9</ele>
        <time>2021-12-19T12:42:07Z</time>
      </trkpt>
      <trkpt lat="45.34757" lon="5.72135">
        <ele>1560.9</ele>
        <time>2021-12-19T12:42:08Z</time>
      </trkpt>
      <trkpt lat="45.34757" lon="5.72135">
        <ele>1560.9</ele>
        <time>2021-12-19T12:42:09Z</time>
      </trkpt>
      <trkpt lat="45.34757" lon="5.72135">
        <ele>1560.9</ele>
        <time>2021-12-19T12:42:10Z</time>
      </trkpt>
      <trkpt lat="45.34756" lon="5.72135">
        <ele>1560.9</ele>
        <time>2021-12-19T12:42:11Z</time>
      </trkpt>
      <trkpt lat="45.34756" lon="5.72135">
        <ele>1561</ele>
        <time>2021-12-19T12:42:12Z</time>
      </trkpt>
      <trkpt lat="45.34756" lon="5.72134">
        <ele>1561</ele>
        <time>2021-12-19T12:42:13Z</time>
      </trkpt>
      <trkpt lat="45.34756" lon="5.72134">
        <ele>1561</ele>
        <time>2021-12-19T12:42:14Z</time>
      </trkpt>
      <trkpt lat="45.34756" lon="5.72134">
        <ele>1561</ele>
        <time>2021-12-19T12:42:15Z</time>
      </trkpt>
      <trkpt lat="45.34756" lon="5.72134">
        <ele>1561</ele>
        <time>2021-12-19T12:42:16Z</time>
      </trkpt>
      <trkpt lat="45.34757" lon="5.72134">
        <ele>1561</ele>
        <time>2021-12-19T12:42:17Z</time>
      </trkpt>
      <trkpt lat="45.34756" lon="5.72134">
        <ele>1561</ele>
        <time>2021-12-19T12:42:18Z</time>
      </trkpt>
      <trkpt lat="45.34757" lon="5.72134">
        <ele>1561.1</ele>
        <time>2021-12-19T12:42:19Z</time>
      </trkpt>
      <trkpt lat="45.34757" lon="5.72134">
        <ele>1561.1</ele>
        <time>2021-12-19T12:42:20Z</time>
      </trkpt>
      <trkpt lat="45.34758" lon="5.72134">
        <ele>1561.1</ele>
        <time>2021-12-19T12:42:21Z</time>
      </trkpt>
      <trkpt lat="45.34758" lon="5.72134">
        <ele>1561.2</ele>
        <time>2021-12-19T12:42:22Z</time>
      </trkpt>
      <trkpt lat="45.34758" lon="5.72134">
        <ele>1561.2</ele>
        <time>2021-12-19T12:42:23Z</time>
      </trkpt>
      <trkpt lat="45.34758" lon="5.72134">
        <ele>1561.2</ele>
        <time>2021-12-19T12:42:24Z</time>
      </trkpt>
      <trkpt lat="45.34758" lon="5.72134">
        <ele>1561.2</ele>
        <time>2021-12-19T12:42:25Z</time>
      </trkpt>
      <trkpt lat="45.34759" lon="5.72134">
        <ele>1561.2</ele>
        <time>2021-12-19T12:42:26Z</time>
      </trkpt>
      <trkpt lat="45.34759" lon="5.72134">
        <ele>1561.2</ele>
        <time>2021-12-19T12:42:27Z</time>
      </trkpt>
      <trkpt lat="45.34759" lon="5.72133">
        <ele>1561.3</ele>
        <time>2021-12-19T12:42:28Z</time>
      </trkpt>
      <trkpt lat="45.34759" lon="5.72133">
        <ele>1561.3</ele>
        <time>2021-12-19T12:42:29Z</time>
      </trkpt>
      <trkpt lat="45.34759" lon="5.72133">
        <ele>1561.3</ele>
        <time>2021-12-19T12:42:30Z</time>
      </trkpt>
      <trkpt lat="45.34759" lon="5.72133">
        <ele>1561.3</ele>
        <time>2021-12-19T12:42:31Z</time>
      </trkpt>
      <trkpt lat="45.34759" lon="5.72133">
        <ele>1561.4</ele>
        <time>2021-12-19T12:42:32Z</time>
      </trkpt>
      <trkpt lat="45.34759" lon="5.72133">
        <ele>1561.4</ele>
        <time>2021-12-19T12:42:33Z</time>
      </trkpt>
      <trkpt lat="45.34759" lon="5.72133">
        <ele>1561.4</ele>
        <time>2021-12-19T12:42:34Z</time>
      </trkpt>
      <trkpt lat="45.34759" lon="5.72133">
        <ele>1561.4</ele>
        <time>2021-12-19T12:42:35Z</time>
      </trkpt>
      <trkpt lat="45.34759" lon="5.72133">
        <ele>1561.4</ele>
        <time>2021-12-19T12:42:36Z</time>
      </trkpt>
      <trkpt lat="45.34759" lon="5.72133">
        <ele>1561.4</ele>
        <time>2021-12-19T12:42:37Z</time>
      </trkpt>
      <trkpt lat="45.34759" lon="5.72133">
        <ele>1561.4</ele>
        <time>2021-12-19T12:42:38Z</time>
      </trkpt>
      <trkpt lat="45.34759" lon="5.72133">
        <ele>1561.4</ele>
        <time>2021-12-19T12:42:39Z</time>
      </trkpt>
      <trkpt lat="45.34759" lon="5.72133">
        <ele>1561.4</ele>
        <time>2021-12-19T12:42:40Z</time>
      </trkpt>
      <trkpt lat="45.34759" lon="5.72132">
        <ele>1561.4</ele>
        <time>2021-12-19T12:42:41Z</time>
      </trkpt>
      <trkpt lat="45.34759" lon="5.72132">
        <ele>1561.4</ele>
        <time>2021-12-19T12:42:42Z</time>
      </trkpt>
      <trkpt lat="45.34759" lon="5.72132">
        <ele>1561.4</ele>
        <time>2021-12-19T12:42:43Z</time>
      </trkpt>
      <trkpt lat="45.34759" lon="5.72132">
        <ele>1561.4</ele>
        <time>2021-12-19T12:42:44Z</time>
      </trkpt>
      <trkpt lat="45.34759" lon="5.72132">
        <ele>1561.5</ele>
        <time>2021-12-19T12:42:45Z</time>
      </trkpt>
      <trkpt lat="45.34759" lon="5.72132">
        <ele>1561.5</ele>
        <time>2021-12-19T12:42:46Z</time>
      </trkpt>
      <trkpt lat="45.34759" lon="5.72132">
        <ele>1561.5</ele>
        <time>2021-12-19T12:42:47Z</time>
      </trkpt>
      <trkpt lat="45.34759" lon="5.72132">
        <ele>1561.5</ele>
        <time>2021-12-19T12:42:48Z</time>
      </trkpt>
      <trkpt lat="45.34759" lon="5.72132">
        <ele>1561.5</ele>
        <time>2021-12-19T12:42:49Z</time>
      </trkpt>
      <trkpt lat="45.34759" lon="5.72133">
        <ele>1561.5</ele>
        <time>2021-12-19T12:42:50Z</time>
      </trkpt>
      <trkpt lat="45.34759" lon="5.72133">
        <ele>1561.6</ele>
        <time>2021-12-19T12:42:51Z</time>
      </trkpt>
      <trkpt lat="45.34759" lon="5.72133">
        <ele>1561.6</ele>
        <time>2021-12-19T12:42:52Z</time>
      </trkpt>
      <trkpt lat="45.34759" lon="5.72133">
        <ele>1561.6</ele>
        <time>2021-12-19T12:42:53Z</time>
      </trkpt>
      <trkpt lat="45.34759" lon="5.72133">
        <ele>1561.6</ele>
        <time>2021-12-19T12:42:54Z</time>
      </trkpt>
      <trkpt lat="45.34759" lon="5.72133">
        <ele>1561.6</ele>
        <time>2021-12-19T12:42:55Z</time>
      </trkpt>
      <trkpt lat="45.34759" lon="5.72133">
        <ele>1561.6</ele>
        <time>2021-12-19T12:42:56Z</time>
      </trkpt>
      <trkpt lat="45.34759" lon="5.72133">
        <ele>1561.6</ele>
        <time>2021-12-19T12:42:57Z</time>
      </trkpt>
      <trkpt lat="45.34759" lon="5.72133">
        <ele>1561.6</ele>
        <time>2021-12-19T12:42:58Z</time>
      </trkpt>
      <trkpt lat="45.34759" lon="5.72133">
        <ele>1561.7</ele>
        <time>2021-12-19T12:42:59Z</time>
      </trkpt>
      <trkpt lat="45.34758" lon="5.72133">
        <ele>1561.7</ele>
        <time>2021-12-19T12:43:00Z</time>
      </trkpt>
      <trkpt lat="45.34758" lon="5.72133">
        <ele>1561.7</ele>
        <time>2021-12-19T12:43:01Z</time>
      </trkpt>
      <trkpt lat="45.34758" lon="5.72133">
        <ele>1561.7</ele>
        <time>2021-12-19T12:43:02Z</time>
      </trkpt>
      <trkpt lat="45.34758" lon="5.72133">
        <ele>1561.7</ele>
        <time>2021-12-19T12:43:03Z</time>
      </trkpt>
      <trkpt lat="45.34757" lon="5.72133">
        <ele>1561.8</ele>
        <time>2021-12-19T12:43:04Z</time>
      </trkpt>
      <trkpt lat="45.34757" lon="5.72133">
        <ele>1561.8</ele>
        <time>2021-12-19T12:43:05Z</time>
      </trkpt>
      <trkpt lat="45.34757" lon="5.72133">
        <ele>1561.8</ele>
        <time>2021-12-19T12:43:06Z</time>
      </trkpt>
      <trkpt lat="45.34757" lon="5.72133">
        <ele>1561.8</ele>
        <time>2021-12-19T12:43:07Z</time>
      </trkpt>
      <trkpt lat="45.34757" lon="5.72133">
        <ele>1561.8</ele>
        <time>2021-12-19T12:43:08Z</time>
      </trkpt>
      <trkpt lat="45.34757" lon="5.72133">
        <ele>1561.8</ele>
        <time>2021-12-19T12:43:09Z</time>
      </trkpt>
      <trkpt lat="45.34757" lon="5.72133">
        <ele>1561.8</ele>
        <time>2021-12-19T12:43:10Z</time>
      </trkpt>
      <trkpt lat="45.34757" lon="5.72133">
        <ele>1561.9</ele>
        <time>2021-12-19T12:43:11Z</time>
      </trkpt>
      <trkpt lat="45.34758" lon="5.72133">
        <ele>1561.9</ele>
        <time>2021-12-19T12:43:12Z</time>
      </trkpt>
      <trkpt lat="45.34758" lon="5.72133">
        <ele>1561.9</ele>
        <time>2021-12-19T12:43:13Z</time>
      </trkpt>
      <trkpt lat="45.34758" lon="5.72133">
        <ele>1561.9</ele>
        <time>2021-12-19T12:43:14Z</time>
      </trkpt>
      <trkpt lat="45.34758" lon="5.72133">
        <ele>1562</ele>
        <time>2021-12-19T12:43:15Z</time>
      </trkpt>
      <trkpt lat="45.34758" lon="5.72133">
        <ele>1562</ele>
        <time>2021-12-19T12:43:16Z</time>
      </trkpt>
      <trkpt lat="45.34758" lon="5.72133">
        <ele>1562</ele>
        <time>2021-12-19T12:43:17Z</time>
      </trkpt>
      <trkpt lat="45.34758" lon="5.72133">
        <ele>1562</ele>
        <time>2021-12-19T12:43:18Z</time>
      </trkpt>
      <trkpt lat="45.34758" lon="5.72133">
        <ele>1562</ele>
        <time>2021-12-19T12:43:19Z</time>
      </trkpt>
      <trkpt lat="45.34758" lon="5.72133">
        <ele>1562</ele>
        <time>2021-12-19T12:43:20Z</time>
      </trkpt>
      <trkpt lat="45.34758" lon="5.72133">
        <ele>1562</ele>
        <time>2021-12-19T12:43:21Z</time>
      </trkpt>
      <trkpt lat="45.34758" lon="5.72133">
        <ele>1562.1</ele>
        <time>2021-12-19T12:43:22Z</time>
      </trkpt>
      <trkpt lat="45.34758" lon="5.72134">
        <ele>1562.1</ele>
        <time>2021-12-19T12:43:23Z</time>
      </trkpt>
      <trkpt lat="45.34758" lon="5.72134">
        <ele>1562.1</ele>
        <time>2021-12-19T12:43:24Z</time>
      </trkpt>
      <trkpt lat="45.34758" lon="5.72134">
        <ele>1562.1</ele>
        <time>2021-12-19T12:43:25Z</time>
      </trkpt>
      <trkpt lat="45.34758" lon="5.72134">
        <ele>1562.1</ele>
        <time>2021-12-19T12:43:26Z</time>
      </trkpt>
      <trkpt lat="45.34758" lon="5.72134">
        <ele>1562.1</ele>
        <time>2021-12-19T12:43:27Z</time>
      </trkpt>
      <trkpt lat="45.34758" lon="5.72134">
        <ele>1562.1</ele>
        <time>2021-12-19T12:43:28Z</time>
      </trkpt>
      <trkpt lat="45.34758" lon="5.72134">
        <ele>1562.1</ele>
        <time>2021-12-19T12:43:29Z</time>
      </trkpt>
      <trkpt lat="45.34758" lon="5.72134">
        <ele>1562.1</ele>
        <time>2021-12-19T12:43:30Z</time>
      </trkpt>
      <trkpt lat="45.34758" lon="5.72134">
        <ele>1562.1</ele>
        <time>2021-12-19T12:43:31Z</time>
      </trkpt>
      <trkpt lat="45.34758" lon="5.72134">
        <ele>1562.1</ele>
        <time>2021-12-19T12:43:32Z</time>
      </trkpt>
      <trkpt lat="45.34758" lon="5.72134">
        <ele>1562.1</ele>
        <time>2021-12-19T12:43:33Z</time>
      </trkpt>
      <trkpt lat="45.34758" lon="5.72133">
        <ele>1562.1</ele>
        <time>2021-12-19T12:43:34Z</time>
      </trkpt>
      <trkpt lat="45.34758" lon="5.72133">
        <ele>1562.2</ele>
        <time>2021-12-19T12:43:35Z</time>
      </trkpt>
      <trkpt lat="45.34759" lon="5.72133">
        <ele>1562.2</ele>
        <time>2021-12-19T12:43:36Z</time>
      </trkpt>
      <trkpt lat="45.34759" lon="5.72133">
        <ele>1562.2</ele>
        <time>2021-12-19T12:43:37Z</time>
      </trkpt>
      <trkpt lat="45.34759" lon="5.72133">
        <ele>1562.2</ele>
        <time>2021-12-19T12:43:38Z</time>
      </trkpt>
      <trkpt lat="45.34759" lon="5.72133">
        <ele>1562.2</ele>
        <time>2021-12-19T12:43:39Z</time>
      </trkpt>
      <trkpt lat="45.34759" lon="5.72133">
        <ele>1562.2</ele>
        <time>2021-12-19T12:43:40Z</time>
      </trkpt>
      <trkpt lat="45.34759" lon="5.72133">
        <ele>1562.3</ele>
        <time>2021-12-19T12:43:41Z</time>
      </trkpt>
      <trkpt lat="45.34759" lon="5.72133">
        <ele>1562.3</ele>
        <time>2021-12-19T12:43:42Z</time>
      </trkpt>
      <trkpt lat="45.34759" lon="5.72133">
        <ele>1562.3</ele>
        <time>2021-12-19T12:43:43Z</time>
      </trkpt>
      <trkpt lat="45.3476" lon="5.72133">
        <ele>1562.3</ele>
        <time>2021-12-19T12:43:44Z</time>
      </trkpt>
      <trkpt lat="45.3476" lon="5.72134">
        <ele>1562.3</ele>
        <time>2021-12-19T12:43:45Z</time>
      </trkpt>
      <trkpt lat="45.3476" lon="5.72134">
        <ele>1562.4</ele>
        <time>2021-12-19T12:43:46Z</time>
      </trkpt>
      <trkpt lat="45.3476" lon="5.72134">
        <ele>1562.4</ele>
        <time>2021-12-19T12:43:47Z</time>
      </trkpt>
      <trkpt lat="45.34761" lon="5.72133">
        <ele>1562.4</ele>
        <time>2021-12-19T12:43:48Z</time>
      </trkpt>
      <trkpt lat="45.34761" lon="5.72133">
        <ele>1562.5</ele>
        <time>2021-12-19T12:43:49Z</time>
      </trkpt>
      <trkpt lat="45.34762" lon="5.72133">
        <ele>1562.5</ele>
        <time>2021-12-19T12:43:50Z</time>
      </trkpt>
      <trkpt lat="45.34762" lon="5.72134">
        <ele>1562.5</ele>
        <time>2021-12-19T12:43:51Z</time>
      </trkpt>
      <trkpt lat="45.34762" lon="5.72134">
        <ele>1562.6</ele>
        <time>2021-12-19T12:43:52Z</time>
      </trkpt>
      <trkpt lat="45.34762" lon="5.72135">
        <ele>1562.6</ele>
        <time>2021-12-19T12:43:53Z</time>
      </trkpt>
      <trkpt lat="45.34763" lon="5.72135">
        <ele>1562.7</ele>
        <time>2021-12-19T12:43:54Z</time>
      </trkpt>
      <trkpt lat="45.34763" lon="5.72136">
        <ele>1562.7</ele>
        <time>2021-12-19T12:43:55Z</time>
      </trkpt>
      <trkpt lat="45.34763" lon="5.72137">
        <ele>1562.7</ele>
        <time>2021-12-19T12:43:56Z</time>
      </trkpt>
      <trkpt lat="45.34763" lon="5.72138">
        <ele>1562.8</ele>
        <time>2021-12-19T12:43:57Z</time>
      </trkpt>
      <trkpt lat="45.34763" lon="5.72139">
        <ele>1562.8</ele>
        <time>2021-12-19T12:43:58Z</time>
      </trkpt>
      <trkpt lat="45.34763" lon="5.7214">
        <ele>1562.9</ele>
        <time>2021-12-19T12:43:59Z</time>
      </trkpt>
      <trkpt lat="45.34763" lon="5.7214">
        <ele>1563</ele>
        <time>2021-12-19T12:44:00Z</time>
      </trkpt>
      <trkpt lat="45.34764" lon="5.72141">
        <ele>1563</ele>
        <time>2021-12-19T12:44:01Z</time>
      </trkpt>
      <trkpt lat="45.34764" lon="5.72141">
        <ele>1563</ele>
        <time>2021-12-19T12:44:02Z</time>
      </trkpt>
      <trkpt lat="45.34764" lon="5.72142">
        <ele>1563.1</ele>
        <time>2021-12-19T12:44:03Z</time>
      </trkpt>
      <trkpt lat="45.34765" lon="5.72143">
        <ele>1563.1</ele>
        <time>2021-12-19T12:44:04Z</time>
      </trkpt>
      <trkpt lat="45.34765" lon="5.72144">
        <ele>1563.2</ele>
        <time>2021-12-19T12:44:05Z</time>
      </trkpt>
      <trkpt lat="45.34765" lon="5.72144">
        <ele>1563.2</ele>
        <time>2021-12-19T12:44:06Z</time>
      </trkpt>
      <trkpt lat="45.34765" lon="5.72144">
        <ele>1563.3</ele>
        <time>2021-12-19T12:44:07Z</time>
      </trkpt>
      <trkpt lat="45.34766" lon="5.72145">
        <ele>1563.3</ele>
        <time>2021-12-19T12:44:08Z</time>
      </trkpt>
      <trkpt lat="45.34766" lon="5.72146">
        <ele>1563.4</ele>
        <time>2021-12-19T12:44:09Z</time>
      </trkpt>
      <trkpt lat="45.34766" lon="5.72146">
        <ele>1563.4</ele>
        <time>2021-12-19T12:44:10Z</time>
      </trkpt>
      <trkpt lat="45.34767" lon="5.72146">
        <ele>1563.5</ele>
        <time>2021-12-19T12:44:11Z</time>
      </trkpt>
      <trkpt lat="45.34768" lon="5.72147">
        <ele>1563.5</ele>
        <time>2021-12-19T12:44:12Z</time>
      </trkpt>
      <trkpt lat="45.34768" lon="5.72148">
        <ele>1563.6</ele>
        <time>2021-12-19T12:44:13Z</time>
      </trkpt>
      <trkpt lat="45.34769" lon="5.72149">
        <ele>1563.7</ele>
        <time>2021-12-19T12:44:14Z</time>
      </trkpt>
      <trkpt lat="45.3477" lon="5.72149">
        <ele>1563.7</ele>
        <time>2021-12-19T12:44:15Z</time>
      </trkpt>
      <trkpt lat="45.3477" lon="5.72149">
        <ele>1563.8</ele>
        <time>2021-12-19T12:44:16Z</time>
      </trkpt>
      <trkpt lat="45.34771" lon="5.7215">
        <ele>1563.8</ele>
        <time>2021-12-19T12:44:17Z</time>
      </trkpt>
      <trkpt lat="45.34772" lon="5.7215">
        <ele>1563.9</ele>
        <time>2021-12-19T12:44:18Z</time>
      </trkpt>
      <trkpt lat="45.34772" lon="5.72151">
        <ele>1564</ele>
        <time>2021-12-19T12:44:19Z</time>
      </trkpt>
      <trkpt lat="45.34773" lon="5.72151">
        <ele>1564</ele>
        <time>2021-12-19T12:44:20Z</time>
      </trkpt>
      <trkpt lat="45.34773" lon="5.72151">
        <ele>1564.1</ele>
        <time>2021-12-19T12:44:21Z</time>
      </trkpt>
      <trkpt lat="45.34774" lon="5.72152">
        <ele>1564.2</ele>
        <time>2021-12-19T12:44:22Z</time>
      </trkpt>
      <trkpt lat="45.34775" lon="5.72152">
        <ele>1564.2</ele>
        <time>2021-12-19T12:44:23Z</time>
      </trkpt>
      <trkpt lat="45.34776" lon="5.72153">
        <ele>1564.3</ele>
        <time>2021-12-19T12:44:24Z</time>
      </trkpt>
      <trkpt lat="45.34776" lon="5.72153">
        <ele>1564.3</ele>
        <time>2021-12-19T12:44:25Z</time>
      </trkpt>
      <trkpt lat="45.34777" lon="5.72153">
        <ele>1564.4</ele>
        <time>2021-12-19T12:44:26Z</time>
      </trkpt>
      <trkpt lat="45.34777" lon="5.72154">
        <ele>1564.5</ele>
        <time>2021-12-19T12:44:27Z</time>
      </trkpt>
      <trkpt lat="45.34778" lon="5.72154">
        <ele>1564.5</ele>
        <time>2021-12-19T12:44:28Z</time>
      </trkpt>
      <trkpt lat="45.34779" lon="5.72155">
        <ele>1564.6</ele>
        <time>2021-12-19T12:44:29Z</time>
      </trkpt>
      <trkpt lat="45.34779" lon="5.72154">
        <ele>1564.6</ele>
        <time>2021-12-19T12:44:30Z</time>
      </trkpt>
      <trkpt lat="45.3478" lon="5.72155">
        <ele>1564.7</ele>
        <time>2021-12-19T12:44:31Z</time>
      </trkpt>
      <trkpt lat="45.34781" lon="5.72155">
        <ele>1564.8</ele>
        <time>2021-12-19T12:44:32Z</time>
      </trkpt>
      <trkpt lat="45.34782" lon="5.72155">
        <ele>1564.8</ele>
        <time>2021-12-19T12:44:33Z</time>
      </trkpt>
      <trkpt lat="45.34783" lon="5.72155">
        <ele>1564.9</ele>
        <time>2021-12-19T12:44:34Z</time>
      </trkpt>
      <trkpt lat="45.34784" lon="5.72156">
        <ele>1565</ele>
        <time>2021-12-19T12:44:35Z</time>
      </trkpt>
      <trkpt lat="45.34785" lon="5.72156">
        <ele>1565.1</ele>
        <time>2021-12-19T12:44:36Z</time>
      </trkpt>
      <trkpt lat="45.34786" lon="5.72156">
        <ele>1565.2</ele>
        <time>2021-12-19T12:44:37Z</time>
      </trkpt>
      <trkpt lat="45.34787" lon="5.72157">
        <ele>1565.3</ele>
        <time>2021-12-19T12:44:38Z</time>
      </trkpt>
      <trkpt lat="45.34787" lon="5.72157">
        <ele>1565.3</ele>
        <time>2021-12-19T12:44:39Z</time>
      </trkpt>
      <trkpt lat="45.34788" lon="5.72158">
        <ele>1565.4</ele>
        <time>2021-12-19T12:44:40Z</time>
      </trkpt>
      <trkpt lat="45.34789" lon="5.72158">
        <ele>1565.5</ele>
        <time>2021-12-19T12:44:41Z</time>
      </trkpt>
      <trkpt lat="45.3479" lon="5.72158">
        <ele>1565.6</ele>
        <time>2021-12-19T12:44:42Z</time>
      </trkpt>
      <trkpt lat="45.34791" lon="5.72159">
        <ele>1565.7</ele>
        <time>2021-12-19T12:44:43Z</time>
      </trkpt>
      <trkpt lat="45.34792" lon="5.72159">
        <ele>1565.8</ele>
        <time>2021-12-19T12:44:44Z</time>
      </trkpt>
      <trkpt lat="45.34793" lon="5.7216">
        <ele>1565.9</ele>
        <time>2021-12-19T12:44:45Z</time>
      </trkpt>
      <trkpt lat="45.34795" lon="5.72161">
        <ele>1566</ele>
        <time>2021-12-19T12:44:46Z</time>
      </trkpt>
      <trkpt lat="45.34796" lon="5.72162">
        <ele>1566.1</ele>
        <time>2021-12-19T12:44:47Z</time>
      </trkpt>
      <trkpt lat="45.34798" lon="5.72163">
        <ele>1566.3</ele>
        <time>2021-12-19T12:44:48Z</time>
      </trkpt>
      <trkpt lat="45.34799" lon="5.72165">
        <ele>1566.4</ele>
        <time>2021-12-19T12:44:49Z</time>
      </trkpt>
      <trkpt lat="45.348" lon="5.72166">
        <ele>1566.5</ele>
        <time>2021-12-19T12:44:50Z</time>
      </trkpt>
      <trkpt lat="45.34801" lon="5.72166">
        <ele>1566.6</ele>
        <time>2021-12-19T12:44:51Z</time>
      </trkpt>
      <trkpt lat="45.34802" lon="5.72167">
        <ele>1566.7</ele>
        <time>2021-12-19T12:44:52Z</time>
      </trkpt>
      <trkpt lat="45.34803" lon="5.72168">
        <ele>1566.8</ele>
        <time>2021-12-19T12:44:53Z</time>
      </trkpt>
      <trkpt lat="45.34804" lon="5.72169">
        <ele>1566.9</ele>
        <time>2021-12-19T12:44:54Z</time>
      </trkpt>
      <trkpt lat="45.34805" lon="5.7217">
        <ele>1567</ele>
        <time>2021-12-19T12:44:55Z</time>
      </trkpt>
      <trkpt lat="45.34806" lon="5.72171">
        <ele>1567.1</ele>
        <time>2021-12-19T12:44:56Z</time>
      </trkpt>
      <trkpt lat="45.34806" lon="5.72172">
        <ele>1567.2</ele>
        <time>2021-12-19T12:44:57Z</time>
      </trkpt>
      <trkpt lat="45.34807" lon="5.72173">
        <ele>1567.3</ele>
        <time>2021-12-19T12:44:58Z</time>
      </trkpt>
      <trkpt lat="45.34809" lon="5.72174">
        <ele>1567.4</ele>
        <time>2021-12-19T12:44:59Z</time>
      </trkpt>
      <trkpt lat="45.3481" lon="5.72175">
        <ele>1567.5</ele>
        <time>2021-12-19T12:45:00Z</time>
      </trkpt>
      <trkpt lat="45.34811" lon="5.72176">
        <ele>1567.6</ele>
        <time>2021-12-19T12:45:01Z</time>
      </trkpt>
      <trkpt lat="45.34812" lon="5.72177">
        <ele>1567.7</ele>
        <time>2021-12-19T12:45:02Z</time>
      </trkpt>
      <trkpt lat="45.34813" lon="5.72178">
        <ele>1567.8</ele>
        <time>2021-12-19T12:45:03Z</time>
      </trkpt>
      <trkpt lat="45.34814" lon="5.72178">
        <ele>1567.9</ele>
        <time>2021-12-19T12:45:04Z</time>
      </trkpt>
      <trkpt lat="45.34815" lon="5.72178">
        <ele>1568</ele>
        <time>2021-12-19T12:45:05Z</time>
      </trkpt>
      <trkpt lat="45.34815" lon="5.72179">
        <ele>1568</ele>
        <time>2021-12-19T12:45:06Z</time>
      </trkpt>
      <trkpt lat="45.34816" lon="5.72179">
        <ele>1568.1</ele>
        <time>2021-12-19T12:45:07Z</time>
      </trkpt>
      <trkpt lat="45.34816" lon="5.72178">
        <ele>1568.1</ele>
        <time>2021-12-19T12:45:08Z</time>
      </trkpt>
      <trkpt lat="45.34817" lon="5.72178">
        <ele>1568.2</ele>
        <time>2021-12-19T12:45:09Z</time>
      </trkpt>
      <trkpt lat="45.34818" lon="5.72178">
        <ele>1568.2</ele>
        <time>2021-12-19T12:45:10Z</time>
      </trkpt>
      <trkpt lat="45.34818" lon="5.72177">
        <ele>1568.3</ele>
        <time>2021-12-19T12:45:11Z</time>
      </trkpt>
      <trkpt lat="45.34819" lon="5.72177">
        <ele>1568.4</ele>
        <time>2021-12-19T12:45:12Z</time>
      </trkpt>
      <trkpt lat="45.3482" lon="5.72176">
        <ele>1568.5</ele>
        <time>2021-12-19T12:45:13Z</time>
      </trkpt>
      <trkpt lat="45.34821" lon="5.72175">
        <ele>1568.5</ele>
        <time>2021-12-19T12:45:14Z</time>
      </trkpt>
      <trkpt lat="45.34822" lon="5.72174">
        <ele>1568.6</ele>
        <time>2021-12-19T12:45:15Z</time>
      </trkpt>
      <trkpt lat="45.34822" lon="5.72174">
        <ele>1568.7</ele>
        <time>2021-12-19T12:45:16Z</time>
      </trkpt>
      <trkpt lat="45.34823" lon="5.72173">
        <ele>1568.7</ele>
        <time>2021-12-19T12:45:17Z</time>
      </trkpt>
      <trkpt lat="45.34823" lon="5.72172">
        <ele>1568.8</ele>
        <time>2021-12-19T12:45:18Z</time>
      </trkpt>
      <trkpt lat="45.34824" lon="5.72171">
        <ele>1568.9</ele>
        <time>2021-12-19T12:45:19Z</time>
      </trkpt>
      <trkpt lat="45.34825" lon="5.72171">
        <ele>1569</ele>
        <time>2021-12-19T12:45:20Z</time>
      </trkpt>
      <trkpt lat="45.34826" lon="5.7217">
        <ele>1569.1</ele>
        <time>2021-12-19T12:45:21Z</time>
      </trkpt>
      <trkpt lat="45.34827" lon="5.72169">
        <ele>1569.1</ele>
        <time>2021-12-19T12:45:22Z</time>
      </trkpt>
      <trkpt lat="45.34827" lon="5.72168">
        <ele>1569.2</ele>
        <time>2021-12-19T12:45:23Z</time>
      </trkpt>
      <trkpt lat="45.34828" lon="5.72167">
        <ele>1569.3</ele>
        <time>2021-12-19T12:45:24Z</time>
      </trkpt>
      <trkpt lat="45.34829" lon="5.72166">
        <ele>1569.4</ele>
        <time>2021-12-19T12:45:25Z</time>
      </trkpt>
      <trkpt lat="45.3483" lon="5.72166">
        <ele>1569.5</ele>
        <time>2021-12-19T12:45:26Z</time>
      </trkpt>
      <trkpt lat="45.34831" lon="5.72166">
        <ele>1569.5</ele>
        <time>2021-12-19T12:45:27Z</time>
      </trkpt>
      <trkpt lat="45.34832" lon="5.72165">
        <ele>1569.6</ele>
        <time>2021-12-19T12:45:28Z</time>
      </trkpt>
      <trkpt lat="45.34833" lon="5.72165">
        <ele>1569.7</ele>
        <time>2021-12-19T12:45:29Z</time>
      </trkpt>
      <trkpt lat="45.34834" lon="5.72165">
        <ele>1569.8</ele>
        <time>2021-12-19T12:45:30Z</time>
      </trkpt>
      <trkpt lat="45.34834" lon="5.72165">
        <ele>1569.9</ele>
        <time>2021-12-19T12:45:31Z</time>
      </trkpt>
      <trkpt lat="45.34835" lon="5.72165">
        <ele>1569.9</ele>
        <time>2021-12-19T12:45:32Z</time>
      </trkpt>
      <trkpt lat="45.34836" lon="5.72165">
        <ele>1570</ele>
        <time>2021-12-19T12:45:33Z</time>
      </trkpt>
      <trkpt lat="45.34837" lon="5.72164">
        <ele>1570.1</ele>
        <time>2021-12-19T12:45:34Z</time>
      </trkpt>
      <trkpt lat="45.34838" lon="5.72165">
        <ele>1570.2</ele>
        <time>2021-12-19T12:45:35Z</time>
      </trkpt>
      <trkpt lat="45.34839" lon="5.72165">
        <ele>1570.3</ele>
        <time>2021-12-19T12:45:36Z</time>
      </trkpt>
      <trkpt lat="45.3484" lon="5.72165">
        <ele>1570.4</ele>
        <time>2021-12-19T12:45:37Z</time>
      </trkpt>
      <trkpt lat="45.34841" lon="5.72165">
        <ele>1570.5</ele>
        <time>2021-12-19T12:45:38Z</time>
      </trkpt>
      <trkpt lat="45.34842" lon="5.72164">
        <ele>1570.5</ele>
        <time>2021-12-19T12:45:39Z</time>
      </trkpt>
      <trkpt lat="45.34843" lon="5.72165">
        <ele>1570.6</ele>
        <time>2021-12-19T12:45:40Z</time>
      </trkpt>
      <trkpt lat="45.34845" lon="5.72165">
        <ele>1570.7</ele>
        <time>2021-12-19T12:45:41Z</time>
      </trkpt>
      <trkpt lat="45.34846" lon="5.72166">
        <ele>1570.8</ele>
        <time>2021-12-19T12:45:42Z</time>
      </trkpt>
      <trkpt lat="45.34846" lon="5.72166">
        <ele>1570.9</ele>
        <time>2021-12-19T12:45:43Z</time>
      </trkpt>
      <trkpt lat="45.34847" lon="5.72166">
        <ele>1570.9</ele>
        <time>2021-12-19T12:45:44Z</time>
      </trkpt>
      <trkpt lat="45.34848" lon="5.72166">
        <ele>1571</ele>
        <time>2021-12-19T12:45:45Z</time>
      </trkpt>
      <trkpt lat="45.34849" lon="5.72167">
        <ele>1571.1</ele>
        <time>2021-12-19T12:45:46Z</time>
      </trkpt>
      <trkpt lat="45.3485" lon="5.72167">
        <ele>1571.2</ele>
        <time>2021-12-19T12:45:47Z</time>
      </trkpt>
      <trkpt lat="45.34851" lon="5.72168">
        <ele>1571.3</ele>
        <time>2021-12-19T12:45:48Z</time>
      </trkpt>
      <trkpt lat="45.34852" lon="5.72168">
        <ele>1571.4</ele>
        <time>2021-12-19T12:45:49Z</time>
      </trkpt>
      <trkpt lat="45.34853" lon="5.72168">
        <ele>1571.4</ele>
        <time>2021-12-19T12:45:50Z</time>
      </trkpt>
      <trkpt lat="45.34854" lon="5.72168">
        <ele>1571.5</ele>
        <time>2021-12-19T12:45:51Z</time>
      </trkpt>
      <trkpt lat="45.34855" lon="5.72169">
        <ele>1571.6</ele>
        <time>2021-12-19T12:45:52Z</time>
      </trkpt>
      <trkpt lat="45.34856" lon="5.72171">
        <ele>1571.7</ele>
        <time>2021-12-19T12:45:53Z</time>
      </trkpt>
      <trkpt lat="45.34856" lon="5.72172">
        <ele>1571.8</ele>
        <time>2021-12-19T12:45:54Z</time>
      </trkpt>
      <trkpt lat="45.34857" lon="5.72173">
        <ele>1571.9</ele>
        <time>2021-12-19T12:45:55Z</time>
      </trkpt>
      <trkpt lat="45.34858" lon="5.72175">
        <ele>1572.1</ele>
        <time>2021-12-19T12:45:56Z</time>
      </trkpt>
      <trkpt lat="45.34859" lon="5.72176">
        <ele>1572.2</ele>
        <time>2021-12-19T12:45:57Z</time>
      </trkpt>
      <trkpt lat="45.3486" lon="5.72178">
        <ele>1572.3</ele>
        <time>2021-12-19T12:45:58Z</time>
      </trkpt>
      <trkpt lat="45.34862" lon="5.72179">
        <ele>1572.4</ele>
        <time>2021-12-19T12:45:59Z</time>
      </trkpt>
      <trkpt lat="45.34863" lon="5.7218">
        <ele>1572.5</ele>
        <time>2021-12-19T12:46:00Z</time>
      </trkpt>
      <trkpt lat="45.34864" lon="5.72181">
        <ele>1572.7</ele>
        <time>2021-12-19T12:46:01Z</time>
      </trkpt>
      <trkpt lat="45.34865" lon="5.72182">
        <ele>1572.8</ele>
        <time>2021-12-19T12:46:02Z</time>
      </trkpt>
      <trkpt lat="45.34866" lon="5.72182">
        <ele>1572.8</ele>
        <time>2021-12-19T12:46:03Z</time>
      </trkpt>
      <trkpt lat="45.34867" lon="5.72183">
        <ele>1572.9</ele>
        <time>2021-12-19T12:46:04Z</time>
      </trkpt>
      <trkpt lat="45.34868" lon="5.72183">
        <ele>1573</ele>
        <time>2021-12-19T12:46:05Z</time>
      </trkpt>
      <trkpt lat="45.34869" lon="5.72183">
        <ele>1573.1</ele>
        <time>2021-12-19T12:46:06Z</time>
      </trkpt>
      <trkpt lat="45.3487" lon="5.72183">
        <ele>1573.2</ele>
        <time>2021-12-19T12:46:07Z</time>
      </trkpt>
      <trkpt lat="45.3487" lon="5.72183">
        <ele>1573.2</ele>
        <time>2021-12-19T12:46:08Z</time>
      </trkpt>
      <trkpt lat="45.34871" lon="5.72183">
        <ele>1573.3</ele>
        <time>2021-12-19T12:46:09Z</time>
      </trkpt>
      <trkpt lat="45.34872" lon="5.72183">
        <ele>1573.4</ele>
        <time>2021-12-19T12:46:10Z</time>
      </trkpt>
      <trkpt lat="45.34873" lon="5.72183">
        <ele>1573.4</ele>
        <time>2021-12-19T12:46:11Z</time>
      </trkpt>
      <trkpt lat="45.34874" lon="5.72183">
        <ele>1573.5</ele>
        <time>2021-12-19T12:46:12Z</time>
      </trkpt>
      <trkpt lat="45.34875" lon="5.72183">
        <ele>1573.6</ele>
        <time>2021-12-19T12:46:13Z</time>
      </trkpt>
      <trkpt lat="45.34876" lon="5.72184">
        <ele>1573.7</ele>
        <time>2021-12-19T12:46:14Z</time>
      </trkpt>
      <trkpt lat="45.34877" lon="5.72184">
        <ele>1573.8</ele>
        <time>2021-12-19T12:46:15Z</time>
      </trkpt>
      <trkpt lat="45.34878" lon="5.72185">
        <ele>1573.9</ele>
        <time>2021-12-19T12:46:16Z</time>
      </trkpt>
      <trkpt lat="45.34879" lon="5.72185">
        <ele>1573.9</ele>
        <time>2021-12-19T12:46:17Z</time>
      </trkpt>
      <trkpt lat="45.3488" lon="5.72185">
        <ele>1574.1</ele>
        <time>2021-12-19T12:46:18Z</time>
      </trkpt>
      <trkpt lat="45.34881" lon="5.72186">
        <ele>1574.2</ele>
        <time>2021-12-19T12:46:19Z</time>
      </trkpt>
      <trkpt lat="45.34882" lon="5.72187">
        <ele>1574.3</ele>
        <time>2021-12-19T12:46:20Z</time>
      </trkpt>
      <trkpt lat="45.34883" lon="5.72188">
        <ele>1574.4</ele>
        <time>2021-12-19T12:46:21Z</time>
      </trkpt>
      <trkpt lat="45.34884" lon="5.72189">
        <ele>1574.4</ele>
        <time>2021-12-19T12:46:22Z</time>
      </trkpt>
      <trkpt lat="45.34885" lon="5.7219">
        <ele>1574.5</ele>
        <time>2021-12-19T12:46:23Z</time>
      </trkpt>
      <trkpt lat="45.34885" lon="5.72191">
        <ele>1574.6</ele>
        <time>2021-12-19T12:46:24Z</time>
      </trkpt>
      <trkpt lat="45.34886" lon="5.72192">
        <ele>1574.7</ele>
        <time>2021-12-19T12:46:25Z</time>
      </trkpt>
      <trkpt lat="45.34888" lon="5.72193">
        <ele>1574.8</ele>
        <time>2021-12-19T12:46:26Z</time>
      </trkpt>
      <trkpt lat="45.34888" lon="5.72193">
        <ele>1574.9</ele>
        <time>2021-12-19T12:46:27Z</time>
      </trkpt>
      <trkpt lat="45.34889" lon="5.72193">
        <ele>1574.9</ele>
        <time>2021-12-19T12:46:28Z</time>
      </trkpt>
      <trkpt lat="45.3489" lon="5.72193">
        <ele>1575</ele>
        <time>2021-12-19T12:46:29Z</time>
      </trkpt>
      <trkpt lat="45.3489" lon="5.72194">
        <ele>1575.1</ele>
        <time>2021-12-19T12:46:30Z</time>
      </trkpt>
      <trkpt lat="45.34891" lon="5.72194">
        <ele>1575.1</ele>
        <time>2021-12-19T12:46:31Z</time>
      </trkpt>
      <trkpt lat="45.34892" lon="5.72194">
        <ele>1575.2</ele>
        <time>2021-12-19T12:46:32Z</time>
      </trkpt>
      <trkpt lat="45.34892" lon="5.72194">
        <ele>1575.3</ele>
        <time>2021-12-19T12:46:33Z</time>
      </trkpt>
      <trkpt lat="45.34893" lon="5.72193">
        <ele>1575.3</ele>
        <time>2021-12-19T12:46:34Z</time>
      </trkpt>
      <trkpt lat="45.34894" lon="5.72193">
        <ele>1575.4</ele>
        <time>2021-12-19T12:46:35Z</time>
      </trkpt>
      <trkpt lat="45.34895" lon="5.72192">
        <ele>1575.5</ele>
        <time>2021-12-19T12:46:36Z</time>
      </trkpt>
      <trkpt lat="45.34896" lon="5.72192">
        <ele>1575.6</ele>
        <time>2021-12-19T12:46:37Z</time>
      </trkpt>
      <trkpt lat="45.34897" lon="5.72191">
        <ele>1575.7</ele>
        <time>2021-12-19T12:46:38Z</time>
      </trkpt>
      <trkpt lat="45.34898" lon="5.72191">
        <ele>1575.7</ele>
        <time>2021-12-19T12:46:39Z</time>
      </trkpt>
      <trkpt lat="45.34898" lon="5.72191">
        <ele>1575.8</ele>
        <time>2021-12-19T12:46:40Z</time>
      </trkpt>
      <trkpt lat="45.34899" lon="5.7219">
        <ele>1575.9</ele>
        <time>2021-12-19T12:46:41Z</time>
      </trkpt>
      <trkpt lat="45.349" lon="5.72189">
        <ele>1575.9</ele>
        <time>2021-12-19T12:46:42Z</time>
      </trkpt>
      <trkpt lat="45.34901" lon="5.7219">
        <ele>1576</ele>
        <time>2021-12-19T12:46:43Z</time>
      </trkpt>
      <trkpt lat="45.34902" lon="5.72189">
        <ele>1576.1</ele>
        <time>2021-12-19T12:46:44Z</time>
      </trkpt>
      <trkpt lat="45.34903" lon="5.72189">
        <ele>1576.2</ele>
        <time>2021-12-19T12:46:45Z</time>
      </trkpt>
      <trkpt lat="45.34903" lon="5.72188">
        <ele>1576.3</ele>
        <time>2021-12-19T12:46:46Z</time>
      </trkpt>
      <trkpt lat="45.34904" lon="5.72187">
        <ele>1576.4</ele>
        <time>2021-12-19T12:46:47Z</time>
      </trkpt>
      <trkpt lat="45.34905" lon="5.72185">
        <ele>1576.5</ele>
        <time>2021-12-19T12:46:48Z</time>
      </trkpt>
      <trkpt lat="45.34906" lon="5.72184">
        <ele>1576.6</ele>
        <time>2021-12-19T12:46:49Z</time>
      </trkpt>
      <trkpt lat="45.34906" lon="5.72183">
        <ele>1576.6</ele>
        <time>2021-12-19T12:46:50Z</time>
      </trkpt>
      <trkpt lat="45.34907" lon="5.72183">
        <ele>1576.7</ele>
        <time>2021-12-19T12:46:51Z</time>
      </trkpt>
      <trkpt lat="45.34908" lon="5.72182">
        <ele>1576.8</ele>
        <time>2021-12-19T12:46:52Z</time>
      </trkpt>
      <trkpt lat="45.34908" lon="5.72182">
        <ele>1576.8</ele>
        <time>2021-12-19T12:46:53Z</time>
      </trkpt>
      <trkpt lat="45.34909" lon="5.72182">
        <ele>1576.9</ele>
        <time>2021-12-19T12:46:54Z</time>
      </trkpt>
      <trkpt lat="45.3491" lon="5.72182">
        <ele>1577</ele>
        <time>2021-12-19T12:46:55Z</time>
      </trkpt>
      <trkpt lat="45.34911" lon="5.72182">
        <ele>1577</ele>
        <time>2021-12-19T12:46:56Z</time>
      </trkpt>
      <trkpt lat="45.34911" lon="5.72181">
        <ele>1577.1</ele>
        <time>2021-12-19T12:46:57Z</time>
      </trkpt>
      <trkpt lat="45.34912" lon="5.7218">
        <ele>1577.2</ele>
        <time>2021-12-19T12:46:58Z</time>
      </trkpt>
      <trkpt lat="45.34912" lon="5.72179">
        <ele>1577.3</ele>
        <time>2021-12-19T12:46:59Z</time>
      </trkpt>
      <trkpt lat="45.34913" lon="5.72178">
        <ele>1577.3</ele>
        <time>2021-12-19T12:47:00Z</time>
      </trkpt>
      <trkpt lat="45.34913" lon="5.72178">
        <ele>1577.4</ele>
        <time>2021-12-19T12:47:01Z</time>
      </trkpt>
      <trkpt lat="45.34914" lon="5.72177">
        <ele>1577.4</ele>
        <time>2021-12-19T12:47:02Z</time>
      </trkpt>
      <trkpt lat="45.34915" lon="5.72176">
        <ele>1577.5</ele>
        <time>2021-12-19T12:47:03Z</time>
      </trkpt>
      <trkpt lat="45.34915" lon="5.72175">
        <ele>1577.6</ele>
        <time>2021-12-19T12:47:04Z</time>
      </trkpt>
      <trkpt lat="45.34916" lon="5.72174">
        <ele>1577.7</ele>
        <time>2021-12-19T12:47:05Z</time>
      </trkpt>
      <trkpt lat="45.34917" lon="5.72173">
        <ele>1577.7</ele>
        <time>2021-12-19T12:47:06Z</time>
      </trkpt>
      <trkpt lat="45.34918" lon="5.72173">
        <ele>1577.8</ele>
        <time>2021-12-19T12:47:07Z</time>
      </trkpt>
      <trkpt lat="45.34918" lon="5.72172">
        <ele>1577.9</ele>
        <time>2021-12-19T12:47:08Z</time>
      </trkpt>
      <trkpt lat="45.34919" lon="5.72171">
        <ele>1578</ele>
        <time>2021-12-19T12:47:09Z</time>
      </trkpt>
      <trkpt lat="45.3492" lon="5.7217">
        <ele>1578.1</ele>
        <time>2021-12-19T12:47:10Z</time>
      </trkpt>
      <trkpt lat="45.34921" lon="5.7217">
        <ele>1578.2</ele>
        <time>2021-12-19T12:47:11Z</time>
      </trkpt>
      <trkpt lat="45.34922" lon="5.72171">
        <ele>1578.3</ele>
        <time>2021-12-19T12:47:12Z</time>
      </trkpt>
      <trkpt lat="45.34923" lon="5.7217">
        <ele>1578.3</ele>
        <time>2021-12-19T12:47:13Z</time>
      </trkpt>
      <trkpt lat="45.34924" lon="5.7217">
        <ele>1578.4</ele>
        <time>2021-12-19T12:47:14Z</time>
      </trkpt>
      <trkpt lat="45.34924" lon="5.7217">
        <ele>1578.5</ele>
        <time>2021-12-19T12:47:15Z</time>
      </trkpt>
      <trkpt lat="45.34925" lon="5.7217">
        <ele>1578.6</ele>
        <time>2021-12-19T12:47:16Z</time>
      </trkpt>
      <trkpt lat="45.34926" lon="5.7217">
        <ele>1578.6</ele>
        <time>2021-12-19T12:47:17Z</time>
      </trkpt>
      <trkpt lat="45.34927" lon="5.72169">
        <ele>1578.7</ele>
        <time>2021-12-19T12:47:18Z</time>
      </trkpt>
      <trkpt lat="45.34928" lon="5.7217">
        <ele>1578.7</ele>
        <time>2021-12-19T12:47:19Z</time>
      </trkpt>
      <trkpt lat="45.34928" lon="5.72169">
        <ele>1578.8</ele>
        <time>2021-12-19T12:47:20Z</time>
      </trkpt>
      <trkpt lat="45.34929" lon="5.72169">
        <ele>1578.9</ele>
        <time>2021-12-19T12:47:21Z</time>
      </trkpt>
      <trkpt lat="45.3493" lon="5.72169">
        <ele>1578.9</ele>
        <time>2021-12-19T12:47:22Z</time>
      </trkpt>
      <trkpt lat="45.34931" lon="5.72169">
        <ele>1579</ele>
        <time>2021-12-19T12:47:23Z</time>
      </trkpt>
      <trkpt lat="45.34932" lon="5.72169">
        <ele>1579.1</ele>
        <time>2021-12-19T12:47:24Z</time>
      </trkpt>
      <trkpt lat="45.34933" lon="5.72169">
        <ele>1579.2</ele>
        <time>2021-12-19T12:47:25Z</time>
      </trkpt>
      <trkpt lat="45.34933" lon="5.72169">
        <ele>1579.2</ele>
        <time>2021-12-19T12:47:26Z</time>
      </trkpt>
      <trkpt lat="45.34934" lon="5.72169">
        <ele>1579.3</ele>
        <time>2021-12-19T12:47:27Z</time>
      </trkpt>
      <trkpt lat="45.34935" lon="5.72169">
        <ele>1579.4</ele>
        <time>2021-12-19T12:47:28Z</time>
      </trkpt>
      <trkpt lat="45.34936" lon="5.72169">
        <ele>1579.5</ele>
        <time>2021-12-19T12:47:29Z</time>
      </trkpt>
      <trkpt lat="45.34937" lon="5.72169">
        <ele>1579.5</ele>
        <time>2021-12-19T12:47:30Z</time>
      </trkpt>
      <trkpt lat="45.34938" lon="5.72169">
        <ele>1579.6</ele>
        <time>2021-12-19T12:47:31Z</time>
      </trkpt>
      <trkpt lat="45.34938" lon="5.72169">
        <ele>1579.7</ele>
        <time>2021-12-19T12:47:32Z</time>
      </trkpt>
      <trkpt lat="45.34939" lon="5.72169">
        <ele>1579.8</ele>
        <time>2021-12-19T12:47:33Z</time>
      </trkpt>
      <trkpt lat="45.34941" lon="5.72168">
        <ele>1579.9</ele>
        <time>2021-12-19T12:47:34Z</time>
      </trkpt>
      <trkpt lat="45.34942" lon="5.72168">
        <ele>1579.9</ele>
        <time>2021-12-19T12:47:35Z</time>
      </trkpt>
      <trkpt lat="45.34943" lon="5.72168">
        <ele>1580</ele>
        <time>2021-12-19T12:47:36Z</time>
      </trkpt>
      <trkpt lat="45.34944" lon="5.72167">
        <ele>1580.1</ele>
        <time>2021-12-19T12:47:37Z</time>
      </trkpt>
      <trkpt lat="45.34945" lon="5.72167">
        <ele>1580.3</ele>
        <time>2021-12-19T12:47:38Z</time>
      </trkpt>
      <trkpt lat="45.34947" lon="5.72167">
        <ele>1580.4</ele>
        <time>2021-12-19T12:47:39Z</time>
      </trkpt>
      <trkpt lat="45.34948" lon="5.72166">
        <ele>1580.5</ele>
        <time>2021-12-19T12:47:40Z</time>
      </trkpt>
      <trkpt lat="45.34949" lon="5.72166">
        <ele>1580.6</ele>
        <time>2021-12-19T12:47:41Z</time>
      </trkpt>
      <trkpt lat="45.34951" lon="5.72165">
        <ele>1580.7</ele>
        <time>2021-12-19T12:47:42Z</time>
      </trkpt>
      <trkpt lat="45.34952" lon="5.72165">
        <ele>1580.9</ele>
        <time>2021-12-19T12:47:43Z</time>
      </trkpt>
      <trkpt lat="45.34954" lon="5.72164">
        <ele>1581</ele>
        <time>2021-12-19T12:47:44Z</time>
      </trkpt>
      <trkpt lat="45.34955" lon="5.72164">
        <ele>1581.1</ele>
        <time>2021-12-19T12:47:45Z</time>
      </trkpt>
      <trkpt lat="45.34957" lon="5.72164">
        <ele>1581.2</ele>
        <time>2021-12-19T12:47:46Z</time>
      </trkpt>
      <trkpt lat="45.34958" lon="5.72164">
        <ele>1581.3</ele>
        <time>2021-12-19T12:47:47Z</time>
      </trkpt>
      <trkpt lat="45.34959" lon="5.72163">
        <ele>1581.4</ele>
        <time>2021-12-19T12:47:48Z</time>
      </trkpt>
      <trkpt lat="45.34961" lon="5.72163">
        <ele>1581.6</ele>
        <time>2021-12-19T12:47:49Z</time>
      </trkpt>
      <trkpt lat="45.34962" lon="5.72162">
        <ele>1581.7</ele>
        <time>2021-12-19T12:47:50Z</time>
      </trkpt>
      <trkpt lat="45.34963" lon="5.72161">
        <ele>1581.8</ele>
        <time>2021-12-19T12:47:51Z</time>
      </trkpt>
      <trkpt lat="45.34964" lon="5.7216">
        <ele>1581.9</ele>
        <time>2021-12-19T12:47:52Z</time>
      </trkpt>
      <trkpt lat="45.34965" lon="5.72159">
        <ele>1582</ele>
        <time>2021-12-19T12:47:53Z</time>
      </trkpt>
      <trkpt lat="45.34966" lon="5.72158">
        <ele>1582.1</ele>
        <time>2021-12-19T12:47:54Z</time>
      </trkpt>
      <trkpt lat="45.34967" lon="5.72157">
        <ele>1582.2</ele>
        <time>2021-12-19T12:47:55Z</time>
      </trkpt>
      <trkpt lat="45.34968" lon="5.72156">
        <ele>1582.3</ele>
        <time>2021-12-19T12:47:56Z</time>
      </trkpt>
      <trkpt lat="45.34969" lon="5.72156">
        <ele>1582.4</ele>
        <time>2021-12-19T12:47:57Z</time>
      </trkpt>
      <trkpt lat="45.3497" lon="5.72156">
        <ele>1582.5</ele>
        <time>2021-12-19T12:47:58Z</time>
      </trkpt>
      <trkpt lat="45.34972" lon="5.72155">
        <ele>1582.7</ele>
        <time>2021-12-19T12:47:59Z</time>
      </trkpt>
      <trkpt lat="45.34973" lon="5.72155">
        <ele>1582.7</ele>
        <time>2021-12-19T12:48:00Z</time>
      </trkpt>
      <trkpt lat="45.34975" lon="5.72156">
        <ele>1582.9</ele>
        <time>2021-12-19T12:48:01Z</time>
      </trkpt>
      <trkpt lat="45.34976" lon="5.72156">
        <ele>1583</ele>
        <time>2021-12-19T12:48:02Z</time>
      </trkpt>
      <trkpt lat="45.34977" lon="5.72156">
        <ele>1583.1</ele>
        <time>2021-12-19T12:48:03Z</time>
      </trkpt>
      <trkpt lat="45.34979" lon="5.72157">
        <ele>1583.2</ele>
        <time>2021-12-19T12:48:04Z</time>
      </trkpt>
      <trkpt lat="45.3498" lon="5.72157">
        <ele>1583.3</ele>
        <time>2021-12-19T12:48:05Z</time>
      </trkpt>
      <trkpt lat="45.34981" lon="5.72158">
        <ele>1583.4</ele>
        <time>2021-12-19T12:48:06Z</time>
      </trkpt>
      <trkpt lat="45.34982" lon="5.72158">
        <ele>1583.6</ele>
        <time>2021-12-19T12:48:07Z</time>
      </trkpt>
      <trkpt lat="45.34983" lon="5.72158">
        <ele>1583.6</ele>
        <time>2021-12-19T12:48:08Z</time>
      </trkpt>
      <trkpt lat="45.34984" lon="5.72159">
        <ele>1583.7</ele>
        <time>2021-12-19T12:48:09Z</time>
      </trkpt>
      <trkpt lat="45.34985" lon="5.72159">
        <ele>1583.8</ele>
        <time>2021-12-19T12:48:10Z</time>
      </trkpt>
      <trkpt lat="45.34987" lon="5.72159">
        <ele>1583.9</ele>
        <time>2021-12-19T12:48:11Z</time>
      </trkpt>
      <trkpt lat="45.34987" lon="5.72159">
        <ele>1584</ele>
        <time>2021-12-19T12:48:12Z</time>
      </trkpt>
      <trkpt lat="45.34989" lon="5.7216">
        <ele>1584.1</ele>
        <time>2021-12-19T12:48:13Z</time>
      </trkpt>
      <trkpt lat="45.3499" lon="5.7216">
        <ele>1584.2</ele>
        <time>2021-12-19T12:48:14Z</time>
      </trkpt>
      <trkpt lat="45.34991" lon="5.7216">
        <ele>1584.3</ele>
        <time>2021-12-19T12:48:15Z</time>
      </trkpt>
      <trkpt lat="45.34992" lon="5.72161">
        <ele>1584.4</ele>
        <time>2021-12-19T12:48:16Z</time>
      </trkpt>
      <trkpt lat="45.34993" lon="5.72161">
        <ele>1584.5</ele>
        <time>2021-12-19T12:48:17Z</time>
      </trkpt>
      <trkpt lat="45.34994" lon="5.72161">
        <ele>1584.5</ele>
        <time>2021-12-19T12:48:18Z</time>
      </trkpt>
      <trkpt lat="45.34994" lon="5.72161">
        <ele>1584.6</ele>
        <time>2021-12-19T12:48:19Z</time>
      </trkpt>
      <trkpt lat="45.34995" lon="5.72162">
        <ele>1584.6</ele>
        <time>2021-12-19T12:48:20Z</time>
      </trkpt>
      <trkpt lat="45.34995" lon="5.72162">
        <ele>1584.7</ele>
        <time>2021-12-19T12:48:21Z</time>
      </trkpt>
      <trkpt lat="45.34995" lon="5.72162">
        <ele>1584.7</ele>
        <time>2021-12-19T12:48:22Z</time>
      </trkpt>
      <trkpt lat="45.34995" lon="5.72162">
        <ele>1584.7</ele>
        <time>2021-12-19T12:48:23Z</time>
      </trkpt>
      <trkpt lat="45.34996" lon="5.72162">
        <ele>1584.7</ele>
        <time>2021-12-19T12:48:24Z</time>
      </trkpt>
      <trkpt lat="45.34996" lon="5.72162">
        <ele>1584.7</ele>
        <time>2021-12-19T12:48:25Z</time>
      </trkpt>
      <trkpt lat="45.34996" lon="5.72163">
        <ele>1584.7</ele>
        <time>2021-12-19T12:48:26Z</time>
      </trkpt>
      <trkpt lat="45.34996" lon="5.72163">
        <ele>1584.8</ele>
        <time>2021-12-19T12:48:27Z</time>
      </trkpt>
      <trkpt lat="45.34996" lon="5.72163">
        <ele>1584.8</ele>
        <time>2021-12-19T12:48:28Z</time>
      </trkpt>
      <trkpt lat="45.34996" lon="5.72163">
        <ele>1584.8</ele>
        <time>2021-12-19T12:48:29Z</time>
      </trkpt>
      <trkpt lat="45.34996" lon="5.72163">
        <ele>1584.8</ele>
        <time>2021-12-19T12:48:30Z</time>
      </trkpt>
      <trkpt lat="45.34996" lon="5.72163">
        <ele>1584.8</ele>
        <time>2021-12-19T12:48:31Z</time>
      </trkpt>
      <trkpt lat="45.34996" lon="5.72163">
        <ele>1584.8</ele>
        <time>2021-12-19T12:48:32Z</time>
      </trkpt>
      <trkpt lat="45.34996" lon="5.72163">
        <ele>1584.8</ele>
        <time>2021-12-19T12:48:33Z</time>
      </trkpt>
      <trkpt lat="45.34996" lon="5.72163">
        <ele>1584.8</ele>
        <time>2021-12-19T12:48:34Z</time>
      </trkpt>
      <trkpt lat="45.34996" lon="5.72163">
        <ele>1584.8</ele>
        <time>2021-12-19T12:48:35Z</time>
      </trkpt>
      <trkpt lat="45.34996" lon="5.72163">
        <ele>1584.8</ele>
        <time>2021-12-19T12:48:36Z</time>
      </trkpt>
      <trkpt lat="45.34996" lon="5.72163">
        <ele>1584.8</ele>
        <time>2021-12-19T12:48:37Z</time>
      </trkpt>
      <trkpt lat="45.34996" lon="5.72163">
        <ele>1584.8</ele>
        <time>2021-12-19T12:48:38Z</time>
      </trkpt>
      <trkpt lat="45.34996" lon="5.72163">
        <ele>1584.8</ele>
        <time>2021-12-19T12:48:39Z</time>
      </trkpt>
      <trkpt lat="45.34996" lon="5.72164">
        <ele>1584.8</ele>
        <time>2021-12-19T12:48:40Z</time>
      </trkpt>
      <trkpt lat="45.34996" lon="5.72164">
        <ele>1584.8</ele>
        <time>2021-12-19T12:48:41Z</time>
      </trkpt>
      <trkpt lat="45.34996" lon="5.72164">
        <ele>1584.9</ele>
        <time>2021-12-19T12:48:42Z</time>
      </trkpt>
      <trkpt lat="45.34996" lon="5.72164">
        <ele>1584.9</ele>
        <time>2021-12-19T12:48:43Z</time>
      </trkpt>
      <trkpt lat="45.34996" lon="5.72164">
        <ele>1584.9</ele>
        <time>2021-12-19T12:48:44Z</time>
      </trkpt>
      <trkpt lat="45.34996" lon="5.72165">
        <ele>1584.9</ele>
        <time>2021-12-19T12:48:45Z</time>
      </trkpt>
      <trkpt lat="45.34996" lon="5.72165">
        <ele>1584.9</ele>
        <time>2021-12-19T12:48:46Z</time>
      </trkpt>
      <trkpt lat="45.34996" lon="5.72165">
        <ele>1584.9</ele>
        <time>2021-12-19T12:48:47Z</time>
      </trkpt>
      <trkpt lat="45.34996" lon="5.72165">
        <ele>1584.9</ele>
        <time>2021-12-19T12:48:48Z</time>
      </trkpt>
      <trkpt lat="45.34996" lon="5.72165">
        <ele>1584.9</ele>
        <time>2021-12-19T12:48:49Z</time>
      </trkpt>
      <trkpt lat="45.34996" lon="5.72165">
        <ele>1585</ele>
        <time>2021-12-19T12:48:50Z</time>
      </trkpt>
      <trkpt lat="45.34995" lon="5.72165">
        <ele>1585</ele>
        <time>2021-12-19T12:48:51Z</time>
      </trkpt>
      <trkpt lat="45.34995" lon="5.72165">
        <ele>1585</ele>
        <time>2021-12-19T12:48:52Z</time>
      </trkpt>
      <trkpt lat="45.34995" lon="5.72166">
        <ele>1585</ele>
        <time>2021-12-19T12:48:53Z</time>
      </trkpt>
      <trkpt lat="45.34995" lon="5.72166">
        <ele>1585</ele>
        <time>2021-12-19T12:48:54Z</time>
      </trkpt>
      <trkpt lat="45.34995" lon="5.72166">
        <ele>1585</ele>
        <time>2021-12-19T12:48:55Z</time>
      </trkpt>
      <trkpt lat="45.34995" lon="5.72166">
        <ele>1585</ele>
        <time>2021-12-19T12:48:56Z</time>
      </trkpt>
      <trkpt lat="45.34995" lon="5.72166">
        <ele>1585</ele>
        <time>2021-12-19T12:48:57Z</time>
      </trkpt>
      <trkpt lat="45.34995" lon="5.72166">
        <ele>1585</ele>
        <time>2021-12-19T12:48:58Z</time>
      </trkpt>
      <trkpt lat="45.34995" lon="5.72166">
        <ele>1585.1</ele>
        <time>2021-12-19T12:48:59Z</time>
      </trkpt>
      <trkpt lat="45.34995" lon="5.72167">
        <ele>1585.1</ele>
        <time>2021-12-19T12:49:00Z</time>
      </trkpt>
      <trkpt lat="45.34995" lon="5.72167">
        <ele>1585.1</ele>
        <time>2021-12-19T12:49:01Z</time>
      </trkpt>
      <trkpt lat="45.34995" lon="5.72166">
        <ele>1585.1</ele>
        <time>2021-12-19T12:49:02Z</time>
      </trkpt>
      <trkpt lat="45.34995" lon="5.72167">
        <ele>1585.1</ele>
        <time>2021-12-19T12:49:03Z</time>
      </trkpt>
      <trkpt lat="45.34995" lon="5.72167">
        <ele>1585.1</ele>
        <time>2021-12-19T12:49:04Z</time>
      </trkpt>
      <trkpt lat="45.34995" lon="5.72167">
        <ele>1585.1</ele>
        <time>2021-12-19T12:49:05Z</time>
      </trkpt>
      <trkpt lat="45.34995" lon="5.72167">
        <ele>1585.2</ele>
        <time>2021-12-19T12:49:06Z</time>
      </trkpt>
      <trkpt lat="45.34995" lon="5.72167">
        <ele>1585.2</ele>
        <time>2021-12-19T12:49:07Z</time>
      </trkpt>
      <trkpt lat="45.34995" lon="5.72167">
        <ele>1585.2</ele>
        <time>2021-12-19T12:49:08Z</time>
      </trkpt>
      <trkpt lat="45.34996" lon="5.72167">
        <ele>1585.2</ele>
        <time>2021-12-19T12:49:09Z</time>
      </trkpt>
      <trkpt lat="45.34996" lon="5.72167">
        <ele>1585.2</ele>
        <time>2021-12-19T12:49:10Z</time>
      </trkpt>
      <trkpt lat="45.34996" lon="5.72167">
        <ele>1585.3</ele>
        <time>2021-12-19T12:49:11Z</time>
      </trkpt>
      <trkpt lat="45.34996" lon="5.72167">
        <ele>1585.3</ele>
        <time>2021-12-19T12:49:12Z</time>
      </trkpt>
      <trkpt lat="45.34997" lon="5.72167">
        <ele>1585.3</ele>
        <time>2021-12-19T12:49:13Z</time>
      </trkpt>
      <trkpt lat="45.34997" lon="5.72167">
        <ele>1585.3</ele>
        <time>2021-12-19T12:49:14Z</time>
      </trkpt>
      <trkpt lat="45.34996" lon="5.72167">
        <ele>1585.3</ele>
        <time>2021-12-19T12:49:15Z</time>
      </trkpt>
      <trkpt lat="45.34996" lon="5.72167">
        <ele>1585.3</ele>
        <time>2021-12-19T12:49:16Z</time>
      </trkpt>
      <trkpt lat="45.34996" lon="5.72167">
        <ele>1585.3</ele>
        <time>2021-12-19T12:49:17Z</time>
      </trkpt>
      <trkpt lat="45.34996" lon="5.72167">
        <ele>1585.3</ele>
        <time>2021-12-19T12:49:18Z</time>
      </trkpt>
      <trkpt lat="45.34996" lon="5.72167">
        <ele>1585.3</ele>
        <time>2021-12-19T12:49:19Z</time>
      </trkpt>
      <trkpt lat="45.34996" lon="5.72167">
        <ele>1585.3</ele>
        <time>2021-12-19T12:49:20Z</time>
      </trkpt>
      <trkpt lat="45.34996" lon="5.72167">
        <ele>1585.3</ele>
        <time>2021-12-19T12:49:21Z</time>
      </trkpt>
      <trkpt lat="45.34997" lon="5.72167">
        <ele>1585.4</ele>
        <time>2021-12-19T12:49:22Z</time>
      </trkpt>
      <trkpt lat="45.34998" lon="5.72168">
        <ele>1585.5</ele>
        <time>2021-12-19T12:49:23Z</time>
      </trkpt>
      <trkpt lat="45.34999" lon="5.72168">
        <ele>1585.6</ele>
        <time>2021-12-19T12:49:24Z</time>
      </trkpt>
      <trkpt lat="45.35" lon="5.72169">
        <ele>1585.6</ele>
        <time>2021-12-19T12:49:25Z</time>
      </trkpt>
      <trkpt lat="45.35001" lon="5.72169">
        <ele>1585.7</ele>
        <time>2021-12-19T12:49:26Z</time>
      </trkpt>
      <trkpt lat="45.35002" lon="5.72169">
        <ele>1585.8</ele>
        <time>2021-12-19T12:49:27Z</time>
      </trkpt>
      <trkpt lat="45.35003" lon="5.7217">
        <ele>1585.9</ele>
        <time>2021-12-19T12:49:28Z</time>
      </trkpt>
      <trkpt lat="45.35004" lon="5.7217">
        <ele>1586</ele>
        <time>2021-12-19T12:49:29Z</time>
      </trkpt>
      <trkpt lat="45.35005" lon="5.7217">
        <ele>1586.1</ele>
        <time>2021-12-19T12:49:30Z</time>
      </trkpt>
      <trkpt lat="45.35006" lon="5.7217">
        <ele>1586.2</ele>
        <time>2021-12-19T12:49:31Z</time>
      </trkpt>
      <trkpt lat="45.35007" lon="5.72171">
        <ele>1586.3</ele>
        <time>2021-12-19T12:49:32Z</time>
      </trkpt>
      <trkpt lat="45.35008" lon="5.72171">
        <ele>1586.4</ele>
        <time>2021-12-19T12:49:33Z</time>
      </trkpt>
      <trkpt lat="45.35009" lon="5.72172">
        <ele>1586.5</ele>
        <time>2021-12-19T12:49:34Z</time>
      </trkpt>
      <trkpt lat="45.3501" lon="5.72173">
        <ele>1586.6</ele>
        <time>2021-12-19T12:49:35Z</time>
      </trkpt>
      <trkpt lat="45.35011" lon="5.72173">
        <ele>1586.6</ele>
        <time>2021-12-19T12:49:36Z</time>
      </trkpt>
      <trkpt lat="45.35012" lon="5.72174">
        <ele>1586.7</ele>
        <time>2021-12-19T12:49:37Z</time>
      </trkpt>
      <trkpt lat="45.35013" lon="5.72175">
        <ele>1586.8</ele>
        <time>2021-12-19T12:49:38Z</time>
      </trkpt>
      <trkpt lat="45.35014" lon="5.72176">
        <ele>1586.9</ele>
        <time>2021-12-19T12:49:39Z</time>
      </trkpt>
      <trkpt lat="45.35015" lon="5.72176">
        <ele>1587</ele>
        <time>2021-12-19T12:49:40Z</time>
      </trkpt>
      <trkpt lat="45.35016" lon="5.72177">
        <ele>1587.1</ele>
        <time>2021-12-19T12:49:41Z</time>
      </trkpt>
      <trkpt lat="45.35017" lon="5.72178">
        <ele>1587.2</ele>
        <time>2021-12-19T12:49:42Z</time>
      </trkpt>
      <trkpt lat="45.35018" lon="5.72179">
        <ele>1587.3</ele>
        <time>2021-12-19T12:49:43Z</time>
      </trkpt>
      <trkpt lat="45.3502" lon="5.7218">
        <ele>1587.5</ele>
        <time>2021-12-19T12:49:44Z</time>
      </trkpt>
      <trkpt lat="45.35021" lon="5.72181">
        <ele>1587.6</ele>
        <time>2021-12-19T12:49:45Z</time>
      </trkpt>
      <trkpt lat="45.35022" lon="5.72183">
        <ele>1587.7</ele>
        <time>2021-12-19T12:49:46Z</time>
      </trkpt>
      <trkpt lat="45.35023" lon="5.72184">
        <ele>1587.8</ele>
        <time>2021-12-19T12:49:47Z</time>
      </trkpt>
      <trkpt lat="45.35024" lon="5.72185">
        <ele>1587.9</ele>
        <time>2021-12-19T12:49:48Z</time>
      </trkpt>
      <trkpt lat="45.35025" lon="5.72186">
        <ele>1588</ele>
        <time>2021-12-19T12:49:49Z</time>
      </trkpt>
      <trkpt lat="45.35026" lon="5.72187">
        <ele>1588.1</ele>
        <time>2021-12-19T12:49:50Z</time>
      </trkpt>
      <trkpt lat="45.35027" lon="5.72188">
        <ele>1588.2</ele>
        <time>2021-12-19T12:49:51Z</time>
      </trkpt>
      <trkpt lat="45.35028" lon="5.72188">
        <ele>1588.3</ele>
        <time>2021-12-19T12:49:52Z</time>
      </trkpt>
      <trkpt lat="45.35029" lon="5.72189">
        <ele>1588.4</ele>
        <time>2021-12-19T12:49:53Z</time>
      </trkpt>
      <trkpt lat="45.3503" lon="5.7219">
        <ele>1588.5</ele>
        <time>2021-12-19T12:49:54Z</time>
      </trkpt>
      <trkpt lat="45.35031" lon="5.72191">
        <ele>1588.6</ele>
        <time>2021-12-19T12:49:55Z</time>
      </trkpt>
      <trkpt lat="45.35032" lon="5.72192">
        <ele>1588.7</ele>
        <time>2021-12-19T12:49:56Z</time>
      </trkpt>
      <trkpt lat="45.35033" lon="5.72193">
        <ele>1588.8</ele>
        <time>2021-12-19T12:49:57Z</time>
      </trkpt>
      <trkpt lat="45.35034" lon="5.72194">
        <ele>1588.9</ele>
        <time>2021-12-19T12:49:58Z</time>
      </trkpt>
      <trkpt lat="45.35035" lon="5.72195">
        <ele>1589</ele>
        <time>2021-12-19T12:49:59Z</time>
      </trkpt>
      <trkpt lat="45.35036" lon="5.72195">
        <ele>1589.1</ele>
        <time>2021-12-19T12:50:00Z</time>
      </trkpt>
      <trkpt lat="45.35037" lon="5.72196">
        <ele>1589.2</ele>
        <time>2021-12-19T12:50:01Z</time>
      </trkpt>
      <trkpt lat="45.35038" lon="5.72197">
        <ele>1589.3</ele>
        <time>2021-12-19T12:50:02Z</time>
      </trkpt>
      <trkpt lat="45.35039" lon="5.72198">
        <ele>1589.4</ele>
        <time>2021-12-19T12:50:03Z</time>
      </trkpt>
      <trkpt lat="45.3504" lon="5.72199">
        <ele>1589.5</ele>
        <time>2021-12-19T12:50:04Z</time>
      </trkpt>
      <trkpt lat="45.35041" lon="5.722">
        <ele>1589.6</ele>
        <time>2021-12-19T12:50:05Z</time>
      </trkpt>
      <trkpt lat="45.35042" lon="5.72201">
        <ele>1589.7</ele>
        <time>2021-12-19T12:50:06Z</time>
      </trkpt>
      <trkpt lat="45.35043" lon="5.72202">
        <ele>1589.8</ele>
        <time>2021-12-19T12:50:07Z</time>
      </trkpt>
      <trkpt lat="45.35044" lon="5.72202">
        <ele>1589.9</ele>
        <time>2021-12-19T12:50:08Z</time>
      </trkpt>
      <trkpt lat="45.35045" lon="5.72203">
        <ele>1590</ele>
        <time>2021-12-19T12:50:09Z</time>
      </trkpt>
      <trkpt lat="45.35046" lon="5.72204">
        <ele>1590.1</ele>
        <time>2021-12-19T12:50:10Z</time>
      </trkpt>
      <trkpt lat="45.35048" lon="5.72205">
        <ele>1590.2</ele>
        <time>2021-12-19T12:50:11Z</time>
      </trkpt>
      <trkpt lat="45.35049" lon="5.72206">
        <ele>1590.3</ele>
        <time>2021-12-19T12:50:12Z</time>
      </trkpt>
      <trkpt lat="45.3505" lon="5.72206">
        <ele>1590.4</ele>
        <time>2021-12-19T12:50:13Z</time>
      </trkpt>
      <trkpt lat="45.35051" lon="5.72207">
        <ele>1590.6</ele>
        <time>2021-12-19T12:50:14Z</time>
      </trkpt>
      <trkpt lat="45.35052" lon="5.72208">
        <ele>1590.7</ele>
        <time>2021-12-19T12:50:15Z</time>
      </trkpt>
      <trkpt lat="45.35054" lon="5.72209">
        <ele>1590.8</ele>
        <time>2021-12-19T12:50:16Z</time>
      </trkpt>
      <trkpt lat="45.35055" lon="5.7221">
        <ele>1590.9</ele>
        <time>2021-12-19T12:50:17Z</time>
      </trkpt>
      <trkpt lat="45.35056" lon="5.7221">
        <ele>1591</ele>
        <time>2021-12-19T12:50:18Z</time>
      </trkpt>
      <trkpt lat="45.35057" lon="5.72211">
        <ele>1591.1</ele>
        <time>2021-12-19T12:50:19Z</time>
      </trkpt>
      <trkpt lat="45.35059" lon="5.72212">
        <ele>1591.2</ele>
        <time>2021-12-19T12:50:20Z</time>
      </trkpt>
      <trkpt lat="45.3506" lon="5.72213">
        <ele>1591.4</ele>
        <time>2021-12-19T12:50:21Z</time>
      </trkpt>
      <trkpt lat="45.35061" lon="5.72215">
        <ele>1591.5</ele>
        <time>2021-12-19T12:50:22Z</time>
      </trkpt>
      <trkpt lat="45.35062" lon="5.72215">
        <ele>1591.6</ele>
        <time>2021-12-19T12:50:23Z</time>
      </trkpt>
      <trkpt lat="45.35063" lon="5.72216">
        <ele>1591.7</ele>
        <time>2021-12-19T12:50:24Z</time>
      </trkpt>
      <trkpt lat="45.35064" lon="5.72217">
        <ele>1591.8</ele>
        <time>2021-12-19T12:50:25Z</time>
      </trkpt>
      <trkpt lat="45.35066" lon="5.72218">
        <ele>1591.9</ele>
        <time>2021-12-19T12:50:26Z</time>
      </trkpt>
      <trkpt lat="45.35067" lon="5.72218">
        <ele>1592.1</ele>
        <time>2021-12-19T12:50:27Z</time>
      </trkpt>
      <trkpt lat="45.35068" lon="5.72219">
        <ele>1592.2</ele>
        <time>2021-12-19T12:50:28Z</time>
      </trkpt>
      <trkpt lat="45.35069" lon="5.7222">
        <ele>1592.3</ele>
        <time>2021-12-19T12:50:29Z</time>
      </trkpt>
      <trkpt lat="45.3507" lon="5.72221">
        <ele>1592.3</ele>
        <time>2021-12-19T12:50:30Z</time>
      </trkpt>
      <trkpt lat="45.35071" lon="5.72221">
        <ele>1592.4</ele>
        <time>2021-12-19T12:50:31Z</time>
      </trkpt>
      <trkpt lat="45.35072" lon="5.72221">
        <ele>1592.5</ele>
        <time>2021-12-19T12:50:32Z</time>
      </trkpt>
      <trkpt lat="45.35073" lon="5.72222">
        <ele>1592.6</ele>
        <time>2021-12-19T12:50:33Z</time>
      </trkpt>
      <trkpt lat="45.35075" lon="5.72223">
        <ele>1592.8</ele>
        <time>2021-12-19T12:50:34Z</time>
      </trkpt>
      <trkpt lat="45.35076" lon="5.72223">
        <ele>1592.9</ele>
        <time>2021-12-19T12:50:35Z</time>
      </trkpt>
      <trkpt lat="45.35077" lon="5.72224">
        <ele>1593</ele>
        <time>2021-12-19T12:50:36Z</time>
      </trkpt>
      <trkpt lat="45.35078" lon="5.72224">
        <ele>1593.1</ele>
        <time>2021-12-19T12:50:37Z</time>
      </trkpt>
      <trkpt lat="45.35079" lon="5.72225">
        <ele>1593.2</ele>
        <time>2021-12-19T12:50:38Z</time>
      </trkpt>
      <trkpt lat="45.35081" lon="5.72225">
        <ele>1593.3</ele>
        <time>2021-12-19T12:50:39Z</time>
      </trkpt>
      <trkpt lat="45.35081" lon="5.72226">
        <ele>1593.3</ele>
        <time>2021-12-19T12:50:40Z</time>
      </trkpt>
      <trkpt lat="45.35082" lon="5.72226">
        <ele>1593.5</ele>
        <time>2021-12-19T12:50:41Z</time>
      </trkpt>
      <trkpt lat="45.35083" lon="5.72227">
        <ele>1593.6</ele>
        <time>2021-12-19T12:50:42Z</time>
      </trkpt>
      <trkpt lat="45.35084" lon="5.72227">
        <ele>1593.7</ele>
        <time>2021-12-19T12:50:43Z</time>
      </trkpt>
      <trkpt lat="45.35085" lon="5.72228">
        <ele>1593.9</ele>
        <time>2021-12-19T12:50:44Z</time>
      </trkpt>
      <trkpt lat="45.35087" lon="5.72228">
        <ele>1594</ele>
        <time>2021-12-19T12:50:45Z</time>
      </trkpt>
      <trkpt lat="45.35088" lon="5.72229">
        <ele>1594.2</ele>
        <time>2021-12-19T12:50:46Z</time>
      </trkpt>
      <trkpt lat="45.35089" lon="5.72229">
        <ele>1594.3</ele>
        <time>2021-12-19T12:50:47Z</time>
      </trkpt>
      <trkpt lat="45.3509" lon="5.72229">
        <ele>1594.4</ele>
        <time>2021-12-19T12:50:48Z</time>
      </trkpt>
      <trkpt lat="45.35092" lon="5.7223">
        <ele>1594.6</ele>
        <time>2021-12-19T12:50:49Z</time>
      </trkpt>
      <trkpt lat="45.35093" lon="5.7223">
        <ele>1594.7</ele>
        <time>2021-12-19T12:50:50Z</time>
      </trkpt>
      <trkpt lat="45.35094" lon="5.7223">
        <ele>1594.8</ele>
        <time>2021-12-19T12:50:51Z</time>
      </trkpt>
      <trkpt lat="45.35095" lon="5.72231">
        <ele>1595</ele>
        <time>2021-12-19T12:50:52Z</time>
      </trkpt>
      <trkpt lat="45.35096" lon="5.72231">
        <ele>1595.1</ele>
        <time>2021-12-19T12:50:53Z</time>
      </trkpt>
      <trkpt lat="45.35097" lon="5.72232">
        <ele>1595.3</ele>
        <time>2021-12-19T12:50:54Z</time>
      </trkpt>
      <trkpt lat="45.35098" lon="5.72232">
        <ele>1595.4</ele>
        <time>2021-12-19T12:50:55Z</time>
      </trkpt>
      <trkpt lat="45.35099" lon="5.72233">
        <ele>1595.5</ele>
        <time>2021-12-19T12:50:56Z</time>
      </trkpt>
      <trkpt lat="45.351" lon="5.72233">
        <ele>1595.7</ele>
        <time>2021-12-19T12:50:57Z</time>
      </trkpt>
      <trkpt lat="45.35101" lon="5.72234">
        <ele>1595.7</ele>
        <time>2021-12-19T12:50:58Z</time>
      </trkpt>
      <trkpt lat="45.35102" lon="5.72234">
        <ele>1596</ele>
        <time>2021-12-19T12:50:59Z</time>
      </trkpt>
      <trkpt lat="45.35103" lon="5.72235">
        <ele>1596</ele>
        <time>2021-12-19T12:51:00Z</time>
      </trkpt>
      <trkpt lat="45.35104" lon="5.72235">
        <ele>1596.2</ele>
        <time>2021-12-19T12:51:01Z</time>
      </trkpt>
      <trkpt lat="45.35105" lon="5.72236">
        <ele>1596.3</ele>
        <time>2021-12-19T12:51:02Z</time>
      </trkpt>
      <trkpt lat="45.35106" lon="5.72236">
        <ele>1596.9</ele>
        <time>2021-12-19T12:51:03Z</time>
      </trkpt>
      <trkpt lat="45.35107" lon="5.72237">
        <ele>1597</ele>
        <time>2021-12-19T12:51:04Z</time>
      </trkpt>
      <trkpt lat="45.35109" lon="5.72238">
        <ele>1597.2</ele>
        <time>2021-12-19T12:51:05Z</time>
      </trkpt>
      <trkpt lat="45.3511" lon="5.72239">
        <ele>1597.3</ele>
        <time>2021-12-19T12:51:06Z</time>
      </trkpt>
      <trkpt lat="45.35111" lon="5.7224">
        <ele>1597.4</ele>
        <time>2021-12-19T12:51:07Z</time>
      </trkpt>
      <trkpt lat="45.35112" lon="5.7224">
        <ele>1597.6</ele>
        <time>2021-12-19T12:51:08Z</time>
      </trkpt>
      <trkpt lat="45.35113" lon="5.72241">
        <ele>1597.7</ele>
        <time>2021-12-19T12:51:09Z</time>
      </trkpt>
      <trkpt lat="45.35114" lon="5.72242">
        <ele>1597.8</ele>
        <time>2021-12-19T12:51:10Z</time>
      </trkpt>
      <trkpt lat="45.35115" lon="5.72243">
        <ele>1598</ele>
        <time>2021-12-19T12:51:11Z</time>
      </trkpt>
      <trkpt lat="45.35116" lon="5.72243">
        <ele>1598.2</ele>
        <time>2021-12-19T12:51:12Z</time>
      </trkpt>
      <trkpt lat="45.35117" lon="5.72244">
        <ele>1598.2</ele>
        <time>2021-12-19T12:51:13Z</time>
      </trkpt>
      <trkpt lat="45.35118" lon="5.72245">
        <ele>1598.4</ele>
        <time>2021-12-19T12:51:14Z</time>
      </trkpt>
      <trkpt lat="45.35119" lon="5.72245">
        <ele>1598.4</ele>
        <time>2021-12-19T12:51:15Z</time>
      </trkpt>
      <trkpt lat="45.3512" lon="5.72246">
        <ele>1598.5</ele>
        <time>2021-12-19T12:51:16Z</time>
      </trkpt>
      <trkpt lat="45.35121" lon="5.72246">
        <ele>1598.6</ele>
        <time>2021-12-19T12:51:17Z</time>
      </trkpt>
      <trkpt lat="45.35122" lon="5.72246">
        <ele>1598.8</ele>
        <time>2021-12-19T12:51:18Z</time>
      </trkpt>
      <trkpt lat="45.35124" lon="5.72247">
        <ele>1598.9</ele>
        <time>2021-12-19T12:51:19Z</time>
      </trkpt>
      <trkpt lat="45.35125" lon="5.72247">
        <ele>1599</ele>
        <time>2021-12-19T12:51:20Z</time>
      </trkpt>
      <trkpt lat="45.35125" lon="5.72247">
        <ele>1599</ele>
        <time>2021-12-19T12:51:21Z</time>
      </trkpt>
      <trkpt lat="45.35125" lon="5.72247">
        <ele>1599.1</ele>
        <time>2021-12-19T12:51:22Z</time>
      </trkpt>
      <trkpt lat="45.35125" lon="5.72247">
        <ele>1599.1</ele>
        <time>2021-12-19T12:51:23Z</time>
      </trkpt>
      <trkpt lat="45.35125" lon="5.72246">
        <ele>1599.1</ele>
        <time>2021-12-19T12:51:24Z</time>
      </trkpt>
      <trkpt lat="45.35125" lon="5.72247">
        <ele>1599.2</ele>
        <time>2021-12-19T12:51:25Z</time>
      </trkpt>
      <trkpt lat="45.35126" lon="5.72247">
        <ele>1599.3</ele>
        <time>2021-12-19T12:51:26Z</time>
      </trkpt>
      <trkpt lat="45.35126" lon="5.72247">
        <ele>1599.3</ele>
        <time>2021-12-19T12:51:27Z</time>
      </trkpt>
      <trkpt lat="45.35126" lon="5.72247">
        <ele>1599.4</ele>
        <time>2021-12-19T12:51:28Z</time>
      </trkpt>
      <trkpt lat="45.35126" lon="5.72247">
        <ele>1599.4</ele>
        <time>2021-12-19T12:51:29Z</time>
      </trkpt>
      <trkpt lat="45.35126" lon="5.72247">
        <ele>1599.4</ele>
        <time>2021-12-19T12:51:30Z</time>
      </trkpt>
      <trkpt lat="45.35126" lon="5.72247">
        <ele>1599.5</ele>
        <time>2021-12-19T12:51:31Z</time>
      </trkpt>
      <trkpt lat="45.35126" lon="5.72247">
        <ele>1599.5</ele>
        <time>2021-12-19T12:51:32Z</time>
      </trkpt>
      <trkpt lat="45.35126" lon="5.72247">
        <ele>1599.6</ele>
        <time>2021-12-19T12:51:33Z</time>
      </trkpt>
      <trkpt lat="45.35126" lon="5.72247">
        <ele>1599.6</ele>
        <time>2021-12-19T12:51:34Z</time>
      </trkpt>
      <trkpt lat="45.35126" lon="5.72247">
        <ele>1599.6</ele>
        <time>2021-12-19T12:51:35Z</time>
      </trkpt>
      <trkpt lat="45.35126" lon="5.72247">
        <ele>1599.7</ele>
        <time>2021-12-19T12:51:36Z</time>
      </trkpt>
      <trkpt lat="45.35126" lon="5.72247">
        <ele>1599.7</ele>
        <time>2021-12-19T12:51:37Z</time>
      </trkpt>
      <trkpt lat="45.35126" lon="5.72247">
        <ele>1599.8</ele>
        <time>2021-12-19T12:51:38Z</time>
      </trkpt>
      <trkpt lat="45.35126" lon="5.72247">
        <ele>1599.8</ele>
        <time>2021-12-19T12:51:39Z</time>
      </trkpt>
      <trkpt lat="45.35126" lon="5.72247">
        <ele>1599.9</ele>
        <time>2021-12-19T12:51:40Z</time>
      </trkpt>
      <trkpt lat="45.35126" lon="5.72248">
        <ele>1599.9</ele>
        <time>2021-12-19T12:51:41Z</time>
      </trkpt>
      <trkpt lat="45.35126" lon="5.72248">
        <ele>1600</ele>
        <time>2021-12-19T12:51:42Z</time>
      </trkpt>
      <trkpt lat="45.35126" lon="5.72248">
        <ele>1600</ele>
        <time>2021-12-19T12:51:43Z</time>
      </trkpt>
      <trkpt lat="45.35126" lon="5.72248">
        <ele>1600</ele>
        <time>2021-12-19T12:51:44Z</time>
      </trkpt>
      <trkpt lat="45.35126" lon="5.72248">
        <ele>1600</ele>
        <time>2021-12-19T12:51:45Z</time>
      </trkpt>
      <trkpt lat="45.35126" lon="5.72248">
        <ele>1600.1</ele>
        <time>2021-12-19T12:51:46Z</time>
      </trkpt>
      <trkpt lat="45.35126" lon="5.72249">
        <ele>1600.1</ele>
        <time>2021-12-19T12:51:47Z</time>
      </trkpt>
      <trkpt lat="45.35126" lon="5.72249">
        <ele>1600.2</ele>
        <time>2021-12-19T12:51:48Z</time>
      </trkpt>
      <trkpt lat="45.35126" lon="5.72249">
        <ele>1600.2</ele>
        <time>2021-12-19T12:51:49Z</time>
      </trkpt>
      <trkpt lat="45.35126" lon="5.72249">
        <ele>1600.2</ele>
        <time>2021-12-19T12:51:50Z</time>
      </trkpt>
      <trkpt lat="45.35126" lon="5.72249">
        <ele>1600.3</ele>
        <time>2021-12-19T12:51:51Z</time>
      </trkpt>
      <trkpt lat="45.35126" lon="5.72249">
        <ele>1600.3</ele>
        <time>2021-12-19T12:51:52Z</time>
      </trkpt>
      <trkpt lat="45.35126" lon="5.72249">
        <ele>1600.3</ele>
        <time>2021-12-19T12:51:53Z</time>
      </trkpt>
      <trkpt lat="45.35126" lon="5.72249">
        <ele>1600.4</ele>
        <time>2021-12-19T12:51:54Z</time>
      </trkpt>
      <trkpt lat="45.35126" lon="5.72249">
        <ele>1600.4</ele>
        <time>2021-12-19T12:51:55Z</time>
      </trkpt>
      <trkpt lat="45.35126" lon="5.72249">
        <ele>1600.5</ele>
        <time>2021-12-19T12:51:56Z</time>
      </trkpt>
      <trkpt lat="45.35126" lon="5.72249">
        <ele>1600.5</ele>
        <time>2021-12-19T12:51:57Z</time>
      </trkpt>
      <trkpt lat="45.35126" lon="5.72249">
        <ele>1600.5</ele>
        <time>2021-12-19T12:51:58Z</time>
      </trkpt>
      <trkpt lat="45.35126" lon="5.72249">
        <ele>1600.5</ele>
        <time>2021-12-19T12:51:59Z</time>
      </trkpt>
      <trkpt lat="45.35126" lon="5.72249">
        <ele>1600.5</ele>
        <time>2021-12-19T12:52:00Z</time>
      </trkpt>
      <trkpt lat="45.35125" lon="5.72248">
        <ele>1600.6</ele>
        <time>2021-12-19T12:52:01Z</time>
      </trkpt>
      <trkpt lat="45.35125" lon="5.72248">
        <ele>1600.6</ele>
        <time>2021-12-19T12:52:02Z</time>
      </trkpt>
      <trkpt lat="45.35125" lon="5.72248">
        <ele>1600.7</ele>
        <time>2021-12-19T12:52:03Z</time>
      </trkpt>
      <trkpt lat="45.35126" lon="5.72248">
        <ele>1600.7</ele>
        <time>2021-12-19T12:52:04Z</time>
      </trkpt>
      <trkpt lat="45.35126" lon="5.72248">
        <ele>1600.7</ele>
        <time>2021-12-19T12:52:05Z</time>
      </trkpt>
      <trkpt lat="45.35125" lon="5.72248">
        <ele>1600.7</ele>
        <time>2021-12-19T12:52:06Z</time>
      </trkpt>
      <trkpt lat="45.35126" lon="5.72248">
        <ele>1600.7</ele>
        <time>2021-12-19T12:52:07Z</time>
      </trkpt>
      <trkpt lat="45.35126" lon="5.72248">
        <ele>1600.7</ele>
        <time>2021-12-19T12:52:08Z</time>
      </trkpt>
      <trkpt lat="45.35126" lon="5.72248">
        <ele>1600.8</ele>
        <time>2021-12-19T12:52:09Z</time>
      </trkpt>
      <trkpt lat="45.35126" lon="5.72247">
        <ele>1600.8</ele>
        <time>2021-12-19T12:52:10Z</time>
      </trkpt>
      <trkpt lat="45.35126" lon="5.72247">
        <ele>1600.9</ele>
        <time>2021-12-19T12:52:11Z</time>
      </trkpt>
      <trkpt lat="45.35125" lon="5.72247">
        <ele>1600.9</ele>
        <time>2021-12-19T12:52:12Z</time>
      </trkpt>
      <trkpt lat="45.35125" lon="5.72247">
        <ele>1600.8</ele>
        <time>2021-12-19T12:52:13Z</time>
      </trkpt>
      <trkpt lat="45.35125" lon="5.72247">
        <ele>1600.9</ele>
        <time>2021-12-19T12:52:14Z</time>
      </trkpt>
      <trkpt lat="45.35125" lon="5.72247">
        <ele>1600.9</ele>
        <time>2021-12-19T12:52:15Z</time>
      </trkpt>
      <trkpt lat="45.35126" lon="5.72247">
        <ele>1600.9</ele>
        <time>2021-12-19T12:52:16Z</time>
      </trkpt>
      <trkpt lat="45.35126" lon="5.72247">
        <ele>1600.9</ele>
        <time>2021-12-19T12:52:17Z</time>
      </trkpt>
      <trkpt lat="45.35125" lon="5.72247">
        <ele>1600.9</ele>
        <time>2021-12-19T12:52:18Z</time>
      </trkpt>
      <trkpt lat="45.35125" lon="5.72247">
        <ele>1600.9</ele>
        <time>2021-12-19T12:52:19Z</time>
      </trkpt>
      <trkpt lat="45.35125" lon="5.72247">
        <ele>1600.9</ele>
        <time>2021-12-19T12:52:20Z</time>
      </trkpt>
      <trkpt lat="45.35126" lon="5.72247">
        <ele>1600.9</ele>
        <time>2021-12-19T12:52:21Z</time>
      </trkpt>
      <trkpt lat="45.35126" lon="5.72247">
        <ele>1600.9</ele>
        <time>2021-12-19T12:52:22Z</time>
      </trkpt>
      <trkpt lat="45.35126" lon="5.72247">
        <ele>1600.9</ele>
        <time>2021-12-19T12:52:23Z</time>
      </trkpt>
      <trkpt lat="45.35125" lon="5.72247">
        <ele>1600.9</ele>
        <time>2021-12-19T12:52:24Z</time>
      </trkpt>
      <trkpt lat="45.35125" lon="5.72246">
        <ele>1600.8</ele>
        <time>2021-12-19T12:52:25Z</time>
      </trkpt>
      <trkpt lat="45.35125" lon="5.72246">
        <ele>1600.8</ele>
        <time>2021-12-19T12:52:26Z</time>
      </trkpt>
      <trkpt lat="45.35124" lon="5.72246">
        <ele>1600.8</ele>
        <time>2021-12-19T12:52:27Z</time>
      </trkpt>
      <trkpt lat="45.35124" lon="5.72246">
        <ele>1600.8</ele>
        <time>2021-12-19T12:52:28Z</time>
      </trkpt>
      <trkpt lat="45.35124" lon="5.72246">
        <ele>1600.8</ele>
        <time>2021-12-19T12:52:29Z</time>
      </trkpt>
      <trkpt lat="45.35124" lon="5.72246">
        <ele>1600.8</ele>
        <time>2021-12-19T12:52:30Z</time>
      </trkpt>
      <trkpt lat="45.35124" lon="5.72246">
        <ele>1600.7</ele>
        <time>2021-12-19T12:52:31Z</time>
      </trkpt>
      <trkpt lat="45.35124" lon="5.72246">
        <ele>1600.7</ele>
        <time>2021-12-19T12:52:32Z</time>
      </trkpt>
      <trkpt lat="45.35124" lon="5.72247">
        <ele>1600.7</ele>
        <time>2021-12-19T12:52:33Z</time>
      </trkpt>
      <trkpt lat="45.35124" lon="5.72247">
        <ele>1600.7</ele>
        <time>2021-12-19T12:52:34Z</time>
      </trkpt>
      <trkpt lat="45.35124" lon="5.72247">
        <ele>1600.6</ele>
        <time>2021-12-19T12:52:35Z</time>
      </trkpt>
      <trkpt lat="45.35124" lon="5.72248">
        <ele>1600.6</ele>
        <time>2021-12-19T12:52:36Z</time>
      </trkpt>
      <trkpt lat="45.35125" lon="5.72248">
        <ele>1600.6</ele>
        <time>2021-12-19T12:52:37Z</time>
      </trkpt>
      <trkpt lat="45.35124" lon="5.72248">
        <ele>1600.6</ele>
        <time>2021-12-19T12:52:38Z</time>
      </trkpt>
      <trkpt lat="45.35125" lon="5.72248">
        <ele>1600.5</ele>
        <time>2021-12-19T12:52:39Z</time>
      </trkpt>
      <trkpt lat="45.35125" lon="5.72247">
        <ele>1600.5</ele>
        <time>2021-12-19T12:52:40Z</time>
      </trkpt>
      <trkpt lat="45.35125" lon="5.72247">
        <ele>1600.5</ele>
        <time>2021-12-19T12:52:41Z</time>
      </trkpt>
      <trkpt lat="45.35125" lon="5.72247">
        <ele>1600.5</ele>
        <time>2021-12-19T12:52:42Z</time>
      </trkpt>
      <trkpt lat="45.35125" lon="5.72247">
        <ele>1600.5</ele>
        <time>2021-12-19T12:52:43Z</time>
      </trkpt>
      <trkpt lat="45.35125" lon="5.72248">
        <ele>1600.4</ele>
        <time>2021-12-19T12:52:44Z</time>
      </trkpt>
      <trkpt lat="45.35125" lon="5.72248">
        <ele>1600.4</ele>
        <time>2021-12-19T12:52:45Z</time>
      </trkpt>
      <trkpt lat="45.35124" lon="5.72249">
        <ele>1600.4</ele>
        <time>2021-12-19T12:52:46Z</time>
      </trkpt>
      <trkpt lat="45.35125" lon="5.72249">
        <ele>1600.4</ele>
        <time>2021-12-19T12:52:47Z</time>
      </trkpt>
      <trkpt lat="45.35125" lon="5.72249">
        <ele>1600.3</ele>
        <time>2021-12-19T12:52:48Z</time>
      </trkpt>
      <trkpt lat="45.35125" lon="5.7225">
        <ele>1600.3</ele>
        <time>2021-12-19T12:52:49Z</time>
      </trkpt>
      <trkpt lat="45.35125" lon="5.7225">
        <ele>1600.3</ele>
        <time>2021-12-19T12:52:50Z</time>
      </trkpt>
      <trkpt lat="45.35125" lon="5.7225">
        <ele>1600.3</ele>
        <time>2021-12-19T12:52:51Z</time>
      </trkpt>
      <trkpt lat="45.35125" lon="5.7225">
        <ele>1600.3</ele>
        <time>2021-12-19T12:52:52Z</time>
      </trkpt>
      <trkpt lat="45.35125" lon="5.7225">
        <ele>1600.2</ele>
        <time>2021-12-19T12:52:53Z</time>
      </trkpt>
      <trkpt lat="45.35125" lon="5.7225">
        <ele>1600.2</ele>
        <time>2021-12-19T12:52:54Z</time>
      </trkpt>
      <trkpt lat="45.35125" lon="5.7225">
        <ele>1600.2</ele>
        <time>2021-12-19T12:52:55Z</time>
      </trkpt>
      <trkpt lat="45.35125" lon="5.7225">
        <ele>1600.2</ele>
        <time>2021-12-19T12:52:56Z</time>
      </trkpt>
      <trkpt lat="45.35125" lon="5.7225">
        <ele>1600.2</ele>
        <time>2021-12-19T12:52:57Z</time>
      </trkpt>
      <trkpt lat="45.35125" lon="5.7225">
        <ele>1600.2</ele>
        <time>2021-12-19T12:52:58Z</time>
      </trkpt>
      <trkpt lat="45.35125" lon="5.7225">
        <ele>1600.1</ele>
        <time>2021-12-19T12:52:59Z</time>
      </trkpt>
      <trkpt lat="45.35125" lon="5.7225">
        <ele>1600.1</ele>
        <time>2021-12-19T12:53:00Z</time>
      </trkpt>
      <trkpt lat="45.35125" lon="5.7225">
        <ele>1600.1</ele>
        <time>2021-12-19T12:53:01Z</time>
      </trkpt>
      <trkpt lat="45.35125" lon="5.7225">
        <ele>1600.1</ele>
        <time>2021-12-19T12:53:02Z</time>
      </trkpt>
      <trkpt lat="45.35125" lon="5.7225">
        <ele>1600.1</ele>
        <time>2021-12-19T12:53:03Z</time>
      </trkpt>
      <trkpt lat="45.35125" lon="5.7225">
        <ele>1600.1</ele>
        <time>2021-12-19T12:53:04Z</time>
      </trkpt>
      <trkpt lat="45.35125" lon="5.7225">
        <ele>1600.1</ele>
        <time>2021-12-19T12:53:05Z</time>
      </trkpt>
      <trkpt lat="45.35125" lon="5.7225">
        <ele>1600.1</ele>
        <time>2021-12-19T12:53:06Z</time>
      </trkpt>
      <trkpt lat="45.35125" lon="5.72251">
        <ele>1600.1</ele>
        <time>2021-12-19T12:53:07Z</time>
      </trkpt>
      <trkpt lat="45.35125" lon="5.7225">
        <ele>1600.1</ele>
        <time>2021-12-19T12:53:08Z</time>
      </trkpt>
      <trkpt lat="45.35125" lon="5.7225">
        <ele>1600</ele>
        <time>2021-12-19T12:53:09Z</time>
      </trkpt>
      <trkpt lat="45.35125" lon="5.7225">
        <ele>1600</ele>
        <time>2021-12-19T12:53:10Z</time>
      </trkpt>
      <trkpt lat="45.35125" lon="5.7225">
        <ele>1600</ele>
        <time>2021-12-19T12:53:11Z</time>
      </trkpt>
      <trkpt lat="45.35125" lon="5.7225">
        <ele>1600</ele>
        <time>2021-12-19T12:53:12Z</time>
      </trkpt>
      <trkpt lat="45.35125" lon="5.7225">
        <ele>1600</ele>
        <time>2021-12-19T12:53:13Z</time>
      </trkpt>
      <trkpt lat="45.35125" lon="5.7225">
        <ele>1600</ele>
        <time>2021-12-19T12:53:14Z</time>
      </trkpt>
      <trkpt lat="45.35125" lon="5.7225">
        <ele>1600</ele>
        <time>2021-12-19T12:53:15Z</time>
      </trkpt>
      <trkpt lat="45.35125" lon="5.7225">
        <ele>1600</ele>
        <time>2021-12-19T12:53:16Z</time>
      </trkpt>
      <trkpt lat="45.35125" lon="5.7225">
        <ele>1600</ele>
        <time>2021-12-19T12:53:17Z</time>
      </trkpt>
      <trkpt lat="45.35125" lon="5.7225">
        <ele>1599.9</ele>
        <time>2021-12-19T12:53:18Z</time>
      </trkpt>
      <trkpt lat="45.35124" lon="5.7225">
        <ele>1599.9</ele>
        <time>2021-12-19T12:53:19Z</time>
      </trkpt>
      <trkpt lat="45.35124" lon="5.7225">
        <ele>1599.9</ele>
        <time>2021-12-19T12:53:20Z</time>
      </trkpt>
      <trkpt lat="45.35124" lon="5.7225">
        <ele>1599.8</ele>
        <time>2021-12-19T12:53:21Z</time>
      </trkpt>
      <trkpt lat="45.35124" lon="5.7225">
        <ele>1599.8</ele>
        <time>2021-12-19T12:53:22Z</time>
      </trkpt>
      <trkpt lat="45.35124" lon="5.72251">
        <ele>1599.7</ele>
        <time>2021-12-19T12:53:23Z</time>
      </trkpt>
      <trkpt lat="45.35124" lon="5.72252">
        <ele>1599.7</ele>
        <time>2021-12-19T12:53:24Z</time>
      </trkpt>
      <trkpt lat="45.35124" lon="5.72252">
        <ele>1599.6</ele>
        <time>2021-12-19T12:53:25Z</time>
      </trkpt>
      <trkpt lat="45.35124" lon="5.72252">
        <ele>1599.6</ele>
        <time>2021-12-19T12:53:26Z</time>
      </trkpt>
      <trkpt lat="45.35124" lon="5.72253">
        <ele>1599.5</ele>
        <time>2021-12-19T12:53:27Z</time>
      </trkpt>
      <trkpt lat="45.35124" lon="5.72253">
        <ele>1599.5</ele>
        <time>2021-12-19T12:53:28Z</time>
      </trkpt>
      <trkpt lat="45.35124" lon="5.72254">
        <ele>1599.4</ele>
        <time>2021-12-19T12:53:29Z</time>
      </trkpt>
      <trkpt lat="45.35124" lon="5.72254">
        <ele>1599.4</ele>
        <time>2021-12-19T12:53:30Z</time>
      </trkpt>
      <trkpt lat="45.35124" lon="5.72254">
        <ele>1599.4</ele>
        <time>2021-12-19T12:53:31Z</time>
      </trkpt>
      <trkpt lat="45.35124" lon="5.72254">
        <ele>1599.4</ele>
        <time>2021-12-19T12:53:32Z</time>
      </trkpt>
      <trkpt lat="45.35124" lon="5.72254">
        <ele>1599.3</ele>
        <time>2021-12-19T12:53:33Z</time>
      </trkpt>
      <trkpt lat="45.35125" lon="5.72254">
        <ele>1599.3</ele>
        <time>2021-12-19T12:53:34Z</time>
      </trkpt>
      <trkpt lat="45.35125" lon="5.72254">
        <ele>1599.3</ele>
        <time>2021-12-19T12:53:35Z</time>
      </trkpt>
      <trkpt lat="45.35125" lon="5.72254">
        <ele>1599.3</ele>
        <time>2021-12-19T12:53:36Z</time>
      </trkpt>
      <trkpt lat="45.35125" lon="5.72254">
        <ele>1599.3</ele>
        <time>2021-12-19T12:53:37Z</time>
      </trkpt>
      <trkpt lat="45.35124" lon="5.72254">
        <ele>1599.2</ele>
        <time>2021-12-19T12:53:38Z</time>
      </trkpt>
      <trkpt lat="45.35124" lon="5.72254">
        <ele>1599.2</ele>
        <time>2021-12-19T12:53:39Z</time>
      </trkpt>
      <trkpt lat="45.35124" lon="5.72254">
        <ele>1599.2</ele>
        <time>2021-12-19T12:53:40Z</time>
      </trkpt>
      <trkpt lat="45.35124" lon="5.72254">
        <ele>1599.2</ele>
        <time>2021-12-19T12:53:41Z</time>
      </trkpt>
      <trkpt lat="45.35124" lon="5.72254">
        <ele>1599.2</ele>
        <time>2021-12-19T12:53:42Z</time>
      </trkpt>
      <trkpt lat="45.35124" lon="5.72254">
        <ele>1599.2</ele>
        <time>2021-12-19T12:53:43Z</time>
      </trkpt>
      <trkpt lat="45.35124" lon="5.72254">
        <ele>1599.2</ele>
        <time>2021-12-19T12:53:44Z</time>
      </trkpt>
      <trkpt lat="45.35124" lon="5.72254">
        <ele>1599.2</ele>
        <time>2021-12-19T12:53:45Z</time>
      </trkpt>
      <trkpt lat="45.35124" lon="5.72254">
        <ele>1599.2</ele>
        <time>2021-12-19T12:53:46Z</time>
      </trkpt>
      <trkpt lat="45.35124" lon="5.72254">
        <ele>1599.2</ele>
        <time>2021-12-19T12:53:47Z</time>
      </trkpt>
      <trkpt lat="45.35124" lon="5.72254">
        <ele>1599.2</ele>
        <time>2021-12-19T12:53:48Z</time>
      </trkpt>
      <trkpt lat="45.35124" lon="5.72255">
        <ele>1599.2</ele>
        <time>2021-12-19T12:53:49Z</time>
      </trkpt>
      <trkpt lat="45.35124" lon="5.72255">
        <ele>1599.1</ele>
        <time>2021-12-19T12:53:50Z</time>
      </trkpt>
      <trkpt lat="45.35124" lon="5.72255">
        <ele>1599.1</ele>
        <time>2021-12-19T12:53:51Z</time>
      </trkpt>
      <trkpt lat="45.35124" lon="5.72255">
        <ele>1599.1</ele>
        <time>2021-12-19T12:53:52Z</time>
      </trkpt>
      <trkpt lat="45.35124" lon="5.72255">
        <ele>1599.1</ele>
        <time>2021-12-19T12:53:53Z</time>
      </trkpt>
      <trkpt lat="45.35124" lon="5.72255">
        <ele>1599.1</ele>
        <time>2021-12-19T12:53:54Z</time>
      </trkpt>
      <trkpt lat="45.35124" lon="5.72255">
        <ele>1599.1</ele>
        <time>2021-12-19T12:53:55Z</time>
      </trkpt>
      <trkpt lat="45.35124" lon="5.72255">
        <ele>1599.1</ele>
        <time>2021-12-19T12:53:56Z</time>
      </trkpt>
      <trkpt lat="45.35124" lon="5.72255">
        <ele>1599.1</ele>
        <time>2021-12-19T12:53:57Z</time>
      </trkpt>
      <trkpt lat="45.35124" lon="5.72256">
        <ele>1599</ele>
        <time>2021-12-19T12:53:58Z</time>
      </trkpt>
      <trkpt lat="45.35124" lon="5.72256">
        <ele>1599</ele>
        <time>2021-12-19T12:53:59Z</time>
      </trkpt>
      <trkpt lat="45.35124" lon="5.72255">
        <ele>1598.9</ele>
        <time>2021-12-19T12:54:00Z</time>
      </trkpt>
      <trkpt lat="45.35124" lon="5.72255">
        <ele>1598.8</ele>
        <time>2021-12-19T12:54:01Z</time>
      </trkpt>
      <trkpt lat="45.35124" lon="5.72255">
        <ele>1598.8</ele>
        <time>2021-12-19T12:54:02Z</time>
      </trkpt>
      <trkpt lat="45.35124" lon="5.72254">
        <ele>1598.8</ele>
        <time>2021-12-19T12:54:03Z</time>
      </trkpt>
      <trkpt lat="45.35124" lon="5.72254">
        <ele>1598.7</ele>
        <time>2021-12-19T12:54:04Z</time>
      </trkpt>
      <trkpt lat="45.35124" lon="5.72254">
        <ele>1598.7</ele>
        <time>2021-12-19T12:54:05Z</time>
      </trkpt>
      <trkpt lat="45.35124" lon="5.72253">
        <ele>1598.6</ele>
        <time>2021-12-19T12:54:06Z</time>
      </trkpt>
      <trkpt lat="45.35124" lon="5.72253">
        <ele>1598.5</ele>
        <time>2021-12-19T12:54:07Z</time>
      </trkpt>
      <trkpt lat="45.35124" lon="5.72253">
        <ele>1598.5</ele>
        <time>2021-12-19T12:54:08Z</time>
      </trkpt>
      <trkpt lat="45.35124" lon="5.72252">
        <ele>1598.5</ele>
        <time>2021-12-19T12:54:09Z</time>
      </trkpt>
      <trkpt lat="45.35124" lon="5.72252">
        <ele>1598.5</ele>
        <time>2021-12-19T12:54:10Z</time>
      </trkpt>
      <trkpt lat="45.35124" lon="5.72252">
        <ele>1598.4</ele>
        <time>2021-12-19T12:54:11Z</time>
      </trkpt>
      <trkpt lat="45.35124" lon="5.72252">
        <ele>1598.4</ele>
        <time>2021-12-19T12:54:12Z</time>
      </trkpt>
      <trkpt lat="45.35124" lon="5.72252">
        <ele>1598.4</ele>
        <time>2021-12-19T12:54:13Z</time>
      </trkpt>
      <trkpt lat="45.35124" lon="5.72252">
        <ele>1598.3</ele>
        <time>2021-12-19T12:54:14Z</time>
      </trkpt>
      <trkpt lat="45.35124" lon="5.72251">
        <ele>1598.3</ele>
        <time>2021-12-19T12:54:15Z</time>
      </trkpt>
      <trkpt lat="45.35125" lon="5.72251">
        <ele>1598.1</ele>
        <time>2021-12-19T12:54:16Z</time>
      </trkpt>
      <trkpt lat="45.35126" lon="5.72252">
        <ele>1598.1</ele>
        <time>2021-12-19T12:54:17Z</time>
      </trkpt>
      <trkpt lat="45.35126" lon="5.72252">
        <ele>1598</ele>
        <time>2021-12-19T12:54:18Z</time>
      </trkpt>
      <trkpt lat="45.35126" lon="5.72251">
        <ele>1598</ele>
        <time>2021-12-19T12:54:19Z</time>
      </trkpt>
      <trkpt lat="45.35126" lon="5.72251">
        <ele>1597.9</ele>
        <time>2021-12-19T12:54:20Z</time>
      </trkpt>
      <trkpt lat="45.35126" lon="5.72252">
        <ele>1597.9</ele>
        <time>2021-12-19T12:54:21Z</time>
      </trkpt>
      <trkpt lat="45.35126" lon="5.72252">
        <ele>1597.9</ele>
        <time>2021-12-19T12:54:22Z</time>
      </trkpt>
      <trkpt lat="45.35126" lon="5.72252">
        <ele>1597.8</ele>
        <time>2021-12-19T12:54:23Z</time>
      </trkpt>
      <trkpt lat="45.35126" lon="5.72252">
        <ele>1597.8</ele>
        <time>2021-12-19T12:54:24Z</time>
      </trkpt>
      <trkpt lat="45.35126" lon="5.72252">
        <ele>1597.7</ele>
        <time>2021-12-19T12:54:25Z</time>
      </trkpt>
      <trkpt lat="45.35126" lon="5.72252">
        <ele>1597.7</ele>
        <time>2021-12-19T12:54:26Z</time>
      </trkpt>
      <trkpt lat="45.35126" lon="5.72253">
        <ele>1597.6</ele>
        <time>2021-12-19T12:54:27Z</time>
      </trkpt>
      <trkpt lat="45.35126" lon="5.72253">
        <ele>1597.5</ele>
        <time>2021-12-19T12:54:28Z</time>
      </trkpt>
      <trkpt lat="45.35126" lon="5.72254">
        <ele>1597.5</ele>
        <time>2021-12-19T12:54:29Z</time>
      </trkpt>
      <trkpt lat="45.35126" lon="5.72254">
        <ele>1597.4</ele>
        <time>2021-12-19T12:54:30Z</time>
      </trkpt>
      <trkpt lat="45.35126" lon="5.72254">
        <ele>1597.4</ele>
        <time>2021-12-19T12:54:31Z</time>
      </trkpt>
      <trkpt lat="45.35126" lon="5.72254">
        <ele>1597.3</ele>
        <time>2021-12-19T12:54:32Z</time>
      </trkpt>
      <trkpt lat="45.35126" lon="5.72254">
        <ele>1597.3</ele>
        <time>2021-12-19T12:54:33Z</time>
      </trkpt>
      <trkpt lat="45.35126" lon="5.72254">
        <ele>1597.3</ele>
        <time>2021-12-19T12:54:34Z</time>
      </trkpt>
      <trkpt lat="45.35126" lon="5.72254">
        <ele>1597.2</ele>
        <time>2021-12-19T12:54:35Z</time>
      </trkpt>
      <trkpt lat="45.35126" lon="5.72254">
        <ele>1597.2</ele>
        <time>2021-12-19T12:54:36Z</time>
      </trkpt>
      <trkpt lat="45.35126" lon="5.72254">
        <ele>1597.2</ele>
        <time>2021-12-19T12:54:37Z</time>
      </trkpt>
      <trkpt lat="45.35126" lon="5.72254">
        <ele>1597.1</ele>
        <time>2021-12-19T12:54:38Z</time>
      </trkpt>
      <trkpt lat="45.35126" lon="5.72254">
        <ele>1597.1</ele>
        <time>2021-12-19T12:54:39Z</time>
      </trkpt>
      <trkpt lat="45.35126" lon="5.72254">
        <ele>1597.1</ele>
        <time>2021-12-19T12:54:40Z</time>
      </trkpt>
      <trkpt lat="45.35126" lon="5.72254">
        <ele>1597</ele>
        <time>2021-12-19T12:54:41Z</time>
      </trkpt>
      <trkpt lat="45.35126" lon="5.72255">
        <ele>1597</ele>
        <time>2021-12-19T12:54:42Z</time>
      </trkpt>
      <trkpt lat="45.35126" lon="5.72255">
        <ele>1597</ele>
        <time>2021-12-19T12:54:43Z</time>
      </trkpt>
      <trkpt lat="45.35126" lon="5.72255">
        <ele>1596.9</ele>
        <time>2021-12-19T12:54:44Z</time>
      </trkpt>
      <trkpt lat="45.35127" lon="5.72255">
        <ele>1596.9</ele>
        <time>2021-12-19T12:54:45Z</time>
      </trkpt>
      <trkpt lat="45.35127" lon="5.72255">
        <ele>1596.9</ele>
        <time>2021-12-19T12:54:46Z</time>
      </trkpt>
      <trkpt lat="45.35127" lon="5.72255">
        <ele>1596.9</ele>
        <time>2021-12-19T12:54:47Z</time>
      </trkpt>
      <trkpt lat="45.35127" lon="5.72255">
        <ele>1596.9</ele>
        <time>2021-12-19T12:54:48Z</time>
      </trkpt>
      <trkpt lat="45.35127" lon="5.72255">
        <ele>1596.8</ele>
        <time>2021-12-19T12:54:49Z</time>
      </trkpt>
      <trkpt lat="45.35127" lon="5.72255">
        <ele>1596.8</ele>
        <time>2021-12-19T12:54:50Z</time>
      </trkpt>
      <trkpt lat="45.35127" lon="5.72255">
        <ele>1596.8</ele>
        <time>2021-12-19T12:54:51Z</time>
      </trkpt>
      <trkpt lat="45.35127" lon="5.72256">
        <ele>1596.7</ele>
        <time>2021-12-19T12:54:52Z</time>
      </trkpt>
      <trkpt lat="45.35127" lon="5.72256">
        <ele>1596.7</ele>
        <time>2021-12-19T12:54:53Z</time>
      </trkpt>
      <trkpt lat="45.35127" lon="5.72256">
        <ele>1596.7</ele>
        <time>2021-12-19T12:54:54Z</time>
      </trkpt>
      <trkpt lat="45.35127" lon="5.72256">
        <ele>1596.6</ele>
        <time>2021-12-19T12:54:55Z</time>
      </trkpt>
      <trkpt lat="45.35127" lon="5.72256">
        <ele>1596.6</ele>
        <time>2021-12-19T12:54:56Z</time>
      </trkpt>
      <trkpt lat="45.35127" lon="5.72256">
        <ele>1596.5</ele>
        <time>2021-12-19T12:54:57Z</time>
      </trkpt>
      <trkpt lat="45.35127" lon="5.72256">
        <ele>1596.5</ele>
        <time>2021-12-19T12:54:58Z</time>
      </trkpt>
      <trkpt lat="45.35127" lon="5.72256">
        <ele>1596.5</ele>
        <time>2021-12-19T12:54:59Z</time>
      </trkpt>
      <trkpt lat="45.35127" lon="5.72256">
        <ele>1596.5</ele>
        <time>2021-12-19T12:55:00Z</time>
      </trkpt>
      <trkpt lat="45.35127" lon="5.72257">
        <ele>1596.4</ele>
        <time>2021-12-19T12:55:01Z</time>
      </trkpt>
      <trkpt lat="45.35127" lon="5.72257">
        <ele>1596.3</ele>
        <time>2021-12-19T12:55:02Z</time>
      </trkpt>
      <trkpt lat="45.35127" lon="5.72257">
        <ele>1596.3</ele>
        <time>2021-12-19T12:55:03Z</time>
      </trkpt>
      <trkpt lat="45.35127" lon="5.72257">
        <ele>1596.3</ele>
        <time>2021-12-19T12:55:04Z</time>
      </trkpt>
      <trkpt lat="45.35127" lon="5.72257">
        <ele>1596.3</ele>
        <time>2021-12-19T12:55:05Z</time>
      </trkpt>
      <trkpt lat="45.35127" lon="5.72257">
        <ele>1596.2</ele>
        <time>2021-12-19T12:55:06Z</time>
      </trkpt>
      <trkpt lat="45.35127" lon="5.72258">
        <ele>1596.1</ele>
        <time>2021-12-19T12:55:07Z</time>
      </trkpt>
      <trkpt lat="45.35127" lon="5.72258">
        <ele>1596.1</ele>
        <time>2021-12-19T12:55:08Z</time>
      </trkpt>
      <trkpt lat="45.35127" lon="5.72258">
        <ele>1596.1</ele>
        <time>2021-12-19T12:55:09Z</time>
      </trkpt>
      <trkpt lat="45.35127" lon="5.72258">
        <ele>1596</ele>
        <time>2021-12-19T12:55:10Z</time>
      </trkpt>
      <trkpt lat="45.35127" lon="5.72257">
        <ele>1595.8</ele>
        <time>2021-12-19T12:55:11Z</time>
      </trkpt>
      <trkpt lat="45.35127" lon="5.72257">
        <ele>1595.7</ele>
        <time>2021-12-19T12:55:12Z</time>
      </trkpt>
      <trkpt lat="45.35127" lon="5.72257">
        <ele>1595.6</ele>
        <time>2021-12-19T12:55:13Z</time>
      </trkpt>
      <trkpt lat="45.35127" lon="5.72256">
        <ele>1595.5</ele>
        <time>2021-12-19T12:55:14Z</time>
      </trkpt>
      <trkpt lat="45.35127" lon="5.72256">
        <ele>1595.4</ele>
        <time>2021-12-19T12:55:15Z</time>
      </trkpt>
      <trkpt lat="45.35127" lon="5.72256">
        <ele>1595.4</ele>
        <time>2021-12-19T12:55:16Z</time>
      </trkpt>
      <trkpt lat="45.35128" lon="5.72255">
        <ele>1595.2</ele>
        <time>2021-12-19T12:55:17Z</time>
      </trkpt>
      <trkpt lat="45.35128" lon="5.72255">
        <ele>1595.2</ele>
        <time>2021-12-19T12:55:18Z</time>
      </trkpt>
      <trkpt lat="45.35127" lon="5.72254">
        <ele>1595.1</ele>
        <time>2021-12-19T12:55:19Z</time>
      </trkpt>
      <trkpt lat="45.35127" lon="5.72254">
        <ele>1595</ele>
        <time>2021-12-19T12:55:20Z</time>
      </trkpt>
      <trkpt lat="45.35127" lon="5.72254">
        <ele>1595</ele>
        <time>2021-12-19T12:55:21Z</time>
      </trkpt>
      <trkpt lat="45.35127" lon="5.72254">
        <ele>1595</ele>
        <time>2021-12-19T12:55:22Z</time>
      </trkpt>
      <trkpt lat="45.35127" lon="5.72254">
        <ele>1594.9</ele>
        <time>2021-12-19T12:55:23Z</time>
      </trkpt>
      <trkpt lat="45.35127" lon="5.72254">
        <ele>1594.9</ele>
        <time>2021-12-19T12:55:24Z</time>
      </trkpt>
      <trkpt lat="45.35127" lon="5.72254">
        <ele>1594.9</ele>
        <time>2021-12-19T12:55:25Z</time>
      </trkpt>
      <trkpt lat="45.35127" lon="5.72254">
        <ele>1594.9</ele>
        <time>2021-12-19T12:55:26Z</time>
      </trkpt>
      <trkpt lat="45.35127" lon="5.72254">
        <ele>1594.8</ele>
        <time>2021-12-19T12:55:27Z</time>
      </trkpt>
      <trkpt lat="45.35127" lon="5.72254">
        <ele>1594.8</ele>
        <time>2021-12-19T12:55:28Z</time>
      </trkpt>
      <trkpt lat="45.35127" lon="5.72254">
        <ele>1594.8</ele>
        <time>2021-12-19T12:55:29Z</time>
      </trkpt>
      <trkpt lat="45.35127" lon="5.72254">
        <ele>1594.8</ele>
        <time>2021-12-19T12:55:30Z</time>
      </trkpt>
      <trkpt lat="45.35127" lon="5.72254">
        <ele>1594.8</ele>
        <time>2021-12-19T12:55:31Z</time>
      </trkpt>
      <trkpt lat="45.35127" lon="5.72254">
        <ele>1594.8</ele>
        <time>2021-12-19T12:55:32Z</time>
      </trkpt>
      <trkpt lat="45.35127" lon="5.72254">
        <ele>1594.8</ele>
        <time>2021-12-19T12:55:33Z</time>
      </trkpt>
      <trkpt lat="45.35127" lon="5.72254">
        <ele>1594.7</ele>
        <time>2021-12-19T12:55:34Z</time>
      </trkpt>
      <trkpt lat="45.35127" lon="5.72254">
        <ele>1594.7</ele>
        <time>2021-12-19T12:55:35Z</time>
      </trkpt>
      <trkpt lat="45.35127" lon="5.72254">
        <ele>1594.7</ele>
        <time>2021-12-19T12:55:36Z</time>
      </trkpt>
      <trkpt lat="45.35127" lon="5.72254">
        <ele>1594.7</ele>
        <time>2021-12-19T12:55:37Z</time>
      </trkpt>
      <trkpt lat="45.35127" lon="5.72254">
        <ele>1594.6</ele>
        <time>2021-12-19T12:55:38Z</time>
      </trkpt>
      <trkpt lat="45.35127" lon="5.72254">
        <ele>1594.6</ele>
        <time>2021-12-19T12:55:39Z</time>
      </trkpt>
      <trkpt lat="45.35127" lon="5.72254">
        <ele>1594.4</ele>
        <time>2021-12-19T12:55:40Z</time>
      </trkpt>
      <trkpt lat="45.35127" lon="5.72254">
        <ele>1594.4</ele>
        <time>2021-12-19T12:55:41Z</time>
      </trkpt>
      <trkpt lat="45.35127" lon="5.72255">
        <ele>1594.3</ele>
        <time>2021-12-19T12:55:42Z</time>
      </trkpt>
      <trkpt lat="45.35127" lon="5.72255">
        <ele>1594.3</ele>
        <time>2021-12-19T12:55:43Z</time>
      </trkpt>
      <trkpt lat="45.35127" lon="5.72255">
        <ele>1594.3</ele>
        <time>2021-12-19T12:55:44Z</time>
      </trkpt>
      <trkpt lat="45.35127" lon="5.72255">
        <ele>1594.3</ele>
        <time>2021-12-19T12:55:45Z</time>
      </trkpt>
      <trkpt lat="45.35127" lon="5.72255">
        <ele>1594.3</ele>
        <time>2021-12-19T12:55:46Z</time>
      </trkpt>
      <trkpt lat="45.35127" lon="5.72255">
        <ele>1594.3</ele>
        <time>2021-12-19T12:55:47Z</time>
      </trkpt>
      <trkpt lat="45.35127" lon="5.72255">
        <ele>1594.3</ele>
        <time>2021-12-19T12:55:48Z</time>
      </trkpt>
      <trkpt lat="45.35127" lon="5.72255">
        <ele>1594.3</ele>
        <time>2021-12-19T12:55:49Z</time>
      </trkpt>
      <trkpt lat="45.35127" lon="5.72255">
        <ele>1594.3</ele>
        <time>2021-12-19T12:55:50Z</time>
      </trkpt>
      <trkpt lat="45.35127" lon="5.72255">
        <ele>1594.3</ele>
        <time>2021-12-19T12:55:51Z</time>
      </trkpt>
      <trkpt lat="45.35127" lon="5.72255">
        <ele>1594.2</ele>
        <time>2021-12-19T12:55:52Z</time>
      </trkpt>
      <trkpt lat="45.35127" lon="5.72256">
        <ele>1594.1</ele>
        <time>2021-12-19T12:55:53Z</time>
      </trkpt>
      <trkpt lat="45.35127" lon="5.72256">
        <ele>1594</ele>
        <time>2021-12-19T12:55:54Z</time>
      </trkpt>
      <trkpt lat="45.35127" lon="5.72256">
        <ele>1593.9</ele>
        <time>2021-12-19T12:55:55Z</time>
      </trkpt>
      <trkpt lat="45.35127" lon="5.72257">
        <ele>1593.8</ele>
        <time>2021-12-19T12:55:56Z</time>
      </trkpt>
      <trkpt lat="45.35128" lon="5.72257">
        <ele>1593.8</ele>
        <time>2021-12-19T12:55:57Z</time>
      </trkpt>
      <trkpt lat="45.35128" lon="5.72256">
        <ele>1593.7</ele>
        <time>2021-12-19T12:55:58Z</time>
      </trkpt>
      <trkpt lat="45.35128" lon="5.72256">
        <ele>1593.6</ele>
        <time>2021-12-19T12:55:59Z</time>
      </trkpt>
      <trkpt lat="45.35128" lon="5.72255">
        <ele>1593.5</ele>
        <time>2021-12-19T12:56:00Z</time>
      </trkpt>
      <trkpt lat="45.35128" lon="5.72255">
        <ele>1593.4</ele>
        <time>2021-12-19T12:56:01Z</time>
      </trkpt>
      <trkpt lat="45.35128" lon="5.72255">
        <ele>1593.3</ele>
        <time>2021-12-19T12:56:02Z</time>
      </trkpt>
      <trkpt lat="45.35127" lon="5.72255">
        <ele>1593.2</ele>
        <time>2021-12-19T12:56:03Z</time>
      </trkpt>
      <trkpt lat="45.35127" lon="5.72255">
        <ele>1593.2</ele>
        <time>2021-12-19T12:56:04Z</time>
      </trkpt>
      <trkpt lat="45.35128" lon="5.72254">
        <ele>1593</ele>
        <time>2021-12-19T12:56:05Z</time>
      </trkpt>
      <trkpt lat="45.35128" lon="5.72254">
        <ele>1593</ele>
        <time>2021-12-19T12:56:06Z</time>
      </trkpt>
      <trkpt lat="45.35128" lon="5.72254">
        <ele>1592.9</ele>
        <time>2021-12-19T12:56:07Z</time>
      </trkpt>
      <trkpt lat="45.35128" lon="5.72254">
        <ele>1592.8</ele>
        <time>2021-12-19T12:56:08Z</time>
      </trkpt>
      <trkpt lat="45.35128" lon="5.72253">
        <ele>1592.7</ele>
        <time>2021-12-19T12:56:09Z</time>
      </trkpt>
      <trkpt lat="45.35128" lon="5.72253">
        <ele>1592.6</ele>
        <time>2021-12-19T12:56:10Z</time>
      </trkpt>
      <trkpt lat="45.35128" lon="5.72252">
        <ele>1592.5</ele>
        <time>2021-12-19T12:56:11Z</time>
      </trkpt>
      <trkpt lat="45.35128" lon="5.72252">
        <ele>1592.4</ele>
        <time>2021-12-19T12:56:12Z</time>
      </trkpt>
      <trkpt lat="45.35128" lon="5.72252">
        <ele>1592.3</ele>
        <time>2021-12-19T12:56:13Z</time>
      </trkpt>
      <trkpt lat="45.35128" lon="5.72252">
        <ele>1592.3</ele>
        <time>2021-12-19T12:56:14Z</time>
      </trkpt>
      <trkpt lat="45.35128" lon="5.72251">
        <ele>1592.2</ele>
        <time>2021-12-19T12:56:15Z</time>
      </trkpt>
      <trkpt lat="45.35128" lon="5.72251">
        <ele>1592.1</ele>
        <time>2021-12-19T12:56:16Z</time>
      </trkpt>
      <trkpt lat="45.35128" lon="5.7225">
        <ele>1592</ele>
        <time>2021-12-19T12:56:17Z</time>
      </trkpt>
      <trkpt lat="45.35128" lon="5.7225">
        <ele>1592</ele>
        <time>2021-12-19T12:56:18Z</time>
      </trkpt>
      <trkpt lat="45.35128" lon="5.7225">
        <ele>1592</ele>
        <time>2021-12-19T12:56:19Z</time>
      </trkpt>
      <trkpt lat="45.35128" lon="5.72251">
        <ele>1592</ele>
        <time>2021-12-19T12:56:20Z</time>
      </trkpt>
      <trkpt lat="45.35128" lon="5.72252">
        <ele>1591.6</ele>
        <time>2021-12-19T12:56:21Z</time>
      </trkpt>
      <trkpt lat="45.3513" lon="5.72254">
        <ele>1591</ele>
        <time>2021-12-19T12:56:22Z</time>
      </trkpt>
      <trkpt lat="45.35131" lon="5.72256">
        <ele>1590.6</ele>
        <time>2021-12-19T12:56:23Z</time>
      </trkpt>
      <trkpt lat="45.35133" lon="5.72258">
        <ele>1590</ele>
        <time>2021-12-19T12:56:24Z</time>
      </trkpt>
      <trkpt lat="45.35135" lon="5.72259">
        <ele>1589.2</ele>
        <time>2021-12-19T12:56:25Z</time>
      </trkpt>
      <trkpt lat="45.35138" lon="5.72261">
        <ele>1588.3</ele>
        <time>2021-12-19T12:56:26Z</time>
      </trkpt>
      <trkpt lat="45.3514" lon="5.72264">
        <ele>1587.5</ele>
        <time>2021-12-19T12:56:27Z</time>
      </trkpt>
      <trkpt lat="45.35142" lon="5.72264">
        <ele>1586.9</ele>
        <time>2021-12-19T12:56:28Z</time>
      </trkpt>
      <trkpt lat="45.35144" lon="5.72265">
        <ele>1586.4</ele>
        <time>2021-12-19T12:56:29Z</time>
      </trkpt>
      <trkpt lat="45.35145" lon="5.72265">
        <ele>1586.2</ele>
        <time>2021-12-19T12:56:30Z</time>
      </trkpt>
      <trkpt lat="45.35145" lon="5.72265">
        <ele>1586.1</ele>
        <time>2021-12-19T12:56:31Z</time>
      </trkpt>
      <trkpt lat="45.35146" lon="5.72266">
        <ele>1585.9</ele>
        <time>2021-12-19T12:56:32Z</time>
      </trkpt>
      <trkpt lat="45.35146" lon="5.72266">
        <ele>1585.8</ele>
        <time>2021-12-19T12:56:33Z</time>
      </trkpt>
      <trkpt lat="45.35146" lon="5.72266">
        <ele>1585.7</ele>
        <time>2021-12-19T12:56:34Z</time>
      </trkpt>
      <trkpt lat="45.35146" lon="5.72266">
        <ele>1585.7</ele>
        <time>2021-12-19T12:56:35Z</time>
      </trkpt>
      <trkpt lat="45.35146" lon="5.72266">
        <ele>1585.6</ele>
        <time>2021-12-19T12:56:36Z</time>
      </trkpt>
      <trkpt lat="45.35146" lon="5.72266">
        <ele>1585.6</ele>
        <time>2021-12-19T12:56:37Z</time>
      </trkpt>
      <trkpt lat="45.35146" lon="5.72266">
        <ele>1585.5</ele>
        <time>2021-12-19T12:56:38Z</time>
      </trkpt>
      <trkpt lat="45.35146" lon="5.72266">
        <ele>1585.5</ele>
        <time>2021-12-19T12:56:39Z</time>
      </trkpt>
      <trkpt lat="45.35146" lon="5.72266">
        <ele>1585.4</ele>
        <time>2021-12-19T12:56:40Z</time>
      </trkpt>
      <trkpt lat="45.35146" lon="5.72266">
        <ele>1585.4</ele>
        <time>2021-12-19T12:56:41Z</time>
      </trkpt>
      <trkpt lat="45.35146" lon="5.72266">
        <ele>1585.4</ele>
        <time>2021-12-19T12:56:42Z</time>
      </trkpt>
      <trkpt lat="45.35146" lon="5.72266">
        <ele>1585.4</ele>
        <time>2021-12-19T12:56:43Z</time>
      </trkpt>
      <trkpt lat="45.35146" lon="5.72266">
        <ele>1585.3</ele>
        <time>2021-12-19T12:56:44Z</time>
      </trkpt>
      <trkpt lat="45.35147" lon="5.72267">
        <ele>1585.1</ele>
        <time>2021-12-19T12:56:45Z</time>
      </trkpt>
      <trkpt lat="45.35148" lon="5.72268">
        <ele>1584.7</ele>
        <time>2021-12-19T12:56:46Z</time>
      </trkpt>
      <trkpt lat="45.3515" lon="5.72269">
        <ele>1584.2</ele>
        <time>2021-12-19T12:56:47Z</time>
      </trkpt>
      <trkpt lat="45.35151" lon="5.7227">
        <ele>1583.8</ele>
        <time>2021-12-19T12:56:48Z</time>
      </trkpt>
      <trkpt lat="45.35153" lon="5.7227">
        <ele>1583.3</ele>
        <time>2021-12-19T12:56:49Z</time>
      </trkpt>
      <trkpt lat="45.35155" lon="5.72271">
        <ele>1582.8</ele>
        <time>2021-12-19T12:56:50Z</time>
      </trkpt>
      <trkpt lat="45.35156" lon="5.72271">
        <ele>1582.5</ele>
        <time>2021-12-19T12:56:51Z</time>
      </trkpt>
      <trkpt lat="45.35157" lon="5.72271">
        <ele>1582.3</ele>
        <time>2021-12-19T12:56:52Z</time>
      </trkpt>
      <trkpt lat="45.35157" lon="5.72271">
        <ele>1582.1</ele>
        <time>2021-12-19T12:56:53Z</time>
      </trkpt>
      <trkpt lat="45.35158" lon="5.7227">
        <ele>1581.9</ele>
        <time>2021-12-19T12:56:54Z</time>
      </trkpt>
      <trkpt lat="45.35159" lon="5.7227">
        <ele>1581.7</ele>
        <time>2021-12-19T12:56:55Z</time>
      </trkpt>
      <trkpt lat="45.35159" lon="5.7227">
        <ele>1581.6</ele>
        <time>2021-12-19T12:56:56Z</time>
      </trkpt>
      <trkpt lat="45.3516" lon="5.72271">
        <ele>1581.4</ele>
        <time>2021-12-19T12:56:57Z</time>
      </trkpt>
      <trkpt lat="45.3516" lon="5.72271">
        <ele>1581.2</ele>
        <time>2021-12-19T12:56:58Z</time>
      </trkpt>
      <trkpt lat="45.35162" lon="5.72272">
        <ele>1580.8</ele>
        <time>2021-12-19T12:56:59Z</time>
      </trkpt>
      <trkpt lat="45.35164" lon="5.72271">
        <ele>1580.3</ele>
        <time>2021-12-19T12:57:00Z</time>
      </trkpt>
      <trkpt lat="45.35166" lon="5.7227">
        <ele>1579.8</ele>
        <time>2021-12-19T12:57:01Z</time>
      </trkpt>
      <trkpt lat="45.35168" lon="5.7227">
        <ele>1579.3</ele>
        <time>2021-12-19T12:57:02Z</time>
      </trkpt>
      <trkpt lat="45.35171" lon="5.72271">
        <ele>1578.7</ele>
        <time>2021-12-19T12:57:03Z</time>
      </trkpt>
      <trkpt lat="45.35174" lon="5.7227">
        <ele>1578.1</ele>
        <time>2021-12-19T12:57:04Z</time>
      </trkpt>
      <trkpt lat="45.35176" lon="5.7227">
        <ele>1577.6</ele>
        <time>2021-12-19T12:57:05Z</time>
      </trkpt>
      <trkpt lat="45.35178" lon="5.72269">
        <ele>1577.2</ele>
        <time>2021-12-19T12:57:06Z</time>
      </trkpt>
      <trkpt lat="45.3518" lon="5.72268">
        <ele>1576.8</ele>
        <time>2021-12-19T12:57:07Z</time>
      </trkpt>
      <trkpt lat="45.35181" lon="5.72266">
        <ele>1576.5</ele>
        <time>2021-12-19T12:57:08Z</time>
      </trkpt>
      <trkpt lat="45.35183" lon="5.72265">
        <ele>1576.1</ele>
        <time>2021-12-19T12:57:09Z</time>
      </trkpt>
      <trkpt lat="45.35185" lon="5.72265">
        <ele>1575.8</ele>
        <time>2021-12-19T12:57:10Z</time>
      </trkpt>
      <trkpt lat="45.35187" lon="5.72264">
        <ele>1575.4</ele>
        <time>2021-12-19T12:57:11Z</time>
      </trkpt>
      <trkpt lat="45.3519" lon="5.72264">
        <ele>1574.8</ele>
        <time>2021-12-19T12:57:12Z</time>
      </trkpt>
      <trkpt lat="45.35192" lon="5.72264">
        <ele>1574.5</ele>
        <time>2021-12-19T12:57:13Z</time>
      </trkpt>
      <trkpt lat="45.35194" lon="5.72265">
        <ele>1574.1</ele>
        <time>2021-12-19T12:57:14Z</time>
      </trkpt>
      <trkpt lat="45.35198" lon="5.72266">
        <ele>1573.3</ele>
        <time>2021-12-19T12:57:15Z</time>
      </trkpt>
      <trkpt lat="45.35202" lon="5.72267">
        <ele>1572.5</ele>
        <time>2021-12-19T12:57:16Z</time>
      </trkpt>
      <trkpt lat="45.35205" lon="5.72268">
        <ele>1571.9</ele>
        <time>2021-12-19T12:57:17Z</time>
      </trkpt>
      <trkpt lat="45.35208" lon="5.7227">
        <ele>1571.1</ele>
        <time>2021-12-19T12:57:18Z</time>
      </trkpt>
      <trkpt lat="45.35211" lon="5.72272">
        <ele>1570.3</ele>
        <time>2021-12-19T12:57:19Z</time>
      </trkpt>
      <trkpt lat="45.35214" lon="5.72274">
        <ele>1569.6</ele>
        <time>2021-12-19T12:57:20Z</time>
      </trkpt>
      <trkpt lat="45.35217" lon="5.72275">
        <ele>1568.9</ele>
        <time>2021-12-19T12:57:21Z</time>
      </trkpt>
      <trkpt lat="45.35219" lon="5.72277">
        <ele>1568.2</ele>
        <time>2021-12-19T12:57:22Z</time>
      </trkpt>
      <trkpt lat="45.35222" lon="5.7228">
        <ele>1567.6</ele>
        <time>2021-12-19T12:57:23Z</time>
      </trkpt>
      <trkpt lat="45.35222" lon="5.72283">
        <ele>1567.1</ele>
        <time>2021-12-19T12:57:24Z</time>
      </trkpt>
      <trkpt lat="45.35222" lon="5.72286">
        <ele>1566.6</ele>
        <time>2021-12-19T12:57:25Z</time>
      </trkpt>
      <trkpt lat="45.35222" lon="5.72289">
        <ele>1566.1</ele>
        <time>2021-12-19T12:57:26Z</time>
      </trkpt>
      <trkpt lat="45.35223" lon="5.72292">
        <ele>1565.5</ele>
        <time>2021-12-19T12:57:27Z</time>
      </trkpt>
      <trkpt lat="45.35225" lon="5.72295">
        <ele>1564.8</ele>
        <time>2021-12-19T12:57:28Z</time>
      </trkpt>
      <trkpt lat="45.35227" lon="5.72298">
        <ele>1564.3</ele>
        <time>2021-12-19T12:57:29Z</time>
      </trkpt>
      <trkpt lat="45.35228" lon="5.72299">
        <ele>1564</ele>
        <time>2021-12-19T12:57:30Z</time>
      </trkpt>
      <trkpt lat="45.35229" lon="5.72299">
        <ele>1563.9</ele>
        <time>2021-12-19T12:57:31Z</time>
      </trkpt>
      <trkpt lat="45.35229" lon="5.72299">
        <ele>1563.8</ele>
        <time>2021-12-19T12:57:32Z</time>
      </trkpt>
      <trkpt lat="45.35229" lon="5.72299">
        <ele>1563.8</ele>
        <time>2021-12-19T12:57:33Z</time>
      </trkpt>
      <trkpt lat="45.35229" lon="5.72298">
        <ele>1563.7</ele>
        <time>2021-12-19T12:57:34Z</time>
      </trkpt>
      <trkpt lat="45.3523" lon="5.72298">
        <ele>1563.5</ele>
        <time>2021-12-19T12:57:35Z</time>
      </trkpt>
      <trkpt lat="45.3523" lon="5.72298">
        <ele>1563.5</ele>
        <time>2021-12-19T12:57:36Z</time>
      </trkpt>
      <trkpt lat="45.3523" lon="5.72298">
        <ele>1563.5</ele>
        <time>2021-12-19T12:57:37Z</time>
      </trkpt>
      <trkpt lat="45.3523" lon="5.72298">
        <ele>1563.4</ele>
        <time>2021-12-19T12:57:38Z</time>
      </trkpt>
      <trkpt lat="45.3523" lon="5.72298">
        <ele>1563.4</ele>
        <time>2021-12-19T12:57:39Z</time>
      </trkpt>
      <trkpt lat="45.3523" lon="5.72298">
        <ele>1563.4</ele>
        <time>2021-12-19T12:57:40Z</time>
      </trkpt>
      <trkpt lat="45.3523" lon="5.72298">
        <ele>1563.4</ele>
        <time>2021-12-19T12:57:41Z</time>
      </trkpt>
      <trkpt lat="45.3523" lon="5.72298">
        <ele>1563.4</ele>
        <time>2021-12-19T12:57:42Z</time>
      </trkpt>
      <trkpt lat="45.3523" lon="5.72297">
        <ele>1563.4</ele>
        <time>2021-12-19T12:57:43Z</time>
      </trkpt>
      <trkpt lat="45.3523" lon="5.72297">
        <ele>1563.4</ele>
        <time>2021-12-19T12:57:44Z</time>
      </trkpt>
      <trkpt lat="45.3523" lon="5.72297">
        <ele>1563.3</ele>
        <time>2021-12-19T12:57:45Z</time>
      </trkpt>
      <trkpt lat="45.3523" lon="5.72297">
        <ele>1563.3</ele>
        <time>2021-12-19T12:57:46Z</time>
      </trkpt>
      <trkpt lat="45.3523" lon="5.72298">
        <ele>1563.3</ele>
        <time>2021-12-19T12:57:47Z</time>
      </trkpt>
      <trkpt lat="45.3523" lon="5.72298">
        <ele>1563.2</ele>
        <time>2021-12-19T12:57:48Z</time>
      </trkpt>
      <trkpt lat="45.35231" lon="5.72299">
        <ele>1563</ele>
        <time>2021-12-19T12:57:49Z</time>
      </trkpt>
      <trkpt lat="45.35231" lon="5.72301">
        <ele>1562.7</ele>
        <time>2021-12-19T12:57:50Z</time>
      </trkpt>
      <trkpt lat="45.35231" lon="5.72305">
        <ele>1562</ele>
        <time>2021-12-19T12:57:51Z</time>
      </trkpt>
      <trkpt lat="45.35231" lon="5.72307">
        <ele>1561.7</ele>
        <time>2021-12-19T12:57:52Z</time>
      </trkpt>
      <trkpt lat="45.3523" lon="5.72308">
        <ele>1561.4</ele>
        <time>2021-12-19T12:57:53Z</time>
      </trkpt>
      <trkpt lat="45.35229" lon="5.72308">
        <ele>1561.2</ele>
        <time>2021-12-19T12:57:54Z</time>
      </trkpt>
      <trkpt lat="45.35229" lon="5.72309">
        <ele>1561.1</ele>
        <time>2021-12-19T12:57:55Z</time>
      </trkpt>
      <trkpt lat="45.35229" lon="5.72309">
        <ele>1560.9</ele>
        <time>2021-12-19T12:57:56Z</time>
      </trkpt>
      <trkpt lat="45.35228" lon="5.72311">
        <ele>1560.6</ele>
        <time>2021-12-19T12:57:57Z</time>
      </trkpt>
      <trkpt lat="45.35225" lon="5.72315">
        <ele>1559.7</ele>
        <time>2021-12-19T12:57:58Z</time>
      </trkpt>
      <trkpt lat="45.35224" lon="5.72319">
        <ele>1558.7</ele>
        <time>2021-12-19T12:57:59Z</time>
      </trkpt>
      <trkpt lat="45.35224" lon="5.72323">
        <ele>1558</ele>
        <time>2021-12-19T12:58:00Z</time>
      </trkpt>
      <trkpt lat="45.35224" lon="5.72327">
        <ele>1557.1</ele>
        <time>2021-12-19T12:58:01Z</time>
      </trkpt>
      <trkpt lat="45.35224" lon="5.7233">
        <ele>1556.5</ele>
        <time>2021-12-19T12:58:02Z</time>
      </trkpt>
      <trkpt lat="45.35224" lon="5.72332">
        <ele>1556.2</ele>
        <time>2021-12-19T12:58:03Z</time>
      </trkpt>
      <trkpt lat="45.35223" lon="5.72333">
        <ele>1555.8</ele>
        <time>2021-12-19T12:58:04Z</time>
      </trkpt>
      <trkpt lat="45.35222" lon="5.72334">
        <ele>1555.5</ele>
        <time>2021-12-19T12:58:05Z</time>
      </trkpt>
      <trkpt lat="45.35221" lon="5.72336">
        <ele>1554.9</ele>
        <time>2021-12-19T12:58:06Z</time>
      </trkpt>
      <trkpt lat="45.3522" lon="5.72339">
        <ele>1554.3</ele>
        <time>2021-12-19T12:58:07Z</time>
      </trkpt>
      <trkpt lat="45.3522" lon="5.72342">
        <ele>1553.8</ele>
        <time>2021-12-19T12:58:08Z</time>
      </trkpt>
      <trkpt lat="45.3522" lon="5.72343">
        <ele>1553.5</ele>
        <time>2021-12-19T12:58:09Z</time>
      </trkpt>
      <trkpt lat="45.35219" lon="5.72344">
        <ele>1553.3</ele>
        <time>2021-12-19T12:58:10Z</time>
      </trkpt>
      <trkpt lat="45.3522" lon="5.72344">
        <ele>1553</ele>
        <time>2021-12-19T12:58:11Z</time>
      </trkpt>
      <trkpt lat="45.35221" lon="5.72344">
        <ele>1552.7</ele>
        <time>2021-12-19T12:58:12Z</time>
      </trkpt>
      <trkpt lat="45.35222" lon="5.72344">
        <ele>1552.4</ele>
        <time>2021-12-19T12:58:13Z</time>
      </trkpt>
      <trkpt lat="45.35223" lon="5.72343">
        <ele>1552.1</ele>
        <time>2021-12-19T12:58:14Z</time>
      </trkpt>
      <trkpt lat="45.35224" lon="5.72343">
        <ele>1551.9</ele>
        <time>2021-12-19T12:58:15Z</time>
      </trkpt>
      <trkpt lat="45.35225" lon="5.72343">
        <ele>1551.7</ele>
        <time>2021-12-19T12:58:16Z</time>
      </trkpt>
      <trkpt lat="45.35225" lon="5.72343">
        <ele>1551.6</ele>
        <time>2021-12-19T12:58:17Z</time>
      </trkpt>
      <trkpt lat="45.35226" lon="5.72342">
        <ele>1551.3</ele>
        <time>2021-12-19T12:58:18Z</time>
      </trkpt>
      <trkpt lat="45.35227" lon="5.72342">
        <ele>1551</ele>
        <time>2021-12-19T12:58:19Z</time>
      </trkpt>
      <trkpt lat="45.35227" lon="5.72342">
        <ele>1550.9</ele>
        <time>2021-12-19T12:58:20Z</time>
      </trkpt>
      <trkpt lat="45.35228" lon="5.72342">
        <ele>1550.7</ele>
        <time>2021-12-19T12:58:21Z</time>
      </trkpt>
      <trkpt lat="45.35227" lon="5.72341">
        <ele>1550.5</ele>
        <time>2021-12-19T12:58:22Z</time>
      </trkpt>
      <trkpt lat="45.35228" lon="5.72341">
        <ele>1550.3</ele>
        <time>2021-12-19T12:58:23Z</time>
      </trkpt>
      <trkpt lat="45.35228" lon="5.72341">
        <ele>1550.3</ele>
        <time>2021-12-19T12:58:24Z</time>
      </trkpt>
      <trkpt lat="45.35227" lon="5.7234">
        <ele>1550.1</ele>
        <time>2021-12-19T12:58:25Z</time>
      </trkpt>
      <trkpt lat="45.35227" lon="5.72339">
        <ele>1549.9</ele>
        <time>2021-12-19T12:58:26Z</time>
      </trkpt>
      <trkpt lat="45.35227" lon="5.7234">
        <ele>1549.8</ele>
        <time>2021-12-19T12:58:27Z</time>
      </trkpt>
      <trkpt lat="45.35227" lon="5.72339">
        <ele>1549.8</ele>
        <time>2021-12-19T12:58:28Z</time>
      </trkpt>
      <trkpt lat="45.35228" lon="5.7234">
        <ele>1549.5</ele>
        <time>2021-12-19T12:58:29Z</time>
      </trkpt>
      <trkpt lat="45.35227" lon="5.7234">
        <ele>1549.4</ele>
        <time>2021-12-19T12:58:30Z</time>
      </trkpt>
      <trkpt lat="45.35227" lon="5.72341">
        <ele>1549.1</ele>
        <time>2021-12-19T12:58:31Z</time>
      </trkpt>
      <trkpt lat="45.35228" lon="5.72342">
        <ele>1548.9</ele>
        <time>2021-12-19T12:58:32Z</time>
      </trkpt>
      <trkpt lat="45.35229" lon="5.72343">
        <ele>1548.4</ele>
        <time>2021-12-19T12:58:33Z</time>
      </trkpt>
      <trkpt lat="45.3523" lon="5.72345">
        <ele>1548.1</ele>
        <time>2021-12-19T12:58:34Z</time>
      </trkpt>
      <trkpt lat="45.3523" lon="5.72347">
        <ele>1547.7</ele>
        <time>2021-12-19T12:58:35Z</time>
      </trkpt>
      <trkpt lat="45.35229" lon="5.72348">
        <ele>1547.3</ele>
        <time>2021-12-19T12:58:36Z</time>
      </trkpt>
      <trkpt lat="45.35229" lon="5.7235">
        <ele>1546.9</ele>
        <time>2021-12-19T12:58:37Z</time>
      </trkpt>
      <trkpt lat="45.35229" lon="5.72352">
        <ele>1546.6</ele>
        <time>2021-12-19T12:58:38Z</time>
      </trkpt>
      <trkpt lat="45.35229" lon="5.72353">
        <ele>1546.4</ele>
        <time>2021-12-19T12:58:39Z</time>
      </trkpt>
      <trkpt lat="45.35229" lon="5.72353">
        <ele>1546.2</ele>
        <time>2021-12-19T12:58:40Z</time>
      </trkpt>
      <trkpt lat="45.35229" lon="5.72354">
        <ele>1546</ele>
        <time>2021-12-19T12:58:41Z</time>
      </trkpt>
      <trkpt lat="45.35229" lon="5.72354">
        <ele>1546</ele>
        <time>2021-12-19T12:58:42Z</time>
      </trkpt>
      <trkpt lat="45.35229" lon="5.72354">
        <ele>1545.8</ele>
        <time>2021-12-19T12:58:43Z</time>
      </trkpt>
      <trkpt lat="45.35229" lon="5.72355">
        <ele>1545.8</ele>
        <time>2021-12-19T12:58:44Z</time>
      </trkpt>
      <trkpt lat="45.35229" lon="5.72355">
        <ele>1545.5</ele>
        <time>2021-12-19T12:58:45Z</time>
      </trkpt>
      <trkpt lat="45.35228" lon="5.72356">
        <ele>1545.4</ele>
        <time>2021-12-19T12:58:46Z</time>
      </trkpt>
      <trkpt lat="45.35228" lon="5.72357">
        <ele>1545.2</ele>
        <time>2021-12-19T12:58:47Z</time>
      </trkpt>
      <trkpt lat="45.35228" lon="5.72358">
        <ele>1545</ele>
        <time>2021-12-19T12:58:48Z</time>
      </trkpt>
      <trkpt lat="45.35228" lon="5.72358">
        <ele>1544.9</ele>
        <time>2021-12-19T12:58:49Z</time>
      </trkpt>
      <trkpt lat="45.35228" lon="5.72358">
        <ele>1544.8</ele>
        <time>2021-12-19T12:58:50Z</time>
      </trkpt>
      <trkpt lat="45.35227" lon="5.72358">
        <ele>1544.7</ele>
        <time>2021-12-19T12:58:51Z</time>
      </trkpt>
      <trkpt lat="45.35227" lon="5.72358">
        <ele>1544.6</ele>
        <time>2021-12-19T12:58:52Z</time>
      </trkpt>
      <trkpt lat="45.35227" lon="5.72358">
        <ele>1544.5</ele>
        <time>2021-12-19T12:58:53Z</time>
      </trkpt>
      <trkpt lat="45.35227" lon="5.72358">
        <ele>1544.5</ele>
        <time>2021-12-19T12:58:54Z</time>
      </trkpt>
      <trkpt lat="45.35227" lon="5.72358">
        <ele>1544.5</ele>
        <time>2021-12-19T12:58:55Z</time>
      </trkpt>
      <trkpt lat="45.35227" lon="5.72358">
        <ele>1544.4</ele>
        <time>2021-12-19T12:58:56Z</time>
      </trkpt>
      <trkpt lat="45.35227" lon="5.72358">
        <ele>1544.3</ele>
        <time>2021-12-19T12:58:57Z</time>
      </trkpt>
      <trkpt lat="45.35226" lon="5.72359">
        <ele>1544.2</ele>
        <time>2021-12-19T12:58:58Z</time>
      </trkpt>
      <trkpt lat="45.35226" lon="5.72359">
        <ele>1544.2</ele>
        <time>2021-12-19T12:58:59Z</time>
      </trkpt>
      <trkpt lat="45.35226" lon="5.7236">
        <ele>1544</ele>
        <time>2021-12-19T12:59:00Z</time>
      </trkpt>
      <trkpt lat="45.35226" lon="5.7236">
        <ele>1543.9</ele>
        <time>2021-12-19T12:59:01Z</time>
      </trkpt>
      <trkpt lat="45.35225" lon="5.72361">
        <ele>1543.8</ele>
        <time>2021-12-19T12:59:02Z</time>
      </trkpt>
      <trkpt lat="45.35225" lon="5.72361">
        <ele>1543.6</ele>
        <time>2021-12-19T12:59:03Z</time>
      </trkpt>
      <trkpt lat="45.35225" lon="5.72363">
        <ele>1543.2</ele>
        <time>2021-12-19T12:59:04Z</time>
      </trkpt>
      <trkpt lat="45.35224" lon="5.72364">
        <ele>1543.1</ele>
        <time>2021-12-19T12:59:05Z</time>
      </trkpt>
      <trkpt lat="45.35224" lon="5.72364">
        <ele>1542.9</ele>
        <time>2021-12-19T12:59:06Z</time>
      </trkpt>
      <trkpt lat="45.35224" lon="5.72364">
        <ele>1542.9</ele>
        <time>2021-12-19T12:59:07Z</time>
      </trkpt>
      <trkpt lat="45.35224" lon="5.72364">
        <ele>1542.9</ele>
        <time>2021-12-19T12:59:08Z</time>
      </trkpt>
      <trkpt lat="45.35224" lon="5.72365">
        <ele>1542.7</ele>
        <time>2021-12-19T12:59:09Z</time>
      </trkpt>
      <trkpt lat="45.35224" lon="5.72367">
        <ele>1542.4</ele>
        <time>2021-12-19T12:59:10Z</time>
      </trkpt>
      <trkpt lat="45.35224" lon="5.72369">
        <ele>1541.9</ele>
        <time>2021-12-19T12:59:11Z</time>
      </trkpt>
      <trkpt lat="45.35224" lon="5.72372">
        <ele>1541.5</ele>
        <time>2021-12-19T12:59:12Z</time>
      </trkpt>
      <trkpt lat="45.35225" lon="5.72374">
        <ele>1541.1</ele>
        <time>2021-12-19T12:59:13Z</time>
      </trkpt>
      <trkpt lat="45.35225" lon="5.72377">
        <ele>1540.6</ele>
        <time>2021-12-19T12:59:14Z</time>
      </trkpt>
      <trkpt lat="45.35224" lon="5.72379">
        <ele>1540.3</ele>
        <time>2021-12-19T12:59:15Z</time>
      </trkpt>
      <trkpt lat="45.35225" lon="5.72379">
        <ele>1540.1</ele>
        <time>2021-12-19T12:59:16Z</time>
      </trkpt>
      <trkpt lat="45.35226" lon="5.72379">
        <ele>1540</ele>
        <time>2021-12-19T12:59:17Z</time>
      </trkpt>
      <trkpt lat="45.35228" lon="5.7238">
        <ele>1539.5</ele>
        <time>2021-12-19T12:59:18Z</time>
      </trkpt>
      <trkpt lat="45.3523" lon="5.72381">
        <ele>1539.1</ele>
        <time>2021-12-19T12:59:19Z</time>
      </trkpt>
      <trkpt lat="45.35233" lon="5.72384">
        <ele>1538.5</ele>
        <time>2021-12-19T12:59:20Z</time>
      </trkpt>
      <trkpt lat="45.35236" lon="5.72387">
        <ele>1538</ele>
        <time>2021-12-19T12:59:21Z</time>
      </trkpt>
      <trkpt lat="45.35238" lon="5.7239">
        <ele>1537.5</ele>
        <time>2021-12-19T12:59:22Z</time>
      </trkpt>
      <trkpt lat="45.3524" lon="5.72394">
        <ele>1537</ele>
        <time>2021-12-19T12:59:23Z</time>
      </trkpt>
      <trkpt lat="45.35243" lon="5.72398">
        <ele>1536.5</ele>
        <time>2021-12-19T12:59:24Z</time>
      </trkpt>
      <trkpt lat="45.35246" lon="5.72402">
        <ele>1536</ele>
        <time>2021-12-19T12:59:25Z</time>
      </trkpt>
      <trkpt lat="45.35249" lon="5.72405">
        <ele>1535.5</ele>
        <time>2021-12-19T12:59:26Z</time>
      </trkpt>
      <trkpt lat="45.35251" lon="5.72409">
        <ele>1535.1</ele>
        <time>2021-12-19T12:59:27Z</time>
      </trkpt>
      <trkpt lat="45.35253" lon="5.7241">
        <ele>1534.8</ele>
        <time>2021-12-19T12:59:28Z</time>
      </trkpt>
      <trkpt lat="45.35255" lon="5.72411">
        <ele>1534.6</ele>
        <time>2021-12-19T12:59:29Z</time>
      </trkpt>
      <trkpt lat="45.35256" lon="5.72412">
        <ele>1534.4</ele>
        <time>2021-12-19T12:59:30Z</time>
      </trkpt>
      <trkpt lat="45.35257" lon="5.72412">
        <ele>1534.3</ele>
        <time>2021-12-19T12:59:31Z</time>
      </trkpt>
      <trkpt lat="45.35258" lon="5.72413">
        <ele>1534.2</ele>
        <time>2021-12-19T12:59:32Z</time>
      </trkpt>
      <trkpt lat="45.35259" lon="5.72413">
        <ele>1534.1</ele>
        <time>2021-12-19T12:59:33Z</time>
      </trkpt>
      <trkpt lat="45.35259" lon="5.72413">
        <ele>1534.1</ele>
        <time>2021-12-19T12:59:34Z</time>
      </trkpt>
      <trkpt lat="45.35259" lon="5.72413">
        <ele>1534</ele>
        <time>2021-12-19T12:59:35Z</time>
      </trkpt>
      <trkpt lat="45.35259" lon="5.72413">
        <ele>1534</ele>
        <time>2021-12-19T12:59:36Z</time>
      </trkpt>
      <trkpt lat="45.3526" lon="5.72413">
        <ele>1533.9</ele>
        <time>2021-12-19T12:59:37Z</time>
      </trkpt>
      <trkpt lat="45.3526" lon="5.72412">
        <ele>1533.9</ele>
        <time>2021-12-19T12:59:38Z</time>
      </trkpt>
      <trkpt lat="45.35261" lon="5.72412">
        <ele>1533.8</ele>
        <time>2021-12-19T12:59:39Z</time>
      </trkpt>
      <trkpt lat="45.35262" lon="5.72412">
        <ele>1533.7</ele>
        <time>2021-12-19T12:59:40Z</time>
      </trkpt>
      <trkpt lat="45.35262" lon="5.72412">
        <ele>1533.6</ele>
        <time>2021-12-19T12:59:41Z</time>
      </trkpt>
      <trkpt lat="45.35262" lon="5.72411">
        <ele>1533.6</ele>
        <time>2021-12-19T12:59:42Z</time>
      </trkpt>
      <trkpt lat="45.35262" lon="5.72411">
        <ele>1533.6</ele>
        <time>2021-12-19T12:59:43Z</time>
      </trkpt>
      <trkpt lat="45.35262" lon="5.72411">
        <ele>1533.6</ele>
        <time>2021-12-19T12:59:44Z</time>
      </trkpt>
      <trkpt lat="45.35262" lon="5.72411">
        <ele>1533.6</ele>
        <time>2021-12-19T12:59:45Z</time>
      </trkpt>
      <trkpt lat="45.35262" lon="5.72412">
        <ele>1533.5</ele>
        <time>2021-12-19T12:59:46Z</time>
      </trkpt>
      <trkpt lat="45.35262" lon="5.72412">
        <ele>1533.5</ele>
        <time>2021-12-19T12:59:47Z</time>
      </trkpt>
      <trkpt lat="45.35262" lon="5.72412">
        <ele>1533.4</ele>
        <time>2021-12-19T12:59:48Z</time>
      </trkpt>
      <trkpt lat="45.35261" lon="5.72412">
        <ele>1533.4</ele>
        <time>2021-12-19T12:59:49Z</time>
      </trkpt>
      <trkpt lat="45.35261" lon="5.72412">
        <ele>1533.4</ele>
        <time>2021-12-19T12:59:50Z</time>
      </trkpt>
      <trkpt lat="45.35261" lon="5.72412">
        <ele>1533.4</ele>
        <time>2021-12-19T12:59:51Z</time>
      </trkpt>
      <trkpt lat="45.35261" lon="5.72412">
        <ele>1533.3</ele>
        <time>2021-12-19T12:59:52Z</time>
      </trkpt>
      <trkpt lat="45.35262" lon="5.72412">
        <ele>1533.3</ele>
        <time>2021-12-19T12:59:53Z</time>
      </trkpt>
      <trkpt lat="45.35262" lon="5.72412">
        <ele>1533.3</ele>
        <time>2021-12-19T12:59:54Z</time>
      </trkpt>
      <trkpt lat="45.35262" lon="5.72412">
        <ele>1533.2</ele>
        <time>2021-12-19T12:59:55Z</time>
      </trkpt>
      <trkpt lat="45.35262" lon="5.72412">
        <ele>1533.2</ele>
        <time>2021-12-19T12:59:56Z</time>
      </trkpt>
      <trkpt lat="45.35262" lon="5.72412">
        <ele>1533.2</ele>
        <time>2021-12-19T12:59:57Z</time>
      </trkpt>
      <trkpt lat="45.35262" lon="5.72412">
        <ele>1533.1</ele>
        <time>2021-12-19T12:59:58Z</time>
      </trkpt>
      <trkpt lat="45.35262" lon="5.72412">
        <ele>1533.1</ele>
        <time>2021-12-19T12:59:59Z</time>
      </trkpt>
      <trkpt lat="45.35262" lon="5.72412">
        <ele>1533.1</ele>
        <time>2021-12-19T13:00:00Z</time>
      </trkpt>
      <trkpt lat="45.35262" lon="5.72412">
        <ele>1533.1</ele>
        <time>2021-12-19T13:00:01Z</time>
      </trkpt>
      <trkpt lat="45.35262" lon="5.72412">
        <ele>1533.1</ele>
        <time>2021-12-19T13:00:02Z</time>
      </trkpt>
      <trkpt lat="45.35262" lon="5.72412">
        <ele>1533</ele>
        <time>2021-12-19T13:00:03Z</time>
      </trkpt>
      <trkpt lat="45.35262" lon="5.72412">
        <ele>1533</ele>
        <time>2021-12-19T13:00:04Z</time>
      </trkpt>
      <trkpt lat="45.35262" lon="5.72412">
        <ele>1533</ele>
        <time>2021-12-19T13:00:05Z</time>
      </trkpt>
      <trkpt lat="45.35262" lon="5.72412">
        <ele>1532.9</ele>
        <time>2021-12-19T13:00:06Z</time>
      </trkpt>
      <trkpt lat="45.35262" lon="5.72412">
        <ele>1532.9</ele>
        <time>2021-12-19T13:00:07Z</time>
      </trkpt>
      <trkpt lat="45.35261" lon="5.72411">
        <ele>1532.9</ele>
        <time>2021-12-19T13:00:08Z</time>
      </trkpt>
      <trkpt lat="45.35261" lon="5.72411">
        <ele>1532.9</ele>
        <time>2021-12-19T13:00:09Z</time>
      </trkpt>
      <trkpt lat="45.35261" lon="5.72412">
        <ele>1532.8</ele>
        <time>2021-12-19T13:00:10Z</time>
      </trkpt>
      <trkpt lat="45.35261" lon="5.72412">
        <ele>1532.7</ele>
        <time>2021-12-19T13:00:11Z</time>
      </trkpt>
      <trkpt lat="45.35261" lon="5.72412">
        <ele>1532.7</ele>
        <time>2021-12-19T13:00:12Z</time>
      </trkpt>
      <trkpt lat="45.35261" lon="5.72412">
        <ele>1532.7</ele>
        <time>2021-12-19T13:00:13Z</time>
      </trkpt>
      <trkpt lat="45.35261" lon="5.72412">
        <ele>1532.7</ele>
        <time>2021-12-19T13:00:14Z</time>
      </trkpt>
      <trkpt lat="45.3526" lon="5.72416">
        <ele>1532.3</ele>
        <time>2021-12-19T13:00:15Z</time>
      </trkpt>
      <trkpt lat="45.3526" lon="5.7242">
        <ele>1532</ele>
        <time>2021-12-19T13:00:16Z</time>
      </trkpt>
      <trkpt lat="45.35259" lon="5.72423">
        <ele>1531.6</ele>
        <time>2021-12-19T13:00:17Z</time>
      </trkpt>
      <trkpt lat="45.35257" lon="5.72426">
        <ele>1531.3</ele>
        <time>2021-12-19T13:00:18Z</time>
      </trkpt>
      <trkpt lat="45.35256" lon="5.72428">
        <ele>1531</ele>
        <time>2021-12-19T13:00:19Z</time>
      </trkpt>
      <trkpt lat="45.35256" lon="5.72429">
        <ele>1531</ele>
        <time>2021-12-19T13:00:20Z</time>
      </trkpt>
      <trkpt lat="45.35256" lon="5.72429">
        <ele>1530.9</ele>
        <time>2021-12-19T13:00:21Z</time>
      </trkpt>
      <trkpt lat="45.35256" lon="5.72429">
        <ele>1530.9</ele>
        <time>2021-12-19T13:00:22Z</time>
      </trkpt>
      <trkpt lat="45.35256" lon="5.72429">
        <ele>1530.9</ele>
        <time>2021-12-19T13:00:23Z</time>
      </trkpt>
      <trkpt lat="45.35256" lon="5.72429">
        <ele>1530.9</ele>
        <time>2021-12-19T13:00:24Z</time>
      </trkpt>
      <trkpt lat="45.35256" lon="5.72429">
        <ele>1530.9</ele>
        <time>2021-12-19T13:00:25Z</time>
      </trkpt>
      <trkpt lat="45.35256" lon="5.7243">
        <ele>1530.8</ele>
        <time>2021-12-19T13:00:26Z</time>
      </trkpt>
      <trkpt lat="45.35256" lon="5.72431">
        <ele>1530.7</ele>
        <time>2021-12-19T13:00:27Z</time>
      </trkpt>
      <trkpt lat="45.35257" lon="5.72433">
        <ele>1530.5</ele>
        <time>2021-12-19T13:00:28Z</time>
      </trkpt>
      <trkpt lat="45.35258" lon="5.72434">
        <ele>1530.3</ele>
        <time>2021-12-19T13:00:29Z</time>
      </trkpt>
      <trkpt lat="45.3526" lon="5.72435">
        <ele>1530.1</ele>
        <time>2021-12-19T13:00:30Z</time>
      </trkpt>
      <trkpt lat="45.35262" lon="5.72437">
        <ele>1529.7</ele>
        <time>2021-12-19T13:00:31Z</time>
      </trkpt>
      <trkpt lat="45.35265" lon="5.72442">
        <ele>1529.2</ele>
        <time>2021-12-19T13:00:32Z</time>
      </trkpt>
      <trkpt lat="45.35268" lon="5.72447">
        <ele>1528.7</ele>
        <time>2021-12-19T13:00:33Z</time>
      </trkpt>
      <trkpt lat="45.3527" lon="5.72452">
        <ele>1528.3</ele>
        <time>2021-12-19T13:00:34Z</time>
      </trkpt>
      <trkpt lat="45.35273" lon="5.72457">
        <ele>1528</ele>
        <time>2021-12-19T13:00:35Z</time>
      </trkpt>
      <trkpt lat="45.35276" lon="5.7246">
        <ele>1527.7</ele>
        <time>2021-12-19T13:00:36Z</time>
      </trkpt>
      <trkpt lat="45.35279" lon="5.72463">
        <ele>1527.4</ele>
        <time>2021-12-19T13:00:37Z</time>
      </trkpt>
      <trkpt lat="45.35282" lon="5.72466">
        <ele>1527.1</ele>
        <time>2021-12-19T13:00:38Z</time>
      </trkpt>
      <trkpt lat="45.35284" lon="5.7247">
        <ele>1526.8</ele>
        <time>2021-12-19T13:00:39Z</time>
      </trkpt>
      <trkpt lat="45.35285" lon="5.72473">
        <ele>1526.7</ele>
        <time>2021-12-19T13:00:40Z</time>
      </trkpt>
      <trkpt lat="45.35287" lon="5.72474">
        <ele>1526.5</ele>
        <time>2021-12-19T13:00:41Z</time>
      </trkpt>
      <trkpt lat="45.35288" lon="5.72474">
        <ele>1526.5</ele>
        <time>2021-12-19T13:00:42Z</time>
      </trkpt>
      <trkpt lat="45.35289" lon="5.72475">
        <ele>1526.4</ele>
        <time>2021-12-19T13:00:43Z</time>
      </trkpt>
      <trkpt lat="45.3529" lon="5.72475">
        <ele>1526.3</ele>
        <time>2021-12-19T13:00:44Z</time>
      </trkpt>
      <trkpt lat="45.3529" lon="5.72475">
        <ele>1526.3</ele>
        <time>2021-12-19T13:00:45Z</time>
      </trkpt>
      <trkpt lat="45.35291" lon="5.72476">
        <ele>1526.2</ele>
        <time>2021-12-19T13:00:46Z</time>
      </trkpt>
      <trkpt lat="45.35291" lon="5.72476">
        <ele>1526.2</ele>
        <time>2021-12-19T13:00:47Z</time>
      </trkpt>
      <trkpt lat="45.35291" lon="5.72475">
        <ele>1526.2</ele>
        <time>2021-12-19T13:00:48Z</time>
      </trkpt>
      <trkpt lat="45.35291" lon="5.72475">
        <ele>1526.1</ele>
        <time>2021-12-19T13:00:49Z</time>
      </trkpt>
      <trkpt lat="45.35292" lon="5.72475">
        <ele>1526.1</ele>
        <time>2021-12-19T13:00:50Z</time>
      </trkpt>
      <trkpt lat="45.35291" lon="5.72475">
        <ele>1526.1</ele>
        <time>2021-12-19T13:00:51Z</time>
      </trkpt>
      <trkpt lat="45.35292" lon="5.72476">
        <ele>1526.1</ele>
        <time>2021-12-19T13:00:52Z</time>
      </trkpt>
      <trkpt lat="45.35292" lon="5.72476">
        <ele>1526.1</ele>
        <time>2021-12-19T13:00:53Z</time>
      </trkpt>
      <trkpt lat="45.35291" lon="5.72476">
        <ele>1526.1</ele>
        <time>2021-12-19T13:00:54Z</time>
      </trkpt>
      <trkpt lat="45.35292" lon="5.72476">
        <ele>1526.1</ele>
        <time>2021-12-19T13:00:55Z</time>
      </trkpt>
      <trkpt lat="45.35292" lon="5.72476">
        <ele>1526</ele>
        <time>2021-12-19T13:00:56Z</time>
      </trkpt>
      <trkpt lat="45.35292" lon="5.72476">
        <ele>1526</ele>
        <time>2021-12-19T13:00:57Z</time>
      </trkpt>
      <trkpt lat="45.35292" lon="5.72476">
        <ele>1526</ele>
        <time>2021-12-19T13:00:58Z</time>
      </trkpt>
      <trkpt lat="45.35293" lon="5.72476">
        <ele>1526</ele>
        <time>2021-12-19T13:00:59Z</time>
      </trkpt>
      <trkpt lat="45.35293" lon="5.72476">
        <ele>1526</ele>
        <time>2021-12-19T13:01:00Z</time>
      </trkpt>
      <trkpt lat="45.35293" lon="5.72477">
        <ele>1526</ele>
        <time>2021-12-19T13:01:01Z</time>
      </trkpt>
      <trkpt lat="45.35293" lon="5.72477">
        <ele>1526</ele>
        <time>2021-12-19T13:01:02Z</time>
      </trkpt>
      <trkpt lat="45.35293" lon="5.72477">
        <ele>1525.9</ele>
        <time>2021-12-19T13:01:03Z</time>
      </trkpt>
      <trkpt lat="45.35293" lon="5.72477">
        <ele>1525.9</ele>
        <time>2021-12-19T13:01:04Z</time>
      </trkpt>
      <trkpt lat="45.35293" lon="5.72479">
        <ele>1525.8</ele>
        <time>2021-12-19T13:01:05Z</time>
      </trkpt>
      <trkpt lat="45.35293" lon="5.72481">
        <ele>1525.7</ele>
        <time>2021-12-19T13:01:06Z</time>
      </trkpt>
      <trkpt lat="45.35293" lon="5.72484">
        <ele>1525.5</ele>
        <time>2021-12-19T13:01:07Z</time>
      </trkpt>
      <trkpt lat="45.35294" lon="5.72487">
        <ele>1525.3</ele>
        <time>2021-12-19T13:01:08Z</time>
      </trkpt>
      <trkpt lat="45.35295" lon="5.7249">
        <ele>1525</ele>
        <time>2021-12-19T13:01:09Z</time>
      </trkpt>
      <trkpt lat="45.35298" lon="5.72493">
        <ele>1524.6</ele>
        <time>2021-12-19T13:01:10Z</time>
      </trkpt>
      <trkpt lat="45.353" lon="5.72495">
        <ele>1524.2</ele>
        <time>2021-12-19T13:01:11Z</time>
      </trkpt>
      <trkpt lat="45.35303" lon="5.72496">
        <ele>1523.8</ele>
        <time>2021-12-19T13:01:12Z</time>
      </trkpt>
      <trkpt lat="45.35306" lon="5.72497">
        <ele>1523.3</ele>
        <time>2021-12-19T13:01:13Z</time>
      </trkpt>
      <trkpt lat="45.35308" lon="5.72499">
        <ele>1522.9</ele>
        <time>2021-12-19T13:01:14Z</time>
      </trkpt>
      <trkpt lat="45.35309" lon="5.72501">
        <ele>1522.6</ele>
        <time>2021-12-19T13:01:15Z</time>
      </trkpt>
      <trkpt lat="45.35311" lon="5.72503">
        <ele>1522.1</ele>
        <time>2021-12-19T13:01:16Z</time>
      </trkpt>
      <trkpt lat="45.35313" lon="5.72506">
        <ele>1521.6</ele>
        <time>2021-12-19T13:01:17Z</time>
      </trkpt>
      <trkpt lat="45.35315" lon="5.72509">
        <ele>1521</ele>
        <time>2021-12-19T13:01:18Z</time>
      </trkpt>
      <trkpt lat="45.35316" lon="5.72512">
        <ele>1520.5</ele>
        <time>2021-12-19T13:01:19Z</time>
      </trkpt>
      <trkpt lat="45.35318" lon="5.72515">
        <ele>1519.8</ele>
        <time>2021-12-19T13:01:20Z</time>
      </trkpt>
      <trkpt lat="45.3532" lon="5.72518">
        <ele>1519.2</ele>
        <time>2021-12-19T13:01:21Z</time>
      </trkpt>
      <trkpt lat="45.35321" lon="5.72521">
        <ele>1518.7</ele>
        <time>2021-12-19T13:01:22Z</time>
      </trkpt>
      <trkpt lat="45.35322" lon="5.72524">
        <ele>1518.2</ele>
        <time>2021-12-19T13:01:23Z</time>
      </trkpt>
      <trkpt lat="45.35324" lon="5.72527">
        <ele>1517.6</ele>
        <time>2021-12-19T13:01:24Z</time>
      </trkpt>
      <trkpt lat="45.35325" lon="5.7253">
        <ele>1517.1</ele>
        <time>2021-12-19T13:01:25Z</time>
      </trkpt>
      <trkpt lat="45.35326" lon="5.72533">
        <ele>1516.6</ele>
        <time>2021-12-19T13:01:26Z</time>
      </trkpt>
      <trkpt lat="45.35325" lon="5.72534">
        <ele>1516.4</ele>
        <time>2021-12-19T13:01:27Z</time>
      </trkpt>
      <trkpt lat="45.35325" lon="5.72535">
        <ele>1516.2</ele>
        <time>2021-12-19T13:01:28Z</time>
      </trkpt>
      <trkpt lat="45.35325" lon="5.72536">
        <ele>1516.1</ele>
        <time>2021-12-19T13:01:29Z</time>
      </trkpt>
      <trkpt lat="45.35325" lon="5.72536">
        <ele>1516</ele>
        <time>2021-12-19T13:01:30Z</time>
      </trkpt>
      <trkpt lat="45.35325" lon="5.72537">
        <ele>1516</ele>
        <time>2021-12-19T13:01:31Z</time>
      </trkpt>
      <trkpt lat="45.35325" lon="5.72537">
        <ele>1515.9</ele>
        <time>2021-12-19T13:01:32Z</time>
      </trkpt>
      <trkpt lat="45.35326" lon="5.72537">
        <ele>1515.8</ele>
        <time>2021-12-19T13:01:33Z</time>
      </trkpt>
      <trkpt lat="45.35326" lon="5.72537">
        <ele>1515.6</ele>
        <time>2021-12-19T13:01:34Z</time>
      </trkpt>
      <trkpt lat="45.35327" lon="5.72537">
        <ele>1515.5</ele>
        <time>2021-12-19T13:01:35Z</time>
      </trkpt>
      <trkpt lat="45.35327" lon="5.72538">
        <ele>1515.4</ele>
        <time>2021-12-19T13:01:36Z</time>
      </trkpt>
      <trkpt lat="45.35328" lon="5.72538">
        <ele>1515.3</ele>
        <time>2021-12-19T13:01:37Z</time>
      </trkpt>
      <trkpt lat="45.35328" lon="5.72539">
        <ele>1515.2</ele>
        <time>2021-12-19T13:01:38Z</time>
      </trkpt>
      <trkpt lat="45.35328" lon="5.7254">
        <ele>1515.1</ele>
        <time>2021-12-19T13:01:39Z</time>
      </trkpt>
      <trkpt lat="45.35328" lon="5.7254">
        <ele>1515</ele>
        <time>2021-12-19T13:01:40Z</time>
      </trkpt>
      <trkpt lat="45.35328" lon="5.72541">
        <ele>1515</ele>
        <time>2021-12-19T13:01:41Z</time>
      </trkpt>
      <trkpt lat="45.35327" lon="5.72541">
        <ele>1514.8</ele>
        <time>2021-12-19T13:01:42Z</time>
      </trkpt>
      <trkpt lat="45.35326" lon="5.72542">
        <ele>1514.6</ele>
        <time>2021-12-19T13:01:43Z</time>
      </trkpt>
      <trkpt lat="45.35326" lon="5.72542">
        <ele>1514.5</ele>
        <time>2021-12-19T13:01:44Z</time>
      </trkpt>
      <trkpt lat="45.35326" lon="5.72544">
        <ele>1514.3</ele>
        <time>2021-12-19T13:01:45Z</time>
      </trkpt>
      <trkpt lat="45.35327" lon="5.72547">
        <ele>1513.8</ele>
        <time>2021-12-19T13:01:46Z</time>
      </trkpt>
      <trkpt lat="45.35328" lon="5.72551">
        <ele>1513.3</ele>
        <time>2021-12-19T13:01:47Z</time>
      </trkpt>
      <trkpt lat="45.35329" lon="5.72555">
        <ele>1512.7</ele>
        <time>2021-12-19T13:01:48Z</time>
      </trkpt>
      <trkpt lat="45.3533" lon="5.7256">
        <ele>1512.1</ele>
        <time>2021-12-19T13:01:49Z</time>
      </trkpt>
      <trkpt lat="45.3533" lon="5.72565">
        <ele>1511.6</ele>
        <time>2021-12-19T13:01:50Z</time>
      </trkpt>
      <trkpt lat="45.3533" lon="5.72569">
        <ele>1511.1</ele>
        <time>2021-12-19T13:01:51Z</time>
      </trkpt>
      <trkpt lat="45.35329" lon="5.72574">
        <ele>1510.6</ele>
        <time>2021-12-19T13:01:52Z</time>
      </trkpt>
      <trkpt lat="45.35329" lon="5.72578">
        <ele>1510.1</ele>
        <time>2021-12-19T13:01:53Z</time>
      </trkpt>
      <trkpt lat="45.3533" lon="5.72583">
        <ele>1509.5</ele>
        <time>2021-12-19T13:01:54Z</time>
      </trkpt>
      <trkpt lat="45.35331" lon="5.72587">
        <ele>1509</ele>
        <time>2021-12-19T13:01:55Z</time>
      </trkpt>
      <trkpt lat="45.35333" lon="5.72592">
        <ele>1508.4</ele>
        <time>2021-12-19T13:01:56Z</time>
      </trkpt>
      <trkpt lat="45.35333" lon="5.72595">
        <ele>1508</ele>
        <time>2021-12-19T13:01:57Z</time>
      </trkpt>
      <trkpt lat="45.35334" lon="5.72597">
        <ele>1507.8</ele>
        <time>2021-12-19T13:01:58Z</time>
      </trkpt>
      <trkpt lat="45.35334" lon="5.72598">
        <ele>1507.6</ele>
        <time>2021-12-19T13:01:59Z</time>
      </trkpt>
      <trkpt lat="45.35334" lon="5.72599">
        <ele>1507.6</ele>
        <time>2021-12-19T13:02:00Z</time>
      </trkpt>
      <trkpt lat="45.35334" lon="5.72598">
        <ele>1507.5</ele>
        <time>2021-12-19T13:02:01Z</time>
      </trkpt>
      <trkpt lat="45.35335" lon="5.72598">
        <ele>1507.5</ele>
        <time>2021-12-19T13:02:02Z</time>
      </trkpt>
      <trkpt lat="45.35335" lon="5.72599">
        <ele>1507.4</ele>
        <time>2021-12-19T13:02:03Z</time>
      </trkpt>
      <trkpt lat="45.35335" lon="5.72599">
        <ele>1507.4</ele>
        <time>2021-12-19T13:02:04Z</time>
      </trkpt>
      <trkpt lat="45.35335" lon="5.72599">
        <ele>1507.4</ele>
        <time>2021-12-19T13:02:05Z</time>
      </trkpt>
      <trkpt lat="45.35334" lon="5.72599">
        <ele>1507.3</ele>
        <time>2021-12-19T13:02:06Z</time>
      </trkpt>
      <trkpt lat="45.35334" lon="5.72598">
        <ele>1507.2</ele>
        <time>2021-12-19T13:02:07Z</time>
      </trkpt>
      <trkpt lat="45.35333" lon="5.72598">
        <ele>1507</ele>
        <time>2021-12-19T13:02:08Z</time>
      </trkpt>
      <trkpt lat="45.35332" lon="5.72597">
        <ele>1506.9</ele>
        <time>2021-12-19T13:02:09Z</time>
      </trkpt>
      <trkpt lat="45.35331" lon="5.72597">
        <ele>1506.7</ele>
        <time>2021-12-19T13:02:10Z</time>
      </trkpt>
      <trkpt lat="45.35331" lon="5.72598">
        <ele>1506.7</ele>
        <time>2021-12-19T13:02:11Z</time>
      </trkpt>
      <trkpt lat="45.3533" lon="5.72597">
        <ele>1506.5</ele>
        <time>2021-12-19T13:02:12Z</time>
      </trkpt>
      <trkpt lat="45.35329" lon="5.72597">
        <ele>1506.3</ele>
        <time>2021-12-19T13:02:13Z</time>
      </trkpt>
      <trkpt lat="45.35329" lon="5.72598">
        <ele>1506.3</ele>
        <time>2021-12-19T13:02:14Z</time>
      </trkpt>
      <trkpt lat="45.35329" lon="5.72598">
        <ele>1506.2</ele>
        <time>2021-12-19T13:02:15Z</time>
      </trkpt>
      <trkpt lat="45.35329" lon="5.72598">
        <ele>1506.2</ele>
        <time>2021-12-19T13:02:16Z</time>
      </trkpt>
      <trkpt lat="45.3533" lon="5.72599">
        <ele>1506</ele>
        <time>2021-12-19T13:02:17Z</time>
      </trkpt>
      <trkpt lat="45.35331" lon="5.72599">
        <ele>1505.8</ele>
        <time>2021-12-19T13:02:18Z</time>
      </trkpt>
      <trkpt lat="45.35331" lon="5.72599">
        <ele>1505.7</ele>
        <time>2021-12-19T13:02:19Z</time>
      </trkpt>
      <trkpt lat="45.35332" lon="5.726">
        <ele>1505.6</ele>
        <time>2021-12-19T13:02:20Z</time>
      </trkpt>
      <trkpt lat="45.35333" lon="5.72602">
        <ele>1505.3</ele>
        <time>2021-12-19T13:02:21Z</time>
      </trkpt>
      <trkpt lat="45.35334" lon="5.72606">
        <ele>1504.6</ele>
        <time>2021-12-19T13:02:22Z</time>
      </trkpt>
      <trkpt lat="45.35335" lon="5.72612">
        <ele>1503.7</ele>
        <time>2021-12-19T13:02:23Z</time>
      </trkpt>
      <trkpt lat="45.35337" lon="5.72616">
        <ele>1502.9</ele>
        <time>2021-12-19T13:02:24Z</time>
      </trkpt>
      <trkpt lat="45.35337" lon="5.7262">
        <ele>1502.2</ele>
        <time>2021-12-19T13:02:25Z</time>
      </trkpt>
      <trkpt lat="45.35337" lon="5.72625">
        <ele>1501.5</ele>
        <time>2021-12-19T13:02:26Z</time>
      </trkpt>
      <trkpt lat="45.35336" lon="5.7263">
        <ele>1500.7</ele>
        <time>2021-12-19T13:02:27Z</time>
      </trkpt>
      <trkpt lat="45.35338" lon="5.72634">
        <ele>1500</ele>
        <time>2021-12-19T13:02:28Z</time>
      </trkpt>
      <trkpt lat="45.35339" lon="5.72638">
        <ele>1499.2</ele>
        <time>2021-12-19T13:02:29Z</time>
      </trkpt>
      <trkpt lat="45.3534" lon="5.72643">
        <ele>1498.3</ele>
        <time>2021-12-19T13:02:30Z</time>
      </trkpt>
      <trkpt lat="45.35341" lon="5.72648">
        <ele>1497.4</ele>
        <time>2021-12-19T13:02:31Z</time>
      </trkpt>
      <trkpt lat="45.3534" lon="5.72654">
        <ele>1496.5</ele>
        <time>2021-12-19T13:02:32Z</time>
      </trkpt>
      <trkpt lat="45.3534" lon="5.72659">
        <ele>1495.7</ele>
        <time>2021-12-19T13:02:33Z</time>
      </trkpt>
      <trkpt lat="45.35339" lon="5.72663">
        <ele>1495.1</ele>
        <time>2021-12-19T13:02:34Z</time>
      </trkpt>
      <trkpt lat="45.35338" lon="5.72665">
        <ele>1494.6</ele>
        <time>2021-12-19T13:02:35Z</time>
      </trkpt>
      <trkpt lat="45.35337" lon="5.72666">
        <ele>1494.4</ele>
        <time>2021-12-19T13:02:36Z</time>
      </trkpt>
      <trkpt lat="45.35336" lon="5.72667">
        <ele>1494.2</ele>
        <time>2021-12-19T13:02:37Z</time>
      </trkpt>
      <trkpt lat="45.35336" lon="5.72667">
        <ele>1494.1</ele>
        <time>2021-12-19T13:02:38Z</time>
      </trkpt>
      <trkpt lat="45.35336" lon="5.72668">
        <ele>1494.1</ele>
        <time>2021-12-19T13:02:39Z</time>
      </trkpt>
      <trkpt lat="45.35336" lon="5.72668">
        <ele>1494</ele>
        <time>2021-12-19T13:02:40Z</time>
      </trkpt>
      <trkpt lat="45.35336" lon="5.72668">
        <ele>1493.9</ele>
        <time>2021-12-19T13:02:41Z</time>
      </trkpt>
      <trkpt lat="45.35336" lon="5.72668">
        <ele>1493.8</ele>
        <time>2021-12-19T13:02:42Z</time>
      </trkpt>
      <trkpt lat="45.35336" lon="5.72668">
        <ele>1493.8</ele>
        <time>2021-12-19T13:02:43Z</time>
      </trkpt>
      <trkpt lat="45.35336" lon="5.72668">
        <ele>1493.8</ele>
        <time>2021-12-19T13:02:44Z</time>
      </trkpt>
      <trkpt lat="45.35336" lon="5.72668">
        <ele>1493.7</ele>
        <time>2021-12-19T13:02:45Z</time>
      </trkpt>
      <trkpt lat="45.35336" lon="5.72668">
        <ele>1493.7</ele>
        <time>2021-12-19T13:02:46Z</time>
      </trkpt>
      <trkpt lat="45.35336" lon="5.72668">
        <ele>1493.6</ele>
        <time>2021-12-19T13:02:47Z</time>
      </trkpt>
      <trkpt lat="45.35336" lon="5.72669">
        <ele>1493.5</ele>
        <time>2021-12-19T13:02:48Z</time>
      </trkpt>
      <trkpt lat="45.35335" lon="5.72669">
        <ele>1493.4</ele>
        <time>2021-12-19T13:02:49Z</time>
      </trkpt>
      <trkpt lat="45.35334" lon="5.7267">
        <ele>1493.2</ele>
        <time>2021-12-19T13:02:50Z</time>
      </trkpt>
      <trkpt lat="45.35334" lon="5.7267">
        <ele>1493</ele>
        <time>2021-12-19T13:02:51Z</time>
      </trkpt>
      <trkpt lat="45.35333" lon="5.72671">
        <ele>1492.8</ele>
        <time>2021-12-19T13:02:52Z</time>
      </trkpt>
      <trkpt lat="45.35333" lon="5.72671">
        <ele>1492.8</ele>
        <time>2021-12-19T13:02:53Z</time>
      </trkpt>
      <trkpt lat="45.35332" lon="5.72672">
        <ele>1492.6</ele>
        <time>2021-12-19T13:02:54Z</time>
      </trkpt>
      <trkpt lat="45.35332" lon="5.72672">
        <ele>1492.5</ele>
        <time>2021-12-19T13:02:55Z</time>
      </trkpt>
      <trkpt lat="45.35332" lon="5.72672">
        <ele>1492.5</ele>
        <time>2021-12-19T13:02:56Z</time>
      </trkpt>
      <trkpt lat="45.35332" lon="5.72672">
        <ele>1492.5</ele>
        <time>2021-12-19T13:02:57Z</time>
      </trkpt>
      <trkpt lat="45.35331" lon="5.72672">
        <ele>1492.4</ele>
        <time>2021-12-19T13:02:58Z</time>
      </trkpt>
      <trkpt lat="45.35331" lon="5.72672">
        <ele>1492.3</ele>
        <time>2021-12-19T13:02:59Z</time>
      </trkpt>
      <trkpt lat="45.3533" lon="5.72672">
        <ele>1492</ele>
        <time>2021-12-19T13:03:00Z</time>
      </trkpt>
      <trkpt lat="45.35329" lon="5.72672">
        <ele>1491.9</ele>
        <time>2021-12-19T13:03:01Z</time>
      </trkpt>
      <trkpt lat="45.35328" lon="5.72673">
        <ele>1491.7</ele>
        <time>2021-12-19T13:03:02Z</time>
      </trkpt>
      <trkpt lat="45.35328" lon="5.72673">
        <ele>1491.6</ele>
        <time>2021-12-19T13:03:03Z</time>
      </trkpt>
      <trkpt lat="45.35328" lon="5.72673">
        <ele>1491.6</ele>
        <time>2021-12-19T13:03:04Z</time>
      </trkpt>
      <trkpt lat="45.35327" lon="5.72673">
        <ele>1491.5</ele>
        <time>2021-12-19T13:03:05Z</time>
      </trkpt>
      <trkpt lat="45.35327" lon="5.72673">
        <ele>1491.5</ele>
        <time>2021-12-19T13:03:06Z</time>
      </trkpt>
      <trkpt lat="45.35327" lon="5.72672">
        <ele>1491.4</ele>
        <time>2021-12-19T13:03:07Z</time>
      </trkpt>
      <trkpt lat="45.35327" lon="5.72673">
        <ele>1491.3</ele>
        <time>2021-12-19T13:03:08Z</time>
      </trkpt>
      <trkpt lat="45.35327" lon="5.72673">
        <ele>1491.3</ele>
        <time>2021-12-19T13:03:09Z</time>
      </trkpt>
      <trkpt lat="45.35327" lon="5.72673">
        <ele>1491.2</ele>
        <time>2021-12-19T13:03:10Z</time>
      </trkpt>
      <trkpt lat="45.35327" lon="5.72673">
        <ele>1491.2</ele>
        <time>2021-12-19T13:03:11Z</time>
      </trkpt>
      <trkpt lat="45.35327" lon="5.72673">
        <ele>1491.2</ele>
        <time>2021-12-19T13:03:12Z</time>
      </trkpt>
      <trkpt lat="45.35326" lon="5.72673">
        <ele>1491.2</ele>
        <time>2021-12-19T13:03:13Z</time>
      </trkpt>
      <trkpt lat="45.35327" lon="5.72673">
        <ele>1491.1</ele>
        <time>2021-12-19T13:03:14Z</time>
      </trkpt>
      <trkpt lat="45.35327" lon="5.72674">
        <ele>1491</ele>
        <time>2021-12-19T13:03:15Z</time>
      </trkpt>
      <trkpt lat="45.35327" lon="5.72675">
        <ele>1490.8</ele>
        <time>2021-12-19T13:03:16Z</time>
      </trkpt>
      <trkpt lat="45.35326" lon="5.72678">
        <ele>1490.4</ele>
        <time>2021-12-19T13:03:17Z</time>
      </trkpt>
      <trkpt lat="45.35325" lon="5.72679">
        <ele>1490.2</ele>
        <time>2021-12-19T13:03:18Z</time>
      </trkpt>
      <trkpt lat="45.35324" lon="5.72681">
        <ele>1489.9</ele>
        <time>2021-12-19T13:03:19Z</time>
      </trkpt>
      <trkpt lat="45.35323" lon="5.72682">
        <ele>1489.7</ele>
        <time>2021-12-19T13:03:20Z</time>
      </trkpt>
      <trkpt lat="45.35322" lon="5.72684">
        <ele>1489.4</ele>
        <time>2021-12-19T13:03:21Z</time>
      </trkpt>
      <trkpt lat="45.35322" lon="5.72687">
        <ele>1489.1</ele>
        <time>2021-12-19T13:03:22Z</time>
      </trkpt>
      <trkpt lat="45.35324" lon="5.72686">
        <ele>1488.7</ele>
        <time>2021-12-19T13:03:23Z</time>
      </trkpt>
      <trkpt lat="45.35325" lon="5.72688">
        <ele>1488.5</ele>
        <time>2021-12-19T13:03:24Z</time>
      </trkpt>
      <trkpt lat="45.35325" lon="5.7269">
        <ele>1488.3</ele>
        <time>2021-12-19T13:03:25Z</time>
      </trkpt>
      <trkpt lat="45.35325" lon="5.72692">
        <ele>1488.1</ele>
        <time>2021-12-19T13:03:26Z</time>
      </trkpt>
      <trkpt lat="45.35326" lon="5.72695">
        <ele>1487.8</ele>
        <time>2021-12-19T13:03:27Z</time>
      </trkpt>
      <trkpt lat="45.35326" lon="5.72699">
        <ele>1487.4</ele>
        <time>2021-12-19T13:03:28Z</time>
      </trkpt>
      <trkpt lat="45.35327" lon="5.72704">
        <ele>1487</ele>
        <time>2021-12-19T13:03:29Z</time>
      </trkpt>
      <trkpt lat="45.35329" lon="5.72709">
        <ele>1486.5</ele>
        <time>2021-12-19T13:03:30Z</time>
      </trkpt>
      <trkpt lat="45.35332" lon="5.72714">
        <ele>1486</ele>
        <time>2021-12-19T13:03:31Z</time>
      </trkpt>
      <trkpt lat="45.35335" lon="5.72719">
        <ele>1485.5</ele>
        <time>2021-12-19T13:03:32Z</time>
      </trkpt>
      <trkpt lat="45.35337" lon="5.72723">
        <ele>1485.1</ele>
        <time>2021-12-19T13:03:33Z</time>
      </trkpt>
      <trkpt lat="45.35339" lon="5.72727">
        <ele>1484.7</ele>
        <time>2021-12-19T13:03:34Z</time>
      </trkpt>
      <trkpt lat="45.35341" lon="5.7273">
        <ele>1484.5</ele>
        <time>2021-12-19T13:03:35Z</time>
      </trkpt>
      <trkpt lat="45.35341" lon="5.72732">
        <ele>1484.3</ele>
        <time>2021-12-19T13:03:36Z</time>
      </trkpt>
      <trkpt lat="45.35342" lon="5.72733">
        <ele>1484.2</ele>
        <time>2021-12-19T13:03:37Z</time>
      </trkpt>
      <trkpt lat="45.35343" lon="5.72734">
        <ele>1484.1</ele>
        <time>2021-12-19T13:03:38Z</time>
      </trkpt>
      <trkpt lat="45.35343" lon="5.72734">
        <ele>1484.1</ele>
        <time>2021-12-19T13:03:39Z</time>
      </trkpt>
      <trkpt lat="45.35343" lon="5.72735">
        <ele>1484</ele>
        <time>2021-12-19T13:03:40Z</time>
      </trkpt>
      <trkpt lat="45.35344" lon="5.72736">
        <ele>1483.9</ele>
        <time>2021-12-19T13:03:41Z</time>
      </trkpt>
      <trkpt lat="45.35345" lon="5.72736">
        <ele>1483.9</ele>
        <time>2021-12-19T13:03:42Z</time>
      </trkpt>
      <trkpt lat="45.35345" lon="5.72736">
        <ele>1483.8</ele>
        <time>2021-12-19T13:03:43Z</time>
      </trkpt>
      <trkpt lat="45.35345" lon="5.72736">
        <ele>1483.8</ele>
        <time>2021-12-19T13:03:44Z</time>
      </trkpt>
      <trkpt lat="45.35346" lon="5.72736">
        <ele>1483.7</ele>
        <time>2021-12-19T13:03:45Z</time>
      </trkpt>
      <trkpt lat="45.35346" lon="5.72737">
        <ele>1483.7</ele>
        <time>2021-12-19T13:03:46Z</time>
      </trkpt>
      <trkpt lat="45.35347" lon="5.72737">
        <ele>1483.6</ele>
        <time>2021-12-19T13:03:47Z</time>
      </trkpt>
      <trkpt lat="45.35347" lon="5.72738">
        <ele>1483.5</ele>
        <time>2021-12-19T13:03:48Z</time>
      </trkpt>
      <trkpt lat="45.35348" lon="5.72739">
        <ele>1483.5</ele>
        <time>2021-12-19T13:03:49Z</time>
      </trkpt>
      <trkpt lat="45.35347" lon="5.72739">
        <ele>1483.4</ele>
        <time>2021-12-19T13:03:50Z</time>
      </trkpt>
      <trkpt lat="45.35348" lon="5.72739">
        <ele>1483.4</ele>
        <time>2021-12-19T13:03:51Z</time>
      </trkpt>
      <trkpt lat="45.35348" lon="5.72739">
        <ele>1483.4</ele>
        <time>2021-12-19T13:03:52Z</time>
      </trkpt>
      <trkpt lat="45.35348" lon="5.7274">
        <ele>1483.3</ele>
        <time>2021-12-19T13:03:53Z</time>
      </trkpt>
      <trkpt lat="45.35349" lon="5.7274">
        <ele>1483.2</ele>
        <time>2021-12-19T13:03:54Z</time>
      </trkpt>
      <trkpt lat="45.35349" lon="5.72743">
        <ele>1483.1</ele>
        <time>2021-12-19T13:03:55Z</time>
      </trkpt>
      <trkpt lat="45.3535" lon="5.72745">
        <ele>1482.8</ele>
        <time>2021-12-19T13:03:56Z</time>
      </trkpt>
      <trkpt lat="45.35352" lon="5.72748">
        <ele>1482.5</ele>
        <time>2021-12-19T13:03:57Z</time>
      </trkpt>
      <trkpt lat="45.35353" lon="5.7275">
        <ele>1482.3</ele>
        <time>2021-12-19T13:03:58Z</time>
      </trkpt>
      <trkpt lat="45.35353" lon="5.72752">
        <ele>1482.2</ele>
        <time>2021-12-19T13:03:59Z</time>
      </trkpt>
      <trkpt lat="45.35353" lon="5.72753">
        <ele>1482.1</ele>
        <time>2021-12-19T13:04:00Z</time>
      </trkpt>
      <trkpt lat="45.35353" lon="5.72753">
        <ele>1482.1</ele>
        <time>2021-12-19T13:04:01Z</time>
      </trkpt>
      <trkpt lat="45.35353" lon="5.72753">
        <ele>1482</ele>
        <time>2021-12-19T13:04:02Z</time>
      </trkpt>
      <trkpt lat="45.35353" lon="5.72753">
        <ele>1482</ele>
        <time>2021-12-19T13:04:03Z</time>
      </trkpt>
      <trkpt lat="45.35353" lon="5.72753">
        <ele>1481.9</ele>
        <time>2021-12-19T13:04:04Z</time>
      </trkpt>
      <trkpt lat="45.35353" lon="5.72754">
        <ele>1481.9</ele>
        <time>2021-12-19T13:04:05Z</time>
      </trkpt>
      <trkpt lat="45.35352" lon="5.72754">
        <ele>1481.8</ele>
        <time>2021-12-19T13:04:06Z</time>
      </trkpt>
      <trkpt lat="45.35352" lon="5.72755">
        <ele>1481.8</ele>
        <time>2021-12-19T13:04:07Z</time>
      </trkpt>
      <trkpt lat="45.35352" lon="5.72755">
        <ele>1481.8</ele>
        <time>2021-12-19T13:04:08Z</time>
      </trkpt>
      <trkpt lat="45.35352" lon="5.72755">
        <ele>1481.7</ele>
        <time>2021-12-19T13:04:09Z</time>
      </trkpt>
      <trkpt lat="45.35352" lon="5.72755">
        <ele>1481.7</ele>
        <time>2021-12-19T13:04:10Z</time>
      </trkpt>
      <trkpt lat="45.35352" lon="5.72756">
        <ele>1481.7</ele>
        <time>2021-12-19T13:04:11Z</time>
      </trkpt>
      <trkpt lat="45.35352" lon="5.72757">
        <ele>1481.6</ele>
        <time>2021-12-19T13:04:12Z</time>
      </trkpt>
      <trkpt lat="45.35352" lon="5.72757">
        <ele>1481.5</ele>
        <time>2021-12-19T13:04:13Z</time>
      </trkpt>
      <trkpt lat="45.35352" lon="5.72758">
        <ele>1481.5</ele>
        <time>2021-12-19T13:04:14Z</time>
      </trkpt>
      <trkpt lat="45.35353" lon="5.72758">
        <ele>1481.3</ele>
        <time>2021-12-19T13:04:15Z</time>
      </trkpt>
      <trkpt lat="45.35353" lon="5.72759">
        <ele>1481.2</ele>
        <time>2021-12-19T13:04:16Z</time>
      </trkpt>
      <trkpt lat="45.35354" lon="5.72758">
        <ele>1481.2</ele>
        <time>2021-12-19T13:04:17Z</time>
      </trkpt>
      <trkpt lat="45.35354" lon="5.72759">
        <ele>1481.2</ele>
        <time>2021-12-19T13:04:18Z</time>
      </trkpt>
      <trkpt lat="45.35354" lon="5.72759">
        <ele>1481.1</ele>
        <time>2021-12-19T13:04:19Z</time>
      </trkpt>
      <trkpt lat="45.35354" lon="5.72759">
        <ele>1481.1</ele>
        <time>2021-12-19T13:04:20Z</time>
      </trkpt>
      <trkpt lat="45.35354" lon="5.72759">
        <ele>1481.1</ele>
        <time>2021-12-19T13:04:21Z</time>
      </trkpt>
      <trkpt lat="45.35354" lon="5.72759">
        <ele>1481.1</ele>
        <time>2021-12-19T13:04:22Z</time>
      </trkpt>
      <trkpt lat="45.35354" lon="5.72759">
        <ele>1481.1</ele>
        <time>2021-12-19T13:04:23Z</time>
      </trkpt>
      <trkpt lat="45.35354" lon="5.72759">
        <ele>1481</ele>
        <time>2021-12-19T13:04:24Z</time>
      </trkpt>
      <trkpt lat="45.35354" lon="5.72759">
        <ele>1481</ele>
        <time>2021-12-19T13:04:25Z</time>
      </trkpt>
      <trkpt lat="45.35353" lon="5.7276">
        <ele>1481</ele>
        <time>2021-12-19T13:04:26Z</time>
      </trkpt>
      <trkpt lat="45.35353" lon="5.7276">
        <ele>1480.9</ele>
        <time>2021-12-19T13:04:27Z</time>
      </trkpt>
      <trkpt lat="45.35352" lon="5.72762">
        <ele>1480.7</ele>
        <time>2021-12-19T13:04:28Z</time>
      </trkpt>
      <trkpt lat="45.35352" lon="5.72763">
        <ele>1480.5</ele>
        <time>2021-12-19T13:04:29Z</time>
      </trkpt>
      <trkpt lat="45.35352" lon="5.72765">
        <ele>1480.3</ele>
        <time>2021-12-19T13:04:30Z</time>
      </trkpt>
      <trkpt lat="45.35352" lon="5.72768">
        <ele>1480</ele>
        <time>2021-12-19T13:04:31Z</time>
      </trkpt>
      <trkpt lat="45.35352" lon="5.72769">
        <ele>1479.8</ele>
        <time>2021-12-19T13:04:32Z</time>
      </trkpt>
      <trkpt lat="45.35351" lon="5.7277">
        <ele>1479.7</ele>
        <time>2021-12-19T13:04:33Z</time>
      </trkpt>
      <trkpt lat="45.35351" lon="5.72772">
        <ele>1479.5</ele>
        <time>2021-12-19T13:04:34Z</time>
      </trkpt>
      <trkpt lat="45.3535" lon="5.72772">
        <ele>1479.3</ele>
        <time>2021-12-19T13:04:35Z</time>
      </trkpt>
      <trkpt lat="45.3535" lon="5.72773">
        <ele>1479.2</ele>
        <time>2021-12-19T13:04:36Z</time>
      </trkpt>
      <trkpt lat="45.35349" lon="5.72774">
        <ele>1479.1</ele>
        <time>2021-12-19T13:04:37Z</time>
      </trkpt>
      <trkpt lat="45.35349" lon="5.72774">
        <ele>1479</ele>
        <time>2021-12-19T13:04:38Z</time>
      </trkpt>
      <trkpt lat="45.35349" lon="5.72775">
        <ele>1478.9</ele>
        <time>2021-12-19T13:04:39Z</time>
      </trkpt>
      <trkpt lat="45.35349" lon="5.72775">
        <ele>1478.8</ele>
        <time>2021-12-19T13:04:40Z</time>
      </trkpt>
      <trkpt lat="45.35348" lon="5.72776">
        <ele>1478.7</ele>
        <time>2021-12-19T13:04:41Z</time>
      </trkpt>
      <trkpt lat="45.35348" lon="5.72776">
        <ele>1478.5</ele>
        <time>2021-12-19T13:04:42Z</time>
      </trkpt>
      <trkpt lat="45.35347" lon="5.72777">
        <ele>1478.4</ele>
        <time>2021-12-19T13:04:43Z</time>
      </trkpt>
      <trkpt lat="45.35346" lon="5.72777">
        <ele>1478.3</ele>
        <time>2021-12-19T13:04:44Z</time>
      </trkpt>
      <trkpt lat="45.35346" lon="5.72777">
        <ele>1478.1</ele>
        <time>2021-12-19T13:04:45Z</time>
      </trkpt>
      <trkpt lat="45.35345" lon="5.72778">
        <ele>1477.9</ele>
        <time>2021-12-19T13:04:46Z</time>
      </trkpt>
      <trkpt lat="45.35344" lon="5.72779">
        <ele>1477.6</ele>
        <time>2021-12-19T13:04:47Z</time>
      </trkpt>
      <trkpt lat="45.35342" lon="5.7278">
        <ele>1477.3</ele>
        <time>2021-12-19T13:04:48Z</time>
      </trkpt>
      <trkpt lat="45.35342" lon="5.7278">
        <ele>1477.2</ele>
        <time>2021-12-19T13:04:49Z</time>
      </trkpt>
      <trkpt lat="45.35341" lon="5.72782">
        <ele>1476.9</ele>
        <time>2021-12-19T13:04:50Z</time>
      </trkpt>
      <trkpt lat="45.35342" lon="5.72784">
        <ele>1476.6</ele>
        <time>2021-12-19T13:04:51Z</time>
      </trkpt>
      <trkpt lat="45.35342" lon="5.72787">
        <ele>1476.1</ele>
        <time>2021-12-19T13:04:52Z</time>
      </trkpt>
      <trkpt lat="45.35343" lon="5.7279">
        <ele>1475.6</ele>
        <time>2021-12-19T13:04:53Z</time>
      </trkpt>
      <trkpt lat="45.35344" lon="5.72793">
        <ele>1475</ele>
        <time>2021-12-19T13:04:54Z</time>
      </trkpt>
      <trkpt lat="45.35345" lon="5.72799">
        <ele>1474</ele>
        <time>2021-12-19T13:04:55Z</time>
      </trkpt>
      <trkpt lat="45.35347" lon="5.72804">
        <ele>1473.1</ele>
        <time>2021-12-19T13:04:56Z</time>
      </trkpt>
      <trkpt lat="45.35349" lon="5.72808">
        <ele>1472.2</ele>
        <time>2021-12-19T13:04:57Z</time>
      </trkpt>
      <trkpt lat="45.35351" lon="5.72814">
        <ele>1471.3</ele>
        <time>2021-12-19T13:04:58Z</time>
      </trkpt>
      <trkpt lat="45.35351" lon="5.7282">
        <ele>1470.3</ele>
        <time>2021-12-19T13:04:59Z</time>
      </trkpt>
      <trkpt lat="45.35351" lon="5.72825">
        <ele>1469.5</ele>
        <time>2021-12-19T13:05:00Z</time>
      </trkpt>
      <trkpt lat="45.35352" lon="5.72829">
        <ele>1468.8</ele>
        <time>2021-12-19T13:05:01Z</time>
      </trkpt>
      <trkpt lat="45.35354" lon="5.72832">
        <ele>1468.1</ele>
        <time>2021-12-19T13:05:02Z</time>
      </trkpt>
      <trkpt lat="45.35356" lon="5.72835">
        <ele>1467.5</ele>
        <time>2021-12-19T13:05:03Z</time>
      </trkpt>
      <trkpt lat="45.35359" lon="5.72837">
        <ele>1466.8</ele>
        <time>2021-12-19T13:05:04Z</time>
      </trkpt>
      <trkpt lat="45.35362" lon="5.7284">
        <ele>1466.1</ele>
        <time>2021-12-19T13:05:05Z</time>
      </trkpt>
      <trkpt lat="45.35364" lon="5.72842">
        <ele>1465.5</ele>
        <time>2021-12-19T13:05:06Z</time>
      </trkpt>
      <trkpt lat="45.35365" lon="5.72845">
        <ele>1465.1</ele>
        <time>2021-12-19T13:05:07Z</time>
      </trkpt>
      <trkpt lat="45.35364" lon="5.72848">
        <ele>1464.6</ele>
        <time>2021-12-19T13:05:08Z</time>
      </trkpt>
      <trkpt lat="45.35362" lon="5.72852">
        <ele>1463.9</ele>
        <time>2021-12-19T13:05:09Z</time>
      </trkpt>
      <trkpt lat="45.3536" lon="5.72855">
        <ele>1463.3</ele>
        <time>2021-12-19T13:05:10Z</time>
      </trkpt>
      <trkpt lat="45.35359" lon="5.72858">
        <ele>1462.9</ele>
        <time>2021-12-19T13:05:11Z</time>
      </trkpt>
      <trkpt lat="45.35358" lon="5.72859">
        <ele>1462.7</ele>
        <time>2021-12-19T13:05:12Z</time>
      </trkpt>
      <trkpt lat="45.35358" lon="5.72859">
        <ele>1462.5</ele>
        <time>2021-12-19T13:05:13Z</time>
      </trkpt>
      <trkpt lat="45.35357" lon="5.7286">
        <ele>1462.3</ele>
        <time>2021-12-19T13:05:14Z</time>
      </trkpt>
      <trkpt lat="45.35356" lon="5.7286">
        <ele>1462.2</ele>
        <time>2021-12-19T13:05:15Z</time>
      </trkpt>
      <trkpt lat="45.35356" lon="5.7286">
        <ele>1462.1</ele>
        <time>2021-12-19T13:05:16Z</time>
      </trkpt>
      <trkpt lat="45.35356" lon="5.7286">
        <ele>1462.1</ele>
        <time>2021-12-19T13:05:17Z</time>
      </trkpt>
      <trkpt lat="45.35356" lon="5.72861">
        <ele>1462</ele>
        <time>2021-12-19T13:05:18Z</time>
      </trkpt>
      <trkpt lat="45.35354" lon="5.72861">
        <ele>1461.7</ele>
        <time>2021-12-19T13:05:19Z</time>
      </trkpt>
      <trkpt lat="45.35353" lon="5.72861">
        <ele>1461.4</ele>
        <time>2021-12-19T13:05:20Z</time>
      </trkpt>
      <trkpt lat="45.35352" lon="5.72861">
        <ele>1461.3</ele>
        <time>2021-12-19T13:05:21Z</time>
      </trkpt>
      <trkpt lat="45.35352" lon="5.72861">
        <ele>1461.1</ele>
        <time>2021-12-19T13:05:22Z</time>
      </trkpt>
      <trkpt lat="45.35351" lon="5.7286">
        <ele>1461.1</ele>
        <time>2021-12-19T13:05:23Z</time>
      </trkpt>
      <trkpt lat="45.35351" lon="5.7286">
        <ele>1460.9</ele>
        <time>2021-12-19T13:05:24Z</time>
      </trkpt>
      <trkpt lat="45.3535" lon="5.7286">
        <ele>1460.8</ele>
        <time>2021-12-19T13:05:25Z</time>
      </trkpt>
      <trkpt lat="45.3535" lon="5.7286">
        <ele>1460.7</ele>
        <time>2021-12-19T13:05:26Z</time>
      </trkpt>
      <trkpt lat="45.35349" lon="5.72861">
        <ele>1460.6</ele>
        <time>2021-12-19T13:05:27Z</time>
      </trkpt>
      <trkpt lat="45.35349" lon="5.72862">
        <ele>1460.5</ele>
        <time>2021-12-19T13:05:28Z</time>
      </trkpt>
      <trkpt lat="45.3535" lon="5.72861">
        <ele>1460.4</ele>
        <time>2021-12-19T13:05:29Z</time>
      </trkpt>
      <trkpt lat="45.3535" lon="5.72861">
        <ele>1460.4</ele>
        <time>2021-12-19T13:05:30Z</time>
      </trkpt>
      <trkpt lat="45.3535" lon="5.7286">
        <ele>1460.3</ele>
        <time>2021-12-19T13:05:31Z</time>
      </trkpt>
      <trkpt lat="45.3535" lon="5.7286">
        <ele>1460.3</ele>
        <time>2021-12-19T13:05:32Z</time>
      </trkpt>
      <trkpt lat="45.35349" lon="5.72861">
        <ele>1460.2</ele>
        <time>2021-12-19T13:05:33Z</time>
      </trkpt>
      <trkpt lat="45.35349" lon="5.72861">
        <ele>1460.2</ele>
        <time>2021-12-19T13:05:34Z</time>
      </trkpt>
      <trkpt lat="45.3535" lon="5.72861">
        <ele>1460.1</ele>
        <time>2021-12-19T13:05:35Z</time>
      </trkpt>
      <trkpt lat="45.3535" lon="5.72861">
        <ele>1460.1</ele>
        <time>2021-12-19T13:05:36Z</time>
      </trkpt>
      <trkpt lat="45.3535" lon="5.72861">
        <ele>1460.1</ele>
        <time>2021-12-19T13:05:37Z</time>
      </trkpt>
      <trkpt lat="45.35349" lon="5.7286">
        <ele>1460</ele>
        <time>2021-12-19T13:05:38Z</time>
      </trkpt>
      <trkpt lat="45.35349" lon="5.7286">
        <ele>1459.9</ele>
        <time>2021-12-19T13:05:39Z</time>
      </trkpt>
      <trkpt lat="45.35349" lon="5.7286">
        <ele>1459.9</ele>
        <time>2021-12-19T13:05:40Z</time>
      </trkpt>
      <trkpt lat="45.35349" lon="5.7286">
        <ele>1459.9</ele>
        <time>2021-12-19T13:05:41Z</time>
      </trkpt>
      <trkpt lat="45.3535" lon="5.72861">
        <ele>1459.7</ele>
        <time>2021-12-19T13:05:42Z</time>
      </trkpt>
      <trkpt lat="45.35351" lon="5.72862">
        <ele>1459.5</ele>
        <time>2021-12-19T13:05:43Z</time>
      </trkpt>
      <trkpt lat="45.35352" lon="5.72862">
        <ele>1459.2</ele>
        <time>2021-12-19T13:05:44Z</time>
      </trkpt>
      <trkpt lat="45.35352" lon="5.72864">
        <ele>1459</ele>
        <time>2021-12-19T13:05:45Z</time>
      </trkpt>
      <trkpt lat="45.35352" lon="5.72866">
        <ele>1458.6</ele>
        <time>2021-12-19T13:05:46Z</time>
      </trkpt>
      <trkpt lat="45.35352" lon="5.72869">
        <ele>1458.2</ele>
        <time>2021-12-19T13:05:47Z</time>
      </trkpt>
      <trkpt lat="45.35351" lon="5.72872">
        <ele>1457.7</ele>
        <time>2021-12-19T13:05:48Z</time>
      </trkpt>
      <trkpt lat="45.35352" lon="5.72876">
        <ele>1457.1</ele>
        <time>2021-12-19T13:05:49Z</time>
      </trkpt>
      <trkpt lat="45.35352" lon="5.7288">
        <ele>1456.4</ele>
        <time>2021-12-19T13:05:50Z</time>
      </trkpt>
      <trkpt lat="45.35352" lon="5.72886">
        <ele>1456</ele>
        <time>2021-12-19T13:05:51Z</time>
      </trkpt>
      <trkpt lat="45.35351" lon="5.72891">
        <ele>1455.2</ele>
        <time>2021-12-19T13:05:52Z</time>
      </trkpt>
      <trkpt lat="45.35349" lon="5.72895">
        <ele>1454.7</ele>
        <time>2021-12-19T13:05:53Z</time>
      </trkpt>
      <trkpt lat="45.35347" lon="5.72897">
        <ele>1454.2</ele>
        <time>2021-12-19T13:05:54Z</time>
      </trkpt>
      <trkpt lat="45.35346" lon="5.72897">
        <ele>1453.9</ele>
        <time>2021-12-19T13:05:55Z</time>
      </trkpt>
      <trkpt lat="45.35344" lon="5.72898">
        <ele>1453.7</ele>
        <time>2021-12-19T13:05:56Z</time>
      </trkpt>
      <trkpt lat="45.35344" lon="5.72898">
        <ele>1453.6</ele>
        <time>2021-12-19T13:05:57Z</time>
      </trkpt>
      <trkpt lat="45.35343" lon="5.72899">
        <ele>1453.4</ele>
        <time>2021-12-19T13:05:58Z</time>
      </trkpt>
      <trkpt lat="45.35343" lon="5.72899">
        <ele>1453.3</ele>
        <time>2021-12-19T13:05:59Z</time>
      </trkpt>
      <trkpt lat="45.35343" lon="5.729">
        <ele>1453.3</ele>
        <time>2021-12-19T13:06:00Z</time>
      </trkpt>
      <trkpt lat="45.35343" lon="5.729">
        <ele>1453.2</ele>
        <time>2021-12-19T13:06:01Z</time>
      </trkpt>
      <trkpt lat="45.35343" lon="5.729">
        <ele>1453.2</ele>
        <time>2021-12-19T13:06:02Z</time>
      </trkpt>
      <trkpt lat="45.35343" lon="5.729">
        <ele>1453.1</ele>
        <time>2021-12-19T13:06:03Z</time>
      </trkpt>
      <trkpt lat="45.35343" lon="5.729">
        <ele>1453.1</ele>
        <time>2021-12-19T13:06:04Z</time>
      </trkpt>
      <trkpt lat="45.35343" lon="5.72901">
        <ele>1453</ele>
        <time>2021-12-19T13:06:05Z</time>
      </trkpt>
      <trkpt lat="45.35343" lon="5.72901">
        <ele>1453</ele>
        <time>2021-12-19T13:06:06Z</time>
      </trkpt>
      <trkpt lat="45.35343" lon="5.72901">
        <ele>1453</ele>
        <time>2021-12-19T13:06:07Z</time>
      </trkpt>
      <trkpt lat="45.35343" lon="5.72902">
        <ele>1452.9</ele>
        <time>2021-12-19T13:06:08Z</time>
      </trkpt>
      <trkpt lat="45.35343" lon="5.72902">
        <ele>1452.9</ele>
        <time>2021-12-19T13:06:09Z</time>
      </trkpt>
      <trkpt lat="45.35343" lon="5.72903">
        <ele>1452.7</ele>
        <time>2021-12-19T13:06:10Z</time>
      </trkpt>
      <trkpt lat="45.35342" lon="5.72905">
        <ele>1452.5</ele>
        <time>2021-12-19T13:06:11Z</time>
      </trkpt>
      <trkpt lat="45.35342" lon="5.72908">
        <ele>1452.1</ele>
        <time>2021-12-19T13:06:12Z</time>
      </trkpt>
      <trkpt lat="45.35342" lon="5.72912">
        <ele>1451.6</ele>
        <time>2021-12-19T13:06:13Z</time>
      </trkpt>
      <trkpt lat="45.35342" lon="5.72915">
        <ele>1451.2</ele>
        <time>2021-12-19T13:06:14Z</time>
      </trkpt>
      <trkpt lat="45.35343" lon="5.72917">
        <ele>1450.9</ele>
        <time>2021-12-19T13:06:15Z</time>
      </trkpt>
      <trkpt lat="45.35343" lon="5.7292">
        <ele>1450.5</ele>
        <time>2021-12-19T13:06:16Z</time>
      </trkpt>
      <trkpt lat="45.35344" lon="5.72923">
        <ele>1450.1</ele>
        <time>2021-12-19T13:06:17Z</time>
      </trkpt>
      <trkpt lat="45.35344" lon="5.72927">
        <ele>1449.5</ele>
        <time>2021-12-19T13:06:18Z</time>
      </trkpt>
      <trkpt lat="45.35345" lon="5.72931">
        <ele>1449.1</ele>
        <time>2021-12-19T13:06:19Z</time>
      </trkpt>
      <trkpt lat="45.35346" lon="5.72934">
        <ele>1448.6</ele>
        <time>2021-12-19T13:06:20Z</time>
      </trkpt>
      <trkpt lat="45.35347" lon="5.72937">
        <ele>1448.2</ele>
        <time>2021-12-19T13:06:21Z</time>
      </trkpt>
      <trkpt lat="45.35348" lon="5.72938">
        <ele>1447.9</ele>
        <time>2021-12-19T13:06:22Z</time>
      </trkpt>
      <trkpt lat="45.35349" lon="5.72939">
        <ele>1447.7</ele>
        <time>2021-12-19T13:06:23Z</time>
      </trkpt>
      <trkpt lat="45.3535" lon="5.72939">
        <ele>1447.6</ele>
        <time>2021-12-19T13:06:24Z</time>
      </trkpt>
      <trkpt lat="45.3535" lon="5.7294">
        <ele>1447.6</ele>
        <time>2021-12-19T13:06:25Z</time>
      </trkpt>
      <trkpt lat="45.3535" lon="5.7294">
        <ele>1447.5</ele>
        <time>2021-12-19T13:06:26Z</time>
      </trkpt>
      <trkpt lat="45.35349" lon="5.7294">
        <ele>1447.5</ele>
        <time>2021-12-19T13:06:27Z</time>
      </trkpt>
      <trkpt lat="45.35349" lon="5.72941">
        <ele>1447.4</ele>
        <time>2021-12-19T13:06:28Z</time>
      </trkpt>
      <trkpt lat="45.35349" lon="5.72941">
        <ele>1447.3</ele>
        <time>2021-12-19T13:06:29Z</time>
      </trkpt>
      <trkpt lat="45.35349" lon="5.72941">
        <ele>1447.3</ele>
        <time>2021-12-19T13:06:30Z</time>
      </trkpt>
      <trkpt lat="45.35349" lon="5.72941">
        <ele>1447.2</ele>
        <time>2021-12-19T13:06:31Z</time>
      </trkpt>
      <trkpt lat="45.3535" lon="5.7294">
        <ele>1447.1</ele>
        <time>2021-12-19T13:06:32Z</time>
      </trkpt>
      <trkpt lat="45.3535" lon="5.72939">
        <ele>1447</ele>
        <time>2021-12-19T13:06:33Z</time>
      </trkpt>
      <trkpt lat="45.35351" lon="5.72938">
        <ele>1446.8</ele>
        <time>2021-12-19T13:06:34Z</time>
      </trkpt>
      <trkpt lat="45.35351" lon="5.72938">
        <ele>1446.7</ele>
        <time>2021-12-19T13:06:35Z</time>
      </trkpt>
      <trkpt lat="45.35351" lon="5.72938">
        <ele>1446.6</ele>
        <time>2021-12-19T13:06:36Z</time>
      </trkpt>
      <trkpt lat="45.35351" lon="5.72937">
        <ele>1446.6</ele>
        <time>2021-12-19T13:06:37Z</time>
      </trkpt>
      <trkpt lat="45.35352" lon="5.72937">
        <ele>1446.5</ele>
        <time>2021-12-19T13:06:38Z</time>
      </trkpt>
      <trkpt lat="45.35352" lon="5.72937">
        <ele>1446.4</ele>
        <time>2021-12-19T13:06:39Z</time>
      </trkpt>
      <trkpt lat="45.35352" lon="5.72937">
        <ele>1446.4</ele>
        <time>2021-12-19T13:06:40Z</time>
      </trkpt>
      <trkpt lat="45.35352" lon="5.72937">
        <ele>1446.4</ele>
        <time>2021-12-19T13:06:41Z</time>
      </trkpt>
      <trkpt lat="45.35352" lon="5.72938">
        <ele>1446.3</ele>
        <time>2021-12-19T13:06:42Z</time>
      </trkpt>
      <trkpt lat="45.35352" lon="5.72938">
        <ele>1446.3</ele>
        <time>2021-12-19T13:06:43Z</time>
      </trkpt>
      <trkpt lat="45.35352" lon="5.72938">
        <ele>1446.2</ele>
        <time>2021-12-19T13:06:44Z</time>
      </trkpt>
      <trkpt lat="45.35352" lon="5.72938">
        <ele>1446.2</ele>
        <time>2021-12-19T13:06:45Z</time>
      </trkpt>
      <trkpt lat="45.35352" lon="5.72939">
        <ele>1446.1</ele>
        <time>2021-12-19T13:06:46Z</time>
      </trkpt>
      <trkpt lat="45.35352" lon="5.72939">
        <ele>1446.1</ele>
        <time>2021-12-19T13:06:47Z</time>
      </trkpt>
      <trkpt lat="45.35351" lon="5.7294">
        <ele>1446</ele>
        <time>2021-12-19T13:06:48Z</time>
      </trkpt>
      <trkpt lat="45.35351" lon="5.7294">
        <ele>1446</ele>
        <time>2021-12-19T13:06:49Z</time>
      </trkpt>
      <trkpt lat="45.35351" lon="5.7294">
        <ele>1445.9</ele>
        <time>2021-12-19T13:06:50Z</time>
      </trkpt>
      <trkpt lat="45.35352" lon="5.7294">
        <ele>1445.9</ele>
        <time>2021-12-19T13:06:51Z</time>
      </trkpt>
      <trkpt lat="45.35352" lon="5.7294">
        <ele>1445.8</ele>
        <time>2021-12-19T13:06:52Z</time>
      </trkpt>
      <trkpt lat="45.35352" lon="5.7294">
        <ele>1445.8</ele>
        <time>2021-12-19T13:06:53Z</time>
      </trkpt>
      <trkpt lat="45.35353" lon="5.7294">
        <ele>1445.7</ele>
        <time>2021-12-19T13:06:54Z</time>
      </trkpt>
      <trkpt lat="45.35353" lon="5.7294">
        <ele>1445.6</ele>
        <time>2021-12-19T13:06:55Z</time>
      </trkpt>
      <trkpt lat="45.35353" lon="5.72942">
        <ele>1445.4</ele>
        <time>2021-12-19T13:06:56Z</time>
      </trkpt>
      <trkpt lat="45.35354" lon="5.72943">
        <ele>1445.2</ele>
        <time>2021-12-19T13:06:57Z</time>
      </trkpt>
      <trkpt lat="45.35354" lon="5.72944">
        <ele>1445.1</ele>
        <time>2021-12-19T13:06:58Z</time>
      </trkpt>
      <trkpt lat="45.35354" lon="5.72945">
        <ele>1445</ele>
        <time>2021-12-19T13:06:59Z</time>
      </trkpt>
      <trkpt lat="45.35353" lon="5.72947">
        <ele>1444.6</ele>
        <time>2021-12-19T13:07:00Z</time>
      </trkpt>
      <trkpt lat="45.35352" lon="5.72949">
        <ele>1444.2</ele>
        <time>2021-12-19T13:07:01Z</time>
      </trkpt>
      <trkpt lat="45.3535" lon="5.7295">
        <ele>1443.8</ele>
        <time>2021-12-19T13:07:02Z</time>
      </trkpt>
      <trkpt lat="45.35347" lon="5.72951">
        <ele>1443.3</ele>
        <time>2021-12-19T13:07:03Z</time>
      </trkpt>
      <trkpt lat="45.35345" lon="5.72952">
        <ele>1442.9</ele>
        <time>2021-12-19T13:07:04Z</time>
      </trkpt>
      <trkpt lat="45.35343" lon="5.72954">
        <ele>1442.4</ele>
        <time>2021-12-19T13:07:05Z</time>
      </trkpt>
      <trkpt lat="45.35342" lon="5.72956">
        <ele>1442.1</ele>
        <time>2021-12-19T13:07:06Z</time>
      </trkpt>
      <trkpt lat="45.35341" lon="5.72958">
        <ele>1441.8</ele>
        <time>2021-12-19T13:07:07Z</time>
      </trkpt>
      <trkpt lat="45.3534" lon="5.7296">
        <ele>1441.5</ele>
        <time>2021-12-19T13:07:08Z</time>
      </trkpt>
      <trkpt lat="45.3534" lon="5.72962">
        <ele>1441.3</ele>
        <time>2021-12-19T13:07:09Z</time>
      </trkpt>
      <trkpt lat="45.35341" lon="5.72964">
        <ele>1441.1</ele>
        <time>2021-12-19T13:07:10Z</time>
      </trkpt>
      <trkpt lat="45.35341" lon="5.72966">
        <ele>1440.8</ele>
        <time>2021-12-19T13:07:11Z</time>
      </trkpt>
      <trkpt lat="45.3534" lon="5.72969">
        <ele>1440.3</ele>
        <time>2021-12-19T13:07:12Z</time>
      </trkpt>
      <trkpt lat="45.35338" lon="5.72972">
        <ele>1439.8</ele>
        <time>2021-12-19T13:07:13Z</time>
      </trkpt>
      <trkpt lat="45.35335" lon="5.72973">
        <ele>1439.3</ele>
        <time>2021-12-19T13:07:14Z</time>
      </trkpt>
      <trkpt lat="45.35334" lon="5.72974">
        <ele>1439</ele>
        <time>2021-12-19T13:07:15Z</time>
      </trkpt>
      <trkpt lat="45.35332" lon="5.72975">
        <ele>1438.7</ele>
        <time>2021-12-19T13:07:16Z</time>
      </trkpt>
      <trkpt lat="45.35331" lon="5.72977">
        <ele>1438.3</ele>
        <time>2021-12-19T13:07:17Z</time>
      </trkpt>
      <trkpt lat="45.3533" lon="5.72978">
        <ele>1438.2</ele>
        <time>2021-12-19T13:07:18Z</time>
      </trkpt>
      <trkpt lat="45.35329" lon="5.72978">
        <ele>1438</ele>
        <time>2021-12-19T13:07:19Z</time>
      </trkpt>
      <trkpt lat="45.35329" lon="5.72979">
        <ele>1437.9</ele>
        <time>2021-12-19T13:07:20Z</time>
      </trkpt>
      <trkpt lat="45.35329" lon="5.7298">
        <ele>1437.8</ele>
        <time>2021-12-19T13:07:21Z</time>
      </trkpt>
      <trkpt lat="45.35329" lon="5.7298">
        <ele>1437.7</ele>
        <time>2021-12-19T13:07:22Z</time>
      </trkpt>
      <trkpt lat="45.3533" lon="5.72981">
        <ele>1437.5</ele>
        <time>2021-12-19T13:07:23Z</time>
      </trkpt>
      <trkpt lat="45.35331" lon="5.72981">
        <ele>1437.4</ele>
        <time>2021-12-19T13:07:24Z</time>
      </trkpt>
      <trkpt lat="45.35331" lon="5.72982">
        <ele>1437.3</ele>
        <time>2021-12-19T13:07:25Z</time>
      </trkpt>
      <trkpt lat="45.35332" lon="5.72982">
        <ele>1437.1</ele>
        <time>2021-12-19T13:07:26Z</time>
      </trkpt>
      <trkpt lat="45.35332" lon="5.72982">
        <ele>1437</ele>
        <time>2021-12-19T13:07:27Z</time>
      </trkpt>
      <trkpt lat="45.35333" lon="5.72982">
        <ele>1437</ele>
        <time>2021-12-19T13:07:28Z</time>
      </trkpt>
      <trkpt lat="45.35333" lon="5.72982">
        <ele>1436.9</ele>
        <time>2021-12-19T13:07:29Z</time>
      </trkpt>
      <trkpt lat="45.35334" lon="5.72981">
        <ele>1436.7</ele>
        <time>2021-12-19T13:07:30Z</time>
      </trkpt>
      <trkpt lat="45.35334" lon="5.72981">
        <ele>1436.7</ele>
        <time>2021-12-19T13:07:31Z</time>
      </trkpt>
      <trkpt lat="45.35334" lon="5.72982">
        <ele>1436.7</ele>
        <time>2021-12-19T13:07:32Z</time>
      </trkpt>
      <trkpt lat="45.35334" lon="5.72983">
        <ele>1436.5</ele>
        <time>2021-12-19T13:07:33Z</time>
      </trkpt>
      <trkpt lat="45.35334" lon="5.72983">
        <ele>1436.5</ele>
        <time>2021-12-19T13:07:34Z</time>
      </trkpt>
      <trkpt lat="45.35334" lon="5.72983">
        <ele>1436.4</ele>
        <time>2021-12-19T13:07:35Z</time>
      </trkpt>
      <trkpt lat="45.35334" lon="5.72983">
        <ele>1436.4</ele>
        <time>2021-12-19T13:07:36Z</time>
      </trkpt>
      <trkpt lat="45.35333" lon="5.72984">
        <ele>1436.3</ele>
        <time>2021-12-19T13:07:37Z</time>
      </trkpt>
      <trkpt lat="45.35333" lon="5.72985">
        <ele>1436.2</ele>
        <time>2021-12-19T13:07:38Z</time>
      </trkpt>
      <trkpt lat="45.35333" lon="5.72985">
        <ele>1436.1</ele>
        <time>2021-12-19T13:07:39Z</time>
      </trkpt>
      <trkpt lat="45.35333" lon="5.72985">
        <ele>1436.1</ele>
        <time>2021-12-19T13:07:40Z</time>
      </trkpt>
      <trkpt lat="45.35334" lon="5.72985">
        <ele>1436</ele>
        <time>2021-12-19T13:07:41Z</time>
      </trkpt>
      <trkpt lat="45.35334" lon="5.72984">
        <ele>1435.9</ele>
        <time>2021-12-19T13:07:42Z</time>
      </trkpt>
      <trkpt lat="45.35334" lon="5.72985">
        <ele>1435.9</ele>
        <time>2021-12-19T13:07:43Z</time>
      </trkpt>
      <trkpt lat="45.35334" lon="5.72984">
        <ele>1435.8</ele>
        <time>2021-12-19T13:07:44Z</time>
      </trkpt>
      <trkpt lat="45.35334" lon="5.72984">
        <ele>1435.8</ele>
        <time>2021-12-19T13:07:45Z</time>
      </trkpt>
      <trkpt lat="45.35334" lon="5.72984">
        <ele>1435.8</ele>
        <time>2021-12-19T13:07:46Z</time>
      </trkpt>
      <trkpt lat="45.35333" lon="5.72985">
        <ele>1435.6</ele>
        <time>2021-12-19T13:07:47Z</time>
      </trkpt>
      <trkpt lat="45.35333" lon="5.72987">
        <ele>1435.4</ele>
        <time>2021-12-19T13:07:48Z</time>
      </trkpt>
      <trkpt lat="45.3533" lon="5.72987">
        <ele>1434.9</ele>
        <time>2021-12-19T13:07:49Z</time>
      </trkpt>
      <trkpt lat="45.35328" lon="5.72988">
        <ele>1434.5</ele>
        <time>2021-12-19T13:07:50Z</time>
      </trkpt>
      <trkpt lat="45.35326" lon="5.72988">
        <ele>1434.1</ele>
        <time>2021-12-19T13:07:51Z</time>
      </trkpt>
      <trkpt lat="45.35324" lon="5.72989">
        <ele>1433.7</ele>
        <time>2021-12-19T13:07:52Z</time>
      </trkpt>
      <trkpt lat="45.35323" lon="5.72989">
        <ele>1433.5</ele>
        <time>2021-12-19T13:07:53Z</time>
      </trkpt>
      <trkpt lat="45.35322" lon="5.72991">
        <ele>1433.2</ele>
        <time>2021-12-19T13:07:54Z</time>
      </trkpt>
      <trkpt lat="45.35321" lon="5.72993">
        <ele>1433</ele>
        <time>2021-12-19T13:07:55Z</time>
      </trkpt>
      <trkpt lat="45.35321" lon="5.72995">
        <ele>1432.8</ele>
        <time>2021-12-19T13:07:56Z</time>
      </trkpt>
      <trkpt lat="45.35321" lon="5.72996">
        <ele>1432.6</ele>
        <time>2021-12-19T13:07:57Z</time>
      </trkpt>
      <trkpt lat="45.35321" lon="5.72997">
        <ele>1432.4</ele>
        <time>2021-12-19T13:07:58Z</time>
      </trkpt>
      <trkpt lat="45.35321" lon="5.72999">
        <ele>1432.2</ele>
        <time>2021-12-19T13:07:59Z</time>
      </trkpt>
      <trkpt lat="45.35322" lon="5.72999">
        <ele>1432.1</ele>
        <time>2021-12-19T13:08:00Z</time>
      </trkpt>
      <trkpt lat="45.35323" lon="5.73">
        <ele>1431.8</ele>
        <time>2021-12-19T13:08:01Z</time>
      </trkpt>
      <trkpt lat="45.35325" lon="5.73001">
        <ele>1431.5</ele>
        <time>2021-12-19T13:08:02Z</time>
      </trkpt>
      <trkpt lat="45.35327" lon="5.73002">
        <ele>1431</ele>
        <time>2021-12-19T13:08:03Z</time>
      </trkpt>
      <trkpt lat="45.35329" lon="5.73003">
        <ele>1430.6</ele>
        <time>2021-12-19T13:08:04Z</time>
      </trkpt>
      <trkpt lat="45.35331" lon="5.73005">
        <ele>1430.1</ele>
        <time>2021-12-19T13:08:05Z</time>
      </trkpt>
      <trkpt lat="45.35333" lon="5.73006">
        <ele>1429.8</ele>
        <time>2021-12-19T13:08:06Z</time>
      </trkpt>
      <trkpt lat="45.35334" lon="5.73007">
        <ele>1429.6</ele>
        <time>2021-12-19T13:08:07Z</time>
      </trkpt>
      <trkpt lat="45.35335" lon="5.73007">
        <ele>1429.5</ele>
        <time>2021-12-19T13:08:08Z</time>
      </trkpt>
      <trkpt lat="45.35335" lon="5.73008">
        <ele>1429.4</ele>
        <time>2021-12-19T13:08:09Z</time>
      </trkpt>
      <trkpt lat="45.35335" lon="5.73008">
        <ele>1429.3</ele>
        <time>2021-12-19T13:08:10Z</time>
      </trkpt>
      <trkpt lat="45.35336" lon="5.73009">
        <ele>1429.1</ele>
        <time>2021-12-19T13:08:11Z</time>
      </trkpt>
      <trkpt lat="45.35336" lon="5.73009">
        <ele>1429.1</ele>
        <time>2021-12-19T13:08:12Z</time>
      </trkpt>
      <trkpt lat="45.35337" lon="5.73009">
        <ele>1428.9</ele>
        <time>2021-12-19T13:08:13Z</time>
      </trkpt>
      <trkpt lat="45.35338" lon="5.73009">
        <ele>1428.8</ele>
        <time>2021-12-19T13:08:14Z</time>
      </trkpt>
      <trkpt lat="45.3534" lon="5.73009">
        <ele>1428.4</ele>
        <time>2021-12-19T13:08:15Z</time>
      </trkpt>
      <trkpt lat="45.35342" lon="5.73008">
        <ele>1428.1</ele>
        <time>2021-12-19T13:08:16Z</time>
      </trkpt>
      <trkpt lat="45.35342" lon="5.73007">
        <ele>1427.9</ele>
        <time>2021-12-19T13:08:17Z</time>
      </trkpt>
      <trkpt lat="45.35344" lon="5.73006">
        <ele>1427.6</ele>
        <time>2021-12-19T13:08:18Z</time>
      </trkpt>
      <trkpt lat="45.35344" lon="5.73006">
        <ele>1427.5</ele>
        <time>2021-12-19T13:08:19Z</time>
      </trkpt>
      <trkpt lat="45.35345" lon="5.73006">
        <ele>1427.3</ele>
        <time>2021-12-19T13:08:20Z</time>
      </trkpt>
      <trkpt lat="45.35345" lon="5.73007">
        <ele>1427.1</ele>
        <time>2021-12-19T13:08:21Z</time>
      </trkpt>
      <trkpt lat="45.35344" lon="5.73008">
        <ele>1426.8</ele>
        <time>2021-12-19T13:08:22Z</time>
      </trkpt>
      <trkpt lat="45.35343" lon="5.7301">
        <ele>1426.6</ele>
        <time>2021-12-19T13:08:23Z</time>
      </trkpt>
      <trkpt lat="45.35343" lon="5.73013">
        <ele>1426.2</ele>
        <time>2021-12-19T13:08:24Z</time>
      </trkpt>
      <trkpt lat="45.35344" lon="5.73016">
        <ele>1425.8</ele>
        <time>2021-12-19T13:08:25Z</time>
      </trkpt>
      <trkpt lat="45.35344" lon="5.73019">
        <ele>1425.4</ele>
        <time>2021-12-19T13:08:26Z</time>
      </trkpt>
      <trkpt lat="45.35345" lon="5.73023">
        <ele>1424.9</ele>
        <time>2021-12-19T13:08:27Z</time>
      </trkpt>
      <trkpt lat="45.35347" lon="5.73027">
        <ele>1424.2</ele>
        <time>2021-12-19T13:08:28Z</time>
      </trkpt>
      <trkpt lat="45.35348" lon="5.73032">
        <ele>1423.5</ele>
        <time>2021-12-19T13:08:29Z</time>
      </trkpt>
      <trkpt lat="45.3535" lon="5.73035">
        <ele>1423</ele>
        <time>2021-12-19T13:08:30Z</time>
      </trkpt>
      <trkpt lat="45.3535" lon="5.73037">
        <ele>1422.8</ele>
        <time>2021-12-19T13:08:31Z</time>
      </trkpt>
      <trkpt lat="45.3535" lon="5.73038">
        <ele>1422.7</ele>
        <time>2021-12-19T13:08:32Z</time>
      </trkpt>
      <trkpt lat="45.35349" lon="5.73039">
        <ele>1422.5</ele>
        <time>2021-12-19T13:08:33Z</time>
      </trkpt>
      <trkpt lat="45.35349" lon="5.73041">
        <ele>1422.3</ele>
        <time>2021-12-19T13:08:34Z</time>
      </trkpt>
      <trkpt lat="45.35349" lon="5.73041">
        <ele>1422.2</ele>
        <time>2021-12-19T13:08:35Z</time>
      </trkpt>
      <trkpt lat="45.35348" lon="5.73042">
        <ele>1422.1</ele>
        <time>2021-12-19T13:08:36Z</time>
      </trkpt>
      <trkpt lat="45.35349" lon="5.73042">
        <ele>1422</ele>
        <time>2021-12-19T13:08:37Z</time>
      </trkpt>
      <trkpt lat="45.35348" lon="5.73043">
        <ele>1421.9</ele>
        <time>2021-12-19T13:08:38Z</time>
      </trkpt>
      <trkpt lat="45.35349" lon="5.73044">
        <ele>1421.8</ele>
        <time>2021-12-19T13:08:39Z</time>
      </trkpt>
      <trkpt lat="45.35348" lon="5.73044">
        <ele>1421.8</ele>
        <time>2021-12-19T13:08:40Z</time>
      </trkpt>
      <trkpt lat="45.35348" lon="5.73045">
        <ele>1421.7</ele>
        <time>2021-12-19T13:08:41Z</time>
      </trkpt>
      <trkpt lat="45.35348" lon="5.73045">
        <ele>1421.6</ele>
        <time>2021-12-19T13:08:42Z</time>
      </trkpt>
      <trkpt lat="45.35348" lon="5.73045">
        <ele>1421.6</ele>
        <time>2021-12-19T13:08:43Z</time>
      </trkpt>
      <trkpt lat="45.35348" lon="5.73045">
        <ele>1421.5</ele>
        <time>2021-12-19T13:08:44Z</time>
      </trkpt>
      <trkpt lat="45.35348" lon="5.73045">
        <ele>1421.5</ele>
        <time>2021-12-19T13:08:45Z</time>
      </trkpt>
      <trkpt lat="45.35348" lon="5.73044">
        <ele>1421.4</ele>
        <time>2021-12-19T13:08:46Z</time>
      </trkpt>
      <trkpt lat="45.35347" lon="5.73044">
        <ele>1421.4</ele>
        <time>2021-12-19T13:08:47Z</time>
      </trkpt>
      <trkpt lat="45.35348" lon="5.73044">
        <ele>1421.4</ele>
        <time>2021-12-19T13:08:48Z</time>
      </trkpt>
      <trkpt lat="45.35348" lon="5.73044">
        <ele>1421.4</ele>
        <time>2021-12-19T13:08:49Z</time>
      </trkpt>
      <trkpt lat="45.35347" lon="5.73044">
        <ele>1421.3</ele>
        <time>2021-12-19T13:08:50Z</time>
      </trkpt>
      <trkpt lat="45.35347" lon="5.73045">
        <ele>1421.2</ele>
        <time>2021-12-19T13:08:51Z</time>
      </trkpt>
      <trkpt lat="45.35347" lon="5.73044">
        <ele>1421.2</ele>
        <time>2021-12-19T13:08:52Z</time>
      </trkpt>
      <trkpt lat="45.35347" lon="5.73045">
        <ele>1421.1</ele>
        <time>2021-12-19T13:08:53Z</time>
      </trkpt>
      <trkpt lat="45.35347" lon="5.73046">
        <ele>1421</ele>
        <time>2021-12-19T13:08:54Z</time>
      </trkpt>
      <trkpt lat="45.35347" lon="5.73046">
        <ele>1420.9</ele>
        <time>2021-12-19T13:08:55Z</time>
      </trkpt>
      <trkpt lat="45.35348" lon="5.73046">
        <ele>1420.8</ele>
        <time>2021-12-19T13:08:56Z</time>
      </trkpt>
      <trkpt lat="45.35348" lon="5.73047">
        <ele>1420.6</ele>
        <time>2021-12-19T13:08:57Z</time>
      </trkpt>
      <trkpt lat="45.35348" lon="5.73047">
        <ele>1420.6</ele>
        <time>2021-12-19T13:08:58Z</time>
      </trkpt>
      <trkpt lat="45.35347" lon="5.73048">
        <ele>1420.4</ele>
        <time>2021-12-19T13:08:59Z</time>
      </trkpt>
      <trkpt lat="45.35346" lon="5.73049">
        <ele>1420.1</ele>
        <time>2021-12-19T13:09:00Z</time>
      </trkpt>
      <trkpt lat="45.35345" lon="5.73051">
        <ele>1419.8</ele>
        <time>2021-12-19T13:09:01Z</time>
      </trkpt>
      <trkpt lat="45.35344" lon="5.73052">
        <ele>1419.6</ele>
        <time>2021-12-19T13:09:02Z</time>
      </trkpt>
      <trkpt lat="45.35343" lon="5.73053">
        <ele>1419.3</ele>
        <time>2021-12-19T13:09:03Z</time>
      </trkpt>
      <trkpt lat="45.35342" lon="5.73055">
        <ele>1418.9</ele>
        <time>2021-12-19T13:09:04Z</time>
      </trkpt>
      <trkpt lat="45.3534" lon="5.73057">
        <ele>1418.6</ele>
        <time>2021-12-19T13:09:05Z</time>
      </trkpt>
      <trkpt lat="45.35339" lon="5.7306">
        <ele>1418.2</ele>
        <time>2021-12-19T13:09:06Z</time>
      </trkpt>
      <trkpt lat="45.35337" lon="5.73063">
        <ele>1417.6</ele>
        <time>2021-12-19T13:09:07Z</time>
      </trkpt>
      <trkpt lat="45.35335" lon="5.73068">
        <ele>1416.9</ele>
        <time>2021-12-19T13:09:08Z</time>
      </trkpt>
      <trkpt lat="45.35334" lon="5.73073">
        <ele>1416.2</ele>
        <time>2021-12-19T13:09:09Z</time>
      </trkpt>
      <trkpt lat="45.35333" lon="5.73076">
        <ele>1415.8</ele>
        <time>2021-12-19T13:09:10Z</time>
      </trkpt>
      <trkpt lat="45.35332" lon="5.73077">
        <ele>1415.6</ele>
        <time>2021-12-19T13:09:11Z</time>
      </trkpt>
      <trkpt lat="45.3533" lon="5.73077">
        <ele>1415.2</ele>
        <time>2021-12-19T13:09:12Z</time>
      </trkpt>
      <trkpt lat="45.35329" lon="5.73077">
        <ele>1415</ele>
        <time>2021-12-19T13:09:13Z</time>
      </trkpt>
      <trkpt lat="45.35328" lon="5.73076">
        <ele>1414.8</ele>
        <time>2021-12-19T13:09:14Z</time>
      </trkpt>
      <trkpt lat="45.35326" lon="5.73075">
        <ele>1414.4</ele>
        <time>2021-12-19T13:09:15Z</time>
      </trkpt>
      <trkpt lat="45.35325" lon="5.73076">
        <ele>1414.1</ele>
        <time>2021-12-19T13:09:16Z</time>
      </trkpt>
      <trkpt lat="45.35323" lon="5.73078">
        <ele>1413.7</ele>
        <time>2021-12-19T13:09:17Z</time>
      </trkpt>
      <trkpt lat="45.35321" lon="5.7308">
        <ele>1413.3</ele>
        <time>2021-12-19T13:09:18Z</time>
      </trkpt>
      <trkpt lat="45.35318" lon="5.73083">
        <ele>1412.7</ele>
        <time>2021-12-19T13:09:19Z</time>
      </trkpt>
      <trkpt lat="45.35316" lon="5.73086">
        <ele>1412</ele>
        <time>2021-12-19T13:09:20Z</time>
      </trkpt>
      <trkpt lat="45.35313" lon="5.73088">
        <ele>1411.6</ele>
        <time>2021-12-19T13:09:21Z</time>
      </trkpt>
      <trkpt lat="45.35313" lon="5.73089">
        <ele>1411.3</ele>
        <time>2021-12-19T13:09:22Z</time>
      </trkpt>
      <trkpt lat="45.35313" lon="5.7309">
        <ele>1411.2</ele>
        <time>2021-12-19T13:09:23Z</time>
      </trkpt>
      <trkpt lat="45.35312" lon="5.73092">
        <ele>1410.9</ele>
        <time>2021-12-19T13:09:24Z</time>
      </trkpt>
      <trkpt lat="45.3531" lon="5.73096">
        <ele>1410.4</ele>
        <time>2021-12-19T13:09:25Z</time>
      </trkpt>
      <trkpt lat="45.35309" lon="5.731">
        <ele>1409.8</ele>
        <time>2021-12-19T13:09:26Z</time>
      </trkpt>
      <trkpt lat="45.35308" lon="5.73103">
        <ele>1409.2</ele>
        <time>2021-12-19T13:09:27Z</time>
      </trkpt>
      <trkpt lat="45.35306" lon="5.73106">
        <ele>1408.8</ele>
        <time>2021-12-19T13:09:28Z</time>
      </trkpt>
      <trkpt lat="45.35304" lon="5.73109">
        <ele>1408.3</ele>
        <time>2021-12-19T13:09:29Z</time>
      </trkpt>
      <trkpt lat="45.35302" lon="5.73111">
        <ele>1407.8</ele>
        <time>2021-12-19T13:09:30Z</time>
      </trkpt>
      <trkpt lat="45.35301" lon="5.73115">
        <ele>1407.3</ele>
        <time>2021-12-19T13:09:31Z</time>
      </trkpt>
      <trkpt lat="45.35298" lon="5.73118">
        <ele>1406.7</ele>
        <time>2021-12-19T13:09:32Z</time>
      </trkpt>
      <trkpt lat="45.35295" lon="5.73121">
        <ele>1406</ele>
        <time>2021-12-19T13:09:33Z</time>
      </trkpt>
      <trkpt lat="45.35292" lon="5.73124">
        <ele>1405.4</ele>
        <time>2021-12-19T13:09:34Z</time>
      </trkpt>
      <trkpt lat="45.3529" lon="5.73127">
        <ele>1404.7</ele>
        <time>2021-12-19T13:09:35Z</time>
      </trkpt>
      <trkpt lat="45.35287" lon="5.73131">
        <ele>1404.1</ele>
        <time>2021-12-19T13:09:36Z</time>
      </trkpt>
      <trkpt lat="45.35286" lon="5.73135">
        <ele>1403.5</ele>
        <time>2021-12-19T13:09:37Z</time>
      </trkpt>
      <trkpt lat="45.35284" lon="5.73139">
        <ele>1402.9</ele>
        <time>2021-12-19T13:09:38Z</time>
      </trkpt>
      <trkpt lat="45.35282" lon="5.73142">
        <ele>1402.3</ele>
        <time>2021-12-19T13:09:39Z</time>
      </trkpt>
      <trkpt lat="45.35281" lon="5.73146">
        <ele>1401.7</ele>
        <time>2021-12-19T13:09:40Z</time>
      </trkpt>
      <trkpt lat="45.35279" lon="5.7315">
        <ele>1401.2</ele>
        <time>2021-12-19T13:09:41Z</time>
      </trkpt>
      <trkpt lat="45.35278" lon="5.73154">
        <ele>1400.6</ele>
        <time>2021-12-19T13:09:42Z</time>
      </trkpt>
      <trkpt lat="45.35276" lon="5.73158">
        <ele>1400</ele>
        <time>2021-12-19T13:09:43Z</time>
      </trkpt>
      <trkpt lat="45.35274" lon="5.73162">
        <ele>1399.3</ele>
        <time>2021-12-19T13:09:44Z</time>
      </trkpt>
      <trkpt lat="45.35272" lon="5.73165">
        <ele>1398.7</ele>
        <time>2021-12-19T13:09:45Z</time>
      </trkpt>
      <trkpt lat="45.3527" lon="5.73169">
        <ele>1398.1</ele>
        <time>2021-12-19T13:09:46Z</time>
      </trkpt>
      <trkpt lat="45.35268" lon="5.73174">
        <ele>1397.5</ele>
        <time>2021-12-19T13:09:47Z</time>
      </trkpt>
      <trkpt lat="45.35266" lon="5.73177">
        <ele>1396.8</ele>
        <time>2021-12-19T13:09:48Z</time>
      </trkpt>
      <trkpt lat="45.35263" lon="5.73182">
        <ele>1396.2</ele>
        <time>2021-12-19T13:09:49Z</time>
      </trkpt>
      <trkpt lat="45.35261" lon="5.73186">
        <ele>1395.5</ele>
        <time>2021-12-19T13:09:50Z</time>
      </trkpt>
      <trkpt lat="45.35259" lon="5.7319">
        <ele>1394.8</ele>
        <time>2021-12-19T13:09:51Z</time>
      </trkpt>
      <trkpt lat="45.35258" lon="5.73195">
        <ele>1394.1</ele>
        <time>2021-12-19T13:09:52Z</time>
      </trkpt>
      <trkpt lat="45.35256" lon="5.732">
        <ele>1393.4</ele>
        <time>2021-12-19T13:09:53Z</time>
      </trkpt>
      <trkpt lat="45.35254" lon="5.73205">
        <ele>1392.7</ele>
        <time>2021-12-19T13:09:54Z</time>
      </trkpt>
      <trkpt lat="45.35253" lon="5.73209">
        <ele>1392.1</ele>
        <time>2021-12-19T13:09:55Z</time>
      </trkpt>
      <trkpt lat="45.35251" lon="5.73215">
        <ele>1391.2</ele>
        <time>2021-12-19T13:09:56Z</time>
      </trkpt>
      <trkpt lat="45.35249" lon="5.73221">
        <ele>1390.4</ele>
        <time>2021-12-19T13:09:57Z</time>
      </trkpt>
      <trkpt lat="45.35246" lon="5.73225">
        <ele>1389.6</ele>
        <time>2021-12-19T13:09:58Z</time>
      </trkpt>
      <trkpt lat="45.35244" lon="5.73228">
        <ele>1389</ele>
        <time>2021-12-19T13:09:59Z</time>
      </trkpt>
      <trkpt lat="45.35241" lon="5.7323">
        <ele>1388.5</ele>
        <time>2021-12-19T13:10:00Z</time>
      </trkpt>
      <trkpt lat="45.35239" lon="5.73231">
        <ele>1388.1</ele>
        <time>2021-12-19T13:10:01Z</time>
      </trkpt>
      <trkpt lat="45.35238" lon="5.73231">
        <ele>1387.9</ele>
        <time>2021-12-19T13:10:02Z</time>
      </trkpt>
      <trkpt lat="45.35237" lon="5.73231">
        <ele>1387.7</ele>
        <time>2021-12-19T13:10:03Z</time>
      </trkpt>
      <trkpt lat="45.35236" lon="5.73232">
        <ele>1387.6</ele>
        <time>2021-12-19T13:10:04Z</time>
      </trkpt>
      <trkpt lat="45.35236" lon="5.73232">
        <ele>1387.5</ele>
        <time>2021-12-19T13:10:05Z</time>
      </trkpt>
      <trkpt lat="45.35236" lon="5.73232">
        <ele>1387.5</ele>
        <time>2021-12-19T13:10:06Z</time>
      </trkpt>
      <trkpt lat="45.35236" lon="5.73232">
        <ele>1387.5</ele>
        <time>2021-12-19T13:10:07Z</time>
      </trkpt>
      <trkpt lat="45.35236" lon="5.73231">
        <ele>1387.5</ele>
        <time>2021-12-19T13:10:08Z</time>
      </trkpt>
      <trkpt lat="45.35236" lon="5.73231">
        <ele>1387.5</ele>
        <time>2021-12-19T13:10:09Z</time>
      </trkpt>
      <trkpt lat="45.35236" lon="5.73231">
        <ele>1387.4</ele>
        <time>2021-12-19T13:10:10Z</time>
      </trkpt>
      <trkpt lat="45.35236" lon="5.73231">
        <ele>1387.4</ele>
        <time>2021-12-19T13:10:11Z</time>
      </trkpt>
      <trkpt lat="45.35236" lon="5.73232">
        <ele>1387.3</ele>
        <time>2021-12-19T13:10:12Z</time>
      </trkpt>
      <trkpt lat="45.35236" lon="5.73232">
        <ele>1387.3</ele>
        <time>2021-12-19T13:10:13Z</time>
      </trkpt>
      <trkpt lat="45.35235" lon="5.73232">
        <ele>1387.2</ele>
        <time>2021-12-19T13:10:14Z</time>
      </trkpt>
      <trkpt lat="45.35235" lon="5.73233">
        <ele>1387.1</ele>
        <time>2021-12-19T13:10:15Z</time>
      </trkpt>
      <trkpt lat="45.35235" lon="5.73233">
        <ele>1387.7</ele>
        <time>2021-12-19T13:10:16Z</time>
      </trkpt>
      <trkpt lat="45.35235" lon="5.73234">
        <ele>1387.7</ele>
        <time>2021-12-19T13:10:17Z</time>
      </trkpt>
      <trkpt lat="45.35234" lon="5.73234">
        <ele>1387.7</ele>
        <time>2021-12-19T13:10:18Z</time>
      </trkpt>
      <trkpt lat="45.35234" lon="5.73234">
        <ele>1387.7</ele>
        <time>2021-12-19T13:10:19Z</time>
      </trkpt>
      <trkpt lat="45.35234" lon="5.73234">
        <ele>1387.7</ele>
        <time>2021-12-19T13:10:20Z</time>
      </trkpt>
      <trkpt lat="45.35234" lon="5.73234">
        <ele>1387.7</ele>
        <time>2021-12-19T13:10:21Z</time>
      </trkpt>
      <trkpt lat="45.35234" lon="5.73234">
        <ele>1387.7</ele>
        <time>2021-12-19T13:10:22Z</time>
      </trkpt>
      <trkpt lat="45.35234" lon="5.73235">
        <ele>1387.7</ele>
        <time>2021-12-19T13:10:23Z</time>
      </trkpt>
      <trkpt lat="45.35235" lon="5.73235">
        <ele>1387.6</ele>
        <time>2021-12-19T13:10:24Z</time>
      </trkpt>
      <trkpt lat="45.35235" lon="5.73236">
        <ele>1387.6</ele>
        <time>2021-12-19T13:10:25Z</time>
      </trkpt>
      <trkpt lat="45.35235" lon="5.73236">
        <ele>1387.6</ele>
        <time>2021-12-19T13:10:26Z</time>
      </trkpt>
      <trkpt lat="45.35235" lon="5.73236">
        <ele>1387.6</ele>
        <time>2021-12-19T13:10:27Z</time>
      </trkpt>
      <trkpt lat="45.35235" lon="5.73236">
        <ele>1387.6</ele>
        <time>2021-12-19T13:10:28Z</time>
      </trkpt>
      <trkpt lat="45.35235" lon="5.73236">
        <ele>1387.5</ele>
        <time>2021-12-19T13:10:29Z</time>
      </trkpt>
      <trkpt lat="45.35235" lon="5.73236">
        <ele>1387.5</ele>
        <time>2021-12-19T13:10:30Z</time>
      </trkpt>
      <trkpt lat="45.35234" lon="5.73236">
        <ele>1387.5</ele>
        <time>2021-12-19T13:10:31Z</time>
      </trkpt>
      <trkpt lat="45.35234" lon="5.73236">
        <ele>1387.4</ele>
        <time>2021-12-19T13:10:32Z</time>
      </trkpt>
      <trkpt lat="45.35234" lon="5.73236">
        <ele>1387.4</ele>
        <time>2021-12-19T13:10:33Z</time>
      </trkpt>
      <trkpt lat="45.35234" lon="5.73236">
        <ele>1387.4</ele>
        <time>2021-12-19T13:10:34Z</time>
      </trkpt>
      <trkpt lat="45.35234" lon="5.73236">
        <ele>1387.3</ele>
        <time>2021-12-19T13:10:35Z</time>
      </trkpt>
      <trkpt lat="45.35234" lon="5.73236">
        <ele>1387.3</ele>
        <time>2021-12-19T13:10:36Z</time>
      </trkpt>
      <trkpt lat="45.35234" lon="5.73236">
        <ele>1387.3</ele>
        <time>2021-12-19T13:10:37Z</time>
      </trkpt>
      <trkpt lat="45.35234" lon="5.73236">
        <ele>1387.2</ele>
        <time>2021-12-19T13:10:38Z</time>
      </trkpt>
      <trkpt lat="45.35234" lon="5.73236">
        <ele>1387.2</ele>
        <time>2021-12-19T13:10:39Z</time>
      </trkpt>
      <trkpt lat="45.35234" lon="5.73236">
        <ele>1387.1</ele>
        <time>2021-12-19T13:10:40Z</time>
      </trkpt>
      <trkpt lat="45.35234" lon="5.73236">
        <ele>1387.1</ele>
        <time>2021-12-19T13:10:41Z</time>
      </trkpt>
      <trkpt lat="45.35234" lon="5.73236">
        <ele>1387</ele>
        <time>2021-12-19T13:10:42Z</time>
      </trkpt>
      <trkpt lat="45.35234" lon="5.73236">
        <ele>1387</ele>
        <time>2021-12-19T13:10:43Z</time>
      </trkpt>
      <trkpt lat="45.35234" lon="5.73236">
        <ele>1386.9</ele>
        <time>2021-12-19T13:10:44Z</time>
      </trkpt>
      <trkpt lat="45.35234" lon="5.73236">
        <ele>1386.9</ele>
        <time>2021-12-19T13:10:45Z</time>
      </trkpt>
      <trkpt lat="45.35234" lon="5.73236">
        <ele>1386.8</ele>
        <time>2021-12-19T13:10:46Z</time>
      </trkpt>
      <trkpt lat="45.35234" lon="5.73236">
        <ele>1386.7</ele>
        <time>2021-12-19T13:10:47Z</time>
      </trkpt>
      <trkpt lat="45.35234" lon="5.73236">
        <ele>1386.7</ele>
        <time>2021-12-19T13:10:48Z</time>
      </trkpt>
      <trkpt lat="45.35234" lon="5.73236">
        <ele>1386.6</ele>
        <time>2021-12-19T13:10:49Z</time>
      </trkpt>
      <trkpt lat="45.35234" lon="5.73236">
        <ele>1386.5</ele>
        <time>2021-12-19T13:10:50Z</time>
      </trkpt>
      <trkpt lat="45.35234" lon="5.73236">
        <ele>1386.5</ele>
        <time>2021-12-19T13:10:51Z</time>
      </trkpt>
      <trkpt lat="45.35234" lon="5.73236">
        <ele>1386.4</ele>
        <time>2021-12-19T13:10:52Z</time>
      </trkpt>
      <trkpt lat="45.35234" lon="5.73236">
        <ele>1386.3</ele>
        <time>2021-12-19T13:10:53Z</time>
      </trkpt>
      <trkpt lat="45.35234" lon="5.73235">
        <ele>1386.3</ele>
        <time>2021-12-19T13:10:54Z</time>
      </trkpt>
      <trkpt lat="45.35234" lon="5.73235">
        <ele>1386.2</ele>
        <time>2021-12-19T13:10:55Z</time>
      </trkpt>
      <trkpt lat="45.35234" lon="5.73235">
        <ele>1386.1</ele>
        <time>2021-12-19T13:10:56Z</time>
      </trkpt>
      <trkpt lat="45.35234" lon="5.73235">
        <ele>1386</ele>
        <time>2021-12-19T13:10:57Z</time>
      </trkpt>
      <trkpt lat="45.35234" lon="5.73236">
        <ele>1385.9</ele>
        <time>2021-12-19T13:10:58Z</time>
      </trkpt>
      <trkpt lat="45.35234" lon="5.73236">
        <ele>1385.8</ele>
        <time>2021-12-19T13:10:59Z</time>
      </trkpt>
      <trkpt lat="45.35234" lon="5.73236">
        <ele>1385.7</ele>
        <time>2021-12-19T13:11:00Z</time>
      </trkpt>
      <trkpt lat="45.35234" lon="5.73235">
        <ele>1385.6</ele>
        <time>2021-12-19T13:11:01Z</time>
      </trkpt>
      <trkpt lat="45.35234" lon="5.73235">
        <ele>1385.5</ele>
        <time>2021-12-19T13:11:02Z</time>
      </trkpt>
      <trkpt lat="45.35234" lon="5.73235">
        <ele>1385.5</ele>
        <time>2021-12-19T13:11:03Z</time>
      </trkpt>
      <trkpt lat="45.35234" lon="5.73235">
        <ele>1385.4</ele>
        <time>2021-12-19T13:11:04Z</time>
      </trkpt>
      <trkpt lat="45.35234" lon="5.73236">
        <ele>1385.3</ele>
        <time>2021-12-19T13:11:05Z</time>
      </trkpt>
      <trkpt lat="45.35234" lon="5.73236">
        <ele>1385.2</ele>
        <time>2021-12-19T13:11:06Z</time>
      </trkpt>
      <trkpt lat="45.35234" lon="5.73236">
        <ele>1385.1</ele>
        <time>2021-12-19T13:11:07Z</time>
      </trkpt>
      <trkpt lat="45.35234" lon="5.73236">
        <ele>1385</ele>
        <time>2021-12-19T13:11:08Z</time>
      </trkpt>
      <trkpt lat="45.35234" lon="5.73236">
        <ele>1384.8</ele>
        <time>2021-12-19T13:11:09Z</time>
      </trkpt>
      <trkpt lat="45.35234" lon="5.73236">
        <ele>1384.7</ele>
        <time>2021-12-19T13:11:10Z</time>
      </trkpt>
      <trkpt lat="45.35234" lon="5.73236">
        <ele>1384.6</ele>
        <time>2021-12-19T13:11:11Z</time>
      </trkpt>
      <trkpt lat="45.35233" lon="5.73236">
        <ele>1384.5</ele>
        <time>2021-12-19T13:11:12Z</time>
      </trkpt>
      <trkpt lat="45.35233" lon="5.73236">
        <ele>1382.9</ele>
        <time>2021-12-19T13:11:13Z</time>
      </trkpt>
      <trkpt lat="45.35231" lon="5.73235">
        <ele>1382.8</ele>
        <time>2021-12-19T13:11:14Z</time>
      </trkpt>
      <trkpt lat="45.35229" lon="5.73235">
        <ele>1381.1</ele>
        <time>2021-12-19T13:11:15Z</time>
      </trkpt>
      <trkpt lat="45.35227" lon="5.73233">
        <ele>1380.9</ele>
        <time>2021-12-19T13:11:16Z</time>
      </trkpt>
      <trkpt lat="45.35227" lon="5.73233">
        <ele>1380.8</ele>
        <time>2021-12-19T13:11:17Z</time>
      </trkpt>
      <trkpt lat="45.35226" lon="5.73233">
        <ele>1379</ele>
        <time>2021-12-19T13:11:18Z</time>
      </trkpt>
      <trkpt lat="45.35225" lon="5.73233">
        <ele>1378.9</ele>
        <time>2021-12-19T13:11:19Z</time>
      </trkpt>
      <trkpt lat="45.35224" lon="5.73233">
        <ele>1378.2</ele>
        <time>2021-12-19T13:11:20Z</time>
      </trkpt>
      <trkpt lat="45.35223" lon="5.73232">
        <ele>1376.4</ele>
        <time>2021-12-19T13:11:21Z</time>
      </trkpt>
      <trkpt lat="45.35221" lon="5.73231">
        <ele>1376.2</ele>
        <time>2021-12-19T13:11:22Z</time>
      </trkpt>
      <trkpt lat="45.3522" lon="5.7323">
        <ele>1374.5</ele>
        <time>2021-12-19T13:11:23Z</time>
      </trkpt>
      <trkpt lat="45.35219" lon="5.73228">
        <ele>1373.8</ele>
        <time>2021-12-19T13:11:24Z</time>
      </trkpt>
      <trkpt lat="45.35218" lon="5.73226">
        <ele>1373.7</ele>
        <time>2021-12-19T13:11:25Z</time>
      </trkpt>
      <trkpt lat="45.35217" lon="5.73225">
        <ele>1371.6</ele>
        <time>2021-12-19T13:11:26Z</time>
      </trkpt>
      <trkpt lat="45.35215" lon="5.73222">
        <ele>1371.4</ele>
        <time>2021-12-19T13:11:27Z</time>
      </trkpt>
      <trkpt lat="45.35214" lon="5.73219">
        <ele>1368.6</ele>
        <time>2021-12-19T13:11:28Z</time>
      </trkpt>
      <trkpt lat="45.35214" lon="5.73214">
        <ele>1368.1</ele>
        <time>2021-12-19T13:11:29Z</time>
      </trkpt>
      <trkpt lat="45.35214" lon="5.73211">
        <ele>1367.7</ele>
        <time>2021-12-19T13:11:30Z</time>
      </trkpt>
      <trkpt lat="45.35214" lon="5.73208">
        <ele>1367.5</ele>
        <time>2021-12-19T13:11:31Z</time>
      </trkpt>
      <trkpt lat="45.35213" lon="5.73205">
        <ele>1367.1</ele>
        <time>2021-12-19T13:11:32Z</time>
      </trkpt>
      <trkpt lat="45.35213" lon="5.73203">
        <ele>1366.7</ele>
        <time>2021-12-19T13:11:33Z</time>
      </trkpt>
      <trkpt lat="45.35214" lon="5.73201">
        <ele>1366.6</ele>
        <time>2021-12-19T13:11:34Z</time>
      </trkpt>
      <trkpt lat="45.35214" lon="5.73199">
        <ele>1366.4</ele>
        <time>2021-12-19T13:11:35Z</time>
      </trkpt>
      <trkpt lat="45.35214" lon="5.73198">
        <ele>1366.1</ele>
        <time>2021-12-19T13:11:36Z</time>
      </trkpt>
      <trkpt lat="45.35214" lon="5.73197">
        <ele>1366</ele>
        <time>2021-12-19T13:11:37Z</time>
      </trkpt>
      <trkpt lat="45.35214" lon="5.73197">
        <ele>1365.8</ele>
        <time>2021-12-19T13:11:38Z</time>
      </trkpt>
      <trkpt lat="45.35214" lon="5.73196">
        <ele>1365.7</ele>
        <time>2021-12-19T13:11:39Z</time>
      </trkpt>
      <trkpt lat="45.35214" lon="5.73196">
        <ele>1365.5</ele>
        <time>2021-12-19T13:11:40Z</time>
      </trkpt>
      <trkpt lat="45.35213" lon="5.73195">
        <ele>1365.3</ele>
        <time>2021-12-19T13:11:41Z</time>
      </trkpt>
      <trkpt lat="45.35213" lon="5.73195">
        <ele>1365.1</ele>
        <time>2021-12-19T13:11:42Z</time>
      </trkpt>
      <trkpt lat="45.35213" lon="5.73195">
        <ele>1364.9</ele>
        <time>2021-12-19T13:11:43Z</time>
      </trkpt>
      <trkpt lat="45.35213" lon="5.73195">
        <ele>1364.7</ele>
        <time>2021-12-19T13:11:44Z</time>
      </trkpt>
      <trkpt lat="45.35213" lon="5.73195">
        <ele>1364.5</ele>
        <time>2021-12-19T13:11:45Z</time>
      </trkpt>
      <trkpt lat="45.35213" lon="5.73195">
        <ele>1364.3</ele>
        <time>2021-12-19T13:11:46Z</time>
      </trkpt>
      <trkpt lat="45.35213" lon="5.73195">
        <ele>1364.2</ele>
        <time>2021-12-19T13:11:47Z</time>
      </trkpt>
      <trkpt lat="45.35213" lon="5.73194">
        <ele>1363.9</ele>
        <time>2021-12-19T13:11:48Z</time>
      </trkpt>
      <trkpt lat="45.35212" lon="5.73193">
        <ele>1363.7</ele>
        <time>2021-12-19T13:11:49Z</time>
      </trkpt>
      <trkpt lat="45.35212" lon="5.73192">
        <ele>1363.5</ele>
        <time>2021-12-19T13:11:50Z</time>
      </trkpt>
      <trkpt lat="45.35212" lon="5.73191">
        <ele>1363.3</ele>
        <time>2021-12-19T13:11:51Z</time>
      </trkpt>
      <trkpt lat="45.35212" lon="5.7319">
        <ele>1363.1</ele>
        <time>2021-12-19T13:11:52Z</time>
      </trkpt>
      <trkpt lat="45.35212" lon="5.73188">
        <ele>1362.9</ele>
        <time>2021-12-19T13:11:53Z</time>
      </trkpt>
      <trkpt lat="45.35211" lon="5.73187">
        <ele>1361.4</ele>
        <time>2021-12-19T13:11:54Z</time>
      </trkpt>
      <trkpt lat="45.35211" lon="5.73187">
        <ele>1361.2</ele>
        <time>2021-12-19T13:11:55Z</time>
      </trkpt>
      <trkpt lat="45.3521" lon="5.73186">
        <ele>1361</ele>
        <time>2021-12-19T13:11:56Z</time>
      </trkpt>
      <trkpt lat="45.35209" lon="5.73186">
        <ele>1360.8</ele>
        <time>2021-12-19T13:11:57Z</time>
      </trkpt>
      <trkpt lat="45.35209" lon="5.73186">
        <ele>1360.6</ele>
        <time>2021-12-19T13:11:58Z</time>
      </trkpt>
      <trkpt lat="45.35209" lon="5.73187">
        <ele>1360.5</ele>
        <time>2021-12-19T13:11:59Z</time>
      </trkpt>
      <trkpt lat="45.35208" lon="5.73188">
        <ele>1359.2</ele>
        <time>2021-12-19T13:12:00Z</time>
      </trkpt>
      <trkpt lat="45.35206" lon="5.73189">
        <ele>1359.1</ele>
        <time>2021-12-19T13:12:01Z</time>
      </trkpt>
      <trkpt lat="45.35204" lon="5.73189">
        <ele>1357.9</ele>
        <time>2021-12-19T13:12:02Z</time>
      </trkpt>
      <trkpt lat="45.35202" lon="5.73188">
        <ele>1356.7</ele>
        <time>2021-12-19T13:12:03Z</time>
      </trkpt>
      <trkpt lat="45.35201" lon="5.73187">
        <ele>1356.6</ele>
        <time>2021-12-19T13:12:04Z</time>
      </trkpt>
      <trkpt lat="45.352" lon="5.73186">
        <ele>1356.5</ele>
        <time>2021-12-19T13:12:05Z</time>
      </trkpt>
      <trkpt lat="45.35198" lon="5.73187">
        <ele>1355.4</ele>
        <time>2021-12-19T13:12:06Z</time>
      </trkpt>
      <trkpt lat="45.35196" lon="5.73187">
        <ele>1354.3</ele>
        <time>2021-12-19T13:12:07Z</time>
      </trkpt>
      <trkpt lat="45.35194" lon="5.73188">
        <ele>1354.2</ele>
        <time>2021-12-19T13:12:08Z</time>
      </trkpt>
      <trkpt lat="45.35191" lon="5.73191">
        <ele>1353</ele>
        <time>2021-12-19T13:12:09Z</time>
      </trkpt>
      <trkpt lat="45.35188" lon="5.73195">
        <ele>1351.9</ele>
        <time>2021-12-19T13:12:10Z</time>
      </trkpt>
      <trkpt lat="45.35185" lon="5.73197">
        <ele>1350.9</ele>
        <time>2021-12-19T13:12:11Z</time>
      </trkpt>
      <trkpt lat="45.35184" lon="5.732">
        <ele>1349.9</ele>
        <time>2021-12-19T13:12:12Z</time>
      </trkpt>
      <trkpt lat="45.35182" lon="5.73201">
        <ele>1349.7</ele>
        <time>2021-12-19T13:12:13Z</time>
      </trkpt>
      <trkpt lat="45.35182" lon="5.732">
        <ele>1349.6</ele>
        <time>2021-12-19T13:12:14Z</time>
      </trkpt>
      <trkpt lat="45.35181" lon="5.732">
        <ele>1349.6</ele>
        <time>2021-12-19T13:12:15Z</time>
      </trkpt>
      <trkpt lat="45.35182" lon="5.732">
        <ele>1349.5</ele>
        <time>2021-12-19T13:12:16Z</time>
      </trkpt>
      <trkpt lat="45.35181" lon="5.732">
        <ele>1349.5</ele>
        <time>2021-12-19T13:12:17Z</time>
      </trkpt>
      <trkpt lat="45.35181" lon="5.73199">
        <ele>1349.4</ele>
        <time>2021-12-19T13:12:18Z</time>
      </trkpt>
      <trkpt lat="45.35181" lon="5.73199">
        <ele>1349.4</ele>
        <time>2021-12-19T13:12:19Z</time>
      </trkpt>
      <trkpt lat="45.35182" lon="5.732">
        <ele>1349.3</ele>
        <time>2021-12-19T13:12:20Z</time>
      </trkpt>
      <trkpt lat="45.35182" lon="5.732">
        <ele>1349.3</ele>
        <time>2021-12-19T13:12:21Z</time>
      </trkpt>
      <trkpt lat="45.35181" lon="5.732">
        <ele>1349.3</ele>
        <time>2021-12-19T13:12:22Z</time>
      </trkpt>
      <trkpt lat="45.35181" lon="5.732">
        <ele>1349.2</ele>
        <time>2021-12-19T13:12:23Z</time>
      </trkpt>
      <trkpt lat="45.35181" lon="5.732">
        <ele>1349.2</ele>
        <time>2021-12-19T13:12:24Z</time>
      </trkpt>
      <trkpt lat="45.35182" lon="5.73201">
        <ele>1349.1</ele>
        <time>2021-12-19T13:12:25Z</time>
      </trkpt>
      <trkpt lat="45.35182" lon="5.73202">
        <ele>1348.9</ele>
        <time>2021-12-19T13:12:26Z</time>
      </trkpt>
      <trkpt lat="45.35182" lon="5.73203">
        <ele>1348.8</ele>
        <time>2021-12-19T13:12:27Z</time>
      </trkpt>
      <trkpt lat="45.35183" lon="5.73204">
        <ele>1348.7</ele>
        <time>2021-12-19T13:12:28Z</time>
      </trkpt>
      <trkpt lat="45.35183" lon="5.73205">
        <ele>1348.6</ele>
        <time>2021-12-19T13:12:29Z</time>
      </trkpt>
      <trkpt lat="45.35182" lon="5.73206">
        <ele>1348.5</ele>
        <time>2021-12-19T13:12:30Z</time>
      </trkpt>
      <trkpt lat="45.35182" lon="5.73207">
        <ele>1348.4</ele>
        <time>2021-12-19T13:12:31Z</time>
      </trkpt>
      <trkpt lat="45.35182" lon="5.73207">
        <ele>1348.4</ele>
        <time>2021-12-19T13:12:32Z</time>
      </trkpt>
      <trkpt lat="45.35181" lon="5.73206">
        <ele>1348.2</ele>
        <time>2021-12-19T13:12:33Z</time>
      </trkpt>
      <trkpt lat="45.3518" lon="5.73206">
        <ele>1348.2</ele>
        <time>2021-12-19T13:12:34Z</time>
      </trkpt>
      <trkpt lat="45.3518" lon="5.73206">
        <ele>1348.1</ele>
        <time>2021-12-19T13:12:35Z</time>
      </trkpt>
      <trkpt lat="45.3518" lon="5.73205">
        <ele>1348.1</ele>
        <time>2021-12-19T13:12:36Z</time>
      </trkpt>
      <trkpt lat="45.3518" lon="5.73205">
        <ele>1348.1</ele>
        <time>2021-12-19T13:12:37Z</time>
      </trkpt>
      <trkpt lat="45.35181" lon="5.73206">
        <ele>1347.9</ele>
        <time>2021-12-19T13:12:38Z</time>
      </trkpt>
      <trkpt lat="45.35183" lon="5.73206">
        <ele>1347.7</ele>
        <time>2021-12-19T13:12:39Z</time>
      </trkpt>
      <trkpt lat="45.35184" lon="5.73207">
        <ele>1347.5</ele>
        <time>2021-12-19T13:12:40Z</time>
      </trkpt>
      <trkpt lat="45.35185" lon="5.73208">
        <ele>1347.4</ele>
        <time>2021-12-19T13:12:41Z</time>
      </trkpt>
      <trkpt lat="45.35185" lon="5.73208">
        <ele>1347.4</ele>
        <time>2021-12-19T13:12:42Z</time>
      </trkpt>
      <trkpt lat="45.35185" lon="5.73208">
        <ele>1347.4</ele>
        <time>2021-12-19T13:12:43Z</time>
      </trkpt>
      <trkpt lat="45.35185" lon="5.73208">
        <ele>1347.3</ele>
        <time>2021-12-19T13:12:44Z</time>
      </trkpt>
      <trkpt lat="45.35185" lon="5.73208">
        <ele>1347.3</ele>
        <time>2021-12-19T13:12:45Z</time>
      </trkpt>
      <trkpt lat="45.35185" lon="5.73207">
        <ele>1347.3</ele>
        <time>2021-12-19T13:12:46Z</time>
      </trkpt>
      <trkpt lat="45.35185" lon="5.73207">
        <ele>1347.2</ele>
        <time>2021-12-19T13:12:47Z</time>
      </trkpt>
      <trkpt lat="45.35185" lon="5.73207">
        <ele>1347.2</ele>
        <time>2021-12-19T13:12:48Z</time>
      </trkpt>
      <trkpt lat="45.35186" lon="5.73207">
        <ele>1347.2</ele>
        <time>2021-12-19T13:12:49Z</time>
      </trkpt>
      <trkpt lat="45.35186" lon="5.73207">
        <ele>1347.2</ele>
        <time>2021-12-19T13:12:50Z</time>
      </trkpt>
      <trkpt lat="45.35186" lon="5.73207">
        <ele>1347.1</ele>
        <time>2021-12-19T13:12:51Z</time>
      </trkpt>
      <trkpt lat="45.35186" lon="5.73207">
        <ele>1347.1</ele>
        <time>2021-12-19T13:12:52Z</time>
      </trkpt>
      <trkpt lat="45.35186" lon="5.73207">
        <ele>1347</ele>
        <time>2021-12-19T13:12:53Z</time>
      </trkpt>
      <trkpt lat="45.35186" lon="5.73207">
        <ele>1347</ele>
        <time>2021-12-19T13:12:54Z</time>
      </trkpt>
      <trkpt lat="45.35186" lon="5.73207">
        <ele>1346.9</ele>
        <time>2021-12-19T13:12:55Z</time>
      </trkpt>
      <trkpt lat="45.35185" lon="5.73207">
        <ele>1346.9</ele>
        <time>2021-12-19T13:12:56Z</time>
      </trkpt>
      <trkpt lat="45.35185" lon="5.73206">
        <ele>1346.9</ele>
        <time>2021-12-19T13:12:57Z</time>
      </trkpt>
      <trkpt lat="45.35185" lon="5.73206">
        <ele>1346.8</ele>
        <time>2021-12-19T13:12:58Z</time>
      </trkpt>
      <trkpt lat="45.35185" lon="5.73205">
        <ele>1346.8</ele>
        <time>2021-12-19T13:12:59Z</time>
      </trkpt>
      <trkpt lat="45.35185" lon="5.73205">
        <ele>1346.7</ele>
        <time>2021-12-19T13:13:00Z</time>
      </trkpt>
      <trkpt lat="45.35185" lon="5.73205">
        <ele>1346.7</ele>
        <time>2021-12-19T13:13:01Z</time>
      </trkpt>
      <trkpt lat="45.35185" lon="5.73204">
        <ele>1346.7</ele>
        <time>2021-12-19T13:13:02Z</time>
      </trkpt>
      <trkpt lat="45.35185" lon="5.73204">
        <ele>1346.6</ele>
        <time>2021-12-19T13:13:03Z</time>
      </trkpt>
      <trkpt lat="45.35186" lon="5.73203">
        <ele>1346.5</ele>
        <time>2021-12-19T13:13:04Z</time>
      </trkpt>
      <trkpt lat="45.35186" lon="5.73202">
        <ele>1346.4</ele>
        <time>2021-12-19T13:13:05Z</time>
      </trkpt>
      <trkpt lat="45.35186" lon="5.73202">
        <ele>1346.4</ele>
        <time>2021-12-19T13:13:06Z</time>
      </trkpt>
      <trkpt lat="45.35186" lon="5.73202">
        <ele>1346.4</ele>
        <time>2021-12-19T13:13:07Z</time>
      </trkpt>
      <trkpt lat="45.35186" lon="5.73201">
        <ele>1346.4</ele>
        <time>2021-12-19T13:13:08Z</time>
      </trkpt>
      <trkpt lat="45.35186" lon="5.73201">
        <ele>1346.3</ele>
        <time>2021-12-19T13:13:09Z</time>
      </trkpt>
      <trkpt lat="45.35185" lon="5.732">
        <ele>1346.2</ele>
        <time>2021-12-19T13:13:10Z</time>
      </trkpt>
      <trkpt lat="45.35184" lon="5.73199">
        <ele>1346</ele>
        <time>2021-12-19T13:13:11Z</time>
      </trkpt>
      <trkpt lat="45.35184" lon="5.73199">
        <ele>1346</ele>
        <time>2021-12-19T13:13:12Z</time>
      </trkpt>
      <trkpt lat="45.35184" lon="5.73198">
        <ele>1345.9</ele>
        <time>2021-12-19T13:13:13Z</time>
      </trkpt>
      <trkpt lat="45.35183" lon="5.73198">
        <ele>1345.8</ele>
        <time>2021-12-19T13:13:14Z</time>
      </trkpt>
      <trkpt lat="45.35182" lon="5.73198">
        <ele>1345.7</ele>
        <time>2021-12-19T13:13:15Z</time>
      </trkpt>
      <trkpt lat="45.35182" lon="5.73199">
        <ele>1345.6</ele>
        <time>2021-12-19T13:13:16Z</time>
      </trkpt>
      <trkpt lat="45.35182" lon="5.73199">
        <ele>1345.6</ele>
        <time>2021-12-19T13:13:17Z</time>
      </trkpt>
      <trkpt lat="45.35181" lon="5.73199">
        <ele>1345.6</ele>
        <time>2021-12-19T13:13:18Z</time>
      </trkpt>
      <trkpt lat="45.35181" lon="5.73199">
        <ele>1345.5</ele>
        <time>2021-12-19T13:13:19Z</time>
      </trkpt>
      <trkpt lat="45.3518" lon="5.73199">
        <ele>1345.4</ele>
        <time>2021-12-19T13:13:20Z</time>
      </trkpt>
      <trkpt lat="45.3518" lon="5.73199">
        <ele>1345.3</ele>
        <time>2021-12-19T13:13:21Z</time>
      </trkpt>
      <trkpt lat="45.3518" lon="5.732">
        <ele>1345.2</ele>
        <time>2021-12-19T13:13:22Z</time>
      </trkpt>
      <trkpt lat="45.35181" lon="5.732">
        <ele>1345.2</ele>
        <time>2021-12-19T13:13:23Z</time>
      </trkpt>
      <trkpt lat="45.35181" lon="5.732">
        <ele>1345.2</ele>
        <time>2021-12-19T13:13:24Z</time>
      </trkpt>
      <trkpt lat="45.3518" lon="5.732">
        <ele>1345.1</ele>
        <time>2021-12-19T13:13:25Z</time>
      </trkpt>
      <trkpt lat="45.3518" lon="5.73203">
        <ele>1344.8</ele>
        <time>2021-12-19T13:13:26Z</time>
      </trkpt>
      <trkpt lat="45.35178" lon="5.73204">
        <ele>1344.6</ele>
        <time>2021-12-19T13:13:27Z</time>
      </trkpt>
      <trkpt lat="45.35176" lon="5.73205">
        <ele>1344.2</ele>
        <time>2021-12-19T13:13:28Z</time>
      </trkpt>
      <trkpt lat="45.35174" lon="5.73208">
        <ele>1343.8</ele>
        <time>2021-12-19T13:13:29Z</time>
      </trkpt>
      <trkpt lat="45.35172" lon="5.73212">
        <ele>1343.4</ele>
        <time>2021-12-19T13:13:30Z</time>
      </trkpt>
      <trkpt lat="45.35169" lon="5.73215">
        <ele>1342.9</ele>
        <time>2021-12-19T13:13:31Z</time>
      </trkpt>
      <trkpt lat="45.35166" lon="5.73219">
        <ele>1342.3</ele>
        <time>2021-12-19T13:13:32Z</time>
      </trkpt>
      <trkpt lat="45.35162" lon="5.73223">
        <ele>1341.7</ele>
        <time>2021-12-19T13:13:33Z</time>
      </trkpt>
      <trkpt lat="45.3516" lon="5.73228">
        <ele>1341.2</ele>
        <time>2021-12-19T13:13:34Z</time>
      </trkpt>
      <trkpt lat="45.35157" lon="5.73232">
        <ele>1340.7</ele>
        <time>2021-12-19T13:13:35Z</time>
      </trkpt>
      <trkpt lat="45.35153" lon="5.73236">
        <ele>1340</ele>
        <time>2021-12-19T13:13:36Z</time>
      </trkpt>
      <trkpt lat="45.35149" lon="5.73241">
        <ele>1339.3</ele>
        <time>2021-12-19T13:13:37Z</time>
      </trkpt>
      <trkpt lat="45.35145" lon="5.73246">
        <ele>1338.5</ele>
        <time>2021-12-19T13:13:38Z</time>
      </trkpt>
      <trkpt lat="45.35141" lon="5.7325">
        <ele>1337.5</ele>
        <time>2021-12-19T13:13:39Z</time>
      </trkpt>
      <trkpt lat="45.35138" lon="5.73253">
        <ele>1336.7</ele>
        <time>2021-12-19T13:13:40Z</time>
      </trkpt>
      <trkpt lat="45.35135" lon="5.73255">
        <ele>1336.1</ele>
        <time>2021-12-19T13:13:41Z</time>
      </trkpt>
      <trkpt lat="45.35134" lon="5.73256">
        <ele>1335.8</ele>
        <time>2021-12-19T13:13:42Z</time>
      </trkpt>
      <trkpt lat="45.35133" lon="5.73257">
        <ele>1335.5</ele>
        <time>2021-12-19T13:13:43Z</time>
      </trkpt>
      <trkpt lat="45.35132" lon="5.73257">
        <ele>1335.2</ele>
        <time>2021-12-19T13:13:44Z</time>
      </trkpt>
      <trkpt lat="45.35132" lon="5.73257">
        <ele>1335.2</ele>
        <time>2021-12-19T13:13:45Z</time>
      </trkpt>
      <trkpt lat="45.35132" lon="5.73258">
        <ele>1335.1</ele>
        <time>2021-12-19T13:13:46Z</time>
      </trkpt>
      <trkpt lat="45.35131" lon="5.73258">
        <ele>1334.9</ele>
        <time>2021-12-19T13:13:47Z</time>
      </trkpt>
      <trkpt lat="45.35129" lon="5.73257">
        <ele>1334.5</ele>
        <time>2021-12-19T13:13:48Z</time>
      </trkpt>
      <trkpt lat="45.35129" lon="5.73256">
        <ele>1334.4</ele>
        <time>2021-12-19T13:13:49Z</time>
      </trkpt>
      <trkpt lat="45.35127" lon="5.73255">
        <ele>1334.1</ele>
        <time>2021-12-19T13:13:50Z</time>
      </trkpt>
      <trkpt lat="45.35127" lon="5.73254">
        <ele>1333.9</ele>
        <time>2021-12-19T13:13:51Z</time>
      </trkpt>
      <trkpt lat="45.35125" lon="5.73253">
        <ele>1333.7</ele>
        <time>2021-12-19T13:13:52Z</time>
      </trkpt>
      <trkpt lat="45.35125" lon="5.73253">
        <ele>1333.5</ele>
        <time>2021-12-19T13:13:53Z</time>
      </trkpt>
      <trkpt lat="45.35123" lon="5.73253">
        <ele>1333.2</ele>
        <time>2021-12-19T13:13:54Z</time>
      </trkpt>
      <trkpt lat="45.35123" lon="5.73253">
        <ele>1333.1</ele>
        <time>2021-12-19T13:13:55Z</time>
      </trkpt>
      <trkpt lat="45.35124" lon="5.73254">
        <ele>1333.1</ele>
        <time>2021-12-19T13:13:56Z</time>
      </trkpt>
      <trkpt lat="45.35124" lon="5.73254">
        <ele>1333</ele>
        <time>2021-12-19T13:13:57Z</time>
      </trkpt>
      <trkpt lat="45.35124" lon="5.73254">
        <ele>1333</ele>
        <time>2021-12-19T13:13:58Z</time>
      </trkpt>
      <trkpt lat="45.35124" lon="5.73255">
        <ele>1332.8</ele>
        <time>2021-12-19T13:13:59Z</time>
      </trkpt>
      <trkpt lat="45.35125" lon="5.73255">
        <ele>1332.7</ele>
        <time>2021-12-19T13:14:00Z</time>
      </trkpt>
      <trkpt lat="45.35125" lon="5.73256">
        <ele>1332.6</ele>
        <time>2021-12-19T13:14:01Z</time>
      </trkpt>
      <trkpt lat="45.35126" lon="5.73256">
        <ele>1332.5</ele>
        <time>2021-12-19T13:14:02Z</time>
      </trkpt>
      <trkpt lat="45.35126" lon="5.73256">
        <ele>1332.5</ele>
        <time>2021-12-19T13:14:03Z</time>
      </trkpt>
      <trkpt lat="45.35126" lon="5.73256">
        <ele>1332.4</ele>
        <time>2021-12-19T13:14:04Z</time>
      </trkpt>
      <trkpt lat="45.35126" lon="5.73256">
        <ele>1332.4</ele>
        <time>2021-12-19T13:14:05Z</time>
      </trkpt>
      <trkpt lat="45.35126" lon="5.73256">
        <ele>1332.3</ele>
        <time>2021-12-19T13:14:06Z</time>
      </trkpt>
      <trkpt lat="45.35126" lon="5.73256">
        <ele>1332.3</ele>
        <time>2021-12-19T13:14:07Z</time>
      </trkpt>
      <trkpt lat="45.35125" lon="5.73256">
        <ele>1332.2</ele>
        <time>2021-12-19T13:14:08Z</time>
      </trkpt>
      <trkpt lat="45.35125" lon="5.73257">
        <ele>1332.2</ele>
        <time>2021-12-19T13:14:09Z</time>
      </trkpt>
      <trkpt lat="45.35125" lon="5.73257">
        <ele>1332.2</ele>
        <time>2021-12-19T13:14:10Z</time>
      </trkpt>
      <trkpt lat="45.35125" lon="5.73257">
        <ele>1332.1</ele>
        <time>2021-12-19T13:14:11Z</time>
      </trkpt>
      <trkpt lat="45.35125" lon="5.73257">
        <ele>1332.1</ele>
        <time>2021-12-19T13:14:12Z</time>
      </trkpt>
      <trkpt lat="45.35125" lon="5.73256">
        <ele>1332.1</ele>
        <time>2021-12-19T13:14:13Z</time>
      </trkpt>
      <trkpt lat="45.35125" lon="5.73256">
        <ele>1332</ele>
        <time>2021-12-19T13:14:14Z</time>
      </trkpt>
      <trkpt lat="45.35125" lon="5.73256">
        <ele>1331.9</ele>
        <time>2021-12-19T13:14:15Z</time>
      </trkpt>
      <trkpt lat="45.35125" lon="5.73256">
        <ele>1331.9</ele>
        <time>2021-12-19T13:14:16Z</time>
      </trkpt>
      <trkpt lat="45.35125" lon="5.73257">
        <ele>1331.8</ele>
        <time>2021-12-19T13:14:17Z</time>
      </trkpt>
      <trkpt lat="45.35125" lon="5.73257">
        <ele>1331.7</ele>
        <time>2021-12-19T13:14:18Z</time>
      </trkpt>
      <trkpt lat="45.35125" lon="5.73258">
        <ele>1331.7</ele>
        <time>2021-12-19T13:14:19Z</time>
      </trkpt>
      <trkpt lat="45.35125" lon="5.73258">
        <ele>1331.6</ele>
        <time>2021-12-19T13:14:20Z</time>
      </trkpt>
      <trkpt lat="45.35125" lon="5.73257">
        <ele>1331.5</ele>
        <time>2021-12-19T13:14:21Z</time>
      </trkpt>
      <trkpt lat="45.35125" lon="5.73257">
        <ele>1331.4</ele>
        <time>2021-12-19T13:14:22Z</time>
      </trkpt>
      <trkpt lat="45.35126" lon="5.73257">
        <ele>1331.3</ele>
        <time>2021-12-19T13:14:23Z</time>
      </trkpt>
      <trkpt lat="45.35127" lon="5.73257">
        <ele>1331.2</ele>
        <time>2021-12-19T13:14:24Z</time>
      </trkpt>
      <trkpt lat="45.35127" lon="5.73257">
        <ele>1331.2</ele>
        <time>2021-12-19T13:14:25Z</time>
      </trkpt>
      <trkpt lat="45.35126" lon="5.73257">
        <ele>1331.2</ele>
        <time>2021-12-19T13:14:26Z</time>
      </trkpt>
      <trkpt lat="45.35126" lon="5.73257">
        <ele>1331.1</ele>
        <time>2021-12-19T13:14:27Z</time>
      </trkpt>
      <trkpt lat="45.35126" lon="5.73257">
        <ele>1331.1</ele>
        <time>2021-12-19T13:14:28Z</time>
      </trkpt>
      <trkpt lat="45.35126" lon="5.73257">
        <ele>1331</ele>
        <time>2021-12-19T13:14:29Z</time>
      </trkpt>
      <trkpt lat="45.35125" lon="5.73257">
        <ele>1331</ele>
        <time>2021-12-19T13:14:30Z</time>
      </trkpt>
      <trkpt lat="45.35126" lon="5.73257">
        <ele>1330.9</ele>
        <time>2021-12-19T13:14:31Z</time>
      </trkpt>
      <trkpt lat="45.35126" lon="5.73257">
        <ele>1330.9</ele>
        <time>2021-12-19T13:14:32Z</time>
      </trkpt>
      <trkpt lat="45.35126" lon="5.73257">
        <ele>1330.9</ele>
        <time>2021-12-19T13:14:33Z</time>
      </trkpt>
      <trkpt lat="45.35126" lon="5.73257">
        <ele>1330.9</ele>
        <time>2021-12-19T13:14:34Z</time>
      </trkpt>
      <trkpt lat="45.35126" lon="5.73257">
        <ele>1330.8</ele>
        <time>2021-12-19T13:14:35Z</time>
      </trkpt>
      <trkpt lat="45.35126" lon="5.73257">
        <ele>1330.8</ele>
        <time>2021-12-19T13:14:36Z</time>
      </trkpt>
      <trkpt lat="45.35126" lon="5.73257">
        <ele>1330.8</ele>
        <time>2021-12-19T13:14:37Z</time>
      </trkpt>
      <trkpt lat="45.35126" lon="5.73257">
        <ele>1330.8</ele>
        <time>2021-12-19T13:14:38Z</time>
      </trkpt>
      <trkpt lat="45.35126" lon="5.73257">
        <ele>1330.7</ele>
        <time>2021-12-19T13:14:39Z</time>
      </trkpt>
      <trkpt lat="45.35126" lon="5.73257">
        <ele>1330.7</ele>
        <time>2021-12-19T13:14:40Z</time>
      </trkpt>
      <trkpt lat="45.35126" lon="5.73257">
        <ele>1330.6</ele>
        <time>2021-12-19T13:14:41Z</time>
      </trkpt>
      <trkpt lat="45.35126" lon="5.73259">
        <ele>1330.5</ele>
        <time>2021-12-19T13:14:42Z</time>
      </trkpt>
      <trkpt lat="45.35126" lon="5.73261">
        <ele>1330.1</ele>
        <time>2021-12-19T13:14:43Z</time>
      </trkpt>
      <trkpt lat="45.35125" lon="5.73265">
        <ele>1329.6</ele>
        <time>2021-12-19T13:14:44Z</time>
      </trkpt>
      <trkpt lat="45.35124" lon="5.73267">
        <ele>1329.2</ele>
        <time>2021-12-19T13:14:45Z</time>
      </trkpt>
      <trkpt lat="45.35123" lon="5.73271">
        <ele>1328.6</ele>
        <time>2021-12-19T13:14:46Z</time>
      </trkpt>
      <trkpt lat="45.35122" lon="5.73275">
        <ele>1327.9</ele>
        <time>2021-12-19T13:14:47Z</time>
      </trkpt>
      <trkpt lat="45.35121" lon="5.73279">
        <ele>1327.3</ele>
        <time>2021-12-19T13:14:48Z</time>
      </trkpt>
      <trkpt lat="45.35121" lon="5.73284">
        <ele>1326.6</ele>
        <time>2021-12-19T13:14:49Z</time>
      </trkpt>
      <trkpt lat="45.35122" lon="5.73289">
        <ele>1325.9</ele>
        <time>2021-12-19T13:14:50Z</time>
      </trkpt>
      <trkpt lat="45.35122" lon="5.73294">
        <ele>1325.1</ele>
        <time>2021-12-19T13:14:51Z</time>
      </trkpt>
      <trkpt lat="45.35122" lon="5.73299">
        <ele>1324.2</ele>
        <time>2021-12-19T13:14:52Z</time>
      </trkpt>
      <trkpt lat="45.35121" lon="5.73304">
        <ele>1323.4</ele>
        <time>2021-12-19T13:14:53Z</time>
      </trkpt>
      <trkpt lat="45.35121" lon="5.73309">
        <ele>1322.6</ele>
        <time>2021-12-19T13:14:54Z</time>
      </trkpt>
      <trkpt lat="45.35121" lon="5.73314">
        <ele>1321.8</ele>
        <time>2021-12-19T13:14:55Z</time>
      </trkpt>
      <trkpt lat="45.3512" lon="5.73319">
        <ele>1321</ele>
        <time>2021-12-19T13:14:56Z</time>
      </trkpt>
      <trkpt lat="45.35119" lon="5.73325">
        <ele>1320.1</ele>
        <time>2021-12-19T13:14:57Z</time>
      </trkpt>
      <trkpt lat="45.35118" lon="5.7333">
        <ele>1319.1</ele>
        <time>2021-12-19T13:14:58Z</time>
      </trkpt>
      <trkpt lat="45.35117" lon="5.73337">
        <ele>1318.2</ele>
        <time>2021-12-19T13:14:59Z</time>
      </trkpt>
      <trkpt lat="45.35116" lon="5.73343">
        <ele>1317.1</ele>
        <time>2021-12-19T13:15:00Z</time>
      </trkpt>
      <trkpt lat="45.35114" lon="5.73351">
        <ele>1315.8</ele>
        <time>2021-12-19T13:15:01Z</time>
      </trkpt>
      <trkpt lat="45.35113" lon="5.73359">
        <ele>1314.5</ele>
        <time>2021-12-19T13:15:02Z</time>
      </trkpt>
      <trkpt lat="45.35112" lon="5.73366">
        <ele>1313.5</ele>
        <time>2021-12-19T13:15:03Z</time>
      </trkpt>
      <trkpt lat="45.35112" lon="5.73372">
        <ele>1312.8</ele>
        <time>2021-12-19T13:15:04Z</time>
      </trkpt>
      <trkpt lat="45.35112" lon="5.73375">
        <ele>1312.3</ele>
        <time>2021-12-19T13:15:05Z</time>
      </trkpt>
      <trkpt lat="45.35113" lon="5.73378">
        <ele>1311.9</ele>
        <time>2021-12-19T13:15:06Z</time>
      </trkpt>
      <trkpt lat="45.35113" lon="5.7338">
        <ele>1311.7</ele>
        <time>2021-12-19T13:15:07Z</time>
      </trkpt>
      <trkpt lat="45.35114" lon="5.7338">
        <ele>1311.7</ele>
        <time>2021-12-19T13:15:08Z</time>
      </trkpt>
      <trkpt lat="45.35114" lon="5.7338">
        <ele>1311.7</ele>
        <time>2021-12-19T13:15:09Z</time>
      </trkpt>
      <trkpt lat="45.35114" lon="5.7338">
        <ele>1311.6</ele>
        <time>2021-12-19T13:15:10Z</time>
      </trkpt>
      <trkpt lat="45.35114" lon="5.73381">
        <ele>1311.6</ele>
        <time>2021-12-19T13:15:11Z</time>
      </trkpt>
      <trkpt lat="45.35114" lon="5.73381">
        <ele>1311.5</ele>
        <time>2021-12-19T13:15:12Z</time>
      </trkpt>
      <trkpt lat="45.35114" lon="5.73382">
        <ele>1311.5</ele>
        <time>2021-12-19T13:15:13Z</time>
      </trkpt>
      <trkpt lat="45.35115" lon="5.73382">
        <ele>1311.3</ele>
        <time>2021-12-19T13:15:14Z</time>
      </trkpt>
      <trkpt lat="45.35115" lon="5.73382">
        <ele>1311.2</ele>
        <time>2021-12-19T13:15:15Z</time>
      </trkpt>
      <trkpt lat="45.35115" lon="5.73383">
        <ele>1311.1</ele>
        <time>2021-12-19T13:15:16Z</time>
      </trkpt>
      <trkpt lat="45.35116" lon="5.73384">
        <ele>1311</ele>
        <time>2021-12-19T13:15:17Z</time>
      </trkpt>
      <trkpt lat="45.35116" lon="5.73385">
        <ele>1310.9</ele>
        <time>2021-12-19T13:15:18Z</time>
      </trkpt>
      <trkpt lat="45.35116" lon="5.73386">
        <ele>1310.8</ele>
        <time>2021-12-19T13:15:19Z</time>
      </trkpt>
      <trkpt lat="45.35116" lon="5.73387">
        <ele>1310.7</ele>
        <time>2021-12-19T13:15:20Z</time>
      </trkpt>
      <trkpt lat="45.35115" lon="5.73387">
        <ele>1310.6</ele>
        <time>2021-12-19T13:15:21Z</time>
      </trkpt>
      <trkpt lat="45.35115" lon="5.73388">
        <ele>1310.5</ele>
        <time>2021-12-19T13:15:22Z</time>
      </trkpt>
      <trkpt lat="45.35114" lon="5.73388">
        <ele>1310.4</ele>
        <time>2021-12-19T13:15:23Z</time>
      </trkpt>
      <trkpt lat="45.35114" lon="5.73387">
        <ele>1310.3</ele>
        <time>2021-12-19T13:15:24Z</time>
      </trkpt>
      <trkpt lat="45.35113" lon="5.73387">
        <ele>1310.2</ele>
        <time>2021-12-19T13:15:25Z</time>
      </trkpt>
      <trkpt lat="45.35112" lon="5.73387">
        <ele>1310.1</ele>
        <time>2021-12-19T13:15:26Z</time>
      </trkpt>
      <trkpt lat="45.35111" lon="5.73387">
        <ele>1309.9</ele>
        <time>2021-12-19T13:15:27Z</time>
      </trkpt>
      <trkpt lat="45.3511" lon="5.73388">
        <ele>1309.7</ele>
        <time>2021-12-19T13:15:28Z</time>
      </trkpt>
      <trkpt lat="45.3511" lon="5.73388">
        <ele>1309.6</ele>
        <time>2021-12-19T13:15:29Z</time>
      </trkpt>
      <trkpt lat="45.3511" lon="5.73388">
        <ele>1309.6</ele>
        <time>2021-12-19T13:15:30Z</time>
      </trkpt>
      <trkpt lat="45.3511" lon="5.73388">
        <ele>1309.6</ele>
        <time>2021-12-19T13:15:31Z</time>
      </trkpt>
      <trkpt lat="45.3511" lon="5.73388">
        <ele>1309.6</ele>
        <time>2021-12-19T13:15:32Z</time>
      </trkpt>
      <trkpt lat="45.3511" lon="5.73388">
        <ele>1309.6</ele>
        <time>2021-12-19T13:15:33Z</time>
      </trkpt>
      <trkpt lat="45.35109" lon="5.73388">
        <ele>1309.6</ele>
        <time>2021-12-19T13:15:34Z</time>
      </trkpt>
      <trkpt lat="45.35109" lon="5.73388">
        <ele>1309.6</ele>
        <time>2021-12-19T13:15:35Z</time>
      </trkpt>
      <trkpt lat="45.35109" lon="5.73388">
        <ele>1309.5</ele>
        <time>2021-12-19T13:15:36Z</time>
      </trkpt>
      <trkpt lat="45.35109" lon="5.73388">
        <ele>1309.5</ele>
        <time>2021-12-19T13:15:37Z</time>
      </trkpt>
      <trkpt lat="45.35109" lon="5.73388">
        <ele>1309.5</ele>
        <time>2021-12-19T13:15:38Z</time>
      </trkpt>
      <trkpt lat="45.35109" lon="5.73388">
        <ele>1309.5</ele>
        <time>2021-12-19T13:15:39Z</time>
      </trkpt>
      <trkpt lat="45.35108" lon="5.73388">
        <ele>1309.4</ele>
        <time>2021-12-19T13:15:40Z</time>
      </trkpt>
      <trkpt lat="45.35108" lon="5.73388">
        <ele>1309.4</ele>
        <time>2021-12-19T13:15:41Z</time>
      </trkpt>
      <trkpt lat="45.35108" lon="5.73388">
        <ele>1309.3</ele>
        <time>2021-12-19T13:15:42Z</time>
      </trkpt>
      <trkpt lat="45.35108" lon="5.73388">
        <ele>1309.3</ele>
        <time>2021-12-19T13:15:43Z</time>
      </trkpt>
      <trkpt lat="45.35108" lon="5.73388">
        <ele>1309.3</ele>
        <time>2021-12-19T13:15:44Z</time>
      </trkpt>
      <trkpt lat="45.35108" lon="5.73389">
        <ele>1309.3</ele>
        <time>2021-12-19T13:15:45Z</time>
      </trkpt>
      <trkpt lat="45.35108" lon="5.73389">
        <ele>1309.3</ele>
        <time>2021-12-19T13:15:46Z</time>
      </trkpt>
      <trkpt lat="45.35108" lon="5.73389">
        <ele>1309.3</ele>
        <time>2021-12-19T13:15:47Z</time>
      </trkpt>
      <trkpt lat="45.35108" lon="5.73388">
        <ele>1309.3</ele>
        <time>2021-12-19T13:15:48Z</time>
      </trkpt>
      <trkpt lat="45.35108" lon="5.73388">
        <ele>1309.2</ele>
        <time>2021-12-19T13:15:49Z</time>
      </trkpt>
      <trkpt lat="45.35107" lon="5.73388">
        <ele>1309.2</ele>
        <time>2021-12-19T13:15:50Z</time>
      </trkpt>
      <trkpt lat="45.35107" lon="5.73388">
        <ele>1309.1</ele>
        <time>2021-12-19T13:15:51Z</time>
      </trkpt>
      <trkpt lat="45.35107" lon="5.73388">
        <ele>1309</ele>
        <time>2021-12-19T13:15:52Z</time>
      </trkpt>
      <trkpt lat="45.35106" lon="5.73387">
        <ele>1309</ele>
        <time>2021-12-19T13:15:53Z</time>
      </trkpt>
      <trkpt lat="45.35106" lon="5.73387">
        <ele>1308.9</ele>
        <time>2021-12-19T13:15:54Z</time>
      </trkpt>
      <trkpt lat="45.35106" lon="5.73387">
        <ele>1308.9</ele>
        <time>2021-12-19T13:15:55Z</time>
      </trkpt>
      <trkpt lat="45.35106" lon="5.73387">
        <ele>1308.9</ele>
        <time>2021-12-19T13:15:56Z</time>
      </trkpt>
      <trkpt lat="45.35106" lon="5.73387">
        <ele>1308.8</ele>
        <time>2021-12-19T13:15:57Z</time>
      </trkpt>
      <trkpt lat="45.35106" lon="5.73387">
        <ele>1308.8</ele>
        <time>2021-12-19T13:15:58Z</time>
      </trkpt>
      <trkpt lat="45.35106" lon="5.73388">
        <ele>1308.8</ele>
        <time>2021-12-19T13:15:59Z</time>
      </trkpt>
      <trkpt lat="45.35105" lon="5.73388">
        <ele>1308.7</ele>
        <time>2021-12-19T13:16:00Z</time>
      </trkpt>
      <trkpt lat="45.35105" lon="5.73389">
        <ele>1308.6</ele>
        <time>2021-12-19T13:16:01Z</time>
      </trkpt>
      <trkpt lat="45.35105" lon="5.7339">
        <ele>1308.5</ele>
        <time>2021-12-19T13:16:02Z</time>
      </trkpt>
      <trkpt lat="45.35105" lon="5.73391">
        <ele>1308.4</ele>
        <time>2021-12-19T13:16:03Z</time>
      </trkpt>
      <trkpt lat="45.35105" lon="5.73391">
        <ele>1308.4</ele>
        <time>2021-12-19T13:16:04Z</time>
      </trkpt>
      <trkpt lat="45.35104" lon="5.73393">
        <ele>1308.2</ele>
        <time>2021-12-19T13:16:05Z</time>
      </trkpt>
      <trkpt lat="45.35103" lon="5.73395">
        <ele>1307.9</ele>
        <time>2021-12-19T13:16:06Z</time>
      </trkpt>
      <trkpt lat="45.35103" lon="5.73398">
        <ele>1307.6</ele>
        <time>2021-12-19T13:16:07Z</time>
      </trkpt>
      <trkpt lat="45.35102" lon="5.73402">
        <ele>1307.1</ele>
        <time>2021-12-19T13:16:08Z</time>
      </trkpt>
      <trkpt lat="45.35101" lon="5.73406">
        <ele>1306.6</ele>
        <time>2021-12-19T13:16:09Z</time>
      </trkpt>
      <trkpt lat="45.351" lon="5.7341">
        <ele>1306</ele>
        <time>2021-12-19T13:16:10Z</time>
      </trkpt>
      <trkpt lat="45.35098" lon="5.73414">
        <ele>1305.5</ele>
        <time>2021-12-19T13:16:11Z</time>
      </trkpt>
      <trkpt lat="45.35097" lon="5.73416">
        <ele>1305</ele>
        <time>2021-12-19T13:16:12Z</time>
      </trkpt>
      <trkpt lat="45.35096" lon="5.73419">
        <ele>1304.6</ele>
        <time>2021-12-19T13:16:13Z</time>
      </trkpt>
      <trkpt lat="45.35095" lon="5.73422">
        <ele>1304.2</ele>
        <time>2021-12-19T13:16:14Z</time>
      </trkpt>
      <trkpt lat="45.35095" lon="5.73424">
        <ele>1303.8</ele>
        <time>2021-12-19T13:16:15Z</time>
      </trkpt>
      <trkpt lat="45.35094" lon="5.73426">
        <ele>1303.4</ele>
        <time>2021-12-19T13:16:16Z</time>
      </trkpt>
      <trkpt lat="45.35094" lon="5.73429">
        <ele>1303</ele>
        <time>2021-12-19T13:16:17Z</time>
      </trkpt>
      <trkpt lat="45.35092" lon="5.73432">
        <ele>1302.3</ele>
        <time>2021-12-19T13:16:18Z</time>
      </trkpt>
      <trkpt lat="45.3509" lon="5.73436">
        <ele>1301.6</ele>
        <time>2021-12-19T13:16:19Z</time>
      </trkpt>
      <trkpt lat="45.35089" lon="5.73439">
        <ele>1301</ele>
        <time>2021-12-19T13:16:20Z</time>
      </trkpt>
      <trkpt lat="45.35087" lon="5.73442">
        <ele>1300.3</ele>
        <time>2021-12-19T13:16:21Z</time>
      </trkpt>
      <trkpt lat="45.35083" lon="5.73445">
        <ele>1299.4</ele>
        <time>2021-12-19T13:16:22Z</time>
      </trkpt>
      <trkpt lat="45.35079" lon="5.73449">
        <ele>1298.2</ele>
        <time>2021-12-19T13:16:23Z</time>
      </trkpt>
      <trkpt lat="45.35075" lon="5.73452">
        <ele>1297</ele>
        <time>2021-12-19T13:16:24Z</time>
      </trkpt>
      <trkpt lat="45.3507" lon="5.73455">
        <ele>1296</ele>
        <time>2021-12-19T13:16:25Z</time>
      </trkpt>
      <trkpt lat="45.35064" lon="5.73458">
        <ele>1295.2</ele>
        <time>2021-12-19T13:16:26Z</time>
      </trkpt>
      <trkpt lat="45.35059" lon="5.73463">
        <ele>1294.4</ele>
        <time>2021-12-19T13:16:27Z</time>
      </trkpt>
      <trkpt lat="45.35054" lon="5.73466">
        <ele>1293.5</ele>
        <time>2021-12-19T13:16:28Z</time>
      </trkpt>
      <trkpt lat="45.35049" lon="5.73469">
        <ele>1292.6</ele>
        <time>2021-12-19T13:16:29Z</time>
      </trkpt>
      <trkpt lat="45.35043" lon="5.73471">
        <ele>1291.6</ele>
        <time>2021-12-19T13:16:30Z</time>
      </trkpt>
      <trkpt lat="45.35039" lon="5.73474">
        <ele>1290.7</ele>
        <time>2021-12-19T13:16:31Z</time>
      </trkpt>
      <trkpt lat="45.35036" lon="5.73476">
        <ele>1290.2</ele>
        <time>2021-12-19T13:16:32Z</time>
      </trkpt>
      <trkpt lat="45.35034" lon="5.73476">
        <ele>1289.9</ele>
        <time>2021-12-19T13:16:33Z</time>
      </trkpt>
      <trkpt lat="45.35033" lon="5.73477">
        <ele>1289.7</ele>
        <time>2021-12-19T13:16:34Z</time>
      </trkpt>
      <trkpt lat="45.35033" lon="5.73477">
        <ele>1289.7</ele>
        <time>2021-12-19T13:16:35Z</time>
      </trkpt>
      <trkpt lat="45.35033" lon="5.73477">
        <ele>1289.7</ele>
        <time>2021-12-19T13:16:36Z</time>
      </trkpt>
      <trkpt lat="45.35033" lon="5.73477">
        <ele>1289.6</ele>
        <time>2021-12-19T13:16:37Z</time>
      </trkpt>
      <trkpt lat="45.35034" lon="5.73477">
        <ele>1289.5</ele>
        <time>2021-12-19T13:16:38Z</time>
      </trkpt>
      <trkpt lat="45.35034" lon="5.73477">
        <ele>1289.5</ele>
        <time>2021-12-19T13:16:39Z</time>
      </trkpt>
      <trkpt lat="45.35034" lon="5.73477">
        <ele>1289.5</ele>
        <time>2021-12-19T13:16:40Z</time>
      </trkpt>
      <trkpt lat="45.35034" lon="5.73478">
        <ele>1289.4</ele>
        <time>2021-12-19T13:16:41Z</time>
      </trkpt>
      <trkpt lat="45.35034" lon="5.73478">
        <ele>1289.4</ele>
        <time>2021-12-19T13:16:42Z</time>
      </trkpt>
      <trkpt lat="45.35034" lon="5.73478">
        <ele>1289.3</ele>
        <time>2021-12-19T13:16:43Z</time>
      </trkpt>
      <trkpt lat="45.35034" lon="5.73478">
        <ele>1289.3</ele>
        <time>2021-12-19T13:16:44Z</time>
      </trkpt>
      <trkpt lat="45.35034" lon="5.73478">
        <ele>1289.3</ele>
        <time>2021-12-19T13:16:45Z</time>
      </trkpt>
      <trkpt lat="45.35034" lon="5.73478">
        <ele>1289.3</ele>
        <time>2021-12-19T13:16:46Z</time>
      </trkpt>
      <trkpt lat="45.35034" lon="5.73478">
        <ele>1289.3</ele>
        <time>2021-12-19T13:16:47Z</time>
      </trkpt>
      <trkpt lat="45.35034" lon="5.73478">
        <ele>1289.3</ele>
        <time>2021-12-19T13:16:48Z</time>
      </trkpt>
      <trkpt lat="45.35034" lon="5.73478">
        <ele>1289.3</ele>
        <time>2021-12-19T13:16:49Z</time>
      </trkpt>
      <trkpt lat="45.35034" lon="5.73478">
        <ele>1289.3</ele>
        <time>2021-12-19T13:16:50Z</time>
      </trkpt>
      <trkpt lat="45.35034" lon="5.73478">
        <ele>1289.3</ele>
        <time>2021-12-19T13:16:51Z</time>
      </trkpt>
      <trkpt lat="45.35034" lon="5.73478">
        <ele>1289.3</ele>
        <time>2021-12-19T13:16:52Z</time>
      </trkpt>
      <trkpt lat="45.35034" lon="5.73478">
        <ele>1289.3</ele>
        <time>2021-12-19T13:16:53Z</time>
      </trkpt>
      <trkpt lat="45.35034" lon="5.73478">
        <ele>1289.3</ele>
        <time>2021-12-19T13:16:54Z</time>
      </trkpt>
      <trkpt lat="45.35034" lon="5.73478">
        <ele>1289.3</ele>
        <time>2021-12-19T13:16:55Z</time>
      </trkpt>
      <trkpt lat="45.35034" lon="5.73479">
        <ele>1289.2</ele>
        <time>2021-12-19T13:16:56Z</time>
      </trkpt>
      <trkpt lat="45.35034" lon="5.73479">
        <ele>1289.2</ele>
        <time>2021-12-19T13:16:57Z</time>
      </trkpt>
      <trkpt lat="45.35034" lon="5.73479">
        <ele>1289.2</ele>
        <time>2021-12-19T13:16:58Z</time>
      </trkpt>
      <trkpt lat="45.35034" lon="5.73479">
        <ele>1289.2</ele>
        <time>2021-12-19T13:16:59Z</time>
      </trkpt>
      <trkpt lat="45.35034" lon="5.73478">
        <ele>1289.2</ele>
        <time>2021-12-19T13:17:00Z</time>
      </trkpt>
      <trkpt lat="45.35034" lon="5.73478">
        <ele>1289.2</ele>
        <time>2021-12-19T13:17:01Z</time>
      </trkpt>
      <trkpt lat="45.35034" lon="5.73478">
        <ele>1289.1</ele>
        <time>2021-12-19T13:17:02Z</time>
      </trkpt>
      <trkpt lat="45.35035" lon="5.73478">
        <ele>1289.1</ele>
        <time>2021-12-19T13:17:03Z</time>
      </trkpt>
      <trkpt lat="45.35035" lon="5.73478">
        <ele>1289.1</ele>
        <time>2021-12-19T13:17:04Z</time>
      </trkpt>
      <trkpt lat="45.35035" lon="5.73477">
        <ele>1289</ele>
        <time>2021-12-19T13:17:05Z</time>
      </trkpt>
      <trkpt lat="45.35035" lon="5.73477">
        <ele>1289</ele>
        <time>2021-12-19T13:17:06Z</time>
      </trkpt>
      <trkpt lat="45.35035" lon="5.73477">
        <ele>1289</ele>
        <time>2021-12-19T13:17:07Z</time>
      </trkpt>
      <trkpt lat="45.35035" lon="5.73477">
        <ele>1289</ele>
        <time>2021-12-19T13:17:08Z</time>
      </trkpt>
      <trkpt lat="45.35035" lon="5.73477">
        <ele>1289</ele>
        <time>2021-12-19T13:17:09Z</time>
      </trkpt>
      <trkpt lat="45.35035" lon="5.73478">
        <ele>1288.9</ele>
        <time>2021-12-19T13:17:10Z</time>
      </trkpt>
      <trkpt lat="45.35034" lon="5.73479">
        <ele>1288.7</ele>
        <time>2021-12-19T13:17:11Z</time>
      </trkpt>
      <trkpt lat="45.35033" lon="5.7348">
        <ele>1288.5</ele>
        <time>2021-12-19T13:17:12Z</time>
      </trkpt>
      <trkpt lat="45.35031" lon="5.73479">
        <ele>1288.3</ele>
        <time>2021-12-19T13:17:13Z</time>
      </trkpt>
      <trkpt lat="45.3503" lon="5.73481">
        <ele>1288</ele>
        <time>2021-12-19T13:17:14Z</time>
      </trkpt>
      <trkpt lat="45.35029" lon="5.73483">
        <ele>1287.7</ele>
        <time>2021-12-19T13:17:15Z</time>
      </trkpt>
      <trkpt lat="45.35028" lon="5.73486">
        <ele>1287.4</ele>
        <time>2021-12-19T13:17:16Z</time>
      </trkpt>
      <trkpt lat="45.35026" lon="5.73488">
        <ele>1287.1</ele>
        <time>2021-12-19T13:17:17Z</time>
      </trkpt>
      <trkpt lat="45.35025" lon="5.73491">
        <ele>1286.7</ele>
        <time>2021-12-19T13:17:18Z</time>
      </trkpt>
      <trkpt lat="45.35024" lon="5.73494">
        <ele>1286.2</ele>
        <time>2021-12-19T13:17:19Z</time>
      </trkpt>
      <trkpt lat="45.35023" lon="5.73498">
        <ele>1285.6</ele>
        <time>2021-12-19T13:17:20Z</time>
      </trkpt>
      <trkpt lat="45.35022" lon="5.73501">
        <ele>1285.1</ele>
        <time>2021-12-19T13:17:21Z</time>
      </trkpt>
      <trkpt lat="45.35021" lon="5.73505">
        <ele>1284.6</ele>
        <time>2021-12-19T13:17:22Z</time>
      </trkpt>
      <trkpt lat="45.3502" lon="5.73507">
        <ele>1284.1</ele>
        <time>2021-12-19T13:17:23Z</time>
      </trkpt>
      <trkpt lat="45.35018" lon="5.73511">
        <ele>1283.5</ele>
        <time>2021-12-19T13:17:24Z</time>
      </trkpt>
      <trkpt lat="45.35017" lon="5.73515">
        <ele>1282.7</ele>
        <time>2021-12-19T13:17:25Z</time>
      </trkpt>
      <trkpt lat="45.35016" lon="5.7352">
        <ele>1281.9</ele>
        <time>2021-12-19T13:17:26Z</time>
      </trkpt>
      <trkpt lat="45.35016" lon="5.73525">
        <ele>1281.1</ele>
        <time>2021-12-19T13:17:27Z</time>
      </trkpt>
      <trkpt lat="45.35015" lon="5.7353">
        <ele>1280.3</ele>
        <time>2021-12-19T13:17:28Z</time>
      </trkpt>
      <trkpt lat="45.35014" lon="5.73535">
        <ele>1279.4</ele>
        <time>2021-12-19T13:17:29Z</time>
      </trkpt>
      <trkpt lat="45.35013" lon="5.7354">
        <ele>1278.5</ele>
        <time>2021-12-19T13:17:30Z</time>
      </trkpt>
      <trkpt lat="45.35013" lon="5.73545">
        <ele>1277.7</ele>
        <time>2021-12-19T13:17:31Z</time>
      </trkpt>
      <trkpt lat="45.35012" lon="5.7355">
        <ele>1276.7</ele>
        <time>2021-12-19T13:17:32Z</time>
      </trkpt>
      <trkpt lat="45.35011" lon="5.73556">
        <ele>1275.7</ele>
        <time>2021-12-19T13:17:33Z</time>
      </trkpt>
      <trkpt lat="45.35009" lon="5.73563">
        <ele>1274.5</ele>
        <time>2021-12-19T13:17:34Z</time>
      </trkpt>
      <trkpt lat="45.35008" lon="5.7357">
        <ele>1273.4</ele>
        <time>2021-12-19T13:17:35Z</time>
      </trkpt>
      <trkpt lat="45.35006" lon="5.73576">
        <ele>1272.4</ele>
        <time>2021-12-19T13:17:36Z</time>
      </trkpt>
      <trkpt lat="45.35004" lon="5.73582">
        <ele>1271.5</ele>
        <time>2021-12-19T13:17:37Z</time>
      </trkpt>
      <trkpt lat="45.35002" lon="5.73587">
        <ele>1270.7</ele>
        <time>2021-12-19T13:17:38Z</time>
      </trkpt>
      <trkpt lat="45.34999" lon="5.73593">
        <ele>1269.9</ele>
        <time>2021-12-19T13:17:39Z</time>
      </trkpt>
      <trkpt lat="45.34995" lon="5.73599">
        <ele>1269.1</ele>
        <time>2021-12-19T13:17:40Z</time>
      </trkpt>
      <trkpt lat="45.34992" lon="5.73606">
        <ele>1268.3</ele>
        <time>2021-12-19T13:17:41Z</time>
      </trkpt>
      <trkpt lat="45.34989" lon="5.73612">
        <ele>1267.5</ele>
        <time>2021-12-19T13:17:42Z</time>
      </trkpt>
      <trkpt lat="45.34986" lon="5.73618">
        <ele>1266.7</ele>
        <time>2021-12-19T13:17:43Z</time>
      </trkpt>
      <trkpt lat="45.34982" lon="5.73624">
        <ele>1265.6</ele>
        <time>2021-12-19T13:17:44Z</time>
      </trkpt>
      <trkpt lat="45.3498" lon="5.73629">
        <ele>1264.6</ele>
        <time>2021-12-19T13:17:45Z</time>
      </trkpt>
      <trkpt lat="45.34977" lon="5.73634">
        <ele>1263.7</ele>
        <time>2021-12-19T13:17:46Z</time>
      </trkpt>
      <trkpt lat="45.34976" lon="5.73638">
        <ele>1263</ele>
        <time>2021-12-19T13:17:47Z</time>
      </trkpt>
      <trkpt lat="45.34975" lon="5.7364">
        <ele>1262.6</ele>
        <time>2021-12-19T13:17:48Z</time>
      </trkpt>
      <trkpt lat="45.34975" lon="5.73642">
        <ele>1262.4</ele>
        <time>2021-12-19T13:17:49Z</time>
      </trkpt>
      <trkpt lat="45.34974" lon="5.73642">
        <ele>1262.2</ele>
        <time>2021-12-19T13:17:50Z</time>
      </trkpt>
      <trkpt lat="45.34973" lon="5.73643">
        <ele>1262</ele>
        <time>2021-12-19T13:17:51Z</time>
      </trkpt>
      <trkpt lat="45.34973" lon="5.73642">
        <ele>1262</ele>
        <time>2021-12-19T13:17:52Z</time>
      </trkpt>
      <trkpt lat="45.34972" lon="5.73643">
        <ele>1261.7</ele>
        <time>2021-12-19T13:17:53Z</time>
      </trkpt>
      <trkpt lat="45.34971" lon="5.73644">
        <ele>1261.5</ele>
        <time>2021-12-19T13:17:54Z</time>
      </trkpt>
      <trkpt lat="45.3497" lon="5.73644">
        <ele>1261.3</ele>
        <time>2021-12-19T13:17:55Z</time>
      </trkpt>
      <trkpt lat="45.3497" lon="5.73644">
        <ele>1261.3</ele>
        <time>2021-12-19T13:17:56Z</time>
      </trkpt>
      <trkpt lat="45.3497" lon="5.73644">
        <ele>1261.3</ele>
        <time>2021-12-19T13:17:57Z</time>
      </trkpt>
      <trkpt lat="45.3497" lon="5.73644">
        <ele>1261.2</ele>
        <time>2021-12-19T13:17:58Z</time>
      </trkpt>
      <trkpt lat="45.3497" lon="5.73644">
        <ele>1261.2</ele>
        <time>2021-12-19T13:17:59Z</time>
      </trkpt>
      <trkpt lat="45.3497" lon="5.73643">
        <ele>1261.1</ele>
        <time>2021-12-19T13:18:00Z</time>
      </trkpt>
      <trkpt lat="45.34971" lon="5.73643">
        <ele>1261</ele>
        <time>2021-12-19T13:18:01Z</time>
      </trkpt>
      <trkpt lat="45.34972" lon="5.73644">
        <ele>1260.8</ele>
        <time>2021-12-19T13:18:02Z</time>
      </trkpt>
      <trkpt lat="45.34973" lon="5.73644">
        <ele>1260.6</ele>
        <time>2021-12-19T13:18:03Z</time>
      </trkpt>
      <trkpt lat="45.34974" lon="5.73644">
        <ele>1260.5</ele>
        <time>2021-12-19T13:18:04Z</time>
      </trkpt>
      <trkpt lat="45.34974" lon="5.73644">
        <ele>1260.4</ele>
        <time>2021-12-19T13:18:05Z</time>
      </trkpt>
      <trkpt lat="45.34974" lon="5.73644">
        <ele>1260.4</ele>
        <time>2021-12-19T13:18:06Z</time>
      </trkpt>
      <trkpt lat="45.34974" lon="5.73644">
        <ele>1260.3</ele>
        <time>2021-12-19T13:18:07Z</time>
      </trkpt>
      <trkpt lat="45.34974" lon="5.73644">
        <ele>1260.3</ele>
        <time>2021-12-19T13:18:08Z</time>
      </trkpt>
      <trkpt lat="45.34974" lon="5.73643">
        <ele>1260.3</ele>
        <time>2021-12-19T13:18:09Z</time>
      </trkpt>
      <trkpt lat="45.34974" lon="5.73643">
        <ele>1260.2</ele>
        <time>2021-12-19T13:18:10Z</time>
      </trkpt>
      <trkpt lat="45.34974" lon="5.73643">
        <ele>1260.1</ele>
        <time>2021-12-19T13:18:11Z</time>
      </trkpt>
      <trkpt lat="45.34973" lon="5.73643">
        <ele>1260.1</ele>
        <time>2021-12-19T13:18:12Z</time>
      </trkpt>
      <trkpt lat="45.34973" lon="5.73643">
        <ele>1260</ele>
        <time>2021-12-19T13:18:13Z</time>
      </trkpt>
      <trkpt lat="45.34973" lon="5.73642">
        <ele>1259.9</ele>
        <time>2021-12-19T13:18:14Z</time>
      </trkpt>
      <trkpt lat="45.34973" lon="5.73642">
        <ele>1259.8</ele>
        <time>2021-12-19T13:18:15Z</time>
      </trkpt>
      <trkpt lat="45.34972" lon="5.73641">
        <ele>1259.7</ele>
        <time>2021-12-19T13:18:16Z</time>
      </trkpt>
      <trkpt lat="45.34972" lon="5.7364">
        <ele>1259.5</ele>
        <time>2021-12-19T13:18:17Z</time>
      </trkpt>
      <trkpt lat="45.34971" lon="5.73639">
        <ele>1259.5</ele>
        <time>2021-12-19T13:18:18Z</time>
      </trkpt>
      <trkpt lat="45.34971" lon="5.73639">
        <ele>1259.4</ele>
        <time>2021-12-19T13:18:19Z</time>
      </trkpt>
      <trkpt lat="45.34971" lon="5.73639">
        <ele>1259.4</ele>
        <time>2021-12-19T13:18:20Z</time>
      </trkpt>
      <trkpt lat="45.34972" lon="5.73639">
        <ele>1259.3</ele>
        <time>2021-12-19T13:18:21Z</time>
      </trkpt>
      <trkpt lat="45.34971" lon="5.73639">
        <ele>1259.3</ele>
        <time>2021-12-19T13:18:22Z</time>
      </trkpt>
      <trkpt lat="45.34971" lon="5.73639">
        <ele>1259.3</ele>
        <time>2021-12-19T13:18:23Z</time>
      </trkpt>
      <trkpt lat="45.34971" lon="5.73639">
        <ele>1259.2</ele>
        <time>2021-12-19T13:18:24Z</time>
      </trkpt>
      <trkpt lat="45.34971" lon="5.73639">
        <ele>1259.2</ele>
        <time>2021-12-19T13:18:25Z</time>
      </trkpt>
      <trkpt lat="45.34971" lon="5.73639">
        <ele>1259.2</ele>
        <time>2021-12-19T13:18:26Z</time>
      </trkpt>
      <trkpt lat="45.34971" lon="5.73639">
        <ele>1259.1</ele>
        <time>2021-12-19T13:18:27Z</time>
      </trkpt>
      <trkpt lat="45.34972" lon="5.7364">
        <ele>1259</ele>
        <time>2021-12-19T13:18:28Z</time>
      </trkpt>
      <trkpt lat="45.34972" lon="5.7364">
        <ele>1258.9</ele>
        <time>2021-12-19T13:18:29Z</time>
      </trkpt>
      <trkpt lat="45.34972" lon="5.7364">
        <ele>1258.8</ele>
        <time>2021-12-19T13:18:30Z</time>
      </trkpt>
      <trkpt lat="45.34971" lon="5.73641">
        <ele>1258.7</ele>
        <time>2021-12-19T13:18:31Z</time>
      </trkpt>
      <trkpt lat="45.34971" lon="5.73641">
        <ele>1258.7</ele>
        <time>2021-12-19T13:18:32Z</time>
      </trkpt>
      <trkpt lat="45.34971" lon="5.73642">
        <ele>1258.6</ele>
        <time>2021-12-19T13:18:33Z</time>
      </trkpt>
      <trkpt lat="45.3497" lon="5.73642">
        <ele>1258.5</ele>
        <time>2021-12-19T13:18:34Z</time>
      </trkpt>
      <trkpt lat="45.3497" lon="5.73643">
        <ele>1258.4</ele>
        <time>2021-12-19T13:18:35Z</time>
      </trkpt>
      <trkpt lat="45.3497" lon="5.73643">
        <ele>1258.4</ele>
        <time>2021-12-19T13:18:36Z</time>
      </trkpt>
      <trkpt lat="45.3497" lon="5.73643">
        <ele>1258.4</ele>
        <time>2021-12-19T13:18:37Z</time>
      </trkpt>
      <trkpt lat="45.3497" lon="5.73643">
        <ele>1258.4</ele>
        <time>2021-12-19T13:18:38Z</time>
      </trkpt>
      <trkpt lat="45.3497" lon="5.73643">
        <ele>1258.4</ele>
        <time>2021-12-19T13:18:39Z</time>
      </trkpt>
      <trkpt lat="45.3497" lon="5.73643">
        <ele>1258.3</ele>
        <time>2021-12-19T13:18:40Z</time>
      </trkpt>
      <trkpt lat="45.3497" lon="5.73643">
        <ele>1258.3</ele>
        <time>2021-12-19T13:18:41Z</time>
      </trkpt>
      <trkpt lat="45.3497" lon="5.73643">
        <ele>1258.3</ele>
        <time>2021-12-19T13:18:42Z</time>
      </trkpt>
      <trkpt lat="45.3497" lon="5.73643">
        <ele>1258.2</ele>
        <time>2021-12-19T13:18:43Z</time>
      </trkpt>
      <trkpt lat="45.34971" lon="5.73644">
        <ele>1258.2</ele>
        <time>2021-12-19T13:18:44Z</time>
      </trkpt>
      <trkpt lat="45.34971" lon="5.73644">
        <ele>1258.1</ele>
        <time>2021-12-19T13:18:45Z</time>
      </trkpt>
      <trkpt lat="45.34971" lon="5.73644">
        <ele>1258.1</ele>
        <time>2021-12-19T13:18:46Z</time>
      </trkpt>
      <trkpt lat="45.34971" lon="5.73644">
        <ele>1258.1</ele>
        <time>2021-12-19T13:18:47Z</time>
      </trkpt>
      <trkpt lat="45.34971" lon="5.73645">
        <ele>1258</ele>
        <time>2021-12-19T13:18:48Z</time>
      </trkpt>
      <trkpt lat="45.34971" lon="5.73646">
        <ele>1257.8</ele>
        <time>2021-12-19T13:18:49Z</time>
      </trkpt>
      <trkpt lat="45.3497" lon="5.73648">
        <ele>1257.5</ele>
        <time>2021-12-19T13:18:50Z</time>
      </trkpt>
      <trkpt lat="45.34969" lon="5.73652">
        <ele>1257</ele>
        <time>2021-12-19T13:18:51Z</time>
      </trkpt>
      <trkpt lat="45.34968" lon="5.73656">
        <ele>1256.4</ele>
        <time>2021-12-19T13:18:52Z</time>
      </trkpt>
      <trkpt lat="45.34964" lon="5.73661">
        <ele>1255.5</ele>
        <time>2021-12-19T13:18:53Z</time>
      </trkpt>
      <trkpt lat="45.34961" lon="5.73665">
        <ele>1254.6</ele>
        <time>2021-12-19T13:18:54Z</time>
      </trkpt>
      <trkpt lat="45.34957" lon="5.7367">
        <ele>1253.4</ele>
        <time>2021-12-19T13:18:55Z</time>
      </trkpt>
      <trkpt lat="45.34954" lon="5.73675">
        <ele>1252.5</ele>
        <time>2021-12-19T13:18:56Z</time>
      </trkpt>
      <trkpt lat="45.34951" lon="5.73677">
        <ele>1251.8</ele>
        <time>2021-12-19T13:18:57Z</time>
      </trkpt>
      <trkpt lat="45.34947" lon="5.73678">
        <ele>1251.2</ele>
        <time>2021-12-19T13:18:58Z</time>
      </trkpt>
      <trkpt lat="45.34944" lon="5.73678">
        <ele>1250.5</ele>
        <time>2021-12-19T13:18:59Z</time>
      </trkpt>
      <trkpt lat="45.34939" lon="5.73679">
        <ele>1249.6</ele>
        <time>2021-12-19T13:19:00Z</time>
      </trkpt>
      <trkpt lat="45.34934" lon="5.73679">
        <ele>1248.6</ele>
        <time>2021-12-19T13:19:01Z</time>
      </trkpt>
      <trkpt lat="45.34928" lon="5.73681">
        <ele>1247.6</ele>
        <time>2021-12-19T13:19:02Z</time>
      </trkpt>
      <trkpt lat="45.34922" lon="5.73682">
        <ele>1246.4</ele>
        <time>2021-12-19T13:19:03Z</time>
      </trkpt>
      <trkpt lat="45.34915" lon="5.73683">
        <ele>1245.3</ele>
        <time>2021-12-19T13:19:04Z</time>
      </trkpt>
      <trkpt lat="45.3491" lon="5.73685">
        <ele>1244.4</ele>
        <time>2021-12-19T13:19:05Z</time>
      </trkpt>
      <trkpt lat="45.34904" lon="5.73685">
        <ele>1243.5</ele>
        <time>2021-12-19T13:19:06Z</time>
      </trkpt>
      <trkpt lat="45.34899" lon="5.73686">
        <ele>1242.9</ele>
        <time>2021-12-19T13:19:07Z</time>
      </trkpt>
      <trkpt lat="45.34895" lon="5.73686">
        <ele>1242.3</ele>
        <time>2021-12-19T13:19:08Z</time>
      </trkpt>
      <trkpt lat="45.34891" lon="5.73687">
        <ele>1241.8</ele>
        <time>2021-12-19T13:19:09Z</time>
      </trkpt>
      <trkpt lat="45.34888" lon="5.73688">
        <ele>1241.4</ele>
        <time>2021-12-19T13:19:10Z</time>
      </trkpt>
      <trkpt lat="45.34884" lon="5.7369">
        <ele>1240.8</ele>
        <time>2021-12-19T13:19:11Z</time>
      </trkpt>
      <trkpt lat="45.34879" lon="5.73692">
        <ele>1240.3</ele>
        <time>2021-12-19T13:19:12Z</time>
      </trkpt>
      <trkpt lat="45.34875" lon="5.73693">
        <ele>1239.7</ele>
        <time>2021-12-19T13:19:13Z</time>
      </trkpt>
      <trkpt lat="45.34872" lon="5.73694">
        <ele>1239.3</ele>
        <time>2021-12-19T13:19:14Z</time>
      </trkpt>
      <trkpt lat="45.3487" lon="5.73694">
        <ele>1239</ele>
        <time>2021-12-19T13:19:15Z</time>
      </trkpt>
      <trkpt lat="45.34869" lon="5.73695">
        <ele>1238.9</ele>
        <time>2021-12-19T13:19:16Z</time>
      </trkpt>
      <trkpt lat="45.34869" lon="5.73695">
        <ele>1238.8</ele>
        <time>2021-12-19T13:19:17Z</time>
      </trkpt>
      <trkpt lat="45.34869" lon="5.73695">
        <ele>1238.7</ele>
        <time>2021-12-19T13:19:18Z</time>
      </trkpt>
      <trkpt lat="45.34868" lon="5.73695">
        <ele>1238.7</ele>
        <time>2021-12-19T13:19:19Z</time>
      </trkpt>
      <trkpt lat="45.34868" lon="5.73695">
        <ele>1238.6</ele>
        <time>2021-12-19T13:19:20Z</time>
      </trkpt>
      <trkpt lat="45.34868" lon="5.73695">
        <ele>1238.5</ele>
        <time>2021-12-19T13:19:21Z</time>
      </trkpt>
      <trkpt lat="45.34867" lon="5.73696">
        <ele>1238.4</ele>
        <time>2021-12-19T13:19:22Z</time>
      </trkpt>
      <trkpt lat="45.34867" lon="5.73696">
        <ele>1238.4</ele>
        <time>2021-12-19T13:19:23Z</time>
      </trkpt>
      <trkpt lat="45.34867" lon="5.73697">
        <ele>1238.3</ele>
        <time>2021-12-19T13:19:24Z</time>
      </trkpt>
      <trkpt lat="45.34867" lon="5.73697">
        <ele>1238.3</ele>
        <time>2021-12-19T13:19:25Z</time>
      </trkpt>
      <trkpt lat="45.34866" lon="5.73697">
        <ele>1238.2</ele>
        <time>2021-12-19T13:19:26Z</time>
      </trkpt>
      <trkpt lat="45.34866" lon="5.73698">
        <ele>1238.2</ele>
        <time>2021-12-19T13:19:27Z</time>
      </trkpt>
      <trkpt lat="45.34866" lon="5.73698">
        <ele>1238.2</ele>
        <time>2021-12-19T13:19:28Z</time>
      </trkpt>
      <trkpt lat="45.34866" lon="5.73697">
        <ele>1238.1</ele>
        <time>2021-12-19T13:19:29Z</time>
      </trkpt>
      <trkpt lat="45.34866" lon="5.73697">
        <ele>1238</ele>
        <time>2021-12-19T13:19:30Z</time>
      </trkpt>
      <trkpt lat="45.34865" lon="5.73697">
        <ele>1238</ele>
        <time>2021-12-19T13:19:31Z</time>
      </trkpt>
      <trkpt lat="45.34865" lon="5.73697">
        <ele>1237.9</ele>
        <time>2021-12-19T13:19:32Z</time>
      </trkpt>
      <trkpt lat="45.34865" lon="5.73696">
        <ele>1237.9</ele>
        <time>2021-12-19T13:19:33Z</time>
      </trkpt>
      <trkpt lat="45.34865" lon="5.73696">
        <ele>1237.8</ele>
        <time>2021-12-19T13:19:34Z</time>
      </trkpt>
      <trkpt lat="45.34864" lon="5.73697">
        <ele>1237.7</ele>
        <time>2021-12-19T13:19:35Z</time>
      </trkpt>
      <trkpt lat="45.34863" lon="5.73698">
        <ele>1237.4</ele>
        <time>2021-12-19T13:19:36Z</time>
      </trkpt>
      <trkpt lat="45.34863" lon="5.737">
        <ele>1237.2</ele>
        <time>2021-12-19T13:19:37Z</time>
      </trkpt>
      <trkpt lat="45.34861" lon="5.737">
        <ele>1237</ele>
        <time>2021-12-19T13:19:38Z</time>
      </trkpt>
      <trkpt lat="45.3486" lon="5.73701">
        <ele>1236.7</ele>
        <time>2021-12-19T13:19:39Z</time>
      </trkpt>
      <trkpt lat="45.34859" lon="5.73701">
        <ele>1236.6</ele>
        <time>2021-12-19T13:19:40Z</time>
      </trkpt>
      <trkpt lat="45.34859" lon="5.73701">
        <ele>1236.5</ele>
        <time>2021-12-19T13:19:41Z</time>
      </trkpt>
      <trkpt lat="45.34858" lon="5.73701">
        <ele>1236.4</ele>
        <time>2021-12-19T13:19:42Z</time>
      </trkpt>
      <trkpt lat="45.34858" lon="5.73701">
        <ele>1236.3</ele>
        <time>2021-12-19T13:19:43Z</time>
      </trkpt>
      <trkpt lat="45.34857" lon="5.73702">
        <ele>1236.1</ele>
        <time>2021-12-19T13:19:44Z</time>
      </trkpt>
      <trkpt lat="45.34856" lon="5.73702">
        <ele>1236</ele>
        <time>2021-12-19T13:19:45Z</time>
      </trkpt>
      <trkpt lat="45.34855" lon="5.73702">
        <ele>1235.8</ele>
        <time>2021-12-19T13:19:46Z</time>
      </trkpt>
      <trkpt lat="45.34855" lon="5.73703">
        <ele>1235.7</ele>
        <time>2021-12-19T13:19:47Z</time>
      </trkpt>
      <trkpt lat="45.34854" lon="5.73703">
        <ele>1235.6</ele>
        <time>2021-12-19T13:19:48Z</time>
      </trkpt>
      <trkpt lat="45.34854" lon="5.73703">
        <ele>1235.5</ele>
        <time>2021-12-19T13:19:49Z</time>
      </trkpt>
      <trkpt lat="45.34854" lon="5.73703">
        <ele>1235.5</ele>
        <time>2021-12-19T13:19:50Z</time>
      </trkpt>
      <trkpt lat="45.34854" lon="5.73704">
        <ele>1235.4</ele>
        <time>2021-12-19T13:19:51Z</time>
      </trkpt>
      <trkpt lat="45.34854" lon="5.73704">
        <ele>1235.4</ele>
        <time>2021-12-19T13:19:52Z</time>
      </trkpt>
      <trkpt lat="45.34854" lon="5.73704">
        <ele>1235.3</ele>
        <time>2021-12-19T13:19:53Z</time>
      </trkpt>
      <trkpt lat="45.34854" lon="5.73704">
        <ele>1235.3</ele>
        <time>2021-12-19T13:19:54Z</time>
      </trkpt>
      <trkpt lat="45.34854" lon="5.73704">
        <ele>1235.2</ele>
        <time>2021-12-19T13:19:55Z</time>
      </trkpt>
      <trkpt lat="45.34854" lon="5.73704">
        <ele>1235.2</ele>
        <time>2021-12-19T13:19:56Z</time>
      </trkpt>
      <trkpt lat="45.34854" lon="5.73704">
        <ele>1235.1</ele>
        <time>2021-12-19T13:19:57Z</time>
      </trkpt>
      <trkpt lat="45.34853" lon="5.73704">
        <ele>1235</ele>
        <time>2021-12-19T13:19:58Z</time>
      </trkpt>
      <trkpt lat="45.34853" lon="5.73704">
        <ele>1235</ele>
        <time>2021-12-19T13:19:59Z</time>
      </trkpt>
      <trkpt lat="45.34853" lon="5.73704">
        <ele>1235</ele>
        <time>2021-12-19T13:20:00Z</time>
      </trkpt>
      <trkpt lat="45.34852" lon="5.73704">
        <ele>1234.9</ele>
        <time>2021-12-19T13:20:01Z</time>
      </trkpt>
      <trkpt lat="45.34852" lon="5.73704">
        <ele>1234.9</ele>
        <time>2021-12-19T13:20:02Z</time>
      </trkpt>
      <trkpt lat="45.34852" lon="5.73703">
        <ele>1234.8</ele>
        <time>2021-12-19T13:20:03Z</time>
      </trkpt>
      <trkpt lat="45.34852" lon="5.73703">
        <ele>1234.8</ele>
        <time>2021-12-19T13:20:04Z</time>
      </trkpt>
      <trkpt lat="45.34852" lon="5.73703">
        <ele>1234.7</ele>
        <time>2021-12-19T13:20:05Z</time>
      </trkpt>
      <trkpt lat="45.34853" lon="5.73703">
        <ele>1234.6</ele>
        <time>2021-12-19T13:20:06Z</time>
      </trkpt>
      <trkpt lat="45.34853" lon="5.73701">
        <ele>1234.4</ele>
        <time>2021-12-19T13:20:07Z</time>
      </trkpt>
      <trkpt lat="45.34853" lon="5.737">
        <ele>1234.3</ele>
        <time>2021-12-19T13:20:08Z</time>
      </trkpt>
      <trkpt lat="45.34853" lon="5.73699">
        <ele>1234.2</ele>
        <time>2021-12-19T13:20:09Z</time>
      </trkpt>
      <trkpt lat="45.34854" lon="5.73699">
        <ele>1234</ele>
        <time>2021-12-19T13:20:10Z</time>
      </trkpt>
      <trkpt lat="45.34853" lon="5.73698">
        <ele>1234</ele>
        <time>2021-12-19T13:20:11Z</time>
      </trkpt>
      <trkpt lat="45.34853" lon="5.73698">
        <ele>1233.9</ele>
        <time>2021-12-19T13:20:12Z</time>
      </trkpt>
      <trkpt lat="45.34853" lon="5.73698">
        <ele>1233.9</ele>
        <time>2021-12-19T13:20:13Z</time>
      </trkpt>
      <trkpt lat="45.34853" lon="5.73697">
        <ele>1233.8</ele>
        <time>2021-12-19T13:20:14Z</time>
      </trkpt>
      <trkpt lat="45.34853" lon="5.73697">
        <ele>1233.8</ele>
        <time>2021-12-19T13:20:15Z</time>
      </trkpt>
      <trkpt lat="45.34854" lon="5.73697">
        <ele>1233.7</ele>
        <time>2021-12-19T13:20:16Z</time>
      </trkpt>
      <trkpt lat="45.34853" lon="5.73697">
        <ele>1233.6</ele>
        <time>2021-12-19T13:20:17Z</time>
      </trkpt>
      <trkpt lat="45.34853" lon="5.73697">
        <ele>1233.6</ele>
        <time>2021-12-19T13:20:18Z</time>
      </trkpt>
      <trkpt lat="45.34853" lon="5.73697">
        <ele>1233.5</ele>
        <time>2021-12-19T13:20:19Z</time>
      </trkpt>
      <trkpt lat="45.34852" lon="5.73698">
        <ele>1233.4</ele>
        <time>2021-12-19T13:20:20Z</time>
      </trkpt>
      <trkpt lat="45.34852" lon="5.73698">
        <ele>1233.3</ele>
        <time>2021-12-19T13:20:21Z</time>
      </trkpt>
      <trkpt lat="45.34852" lon="5.73699">
        <ele>1233.2</ele>
        <time>2021-12-19T13:20:22Z</time>
      </trkpt>
      <trkpt lat="45.34852" lon="5.73699">
        <ele>1233.2</ele>
        <time>2021-12-19T13:20:23Z</time>
      </trkpt>
      <trkpt lat="45.34852" lon="5.737">
        <ele>1233.1</ele>
        <time>2021-12-19T13:20:24Z</time>
      </trkpt>
      <trkpt lat="45.34851" lon="5.73701">
        <ele>1232.9</ele>
        <time>2021-12-19T13:20:25Z</time>
      </trkpt>
      <trkpt lat="45.34851" lon="5.73702">
        <ele>1232.8</ele>
        <time>2021-12-19T13:20:26Z</time>
      </trkpt>
      <trkpt lat="45.3485" lon="5.73702">
        <ele>1232.7</ele>
        <time>2021-12-19T13:20:27Z</time>
      </trkpt>
      <trkpt lat="45.3485" lon="5.73702">
        <ele>1232.7</ele>
        <time>2021-12-19T13:20:28Z</time>
      </trkpt>
      <trkpt lat="45.3485" lon="5.73702">
        <ele>1232.6</ele>
        <time>2021-12-19T13:20:29Z</time>
      </trkpt>
      <trkpt lat="45.3485" lon="5.73702">
        <ele>1232.5</ele>
        <time>2021-12-19T13:20:30Z</time>
      </trkpt>
      <trkpt lat="45.34851" lon="5.73702">
        <ele>1232.5</ele>
        <time>2021-12-19T13:20:31Z</time>
      </trkpt>
      <trkpt lat="45.3485" lon="5.73702">
        <ele>1232.4</ele>
        <time>2021-12-19T13:20:32Z</time>
      </trkpt>
      <trkpt lat="45.3485" lon="5.73702">
        <ele>1232.4</ele>
        <time>2021-12-19T13:20:33Z</time>
      </trkpt>
      <trkpt lat="45.34851" lon="5.73703">
        <ele>1232.4</ele>
        <time>2021-12-19T13:20:34Z</time>
      </trkpt>
      <trkpt lat="45.34851" lon="5.73702">
        <ele>1232.3</ele>
        <time>2021-12-19T13:20:35Z</time>
      </trkpt>
      <trkpt lat="45.34851" lon="5.73703">
        <ele>1232.3</ele>
        <time>2021-12-19T13:20:36Z</time>
      </trkpt>
      <trkpt lat="45.3485" lon="5.73703">
        <ele>1232.2</ele>
        <time>2021-12-19T13:20:37Z</time>
      </trkpt>
      <trkpt lat="45.3485" lon="5.73703">
        <ele>1232.2</ele>
        <time>2021-12-19T13:20:38Z</time>
      </trkpt>
      <trkpt lat="45.3485" lon="5.73704">
        <ele>1232.1</ele>
        <time>2021-12-19T13:20:39Z</time>
      </trkpt>
      <trkpt lat="45.3485" lon="5.73704">
        <ele>1232.1</ele>
        <time>2021-12-19T13:20:40Z</time>
      </trkpt>
      <trkpt lat="45.3485" lon="5.73704">
        <ele>1232</ele>
        <time>2021-12-19T13:20:41Z</time>
      </trkpt>
      <trkpt lat="45.34849" lon="5.73705">
        <ele>1231.9</ele>
        <time>2021-12-19T13:20:42Z</time>
      </trkpt>
      <trkpt lat="45.3485" lon="5.73705">
        <ele>1231.9</ele>
        <time>2021-12-19T13:20:43Z</time>
      </trkpt>
      <trkpt lat="45.3485" lon="5.73706">
        <ele>1231.8</ele>
        <time>2021-12-19T13:20:44Z</time>
      </trkpt>
      <trkpt lat="45.3485" lon="5.73706">
        <ele>1231.7</ele>
        <time>2021-12-19T13:20:45Z</time>
      </trkpt>
      <trkpt lat="45.3485" lon="5.73706">
        <ele>1231.7</ele>
        <time>2021-12-19T13:20:46Z</time>
      </trkpt>
      <trkpt lat="45.3485" lon="5.73706">
        <ele>1231.7</ele>
        <time>2021-12-19T13:20:47Z</time>
      </trkpt>
      <trkpt lat="45.3485" lon="5.73706">
        <ele>1231.7</ele>
        <time>2021-12-19T13:20:48Z</time>
      </trkpt>
      <trkpt lat="45.34849" lon="5.73706">
        <ele>1231.6</ele>
        <time>2021-12-19T13:20:49Z</time>
      </trkpt>
      <trkpt lat="45.34849" lon="5.73706">
        <ele>1231.5</ele>
        <time>2021-12-19T13:20:50Z</time>
      </trkpt>
      <trkpt lat="45.34849" lon="5.73706">
        <ele>1231.5</ele>
        <time>2021-12-19T13:20:51Z</time>
      </trkpt>
      <trkpt lat="45.34849" lon="5.73705">
        <ele>1231.5</ele>
        <time>2021-12-19T13:20:52Z</time>
      </trkpt>
      <trkpt lat="45.34849" lon="5.73705">
        <ele>1231.4</ele>
        <time>2021-12-19T13:20:53Z</time>
      </trkpt>
      <trkpt lat="45.34848" lon="5.73705">
        <ele>1231.3</ele>
        <time>2021-12-19T13:20:54Z</time>
      </trkpt>
      <trkpt lat="45.34848" lon="5.73706">
        <ele>1231.3</ele>
        <time>2021-12-19T13:20:55Z</time>
      </trkpt>
      <trkpt lat="45.34848" lon="5.73706">
        <ele>1231.3</ele>
        <time>2021-12-19T13:20:56Z</time>
      </trkpt>
      <trkpt lat="45.34848" lon="5.73706">
        <ele>1231.2</ele>
        <time>2021-12-19T13:20:57Z</time>
      </trkpt>
      <trkpt lat="45.34848" lon="5.73706">
        <ele>1231.2</ele>
        <time>2021-12-19T13:20:58Z</time>
      </trkpt>
      <trkpt lat="45.34848" lon="5.73706">
        <ele>1231.1</ele>
        <time>2021-12-19T13:20:59Z</time>
      </trkpt>
      <trkpt lat="45.34848" lon="5.73706">
        <ele>1231.1</ele>
        <time>2021-12-19T13:21:00Z</time>
      </trkpt>
      <trkpt lat="45.34848" lon="5.73706">
        <ele>1231.1</ele>
        <time>2021-12-19T13:21:01Z</time>
      </trkpt>
      <trkpt lat="45.34848" lon="5.73706">
        <ele>1231</ele>
        <time>2021-12-19T13:21:02Z</time>
      </trkpt>
      <trkpt lat="45.34848" lon="5.73706">
        <ele>1231</ele>
        <time>2021-12-19T13:21:03Z</time>
      </trkpt>
      <trkpt lat="45.34848" lon="5.73706">
        <ele>1230.9</ele>
        <time>2021-12-19T13:21:04Z</time>
      </trkpt>
      <trkpt lat="45.34848" lon="5.73707">
        <ele>1230.9</ele>
        <time>2021-12-19T13:21:05Z</time>
      </trkpt>
      <trkpt lat="45.34848" lon="5.73707">
        <ele>1230.9</ele>
        <time>2021-12-19T13:21:06Z</time>
      </trkpt>
      <trkpt lat="45.34848" lon="5.73707">
        <ele>1230.8</ele>
        <time>2021-12-19T13:21:07Z</time>
      </trkpt>
      <trkpt lat="45.34848" lon="5.73707">
        <ele>1230.8</ele>
        <time>2021-12-19T13:21:08Z</time>
      </trkpt>
      <trkpt lat="45.34849" lon="5.73708">
        <ele>1230.7</ele>
        <time>2021-12-19T13:21:09Z</time>
      </trkpt>
      <trkpt lat="45.34849" lon="5.73708">
        <ele>1230.5</ele>
        <time>2021-12-19T13:21:10Z</time>
      </trkpt>
      <trkpt lat="45.34849" lon="5.73709">
        <ele>1230.5</ele>
        <time>2021-12-19T13:21:11Z</time>
      </trkpt>
      <trkpt lat="45.3485" lon="5.73709">
        <ele>1230.3</ele>
        <time>2021-12-19T13:21:12Z</time>
      </trkpt>
      <trkpt lat="45.34851" lon="5.7371">
        <ele>1230.2</ele>
        <time>2021-12-19T13:21:13Z</time>
      </trkpt>
      <trkpt lat="45.34851" lon="5.7371">
        <ele>1230.1</ele>
        <time>2021-12-19T13:21:14Z</time>
      </trkpt>
      <trkpt lat="45.34852" lon="5.7371">
        <ele>1229.9</ele>
        <time>2021-12-19T13:21:15Z</time>
      </trkpt>
      <trkpt lat="45.34853" lon="5.73711">
        <ele>1229.8</ele>
        <time>2021-12-19T13:21:16Z</time>
      </trkpt>
      <trkpt lat="45.34854" lon="5.73711">
        <ele>1229.7</ele>
        <time>2021-12-19T13:21:17Z</time>
      </trkpt>
      <trkpt lat="45.34854" lon="5.73711">
        <ele>1229.6</ele>
        <time>2021-12-19T13:21:18Z</time>
      </trkpt>
      <trkpt lat="45.34854" lon="5.73712">
        <ele>1229.5</ele>
        <time>2021-12-19T13:21:19Z</time>
      </trkpt>
      <trkpt lat="45.34855" lon="5.73712">
        <ele>1229.4</ele>
        <time>2021-12-19T13:21:20Z</time>
      </trkpt>
      <trkpt lat="45.34855" lon="5.73713">
        <ele>1229.3</ele>
        <time>2021-12-19T13:21:21Z</time>
      </trkpt>
      <trkpt lat="45.34855" lon="5.73713">
        <ele>1229.3</ele>
        <time>2021-12-19T13:21:22Z</time>
      </trkpt>
      <trkpt lat="45.34854" lon="5.73714">
        <ele>1229.1</ele>
        <time>2021-12-19T13:21:23Z</time>
      </trkpt>
      <trkpt lat="45.34853" lon="5.73716">
        <ele>1228.8</ele>
        <time>2021-12-19T13:21:24Z</time>
      </trkpt>
      <trkpt lat="45.34852" lon="5.73718">
        <ele>1228.5</ele>
        <time>2021-12-19T13:21:25Z</time>
      </trkpt>
      <trkpt lat="45.34851" lon="5.7372">
        <ele>1228.1</ele>
        <time>2021-12-19T13:21:26Z</time>
      </trkpt>
      <trkpt lat="45.34849" lon="5.73723">
        <ele>1227.7</ele>
        <time>2021-12-19T13:21:27Z</time>
      </trkpt>
      <trkpt lat="45.34848" lon="5.73726">
        <ele>1227.3</ele>
        <time>2021-12-19T13:21:28Z</time>
      </trkpt>
      <trkpt lat="45.34847" lon="5.73728">
        <ele>1226.9</ele>
        <time>2021-12-19T13:21:29Z</time>
      </trkpt>
      <trkpt lat="45.34845" lon="5.73731">
        <ele>1226.5</ele>
        <time>2021-12-19T13:21:30Z</time>
      </trkpt>
      <trkpt lat="45.34843" lon="5.73734">
        <ele>1225.9</ele>
        <time>2021-12-19T13:21:31Z</time>
      </trkpt>
      <trkpt lat="45.34841" lon="5.73738">
        <ele>1225.4</ele>
        <time>2021-12-19T13:21:32Z</time>
      </trkpt>
      <trkpt lat="45.34839" lon="5.73743">
        <ele>1224.6</ele>
        <time>2021-12-19T13:21:33Z</time>
      </trkpt>
      <trkpt lat="45.34837" lon="5.73748">
        <ele>1223.9</ele>
        <time>2021-12-19T13:21:34Z</time>
      </trkpt>
      <trkpt lat="45.34835" lon="5.73752">
        <ele>1223.2</ele>
        <time>2021-12-19T13:21:35Z</time>
      </trkpt>
      <trkpt lat="45.34834" lon="5.73756">
        <ele>1222.5</ele>
        <time>2021-12-19T13:21:36Z</time>
      </trkpt>
      <trkpt lat="45.34832" lon="5.73758">
        <ele>1222.2</ele>
        <time>2021-12-19T13:21:37Z</time>
      </trkpt>
      <trkpt lat="45.34832" lon="5.73759">
        <ele>1222</ele>
        <time>2021-12-19T13:21:38Z</time>
      </trkpt>
      <trkpt lat="45.34832" lon="5.73759">
        <ele>1222</ele>
        <time>2021-12-19T13:21:39Z</time>
      </trkpt>
      <trkpt lat="45.34831" lon="5.73758">
        <ele>1221.9</ele>
        <time>2021-12-19T13:21:40Z</time>
      </trkpt>
      <trkpt lat="45.34831" lon="5.73758">
        <ele>1221.8</ele>
        <time>2021-12-19T13:21:41Z</time>
      </trkpt>
      <trkpt lat="45.34831" lon="5.73758">
        <ele>1221.7</ele>
        <time>2021-12-19T13:21:42Z</time>
      </trkpt>
      <trkpt lat="45.3483" lon="5.73757">
        <ele>1221.6</ele>
        <time>2021-12-19T13:21:43Z</time>
      </trkpt>
      <trkpt lat="45.3483" lon="5.73757">
        <ele>1221.5</ele>
        <time>2021-12-19T13:21:44Z</time>
      </trkpt>
      <trkpt lat="45.3483" lon="5.73757">
        <ele>1221.5</ele>
        <time>2021-12-19T13:21:45Z</time>
      </trkpt>
      <trkpt lat="45.3483" lon="5.73757">
        <ele>1221.5</ele>
        <time>2021-12-19T13:21:46Z</time>
      </trkpt>
      <trkpt lat="45.3483" lon="5.73757">
        <ele>1221.5</ele>
        <time>2021-12-19T13:21:47Z</time>
      </trkpt>
      <trkpt lat="45.3483" lon="5.73757">
        <ele>1221.5</ele>
        <time>2021-12-19T13:21:48Z</time>
      </trkpt>
      <trkpt lat="45.3483" lon="5.73758">
        <ele>1221.3</ele>
        <time>2021-12-19T13:21:49Z</time>
      </trkpt>
      <trkpt lat="45.34828" lon="5.7376">
        <ele>1220.9</ele>
        <time>2021-12-19T13:21:50Z</time>
      </trkpt>
      <trkpt lat="45.34827" lon="5.73763">
        <ele>1220.4</ele>
        <time>2021-12-19T13:21:51Z</time>
      </trkpt>
      <trkpt lat="45.34825" lon="5.73765">
        <ele>1219.9</ele>
        <time>2021-12-19T13:21:52Z</time>
      </trkpt>
      <trkpt lat="45.34823" lon="5.73769">
        <ele>1219.3</ele>
        <time>2021-12-19T13:21:53Z</time>
      </trkpt>
      <trkpt lat="45.3482" lon="5.73771">
        <ele>1218.6</ele>
        <time>2021-12-19T13:21:54Z</time>
      </trkpt>
      <trkpt lat="45.34817" lon="5.73774">
        <ele>1217.9</ele>
        <time>2021-12-19T13:21:55Z</time>
      </trkpt>
      <trkpt lat="45.34814" lon="5.73776">
        <ele>1217.2</ele>
        <time>2021-12-19T13:21:56Z</time>
      </trkpt>
      <trkpt lat="45.34812" lon="5.73777">
        <ele>1216.8</ele>
        <time>2021-12-19T13:21:57Z</time>
      </trkpt>
      <trkpt lat="45.34809" lon="5.73779">
        <ele>1216.3</ele>
        <time>2021-12-19T13:21:58Z</time>
      </trkpt>
      <trkpt lat="45.34807" lon="5.7378">
        <ele>1215.8</ele>
        <time>2021-12-19T13:21:59Z</time>
      </trkpt>
      <trkpt lat="45.34805" lon="5.73782">
        <ele>1215.3</ele>
        <time>2021-12-19T13:22:00Z</time>
      </trkpt>
      <trkpt lat="45.34802" lon="5.73784">
        <ele>1214.8</ele>
        <time>2021-12-19T13:22:01Z</time>
      </trkpt>
      <trkpt lat="45.348" lon="5.73787">
        <ele>1214.3</ele>
        <time>2021-12-19T13:22:02Z</time>
      </trkpt>
      <trkpt lat="45.34798" lon="5.73789">
        <ele>1213.7</ele>
        <time>2021-12-19T13:22:03Z</time>
      </trkpt>
      <trkpt lat="45.34796" lon="5.73792">
        <ele>1213.2</ele>
        <time>2021-12-19T13:22:04Z</time>
      </trkpt>
      <trkpt lat="45.34794" lon="5.73795">
        <ele>1212.6</ele>
        <time>2021-12-19T13:22:05Z</time>
      </trkpt>
      <trkpt lat="45.34792" lon="5.73797">
        <ele>1212</ele>
        <time>2021-12-19T13:22:06Z</time>
      </trkpt>
      <trkpt lat="45.3479" lon="5.738">
        <ele>1211.3</ele>
        <time>2021-12-19T13:22:07Z</time>
      </trkpt>
      <trkpt lat="45.34786" lon="5.73804">
        <ele>1210.4</ele>
        <time>2021-12-19T13:22:08Z</time>
      </trkpt>
      <trkpt lat="45.34783" lon="5.73806">
        <ele>1209.7</ele>
        <time>2021-12-19T13:22:09Z</time>
      </trkpt>
      <trkpt lat="45.3478" lon="5.73808">
        <ele>1209</ele>
        <time>2021-12-19T13:22:10Z</time>
      </trkpt>
      <trkpt lat="45.34778" lon="5.73811">
        <ele>1208.2</ele>
        <time>2021-12-19T13:22:11Z</time>
      </trkpt>
      <trkpt lat="45.34775" lon="5.73814">
        <ele>1207.5</ele>
        <time>2021-12-19T13:22:12Z</time>
      </trkpt>
      <trkpt lat="45.34772" lon="5.73817">
        <ele>1206.6</ele>
        <time>2021-12-19T13:22:13Z</time>
      </trkpt>
      <trkpt lat="45.34769" lon="5.73821">
        <ele>1205.8</ele>
        <time>2021-12-19T13:22:14Z</time>
      </trkpt>
      <trkpt lat="45.34767" lon="5.73823">
        <ele>1205.1</ele>
        <time>2021-12-19T13:22:15Z</time>
      </trkpt>
      <trkpt lat="45.34765" lon="5.73825">
        <ele>1204.6</ele>
        <time>2021-12-19T13:22:16Z</time>
      </trkpt>
      <trkpt lat="45.34764" lon="5.73829">
        <ele>1204</ele>
        <time>2021-12-19T13:22:17Z</time>
      </trkpt>
      <trkpt lat="45.34763" lon="5.73833">
        <ele>1203.3</ele>
        <time>2021-12-19T13:22:18Z</time>
      </trkpt>
      <trkpt lat="45.34764" lon="5.7384">
        <ele>1202.2</ele>
        <time>2021-12-19T13:22:19Z</time>
      </trkpt>
      <trkpt lat="45.34763" lon="5.73847">
        <ele>1201</ele>
        <time>2021-12-19T13:22:20Z</time>
      </trkpt>
      <trkpt lat="45.34761" lon="5.73853">
        <ele>1199.8</ele>
        <time>2021-12-19T13:22:21Z</time>
      </trkpt>
      <trkpt lat="45.34759" lon="5.73859">
        <ele>1199</ele>
        <time>2021-12-19T13:22:22Z</time>
      </trkpt>
      <trkpt lat="45.34757" lon="5.73864">
        <ele>1198.3</ele>
        <time>2021-12-19T13:22:23Z</time>
      </trkpt>
      <trkpt lat="45.34755" lon="5.73868">
        <ele>1197.5</ele>
        <time>2021-12-19T13:22:24Z</time>
      </trkpt>
      <trkpt lat="45.34752" lon="5.73874">
        <ele>1196.7</ele>
        <time>2021-12-19T13:22:25Z</time>
      </trkpt>
      <trkpt lat="45.3475" lon="5.73881">
        <ele>1195.8</ele>
        <time>2021-12-19T13:22:26Z</time>
      </trkpt>
      <trkpt lat="45.34748" lon="5.73888">
        <ele>1194.7</ele>
        <time>2021-12-19T13:22:27Z</time>
      </trkpt>
      <trkpt lat="45.34745" lon="5.73893">
        <ele>1193.9</ele>
        <time>2021-12-19T13:22:28Z</time>
      </trkpt>
      <trkpt lat="45.34742" lon="5.73897">
        <ele>1193.2</ele>
        <time>2021-12-19T13:22:29Z</time>
      </trkpt>
      <trkpt lat="45.3474" lon="5.739">
        <ele>1192.6</ele>
        <time>2021-12-19T13:22:30Z</time>
      </trkpt>
      <trkpt lat="45.34737" lon="5.73903">
        <ele>1192.1</ele>
        <time>2021-12-19T13:22:31Z</time>
      </trkpt>
      <trkpt lat="45.34736" lon="5.73905">
        <ele>1191.7</ele>
        <time>2021-12-19T13:22:32Z</time>
      </trkpt>
      <trkpt lat="45.34735" lon="5.73908">
        <ele>1191.3</ele>
        <time>2021-12-19T13:22:33Z</time>
      </trkpt>
      <trkpt lat="45.34735" lon="5.73909">
        <ele>1191.1</ele>
        <time>2021-12-19T13:22:34Z</time>
      </trkpt>
      <trkpt lat="45.34735" lon="5.73911">
        <ele>1190.9</ele>
        <time>2021-12-19T13:22:35Z</time>
      </trkpt>
      <trkpt lat="45.34735" lon="5.73911">
        <ele>1190.8</ele>
        <time>2021-12-19T13:22:36Z</time>
      </trkpt>
      <trkpt lat="45.34734" lon="5.73912">
        <ele>1190.6</ele>
        <time>2021-12-19T13:22:37Z</time>
      </trkpt>
      <trkpt lat="45.34733" lon="5.73912">
        <ele>1190.4</ele>
        <time>2021-12-19T13:22:38Z</time>
      </trkpt>
      <trkpt lat="45.34732" lon="5.73913">
        <ele>1190.3</ele>
        <time>2021-12-19T13:22:39Z</time>
      </trkpt>
      <trkpt lat="45.34732" lon="5.73914">
        <ele>1190.2</ele>
        <time>2021-12-19T13:22:40Z</time>
      </trkpt>
      <trkpt lat="45.34731" lon="5.73914">
        <ele>1190</ele>
        <time>2021-12-19T13:22:41Z</time>
      </trkpt>
      <trkpt lat="45.34731" lon="5.73916">
        <ele>1189.9</ele>
        <time>2021-12-19T13:22:42Z</time>
      </trkpt>
      <trkpt lat="45.34732" lon="5.73916">
        <ele>1189.7</ele>
        <time>2021-12-19T13:22:43Z</time>
      </trkpt>
      <trkpt lat="45.34732" lon="5.73918">
        <ele>1189.5</ele>
        <time>2021-12-19T13:22:44Z</time>
      </trkpt>
      <trkpt lat="45.34733" lon="5.73918">
        <ele>1189.3</ele>
        <time>2021-12-19T13:22:45Z</time>
      </trkpt>
      <trkpt lat="45.34734" lon="5.73919">
        <ele>1189.2</ele>
        <time>2021-12-19T13:22:46Z</time>
      </trkpt>
      <trkpt lat="45.34734" lon="5.73919">
        <ele>1189.1</ele>
        <time>2021-12-19T13:22:47Z</time>
      </trkpt>
      <trkpt lat="45.34735" lon="5.73919">
        <ele>1189</ele>
        <time>2021-12-19T13:22:48Z</time>
      </trkpt>
      <trkpt lat="45.34736" lon="5.73919">
        <ele>1188.9</ele>
        <time>2021-12-19T13:22:49Z</time>
      </trkpt>
      <trkpt lat="45.34736" lon="5.73919">
        <ele>1188.8</ele>
        <time>2021-12-19T13:22:50Z</time>
      </trkpt>
      <trkpt lat="45.34737" lon="5.7392">
        <ele>1188.6</ele>
        <time>2021-12-19T13:22:51Z</time>
      </trkpt>
      <trkpt lat="45.34738" lon="5.7392">
        <ele>1188.5</ele>
        <time>2021-12-19T13:22:52Z</time>
      </trkpt>
      <trkpt lat="45.34738" lon="5.73921">
        <ele>1188.4</ele>
        <time>2021-12-19T13:22:53Z</time>
      </trkpt>
      <trkpt lat="45.34738" lon="5.73921">
        <ele>1188.3</ele>
        <time>2021-12-19T13:22:54Z</time>
      </trkpt>
      <trkpt lat="45.34738" lon="5.73922">
        <ele>1188.2</ele>
        <time>2021-12-19T13:22:55Z</time>
      </trkpt>
      <trkpt lat="45.34738" lon="5.73922">
        <ele>1188.2</ele>
        <time>2021-12-19T13:22:56Z</time>
      </trkpt>
      <trkpt lat="45.34738" lon="5.73923">
        <ele>1188.1</ele>
        <time>2021-12-19T13:22:57Z</time>
      </trkpt>
      <trkpt lat="45.34738" lon="5.73923">
        <ele>1188.1</ele>
        <time>2021-12-19T13:22:58Z</time>
      </trkpt>
      <trkpt lat="45.34737" lon="5.73923">
        <ele>1188</ele>
        <time>2021-12-19T13:22:59Z</time>
      </trkpt>
      <trkpt lat="45.34737" lon="5.73922">
        <ele>1188</ele>
        <time>2021-12-19T13:23:00Z</time>
      </trkpt>
      <trkpt lat="45.34737" lon="5.73922">
        <ele>1187.9</ele>
        <time>2021-12-19T13:23:01Z</time>
      </trkpt>
      <trkpt lat="45.34737" lon="5.73922">
        <ele>1187.8</ele>
        <time>2021-12-19T13:23:02Z</time>
      </trkpt>
      <trkpt lat="45.34737" lon="5.73922">
        <ele>1187.8</ele>
        <time>2021-12-19T13:23:03Z</time>
      </trkpt>
      <trkpt lat="45.34737" lon="5.73922">
        <ele>1187.8</ele>
        <time>2021-12-19T13:23:04Z</time>
      </trkpt>
      <trkpt lat="45.34737" lon="5.73922">
        <ele>1187.8</ele>
        <time>2021-12-19T13:23:05Z</time>
      </trkpt>
      <trkpt lat="45.34737" lon="5.73922">
        <ele>1187.7</ele>
        <time>2021-12-19T13:23:06Z</time>
      </trkpt>
      <trkpt lat="45.34737" lon="5.73922">
        <ele>1187.7</ele>
        <time>2021-12-19T13:23:07Z</time>
      </trkpt>
      <trkpt lat="45.34737" lon="5.73923">
        <ele>1187.6</ele>
        <time>2021-12-19T13:23:08Z</time>
      </trkpt>
      <trkpt lat="45.34737" lon="5.73923">
        <ele>1187.6</ele>
        <time>2021-12-19T13:23:09Z</time>
      </trkpt>
      <trkpt lat="45.34737" lon="5.73923">
        <ele>1187.5</ele>
        <time>2021-12-19T13:23:10Z</time>
      </trkpt>
      <trkpt lat="45.34737" lon="5.73923">
        <ele>1187.5</ele>
        <time>2021-12-19T13:23:11Z</time>
      </trkpt>
      <trkpt lat="45.34738" lon="5.73923">
        <ele>1187.5</ele>
        <time>2021-12-19T13:23:12Z</time>
      </trkpt>
      <trkpt lat="45.34738" lon="5.73924">
        <ele>1187.4</ele>
        <time>2021-12-19T13:23:13Z</time>
      </trkpt>
      <trkpt lat="45.34738" lon="5.73924">
        <ele>1187.3</ele>
        <time>2021-12-19T13:23:14Z</time>
      </trkpt>
      <trkpt lat="45.34738" lon="5.73925">
        <ele>1187.2</ele>
        <time>2021-12-19T13:23:15Z</time>
      </trkpt>
      <trkpt lat="45.34737" lon="5.73925">
        <ele>1187.2</ele>
        <time>2021-12-19T13:23:16Z</time>
      </trkpt>
      <trkpt lat="45.34737" lon="5.73925">
        <ele>1187.1</ele>
        <time>2021-12-19T13:23:17Z</time>
      </trkpt>
      <trkpt lat="45.34737" lon="5.73924">
        <ele>1187</ele>
        <time>2021-12-19T13:23:18Z</time>
      </trkpt>
      <trkpt lat="45.34737" lon="5.73924">
        <ele>1187</ele>
        <time>2021-12-19T13:23:19Z</time>
      </trkpt>
      <trkpt lat="45.34737" lon="5.73924">
        <ele>1186.9</ele>
        <time>2021-12-19T13:23:20Z</time>
      </trkpt>
      <trkpt lat="45.34737" lon="5.73925">
        <ele>1186.9</ele>
        <time>2021-12-19T13:23:21Z</time>
      </trkpt>
      <trkpt lat="45.34737" lon="5.73924">
        <ele>1186.8</ele>
        <time>2021-12-19T13:23:22Z</time>
      </trkpt>
      <trkpt lat="45.34736" lon="5.73924">
        <ele>1186.7</ele>
        <time>2021-12-19T13:23:23Z</time>
      </trkpt>
      <trkpt lat="45.34735" lon="5.73924">
        <ele>1186.5</ele>
        <time>2021-12-19T13:23:24Z</time>
      </trkpt>
      <trkpt lat="45.34734" lon="5.73924">
        <ele>1186.4</ele>
        <time>2021-12-19T13:23:25Z</time>
      </trkpt>
      <trkpt lat="45.34734" lon="5.73924">
        <ele>1186.2</ele>
        <time>2021-12-19T13:23:26Z</time>
      </trkpt>
      <trkpt lat="45.34733" lon="5.73925">
        <ele>1186.1</ele>
        <time>2021-12-19T13:23:27Z</time>
      </trkpt>
      <trkpt lat="45.34733" lon="5.73925">
        <ele>1186.1</ele>
        <time>2021-12-19T13:23:28Z</time>
      </trkpt>
      <trkpt lat="45.34733" lon="5.73925">
        <ele>1186.1</ele>
        <time>2021-12-19T13:23:29Z</time>
      </trkpt>
      <trkpt lat="45.34732" lon="5.73925">
        <ele>1186</ele>
        <time>2021-12-19T13:23:30Z</time>
      </trkpt>
      <trkpt lat="45.34732" lon="5.73925">
        <ele>1186</ele>
        <time>2021-12-19T13:23:31Z</time>
      </trkpt>
      <trkpt lat="45.34733" lon="5.73925">
        <ele>1185.9</ele>
        <time>2021-12-19T13:23:32Z</time>
      </trkpt>
      <trkpt lat="45.34733" lon="5.73926">
        <ele>1185.8</ele>
        <time>2021-12-19T13:23:33Z</time>
      </trkpt>
      <trkpt lat="45.34733" lon="5.73926">
        <ele>1185.8</ele>
        <time>2021-12-19T13:23:34Z</time>
      </trkpt>
      <trkpt lat="45.34733" lon="5.73926">
        <ele>1185.8</ele>
        <time>2021-12-19T13:23:35Z</time>
      </trkpt>
      <trkpt lat="45.34733" lon="5.73926">
        <ele>1185.8</ele>
        <time>2021-12-19T13:23:36Z</time>
      </trkpt>
      <trkpt lat="45.34733" lon="5.73926">
        <ele>1185.7</ele>
        <time>2021-12-19T13:23:37Z</time>
      </trkpt>
      <trkpt lat="45.34734" lon="5.73926">
        <ele>1185.6</ele>
        <time>2021-12-19T13:23:38Z</time>
      </trkpt>
      <trkpt lat="45.34734" lon="5.73927">
        <ele>1185.5</ele>
        <time>2021-12-19T13:23:39Z</time>
      </trkpt>
      <trkpt lat="45.34734" lon="5.73927">
        <ele>1185.5</ele>
        <time>2021-12-19T13:23:40Z</time>
      </trkpt>
      <trkpt lat="45.34734" lon="5.73927">
        <ele>1185.5</ele>
        <time>2021-12-19T13:23:41Z</time>
      </trkpt>
      <trkpt lat="45.34734" lon="5.73927">
        <ele>1185.5</ele>
        <time>2021-12-19T13:23:42Z</time>
      </trkpt>
      <trkpt lat="45.34734" lon="5.73927">
        <ele>1185.5</ele>
        <time>2021-12-19T13:23:43Z</time>
      </trkpt>
      <trkpt lat="45.34734" lon="5.73927">
        <ele>1185.5</ele>
        <time>2021-12-19T13:23:44Z</time>
      </trkpt>
      <trkpt lat="45.34734" lon="5.73927">
        <ele>1185.5</ele>
        <time>2021-12-19T13:23:45Z</time>
      </trkpt>
      <trkpt lat="45.34734" lon="5.73927">
        <ele>1185.5</ele>
        <time>2021-12-19T13:23:46Z</time>
      </trkpt>
      <trkpt lat="45.34734" lon="5.73927">
        <ele>1185.5</ele>
        <time>2021-12-19T13:23:47Z</time>
      </trkpt>
      <trkpt lat="45.34734" lon="5.73927">
        <ele>1185.5</ele>
        <time>2021-12-19T13:23:48Z</time>
      </trkpt>
      <trkpt lat="45.34734" lon="5.73927">
        <ele>1185.5</ele>
        <time>2021-12-19T13:23:49Z</time>
      </trkpt>
      <trkpt lat="45.34734" lon="5.73927">
        <ele>1185.5</ele>
        <time>2021-12-19T13:23:50Z</time>
      </trkpt>
      <trkpt lat="45.34734" lon="5.73927">
        <ele>1185.5</ele>
        <time>2021-12-19T13:23:51Z</time>
      </trkpt>
      <trkpt lat="45.34735" lon="5.73927">
        <ele>1185.4</ele>
        <time>2021-12-19T13:23:52Z</time>
      </trkpt>
      <trkpt lat="45.34735" lon="5.73927">
        <ele>1185.4</ele>
        <time>2021-12-19T13:23:53Z</time>
      </trkpt>
      <trkpt lat="45.34735" lon="5.73927">
        <ele>1185.4</ele>
        <time>2021-12-19T13:23:54Z</time>
      </trkpt>
      <trkpt lat="45.34735" lon="5.73928">
        <ele>1185.4</ele>
        <time>2021-12-19T13:23:55Z</time>
      </trkpt>
      <trkpt lat="45.34735" lon="5.73927">
        <ele>1185.4</ele>
        <time>2021-12-19T13:23:56Z</time>
      </trkpt>
      <trkpt lat="45.34735" lon="5.73928">
        <ele>1185.3</ele>
        <time>2021-12-19T13:23:57Z</time>
      </trkpt>
      <trkpt lat="45.34734" lon="5.73928">
        <ele>1185.3</ele>
        <time>2021-12-19T13:23:58Z</time>
      </trkpt>
      <trkpt lat="45.34734" lon="5.73928">
        <ele>1185.2</ele>
        <time>2021-12-19T13:23:59Z</time>
      </trkpt>
      <trkpt lat="45.34734" lon="5.73928">
        <ele>1185.2</ele>
        <time>2021-12-19T13:24:00Z</time>
      </trkpt>
      <trkpt lat="45.34734" lon="5.73928">
        <ele>1185.2</ele>
        <time>2021-12-19T13:24:01Z</time>
      </trkpt>
      <trkpt lat="45.34734" lon="5.73928">
        <ele>1185.1</ele>
        <time>2021-12-19T13:24:02Z</time>
      </trkpt>
      <trkpt lat="45.34734" lon="5.73929">
        <ele>1185.1</ele>
        <time>2021-12-19T13:24:03Z</time>
      </trkpt>
      <trkpt lat="45.34734" lon="5.73929">
        <ele>1185.1</ele>
        <time>2021-12-19T13:24:04Z</time>
      </trkpt>
      <trkpt lat="45.34734" lon="5.73929">
        <ele>1185</ele>
        <time>2021-12-19T13:24:05Z</time>
      </trkpt>
      <trkpt lat="45.34734" lon="5.73929">
        <ele>1185</ele>
        <time>2021-12-19T13:24:06Z</time>
      </trkpt>
      <trkpt lat="45.34734" lon="5.73929">
        <ele>1185</ele>
        <time>2021-12-19T13:24:07Z</time>
      </trkpt>
      <trkpt lat="45.34734" lon="5.73929">
        <ele>1185</ele>
        <time>2021-12-19T13:24:08Z</time>
      </trkpt>
      <trkpt lat="45.34734" lon="5.73929">
        <ele>1184.9</ele>
        <time>2021-12-19T13:24:09Z</time>
      </trkpt>
      <trkpt lat="45.34733" lon="5.7393">
        <ele>1184.8</ele>
        <time>2021-12-19T13:24:10Z</time>
      </trkpt>
      <trkpt lat="45.34733" lon="5.7393">
        <ele>1184.7</ele>
        <time>2021-12-19T13:24:11Z</time>
      </trkpt>
      <trkpt lat="45.34733" lon="5.7393">
        <ele>1184.7</ele>
        <time>2021-12-19T13:24:12Z</time>
      </trkpt>
      <trkpt lat="45.34733" lon="5.7393">
        <ele>1184.7</ele>
        <time>2021-12-19T13:24:13Z</time>
      </trkpt>
      <trkpt lat="45.34733" lon="5.7393">
        <ele>1184.7</ele>
        <time>2021-12-19T13:24:14Z</time>
      </trkpt>
      <trkpt lat="45.34733" lon="5.7393">
        <ele>1184.7</ele>
        <time>2021-12-19T13:24:15Z</time>
      </trkpt>
      <trkpt lat="45.34733" lon="5.7393">
        <ele>1184.7</ele>
        <time>2021-12-19T13:24:16Z</time>
      </trkpt>
      <trkpt lat="45.34733" lon="5.7393">
        <ele>1184.7</ele>
        <time>2021-12-19T13:24:17Z</time>
      </trkpt>
      <trkpt lat="45.34733" lon="5.7393">
        <ele>1184.7</ele>
        <time>2021-12-19T13:24:18Z</time>
      </trkpt>
      <trkpt lat="45.34733" lon="5.7393">
        <ele>1184.6</ele>
        <time>2021-12-19T13:24:19Z</time>
      </trkpt>
      <trkpt lat="45.34733" lon="5.73931">
        <ele>1184.6</ele>
        <time>2021-12-19T13:24:20Z</time>
      </trkpt>
      <trkpt lat="45.34733" lon="5.73931">
        <ele>1184.6</ele>
        <time>2021-12-19T13:24:21Z</time>
      </trkpt>
      <trkpt lat="45.34733" lon="5.73931">
        <ele>1184.5</ele>
        <time>2021-12-19T13:24:22Z</time>
      </trkpt>
      <trkpt lat="45.34732" lon="5.73931">
        <ele>1184.5</ele>
        <time>2021-12-19T13:24:23Z</time>
      </trkpt>
      <trkpt lat="45.34732" lon="5.73931">
        <ele>1184.5</ele>
        <time>2021-12-19T13:24:24Z</time>
      </trkpt>
      <trkpt lat="45.34732" lon="5.73931">
        <ele>1184.5</ele>
        <time>2021-12-19T13:24:25Z</time>
      </trkpt>
      <trkpt lat="45.34732" lon="5.73931">
        <ele>1184.4</ele>
        <time>2021-12-19T13:24:26Z</time>
      </trkpt>
      <trkpt lat="45.34732" lon="5.73931">
        <ele>1184.4</ele>
        <time>2021-12-19T13:24:27Z</time>
      </trkpt>
      <trkpt lat="45.34732" lon="5.73932">
        <ele>1184.3</ele>
        <time>2021-12-19T13:24:28Z</time>
      </trkpt>
      <trkpt lat="45.34732" lon="5.73932">
        <ele>1184.3</ele>
        <time>2021-12-19T13:24:29Z</time>
      </trkpt>
      <trkpt lat="45.34732" lon="5.73932">
        <ele>1184.3</ele>
        <time>2021-12-19T13:24:30Z</time>
      </trkpt>
      <trkpt lat="45.34732" lon="5.73932">
        <ele>1184.3</ele>
        <time>2021-12-19T13:24:31Z</time>
      </trkpt>
      <trkpt lat="45.34732" lon="5.73932">
        <ele>1184.3</ele>
        <time>2021-12-19T13:24:32Z</time>
      </trkpt>
      <trkpt lat="45.34732" lon="5.73932">
        <ele>1184.3</ele>
        <time>2021-12-19T13:24:33Z</time>
      </trkpt>
      <trkpt lat="45.34732" lon="5.73932">
        <ele>1184.3</ele>
        <time>2021-12-19T13:24:34Z</time>
      </trkpt>
      <trkpt lat="45.34732" lon="5.73932">
        <ele>1184.2</ele>
        <time>2021-12-19T13:24:35Z</time>
      </trkpt>
      <trkpt lat="45.34732" lon="5.73932">
        <ele>1184.2</ele>
        <time>2021-12-19T13:24:36Z</time>
      </trkpt>
      <trkpt lat="45.34732" lon="5.73932">
        <ele>1184.2</ele>
        <time>2021-12-19T13:24:37Z</time>
      </trkpt>
      <trkpt lat="45.34732" lon="5.73932">
        <ele>1184.2</ele>
        <time>2021-12-19T13:24:38Z</time>
      </trkpt>
      <trkpt lat="45.34732" lon="5.73932">
        <ele>1184.2</ele>
        <time>2021-12-19T13:24:39Z</time>
      </trkpt>
      <trkpt lat="45.34731" lon="5.73932">
        <ele>1184.1</ele>
        <time>2021-12-19T13:24:40Z</time>
      </trkpt>
      <trkpt lat="45.34732" lon="5.73932">
        <ele>1184.1</ele>
        <time>2021-12-19T13:24:41Z</time>
      </trkpt>
      <trkpt lat="45.34731" lon="5.73932">
        <ele>1184.1</ele>
        <time>2021-12-19T13:24:42Z</time>
      </trkpt>
      <trkpt lat="45.34731" lon="5.73932">
        <ele>1184.1</ele>
        <time>2021-12-19T13:24:43Z</time>
      </trkpt>
      <trkpt lat="45.34731" lon="5.73933">
        <ele>1184.1</ele>
        <time>2021-12-19T13:24:44Z</time>
      </trkpt>
      <trkpt lat="45.34732" lon="5.73933">
        <ele>1184</ele>
        <time>2021-12-19T13:24:45Z</time>
      </trkpt>
      <trkpt lat="45.34732" lon="5.73933">
        <ele>1184</ele>
        <time>2021-12-19T13:24:46Z</time>
      </trkpt>
      <trkpt lat="45.34732" lon="5.73933">
        <ele>1184</ele>
        <time>2021-12-19T13:24:47Z</time>
      </trkpt>
      <trkpt lat="45.34732" lon="5.73933">
        <ele>1184</ele>
        <time>2021-12-19T13:24:48Z</time>
      </trkpt>
      <trkpt lat="45.34732" lon="5.73933">
        <ele>1183.9</ele>
        <time>2021-12-19T13:24:49Z</time>
      </trkpt>
      <trkpt lat="45.34732" lon="5.73932">
        <ele>1183.9</ele>
        <time>2021-12-19T13:24:50Z</time>
      </trkpt>
      <trkpt lat="45.34732" lon="5.73932">
        <ele>1183.9</ele>
        <time>2021-12-19T13:24:51Z</time>
      </trkpt>
      <trkpt lat="45.34732" lon="5.73932">
        <ele>1183.8</ele>
        <time>2021-12-19T13:24:52Z</time>
      </trkpt>
      <trkpt lat="45.34731" lon="5.73933">
        <ele>1183.8</ele>
        <time>2021-12-19T13:24:53Z</time>
      </trkpt>
      <trkpt lat="45.34732" lon="5.73933">
        <ele>1183.8</ele>
        <time>2021-12-19T13:24:54Z</time>
      </trkpt>
      <trkpt lat="45.34732" lon="5.73933">
        <ele>1183.7</ele>
        <time>2021-12-19T13:24:55Z</time>
      </trkpt>
      <trkpt lat="45.34732" lon="5.73933">
        <ele>1183.7</ele>
        <time>2021-12-19T13:24:56Z</time>
      </trkpt>
      <trkpt lat="45.34732" lon="5.73933">
        <ele>1183.7</ele>
        <time>2021-12-19T13:24:57Z</time>
      </trkpt>
      <trkpt lat="45.34732" lon="5.73933">
        <ele>1183.6</ele>
        <time>2021-12-19T13:24:58Z</time>
      </trkpt>
      <trkpt lat="45.34732" lon="5.73934">
        <ele>1183.5</ele>
        <time>2021-12-19T13:24:59Z</time>
      </trkpt>
      <trkpt lat="45.34733" lon="5.73937">
        <ele>1183.2</ele>
        <time>2021-12-19T13:25:00Z</time>
      </trkpt>
      <trkpt lat="45.34734" lon="5.73939">
        <ele>1182.8</ele>
        <time>2021-12-19T13:25:01Z</time>
      </trkpt>
      <trkpt lat="45.34734" lon="5.73942">
        <ele>1182.4</ele>
        <time>2021-12-19T13:25:02Z</time>
      </trkpt>
      <trkpt lat="45.34733" lon="5.73946">
        <ele>1182</ele>
        <time>2021-12-19T13:25:03Z</time>
      </trkpt>
      <trkpt lat="45.34733" lon="5.73949">
        <ele>1181.6</ele>
        <time>2021-12-19T13:25:04Z</time>
      </trkpt>
      <trkpt lat="45.34734" lon="5.73952">
        <ele>1181.2</ele>
        <time>2021-12-19T13:25:05Z</time>
      </trkpt>
      <trkpt lat="45.34734" lon="5.73955">
        <ele>1180.8</ele>
        <time>2021-12-19T13:25:06Z</time>
      </trkpt>
      <trkpt lat="45.34735" lon="5.73961">
        <ele>1180.1</ele>
        <time>2021-12-19T13:25:07Z</time>
      </trkpt>
      <trkpt lat="45.34737" lon="5.73967">
        <ele>1179.2</ele>
        <time>2021-12-19T13:25:08Z</time>
      </trkpt>
      <trkpt lat="45.34738" lon="5.73975">
        <ele>1178.2</ele>
        <time>2021-12-19T13:25:09Z</time>
      </trkpt>
      <trkpt lat="45.34738" lon="5.73982">
        <ele>1177.3</ele>
        <time>2021-12-19T13:25:10Z</time>
      </trkpt>
      <trkpt lat="45.34738" lon="5.73988">
        <ele>1176.5</ele>
        <time>2021-12-19T13:25:11Z</time>
      </trkpt>
      <trkpt lat="45.34738" lon="5.73994">
        <ele>1175.7</ele>
        <time>2021-12-19T13:25:12Z</time>
      </trkpt>
      <trkpt lat="45.34738" lon="5.73999">
        <ele>1175.1</ele>
        <time>2021-12-19T13:25:13Z</time>
      </trkpt>
      <trkpt lat="45.34738" lon="5.74004">
        <ele>1174.4</ele>
        <time>2021-12-19T13:25:14Z</time>
      </trkpt>
      <trkpt lat="45.34738" lon="5.74009">
        <ele>1173.9</ele>
        <time>2021-12-19T13:25:15Z</time>
      </trkpt>
      <trkpt lat="45.34738" lon="5.74014">
        <ele>1173.3</ele>
        <time>2021-12-19T13:25:16Z</time>
      </trkpt>
      <trkpt lat="45.34738" lon="5.74019">
        <ele>1172.6</ele>
        <time>2021-12-19T13:25:17Z</time>
      </trkpt>
      <trkpt lat="45.34738" lon="5.74021">
        <ele>1172.3</ele>
        <time>2021-12-19T13:25:18Z</time>
      </trkpt>
      <trkpt lat="45.34738" lon="5.74022">
        <ele>1172.2</ele>
        <time>2021-12-19T13:25:19Z</time>
      </trkpt>
      <trkpt lat="45.34738" lon="5.74021">
        <ele>1172.2</ele>
        <time>2021-12-19T13:25:20Z</time>
      </trkpt>
      <trkpt lat="45.34738" lon="5.74021">
        <ele>1172.1</ele>
        <time>2021-12-19T13:25:21Z</time>
      </trkpt>
      <trkpt lat="45.34738" lon="5.74021">
        <ele>1172.1</ele>
        <time>2021-12-19T13:25:22Z</time>
      </trkpt>
      <trkpt lat="45.34738" lon="5.74021">
        <ele>1172</ele>
        <time>2021-12-19T13:25:23Z</time>
      </trkpt>
      <trkpt lat="45.34738" lon="5.7402">
        <ele>1172</ele>
        <time>2021-12-19T13:25:24Z</time>
      </trkpt>
      <trkpt lat="45.34738" lon="5.7402">
        <ele>1172</ele>
        <time>2021-12-19T13:25:25Z</time>
      </trkpt>
      <trkpt lat="45.34737" lon="5.7402">
        <ele>1171.9</ele>
        <time>2021-12-19T13:25:26Z</time>
      </trkpt>
      <trkpt lat="45.34737" lon="5.7402">
        <ele>1171.9</ele>
        <time>2021-12-19T13:25:27Z</time>
      </trkpt>
      <trkpt lat="45.34737" lon="5.7402">
        <ele>1171.9</ele>
        <time>2021-12-19T13:25:28Z</time>
      </trkpt>
      <trkpt lat="45.34737" lon="5.7402">
        <ele>1171.9</ele>
        <time>2021-12-19T13:25:29Z</time>
      </trkpt>
      <trkpt lat="45.34737" lon="5.7402">
        <ele>1171.9</ele>
        <time>2021-12-19T13:25:30Z</time>
      </trkpt>
      <trkpt lat="45.34737" lon="5.7402">
        <ele>1171.8</ele>
        <time>2021-12-19T13:25:31Z</time>
      </trkpt>
      <trkpt lat="45.34736" lon="5.7402">
        <ele>1171.8</ele>
        <time>2021-12-19T13:25:32Z</time>
      </trkpt>
      <trkpt lat="45.34736" lon="5.7402">
        <ele>1171.7</ele>
        <time>2021-12-19T13:25:33Z</time>
      </trkpt>
      <trkpt lat="45.34736" lon="5.7402">
        <ele>1171.7</ele>
        <time>2021-12-19T13:25:34Z</time>
      </trkpt>
      <trkpt lat="45.34736" lon="5.7402">
        <ele>1171.7</ele>
        <time>2021-12-19T13:25:35Z</time>
      </trkpt>
      <trkpt lat="45.34736" lon="5.7402">
        <ele>1171.7</ele>
        <time>2021-12-19T13:25:36Z</time>
      </trkpt>
      <trkpt lat="45.34736" lon="5.7402">
        <ele>1171.6</ele>
        <time>2021-12-19T13:25:37Z</time>
      </trkpt>
      <trkpt lat="45.34736" lon="5.7402">
        <ele>1171.6</ele>
        <time>2021-12-19T13:25:38Z</time>
      </trkpt>
      <trkpt lat="45.34736" lon="5.74019">
        <ele>1171.6</ele>
        <time>2021-12-19T13:25:39Z</time>
      </trkpt>
      <trkpt lat="45.34736" lon="5.74019">
        <ele>1171.6</ele>
        <time>2021-12-19T13:25:40Z</time>
      </trkpt>
      <trkpt lat="45.34736" lon="5.7402">
        <ele>1171.5</ele>
        <time>2021-12-19T13:25:41Z</time>
      </trkpt>
      <trkpt lat="45.34737" lon="5.74021">
        <ele>1171.3</ele>
        <time>2021-12-19T13:25:42Z</time>
      </trkpt>
      <trkpt lat="45.34738" lon="5.74023">
        <ele>1170.9</ele>
        <time>2021-12-19T13:25:43Z</time>
      </trkpt>
      <trkpt lat="45.34739" lon="5.74027">
        <ele>1170.4</ele>
        <time>2021-12-19T13:25:44Z</time>
      </trkpt>
      <trkpt lat="45.3474" lon="5.74033">
        <ele>1169.7</ele>
        <time>2021-12-19T13:25:45Z</time>
      </trkpt>
      <trkpt lat="45.3474" lon="5.7404">
        <ele>1168.8</ele>
        <time>2021-12-19T13:25:46Z</time>
      </trkpt>
      <trkpt lat="45.34739" lon="5.74047">
        <ele>1167.9</ele>
        <time>2021-12-19T13:25:47Z</time>
      </trkpt>
      <trkpt lat="45.34737" lon="5.74052">
        <ele>1167.1</ele>
        <time>2021-12-19T13:25:48Z</time>
      </trkpt>
      <trkpt lat="45.34735" lon="5.74057">
        <ele>1166.5</ele>
        <time>2021-12-19T13:25:49Z</time>
      </trkpt>
      <trkpt lat="45.34733" lon="5.74061">
        <ele>1165.9</ele>
        <time>2021-12-19T13:25:50Z</time>
      </trkpt>
      <trkpt lat="45.34732" lon="5.74064">
        <ele>1165.4</ele>
        <time>2021-12-19T13:25:51Z</time>
      </trkpt>
      <trkpt lat="45.3473" lon="5.74066">
        <ele>1165</ele>
        <time>2021-12-19T13:25:52Z</time>
      </trkpt>
      <trkpt lat="45.34727" lon="5.74067">
        <ele>1164.5</ele>
        <time>2021-12-19T13:25:53Z</time>
      </trkpt>
      <trkpt lat="45.34725" lon="5.74069">
        <ele>1164.1</ele>
        <time>2021-12-19T13:25:54Z</time>
      </trkpt>
      <trkpt lat="45.34722" lon="5.7407">
        <ele>1163.4</ele>
        <time>2021-12-19T13:25:55Z</time>
      </trkpt>
      <trkpt lat="45.34717" lon="5.74072">
        <ele>1162.6</ele>
        <time>2021-12-19T13:25:56Z</time>
      </trkpt>
      <trkpt lat="45.34714" lon="5.74074">
        <ele>1161.9</ele>
        <time>2021-12-19T13:25:57Z</time>
      </trkpt>
      <trkpt lat="45.3471" lon="5.74078">
        <ele>1161.1</ele>
        <time>2021-12-19T13:25:58Z</time>
      </trkpt>
      <trkpt lat="45.34706" lon="5.74082">
        <ele>1160.2</ele>
        <time>2021-12-19T13:25:59Z</time>
      </trkpt>
      <trkpt lat="45.34702" lon="5.74087">
        <ele>1159.2</ele>
        <time>2021-12-19T13:26:00Z</time>
      </trkpt>
      <trkpt lat="45.34699" lon="5.74094">
        <ele>1158.2</ele>
        <time>2021-12-19T13:26:01Z</time>
      </trkpt>
      <trkpt lat="45.34696" lon="5.74102">
        <ele>1157</ele>
        <time>2021-12-19T13:26:02Z</time>
      </trkpt>
      <trkpt lat="45.34695" lon="5.7411">
        <ele>1156</ele>
        <time>2021-12-19T13:26:03Z</time>
      </trkpt>
      <trkpt lat="45.34694" lon="5.74118">
        <ele>1155</ele>
        <time>2021-12-19T13:26:04Z</time>
      </trkpt>
      <trkpt lat="45.34692" lon="5.74124">
        <ele>1154.1</ele>
        <time>2021-12-19T13:26:05Z</time>
      </trkpt>
      <trkpt lat="45.3469" lon="5.7413">
        <ele>1153.4</ele>
        <time>2021-12-19T13:26:06Z</time>
      </trkpt>
      <trkpt lat="45.34689" lon="5.74135">
        <ele>1152.7</ele>
        <time>2021-12-19T13:26:07Z</time>
      </trkpt>
      <trkpt lat="45.34687" lon="5.7414">
        <ele>1151.9</ele>
        <time>2021-12-19T13:26:08Z</time>
      </trkpt>
      <trkpt lat="45.34684" lon="5.74146">
        <ele>1151</ele>
        <time>2021-12-19T13:26:09Z</time>
      </trkpt>
      <trkpt lat="45.34681" lon="5.74151">
        <ele>1150.2</ele>
        <time>2021-12-19T13:26:10Z</time>
      </trkpt>
      <trkpt lat="45.34678" lon="5.74156">
        <ele>1149.4</ele>
        <time>2021-12-19T13:26:11Z</time>
      </trkpt>
      <trkpt lat="45.34675" lon="5.74161">
        <ele>1148.5</ele>
        <time>2021-12-19T13:26:12Z</time>
      </trkpt>
      <trkpt lat="45.34671" lon="5.74166">
        <ele>1147.6</ele>
        <time>2021-12-19T13:26:13Z</time>
      </trkpt>
      <trkpt lat="45.34668" lon="5.7417">
        <ele>1146.8</ele>
        <time>2021-12-19T13:26:14Z</time>
      </trkpt>
      <trkpt lat="45.34665" lon="5.74174">
        <ele>1146.1</ele>
        <time>2021-12-19T13:26:15Z</time>
      </trkpt>
      <trkpt lat="45.34663" lon="5.74177">
        <ele>1145.5</ele>
        <time>2021-12-19T13:26:16Z</time>
      </trkpt>
      <trkpt lat="45.34662" lon="5.74179">
        <ele>1145.2</ele>
        <time>2021-12-19T13:26:17Z</time>
      </trkpt>
      <trkpt lat="45.34661" lon="5.7418">
        <ele>1145</ele>
        <time>2021-12-19T13:26:18Z</time>
      </trkpt>
      <trkpt lat="45.34661" lon="5.7418">
        <ele>1144.9</ele>
        <time>2021-12-19T13:26:19Z</time>
      </trkpt>
      <trkpt lat="45.34661" lon="5.7418">
        <ele>1144.9</ele>
        <time>2021-12-19T13:26:20Z</time>
      </trkpt>
      <trkpt lat="45.3466" lon="5.7418">
        <ele>1144.8</ele>
        <time>2021-12-19T13:26:21Z</time>
      </trkpt>
      <trkpt lat="45.34659" lon="5.7418">
        <ele>1144.6</ele>
        <time>2021-12-19T13:26:22Z</time>
      </trkpt>
      <trkpt lat="45.34659" lon="5.7418">
        <ele>1144.6</ele>
        <time>2021-12-19T13:26:23Z</time>
      </trkpt>
      <trkpt lat="45.34659" lon="5.7418">
        <ele>1144.5</ele>
        <time>2021-12-19T13:26:24Z</time>
      </trkpt>
      <trkpt lat="45.34659" lon="5.7418">
        <ele>1144.5</ele>
        <time>2021-12-19T13:26:25Z</time>
      </trkpt>
      <trkpt lat="45.34658" lon="5.7418">
        <ele>1144.4</ele>
        <time>2021-12-19T13:26:26Z</time>
      </trkpt>
      <trkpt lat="45.34658" lon="5.7418">
        <ele>1144.4</ele>
        <time>2021-12-19T13:26:27Z</time>
      </trkpt>
      <trkpt lat="45.34658" lon="5.7418">
        <ele>1144.4</ele>
        <time>2021-12-19T13:26:28Z</time>
      </trkpt>
      <trkpt lat="45.34658" lon="5.7418">
        <ele>1144.4</ele>
        <time>2021-12-19T13:26:29Z</time>
      </trkpt>
      <trkpt lat="45.34658" lon="5.7418">
        <ele>1144.3</ele>
        <time>2021-12-19T13:26:30Z</time>
      </trkpt>
      <trkpt lat="45.34657" lon="5.7418">
        <ele>1144.2</ele>
        <time>2021-12-19T13:26:31Z</time>
      </trkpt>
      <trkpt lat="45.34657" lon="5.7418">
        <ele>1144.1</ele>
        <time>2021-12-19T13:26:32Z</time>
      </trkpt>
      <trkpt lat="45.34656" lon="5.7418">
        <ele>1144.1</ele>
        <time>2021-12-19T13:26:33Z</time>
      </trkpt>
      <trkpt lat="45.34656" lon="5.7418">
        <ele>1144</ele>
        <time>2021-12-19T13:26:34Z</time>
      </trkpt>
      <trkpt lat="45.34655" lon="5.74179">
        <ele>1143.9</ele>
        <time>2021-12-19T13:26:35Z</time>
      </trkpt>
      <trkpt lat="45.34655" lon="5.74179">
        <ele>1143.8</ele>
        <time>2021-12-19T13:26:36Z</time>
      </trkpt>
      <trkpt lat="45.34654" lon="5.74178">
        <ele>1143.6</ele>
        <time>2021-12-19T13:26:37Z</time>
      </trkpt>
      <trkpt lat="45.34654" lon="5.74178">
        <ele>1143.5</ele>
        <time>2021-12-19T13:26:38Z</time>
      </trkpt>
      <trkpt lat="45.34653" lon="5.74178">
        <ele>1143.4</ele>
        <time>2021-12-19T13:26:39Z</time>
      </trkpt>
      <trkpt lat="45.34653" lon="5.74178">
        <ele>1143.3</ele>
        <time>2021-12-19T13:26:40Z</time>
      </trkpt>
      <trkpt lat="45.34652" lon="5.74178">
        <ele>1143.1</ele>
        <time>2021-12-19T13:26:41Z</time>
      </trkpt>
      <trkpt lat="45.34651" lon="5.74179">
        <ele>1143</ele>
        <time>2021-12-19T13:26:42Z</time>
      </trkpt>
      <trkpt lat="45.34651" lon="5.74179">
        <ele>1142.9</ele>
        <time>2021-12-19T13:26:43Z</time>
      </trkpt>
      <trkpt lat="45.34651" lon="5.7418">
        <ele>1142.8</ele>
        <time>2021-12-19T13:26:44Z</time>
      </trkpt>
      <trkpt lat="45.34651" lon="5.7418">
        <ele>1142.8</ele>
        <time>2021-12-19T13:26:45Z</time>
      </trkpt>
      <trkpt lat="45.3465" lon="5.7418">
        <ele>1142.7</ele>
        <time>2021-12-19T13:26:46Z</time>
      </trkpt>
      <trkpt lat="45.3465" lon="5.74181">
        <ele>1142.6</ele>
        <time>2021-12-19T13:26:47Z</time>
      </trkpt>
      <trkpt lat="45.34651" lon="5.74181">
        <ele>1142.6</ele>
        <time>2021-12-19T13:26:48Z</time>
      </trkpt>
      <trkpt lat="45.34651" lon="5.74182">
        <ele>1142.5</ele>
        <time>2021-12-19T13:26:49Z</time>
      </trkpt>
      <trkpt lat="45.34651" lon="5.74183">
        <ele>1142.4</ele>
        <time>2021-12-19T13:26:50Z</time>
      </trkpt>
      <trkpt lat="45.34651" lon="5.74183">
        <ele>1142.3</ele>
        <time>2021-12-19T13:26:51Z</time>
      </trkpt>
      <trkpt lat="45.34651" lon="5.74183">
        <ele>1142.2</ele>
        <time>2021-12-19T13:26:52Z</time>
      </trkpt>
      <trkpt lat="45.3465" lon="5.74183">
        <ele>1142.2</ele>
        <time>2021-12-19T13:26:53Z</time>
      </trkpt>
      <trkpt lat="45.3465" lon="5.74183">
        <ele>1142.1</ele>
        <time>2021-12-19T13:26:54Z</time>
      </trkpt>
      <trkpt lat="45.34648" lon="5.74182">
        <ele>1141.8</ele>
        <time>2021-12-19T13:26:55Z</time>
      </trkpt>
      <trkpt lat="45.34647" lon="5.74182">
        <ele>1141.5</ele>
        <time>2021-12-19T13:26:56Z</time>
      </trkpt>
      <trkpt lat="45.34647" lon="5.74182">
        <ele>1141.4</ele>
        <time>2021-12-19T13:26:57Z</time>
      </trkpt>
      <trkpt lat="45.34647" lon="5.74181">
        <ele>1141.2</ele>
        <time>2021-12-19T13:26:58Z</time>
      </trkpt>
      <trkpt lat="45.34646" lon="5.74181">
        <ele>1141.1</ele>
        <time>2021-12-19T13:26:59Z</time>
      </trkpt>
      <trkpt lat="45.34646" lon="5.74181">
        <ele>1141.1</ele>
        <time>2021-12-19T13:27:00Z</time>
      </trkpt>
      <trkpt lat="45.34647" lon="5.74181">
        <ele>1141.1</ele>
        <time>2021-12-19T13:27:01Z</time>
      </trkpt>
      <trkpt lat="45.34647" lon="5.74181">
        <ele>1140.9</ele>
        <time>2021-12-19T13:27:02Z</time>
      </trkpt>
      <trkpt lat="45.34648" lon="5.74181">
        <ele>1140.8</ele>
        <time>2021-12-19T13:27:03Z</time>
      </trkpt>
      <trkpt lat="45.34648" lon="5.74181">
        <ele>1140.7</ele>
        <time>2021-12-19T13:27:04Z</time>
      </trkpt>
      <trkpt lat="45.34649" lon="5.74182">
        <ele>1140.5</ele>
        <time>2021-12-19T13:27:05Z</time>
      </trkpt>
      <trkpt lat="45.3465" lon="5.74182">
        <ele>1140.4</ele>
        <time>2021-12-19T13:27:06Z</time>
      </trkpt>
      <trkpt lat="45.34651" lon="5.74183">
        <ele>1140.3</ele>
        <time>2021-12-19T13:27:07Z</time>
      </trkpt>
      <trkpt lat="45.34652" lon="5.74183">
        <ele>1140.1</ele>
        <time>2021-12-19T13:27:08Z</time>
      </trkpt>
      <trkpt lat="45.34653" lon="5.74183">
        <ele>1139.9</ele>
        <time>2021-12-19T13:27:09Z</time>
      </trkpt>
      <trkpt lat="45.34654" lon="5.74183">
        <ele>1139.7</ele>
        <time>2021-12-19T13:27:10Z</time>
      </trkpt>
      <trkpt lat="45.34654" lon="5.74183">
        <ele>1139.7</ele>
        <time>2021-12-19T13:27:11Z</time>
      </trkpt>
      <trkpt lat="45.34654" lon="5.74184">
        <ele>1139.7</ele>
        <time>2021-12-19T13:27:12Z</time>
      </trkpt>
      <trkpt lat="45.34654" lon="5.74184">
        <ele>1139.6</ele>
        <time>2021-12-19T13:27:13Z</time>
      </trkpt>
      <trkpt lat="45.34654" lon="5.74184">
        <ele>1139.6</ele>
        <time>2021-12-19T13:27:14Z</time>
      </trkpt>
      <trkpt lat="45.34654" lon="5.74184">
        <ele>1139.6</ele>
        <time>2021-12-19T13:27:15Z</time>
      </trkpt>
      <trkpt lat="45.34654" lon="5.74184">
        <ele>1139.5</ele>
        <time>2021-12-19T13:27:16Z</time>
      </trkpt>
      <trkpt lat="45.34654" lon="5.74185">
        <ele>1139.5</ele>
        <time>2021-12-19T13:27:17Z</time>
      </trkpt>
      <trkpt lat="45.34654" lon="5.74185">
        <ele>1139.4</ele>
        <time>2021-12-19T13:27:18Z</time>
      </trkpt>
      <trkpt lat="45.34655" lon="5.74185">
        <ele>1139.2</ele>
        <time>2021-12-19T13:27:19Z</time>
      </trkpt>
      <trkpt lat="45.34656" lon="5.74186">
        <ele>1139</ele>
        <time>2021-12-19T13:27:20Z</time>
      </trkpt>
      <trkpt lat="45.34656" lon="5.74187">
        <ele>1138.8</ele>
        <time>2021-12-19T13:27:21Z</time>
      </trkpt>
      <trkpt lat="45.34656" lon="5.74189">
        <ele>1138.5</ele>
        <time>2021-12-19T13:27:22Z</time>
      </trkpt>
      <trkpt lat="45.34656" lon="5.74194">
        <ele>1138</ele>
        <time>2021-12-19T13:27:23Z</time>
      </trkpt>
      <trkpt lat="45.34656" lon="5.74199">
        <ele>1137.3</ele>
        <time>2021-12-19T13:27:24Z</time>
      </trkpt>
      <trkpt lat="45.34655" lon="5.74204">
        <ele>1136.7</ele>
        <time>2021-12-19T13:27:25Z</time>
      </trkpt>
      <trkpt lat="45.34655" lon="5.74209">
        <ele>1136</ele>
        <time>2021-12-19T13:27:26Z</time>
      </trkpt>
      <trkpt lat="45.34655" lon="5.74214">
        <ele>1135.4</ele>
        <time>2021-12-19T13:27:27Z</time>
      </trkpt>
      <trkpt lat="45.34655" lon="5.74218">
        <ele>1134.8</ele>
        <time>2021-12-19T13:27:28Z</time>
      </trkpt>
      <trkpt lat="45.34654" lon="5.74224">
        <ele>1134.1</ele>
        <time>2021-12-19T13:27:29Z</time>
      </trkpt>
      <trkpt lat="45.34653" lon="5.74228">
        <ele>1133.5</ele>
        <time>2021-12-19T13:27:30Z</time>
      </trkpt>
      <trkpt lat="45.34653" lon="5.74234">
        <ele>1132.8</ele>
        <time>2021-12-19T13:27:31Z</time>
      </trkpt>
      <trkpt lat="45.34653" lon="5.7424">
        <ele>1132</ele>
        <time>2021-12-19T13:27:32Z</time>
      </trkpt>
      <trkpt lat="45.34653" lon="5.74245">
        <ele>1131.3</ele>
        <time>2021-12-19T13:27:33Z</time>
      </trkpt>
      <trkpt lat="45.34653" lon="5.74252">
        <ele>1130.5</ele>
        <time>2021-12-19T13:27:34Z</time>
      </trkpt>
      <trkpt lat="45.34653" lon="5.74258">
        <ele>1129.7</ele>
        <time>2021-12-19T13:27:35Z</time>
      </trkpt>
      <trkpt lat="45.34653" lon="5.74265">
        <ele>1128.8</ele>
        <time>2021-12-19T13:27:36Z</time>
      </trkpt>
      <trkpt lat="45.34654" lon="5.74272">
        <ele>1127.9</ele>
        <time>2021-12-19T13:27:37Z</time>
      </trkpt>
      <trkpt lat="45.34655" lon="5.7428">
        <ele>1126.9</ele>
        <time>2021-12-19T13:27:38Z</time>
      </trkpt>
      <trkpt lat="45.34656" lon="5.74288">
        <ele>1125.9</ele>
        <time>2021-12-19T13:27:39Z</time>
      </trkpt>
      <trkpt lat="45.34657" lon="5.74296">
        <ele>1124.9</ele>
        <time>2021-12-19T13:27:40Z</time>
      </trkpt>
      <trkpt lat="45.34658" lon="5.74303">
        <ele>1124</ele>
        <time>2021-12-19T13:27:41Z</time>
      </trkpt>
      <trkpt lat="45.3466" lon="5.74308">
        <ele>1123.2</ele>
        <time>2021-12-19T13:27:42Z</time>
      </trkpt>
      <trkpt lat="45.34662" lon="5.74314">
        <ele>1122.4</ele>
        <time>2021-12-19T13:27:43Z</time>
      </trkpt>
      <trkpt lat="45.34663" lon="5.74319">
        <ele>1121.7</ele>
        <time>2021-12-19T13:27:44Z</time>
      </trkpt>
      <trkpt lat="45.34665" lon="5.74323">
        <ele>1121.1</ele>
        <time>2021-12-19T13:27:45Z</time>
      </trkpt>
      <trkpt lat="45.34666" lon="5.74328">
        <ele>1120.5</ele>
        <time>2021-12-19T13:27:46Z</time>
      </trkpt>
      <trkpt lat="45.34667" lon="5.74332">
        <ele>1119.9</ele>
        <time>2021-12-19T13:27:47Z</time>
      </trkpt>
      <trkpt lat="45.34668" lon="5.74335">
        <ele>1119.5</ele>
        <time>2021-12-19T13:27:48Z</time>
      </trkpt>
      <trkpt lat="45.34668" lon="5.74338">
        <ele>1119.1</ele>
        <time>2021-12-19T13:27:49Z</time>
      </trkpt>
      <trkpt lat="45.34667" lon="5.7434">
        <ele>1118.8</ele>
        <time>2021-12-19T13:27:50Z</time>
      </trkpt>
      <trkpt lat="45.34667" lon="5.74341">
        <ele>1118.7</ele>
        <time>2021-12-19T13:27:51Z</time>
      </trkpt>
      <trkpt lat="45.34667" lon="5.74342">
        <ele>1118.6</ele>
        <time>2021-12-19T13:27:52Z</time>
      </trkpt>
      <trkpt lat="45.34667" lon="5.74342">
        <ele>1118.6</ele>
        <time>2021-12-19T13:27:53Z</time>
      </trkpt>
      <trkpt lat="45.34667" lon="5.74342">
        <ele>1118.5</ele>
        <time>2021-12-19T13:27:54Z</time>
      </trkpt>
      <trkpt lat="45.34666" lon="5.74342">
        <ele>1118.5</ele>
        <time>2021-12-19T13:27:55Z</time>
      </trkpt>
      <trkpt lat="45.34666" lon="5.74342">
        <ele>1118.4</ele>
        <time>2021-12-19T13:27:56Z</time>
      </trkpt>
      <trkpt lat="45.34665" lon="5.74342">
        <ele>1118.3</ele>
        <time>2021-12-19T13:27:57Z</time>
      </trkpt>
      <trkpt lat="45.34665" lon="5.74342">
        <ele>1118.2</ele>
        <time>2021-12-19T13:27:58Z</time>
      </trkpt>
      <trkpt lat="45.34664" lon="5.74342">
        <ele>1118.1</ele>
        <time>2021-12-19T13:27:59Z</time>
      </trkpt>
      <trkpt lat="45.34663" lon="5.74342">
        <ele>1117.9</ele>
        <time>2021-12-19T13:28:00Z</time>
      </trkpt>
      <trkpt lat="45.34663" lon="5.74342">
        <ele>1117.8</ele>
        <time>2021-12-19T13:28:01Z</time>
      </trkpt>
      <trkpt lat="45.34663" lon="5.74342">
        <ele>1117.8</ele>
        <time>2021-12-19T13:28:02Z</time>
      </trkpt>
      <trkpt lat="45.34663" lon="5.74342">
        <ele>1117.7</ele>
        <time>2021-12-19T13:28:03Z</time>
      </trkpt>
      <trkpt lat="45.34662" lon="5.74342">
        <ele>1117.7</ele>
        <time>2021-12-19T13:28:04Z</time>
      </trkpt>
      <trkpt lat="45.34662" lon="5.74342">
        <ele>1117.6</ele>
        <time>2021-12-19T13:28:05Z</time>
      </trkpt>
      <trkpt lat="45.34662" lon="5.74342">
        <ele>1117.6</ele>
        <time>2021-12-19T13:28:06Z</time>
      </trkpt>
      <trkpt lat="45.34662" lon="5.74342">
        <ele>1117.6</ele>
        <time>2021-12-19T13:28:07Z</time>
      </trkpt>
      <trkpt lat="45.34662" lon="5.74342">
        <ele>1117.5</ele>
        <time>2021-12-19T13:28:08Z</time>
      </trkpt>
      <trkpt lat="45.34661" lon="5.74341">
        <ele>1117.4</ele>
        <time>2021-12-19T13:28:09Z</time>
      </trkpt>
      <trkpt lat="45.3466" lon="5.74341">
        <ele>1117.2</ele>
        <time>2021-12-19T13:28:10Z</time>
      </trkpt>
      <trkpt lat="45.3466" lon="5.74341">
        <ele>1117.2</ele>
        <time>2021-12-19T13:28:11Z</time>
      </trkpt>
      <trkpt lat="45.3466" lon="5.74341">
        <ele>1117.1</ele>
        <time>2021-12-19T13:28:12Z</time>
      </trkpt>
      <trkpt lat="45.3466" lon="5.74342">
        <ele>1117</ele>
        <time>2021-12-19T13:28:13Z</time>
      </trkpt>
      <trkpt lat="45.34659" lon="5.74343">
        <ele>1116.8</ele>
        <time>2021-12-19T13:28:14Z</time>
      </trkpt>
      <trkpt lat="45.34659" lon="5.74343">
        <ele>1116.8</ele>
        <time>2021-12-19T13:28:15Z</time>
      </trkpt>
      <trkpt lat="45.34659" lon="5.74344">
        <ele>1116.7</ele>
        <time>2021-12-19T13:28:16Z</time>
      </trkpt>
      <trkpt lat="45.34657" lon="5.74344">
        <ele>1116.4</ele>
        <time>2021-12-19T13:28:17Z</time>
      </trkpt>
      <trkpt lat="45.34656" lon="5.74344">
        <ele>1116.2</ele>
        <time>2021-12-19T13:28:18Z</time>
      </trkpt>
      <trkpt lat="45.34656" lon="5.74344">
        <ele>1116.2</ele>
        <time>2021-12-19T13:28:19Z</time>
      </trkpt>
      <trkpt lat="45.34656" lon="5.74345">
        <ele>1116</ele>
        <time>2021-12-19T13:28:20Z</time>
      </trkpt>
      <trkpt lat="45.34657" lon="5.74346">
        <ele>1115.9</ele>
        <time>2021-12-19T13:28:21Z</time>
      </trkpt>
      <trkpt lat="45.34658" lon="5.74348">
        <ele>1115.6</ele>
        <time>2021-12-19T13:28:22Z</time>
      </trkpt>
      <trkpt lat="45.34659" lon="5.74349">
        <ele>1115.4</ele>
        <time>2021-12-19T13:28:23Z</time>
      </trkpt>
      <trkpt lat="45.3466" lon="5.7435">
        <ele>1115.2</ele>
        <time>2021-12-19T13:28:24Z</time>
      </trkpt>
      <trkpt lat="45.3466" lon="5.74352">
        <ele>1115</ele>
        <time>2021-12-19T13:28:25Z</time>
      </trkpt>
      <trkpt lat="45.3466" lon="5.74354">
        <ele>1114.7</ele>
        <time>2021-12-19T13:28:26Z</time>
      </trkpt>
      <trkpt lat="45.34659" lon="5.74357">
        <ele>1114.2</ele>
        <time>2021-12-19T13:28:27Z</time>
      </trkpt>
      <trkpt lat="45.34658" lon="5.74361">
        <ele>1113.7</ele>
        <time>2021-12-19T13:28:28Z</time>
      </trkpt>
      <trkpt lat="45.34657" lon="5.74365">
        <ele>1113.2</ele>
        <time>2021-12-19T13:28:29Z</time>
      </trkpt>
      <trkpt lat="45.34657" lon="5.7437">
        <ele>1112.5</ele>
        <time>2021-12-19T13:28:30Z</time>
      </trkpt>
      <trkpt lat="45.34658" lon="5.74377">
        <ele>1111.6</ele>
        <time>2021-12-19T13:28:31Z</time>
      </trkpt>
      <trkpt lat="45.34659" lon="5.74383">
        <ele>1110.7</ele>
        <time>2021-12-19T13:28:32Z</time>
      </trkpt>
      <trkpt lat="45.34663" lon="5.74389">
        <ele>1109.7</ele>
        <time>2021-12-19T13:28:33Z</time>
      </trkpt>
      <trkpt lat="45.34666" lon="5.74395">
        <ele>1108.8</ele>
        <time>2021-12-19T13:28:34Z</time>
      </trkpt>
      <trkpt lat="45.3467" lon="5.74401">
        <ele>1107.7</ele>
        <time>2021-12-19T13:28:35Z</time>
      </trkpt>
      <trkpt lat="45.34674" lon="5.74407">
        <ele>1106.7</ele>
        <time>2021-12-19T13:28:36Z</time>
      </trkpt>
      <trkpt lat="45.34678" lon="5.74412">
        <ele>1105.7</ele>
        <time>2021-12-19T13:28:37Z</time>
      </trkpt>
      <trkpt lat="45.34684" lon="5.74414">
        <ele>1104.5</ele>
        <time>2021-12-19T13:28:38Z</time>
      </trkpt>
      <trkpt lat="45.34689" lon="5.74415">
        <ele>1103.6</ele>
        <time>2021-12-19T13:28:39Z</time>
      </trkpt>
      <trkpt lat="45.34695" lon="5.74415">
        <ele>1102.7</ele>
        <time>2021-12-19T13:28:40Z</time>
      </trkpt>
      <trkpt lat="45.34697" lon="5.74411">
        <ele>1102</ele>
        <time>2021-12-19T13:28:41Z</time>
      </trkpt>
      <trkpt lat="45.34701" lon="5.74409">
        <ele>1101.3</ele>
        <time>2021-12-19T13:28:42Z</time>
      </trkpt>
      <trkpt lat="45.34704" lon="5.74406">
        <ele>1100.7</ele>
        <time>2021-12-19T13:28:43Z</time>
      </trkpt>
      <trkpt lat="45.34706" lon="5.74402">
        <ele>1100.1</ele>
        <time>2021-12-19T13:28:44Z</time>
      </trkpt>
      <trkpt lat="45.34708" lon="5.74399">
        <ele>1099.5</ele>
        <time>2021-12-19T13:28:45Z</time>
      </trkpt>
      <trkpt lat="45.34709" lon="5.74395">
        <ele>1099</ele>
        <time>2021-12-19T13:28:46Z</time>
      </trkpt>
      <trkpt lat="45.3471" lon="5.74392">
        <ele>1098.5</ele>
        <time>2021-12-19T13:28:47Z</time>
      </trkpt>
      <trkpt lat="45.3471" lon="5.74387">
        <ele>1098</ele>
        <time>2021-12-19T13:28:48Z</time>
      </trkpt>
      <trkpt lat="45.3471" lon="5.74382">
        <ele>1097.3</ele>
        <time>2021-12-19T13:28:49Z</time>
      </trkpt>
      <trkpt lat="45.3471" lon="5.74378">
        <ele>1096.7</ele>
        <time>2021-12-19T13:28:50Z</time>
      </trkpt>
      <trkpt lat="45.34711" lon="5.74373">
        <ele>1096.2</ele>
        <time>2021-12-19T13:28:51Z</time>
      </trkpt>
      <trkpt lat="45.34711" lon="5.74369">
        <ele>1095.6</ele>
        <time>2021-12-19T13:28:52Z</time>
      </trkpt>
      <trkpt lat="45.34712" lon="5.74364">
        <ele>1095</ele>
        <time>2021-12-19T13:28:53Z</time>
      </trkpt>
      <trkpt lat="45.34712" lon="5.7436">
        <ele>1094.5</ele>
        <time>2021-12-19T13:28:54Z</time>
      </trkpt>
      <trkpt lat="45.34713" lon="5.74357">
        <ele>1094</ele>
        <time>2021-12-19T13:28:55Z</time>
      </trkpt>
      <trkpt lat="45.34715" lon="5.74353">
        <ele>1093.5</ele>
        <time>2021-12-19T13:28:56Z</time>
      </trkpt>
      <trkpt lat="45.34715" lon="5.74349">
        <ele>1093</ele>
        <time>2021-12-19T13:28:57Z</time>
      </trkpt>
      <trkpt lat="45.34715" lon="5.74345">
        <ele>1092.4</ele>
        <time>2021-12-19T13:28:58Z</time>
      </trkpt>
      <trkpt lat="45.34715" lon="5.74341">
        <ele>1092</ele>
        <time>2021-12-19T13:28:59Z</time>
      </trkpt>
      <trkpt lat="45.34715" lon="5.74337">
        <ele>1091.5</ele>
        <time>2021-12-19T13:29:00Z</time>
      </trkpt>
      <trkpt lat="45.34715" lon="5.74333">
        <ele>1091</ele>
        <time>2021-12-19T13:29:01Z</time>
      </trkpt>
      <trkpt lat="45.34715" lon="5.74329">
        <ele>1090.4</ele>
        <time>2021-12-19T13:29:02Z</time>
      </trkpt>
      <trkpt lat="45.34715" lon="5.74325">
        <ele>1089.8</ele>
        <time>2021-12-19T13:29:03Z</time>
      </trkpt>
      <trkpt lat="45.34716" lon="5.7432">
        <ele>1089.3</ele>
        <time>2021-12-19T13:29:04Z</time>
      </trkpt>
      <trkpt lat="45.34716" lon="5.74315">
        <ele>1088.7</ele>
        <time>2021-12-19T13:29:05Z</time>
      </trkpt>
      <trkpt lat="45.34716" lon="5.74311">
        <ele>1088.1</ele>
        <time>2021-12-19T13:29:06Z</time>
      </trkpt>
      <trkpt lat="45.34716" lon="5.74306">
        <ele>1087.5</ele>
        <time>2021-12-19T13:29:07Z</time>
      </trkpt>
      <trkpt lat="45.34716" lon="5.74302">
        <ele>1086.9</ele>
        <time>2021-12-19T13:29:08Z</time>
      </trkpt>
      <trkpt lat="45.34717" lon="5.74298">
        <ele>1086.4</ele>
        <time>2021-12-19T13:29:09Z</time>
      </trkpt>
      <trkpt lat="45.34719" lon="5.74294">
        <ele>1085.8</ele>
        <time>2021-12-19T13:29:10Z</time>
      </trkpt>
      <trkpt lat="45.3472" lon="5.7429">
        <ele>1085.3</ele>
        <time>2021-12-19T13:29:11Z</time>
      </trkpt>
      <trkpt lat="45.34721" lon="5.74289">
        <ele>1085</ele>
        <time>2021-12-19T13:29:12Z</time>
      </trkpt>
      <trkpt lat="45.34722" lon="5.74288">
        <ele>1084.8</ele>
        <time>2021-12-19T13:29:13Z</time>
      </trkpt>
      <trkpt lat="45.34723" lon="5.74288">
        <ele>1084.6</ele>
        <time>2021-12-19T13:29:14Z</time>
      </trkpt>
      <trkpt lat="45.34724" lon="5.74288">
        <ele>1084.5</ele>
        <time>2021-12-19T13:29:15Z</time>
      </trkpt>
      <trkpt lat="45.34724" lon="5.74288">
        <ele>1084.4</ele>
        <time>2021-12-19T13:29:16Z</time>
      </trkpt>
      <trkpt lat="45.34724" lon="5.74288">
        <ele>1084.4</ele>
        <time>2021-12-19T13:29:17Z</time>
      </trkpt>
      <trkpt lat="45.34725" lon="5.74289">
        <ele>1084.3</ele>
        <time>2021-12-19T13:29:18Z</time>
      </trkpt>
      <trkpt lat="45.34725" lon="5.74288">
        <ele>1084.2</ele>
        <time>2021-12-19T13:29:19Z</time>
      </trkpt>
      <trkpt lat="45.34726" lon="5.74288">
        <ele>1084.1</ele>
        <time>2021-12-19T13:29:20Z</time>
      </trkpt>
      <trkpt lat="45.34726" lon="5.74288">
        <ele>1084.1</ele>
        <time>2021-12-19T13:29:21Z</time>
      </trkpt>
      <trkpt lat="45.34726" lon="5.74287">
        <ele>1084</ele>
        <time>2021-12-19T13:29:22Z</time>
      </trkpt>
      <trkpt lat="45.34726" lon="5.74287">
        <ele>1083.9</ele>
        <time>2021-12-19T13:29:23Z</time>
      </trkpt>
      <trkpt lat="45.34727" lon="5.74286">
        <ele>1083.8</ele>
        <time>2021-12-19T13:29:24Z</time>
      </trkpt>
      <trkpt lat="45.34727" lon="5.74286">
        <ele>1083.8</ele>
        <time>2021-12-19T13:29:25Z</time>
      </trkpt>
      <trkpt lat="45.34727" lon="5.74286">
        <ele>1083.8</ele>
        <time>2021-12-19T13:29:26Z</time>
      </trkpt>
      <trkpt lat="45.34727" lon="5.74286">
        <ele>1083.8</ele>
        <time>2021-12-19T13:29:27Z</time>
      </trkpt>
      <trkpt lat="45.34727" lon="5.74286">
        <ele>1083.8</ele>
        <time>2021-12-19T13:29:28Z</time>
      </trkpt>
      <trkpt lat="45.34727" lon="5.74286">
        <ele>1083.8</ele>
        <time>2021-12-19T13:29:29Z</time>
      </trkpt>
      <trkpt lat="45.34727" lon="5.74286">
        <ele>1083.8</ele>
        <time>2021-12-19T13:29:30Z</time>
      </trkpt>
      <trkpt lat="45.34727" lon="5.74286">
        <ele>1083.8</ele>
        <time>2021-12-19T13:29:31Z</time>
      </trkpt>
      <trkpt lat="45.34727" lon="5.74286">
        <ele>1083.7</ele>
        <time>2021-12-19T13:29:32Z</time>
      </trkpt>
      <trkpt lat="45.34727" lon="5.74286">
        <ele>1083.7</ele>
        <time>2021-12-19T13:29:33Z</time>
      </trkpt>
      <trkpt lat="45.34727" lon="5.74286">
        <ele>1083.7</ele>
        <time>2021-12-19T13:29:34Z</time>
      </trkpt>
      <trkpt lat="45.34727" lon="5.74287">
        <ele>1083.7</ele>
        <time>2021-12-19T13:29:35Z</time>
      </trkpt>
      <trkpt lat="45.34727" lon="5.74287">
        <ele>1083.6</ele>
        <time>2021-12-19T13:29:36Z</time>
      </trkpt>
      <trkpt lat="45.34727" lon="5.74287">
        <ele>1083.6</ele>
        <time>2021-12-19T13:29:37Z</time>
      </trkpt>
      <trkpt lat="45.34726" lon="5.74287">
        <ele>1083.5</ele>
        <time>2021-12-19T13:29:38Z</time>
      </trkpt>
      <trkpt lat="45.34726" lon="5.74288">
        <ele>1083.4</ele>
        <time>2021-12-19T13:29:39Z</time>
      </trkpt>
      <trkpt lat="45.34726" lon="5.74288">
        <ele>1083.4</ele>
        <time>2021-12-19T13:29:40Z</time>
      </trkpt>
      <trkpt lat="45.34726" lon="5.74287">
        <ele>1083.4</ele>
        <time>2021-12-19T13:29:41Z</time>
      </trkpt>
      <trkpt lat="45.34726" lon="5.74287">
        <ele>1083.3</ele>
        <time>2021-12-19T13:29:42Z</time>
      </trkpt>
      <trkpt lat="45.34726" lon="5.74287">
        <ele>1083.3</ele>
        <time>2021-12-19T13:29:43Z</time>
      </trkpt>
      <trkpt lat="45.34725" lon="5.74287">
        <ele>1083.2</ele>
        <time>2021-12-19T13:29:44Z</time>
      </trkpt>
      <trkpt lat="45.34725" lon="5.74286">
        <ele>1083</ele>
        <time>2021-12-19T13:29:45Z</time>
      </trkpt>
      <trkpt lat="45.34724" lon="5.74286">
        <ele>1083</ele>
        <time>2021-12-19T13:29:46Z</time>
      </trkpt>
      <trkpt lat="45.34724" lon="5.74286">
        <ele>1082.9</ele>
        <time>2021-12-19T13:29:47Z</time>
      </trkpt>
      <trkpt lat="45.34724" lon="5.74286">
        <ele>1082.9</ele>
        <time>2021-12-19T13:29:48Z</time>
      </trkpt>
      <trkpt lat="45.34724" lon="5.74286">
        <ele>1082.9</ele>
        <time>2021-12-19T13:29:49Z</time>
      </trkpt>
      <trkpt lat="45.34724" lon="5.74286">
        <ele>1082.8</ele>
        <time>2021-12-19T13:29:50Z</time>
      </trkpt>
      <trkpt lat="45.34724" lon="5.74286">
        <ele>1082.7</ele>
        <time>2021-12-19T13:29:51Z</time>
      </trkpt>
      <trkpt lat="45.34723" lon="5.74285">
        <ele>1082.6</ele>
        <time>2021-12-19T13:29:52Z</time>
      </trkpt>
      <trkpt lat="45.34723" lon="5.74285">
        <ele>1082.6</ele>
        <time>2021-12-19T13:29:53Z</time>
      </trkpt>
      <trkpt lat="45.34724" lon="5.74284">
        <ele>1082.5</ele>
        <time>2021-12-19T13:29:54Z</time>
      </trkpt>
      <trkpt lat="45.34725" lon="5.74284">
        <ele>1082.4</ele>
        <time>2021-12-19T13:29:55Z</time>
      </trkpt>
      <trkpt lat="45.34725" lon="5.74284">
        <ele>1082.2</ele>
        <time>2021-12-19T13:29:56Z</time>
      </trkpt>
      <trkpt lat="45.34726" lon="5.74284">
        <ele>1082.1</ele>
        <time>2021-12-19T13:29:57Z</time>
      </trkpt>
      <trkpt lat="45.34727" lon="5.74284">
        <ele>1082</ele>
        <time>2021-12-19T13:29:58Z</time>
      </trkpt>
      <trkpt lat="45.34727" lon="5.74284">
        <ele>1081.8</ele>
        <time>2021-12-19T13:29:59Z</time>
      </trkpt>
      <trkpt lat="45.34728" lon="5.74284">
        <ele>1081.7</ele>
        <time>2021-12-19T13:30:00Z</time>
      </trkpt>
      <trkpt lat="45.34729" lon="5.74284">
        <ele>1081.5</ele>
        <time>2021-12-19T13:30:01Z</time>
      </trkpt>
      <trkpt lat="45.34729" lon="5.74284">
        <ele>1081.4</ele>
        <time>2021-12-19T13:30:02Z</time>
      </trkpt>
      <trkpt lat="45.34729" lon="5.74284">
        <ele>1081.4</ele>
        <time>2021-12-19T13:30:03Z</time>
      </trkpt>
      <trkpt lat="45.34729" lon="5.74284">
        <ele>1081.4</ele>
        <time>2021-12-19T13:30:04Z</time>
      </trkpt>
      <trkpt lat="45.34729" lon="5.74284">
        <ele>1081.3</ele>
        <time>2021-12-19T13:30:05Z</time>
      </trkpt>
      <trkpt lat="45.34729" lon="5.74284">
        <ele>1081.3</ele>
        <time>2021-12-19T13:30:06Z</time>
      </trkpt>
      <trkpt lat="45.34729" lon="5.74284">
        <ele>1081.3</ele>
        <time>2021-12-19T13:30:07Z</time>
      </trkpt>
      <trkpt lat="45.34729" lon="5.74284">
        <ele>1081.2</ele>
        <time>2021-12-19T13:30:08Z</time>
      </trkpt>
      <trkpt lat="45.34729" lon="5.74284">
        <ele>1081.1</ele>
        <time>2021-12-19T13:30:09Z</time>
      </trkpt>
      <trkpt lat="45.34729" lon="5.74284">
        <ele>1081.1</ele>
        <time>2021-12-19T13:30:10Z</time>
      </trkpt>
      <trkpt lat="45.34729" lon="5.74284">
        <ele>1081</ele>
        <time>2021-12-19T13:30:11Z</time>
      </trkpt>
      <trkpt lat="45.3473" lon="5.74284">
        <ele>1080.9</ele>
        <time>2021-12-19T13:30:12Z</time>
      </trkpt>
      <trkpt lat="45.3473" lon="5.74284">
        <ele>1080.9</ele>
        <time>2021-12-19T13:30:13Z</time>
      </trkpt>
      <trkpt lat="45.3473" lon="5.74284">
        <ele>1080.8</ele>
        <time>2021-12-19T13:30:14Z</time>
      </trkpt>
      <trkpt lat="45.3473" lon="5.74284">
        <ele>1080.8</ele>
        <time>2021-12-19T13:30:15Z</time>
      </trkpt>
      <trkpt lat="45.3473" lon="5.74284">
        <ele>1080.8</ele>
        <time>2021-12-19T13:30:16Z</time>
      </trkpt>
      <trkpt lat="45.3473" lon="5.74284">
        <ele>1080.6</ele>
        <time>2021-12-19T13:30:17Z</time>
      </trkpt>
      <trkpt lat="45.3473" lon="5.74284">
        <ele>1080.5</ele>
        <time>2021-12-19T13:30:18Z</time>
      </trkpt>
      <trkpt lat="45.34731" lon="5.74284">
        <ele>1080.5</ele>
        <time>2021-12-19T13:30:19Z</time>
      </trkpt>
      <trkpt lat="45.34731" lon="5.74284">
        <ele>1080.4</ele>
        <time>2021-12-19T13:30:20Z</time>
      </trkpt>
      <trkpt lat="45.34731" lon="5.74284">
        <ele>1080.4</ele>
        <time>2021-12-19T13:30:21Z</time>
      </trkpt>
      <trkpt lat="45.3473" lon="5.74284">
        <ele>1080.3</ele>
        <time>2021-12-19T13:30:22Z</time>
      </trkpt>
      <trkpt lat="45.3473" lon="5.74284">
        <ele>1080.2</ele>
        <time>2021-12-19T13:30:23Z</time>
      </trkpt>
      <trkpt lat="45.3473" lon="5.74285">
        <ele>1080.1</ele>
        <time>2021-12-19T13:30:24Z</time>
      </trkpt>
      <trkpt lat="45.3473" lon="5.74285">
        <ele>1080.1</ele>
        <time>2021-12-19T13:30:25Z</time>
      </trkpt>
      <trkpt lat="45.3473" lon="5.74285">
        <ele>1080</ele>
        <time>2021-12-19T13:30:26Z</time>
      </trkpt>
      <trkpt lat="45.3473" lon="5.74285">
        <ele>1080</ele>
        <time>2021-12-19T13:30:27Z</time>
      </trkpt>
      <trkpt lat="45.3473" lon="5.74285">
        <ele>1079.9</ele>
        <time>2021-12-19T13:30:28Z</time>
      </trkpt>
      <trkpt lat="45.3473" lon="5.74285">
        <ele>1079.8</ele>
        <time>2021-12-19T13:30:29Z</time>
      </trkpt>
      <trkpt lat="45.3473" lon="5.74285">
        <ele>1079.8</ele>
        <time>2021-12-19T13:30:30Z</time>
      </trkpt>
      <trkpt lat="45.3473" lon="5.74285">
        <ele>1079.8</ele>
        <time>2021-12-19T13:30:31Z</time>
      </trkpt>
      <trkpt lat="45.3473" lon="5.74285">
        <ele>1079.7</ele>
        <time>2021-12-19T13:30:32Z</time>
      </trkpt>
      <trkpt lat="45.3473" lon="5.74285">
        <ele>1079.7</ele>
        <time>2021-12-19T13:30:33Z</time>
      </trkpt>
      <trkpt lat="45.3473" lon="5.74285">
        <ele>1079.6</ele>
        <time>2021-12-19T13:30:34Z</time>
      </trkpt>
      <trkpt lat="45.3473" lon="5.74285">
        <ele>1079.5</ele>
        <time>2021-12-19T13:30:35Z</time>
      </trkpt>
      <trkpt lat="45.3473" lon="5.74284">
        <ele>1079.5</ele>
        <time>2021-12-19T13:30:36Z</time>
      </trkpt>
      <trkpt lat="45.3473" lon="5.74284">
        <ele>1079.4</ele>
        <time>2021-12-19T13:30:37Z</time>
      </trkpt>
      <trkpt lat="45.3473" lon="5.74284">
        <ele>1079.3</ele>
        <time>2021-12-19T13:30:38Z</time>
      </trkpt>
      <trkpt lat="45.3473" lon="5.74284">
        <ele>1079.3</ele>
        <time>2021-12-19T13:30:39Z</time>
      </trkpt>
      <trkpt lat="45.3473" lon="5.74284">
        <ele>1079.2</ele>
        <time>2021-12-19T13:30:40Z</time>
      </trkpt>
      <trkpt lat="45.34731" lon="5.74283">
        <ele>1079.1</ele>
        <time>2021-12-19T13:30:41Z</time>
      </trkpt>
      <trkpt lat="45.3473" lon="5.74284">
        <ele>1079.1</ele>
        <time>2021-12-19T13:30:42Z</time>
      </trkpt>
      <trkpt lat="45.34731" lon="5.74284">
        <ele>1078.9</ele>
        <time>2021-12-19T13:30:43Z</time>
      </trkpt>
      <trkpt lat="45.34731" lon="5.74284">
        <ele>1078.8</ele>
        <time>2021-12-19T13:30:44Z</time>
      </trkpt>
      <trkpt lat="45.34732" lon="5.74284">
        <ele>1078.6</ele>
        <time>2021-12-19T13:30:45Z</time>
      </trkpt>
      <trkpt lat="45.34733" lon="5.74284">
        <ele>1078.5</ele>
        <time>2021-12-19T13:30:46Z</time>
      </trkpt>
      <trkpt lat="45.34734" lon="5.74285">
        <ele>1078.3</ele>
        <time>2021-12-19T13:30:47Z</time>
      </trkpt>
      <trkpt lat="45.34735" lon="5.74286">
        <ele>1077.9</ele>
        <time>2021-12-19T13:30:48Z</time>
      </trkpt>
      <trkpt lat="45.34738" lon="5.74287">
        <ele>1077.4</ele>
        <time>2021-12-19T13:30:49Z</time>
      </trkpt>
      <trkpt lat="45.34739" lon="5.74288">
        <ele>1077.1</ele>
        <time>2021-12-19T13:30:50Z</time>
      </trkpt>
      <trkpt lat="45.34741" lon="5.74291">
        <ele>1076.5</ele>
        <time>2021-12-19T13:30:51Z</time>
      </trkpt>
      <trkpt lat="45.34745" lon="5.74293">
        <ele>1075.8</ele>
        <time>2021-12-19T13:30:52Z</time>
      </trkpt>
      <trkpt lat="45.34748" lon="5.74297">
        <ele>1075.1</ele>
        <time>2021-12-19T13:30:53Z</time>
      </trkpt>
      <trkpt lat="45.3475" lon="5.743">
        <ele>1074.5</ele>
        <time>2021-12-19T13:30:54Z</time>
      </trkpt>
      <trkpt lat="45.34751" lon="5.74304">
        <ele>1073.9</ele>
        <time>2021-12-19T13:30:55Z</time>
      </trkpt>
      <trkpt lat="45.34752" lon="5.74308">
        <ele>1073.4</ele>
        <time>2021-12-19T13:30:56Z</time>
      </trkpt>
      <trkpt lat="45.34754" lon="5.74312">
        <ele>1072.7</ele>
        <time>2021-12-19T13:30:57Z</time>
      </trkpt>
      <trkpt lat="45.34755" lon="5.74317">
        <ele>1072</ele>
        <time>2021-12-19T13:30:58Z</time>
      </trkpt>
      <trkpt lat="45.34756" lon="5.7432">
        <ele>1071.5</ele>
        <time>2021-12-19T13:30:59Z</time>
      </trkpt>
      <trkpt lat="45.34757" lon="5.74322">
        <ele>1071.1</ele>
        <time>2021-12-19T13:31:00Z</time>
      </trkpt>
      <trkpt lat="45.3476" lon="5.74325">
        <ele>1070.6</ele>
        <time>2021-12-19T13:31:01Z</time>
      </trkpt>
      <trkpt lat="45.34761" lon="5.74327">
        <ele>1070.2</ele>
        <time>2021-12-19T13:31:02Z</time>
      </trkpt>
      <trkpt lat="45.34763" lon="5.74329">
        <ele>1069.7</ele>
        <time>2021-12-19T13:31:03Z</time>
      </trkpt>
      <trkpt lat="45.34764" lon="5.7433">
        <ele>1069.5</ele>
        <time>2021-12-19T13:31:04Z</time>
      </trkpt>
      <trkpt lat="45.34764" lon="5.7433">
        <ele>1069.4</ele>
        <time>2021-12-19T13:31:05Z</time>
      </trkpt>
      <trkpt lat="45.34764" lon="5.74331">
        <ele>1069.3</ele>
        <time>2021-12-19T13:31:06Z</time>
      </trkpt>
      <trkpt lat="45.34765" lon="5.74331">
        <ele>1069.1</ele>
        <time>2021-12-19T13:31:07Z</time>
      </trkpt>
      <trkpt lat="45.34767" lon="5.74332">
        <ele>1068.7</ele>
        <time>2021-12-19T13:31:08Z</time>
      </trkpt>
      <trkpt lat="45.34769" lon="5.74335">
        <ele>1068.1</ele>
        <time>2021-12-19T13:31:09Z</time>
      </trkpt>
      <trkpt lat="45.34771" lon="5.74339">
        <ele>1067.5</ele>
        <time>2021-12-19T13:31:10Z</time>
      </trkpt>
      <trkpt lat="45.34772" lon="5.74343">
        <ele>1066.9</ele>
        <time>2021-12-19T13:31:11Z</time>
      </trkpt>
      <trkpt lat="45.34773" lon="5.74347">
        <ele>1066.3</ele>
        <time>2021-12-19T13:31:12Z</time>
      </trkpt>
      <trkpt lat="45.34774" lon="5.7435">
        <ele>1065.9</ele>
        <time>2021-12-19T13:31:13Z</time>
      </trkpt>
      <trkpt lat="45.34775" lon="5.74354">
        <ele>1065.3</ele>
        <time>2021-12-19T13:31:14Z</time>
      </trkpt>
      <trkpt lat="45.34776" lon="5.74358">
        <ele>1064.7</ele>
        <time>2021-12-19T13:31:15Z</time>
      </trkpt>
      <trkpt lat="45.34778" lon="5.74363">
        <ele>1064</ele>
        <time>2021-12-19T13:31:16Z</time>
      </trkpt>
      <trkpt lat="45.34779" lon="5.74368">
        <ele>1063.3</ele>
        <time>2021-12-19T13:31:17Z</time>
      </trkpt>
      <trkpt lat="45.3478" lon="5.74374">
        <ele>1062.4</ele>
        <time>2021-12-19T13:31:18Z</time>
      </trkpt>
      <trkpt lat="45.34781" lon="5.74381">
        <ele>1061.5</ele>
        <time>2021-12-19T13:31:19Z</time>
      </trkpt>
      <trkpt lat="45.34782" lon="5.74389">
        <ele>1060.5</ele>
        <time>2021-12-19T13:31:20Z</time>
      </trkpt>
      <trkpt lat="45.34783" lon="5.74395">
        <ele>1059.6</ele>
        <time>2021-12-19T13:31:21Z</time>
      </trkpt>
      <trkpt lat="45.34784" lon="5.74399">
        <ele>1059.1</ele>
        <time>2021-12-19T13:31:22Z</time>
      </trkpt>
      <trkpt lat="45.34785" lon="5.74401">
        <ele>1058.7</ele>
        <time>2021-12-19T13:31:23Z</time>
      </trkpt>
      <trkpt lat="45.34785" lon="5.74402">
        <ele>1058.6</ele>
        <time>2021-12-19T13:31:24Z</time>
      </trkpt>
      <trkpt lat="45.34785" lon="5.74402">
        <ele>1058.5</ele>
        <time>2021-12-19T13:31:25Z</time>
      </trkpt>
      <trkpt lat="45.34785" lon="5.74402">
        <ele>1058.5</ele>
        <time>2021-12-19T13:31:26Z</time>
      </trkpt>
      <trkpt lat="45.34785" lon="5.74403">
        <ele>1058.3</ele>
        <time>2021-12-19T13:31:27Z</time>
      </trkpt>
      <trkpt lat="45.34784" lon="5.74403">
        <ele>1058.2</ele>
        <time>2021-12-19T13:31:28Z</time>
      </trkpt>
      <trkpt lat="45.34784" lon="5.74403">
        <ele>1058.2</ele>
        <time>2021-12-19T13:31:29Z</time>
      </trkpt>
      <trkpt lat="45.34784" lon="5.74402">
        <ele>1058</ele>
        <time>2021-12-19T13:31:30Z</time>
      </trkpt>
      <trkpt lat="45.34784" lon="5.74402">
        <ele>1058</ele>
        <time>2021-12-19T13:31:31Z</time>
      </trkpt>
      <trkpt lat="45.34785" lon="5.74403">
        <ele>1057.8</ele>
        <time>2021-12-19T13:31:32Z</time>
      </trkpt>
      <trkpt lat="45.34785" lon="5.74405">
        <ele>1057.4</ele>
        <time>2021-12-19T13:31:33Z</time>
      </trkpt>
      <trkpt lat="45.34785" lon="5.74406">
        <ele>1057.3</ele>
        <time>2021-12-19T13:31:34Z</time>
      </trkpt>
      <trkpt lat="45.34785" lon="5.74407">
        <ele>1057.2</ele>
        <time>2021-12-19T13:31:35Z</time>
      </trkpt>
      <trkpt lat="45.34785" lon="5.74407">
        <ele>1057.1</ele>
        <time>2021-12-19T13:31:36Z</time>
      </trkpt>
      <trkpt lat="45.34785" lon="5.74407">
        <ele>1057</ele>
        <time>2021-12-19T13:31:37Z</time>
      </trkpt>
      <trkpt lat="45.34784" lon="5.74407">
        <ele>1057</ele>
        <time>2021-12-19T13:31:38Z</time>
      </trkpt>
      <trkpt lat="45.34784" lon="5.74407">
        <ele>1056.9</ele>
        <time>2021-12-19T13:31:39Z</time>
      </trkpt>
      <trkpt lat="45.34784" lon="5.74407">
        <ele>1056.8</ele>
        <time>2021-12-19T13:31:40Z</time>
      </trkpt>
      <trkpt lat="45.34784" lon="5.74408">
        <ele>1056.8</ele>
        <time>2021-12-19T13:31:41Z</time>
      </trkpt>
      <trkpt lat="45.34783" lon="5.74408">
        <ele>1056.7</ele>
        <time>2021-12-19T13:31:42Z</time>
      </trkpt>
      <trkpt lat="45.34783" lon="5.74408">
        <ele>1056.7</ele>
        <time>2021-12-19T13:31:43Z</time>
      </trkpt>
      <trkpt lat="45.34783" lon="5.74408">
        <ele>1056.6</ele>
        <time>2021-12-19T13:31:44Z</time>
      </trkpt>
      <trkpt lat="45.34783" lon="5.74408">
        <ele>1056.6</ele>
        <time>2021-12-19T13:31:45Z</time>
      </trkpt>
      <trkpt lat="45.34782" lon="5.74409">
        <ele>1056.4</ele>
        <time>2021-12-19T13:31:46Z</time>
      </trkpt>
      <trkpt lat="45.34782" lon="5.7441">
        <ele>1056.3</ele>
        <time>2021-12-19T13:31:47Z</time>
      </trkpt>
      <trkpt lat="45.34781" lon="5.7441">
        <ele>1056.3</ele>
        <time>2021-12-19T13:31:48Z</time>
      </trkpt>
      <trkpt lat="45.34781" lon="5.7441">
        <ele>1056.2</ele>
        <time>2021-12-19T13:31:49Z</time>
      </trkpt>
      <trkpt lat="45.3478" lon="5.7441">
        <ele>1056.1</ele>
        <time>2021-12-19T13:31:50Z</time>
      </trkpt>
      <trkpt lat="45.3478" lon="5.74409">
        <ele>1055.9</ele>
        <time>2021-12-19T13:31:51Z</time>
      </trkpt>
      <trkpt lat="45.34779" lon="5.74409">
        <ele>1055.8</ele>
        <time>2021-12-19T13:31:52Z</time>
      </trkpt>
      <trkpt lat="45.34778" lon="5.74409">
        <ele>1055.6</ele>
        <time>2021-12-19T13:31:53Z</time>
      </trkpt>
      <trkpt lat="45.34777" lon="5.74409">
        <ele>1055.4</ele>
        <time>2021-12-19T13:31:54Z</time>
      </trkpt>
      <trkpt lat="45.34777" lon="5.74409">
        <ele>1055.4</ele>
        <time>2021-12-19T13:31:55Z</time>
      </trkpt>
      <trkpt lat="45.34777" lon="5.74409">
        <ele>1055.3</ele>
        <time>2021-12-19T13:31:56Z</time>
      </trkpt>
      <trkpt lat="45.34777" lon="5.74409">
        <ele>1055.3</ele>
        <time>2021-12-19T13:31:57Z</time>
      </trkpt>
      <trkpt lat="45.34777" lon="5.74409">
        <ele>1055.3</ele>
        <time>2021-12-19T13:31:58Z</time>
      </trkpt>
      <trkpt lat="45.34777" lon="5.74409">
        <ele>1055.3</ele>
        <time>2021-12-19T13:31:59Z</time>
      </trkpt>
      <trkpt lat="45.34776" lon="5.74409">
        <ele>1055.3</ele>
        <time>2021-12-19T13:32:00Z</time>
      </trkpt>
      <trkpt lat="45.34776" lon="5.74409">
        <ele>1055.3</ele>
        <time>2021-12-19T13:32:01Z</time>
      </trkpt>
      <trkpt lat="45.34776" lon="5.74409">
        <ele>1055.2</ele>
        <time>2021-12-19T13:32:02Z</time>
      </trkpt>
      <trkpt lat="45.34776" lon="5.74409">
        <ele>1055.2</ele>
        <time>2021-12-19T13:32:03Z</time>
      </trkpt>
      <trkpt lat="45.34776" lon="5.7441">
        <ele>1055.1</ele>
        <time>2021-12-19T13:32:04Z</time>
      </trkpt>
      <trkpt lat="45.34776" lon="5.7441">
        <ele>1055.1</ele>
        <time>2021-12-19T13:32:05Z</time>
      </trkpt>
      <trkpt lat="45.34777" lon="5.7441">
        <ele>1054.9</ele>
        <time>2021-12-19T13:32:06Z</time>
      </trkpt>
      <trkpt lat="45.34778" lon="5.74412">
        <ele>1054.5</ele>
        <time>2021-12-19T13:32:07Z</time>
      </trkpt>
      <trkpt lat="45.34779" lon="5.74414">
        <ele>1054.2</ele>
        <time>2021-12-19T13:32:08Z</time>
      </trkpt>
      <trkpt lat="45.3478" lon="5.74416">
        <ele>1053.9</ele>
        <time>2021-12-19T13:32:09Z</time>
      </trkpt>
      <trkpt lat="45.34781" lon="5.74417">
        <ele>1053.7</ele>
        <time>2021-12-19T13:32:10Z</time>
      </trkpt>
      <trkpt lat="45.34781" lon="5.74418">
        <ele>1053.6</ele>
        <time>2021-12-19T13:32:11Z</time>
      </trkpt>
      <trkpt lat="45.34781" lon="5.74418">
        <ele>1053.6</ele>
        <time>2021-12-19T13:32:12Z</time>
      </trkpt>
      <trkpt lat="45.3478" lon="5.74418">
        <ele>1053.6</ele>
        <time>2021-12-19T13:32:13Z</time>
      </trkpt>
      <trkpt lat="45.3478" lon="5.74417">
        <ele>1053.5</ele>
        <time>2021-12-19T13:32:14Z</time>
      </trkpt>
      <trkpt lat="45.3478" lon="5.74417">
        <ele>1053.4</ele>
        <time>2021-12-19T13:32:15Z</time>
      </trkpt>
      <trkpt lat="45.3478" lon="5.74417">
        <ele>1053.4</ele>
        <time>2021-12-19T13:32:16Z</time>
      </trkpt>
      <trkpt lat="45.3478" lon="5.74416">
        <ele>1053.3</ele>
        <time>2021-12-19T13:32:17Z</time>
      </trkpt>
      <trkpt lat="45.34779" lon="5.74417">
        <ele>1053.3</ele>
        <time>2021-12-19T13:32:18Z</time>
      </trkpt>
      <trkpt lat="45.34779" lon="5.74417">
        <ele>1053.2</ele>
        <time>2021-12-19T13:32:19Z</time>
      </trkpt>
      <trkpt lat="45.34779" lon="5.74417">
        <ele>1053.2</ele>
        <time>2021-12-19T13:32:20Z</time>
      </trkpt>
      <trkpt lat="45.34779" lon="5.74417">
        <ele>1053.2</ele>
        <time>2021-12-19T13:32:21Z</time>
      </trkpt>
      <trkpt lat="45.34779" lon="5.74416">
        <ele>1053.1</ele>
        <time>2021-12-19T13:32:22Z</time>
      </trkpt>
      <trkpt lat="45.34779" lon="5.74416">
        <ele>1053.1</ele>
        <time>2021-12-19T13:32:23Z</time>
      </trkpt>
      <trkpt lat="45.34779" lon="5.74417">
        <ele>1053.1</ele>
        <time>2021-12-19T13:32:24Z</time>
      </trkpt>
      <trkpt lat="45.34778" lon="5.74416">
        <ele>1053</ele>
        <time>2021-12-19T13:32:25Z</time>
      </trkpt>
      <trkpt lat="45.34778" lon="5.74416">
        <ele>1053</ele>
        <time>2021-12-19T13:32:26Z</time>
      </trkpt>
      <trkpt lat="45.34778" lon="5.74416">
        <ele>1052.9</ele>
        <time>2021-12-19T13:32:27Z</time>
      </trkpt>
      <trkpt lat="45.34777" lon="5.74416">
        <ele>1052.8</ele>
        <time>2021-12-19T13:32:28Z</time>
      </trkpt>
      <trkpt lat="45.34777" lon="5.74415">
        <ele>1052.8</ele>
        <time>2021-12-19T13:32:29Z</time>
      </trkpt>
      <trkpt lat="45.34778" lon="5.74415">
        <ele>1052.8</ele>
        <time>2021-12-19T13:32:30Z</time>
      </trkpt>
      <trkpt lat="45.34778" lon="5.74415">
        <ele>1052.7</ele>
        <time>2021-12-19T13:32:31Z</time>
      </trkpt>
      <trkpt lat="45.34778" lon="5.74415">
        <ele>1052.6</ele>
        <time>2021-12-19T13:32:32Z</time>
      </trkpt>
      <trkpt lat="45.34778" lon="5.74415">
        <ele>1052.6</ele>
        <time>2021-12-19T13:32:33Z</time>
      </trkpt>
      <trkpt lat="45.34778" lon="5.74415">
        <ele>1052.6</ele>
        <time>2021-12-19T13:32:34Z</time>
      </trkpt>
      <trkpt lat="45.34778" lon="5.74415">
        <ele>1052.6</ele>
        <time>2021-12-19T13:32:35Z</time>
      </trkpt>
      <trkpt lat="45.34778" lon="5.74415">
        <ele>1052.5</ele>
        <time>2021-12-19T13:32:36Z</time>
      </trkpt>
      <trkpt lat="45.34779" lon="5.74415">
        <ele>1052.5</ele>
        <time>2021-12-19T13:32:37Z</time>
      </trkpt>
      <trkpt lat="45.34779" lon="5.74415">
        <ele>1052.5</ele>
        <time>2021-12-19T13:32:38Z</time>
      </trkpt>
      <trkpt lat="45.34779" lon="5.74415">
        <ele>1052.4</ele>
        <time>2021-12-19T13:32:39Z</time>
      </trkpt>
      <trkpt lat="45.34779" lon="5.74415">
        <ele>1052.4</ele>
        <time>2021-12-19T13:32:40Z</time>
      </trkpt>
      <trkpt lat="45.34779" lon="5.74416">
        <ele>1052.3</ele>
        <time>2021-12-19T13:32:41Z</time>
      </trkpt>
      <trkpt lat="45.34779" lon="5.74416">
        <ele>1052.3</ele>
        <time>2021-12-19T13:32:42Z</time>
      </trkpt>
      <trkpt lat="45.34779" lon="5.74417">
        <ele>1052.2</ele>
        <time>2021-12-19T13:32:43Z</time>
      </trkpt>
      <trkpt lat="45.34779" lon="5.74417">
        <ele>1052.2</ele>
        <time>2021-12-19T13:32:44Z</time>
      </trkpt>
      <trkpt lat="45.34779" lon="5.74417">
        <ele>1052.1</ele>
        <time>2021-12-19T13:32:45Z</time>
      </trkpt>
      <trkpt lat="45.34779" lon="5.74417">
        <ele>1052.1</ele>
        <time>2021-12-19T13:32:46Z</time>
      </trkpt>
      <trkpt lat="45.3478" lon="5.74417">
        <ele>1052</ele>
        <time>2021-12-19T13:32:47Z</time>
      </trkpt>
      <trkpt lat="45.34781" lon="5.74417">
        <ele>1051.9</ele>
        <time>2021-12-19T13:32:48Z</time>
      </trkpt>
      <trkpt lat="45.34781" lon="5.74417">
        <ele>1051.8</ele>
        <time>2021-12-19T13:32:49Z</time>
      </trkpt>
      <trkpt lat="45.34781" lon="5.74417">
        <ele>1051.8</ele>
        <time>2021-12-19T13:32:50Z</time>
      </trkpt>
      <trkpt lat="45.34781" lon="5.74417">
        <ele>1051.8</ele>
        <time>2021-12-19T13:32:51Z</time>
      </trkpt>
      <trkpt lat="45.34781" lon="5.74417">
        <ele>1051.8</ele>
        <time>2021-12-19T13:32:52Z</time>
      </trkpt>
      <trkpt lat="45.3478" lon="5.74417">
        <ele>1051.7</ele>
        <time>2021-12-19T13:32:53Z</time>
      </trkpt>
      <trkpt lat="45.34781" lon="5.74417">
        <ele>1051.7</ele>
        <time>2021-12-19T13:32:54Z</time>
      </trkpt>
      <trkpt lat="45.34781" lon="5.74417">
        <ele>1051.6</ele>
        <time>2021-12-19T13:32:55Z</time>
      </trkpt>
      <trkpt lat="45.34782" lon="5.74417">
        <ele>1051.5</ele>
        <time>2021-12-19T13:32:56Z</time>
      </trkpt>
      <trkpt lat="45.34782" lon="5.74417">
        <ele>1051.4</ele>
        <time>2021-12-19T13:32:57Z</time>
      </trkpt>
      <trkpt lat="45.34782" lon="5.74417">
        <ele>1051.4</ele>
        <time>2021-12-19T13:32:58Z</time>
      </trkpt>
      <trkpt lat="45.34782" lon="5.74417">
        <ele>1051.4</ele>
        <time>2021-12-19T13:32:59Z</time>
      </trkpt>
      <trkpt lat="45.34783" lon="5.74417">
        <ele>1051.4</ele>
        <time>2021-12-19T13:33:00Z</time>
      </trkpt>
      <trkpt lat="45.34783" lon="5.74417">
        <ele>1051.3</ele>
        <time>2021-12-19T13:33:01Z</time>
      </trkpt>
      <trkpt lat="45.34783" lon="5.74417">
        <ele>1051.3</ele>
        <time>2021-12-19T13:33:02Z</time>
      </trkpt>
      <trkpt lat="45.34783" lon="5.74418">
        <ele>1051.3</ele>
        <time>2021-12-19T13:33:03Z</time>
      </trkpt>
      <trkpt lat="45.34783" lon="5.74418">
        <ele>1051.2</ele>
        <time>2021-12-19T13:33:04Z</time>
      </trkpt>
      <trkpt lat="45.34783" lon="5.74418">
        <ele>1051.2</ele>
        <time>2021-12-19T13:33:05Z</time>
      </trkpt>
      <trkpt lat="45.34783" lon="5.74418">
        <ele>1051.2</ele>
        <time>2021-12-19T13:33:06Z</time>
      </trkpt>
      <trkpt lat="45.34783" lon="5.74418">
        <ele>1051.1</ele>
        <time>2021-12-19T13:33:07Z</time>
      </trkpt>
      <trkpt lat="45.34783" lon="5.74418">
        <ele>1051.1</ele>
        <time>2021-12-19T13:33:08Z</time>
      </trkpt>
      <trkpt lat="45.34783" lon="5.74418">
        <ele>1051.1</ele>
        <time>2021-12-19T13:33:09Z</time>
      </trkpt>
      <trkpt lat="45.34783" lon="5.74418">
        <ele>1051</ele>
        <time>2021-12-19T13:33:10Z</time>
      </trkpt>
      <trkpt lat="45.34783" lon="5.74418">
        <ele>1051</ele>
        <time>2021-12-19T13:33:11Z</time>
      </trkpt>
      <trkpt lat="45.34783" lon="5.74418">
        <ele>1051</ele>
        <time>2021-12-19T13:33:12Z</time>
      </trkpt>
      <trkpt lat="45.34783" lon="5.74417">
        <ele>1050.9</ele>
        <time>2021-12-19T13:33:13Z</time>
      </trkpt>
      <trkpt lat="45.34784" lon="5.74417">
        <ele>1050.8</ele>
        <time>2021-12-19T13:33:14Z</time>
      </trkpt>
      <trkpt lat="45.34785" lon="5.74418">
        <ele>1050.6</ele>
        <time>2021-12-19T13:33:15Z</time>
      </trkpt>
      <trkpt lat="45.34786" lon="5.74419">
        <ele>1050.4</ele>
        <time>2021-12-19T13:33:16Z</time>
      </trkpt>
      <trkpt lat="45.34787" lon="5.7442">
        <ele>1050.1</ele>
        <time>2021-12-19T13:33:17Z</time>
      </trkpt>
      <trkpt lat="45.34788" lon="5.74422">
        <ele>1049.8</ele>
        <time>2021-12-19T13:33:18Z</time>
      </trkpt>
      <trkpt lat="45.34789" lon="5.74425">
        <ele>1049.4</ele>
        <time>2021-12-19T13:33:19Z</time>
      </trkpt>
      <trkpt lat="45.34791" lon="5.74429">
        <ele>1048.8</ele>
        <time>2021-12-19T13:33:20Z</time>
      </trkpt>
      <trkpt lat="45.34793" lon="5.74434">
        <ele>1048</ele>
        <time>2021-12-19T13:33:21Z</time>
      </trkpt>
      <trkpt lat="45.34796" lon="5.7444">
        <ele>1047.2</ele>
        <time>2021-12-19T13:33:22Z</time>
      </trkpt>
      <trkpt lat="45.34797" lon="5.74445">
        <ele>1046.5</ele>
        <time>2021-12-19T13:33:23Z</time>
      </trkpt>
      <trkpt lat="45.34799" lon="5.74449">
        <ele>1045.9</ele>
        <time>2021-12-19T13:33:24Z</time>
      </trkpt>
      <trkpt lat="45.34801" lon="5.74453">
        <ele>1045.3</ele>
        <time>2021-12-19T13:33:25Z</time>
      </trkpt>
      <trkpt lat="45.34803" lon="5.74458">
        <ele>1044.5</ele>
        <time>2021-12-19T13:33:26Z</time>
      </trkpt>
      <trkpt lat="45.34806" lon="5.74463">
        <ele>1043.7</ele>
        <time>2021-12-19T13:33:27Z</time>
      </trkpt>
      <trkpt lat="45.34809" lon="5.74468">
        <ele>1042.9</ele>
        <time>2021-12-19T13:33:28Z</time>
      </trkpt>
      <trkpt lat="45.34811" lon="5.74472">
        <ele>1042.2</ele>
        <time>2021-12-19T13:33:29Z</time>
      </trkpt>
      <trkpt lat="45.34813" lon="5.74476">
        <ele>1041.6</ele>
        <time>2021-12-19T13:33:30Z</time>
      </trkpt>
      <trkpt lat="45.34816" lon="5.74479">
        <ele>1041.1</ele>
        <time>2021-12-19T13:33:31Z</time>
      </trkpt>
      <trkpt lat="45.34817" lon="5.74481">
        <ele>1040.6</ele>
        <time>2021-12-19T13:33:32Z</time>
      </trkpt>
      <trkpt lat="45.34819" lon="5.74483">
        <ele>1040.2</ele>
        <time>2021-12-19T13:33:33Z</time>
      </trkpt>
      <trkpt lat="45.34819" lon="5.74484">
        <ele>1040.1</ele>
        <time>2021-12-19T13:33:34Z</time>
      </trkpt>
      <trkpt lat="45.34819" lon="5.74486">
        <ele>1039.9</ele>
        <time>2021-12-19T13:33:35Z</time>
      </trkpt>
      <trkpt lat="45.3482" lon="5.74487">
        <ele>1039.7</ele>
        <time>2021-12-19T13:33:36Z</time>
      </trkpt>
      <trkpt lat="45.34821" lon="5.74488">
        <ele>1039.4</ele>
        <time>2021-12-19T13:33:37Z</time>
      </trkpt>
      <trkpt lat="45.34822" lon="5.7449">
        <ele>1039.1</ele>
        <time>2021-12-19T13:33:38Z</time>
      </trkpt>
      <trkpt lat="45.34823" lon="5.74492">
        <ele>1038.8</ele>
        <time>2021-12-19T13:33:39Z</time>
      </trkpt>
      <trkpt lat="45.34824" lon="5.74494">
        <ele>1038.5</ele>
        <time>2021-12-19T13:33:40Z</time>
      </trkpt>
      <trkpt lat="45.34824" lon="5.74496">
        <ele>1038.3</ele>
        <time>2021-12-19T13:33:41Z</time>
      </trkpt>
      <trkpt lat="45.34824" lon="5.74496">
        <ele>1038.2</ele>
        <time>2021-12-19T13:33:42Z</time>
      </trkpt>
      <trkpt lat="45.34824" lon="5.74497">
        <ele>1038.1</ele>
        <time>2021-12-19T13:33:43Z</time>
      </trkpt>
      <trkpt lat="45.34823" lon="5.74497">
        <ele>1038.1</ele>
        <time>2021-12-19T13:33:44Z</time>
      </trkpt>
      <trkpt lat="45.34823" lon="5.74498">
        <ele>1038</ele>
        <time>2021-12-19T13:33:45Z</time>
      </trkpt>
      <trkpt lat="45.34824" lon="5.74499">
        <ele>1037.8</ele>
        <time>2021-12-19T13:33:46Z</time>
      </trkpt>
      <trkpt lat="45.34824" lon="5.745">
        <ele>1037.6</ele>
        <time>2021-12-19T13:33:47Z</time>
      </trkpt>
      <trkpt lat="45.34824" lon="5.74501">
        <ele>1037.5</ele>
        <time>2021-12-19T13:33:48Z</time>
      </trkpt>
      <trkpt lat="45.34824" lon="5.74501">
        <ele>1037.4</ele>
        <time>2021-12-19T13:33:49Z</time>
      </trkpt>
      <trkpt lat="45.34823" lon="5.74502">
        <ele>1037.3</ele>
        <time>2021-12-19T13:33:50Z</time>
      </trkpt>
      <trkpt lat="45.34823" lon="5.74502">
        <ele>1037.2</ele>
        <time>2021-12-19T13:33:51Z</time>
      </trkpt>
      <trkpt lat="45.34823" lon="5.74503">
        <ele>1037.1</ele>
        <time>2021-12-19T13:33:52Z</time>
      </trkpt>
      <trkpt lat="45.34822" lon="5.74503">
        <ele>1036.9</ele>
        <time>2021-12-19T13:33:53Z</time>
      </trkpt>
      <trkpt lat="45.34821" lon="5.74504">
        <ele>1036.9</ele>
        <time>2021-12-19T13:33:54Z</time>
      </trkpt>
      <trkpt lat="45.34821" lon="5.74504">
        <ele>1036.7</ele>
        <time>2021-12-19T13:33:55Z</time>
      </trkpt>
      <trkpt lat="45.3482" lon="5.74504">
        <ele>1036.7</ele>
        <time>2021-12-19T13:33:56Z</time>
      </trkpt>
      <trkpt lat="45.34821" lon="5.74504">
        <ele>1036.7</ele>
        <time>2021-12-19T13:33:57Z</time>
      </trkpt>
      <trkpt lat="45.34821" lon="5.74504">
        <ele>1036.6</ele>
        <time>2021-12-19T13:33:58Z</time>
      </trkpt>
      <trkpt lat="45.3482" lon="5.74504">
        <ele>1036.6</ele>
        <time>2021-12-19T13:33:59Z</time>
      </trkpt>
      <trkpt lat="45.3482" lon="5.74504">
        <ele>1036.6</ele>
        <time>2021-12-19T13:34:00Z</time>
      </trkpt>
      <trkpt lat="45.3482" lon="5.74504">
        <ele>1036.5</ele>
        <time>2021-12-19T13:34:01Z</time>
      </trkpt>
      <trkpt lat="45.34821" lon="5.74504">
        <ele>1036.5</ele>
        <time>2021-12-19T13:34:02Z</time>
      </trkpt>
      <trkpt lat="45.34821" lon="5.74505">
        <ele>1036.3</ele>
        <time>2021-12-19T13:34:03Z</time>
      </trkpt>
      <trkpt lat="45.34822" lon="5.74507">
        <ele>1036</ele>
        <time>2021-12-19T13:34:04Z</time>
      </trkpt>
      <trkpt lat="45.34823" lon="5.74511">
        <ele>1035.5</ele>
        <time>2021-12-19T13:34:05Z</time>
      </trkpt>
      <trkpt lat="45.34824" lon="5.74513">
        <ele>1035.2</ele>
        <time>2021-12-19T13:34:06Z</time>
      </trkpt>
      <trkpt lat="45.34825" lon="5.74516">
        <ele>1034.8</ele>
        <time>2021-12-19T13:34:07Z</time>
      </trkpt>
      <trkpt lat="45.34825" lon="5.74518">
        <ele>1034.5</ele>
        <time>2021-12-19T13:34:08Z</time>
      </trkpt>
      <trkpt lat="45.34825" lon="5.74522">
        <ele>1034.1</ele>
        <time>2021-12-19T13:34:09Z</time>
      </trkpt>
      <trkpt lat="45.34825" lon="5.74525">
        <ele>1033.6</ele>
        <time>2021-12-19T13:34:10Z</time>
      </trkpt>
      <trkpt lat="45.34826" lon="5.7453">
        <ele>1032.9</ele>
        <time>2021-12-19T13:34:11Z</time>
      </trkpt>
      <trkpt lat="45.34827" lon="5.74537">
        <ele>1032.1</ele>
        <time>2021-12-19T13:34:12Z</time>
      </trkpt>
      <trkpt lat="45.34826" lon="5.74544">
        <ele>1031.2</ele>
        <time>2021-12-19T13:34:13Z</time>
      </trkpt>
      <trkpt lat="45.34826" lon="5.74551">
        <ele>1030.3</ele>
        <time>2021-12-19T13:34:14Z</time>
      </trkpt>
      <trkpt lat="45.34827" lon="5.74559">
        <ele>1029.3</ele>
        <time>2021-12-19T13:34:15Z</time>
      </trkpt>
      <trkpt lat="45.34826" lon="5.74568">
        <ele>1028.1</ele>
        <time>2021-12-19T13:34:16Z</time>
      </trkpt>
      <trkpt lat="45.34826" lon="5.74578">
        <ele>1026.9</ele>
        <time>2021-12-19T13:34:17Z</time>
      </trkpt>
      <trkpt lat="45.34827" lon="5.74588">
        <ele>1025.6</ele>
        <time>2021-12-19T13:34:18Z</time>
      </trkpt>
      <trkpt lat="45.34828" lon="5.74598">
        <ele>1024.3</ele>
        <time>2021-12-19T13:34:19Z</time>
      </trkpt>
      <trkpt lat="45.34829" lon="5.74607">
        <ele>1023.2</ele>
        <time>2021-12-19T13:34:20Z</time>
      </trkpt>
      <trkpt lat="45.34829" lon="5.74614">
        <ele>1022.2</ele>
        <time>2021-12-19T13:34:21Z</time>
      </trkpt>
      <trkpt lat="45.3483" lon="5.74621">
        <ele>1021.4</ele>
        <time>2021-12-19T13:34:22Z</time>
      </trkpt>
      <trkpt lat="45.34831" lon="5.74626">
        <ele>1020.7</ele>
        <time>2021-12-19T13:34:23Z</time>
      </trkpt>
      <trkpt lat="45.34832" lon="5.7463">
        <ele>1020.1</ele>
        <time>2021-12-19T13:34:24Z</time>
      </trkpt>
      <trkpt lat="45.34834" lon="5.74634">
        <ele>1019.6</ele>
        <time>2021-12-19T13:34:25Z</time>
      </trkpt>
      <trkpt lat="45.34835" lon="5.74638">
        <ele>1019.1</ele>
        <time>2021-12-19T13:34:26Z</time>
      </trkpt>
      <trkpt lat="45.34835" lon="5.7464">
        <ele>1018.8</ele>
        <time>2021-12-19T13:34:27Z</time>
      </trkpt>
      <trkpt lat="45.34836" lon="5.74641">
        <ele>1018.6</ele>
        <time>2021-12-19T13:34:28Z</time>
      </trkpt>
      <trkpt lat="45.34836" lon="5.74642">
        <ele>1018.6</ele>
        <time>2021-12-19T13:34:29Z</time>
      </trkpt>
      <trkpt lat="45.34836" lon="5.74642">
        <ele>1018.5</ele>
        <time>2021-12-19T13:34:30Z</time>
      </trkpt>
      <trkpt lat="45.34836" lon="5.74643">
        <ele>1018.4</ele>
        <time>2021-12-19T13:34:31Z</time>
      </trkpt>
      <trkpt lat="45.34836" lon="5.74643">
        <ele>1018.3</ele>
        <time>2021-12-19T13:34:32Z</time>
      </trkpt>
      <trkpt lat="45.34836" lon="5.74644">
        <ele>1018.3</ele>
        <time>2021-12-19T13:34:33Z</time>
      </trkpt>
      <trkpt lat="45.34836" lon="5.74644">
        <ele>1018.2</ele>
        <time>2021-12-19T13:34:34Z</time>
      </trkpt>
      <trkpt lat="45.34836" lon="5.74645">
        <ele>1018.1</ele>
        <time>2021-12-19T13:34:35Z</time>
      </trkpt>
      <trkpt lat="45.34836" lon="5.74645">
        <ele>1018.1</ele>
        <time>2021-12-19T13:34:36Z</time>
      </trkpt>
      <trkpt lat="45.34835" lon="5.74645">
        <ele>1018</ele>
        <time>2021-12-19T13:34:37Z</time>
      </trkpt>
      <trkpt lat="45.34836" lon="5.74645">
        <ele>1017.9</ele>
        <time>2021-12-19T13:34:38Z</time>
      </trkpt>
      <trkpt lat="45.34836" lon="5.74645">
        <ele>1017.8</ele>
        <time>2021-12-19T13:34:39Z</time>
      </trkpt>
      <trkpt lat="45.34837" lon="5.74645">
        <ele>1017.7</ele>
        <time>2021-12-19T13:34:40Z</time>
      </trkpt>
      <trkpt lat="45.34837" lon="5.74646">
        <ele>1017.7</ele>
        <time>2021-12-19T13:34:41Z</time>
      </trkpt>
      <trkpt lat="45.34837" lon="5.74646">
        <ele>1017.6</ele>
        <time>2021-12-19T13:34:42Z</time>
      </trkpt>
      <trkpt lat="45.34838" lon="5.74646">
        <ele>1017.6</ele>
        <time>2021-12-19T13:34:43Z</time>
      </trkpt>
      <trkpt lat="45.34837" lon="5.74646">
        <ele>1017.5</ele>
        <time>2021-12-19T13:34:44Z</time>
      </trkpt>
      <trkpt lat="45.34838" lon="5.74645">
        <ele>1017.5</ele>
        <time>2021-12-19T13:34:45Z</time>
      </trkpt>
      <trkpt lat="45.34838" lon="5.74645">
        <ele>1017.4</ele>
        <time>2021-12-19T13:34:46Z</time>
      </trkpt>
      <trkpt lat="45.34838" lon="5.74645">
        <ele>1017.3</ele>
        <time>2021-12-19T13:34:47Z</time>
      </trkpt>
      <trkpt lat="45.34838" lon="5.74645">
        <ele>1017.3</ele>
        <time>2021-12-19T13:34:48Z</time>
      </trkpt>
      <trkpt lat="45.34838" lon="5.74645">
        <ele>1017.3</ele>
        <time>2021-12-19T13:34:49Z</time>
      </trkpt>
      <trkpt lat="45.34837" lon="5.74645">
        <ele>1017.2</ele>
        <time>2021-12-19T13:34:50Z</time>
      </trkpt>
      <trkpt lat="45.34837" lon="5.74645">
        <ele>1017.2</ele>
        <time>2021-12-19T13:34:51Z</time>
      </trkpt>
      <trkpt lat="45.34837" lon="5.74644">
        <ele>1017.1</ele>
        <time>2021-12-19T13:34:52Z</time>
      </trkpt>
      <trkpt lat="45.34836" lon="5.74644">
        <ele>1016.9</ele>
        <time>2021-12-19T13:34:53Z</time>
      </trkpt>
      <trkpt lat="45.34836" lon="5.74644">
        <ele>1016.9</ele>
        <time>2021-12-19T13:34:54Z</time>
      </trkpt>
      <trkpt lat="45.34835" lon="5.74645">
        <ele>1016.8</ele>
        <time>2021-12-19T13:34:55Z</time>
      </trkpt>
      <trkpt lat="45.34835" lon="5.74645">
        <ele>1016.7</ele>
        <time>2021-12-19T13:34:56Z</time>
      </trkpt>
      <trkpt lat="45.34834" lon="5.74645">
        <ele>1016.7</ele>
        <time>2021-12-19T13:34:57Z</time>
      </trkpt>
      <trkpt lat="45.34834" lon="5.74645">
        <ele>1016.7</ele>
        <time>2021-12-19T13:34:58Z</time>
      </trkpt>
      <trkpt lat="45.34835" lon="5.74645">
        <ele>1016.6</ele>
        <time>2021-12-19T13:34:59Z</time>
      </trkpt>
      <trkpt lat="45.34835" lon="5.74645">
        <ele>1016.6</ele>
        <time>2021-12-19T13:35:00Z</time>
      </trkpt>
      <trkpt lat="45.34835" lon="5.74645">
        <ele>1016.5</ele>
        <time>2021-12-19T13:35:01Z</time>
      </trkpt>
      <trkpt lat="45.34836" lon="5.74645">
        <ele>1016.4</ele>
        <time>2021-12-19T13:35:02Z</time>
      </trkpt>
      <trkpt lat="45.34837" lon="5.74646">
        <ele>1016.2</ele>
        <time>2021-12-19T13:35:03Z</time>
      </trkpt>
      <trkpt lat="45.34837" lon="5.74646">
        <ele>1016.2</ele>
        <time>2021-12-19T13:35:04Z</time>
      </trkpt>
      <trkpt lat="45.34837" lon="5.74646">
        <ele>1016.1</ele>
        <time>2021-12-19T13:35:05Z</time>
      </trkpt>
      <trkpt lat="45.34837" lon="5.74645">
        <ele>1016</ele>
        <time>2021-12-19T13:35:06Z</time>
      </trkpt>
      <trkpt lat="45.34837" lon="5.74645">
        <ele>1016</ele>
        <time>2021-12-19T13:35:07Z</time>
      </trkpt>
      <trkpt lat="45.34837" lon="5.74645">
        <ele>1016</ele>
        <time>2021-12-19T13:35:08Z</time>
      </trkpt>
      <trkpt lat="45.34837" lon="5.74645">
        <ele>1015.9</ele>
        <time>2021-12-19T13:35:09Z</time>
      </trkpt>
      <trkpt lat="45.34837" lon="5.74644">
        <ele>1015.9</ele>
        <time>2021-12-19T13:35:10Z</time>
      </trkpt>
      <trkpt lat="45.34836" lon="5.74645">
        <ele>1015.7</ele>
        <time>2021-12-19T13:35:11Z</time>
      </trkpt>
      <trkpt lat="45.34836" lon="5.74644">
        <ele>1015.6</ele>
        <time>2021-12-19T13:35:12Z</time>
      </trkpt>
      <trkpt lat="45.34835" lon="5.74644">
        <ele>1015.6</ele>
        <time>2021-12-19T13:35:13Z</time>
      </trkpt>
      <trkpt lat="45.34835" lon="5.74644">
        <ele>1015.5</ele>
        <time>2021-12-19T13:35:14Z</time>
      </trkpt>
      <trkpt lat="45.34835" lon="5.74644">
        <ele>1015.5</ele>
        <time>2021-12-19T13:35:15Z</time>
      </trkpt>
      <trkpt lat="45.34835" lon="5.74644">
        <ele>1015.5</ele>
        <time>2021-12-19T13:35:16Z</time>
      </trkpt>
      <trkpt lat="45.34835" lon="5.74644">
        <ele>1015.5</ele>
        <time>2021-12-19T13:35:17Z</time>
      </trkpt>
      <trkpt lat="45.34835" lon="5.74644">
        <ele>1015.4</ele>
        <time>2021-12-19T13:35:18Z</time>
      </trkpt>
      <trkpt lat="45.34835" lon="5.74645">
        <ele>1015.3</ele>
        <time>2021-12-19T13:35:19Z</time>
      </trkpt>
      <trkpt lat="45.34835" lon="5.74645">
        <ele>1015.3</ele>
        <time>2021-12-19T13:35:20Z</time>
      </trkpt>
      <trkpt lat="45.34836" lon="5.74646">
        <ele>1015.1</ele>
        <time>2021-12-19T13:35:21Z</time>
      </trkpt>
      <trkpt lat="45.34836" lon="5.74648">
        <ele>1014.9</ele>
        <time>2021-12-19T13:35:22Z</time>
      </trkpt>
      <trkpt lat="45.34837" lon="5.74649">
        <ele>1014.6</ele>
        <time>2021-12-19T13:35:23Z</time>
      </trkpt>
      <trkpt lat="45.34837" lon="5.74651">
        <ele>1014.4</ele>
        <time>2021-12-19T13:35:24Z</time>
      </trkpt>
      <trkpt lat="45.34838" lon="5.74653">
        <ele>1014.2</ele>
        <time>2021-12-19T13:35:25Z</time>
      </trkpt>
      <trkpt lat="45.34839" lon="5.74654">
        <ele>1014</ele>
        <time>2021-12-19T13:35:26Z</time>
      </trkpt>
      <trkpt lat="45.34839" lon="5.74654">
        <ele>1013.9</ele>
        <time>2021-12-19T13:35:27Z</time>
      </trkpt>
      <trkpt lat="45.3484" lon="5.74656">
        <ele>1013.6</ele>
        <time>2021-12-19T13:35:28Z</time>
      </trkpt>
      <trkpt lat="45.3484" lon="5.74658">
        <ele>1013.4</ele>
        <time>2021-12-19T13:35:29Z</time>
      </trkpt>
      <trkpt lat="45.34841" lon="5.7466">
        <ele>1013</ele>
        <time>2021-12-19T13:35:30Z</time>
      </trkpt>
      <trkpt lat="45.34842" lon="5.74662">
        <ele>1012.7</ele>
        <time>2021-12-19T13:35:31Z</time>
      </trkpt>
      <trkpt lat="45.34844" lon="5.74664">
        <ele>1012.4</ele>
        <time>2021-12-19T13:35:32Z</time>
      </trkpt>
      <trkpt lat="45.34845" lon="5.74666">
        <ele>1012</ele>
        <time>2021-12-19T13:35:33Z</time>
      </trkpt>
      <trkpt lat="45.34846" lon="5.74668">
        <ele>1011.7</ele>
        <time>2021-12-19T13:35:34Z</time>
      </trkpt>
      <trkpt lat="45.34847" lon="5.74671">
        <ele>1011.3</ele>
        <time>2021-12-19T13:35:35Z</time>
      </trkpt>
      <trkpt lat="45.34848" lon="5.74673">
        <ele>1010.9</ele>
        <time>2021-12-19T13:35:36Z</time>
      </trkpt>
      <trkpt lat="45.3485" lon="5.74676">
        <ele>1010.5</ele>
        <time>2021-12-19T13:35:37Z</time>
      </trkpt>
      <trkpt lat="45.34851" lon="5.74679">
        <ele>1009.7</ele>
        <time>2021-12-19T13:35:38Z</time>
      </trkpt>
      <trkpt lat="45.34853" lon="5.74683">
        <ele>1009.2</ele>
        <time>2021-12-19T13:35:39Z</time>
      </trkpt>
      <trkpt lat="45.34855" lon="5.74687">
        <ele>1008.7</ele>
        <time>2021-12-19T13:35:40Z</time>
      </trkpt>
      <trkpt lat="45.34856" lon="5.74692">
        <ele>1008.3</ele>
        <time>2021-12-19T13:35:41Z</time>
      </trkpt>
      <trkpt lat="45.34859" lon="5.74696">
        <ele>1007.7</ele>
        <time>2021-12-19T13:35:42Z</time>
      </trkpt>
      <trkpt lat="45.34861" lon="5.74701">
        <ele>1007.2</ele>
        <time>2021-12-19T13:35:43Z</time>
      </trkpt>
      <trkpt lat="45.34863" lon="5.74706">
        <ele>1006.7</ele>
        <time>2021-12-19T13:35:44Z</time>
      </trkpt>
      <trkpt lat="45.34865" lon="5.74712">
        <ele>1006.1</ele>
        <time>2021-12-19T13:35:45Z</time>
      </trkpt>
      <trkpt lat="45.34867" lon="5.74717">
        <ele>1005.7</ele>
        <time>2021-12-19T13:35:46Z</time>
      </trkpt>
      <trkpt lat="45.34868" lon="5.74721">
        <ele>1005.2</ele>
        <time>2021-12-19T13:35:47Z</time>
      </trkpt>
      <trkpt lat="45.34869" lon="5.74725">
        <ele>1004.8</ele>
        <time>2021-12-19T13:35:48Z</time>
      </trkpt>
      <trkpt lat="45.3487" lon="5.74729">
        <ele>1004.4</ele>
        <time>2021-12-19T13:35:49Z</time>
      </trkpt>
      <trkpt lat="45.34872" lon="5.74733">
        <ele>1004</ele>
        <time>2021-12-19T13:35:50Z</time>
      </trkpt>
      <trkpt lat="45.34874" lon="5.74737">
        <ele>1003.5</ele>
        <time>2021-12-19T13:35:51Z</time>
      </trkpt>
      <trkpt lat="45.34875" lon="5.74742">
        <ele>1002.9</ele>
        <time>2021-12-19T13:35:52Z</time>
      </trkpt>
      <trkpt lat="45.34878" lon="5.74746">
        <ele>1002.4</ele>
        <time>2021-12-19T13:35:53Z</time>
      </trkpt>
      <trkpt lat="45.34879" lon="5.7475">
        <ele>1001.8</ele>
        <time>2021-12-19T13:35:54Z</time>
      </trkpt>
      <trkpt lat="45.34881" lon="5.74755">
        <ele>1001.2</ele>
        <time>2021-12-19T13:35:55Z</time>
      </trkpt>
      <trkpt lat="45.34882" lon="5.7476">
        <ele>1000.6</ele>
        <time>2021-12-19T13:35:56Z</time>
      </trkpt>
      <trkpt lat="45.34882" lon="5.74765">
        <ele>999.9</ele>
        <time>2021-12-19T13:35:57Z</time>
      </trkpt>
      <trkpt lat="45.34884" lon="5.74772">
        <ele>999.1</ele>
        <time>2021-12-19T13:35:58Z</time>
      </trkpt>
      <trkpt lat="45.34886" lon="5.74779">
        <ele>998.1</ele>
        <time>2021-12-19T13:35:59Z</time>
      </trkpt>
      <trkpt lat="45.34888" lon="5.74787">
        <ele>997</ele>
        <time>2021-12-19T13:36:00Z</time>
      </trkpt>
      <trkpt lat="45.3489" lon="5.74795">
        <ele>996</ele>
        <time>2021-12-19T13:36:01Z</time>
      </trkpt>
      <trkpt lat="45.3489" lon="5.74802">
        <ele>995.1</ele>
        <time>2021-12-19T13:36:02Z</time>
      </trkpt>
      <trkpt lat="45.3489" lon="5.74809">
        <ele>994.3</ele>
        <time>2021-12-19T13:36:03Z</time>
      </trkpt>
      <trkpt lat="45.34891" lon="5.74815">
        <ele>993.4</ele>
        <time>2021-12-19T13:36:04Z</time>
      </trkpt>
      <trkpt lat="45.34891" lon="5.74821">
        <ele>992.6</ele>
        <time>2021-12-19T13:36:05Z</time>
      </trkpt>
      <trkpt lat="45.34891" lon="5.74827">
        <ele>992</ele>
        <time>2021-12-19T13:36:06Z</time>
      </trkpt>
      <trkpt lat="45.34891" lon="5.74831">
        <ele>991.4</ele>
        <time>2021-12-19T13:36:07Z</time>
      </trkpt>
      <trkpt lat="45.34891" lon="5.74835">
        <ele>990.9</ele>
        <time>2021-12-19T13:36:08Z</time>
      </trkpt>
      <trkpt lat="45.3489" lon="5.74838">
        <ele>990.4</ele>
        <time>2021-12-19T13:36:09Z</time>
      </trkpt>
      <trkpt lat="45.3489" lon="5.74841">
        <ele>990.1</ele>
        <time>2021-12-19T13:36:10Z</time>
      </trkpt>
      <trkpt lat="45.3489" lon="5.74842">
        <ele>989.9</ele>
        <time>2021-12-19T13:36:11Z</time>
      </trkpt>
      <trkpt lat="45.34889" lon="5.74843">
        <ele>989.7</ele>
        <time>2021-12-19T13:36:12Z</time>
      </trkpt>
      <trkpt lat="45.34888" lon="5.74843">
        <ele>989.6</ele>
        <time>2021-12-19T13:36:13Z</time>
      </trkpt>
      <trkpt lat="45.34888" lon="5.74843">
        <ele>989.5</ele>
        <time>2021-12-19T13:36:14Z</time>
      </trkpt>
      <trkpt lat="45.34887" lon="5.74843">
        <ele>989.4</ele>
        <time>2021-12-19T13:36:15Z</time>
      </trkpt>
      <trkpt lat="45.34887" lon="5.74844">
        <ele>989.3</ele>
        <time>2021-12-19T13:36:16Z</time>
      </trkpt>
      <trkpt lat="45.34886" lon="5.74845">
        <ele>989</ele>
        <time>2021-12-19T13:36:17Z</time>
      </trkpt>
      <trkpt lat="45.34885" lon="5.74845">
        <ele>988.8</ele>
        <time>2021-12-19T13:36:18Z</time>
      </trkpt>
      <trkpt lat="45.34884" lon="5.74845">
        <ele>988.6</ele>
        <time>2021-12-19T13:36:19Z</time>
      </trkpt>
      <trkpt lat="45.34884" lon="5.74845">
        <ele>988.5</ele>
        <time>2021-12-19T13:36:20Z</time>
      </trkpt>
      <trkpt lat="45.34883" lon="5.74846">
        <ele>988.4</ele>
        <time>2021-12-19T13:36:21Z</time>
      </trkpt>
      <trkpt lat="45.34883" lon="5.74846">
        <ele>988.3</ele>
        <time>2021-12-19T13:36:22Z</time>
      </trkpt>
      <trkpt lat="45.34882" lon="5.74846">
        <ele>988.2</ele>
        <time>2021-12-19T13:36:23Z</time>
      </trkpt>
      <trkpt lat="45.34882" lon="5.74845">
        <ele>988</ele>
        <time>2021-12-19T13:36:24Z</time>
      </trkpt>
      <trkpt lat="45.34881" lon="5.74845">
        <ele>987.9</ele>
        <time>2021-12-19T13:36:25Z</time>
      </trkpt>
      <trkpt lat="45.34881" lon="5.74845">
        <ele>987.9</ele>
        <time>2021-12-19T13:36:26Z</time>
      </trkpt>
      <trkpt lat="45.34881" lon="5.74845">
        <ele>987.8</ele>
        <time>2021-12-19T13:36:27Z</time>
      </trkpt>
      <trkpt lat="45.34881" lon="5.74845">
        <ele>987.8</ele>
        <time>2021-12-19T13:36:28Z</time>
      </trkpt>
      <trkpt lat="45.34881" lon="5.74845">
        <ele>987.8</ele>
        <time>2021-12-19T13:36:29Z</time>
      </trkpt>
      <trkpt lat="45.34881" lon="5.74845">
        <ele>987.8</ele>
        <time>2021-12-19T13:36:30Z</time>
      </trkpt>
      <trkpt lat="45.34881" lon="5.74845">
        <ele>987.7</ele>
        <time>2021-12-19T13:36:31Z</time>
      </trkpt>
      <trkpt lat="45.34881" lon="5.74845">
        <ele>987.7</ele>
        <time>2021-12-19T13:36:32Z</time>
      </trkpt>
      <trkpt lat="45.34881" lon="5.74845">
        <ele>987.6</ele>
        <time>2021-12-19T13:36:33Z</time>
      </trkpt>
      <trkpt lat="45.34881" lon="5.74845">
        <ele>987.6</ele>
        <time>2021-12-19T13:36:34Z</time>
      </trkpt>
      <trkpt lat="45.34881" lon="5.74845">
        <ele>987.5</ele>
        <time>2021-12-19T13:36:35Z</time>
      </trkpt>
      <trkpt lat="45.34881" lon="5.74845">
        <ele>987.5</ele>
        <time>2021-12-19T13:36:36Z</time>
      </trkpt>
      <trkpt lat="45.34881" lon="5.74845">
        <ele>987.4</ele>
        <time>2021-12-19T13:36:37Z</time>
      </trkpt>
      <trkpt lat="45.34881" lon="5.74845">
        <ele>987.4</ele>
        <time>2021-12-19T13:36:38Z</time>
      </trkpt>
      <trkpt lat="45.34881" lon="5.74845">
        <ele>987.4</ele>
        <time>2021-12-19T13:36:39Z</time>
      </trkpt>
      <trkpt lat="45.34881" lon="5.74845">
        <ele>987.4</ele>
        <time>2021-12-19T13:36:40Z</time>
      </trkpt>
      <trkpt lat="45.34881" lon="5.74845">
        <ele>987.3</ele>
        <time>2021-12-19T13:36:41Z</time>
      </trkpt>
      <trkpt lat="45.3488" lon="5.74845">
        <ele>987.1</ele>
        <time>2021-12-19T13:36:42Z</time>
      </trkpt>
      <trkpt lat="45.34879" lon="5.74845">
        <ele>987</ele>
        <time>2021-12-19T13:36:43Z</time>
      </trkpt>
      <trkpt lat="45.34879" lon="5.74845">
        <ele>986.8</ele>
        <time>2021-12-19T13:36:44Z</time>
      </trkpt>
      <trkpt lat="45.34879" lon="5.74846">
        <ele>986.7</ele>
        <time>2021-12-19T13:36:45Z</time>
      </trkpt>
      <trkpt lat="45.34879" lon="5.74846">
        <ele>986.6</ele>
        <time>2021-12-19T13:36:46Z</time>
      </trkpt>
      <trkpt lat="45.34878" lon="5.74846">
        <ele>986.5</ele>
        <time>2021-12-19T13:36:47Z</time>
      </trkpt>
      <trkpt lat="45.34878" lon="5.74846">
        <ele>986.5</ele>
        <time>2021-12-19T13:36:48Z</time>
      </trkpt>
      <trkpt lat="45.34878" lon="5.74846">
        <ele>986.5</ele>
        <time>2021-12-19T13:36:49Z</time>
      </trkpt>
      <trkpt lat="45.34878" lon="5.74846">
        <ele>986.4</ele>
        <time>2021-12-19T13:36:50Z</time>
      </trkpt>
      <trkpt lat="45.34879" lon="5.74846">
        <ele>986.3</ele>
        <time>2021-12-19T13:36:51Z</time>
      </trkpt>
      <trkpt lat="45.34879" lon="5.74846">
        <ele>986.2</ele>
        <time>2021-12-19T13:36:52Z</time>
      </trkpt>
      <trkpt lat="45.34879" lon="5.74846">
        <ele>986.2</ele>
        <time>2021-12-19T13:36:53Z</time>
      </trkpt>
      <trkpt lat="45.34879" lon="5.74846">
        <ele>986.1</ele>
        <time>2021-12-19T13:36:54Z</time>
      </trkpt>
      <trkpt lat="45.34879" lon="5.74847">
        <ele>986</ele>
        <time>2021-12-19T13:36:55Z</time>
      </trkpt>
      <trkpt lat="45.34879" lon="5.74847">
        <ele>986</ele>
        <time>2021-12-19T13:36:56Z</time>
      </trkpt>
      <trkpt lat="45.34879" lon="5.74847">
        <ele>986</ele>
        <time>2021-12-19T13:36:57Z</time>
      </trkpt>
      <trkpt lat="45.34879" lon="5.74847">
        <ele>986</ele>
        <time>2021-12-19T13:36:58Z</time>
      </trkpt>
      <trkpt lat="45.34879" lon="5.74847">
        <ele>985.9</ele>
        <time>2021-12-19T13:36:59Z</time>
      </trkpt>
      <trkpt lat="45.34879" lon="5.74847">
        <ele>985.9</ele>
        <time>2021-12-19T13:37:00Z</time>
      </trkpt>
      <trkpt lat="45.34879" lon="5.74847">
        <ele>985.8</ele>
        <time>2021-12-19T13:37:01Z</time>
      </trkpt>
      <trkpt lat="45.34879" lon="5.74847">
        <ele>985.7</ele>
        <time>2021-12-19T13:37:02Z</time>
      </trkpt>
      <trkpt lat="45.34877" lon="5.74847">
        <ele>985.3</ele>
        <time>2021-12-19T13:37:03Z</time>
      </trkpt>
      <trkpt lat="45.34876" lon="5.74849">
        <ele>984.8</ele>
        <time>2021-12-19T13:37:04Z</time>
      </trkpt>
      <trkpt lat="45.34874" lon="5.7485">
        <ele>984.2</ele>
        <time>2021-12-19T13:37:05Z</time>
      </trkpt>
      <trkpt lat="45.34874" lon="5.74852">
        <ele>983.8</ele>
        <time>2021-12-19T13:37:06Z</time>
      </trkpt>
      <trkpt lat="45.34873" lon="5.74854">
        <ele>983.4</ele>
        <time>2021-12-19T13:37:07Z</time>
      </trkpt>
      <trkpt lat="45.34872" lon="5.74855">
        <ele>982.9</ele>
        <time>2021-12-19T13:37:08Z</time>
      </trkpt>
      <trkpt lat="45.3487" lon="5.74858">
        <ele>982.2</ele>
        <time>2021-12-19T13:37:09Z</time>
      </trkpt>
      <trkpt lat="45.34867" lon="5.74861">
        <ele>981.2</ele>
        <time>2021-12-19T13:37:10Z</time>
      </trkpt>
      <trkpt lat="45.34863" lon="5.74865">
        <ele>979.7</ele>
        <time>2021-12-19T13:37:11Z</time>
      </trkpt>
      <trkpt lat="45.3486" lon="5.74868">
        <ele>977.9</ele>
        <time>2021-12-19T13:37:12Z</time>
      </trkpt>
      <trkpt lat="45.34857" lon="5.74873">
        <ele>977.4</ele>
        <time>2021-12-19T13:37:13Z</time>
      </trkpt>
      <trkpt lat="45.34855" lon="5.74877">
        <ele>977.1</ele>
        <time>2021-12-19T13:37:14Z</time>
      </trkpt>
      <trkpt lat="45.34854" lon="5.7488">
        <ele>976.9</ele>
        <time>2021-12-19T13:37:15Z</time>
      </trkpt>
      <trkpt lat="45.34853" lon="5.74883">
        <ele>976.6</ele>
        <time>2021-12-19T13:37:16Z</time>
      </trkpt>
      <trkpt lat="45.34853" lon="5.74886">
        <ele>976.4</ele>
        <time>2021-12-19T13:37:17Z</time>
      </trkpt>
      <trkpt lat="45.34853" lon="5.74889">
        <ele>976.3</ele>
        <time>2021-12-19T13:37:18Z</time>
      </trkpt>
      <trkpt lat="45.34853" lon="5.7489">
        <ele>976.2</ele>
        <time>2021-12-19T13:37:19Z</time>
      </trkpt>
      <trkpt lat="45.34853" lon="5.74892">
        <ele>976.1</ele>
        <time>2021-12-19T13:37:20Z</time>
      </trkpt>
      <trkpt lat="45.34853" lon="5.74894">
        <ele>975.9</ele>
        <time>2021-12-19T13:37:21Z</time>
      </trkpt>
      <trkpt lat="45.34852" lon="5.74898">
        <ele>975.6</ele>
        <time>2021-12-19T13:37:22Z</time>
      </trkpt>
      <trkpt lat="45.34851" lon="5.74901">
        <ele>975.3</ele>
        <time>2021-12-19T13:37:23Z</time>
      </trkpt>
      <trkpt lat="45.3485" lon="5.74905">
        <ele>975</ele>
        <time>2021-12-19T13:37:24Z</time>
      </trkpt>
      <trkpt lat="45.34849" lon="5.74909">
        <ele>974.7</ele>
        <time>2021-12-19T13:37:25Z</time>
      </trkpt>
      <trkpt lat="45.34847" lon="5.74912">
        <ele>974.4</ele>
        <time>2021-12-19T13:37:26Z</time>
      </trkpt>
      <trkpt lat="45.34846" lon="5.74916">
        <ele>974.1</ele>
        <time>2021-12-19T13:37:27Z</time>
      </trkpt>
      <trkpt lat="45.34844" lon="5.7492">
        <ele>973.7</ele>
        <time>2021-12-19T13:37:28Z</time>
      </trkpt>
      <trkpt lat="45.34843" lon="5.74925">
        <ele>973.2</ele>
        <time>2021-12-19T13:37:29Z</time>
      </trkpt>
      <trkpt lat="45.34842" lon="5.74931">
        <ele>972.7</ele>
        <time>2021-12-19T13:37:30Z</time>
      </trkpt>
      <trkpt lat="45.34842" lon="5.74937">
        <ele>972.2</ele>
        <time>2021-12-19T13:37:31Z</time>
      </trkpt>
      <trkpt lat="45.34843" lon="5.74942">
        <ele>971.6</ele>
        <time>2021-12-19T13:37:32Z</time>
      </trkpt>
      <trkpt lat="45.34846" lon="5.74945">
        <ele>971.1</ele>
        <time>2021-12-19T13:37:33Z</time>
      </trkpt>
      <trkpt lat="45.3485" lon="5.74945">
        <ele>970.6</ele>
        <time>2021-12-19T13:37:34Z</time>
      </trkpt>
      <trkpt lat="45.34854" lon="5.74944">
        <ele>969.6</ele>
        <time>2021-12-19T13:37:35Z</time>
      </trkpt>
      <trkpt lat="45.34859" lon="5.74939">
        <ele>969.6</ele>
        <time>2021-12-19T13:37:36Z</time>
      </trkpt>
      <trkpt lat="45.34863" lon="5.74935">
        <ele>969.7</ele>
        <time>2021-12-19T13:37:37Z</time>
      </trkpt>
      <trkpt lat="45.34867" lon="5.74931">
        <ele>969.7</ele>
        <time>2021-12-19T13:37:38Z</time>
      </trkpt>
      <trkpt lat="45.34871" lon="5.74928">
        <ele>969.7</ele>
        <time>2021-12-19T13:37:39Z</time>
      </trkpt>
      <trkpt lat="45.34874" lon="5.74925">
        <ele>969.8</ele>
        <time>2021-12-19T13:37:40Z</time>
      </trkpt>
      <trkpt lat="45.34877" lon="5.74923">
        <ele>969.8</ele>
        <time>2021-12-19T13:37:41Z</time>
      </trkpt>
      <trkpt lat="45.34879" lon="5.74922">
        <ele>969.8</ele>
        <time>2021-12-19T13:37:42Z</time>
      </trkpt>
      <trkpt lat="45.34881" lon="5.7492">
        <ele>969.9</ele>
        <time>2021-12-19T13:37:43Z</time>
      </trkpt>
      <trkpt lat="45.34883" lon="5.74918">
        <ele>969.9</ele>
        <time>2021-12-19T13:37:44Z</time>
      </trkpt>
      <trkpt lat="45.34885" lon="5.74917">
        <ele>969.9</ele>
        <time>2021-12-19T13:37:45Z</time>
      </trkpt>
      <trkpt lat="45.34888" lon="5.74915">
        <ele>969.9</ele>
        <time>2021-12-19T13:37:46Z</time>
      </trkpt>
      <trkpt lat="45.34891" lon="5.74914">
        <ele>969.9</ele>
        <time>2021-12-19T13:37:47Z</time>
      </trkpt>
      <trkpt lat="45.34893" lon="5.74912">
        <ele>970</ele>
        <time>2021-12-19T13:37:48Z</time>
      </trkpt>
      <trkpt lat="45.34896" lon="5.7491">
        <ele>970</ele>
        <time>2021-12-19T13:37:49Z</time>
      </trkpt>
      <trkpt lat="45.34898" lon="5.74908">
        <ele>970</ele>
        <time>2021-12-19T13:37:50Z</time>
      </trkpt>
      <trkpt lat="45.349" lon="5.74904">
        <ele>970</ele>
        <time>2021-12-19T13:37:51Z</time>
      </trkpt>
      <trkpt lat="45.34902" lon="5.749">
        <ele>970</ele>
        <time>2021-12-19T13:37:52Z</time>
      </trkpt>
      <trkpt lat="45.34904" lon="5.74896">
        <ele>970.1</ele>
        <time>2021-12-19T13:37:53Z</time>
      </trkpt>
      <trkpt lat="45.34906" lon="5.74893">
        <ele>970.1</ele>
        <time>2021-12-19T13:37:54Z</time>
      </trkpt>
      <trkpt lat="45.34907" lon="5.74889">
        <ele>970.1</ele>
        <time>2021-12-19T13:37:55Z</time>
      </trkpt>
      <trkpt lat="45.34909" lon="5.74885">
        <ele>970.2</ele>
        <time>2021-12-19T13:37:56Z</time>
      </trkpt>
      <trkpt lat="45.3491" lon="5.7488">
        <ele>970.2</ele>
        <time>2021-12-19T13:37:57Z</time>
      </trkpt>
      <trkpt lat="45.3491" lon="5.74876">
        <ele>970.2</ele>
        <time>2021-12-19T13:37:58Z</time>
      </trkpt>
      <trkpt lat="45.3491" lon="5.74873">
        <ele>970.3</ele>
        <time>2021-12-19T13:37:59Z</time>
      </trkpt>
      <trkpt lat="45.34911" lon="5.74869">
        <ele>970.3</ele>
        <time>2021-12-19T13:38:00Z</time>
      </trkpt>
      <trkpt lat="45.34911" lon="5.74865">
        <ele>970.3</ele>
        <time>2021-12-19T13:38:01Z</time>
      </trkpt>
      <trkpt lat="45.34911" lon="5.74862">
        <ele>970.3</ele>
        <time>2021-12-19T13:38:02Z</time>
      </trkpt>
      <trkpt lat="45.34911" lon="5.74859">
        <ele>970.4</ele>
        <time>2021-12-19T13:38:03Z</time>
      </trkpt>
      <trkpt lat="45.34911" lon="5.74854">
        <ele>970.4</ele>
        <time>2021-12-19T13:38:04Z</time>
      </trkpt>
      <trkpt lat="45.34911" lon="5.74851">
        <ele>970.4</ele>
        <time>2021-12-19T13:38:05Z</time>
      </trkpt>
      <trkpt lat="45.3491" lon="5.74847">
        <ele>970.5</ele>
        <time>2021-12-19T13:38:06Z</time>
      </trkpt>
      <trkpt lat="45.3491" lon="5.74844">
        <ele>970.5</ele>
        <time>2021-12-19T13:38:07Z</time>
      </trkpt>
      <trkpt lat="45.34909" lon="5.7484">
        <ele>970.5</ele>
        <time>2021-12-19T13:38:08Z</time>
      </trkpt>
      <trkpt lat="45.34908" lon="5.74837">
        <ele>970.6</ele>
        <time>2021-12-19T13:38:09Z</time>
      </trkpt>
      <trkpt lat="45.34908" lon="5.74834">
        <ele>970.6</ele>
        <time>2021-12-19T13:38:10Z</time>
      </trkpt>
      <trkpt lat="45.34907" lon="5.7483">
        <ele>970.6</ele>
        <time>2021-12-19T13:38:11Z</time>
      </trkpt>
      <trkpt lat="45.34906" lon="5.74826">
        <ele>970.6</ele>
        <time>2021-12-19T13:38:12Z</time>
      </trkpt>
      <trkpt lat="45.34904" lon="5.74823">
        <ele>970.7</ele>
        <time>2021-12-19T13:38:13Z</time>
      </trkpt>
      <trkpt lat="45.34903" lon="5.74819">
        <ele>970.7</ele>
        <time>2021-12-19T13:38:14Z</time>
      </trkpt>
      <trkpt lat="45.34902" lon="5.74815">
        <ele>970.7</ele>
        <time>2021-12-19T13:38:15Z</time>
      </trkpt>
      <trkpt lat="45.34901" lon="5.74812">
        <ele>970.7</ele>
        <time>2021-12-19T13:38:16Z</time>
      </trkpt>
      <trkpt lat="45.34901" lon="5.74807">
        <ele>970.8</ele>
        <time>2021-12-19T13:38:17Z</time>
      </trkpt>
      <trkpt lat="45.349" lon="5.74803">
        <ele>970.8</ele>
        <time>2021-12-19T13:38:18Z</time>
      </trkpt>
      <trkpt lat="45.34899" lon="5.74799">
        <ele>970.8</ele>
        <time>2021-12-19T13:38:19Z</time>
      </trkpt>
      <trkpt lat="45.34898" lon="5.74795">
        <ele>970.9</ele>
        <time>2021-12-19T13:38:20Z</time>
      </trkpt>
      <trkpt lat="45.34898" lon="5.7479">
        <ele>970.9</ele>
        <time>2021-12-19T13:38:21Z</time>
      </trkpt>
      <trkpt lat="45.34896" lon="5.74786">
        <ele>970.9</ele>
        <time>2021-12-19T13:38:22Z</time>
      </trkpt>
      <trkpt lat="45.34895" lon="5.74783">
        <ele>971</ele>
        <time>2021-12-19T13:38:23Z</time>
      </trkpt>
      <trkpt lat="45.34893" lon="5.74779">
        <ele>971</ele>
        <time>2021-12-19T13:38:24Z</time>
      </trkpt>
      <trkpt lat="45.34893" lon="5.74775">
        <ele>971</ele>
        <time>2021-12-19T13:38:25Z</time>
      </trkpt>
      <trkpt lat="45.34892" lon="5.7477">
        <ele>971</ele>
        <time>2021-12-19T13:38:26Z</time>
      </trkpt>
      <trkpt lat="45.34891" lon="5.74766">
        <ele>971.1</ele>
        <time>2021-12-19T13:38:27Z</time>
      </trkpt>
      <trkpt lat="45.34891" lon="5.74761">
        <ele>971.1</ele>
        <time>2021-12-19T13:38:28Z</time>
      </trkpt>
      <trkpt lat="45.34891" lon="5.74757">
        <ele>971.1</ele>
        <time>2021-12-19T13:38:29Z</time>
      </trkpt>
      <trkpt lat="45.34891" lon="5.74753">
        <ele>971.1</ele>
        <time>2021-12-19T13:38:30Z</time>
      </trkpt>
      <trkpt lat="45.3489" lon="5.74749">
        <ele>971.1</ele>
        <time>2021-12-19T13:38:31Z</time>
      </trkpt>
      <trkpt lat="45.3489" lon="5.74745">
        <ele>971.2</ele>
        <time>2021-12-19T13:38:32Z</time>
      </trkpt>
      <trkpt lat="45.3489" lon="5.74742">
        <ele>971.2</ele>
        <time>2021-12-19T13:38:33Z</time>
      </trkpt>
      <trkpt lat="45.34889" lon="5.74738">
        <ele>971.2</ele>
        <time>2021-12-19T13:38:34Z</time>
      </trkpt>
      <trkpt lat="45.34889" lon="5.74734">
        <ele>971.2</ele>
        <time>2021-12-19T13:38:35Z</time>
      </trkpt>
      <trkpt lat="45.34889" lon="5.7473">
        <ele>971.2</ele>
        <time>2021-12-19T13:38:36Z</time>
      </trkpt>
      <trkpt lat="45.34888" lon="5.74726">
        <ele>971.2</ele>
        <time>2021-12-19T13:38:37Z</time>
      </trkpt>
      <trkpt lat="45.34888" lon="5.74722">
        <ele>971.2</ele>
        <time>2021-12-19T13:38:38Z</time>
      </trkpt>
      <trkpt lat="45.34887" lon="5.74717">
        <ele>971.3</ele>
        <time>2021-12-19T13:38:39Z</time>
      </trkpt>
      <trkpt lat="45.34887" lon="5.74713">
        <ele>971.3</ele>
        <time>2021-12-19T13:38:40Z</time>
      </trkpt>
      <trkpt lat="45.34887" lon="5.74709">
        <ele>971.3</ele>
        <time>2021-12-19T13:38:41Z</time>
      </trkpt>
      <trkpt lat="45.34887" lon="5.74706">
        <ele>971.3</ele>
        <time>2021-12-19T13:38:42Z</time>
      </trkpt>
      <trkpt lat="45.34887" lon="5.74701">
        <ele>971.3</ele>
        <time>2021-12-19T13:38:43Z</time>
      </trkpt>
      <trkpt lat="45.34887" lon="5.74698">
        <ele>971.3</ele>
        <time>2021-12-19T13:38:44Z</time>
      </trkpt>
      <trkpt lat="45.34888" lon="5.74693">
        <ele>971.3</ele>
        <time>2021-12-19T13:38:45Z</time>
      </trkpt>
      <trkpt lat="45.34887" lon="5.74689">
        <ele>971.3</ele>
        <time>2021-12-19T13:38:46Z</time>
      </trkpt>
      <trkpt lat="45.34888" lon="5.74685">
        <ele>971.4</ele>
        <time>2021-12-19T13:38:47Z</time>
      </trkpt>
      <trkpt lat="45.34888" lon="5.74681">
        <ele>971.4</ele>
        <time>2021-12-19T13:38:48Z</time>
      </trkpt>
      <trkpt lat="45.34889" lon="5.74678">
        <ele>971.4</ele>
        <time>2021-12-19T13:38:49Z</time>
      </trkpt>
      <trkpt lat="45.34889" lon="5.74674">
        <ele>971.4</ele>
        <time>2021-12-19T13:38:50Z</time>
      </trkpt>
      <trkpt lat="45.34891" lon="5.74672">
        <ele>971.5</ele>
        <time>2021-12-19T13:38:51Z</time>
      </trkpt>
      <trkpt lat="45.34892" lon="5.74668">
        <ele>971.5</ele>
        <time>2021-12-19T13:38:52Z</time>
      </trkpt>
      <trkpt lat="45.34893" lon="5.74665">
        <ele>971.5</ele>
        <time>2021-12-19T13:38:53Z</time>
      </trkpt>
      <trkpt lat="45.34894" lon="5.74662">
        <ele>971.5</ele>
        <time>2021-12-19T13:38:54Z</time>
      </trkpt>
      <trkpt lat="45.34895" lon="5.7466">
        <ele>971.6</ele>
        <time>2021-12-19T13:38:55Z</time>
      </trkpt>
      <trkpt lat="45.34895" lon="5.74657">
        <ele>971.6</ele>
        <time>2021-12-19T13:38:56Z</time>
      </trkpt>
      <trkpt lat="45.34896" lon="5.74654">
        <ele>971.6</ele>
        <time>2021-12-19T13:38:57Z</time>
      </trkpt>
      <trkpt lat="45.34897" lon="5.74651">
        <ele>971.7</ele>
        <time>2021-12-19T13:38:58Z</time>
      </trkpt>
      <trkpt lat="45.34898" lon="5.74648">
        <ele>971.7</ele>
        <time>2021-12-19T13:38:59Z</time>
      </trkpt>
      <trkpt lat="45.34899" lon="5.74645">
        <ele>971.8</ele>
        <time>2021-12-19T13:39:00Z</time>
      </trkpt>
      <trkpt lat="45.34899" lon="5.74641">
        <ele>971.8</ele>
        <time>2021-12-19T13:39:01Z</time>
      </trkpt>
      <trkpt lat="45.349" lon="5.74638">
        <ele>971.9</ele>
        <time>2021-12-19T13:39:02Z</time>
      </trkpt>
      <trkpt lat="45.349" lon="5.74635">
        <ele>971.9</ele>
        <time>2021-12-19T13:39:03Z</time>
      </trkpt>
      <trkpt lat="45.349" lon="5.74633">
        <ele>971.9</ele>
        <time>2021-12-19T13:39:04Z</time>
      </trkpt>
      <trkpt lat="45.349" lon="5.74632">
        <ele>971.9</ele>
        <time>2021-12-19T13:39:05Z</time>
      </trkpt>
      <trkpt lat="45.34901" lon="5.74632">
        <ele>971.9</ele>
        <time>2021-12-19T13:39:06Z</time>
      </trkpt>
      <trkpt lat="45.34901" lon="5.74632">
        <ele>971.9</ele>
        <time>2021-12-19T13:39:07Z</time>
      </trkpt>
      <trkpt lat="45.34901" lon="5.74631">
        <ele>971.9</ele>
        <time>2021-12-19T13:39:08Z</time>
      </trkpt>
      <trkpt lat="45.34902" lon="5.74631">
        <ele>971.9</ele>
        <time>2021-12-19T13:39:09Z</time>
      </trkpt>
      <trkpt lat="45.34902" lon="5.74631">
        <ele>971.9</ele>
        <time>2021-12-19T13:39:10Z</time>
      </trkpt>
      <trkpt lat="45.34902" lon="5.74631">
        <ele>971.9</ele>
        <time>2021-12-19T13:39:11Z</time>
      </trkpt>
      <trkpt lat="45.34903" lon="5.74631">
        <ele>972</ele>
        <time>2021-12-19T13:39:12Z</time>
      </trkpt>
      <trkpt lat="45.34904" lon="5.74631">
        <ele>972</ele>
        <time>2021-12-19T13:39:13Z</time>
      </trkpt>
      <trkpt lat="45.34904" lon="5.74631">
        <ele>972</ele>
        <time>2021-12-19T13:39:14Z</time>
      </trkpt>
      <trkpt lat="45.34904" lon="5.74631">
        <ele>972</ele>
        <time>2021-12-19T13:39:15Z</time>
      </trkpt>
      <trkpt lat="45.34905" lon="5.74631">
        <ele>972</ele>
        <time>2021-12-19T13:39:16Z</time>
      </trkpt>
      <trkpt lat="45.34905" lon="5.74631">
        <ele>972</ele>
        <time>2021-12-19T13:39:17Z</time>
      </trkpt>
      <trkpt lat="45.34906" lon="5.74631">
        <ele>972</ele>
        <time>2021-12-19T13:39:18Z</time>
      </trkpt>
      <trkpt lat="45.34905" lon="5.74631">
        <ele>972</ele>
        <time>2021-12-19T13:39:19Z</time>
      </trkpt>
      <trkpt lat="45.34905" lon="5.74631">
        <ele>972</ele>
        <time>2021-12-19T13:39:20Z</time>
      </trkpt>
      <trkpt lat="45.34905" lon="5.74631">
        <ele>972</ele>
        <time>2021-12-19T13:39:21Z</time>
      </trkpt>
      <trkpt lat="45.34905" lon="5.74631">
        <ele>972</ele>
        <time>2021-12-19T13:39:22Z</time>
      </trkpt>
      <trkpt lat="45.34905" lon="5.74631">
        <ele>972</ele>
        <time>2021-12-19T13:39:23Z</time>
      </trkpt>
      <trkpt lat="45.34905" lon="5.74631">
        <ele>972</ele>
        <time>2021-12-19T13:39:24Z</time>
      </trkpt>
      <trkpt lat="45.34905" lon="5.74631">
        <ele>972</ele>
        <time>2021-12-19T13:39:25Z</time>
      </trkpt>
      <trkpt lat="45.34905" lon="5.74631">
        <ele>972</ele>
        <time>2021-12-19T13:39:26Z</time>
      </trkpt>
      <trkpt lat="45.34904" lon="5.74631">
        <ele>972</ele>
        <time>2021-12-19T13:39:27Z</time>
      </trkpt>
      <trkpt lat="45.34904" lon="5.74631">
        <ele>972</ele>
        <time>2021-12-19T13:39:28Z</time>
      </trkpt>
      <trkpt lat="45.34903" lon="5.74631">
        <ele>972</ele>
        <time>2021-12-19T13:39:29Z</time>
      </trkpt>
      <trkpt lat="45.34903" lon="5.74631">
        <ele>972</ele>
        <time>2021-12-19T13:39:30Z</time>
      </trkpt>
      <trkpt lat="45.34903" lon="5.7463">
        <ele>972</ele>
        <time>2021-12-19T13:39:31Z</time>
      </trkpt>
      <trkpt lat="45.34903" lon="5.7463">
        <ele>972</ele>
        <time>2021-12-19T13:39:32Z</time>
      </trkpt>
      <trkpt lat="45.34904" lon="5.7463">
        <ele>972</ele>
        <time>2021-12-19T13:39:33Z</time>
      </trkpt>
      <trkpt lat="45.34904" lon="5.74629">
        <ele>972</ele>
        <time>2021-12-19T13:39:34Z</time>
      </trkpt>
      <trkpt lat="45.34903" lon="5.74629">
        <ele>972</ele>
        <time>2021-12-19T13:39:35Z</time>
      </trkpt>
      <trkpt lat="45.34903" lon="5.74629">
        <ele>972</ele>
        <time>2021-12-19T13:39:36Z</time>
      </trkpt>
      <trkpt lat="45.34902" lon="5.74627">
        <ele>972</ele>
        <time>2021-12-19T13:39:37Z</time>
      </trkpt>
      <trkpt lat="45.34902" lon="5.74627">
        <ele>972</ele>
        <time>2021-12-19T13:39:38Z</time>
      </trkpt>
      <trkpt lat="45.34902" lon="5.74627">
        <ele>972</ele>
        <time>2021-12-19T13:39:39Z</time>
      </trkpt>
      <trkpt lat="45.34902" lon="5.74627">
        <ele>972</ele>
        <time>2021-12-19T13:39:40Z</time>
      </trkpt>
      <trkpt lat="45.34902" lon="5.74627">
        <ele>972</ele>
        <time>2021-12-19T13:39:41Z</time>
      </trkpt>
      <trkpt lat="45.34902" lon="5.74627">
        <ele>972</ele>
        <time>2021-12-19T13:39:42Z</time>
      </trkpt>
      <trkpt lat="45.34903" lon="5.74627">
        <ele>972</ele>
        <time>2021-12-19T13:39:43Z</time>
      </trkpt>
      <trkpt lat="45.34903" lon="5.74627">
        <ele>972</ele>
        <time>2021-12-19T13:39:44Z</time>
      </trkpt>
      <trkpt lat="45.34904" lon="5.74627">
        <ele>972</ele>
        <time>2021-12-19T13:39:45Z</time>
      </trkpt>
      <trkpt lat="45.34904" lon="5.74627">
        <ele>972</ele>
        <time>2021-12-19T13:39:46Z</time>
      </trkpt>
      <trkpt lat="45.34905" lon="5.74626">
        <ele>972</ele>
        <time>2021-12-19T13:39:47Z</time>
      </trkpt>
      <trkpt lat="45.34906" lon="5.74626">
        <ele>972</ele>
        <time>2021-12-19T13:39:48Z</time>
      </trkpt>
      <trkpt lat="45.34906" lon="5.74625">
        <ele>972</ele>
        <time>2021-12-19T13:39:49Z</time>
      </trkpt>
      <trkpt lat="45.34906" lon="5.74625">
        <ele>972</ele>
        <time>2021-12-19T13:39:50Z</time>
      </trkpt>
      <trkpt lat="45.34906" lon="5.74626">
        <ele>972</ele>
        <time>2021-12-19T13:39:51Z</time>
      </trkpt>
      <trkpt lat="45.34906" lon="5.74626">
        <ele>972</ele>
        <time>2021-12-19T13:39:52Z</time>
      </trkpt>
      <trkpt lat="45.34907" lon="5.74627">
        <ele>972</ele>
        <time>2021-12-19T13:39:53Z</time>
      </trkpt>
      <trkpt lat="45.34907" lon="5.74627">
        <ele>972</ele>
        <time>2021-12-19T13:39:54Z</time>
      </trkpt>
      <trkpt lat="45.34907" lon="5.74627">
        <ele>972</ele>
        <time>2021-12-19T13:39:55Z</time>
      </trkpt>
      <trkpt lat="45.34907" lon="5.74627">
        <ele>972</ele>
        <time>2021-12-19T13:39:56Z</time>
      </trkpt>
      <trkpt lat="45.34907" lon="5.74628">
        <ele>972</ele>
        <time>2021-12-19T13:39:57Z</time>
      </trkpt>
      <trkpt lat="45.34907" lon="5.74628">
        <ele>972</ele>
        <time>2021-12-19T13:39:58Z</time>
      </trkpt>
      <trkpt lat="45.34908" lon="5.74628">
        <ele>972</ele>
        <time>2021-12-19T13:39:59Z</time>
      </trkpt>
      <trkpt lat="45.34908" lon="5.74628">
        <ele>972</ele>
        <time>2021-12-19T13:40:00Z</time>
      </trkpt>
      <trkpt lat="45.34907" lon="5.74629">
        <ele>972</ele>
        <time>2021-12-19T13:40:01Z</time>
      </trkpt>
      <trkpt lat="45.34907" lon="5.74629">
        <ele>972</ele>
        <time>2021-12-19T13:40:02Z</time>
      </trkpt>
      <trkpt lat="45.34907" lon="5.74629">
        <ele>972</ele>
        <time>2021-12-19T13:40:03Z</time>
      </trkpt>
      <trkpt lat="45.34907" lon="5.74629">
        <ele>972</ele>
        <time>2021-12-19T13:40:04Z</time>
      </trkpt>
      <trkpt lat="45.34907" lon="5.74629">
        <ele>972</ele>
        <time>2021-12-19T13:40:05Z</time>
      </trkpt>
      <trkpt lat="45.34907" lon="5.74629">
        <ele>972</ele>
        <time>2021-12-19T13:40:06Z</time>
      </trkpt>
      <trkpt lat="45.34907" lon="5.74629">
        <ele>972</ele>
        <time>2021-12-19T13:40:07Z</time>
      </trkpt>
      <trkpt lat="45.34907" lon="5.7463">
        <ele>972</ele>
        <time>2021-12-19T13:40:08Z</time>
      </trkpt>
      <trkpt lat="45.34907" lon="5.7463">
        <ele>972</ele>
        <time>2021-12-19T13:40:09Z</time>
      </trkpt>
      <trkpt lat="45.34907" lon="5.74629">
        <ele>972</ele>
        <time>2021-12-19T13:40:10Z</time>
      </trkpt>
      <trkpt lat="45.34907" lon="5.74629">
        <ele>972</ele>
        <time>2021-12-19T13:40:11Z</time>
      </trkpt>
      <trkpt lat="45.34907" lon="5.7463">
        <ele>972</ele>
        <time>2021-12-19T13:40:12Z</time>
      </trkpt>
      <trkpt lat="45.34907" lon="5.74631">
        <ele>972</ele>
        <time>2021-12-19T13:40:13Z</time>
      </trkpt>
      <trkpt lat="45.34907" lon="5.74631">
        <ele>972</ele>
        <time>2021-12-19T13:40:14Z</time>
      </trkpt>
      <trkpt lat="45.34907" lon="5.74631">
        <ele>972</ele>
        <time>2021-12-19T13:40:15Z</time>
      </trkpt>
      <trkpt lat="45.34907" lon="5.74631">
        <ele>972</ele>
        <time>2021-12-19T13:40:16Z</time>
      </trkpt>
      <trkpt lat="45.34906" lon="5.74632">
        <ele>972</ele>
        <time>2021-12-19T13:40:17Z</time>
      </trkpt>
      <trkpt lat="45.34906" lon="5.74632">
        <ele>972</ele>
        <time>2021-12-19T13:40:18Z</time>
      </trkpt>
      <trkpt lat="45.34906" lon="5.74632">
        <ele>972</ele>
        <time>2021-12-19T13:40:19Z</time>
      </trkpt>
      <trkpt lat="45.34906" lon="5.74631">
        <ele>972</ele>
        <time>2021-12-19T13:40:20Z</time>
      </trkpt>
      <trkpt lat="45.34905" lon="5.74631">
        <ele>972</ele>
        <time>2021-12-19T13:40:21Z</time>
      </trkpt>
      <trkpt lat="45.34905" lon="5.74631">
        <ele>972</ele>
        <time>2021-12-19T13:40:22Z</time>
      </trkpt>
      <trkpt lat="45.34905" lon="5.74631">
        <ele>972</ele>
        <time>2021-12-19T13:40:23Z</time>
      </trkpt>
      <trkpt lat="45.34905" lon="5.74631">
        <ele>972</ele>
        <time>2021-12-19T13:40:24Z</time>
      </trkpt>
      <trkpt lat="45.34905" lon="5.74631">
        <ele>972</ele>
        <time>2021-12-19T13:40:25Z</time>
      </trkpt>
      <trkpt lat="45.34905" lon="5.7463">
        <ele>972</ele>
        <time>2021-12-19T13:40:26Z</time>
      </trkpt>
      <trkpt lat="45.34905" lon="5.7463">
        <ele>972</ele>
        <time>2021-12-19T13:40:27Z</time>
      </trkpt>
      <trkpt lat="45.34905" lon="5.7463">
        <ele>972</ele>
        <time>2021-12-19T13:40:28Z</time>
      </trkpt>
      <trkpt lat="45.34905" lon="5.7463">
        <ele>972</ele>
        <time>2021-12-19T13:40:29Z</time>
      </trkpt>
      <trkpt lat="45.34905" lon="5.7463">
        <ele>972</ele>
        <time>2021-12-19T13:40:30Z</time>
      </trkpt>
      <trkpt lat="45.34904" lon="5.7463">
        <ele>972</ele>
        <time>2021-12-19T13:40:31Z</time>
      </trkpt>
      <trkpt lat="45.34904" lon="5.7463">
        <ele>972</ele>
        <time>2021-12-19T13:40:32Z</time>
      </trkpt>
      <trkpt lat="45.34904" lon="5.7463">
        <ele>972</ele>
        <time>2021-12-19T13:40:33Z</time>
      </trkpt>
      <trkpt lat="45.34904" lon="5.7463">
        <ele>972</ele>
        <time>2021-12-19T13:40:34Z</time>
      </trkpt>
      <trkpt lat="45.34903" lon="5.7463">
        <ele>972</ele>
        <time>2021-12-19T13:40:35Z</time>
      </trkpt>
      <trkpt lat="45.34903" lon="5.7463">
        <ele>972</ele>
        <time>2021-12-19T13:40:36Z</time>
      </trkpt>
      <trkpt lat="45.34904" lon="5.74631">
        <ele>972</ele>
        <time>2021-12-19T13:40:37Z</time>
      </trkpt>
      <trkpt lat="45.34904" lon="5.74633">
        <ele>972</ele>
        <time>2021-12-19T13:40:38Z</time>
      </trkpt>
      <trkpt lat="45.34904" lon="5.74633">
        <ele>972</ele>
        <time>2021-12-19T13:40:39Z</time>
      </trkpt>
      <trkpt lat="45.34904" lon="5.74633">
        <ele>972</ele>
        <time>2021-12-19T13:40:40Z</time>
      </trkpt>
      <trkpt lat="45.34904" lon="5.74633">
        <ele>972</ele>
        <time>2021-12-19T13:40:41Z</time>
      </trkpt>
      <trkpt lat="45.34904" lon="5.74633">
        <ele>972</ele>
        <time>2021-12-19T13:40:42Z</time>
      </trkpt>
      <trkpt lat="45.34904" lon="5.74632">
        <ele>972</ele>
        <time>2021-12-19T13:40:43Z</time>
      </trkpt>
      <trkpt lat="45.34904" lon="5.74632">
        <ele>972</ele>
        <time>2021-12-19T13:40:44Z</time>
      </trkpt>
      <trkpt lat="45.34905" lon="5.74632">
        <ele>972</ele>
        <time>2021-12-19T13:40:45Z</time>
      </trkpt>
      <trkpt lat="45.34905" lon="5.74632">
        <ele>972</ele>
        <time>2021-12-19T13:40:46Z</time>
      </trkpt>
      <trkpt lat="45.34905" lon="5.74632">
        <ele>972</ele>
        <time>2021-12-19T13:40:47Z</time>
      </trkpt>
      <trkpt lat="45.34904" lon="5.74632">
        <ele>972</ele>
        <time>2021-12-19T13:40:48Z</time>
      </trkpt>
      <trkpt lat="45.34904" lon="5.74631">
        <ele>972</ele>
        <time>2021-12-19T13:40:49Z</time>
      </trkpt>
      <trkpt lat="45.34904" lon="5.74631">
        <ele>972</ele>
        <time>2021-12-19T13:40:50Z</time>
      </trkpt>
      <trkpt lat="45.34904" lon="5.74631">
        <ele>972</ele>
        <time>2021-12-19T13:40:51Z</time>
      </trkpt>
      <trkpt lat="45.34904" lon="5.7463">
        <ele>972</ele>
        <time>2021-12-19T13:40:52Z</time>
      </trkpt>
      <trkpt lat="45.34904" lon="5.7463">
        <ele>972</ele>
        <time>2021-12-19T13:40:53Z</time>
      </trkpt>
      <trkpt lat="45.34904" lon="5.74629">
        <ele>972</ele>
        <time>2021-12-19T13:40:54Z</time>
      </trkpt>
      <trkpt lat="45.34904" lon="5.74629">
        <ele>972</ele>
        <time>2021-12-19T13:40:55Z</time>
      </trkpt>
      <trkpt lat="45.34904" lon="5.74628">
        <ele>972</ele>
        <time>2021-12-19T13:40:56Z</time>
      </trkpt>
      <trkpt lat="45.34904" lon="5.74628">
        <ele>972</ele>
        <time>2021-12-19T13:40:57Z</time>
      </trkpt>
      <trkpt lat="45.34904" lon="5.74628">
        <ele>972</ele>
        <time>2021-12-19T13:40:58Z</time>
      </trkpt>
      <trkpt lat="45.34903" lon="5.74628">
        <ele>972</ele>
        <time>2021-12-19T13:40:59Z</time>
      </trkpt>
      <trkpt lat="45.34903" lon="5.74628">
        <ele>972</ele>
        <time>2021-12-19T13:41:00Z</time>
      </trkpt>
      <trkpt lat="45.34903" lon="5.74629">
        <ele>972</ele>
        <time>2021-12-19T13:41:01Z</time>
      </trkpt>
      <trkpt lat="45.34903" lon="5.74628">
        <ele>972</ele>
        <time>2021-12-19T13:41:02Z</time>
      </trkpt>
      <trkpt lat="45.34903" lon="5.74628">
        <ele>972</ele>
        <time>2021-12-19T13:41:03Z</time>
      </trkpt>
      <trkpt lat="45.34903" lon="5.74627">
        <ele>972</ele>
        <time>2021-12-19T13:41:04Z</time>
      </trkpt>
      <trkpt lat="45.34903" lon="5.74627">
        <ele>972</ele>
        <time>2021-12-19T13:41:05Z</time>
      </trkpt>
      <trkpt lat="45.34904" lon="5.74627">
        <ele>972</ele>
        <time>2021-12-19T13:41:06Z</time>
      </trkpt>
      <trkpt lat="45.34904" lon="5.74628">
        <ele>972</ele>
        <time>2021-12-19T13:41:07Z</time>
      </trkpt>
      <trkpt lat="45.34904" lon="5.74628">
        <ele>972</ele>
        <time>2021-12-19T13:41:08Z</time>
      </trkpt>
      <trkpt lat="45.34905" lon="5.74629">
        <ele>972</ele>
        <time>2021-12-19T13:41:09Z</time>
      </trkpt>
      <trkpt lat="45.34905" lon="5.7463">
        <ele>972</ele>
        <time>2021-12-19T13:41:10Z</time>
      </trkpt>
      <trkpt lat="45.34906" lon="5.7463">
        <ele>972</ele>
        <time>2021-12-19T13:41:11Z</time>
      </trkpt>
      <trkpt lat="45.34906" lon="5.7463">
        <ele>972</ele>
        <time>2021-12-19T13:41:12Z</time>
      </trkpt>
      <trkpt lat="45.34906" lon="5.74631">
        <ele>972</ele>
        <time>2021-12-19T13:41:13Z</time>
      </trkpt>
      <trkpt lat="45.34906" lon="5.74631">
        <ele>972</ele>
        <time>2021-12-19T13:41:14Z</time>
      </trkpt>
      <trkpt lat="45.34906" lon="5.74631">
        <ele>972</ele>
        <time>2021-12-19T13:41:15Z</time>
      </trkpt>
      <trkpt lat="45.34907" lon="5.74631">
        <ele>972</ele>
        <time>2021-12-19T13:41:16Z</time>
      </trkpt>
      <trkpt lat="45.34906" lon="5.74631">
        <ele>972</ele>
        <time>2021-12-19T13:41:17Z</time>
      </trkpt>
      <trkpt lat="45.34906" lon="5.74631">
        <ele>972</ele>
        <time>2021-12-19T13:41:18Z</time>
      </trkpt>
      <trkpt lat="45.34907" lon="5.74631">
        <ele>972</ele>
        <time>2021-12-19T13:41:19Z</time>
      </trkpt>
      <trkpt lat="45.34906" lon="5.74631">
        <ele>972</ele>
        <time>2021-12-19T13:41:20Z</time>
      </trkpt>
      <trkpt lat="45.34906" lon="5.74631">
        <ele>972</ele>
        <time>2021-12-19T13:41:21Z</time>
      </trkpt>
      <trkpt lat="45.34906" lon="5.74631">
        <ele>972</ele>
        <time>2021-12-19T13:41:22Z</time>
      </trkpt>
      <trkpt lat="45.34906" lon="5.74631">
        <ele>972</ele>
        <time>2021-12-19T13:41:23Z</time>
      </trkpt>
      <trkpt lat="45.34907" lon="5.74631">
        <ele>972</ele>
        <time>2021-12-19T13:41:24Z</time>
      </trkpt>
      <trkpt lat="45.34907" lon="5.74631">
        <ele>972</ele>
        <time>2021-12-19T13:41:25Z</time>
      </trkpt>
      <trkpt lat="45.34907" lon="5.74631">
        <ele>972</ele>
        <time>2021-12-19T13:41:26Z</time>
      </trkpt>
      <trkpt lat="45.34907" lon="5.74631">
        <ele>972</ele>
        <time>2021-12-19T13:41:27Z</time>
      </trkpt>
      <trkpt lat="45.34907" lon="5.74631">
        <ele>972</ele>
        <time>2021-12-19T13:41:28Z</time>
      </trkpt>
      <trkpt lat="45.34906" lon="5.74631">
        <ele>972</ele>
        <time>2021-12-19T13:41:29Z</time>
      </trkpt>
      <trkpt lat="45.34906" lon="5.74631">
        <ele>972</ele>
        <time>2021-12-19T13:41:30Z</time>
      </trkpt>
      <trkpt lat="45.34906" lon="5.74631">
        <ele>972</ele>
        <time>2021-12-19T13:41:31Z</time>
      </trkpt>
      <trkpt lat="45.34906" lon="5.74631">
        <ele>972</ele>
        <time>2021-12-19T13:41:32Z</time>
      </trkpt>
      <trkpt lat="45.34907" lon="5.74631">
        <ele>972</ele>
        <time>2021-12-19T13:41:33Z</time>
      </trkpt>
      <trkpt lat="45.34907" lon="5.74631">
        <ele>972</ele>
        <time>2021-12-19T13:41:34Z</time>
      </trkpt>
      <trkpt lat="45.34907" lon="5.74632">
        <ele>972</ele>
        <time>2021-12-19T13:41:35Z</time>
      </trkpt>
      <trkpt lat="45.34907" lon="5.74632">
        <ele>972</ele>
        <time>2021-12-19T13:41:36Z</time>
      </trkpt>
      <trkpt lat="45.34907" lon="5.74632">
        <ele>972</ele>
        <time>2021-12-19T13:41:37Z</time>
      </trkpt>
      <trkpt lat="45.34907" lon="5.74632">
        <ele>972</ele>
        <time>2021-12-19T13:41:38Z</time>
      </trkpt>
      <trkpt lat="45.34908" lon="5.74632">
        <ele>972</ele>
        <time>2021-12-19T13:41:39Z</time>
      </trkpt>
      <trkpt lat="45.34908" lon="5.74632">
        <ele>972</ele>
        <time>2021-12-19T13:41:40Z</time>
      </trkpt>
      <trkpt lat="45.34908" lon="5.74632">
        <ele>972</ele>
        <time>2021-12-19T13:41:41Z</time>
      </trkpt>
      <trkpt lat="45.34909" lon="5.74631">
        <ele>972</ele>
        <time>2021-12-19T13:41:42Z</time>
      </trkpt>
      <trkpt lat="45.34909" lon="5.74631">
        <ele>972</ele>
        <time>2021-12-19T13:41:43Z</time>
      </trkpt>
      <trkpt lat="45.34909" lon="5.74631">
        <ele>972</ele>
        <time>2021-12-19T13:41:44Z</time>
      </trkpt>
      <trkpt lat="45.34909" lon="5.74631">
        <ele>972</ele>
        <time>2021-12-19T13:41:45Z</time>
      </trkpt>
      <trkpt lat="45.34909" lon="5.74631">
        <ele>972</ele>
        <time>2021-12-19T13:41:46Z</time>
      </trkpt>
      <trkpt lat="45.34908" lon="5.7463">
        <ele>972</ele>
        <time>2021-12-19T13:41:47Z</time>
      </trkpt>
      <trkpt lat="45.34908" lon="5.7463">
        <ele>972</ele>
        <time>2021-12-19T13:41:48Z</time>
      </trkpt>
      <trkpt lat="45.34908" lon="5.7463">
        <ele>972</ele>
        <time>2021-12-19T13:41:49Z</time>
      </trkpt>
      <trkpt lat="45.34908" lon="5.7463">
        <ele>972</ele>
        <time>2021-12-19T13:41:50Z</time>
      </trkpt>
      <trkpt lat="45.34908" lon="5.7463">
        <ele>972</ele>
        <time>2021-12-19T13:41:51Z</time>
      </trkpt>
      <trkpt lat="45.34908" lon="5.7463">
        <ele>972</ele>
        <time>2021-12-19T13:41:52Z</time>
      </trkpt>
      <trkpt lat="45.34907" lon="5.74629">
        <ele>972</ele>
        <time>2021-12-19T13:41:53Z</time>
      </trkpt>
      <trkpt lat="45.34908" lon="5.74629">
        <ele>972</ele>
        <time>2021-12-19T13:41:54Z</time>
      </trkpt>
      <trkpt lat="45.34908" lon="5.74629">
        <ele>972</ele>
        <time>2021-12-19T13:41:55Z</time>
      </trkpt>
      <trkpt lat="45.34908" lon="5.74628">
        <ele>972</ele>
        <time>2021-12-19T13:41:56Z</time>
      </trkpt>
      <trkpt lat="45.34908" lon="5.74628">
        <ele>972</ele>
        <time>2021-12-19T13:41:57Z</time>
      </trkpt>
      <trkpt lat="45.34909" lon="5.74627">
        <ele>972</ele>
        <time>2021-12-19T13:41:58Z</time>
      </trkpt>
      <trkpt lat="45.34909" lon="5.74627">
        <ele>972</ele>
        <time>2021-12-19T13:41:59Z</time>
      </trkpt>
      <trkpt lat="45.3491" lon="5.74627">
        <ele>972</ele>
        <time>2021-12-19T13:42:00Z</time>
      </trkpt>
      <trkpt lat="45.3491" lon="5.74626">
        <ele>972</ele>
        <time>2021-12-19T13:42:01Z</time>
      </trkpt>
      <trkpt lat="45.3491" lon="5.74626">
        <ele>972</ele>
        <time>2021-12-19T13:42:02Z</time>
      </trkpt>
      <trkpt lat="45.3491" lon="5.74626">
        <ele>972</ele>
        <time>2021-12-19T13:42:03Z</time>
      </trkpt>
      <trkpt lat="45.34911" lon="5.74626">
        <ele>972</ele>
        <time>2021-12-19T13:42:04Z</time>
      </trkpt>
      <trkpt lat="45.34911" lon="5.74626">
        <ele>972</ele>
        <time>2021-12-19T13:42:05Z</time>
      </trkpt>
      <trkpt lat="45.3491" lon="5.74626">
        <ele>972</ele>
        <time>2021-12-19T13:42:06Z</time>
      </trkpt>
      <trkpt lat="45.3491" lon="5.74626">
        <ele>972</ele>
        <time>2021-12-19T13:42:07Z</time>
      </trkpt>
      <trkpt lat="45.3491" lon="5.74625">
        <ele>972</ele>
        <time>2021-12-19T13:42:08Z</time>
      </trkpt>
      <trkpt lat="45.34911" lon="5.74625">
        <ele>972</ele>
        <time>2021-12-19T13:42:09Z</time>
      </trkpt>
      <trkpt lat="45.34911" lon="5.74625">
        <ele>972</ele>
        <time>2021-12-19T13:42:10Z</time>
      </trkpt>
      <trkpt lat="45.34912" lon="5.74625">
        <ele>972</ele>
        <time>2021-12-19T13:42:11Z</time>
      </trkpt>
      <trkpt lat="45.34912" lon="5.74625">
        <ele>972</ele>
        <time>2021-12-19T13:42:12Z</time>
      </trkpt>
      <trkpt lat="45.34912" lon="5.74625">
        <ele>972</ele>
        <time>2021-12-19T13:42:13Z</time>
      </trkpt>
      <trkpt lat="45.34913" lon="5.74625">
        <ele>972</ele>
        <time>2021-12-19T13:42:14Z</time>
      </trkpt>
      <trkpt lat="45.34912" lon="5.74625">
        <ele>972</ele>
        <time>2021-12-19T13:42:15Z</time>
      </trkpt>
      <trkpt lat="45.34912" lon="5.74626">
        <ele>972</ele>
        <time>2021-12-19T13:42:16Z</time>
      </trkpt>
      <trkpt lat="45.34913" lon="5.74626">
        <ele>972</ele>
        <time>2021-12-19T13:42:17Z</time>
      </trkpt>
      <trkpt lat="45.34912" lon="5.74626">
        <ele>972</ele>
        <time>2021-12-19T13:42:18Z</time>
      </trkpt>
      <trkpt lat="45.34913" lon="5.74626">
        <ele>972</ele>
        <time>2021-12-19T13:42:19Z</time>
      </trkpt>
      <trkpt lat="45.34913" lon="5.74626">
        <ele>972</ele>
        <time>2021-12-19T13:42:20Z</time>
      </trkpt>
      <trkpt lat="45.34914" lon="5.74625">
        <ele>972</ele>
        <time>2021-12-19T13:42:21Z</time>
      </trkpt>
      <trkpt lat="45.34914" lon="5.74625">
        <ele>972</ele>
        <time>2021-12-19T13:42:22Z</time>
      </trkpt>
      <trkpt lat="45.34914" lon="5.74625">
        <ele>972</ele>
        <time>2021-12-19T13:42:23Z</time>
      </trkpt>
      <trkpt lat="45.34914" lon="5.74626">
        <ele>972</ele>
        <time>2021-12-19T13:42:24Z</time>
      </trkpt>
      <trkpt lat="45.34914" lon="5.74627">
        <ele>972</ele>
        <time>2021-12-19T13:42:25Z</time>
      </trkpt>
      <trkpt lat="45.34914" lon="5.74631">
        <ele>972</ele>
        <time>2021-12-19T13:42:26Z</time>
      </trkpt>
      <trkpt lat="45.34912" lon="5.74633">
        <ele>972</ele>
        <time>2021-12-19T13:42:27Z</time>
      </trkpt>
      <trkpt lat="45.34912" lon="5.74633">
        <ele>972</ele>
        <time>2021-12-19T13:42:28Z</time>
      </trkpt>
      <trkpt lat="45.34912" lon="5.74634">
        <ele>972</ele>
        <time>2021-12-19T13:42:29Z</time>
      </trkpt>
      <trkpt lat="45.34912" lon="5.74634">
        <ele>972</ele>
        <time>2021-12-19T13:42:30Z</time>
      </trkpt>
      <trkpt lat="45.34911" lon="5.74634">
        <ele>972</ele>
        <time>2021-12-19T13:42:31Z</time>
      </trkpt>
      <trkpt lat="45.34911" lon="5.74634">
        <ele>972</ele>
        <time>2021-12-19T13:42:32Z</time>
      </trkpt>
      <trkpt lat="45.34911" lon="5.74634">
        <ele>972</ele>
        <time>2021-12-19T13:42:33Z</time>
      </trkpt>
      <trkpt lat="45.34911" lon="5.74634">
        <ele>972</ele>
        <time>2021-12-19T13:42:34Z</time>
      </trkpt>
      <trkpt lat="45.3491" lon="5.74634">
        <ele>972</ele>
        <time>2021-12-19T13:42:35Z</time>
      </trkpt>
      <trkpt lat="45.3491" lon="5.74634">
        <ele>972</ele>
        <time>2021-12-19T13:42:36Z</time>
      </trkpt>
      <trkpt lat="45.34909" lon="5.74635">
        <ele>972</ele>
        <time>2021-12-19T13:42:37Z</time>
      </trkpt>
      <trkpt lat="45.3491" lon="5.74635">
        <ele>972</ele>
        <time>2021-12-19T13:42:38Z</time>
      </trkpt>
      <trkpt lat="45.3491" lon="5.74635">
        <ele>972</ele>
        <time>2021-12-19T13:42:39Z</time>
      </trkpt>
      <trkpt lat="45.3491" lon="5.74635">
        <ele>972</ele>
        <time>2021-12-19T13:42:40Z</time>
      </trkpt>
      <trkpt lat="45.34909" lon="5.74634">
        <ele>972</ele>
        <time>2021-12-19T13:42:41Z</time>
      </trkpt>
      <trkpt lat="45.34908" lon="5.74634">
        <ele>972</ele>
        <time>2021-12-19T13:42:42Z</time>
      </trkpt>
      <trkpt lat="45.34908" lon="5.74634">
        <ele>972</ele>
        <time>2021-12-19T13:42:43Z</time>
      </trkpt>
      <trkpt lat="45.34908" lon="5.74634">
        <ele>972</ele>
        <time>2021-12-19T13:42:44Z</time>
      </trkpt>
      <trkpt lat="45.34908" lon="5.74634">
        <ele>972</ele>
        <time>2021-12-19T13:42:45Z</time>
      </trkpt>
      <trkpt lat="45.34908" lon="5.74634">
        <ele>972</ele>
        <time>2021-12-19T13:42:46Z</time>
      </trkpt>
      <trkpt lat="45.34909" lon="5.74634">
        <ele>972</ele>
        <time>2021-12-19T13:42:47Z</time>
      </trkpt>
      <trkpt lat="45.34909" lon="5.74634">
        <ele>972</ele>
        <time>2021-12-19T13:42:48Z</time>
      </trkpt>
      <trkpt lat="45.34909" lon="5.74633">
        <ele>972</ele>
        <time>2021-12-19T13:42:49Z</time>
      </trkpt>
      <trkpt lat="45.34909" lon="5.74633">
        <ele>972</ele>
        <time>2021-12-19T13:42:50Z</time>
      </trkpt>
      <trkpt lat="45.34909" lon="5.74633">
        <ele>972</ele>
        <time>2021-12-19T13:42:51Z</time>
      </trkpt>
      <trkpt lat="45.34909" lon="5.74633">
        <ele>972</ele>
        <time>2021-12-19T13:42:52Z</time>
      </trkpt>
      <trkpt lat="45.3491" lon="5.74633">
        <ele>972</ele>
        <time>2021-12-19T13:42:53Z</time>
      </trkpt>
      <trkpt lat="45.3491" lon="5.74632">
        <ele>972</ele>
        <time>2021-12-19T13:42:54Z</time>
      </trkpt>
      <trkpt lat="45.34911" lon="5.74632">
        <ele>972</ele>
        <time>2021-12-19T13:42:55Z</time>
      </trkpt>
      <trkpt lat="45.34911" lon="5.74632">
        <ele>972</ele>
        <time>2021-12-19T13:42:56Z</time>
      </trkpt>
      <trkpt lat="45.34911" lon="5.74631">
        <ele>972</ele>
        <time>2021-12-19T13:42:57Z</time>
      </trkpt>
      <trkpt lat="45.34912" lon="5.74631">
        <ele>972</ele>
        <time>2021-12-19T13:42:58Z</time>
      </trkpt>
      <trkpt lat="45.34912" lon="5.74631">
        <ele>972</ele>
        <time>2021-12-19T13:42:59Z</time>
      </trkpt>
      <trkpt lat="45.34912" lon="5.74631">
        <ele>972</ele>
        <time>2021-12-19T13:43:00Z</time>
      </trkpt>
      <trkpt lat="45.34912" lon="5.74631">
        <ele>972</ele>
        <time>2021-12-19T13:43:01Z</time>
      </trkpt>
      <trkpt lat="45.3491" lon="5.74633">
        <ele>972</ele>
        <time>2021-12-19T13:43:02Z</time>
      </trkpt>
      <trkpt lat="45.34911" lon="5.74632">
        <ele>972</ele>
        <time>2021-12-19T13:43:03Z</time>
      </trkpt>
      <trkpt lat="45.34911" lon="5.74633">
        <ele>972</ele>
        <time>2021-12-19T13:43:04Z</time>
      </trkpt>
      <trkpt lat="45.34911" lon="5.74634">
        <ele>972</ele>
        <time>2021-12-19T13:43:05Z</time>
      </trkpt>
      <trkpt lat="45.3491" lon="5.74635">
        <ele>972</ele>
        <time>2021-12-19T13:43:06Z</time>
      </trkpt>
      <trkpt lat="45.3491" lon="5.74635">
        <ele>972</ele>
        <time>2021-12-19T13:43:07Z</time>
      </trkpt>
      <trkpt lat="45.3491" lon="5.74635">
        <ele>972</ele>
        <time>2021-12-19T13:43:08Z</time>
      </trkpt>
      <trkpt lat="45.3491" lon="5.74636">
        <ele>972</ele>
        <time>2021-12-19T13:43:09Z</time>
      </trkpt>
      <trkpt lat="45.3491" lon="5.74636">
        <ele>972</ele>
        <time>2021-12-19T13:43:10Z</time>
      </trkpt>
      <trkpt lat="45.3491" lon="5.74635">
        <ele>972</ele>
        <time>2021-12-19T13:43:11Z</time>
      </trkpt>
      <trkpt lat="45.3491" lon="5.74635">
        <ele>972</ele>
        <time>2021-12-19T13:43:12Z</time>
      </trkpt>
      <trkpt lat="45.3491" lon="5.74635">
        <ele>972</ele>
        <time>2021-12-19T13:43:13Z</time>
      </trkpt>
      <trkpt lat="45.3491" lon="5.74634">
        <ele>972</ele>
        <time>2021-12-19T13:43:14Z</time>
      </trkpt>
      <trkpt lat="45.34909" lon="5.74634">
        <ele>972</ele>
        <time>2021-12-19T13:43:15Z</time>
      </trkpt>
      <trkpt lat="45.34909" lon="5.74634">
        <ele>972</ele>
        <time>2021-12-19T13:43:16Z</time>
      </trkpt>
      <trkpt lat="45.34909" lon="5.74634">
        <ele>972</ele>
        <time>2021-12-19T13:43:17Z</time>
      </trkpt>
      <trkpt lat="45.34909" lon="5.74634">
        <ele>972</ele>
        <time>2021-12-19T13:43:18Z</time>
      </trkpt>
      <trkpt lat="45.34908" lon="5.74634">
        <ele>972</ele>
        <time>2021-12-19T13:43:19Z</time>
      </trkpt>
      <trkpt lat="45.34908" lon="5.74634">
        <ele>972</ele>
        <time>2021-12-19T13:43:20Z</time>
      </trkpt>
      <trkpt lat="45.34908" lon="5.74634">
        <ele>972</ele>
        <time>2021-12-19T13:43:21Z</time>
      </trkpt>
      <trkpt lat="45.34908" lon="5.74634">
        <ele>972</ele>
        <time>2021-12-19T13:43:22Z</time>
      </trkpt>
      <trkpt lat="45.34908" lon="5.74634">
        <ele>972</ele>
        <time>2021-12-19T13:43:23Z</time>
      </trkpt>
      <trkpt lat="45.34908" lon="5.74634">
        <ele>972</ele>
        <time>2021-12-19T13:43:24Z</time>
      </trkpt>
      <trkpt lat="45.34908" lon="5.74633">
        <ele>972</ele>
        <time>2021-12-19T13:43:25Z</time>
      </trkpt>
      <trkpt lat="45.34908" lon="5.74633">
        <ele>972</ele>
        <time>2021-12-19T13:43:26Z</time>
      </trkpt>
      <trkpt lat="45.34907" lon="5.74633">
        <ele>972</ele>
        <time>2021-12-19T13:43:27Z</time>
      </trkpt>
      <trkpt lat="45.34907" lon="5.74633">
        <ele>972</ele>
        <time>2021-12-19T13:43:28Z</time>
      </trkpt>
      <trkpt lat="45.34907" lon="5.74633">
        <ele>972</ele>
        <time>2021-12-19T13:43:29Z</time>
      </trkpt>
      <trkpt lat="45.34907" lon="5.74632">
        <ele>972</ele>
        <time>2021-12-19T13:43:30Z</time>
      </trkpt>
      <trkpt lat="45.34907" lon="5.74632">
        <ele>972</ele>
        <time>2021-12-19T13:43:31Z</time>
      </trkpt>
      <trkpt lat="45.34907" lon="5.74632">
        <ele>972</ele>
        <time>2021-12-19T13:43:32Z</time>
      </trkpt>
      <trkpt lat="45.34907" lon="5.74632">
        <ele>972</ele>
        <time>2021-12-19T13:43:33Z</time>
      </trkpt>
      <trkpt lat="45.34907" lon="5.74633">
        <ele>972</ele>
        <time>2021-12-19T13:43:34Z</time>
      </trkpt>
      <trkpt lat="45.34906" lon="5.74633">
        <ele>972</ele>
        <time>2021-12-19T13:43:35Z</time>
      </trkpt>
      <trkpt lat="45.34906" lon="5.74632">
        <ele>972</ele>
        <time>2021-12-19T13:43:36Z</time>
      </trkpt>
      <trkpt lat="45.34907" lon="5.74632">
        <ele>972</ele>
        <time>2021-12-19T13:43:37Z</time>
      </trkpt>
      <trkpt lat="45.34907" lon="5.74632">
        <ele>972</ele>
        <time>2021-12-19T13:43:38Z</time>
      </trkpt>
      <trkpt lat="45.34907" lon="5.74632">
        <ele>972</ele>
        <time>2021-12-19T13:43:39Z</time>
      </trkpt>
      <trkpt lat="45.34907" lon="5.74632">
        <ele>972</ele>
        <time>2021-12-19T13:43:40Z</time>
      </trkpt>
      <trkpt lat="45.34907" lon="5.74633">
        <ele>972</ele>
        <time>2021-12-19T13:43:41Z</time>
      </trkpt>
      <trkpt lat="45.34907" lon="5.74632">
        <ele>972</ele>
        <time>2021-12-19T13:43:42Z</time>
      </trkpt>
      <trkpt lat="45.34907" lon="5.74632">
        <ele>972</ele>
        <time>2021-12-19T13:43:43Z</time>
      </trkpt>
      <trkpt lat="45.34907" lon="5.74633">
        <ele>972</ele>
        <time>2021-12-19T13:43:44Z</time>
      </trkpt>
      <trkpt lat="45.34907" lon="5.74632">
        <ele>972</ele>
        <time>2021-12-19T13:43:45Z</time>
      </trkpt>
      <trkpt lat="45.34906" lon="5.74632">
        <ele>972</ele>
        <time>2021-12-19T13:43:46Z</time>
      </trkpt>
      <trkpt lat="45.34906" lon="5.74632">
        <ele>972</ele>
        <time>2021-12-19T13:43:47Z</time>
      </trkpt>
      <trkpt lat="45.34906" lon="5.74632">
        <ele>972</ele>
        <time>2021-12-19T13:43:48Z</time>
      </trkpt>
      <trkpt lat="45.34906" lon="5.74632">
        <ele>972</ele>
        <time>2021-12-19T13:43:49Z</time>
      </trkpt>
      <trkpt lat="45.34906" lon="5.74632">
        <ele>972</ele>
        <time>2021-12-19T13:43:50Z</time>
      </trkpt>
      <trkpt lat="45.34906" lon="5.74632">
        <ele>972</ele>
        <time>2021-12-19T13:43:51Z</time>
      </trkpt>
      <trkpt lat="45.34906" lon="5.74632">
        <ele>972</ele>
        <time>2021-12-19T13:43:52Z</time>
      </trkpt>
      <trkpt lat="45.34906" lon="5.74632">
        <ele>972</ele>
        <time>2021-12-19T13:43:53Z</time>
      </trkpt>
      <trkpt lat="45.34906" lon="5.74632">
        <ele>972</ele>
        <time>2021-12-19T13:43:54Z</time>
      </trkpt>
      <trkpt lat="45.34906" lon="5.74632">
        <ele>972</ele>
        <time>2021-12-19T13:43:55Z</time>
      </trkpt>
      <trkpt lat="45.34906" lon="5.74632">
        <ele>972</ele>
        <time>2021-12-19T13:43:56Z</time>
      </trkpt>
      <trkpt lat="45.34906" lon="5.74632">
        <ele>972</ele>
        <time>2021-12-19T13:43:57Z</time>
      </trkpt>
      <trkpt lat="45.34905" lon="5.74631">
        <ele>972</ele>
        <time>2021-12-19T13:43:58Z</time>
      </trkpt>
      <trkpt lat="45.34905" lon="5.74631">
        <ele>972</ele>
        <time>2021-12-19T13:43:59Z</time>
      </trkpt>
      <trkpt lat="45.34905" lon="5.74631">
        <ele>972</ele>
        <time>2021-12-19T13:44:00Z</time>
      </trkpt>
      <trkpt lat="45.34905" lon="5.74631">
        <ele>972</ele>
        <time>2021-12-19T13:44:01Z</time>
      </trkpt>
      <trkpt lat="45.34905" lon="5.74631">
        <ele>972</ele>
        <time>2021-12-19T13:44:02Z</time>
      </trkpt>
      <trkpt lat="45.34905" lon="5.74631">
        <ele>972</ele>
        <time>2021-12-19T13:44:03Z</time>
      </trkpt>
      <trkpt lat="45.34905" lon="5.74631">
        <ele>972</ele>
        <time>2021-12-19T13:44:04Z</time>
      </trkpt>
      <trkpt lat="45.34904" lon="5.74631">
        <ele>972</ele>
        <time>2021-12-19T13:44:05Z</time>
      </trkpt>
      <trkpt lat="45.34904" lon="5.74631">
        <ele>972</ele>
        <time>2021-12-19T13:44:06Z</time>
      </trkpt>
      <trkpt lat="45.34904" lon="5.74631">
        <ele>972</ele>
        <time>2021-12-19T13:44:07Z</time>
      </trkpt>
      <trkpt lat="45.34904" lon="5.74631">
        <ele>972</ele>
        <time>2021-12-19T13:44:08Z</time>
      </trkpt>
      <trkpt lat="45.34904" lon="5.74631">
        <ele>972</ele>
        <time>2021-12-19T13:44:09Z</time>
      </trkpt>
      <trkpt lat="45.34903" lon="5.74632">
        <ele>972</ele>
        <time>2021-12-19T13:44:10Z</time>
      </trkpt>
      <trkpt lat="45.34903" lon="5.74632">
        <ele>972</ele>
        <time>2021-12-19T13:44:11Z</time>
      </trkpt>
      <trkpt lat="45.34903" lon="5.74631">
        <ele>972</ele>
        <time>2021-12-19T13:44:12Z</time>
      </trkpt>
      <trkpt lat="45.34903" lon="5.74631">
        <ele>972</ele>
        <time>2021-12-19T13:44:13Z</time>
      </trkpt>
      <trkpt lat="45.34903" lon="5.74631">
        <ele>972</ele>
        <time>2021-12-19T13:44:14Z</time>
      </trkpt>
      <trkpt lat="45.34903" lon="5.74631">
        <ele>972</ele>
        <time>2021-12-19T13:44:15Z</time>
      </trkpt>
      <trkpt lat="45.34903" lon="5.7463">
        <ele>972</ele>
        <time>2021-12-19T13:44:16Z</time>
      </trkpt>
      <trkpt lat="45.34904" lon="5.7463">
        <ele>972</ele>
        <time>2021-12-19T13:44:17Z</time>
      </trkpt>
      <trkpt lat="45.34904" lon="5.7463">
        <ele>972</ele>
        <time>2021-12-19T13:44:18Z</time>
      </trkpt>
      <trkpt lat="45.34904" lon="5.7463">
        <ele>972</ele>
        <time>2021-12-19T13:44:19Z</time>
      </trkpt>
      <trkpt lat="45.34906" lon="5.74629">
        <ele>972</ele>
        <time>2021-12-19T13:44:20Z</time>
      </trkpt>
      <trkpt lat="45.34906" lon="5.74627">
        <ele>972</ele>
        <time>2021-12-19T13:44:21Z</time>
      </trkpt>
      <trkpt lat="45.34906" lon="5.74625">
        <ele>972</ele>
        <time>2021-12-19T13:44:22Z</time>
      </trkpt>
      <trkpt lat="45.34907" lon="5.74624">
        <ele>972</ele>
        <time>2021-12-19T13:44:23Z</time>
      </trkpt>
      <trkpt lat="45.34907" lon="5.74624">
        <ele>972</ele>
        <time>2021-12-19T13:44:24Z</time>
      </trkpt>
      <trkpt lat="45.34907" lon="5.74624">
        <ele>972</ele>
        <time>2021-12-19T13:44:25Z</time>
      </trkpt>
      <trkpt lat="45.34908" lon="5.74625">
        <ele>972</ele>
        <time>2021-12-19T13:44:26Z</time>
      </trkpt>
      <trkpt lat="45.34909" lon="5.74625">
        <ele>972</ele>
        <time>2021-12-19T13:44:27Z</time>
      </trkpt>
      <trkpt lat="45.34909" lon="5.74624">
        <ele>972</ele>
        <time>2021-12-19T13:44:28Z</time>
      </trkpt>
      <trkpt lat="45.34909" lon="5.74624">
        <ele>972</ele>
        <time>2021-12-19T13:44:29Z</time>
      </trkpt>
      <trkpt lat="45.34909" lon="5.74624">
        <ele>972</ele>
        <time>2021-12-19T13:44:30Z</time>
      </trkpt>
      <trkpt lat="45.34909" lon="5.74625">
        <ele>972</ele>
        <time>2021-12-19T13:44:31Z</time>
      </trkpt>
      <trkpt lat="45.34907" lon="5.74626">
        <ele>972.1</ele>
        <time>2021-12-19T13:44:32Z</time>
      </trkpt>
      <trkpt lat="45.34906" lon="5.74628">
        <ele>972.1</ele>
        <time>2021-12-19T13:44:33Z</time>
      </trkpt>
      <trkpt lat="45.34906" lon="5.74628">
        <ele>972.1</ele>
        <time>2021-12-19T13:44:34Z</time>
      </trkpt>
      <trkpt lat="45.34906" lon="5.74628">
        <ele>972.1</ele>
        <time>2021-12-19T13:44:35Z</time>
      </trkpt>
      <trkpt lat="45.34906" lon="5.74628">
        <ele>972.1</ele>
        <time>2021-12-19T13:44:36Z</time>
      </trkpt>
      <trkpt lat="45.34905" lon="5.74629">
        <ele>972.1</ele>
        <time>2021-12-19T13:44:37Z</time>
      </trkpt>
      <trkpt lat="45.34906" lon="5.74629">
        <ele>972.1</ele>
        <time>2021-12-19T13:44:38Z</time>
      </trkpt>
      <trkpt lat="45.34906" lon="5.74629">
        <ele>972.1</ele>
        <time>2021-12-19T13:44:39Z</time>
      </trkpt>
      <trkpt lat="45.34907" lon="5.74629">
        <ele>972.1</ele>
        <time>2021-12-19T13:44:40Z</time>
      </trkpt>
      <trkpt lat="45.34908" lon="5.74629">
        <ele>972.1</ele>
        <time>2021-12-19T13:44:41Z</time>
      </trkpt>
      <trkpt lat="45.34907" lon="5.74629">
        <ele>972.1</ele>
        <time>2021-12-19T13:44:42Z</time>
      </trkpt>
      <trkpt lat="45.34908" lon="5.74629">
        <ele>972.1</ele>
        <time>2021-12-19T13:44:43Z</time>
      </trkpt>
      <trkpt lat="45.34907" lon="5.74629">
        <ele>972.1</ele>
        <time>2021-12-19T13:44:44Z</time>
      </trkpt>
      <trkpt lat="45.34908" lon="5.7463">
        <ele>972.1</ele>
        <time>2021-12-19T13:44:45Z</time>
      </trkpt>
      <trkpt lat="45.34908" lon="5.74629">
        <ele>972.1</ele>
        <time>2021-12-19T13:44:46Z</time>
      </trkpt>
      <trkpt lat="45.34908" lon="5.74629">
        <ele>972.1</ele>
        <time>2021-12-19T13:44:47Z</time>
      </trkpt>
      <trkpt lat="45.34908" lon="5.74629">
        <ele>972.1</ele>
        <time>2021-12-19T13:44:48Z</time>
      </trkpt>
      <trkpt lat="45.34908" lon="5.74629">
        <ele>972.1</ele>
        <time>2021-12-19T13:44:49Z</time>
      </trkpt>
      <trkpt lat="45.34908" lon="5.74629">
        <ele>972.1</ele>
        <time>2021-12-19T13:44:50Z</time>
      </trkpt>
      <trkpt lat="45.34908" lon="5.74629">
        <ele>972.1</ele>
        <time>2021-12-19T13:44:51Z</time>
      </trkpt>
      <trkpt lat="45.34908" lon="5.74629">
        <ele>972.1</ele>
        <time>2021-12-19T13:44:52Z</time>
      </trkpt>
      <trkpt lat="45.34908" lon="5.74629">
        <ele>972.1</ele>
        <time>2021-12-19T13:44:53Z</time>
      </trkpt>
      <trkpt lat="45.34908" lon="5.74629">
        <ele>972.1</ele>
        <time>2021-12-19T13:44:54Z</time>
      </trkpt>
      <trkpt lat="45.34908" lon="5.74629">
        <ele>972.1</ele>
        <time>2021-12-19T13:44:55Z</time>
      </trkpt>
      <trkpt lat="45.34908" lon="5.74629">
        <ele>972.1</ele>
        <time>2021-12-19T13:44:56Z</time>
      </trkpt>
      <trkpt lat="45.34908" lon="5.74629">
        <ele>972.1</ele>
        <time>2021-12-19T13:44:57Z</time>
      </trkpt>
      <trkpt lat="45.34908" lon="5.74629">
        <ele>972.1</ele>
        <time>2021-12-19T13:44:58Z</time>
      </trkpt>
      <trkpt lat="45.34908" lon="5.74629">
        <ele>972.1</ele>
        <time>2021-12-19T13:44:59Z</time>
      </trkpt>
      <trkpt lat="45.34908" lon="5.74629">
        <ele>972.1</ele>
        <time>2021-12-19T13:45:00Z</time>
      </trkpt>
      <trkpt lat="45.34909" lon="5.74629">
        <ele>972.1</ele>
        <time>2021-12-19T13:45:01Z</time>
      </trkpt>
      <trkpt lat="45.34909" lon="5.74629">
        <ele>972.1</ele>
        <time>2021-12-19T13:45:02Z</time>
      </trkpt>
      <trkpt lat="45.34909" lon="5.7463">
        <ele>972.1</ele>
        <time>2021-12-19T13:45:03Z</time>
      </trkpt>
      <trkpt lat="45.34909" lon="5.7463">
        <ele>972.1</ele>
        <time>2021-12-19T13:45:04Z</time>
      </trkpt>
      <trkpt lat="45.34909" lon="5.7463">
        <ele>972.1</ele>
        <time>2021-12-19T13:45:05Z</time>
      </trkpt>
      <trkpt lat="45.34909" lon="5.7463">
        <ele>972.1</ele>
        <time>2021-12-19T13:45:06Z</time>
      </trkpt>
      <trkpt lat="45.34909" lon="5.7463">
        <ele>972.1</ele>
        <time>2021-12-19T13:45:07Z</time>
      </trkpt>
      <trkpt lat="45.34909" lon="5.74631">
        <ele>972.1</ele>
        <time>2021-12-19T13:45:08Z</time>
      </trkpt>
      <trkpt lat="45.34909" lon="5.74631">
        <ele>972.1</ele>
        <time>2021-12-19T13:45:09Z</time>
      </trkpt>
      <trkpt lat="45.34909" lon="5.7463">
        <ele>972.1</ele>
        <time>2021-12-19T13:45:10Z</time>
      </trkpt>
      <trkpt lat="45.34909" lon="5.7463">
        <ele>972.1</ele>
        <time>2021-12-19T13:45:11Z</time>
      </trkpt>
      <trkpt lat="45.34909" lon="5.7463">
        <ele>972.1</ele>
        <time>2021-12-19T13:45:12Z</time>
      </trkpt>
      <trkpt lat="45.34909" lon="5.7463">
        <ele>972.1</ele>
        <time>2021-12-19T13:45:13Z</time>
      </trkpt>
      <trkpt lat="45.3491" lon="5.7463">
        <ele>972.1</ele>
        <time>2021-12-19T13:45:14Z</time>
      </trkpt>
      <trkpt lat="45.34909" lon="5.7463">
        <ele>972.1</ele>
        <time>2021-12-19T13:45:15Z</time>
      </trkpt>
      <trkpt lat="45.34909" lon="5.74629">
        <ele>972.1</ele>
        <time>2021-12-19T13:45:16Z</time>
      </trkpt>
      <trkpt lat="45.34909" lon="5.7463">
        <ele>972.1</ele>
        <time>2021-12-19T13:45:17Z</time>
      </trkpt>
      <trkpt lat="45.34909" lon="5.7463">
        <ele>972.1</ele>
        <time>2021-12-19T13:45:18Z</time>
      </trkpt>
      <trkpt lat="45.34908" lon="5.7463">
        <ele>972.1</ele>
        <time>2021-12-19T13:45:19Z</time>
      </trkpt>
      <trkpt lat="45.34908" lon="5.74629">
        <ele>972.1</ele>
        <time>2021-12-19T13:45:20Z</time>
      </trkpt>
      <trkpt lat="45.34907" lon="5.7463">
        <ele>972.1</ele>
        <time>2021-12-19T13:45:21Z</time>
      </trkpt>
      <trkpt lat="45.34907" lon="5.74629">
        <ele>972.1</ele>
        <time>2021-12-19T13:45:22Z</time>
      </trkpt>
      <trkpt lat="45.34907" lon="5.74629">
        <ele>972.1</ele>
        <time>2021-12-19T13:45:23Z</time>
      </trkpt>
      <trkpt lat="45.34906" lon="5.74628">
        <ele>972.1</ele>
        <time>2021-12-19T13:45:24Z</time>
      </trkpt>
      <trkpt lat="45.34907" lon="5.74628">
        <ele>972.1</ele>
        <time>2021-12-19T13:45:25Z</time>
      </trkpt>
      <trkpt lat="45.34906" lon="5.74628">
        <ele>972.1</ele>
        <time>2021-12-19T13:45:26Z</time>
      </trkpt>
      <trkpt lat="45.34906" lon="5.74629">
        <ele>972.1</ele>
        <time>2021-12-19T13:45:27Z</time>
      </trkpt>
      <trkpt lat="45.34905" lon="5.74629">
        <ele>972.1</ele>
        <time>2021-12-19T13:45:28Z</time>
      </trkpt>
      <trkpt lat="45.34905" lon="5.74629">
        <ele>972.1</ele>
        <time>2021-12-19T13:45:29Z</time>
      </trkpt>
      <trkpt lat="45.34905" lon="5.74629">
        <ele>972.1</ele>
        <time>2021-12-19T13:45:30Z</time>
      </trkpt>
      <trkpt lat="45.34905" lon="5.74629">
        <ele>972.1</ele>
        <time>2021-12-19T13:45:31Z</time>
      </trkpt>
      <trkpt lat="45.34905" lon="5.74629">
        <ele>972.1</ele>
        <time>2021-12-19T13:45:32Z</time>
      </trkpt>
      <trkpt lat="45.34905" lon="5.74629">
        <ele>972.1</ele>
        <time>2021-12-19T13:45:33Z</time>
      </trkpt>
      <trkpt lat="45.34905" lon="5.74629">
        <ele>972.1</ele>
        <time>2021-12-19T13:45:34Z</time>
      </trkpt>
      <trkpt lat="45.34905" lon="5.74629">
        <ele>972.1</ele>
        <time>2021-12-19T13:45:35Z</time>
      </trkpt>
      <trkpt lat="45.34905" lon="5.74629">
        <ele>972.1</ele>
        <time>2021-12-19T13:45:36Z</time>
      </trkpt>
      <trkpt lat="45.34905" lon="5.74629">
        <ele>972.1</ele>
        <time>2021-12-19T13:45:37Z</time>
      </trkpt>
      <trkpt lat="45.34905" lon="5.74629">
        <ele>972.1</ele>
        <time>2021-12-19T13:45:38Z</time>
      </trkpt>
      <trkpt lat="45.34905" lon="5.74629">
        <ele>972.1</ele>
        <time>2021-12-19T13:45:39Z</time>
      </trkpt>
      <trkpt lat="45.34905" lon="5.74629">
        <ele>972.1</ele>
        <time>2021-12-19T13:45:40Z</time>
      </trkpt>
      <trkpt lat="45.34905" lon="5.74628">
        <ele>972.1</ele>
        <time>2021-12-19T13:45:41Z</time>
      </trkpt>
      <trkpt lat="45.34905" lon="5.74628">
        <ele>972.1</ele>
        <time>2021-12-19T13:45:42Z</time>
      </trkpt>
      <trkpt lat="45.34905" lon="5.74628">
        <ele>972.1</ele>
        <time>2021-12-19T13:45:43Z</time>
      </trkpt>
      <trkpt lat="45.34906" lon="5.74628">
        <ele>972.1</ele>
        <time>2021-12-19T13:45:44Z</time>
      </trkpt>
      <trkpt lat="45.34906" lon="5.74626">
        <ele>972.1</ele>
        <time>2021-12-19T13:45:45Z</time>
      </trkpt>
      <trkpt lat="45.34905" lon="5.74626">
        <ele>972.1</ele>
        <time>2021-12-19T13:45:46Z</time>
      </trkpt>
      <trkpt lat="45.34906" lon="5.74626">
        <ele>972.1</ele>
        <time>2021-12-19T13:45:47Z</time>
      </trkpt>
      <trkpt lat="45.34906" lon="5.74625">
        <ele>972.1</ele>
        <time>2021-12-19T13:45:48Z</time>
      </trkpt>
      <trkpt lat="45.34906" lon="5.74625">
        <ele>972.1</ele>
        <time>2021-12-19T13:45:49Z</time>
      </trkpt>
      <trkpt lat="45.34906" lon="5.74625">
        <ele>972.1</ele>
        <time>2021-12-19T13:45:50Z</time>
      </trkpt>
      <trkpt lat="45.34906" lon="5.74625">
        <ele>972.1</ele>
        <time>2021-12-19T13:45:51Z</time>
      </trkpt>
      <trkpt lat="45.34906" lon="5.74625">
        <ele>972.1</ele>
        <time>2021-12-19T13:45:52Z</time>
      </trkpt>
      <trkpt lat="45.34906" lon="5.74625">
        <ele>972.2</ele>
        <time>2021-12-19T13:45:53Z</time>
      </trkpt>
      <trkpt lat="45.34906" lon="5.74625">
        <ele>972.2</ele>
        <time>2021-12-19T13:45:54Z</time>
      </trkpt>
      <trkpt lat="45.34906" lon="5.74625">
        <ele>972.2</ele>
        <time>2021-12-19T13:45:55Z</time>
      </trkpt>
      <trkpt lat="45.34906" lon="5.74625">
        <ele>972.2</ele>
        <time>2021-12-19T13:45:56Z</time>
      </trkpt>
      <trkpt lat="45.34906" lon="5.74625">
        <ele>972.2</ele>
        <time>2021-12-19T13:45:57Z</time>
      </trkpt>
      <trkpt lat="45.34906" lon="5.74625">
        <ele>972.2</ele>
        <time>2021-12-19T13:45:58Z</time>
      </trkpt>
      <trkpt lat="45.34906" lon="5.74625">
        <ele>972.2</ele>
        <time>2021-12-19T13:45:59Z</time>
      </trkpt>
      <trkpt lat="45.34906" lon="5.74625">
        <ele>972.2</ele>
        <time>2021-12-19T13:46:00Z</time>
      </trkpt>
      <trkpt lat="45.34906" lon="5.74625">
        <ele>972.2</ele>
        <time>2021-12-19T13:46:01Z</time>
      </trkpt>
      <trkpt lat="45.34906" lon="5.74625">
        <ele>972.2</ele>
        <time>2021-12-19T13:46:02Z</time>
      </trkpt>
      <trkpt lat="45.34906" lon="5.74625">
        <ele>972.2</ele>
        <time>2021-12-19T13:46:03Z</time>
      </trkpt>
      <trkpt lat="45.34906" lon="5.74625">
        <ele>972.2</ele>
        <time>2021-12-19T13:46:04Z</time>
      </trkpt>
      <trkpt lat="45.34905" lon="5.74625">
        <ele>972.2</ele>
        <time>2021-12-19T13:46:05Z</time>
      </trkpt>
      <trkpt lat="45.34905" lon="5.74626">
        <ele>972.2</ele>
        <time>2021-12-19T13:46:06Z</time>
      </trkpt>
      <trkpt lat="45.34905" lon="5.74626">
        <ele>972.2</ele>
        <time>2021-12-19T13:46:07Z</time>
      </trkpt>
      <trkpt lat="45.34905" lon="5.74626">
        <ele>972.2</ele>
        <time>2021-12-19T13:46:08Z</time>
      </trkpt>
      <trkpt lat="45.34905" lon="5.74626">
        <ele>972.2</ele>
        <time>2021-12-19T13:46:09Z</time>
      </trkpt>
      <trkpt lat="45.34905" lon="5.74626">
        <ele>972.2</ele>
        <time>2021-12-19T13:46:10Z</time>
      </trkpt>
      <trkpt lat="45.34905" lon="5.74625">
        <ele>972.2</ele>
        <time>2021-12-19T13:46:11Z</time>
      </trkpt>
      <trkpt lat="45.34904" lon="5.74625">
        <ele>972.2</ele>
        <time>2021-12-19T13:46:12Z</time>
      </trkpt>
      <trkpt lat="45.34904" lon="5.74625">
        <ele>972.2</ele>
        <time>2021-12-19T13:46:13Z</time>
      </trkpt>
      <trkpt lat="45.34904" lon="5.74625">
        <ele>972.2</ele>
        <time>2021-12-19T13:46:14Z</time>
      </trkpt>
      <trkpt lat="45.34903" lon="5.74626">
        <ele>972.2</ele>
        <time>2021-12-19T13:46:15Z</time>
      </trkpt>
      <trkpt lat="45.34903" lon="5.74626">
        <ele>972.2</ele>
        <time>2021-12-19T13:46:16Z</time>
      </trkpt>
      <trkpt lat="45.34902" lon="5.74626">
        <ele>972.2</ele>
        <time>2021-12-19T13:46:17Z</time>
      </trkpt>
      <trkpt lat="45.34902" lon="5.74625">
        <ele>972.2</ele>
        <time>2021-12-19T13:46:18Z</time>
      </trkpt>
      <trkpt lat="45.34902" lon="5.74623">
        <ele>972.2</ele>
        <time>2021-12-19T13:46:19Z</time>
      </trkpt>
      <trkpt lat="45.34901" lon="5.74622">
        <ele>972.2</ele>
        <time>2021-12-19T13:46:20Z</time>
      </trkpt>
      <trkpt lat="45.349" lon="5.7462">
        <ele>972.2</ele>
        <time>2021-12-19T13:46:21Z</time>
      </trkpt>
      <trkpt lat="45.34899" lon="5.74617">
        <ele>972.2</ele>
        <time>2021-12-19T13:46:22Z</time>
      </trkpt>
      <trkpt lat="45.34898" lon="5.74615">
        <ele>972.2</ele>
        <time>2021-12-19T13:46:23Z</time>
      </trkpt>
      <trkpt lat="45.34898" lon="5.74613">
        <ele>972.2</ele>
        <time>2021-12-19T13:46:24Z</time>
      </trkpt>
      <trkpt lat="45.34897" lon="5.7461">
        <ele>972.2</ele>
        <time>2021-12-19T13:46:25Z</time>
      </trkpt>
      <trkpt lat="45.34896" lon="5.74609">
        <ele>972.2</ele>
        <time>2021-12-19T13:46:26Z</time>
      </trkpt>
      <trkpt lat="45.34895" lon="5.74607">
        <ele>972.2</ele>
        <time>2021-12-19T13:46:27Z</time>
      </trkpt>
      <trkpt lat="45.34894" lon="5.74604">
        <ele>972.3</ele>
        <time>2021-12-19T13:46:28Z</time>
      </trkpt>
      <trkpt lat="45.34893" lon="5.74602">
        <ele>972.3</ele>
        <time>2021-12-19T13:46:29Z</time>
      </trkpt>
      <trkpt lat="45.34892" lon="5.74599">
        <ele>972.3</ele>
        <time>2021-12-19T13:46:30Z</time>
      </trkpt>
      <trkpt lat="45.3489" lon="5.74596">
        <ele>972.3</ele>
        <time>2021-12-19T13:46:31Z</time>
      </trkpt>
      <trkpt lat="45.34889" lon="5.74593">
        <ele>972.2</ele>
        <time>2021-12-19T13:46:32Z</time>
      </trkpt>
      <trkpt lat="45.34888" lon="5.74591">
        <ele>972.2</ele>
        <time>2021-12-19T13:46:33Z</time>
      </trkpt>
      <trkpt lat="45.34888" lon="5.74587">
        <ele>972.2</ele>
        <time>2021-12-19T13:46:34Z</time>
      </trkpt>
      <trkpt lat="45.34887" lon="5.74583">
        <ele>972.2</ele>
        <time>2021-12-19T13:46:35Z</time>
      </trkpt>
      <trkpt lat="45.34886" lon="5.7458">
        <ele>972.1</ele>
        <time>2021-12-19T13:46:36Z</time>
      </trkpt>
      <trkpt lat="45.34885" lon="5.74576">
        <ele>972.1</ele>
        <time>2021-12-19T13:46:37Z</time>
      </trkpt>
      <trkpt lat="45.34885" lon="5.74573">
        <ele>972</ele>
        <time>2021-12-19T13:46:38Z</time>
      </trkpt>
      <trkpt lat="45.34885" lon="5.7457">
        <ele>972</ele>
        <time>2021-12-19T13:46:39Z</time>
      </trkpt>
      <trkpt lat="45.34884" lon="5.74567">
        <ele>971.9</ele>
        <time>2021-12-19T13:46:40Z</time>
      </trkpt>
      <trkpt lat="45.34883" lon="5.74564">
        <ele>971.9</ele>
        <time>2021-12-19T13:46:41Z</time>
      </trkpt>
      <trkpt lat="45.34882" lon="5.74561">
        <ele>971.8</ele>
        <time>2021-12-19T13:46:42Z</time>
      </trkpt>
      <trkpt lat="45.34881" lon="5.74558">
        <ele>971.8</ele>
        <time>2021-12-19T13:46:43Z</time>
      </trkpt>
      <trkpt lat="45.3488" lon="5.74554">
        <ele>971.7</ele>
        <time>2021-12-19T13:46:44Z</time>
      </trkpt>
      <trkpt lat="45.34879" lon="5.74551">
        <ele>971.7</ele>
        <time>2021-12-19T13:46:45Z</time>
      </trkpt>
      <trkpt lat="45.34878" lon="5.74548">
        <ele>971.7</ele>
        <time>2021-12-19T13:46:46Z</time>
      </trkpt>
      <trkpt lat="45.34876" lon="5.74544">
        <ele>971.7</ele>
        <time>2021-12-19T13:46:47Z</time>
      </trkpt>
      <trkpt lat="45.34876" lon="5.74541">
        <ele>971.6</ele>
        <time>2021-12-19T13:46:48Z</time>
      </trkpt>
      <trkpt lat="45.34874" lon="5.74538">
        <ele>971.6</ele>
        <time>2021-12-19T13:46:49Z</time>
      </trkpt>
      <trkpt lat="45.34874" lon="5.74534">
        <ele>971.6</ele>
        <time>2021-12-19T13:46:50Z</time>
      </trkpt>
      <trkpt lat="45.34872" lon="5.74531">
        <ele>971.6</ele>
        <time>2021-12-19T13:46:51Z</time>
      </trkpt>
      <trkpt lat="45.3487" lon="5.74528">
        <ele>971.5</ele>
        <time>2021-12-19T13:46:52Z</time>
      </trkpt>
      <trkpt lat="45.34869" lon="5.74524">
        <ele>971.5</ele>
        <time>2021-12-19T13:46:53Z</time>
      </trkpt>
      <trkpt lat="45.34868" lon="5.74521">
        <ele>971.4</ele>
        <time>2021-12-19T13:46:54Z</time>
      </trkpt>
      <trkpt lat="45.34866" lon="5.74516">
        <ele>971.4</ele>
        <time>2021-12-19T13:46:55Z</time>
      </trkpt>
      <trkpt lat="45.34865" lon="5.74512">
        <ele>971.3</ele>
        <time>2021-12-19T13:46:56Z</time>
      </trkpt>
      <trkpt lat="45.34864" lon="5.74508">
        <ele>971.2</ele>
        <time>2021-12-19T13:46:57Z</time>
      </trkpt>
      <trkpt lat="45.34863" lon="5.74504">
        <ele>971.1</ele>
        <time>2021-12-19T13:46:58Z</time>
      </trkpt>
      <trkpt lat="45.34862" lon="5.74501">
        <ele>971.1</ele>
        <time>2021-12-19T13:46:59Z</time>
      </trkpt>
      <trkpt lat="45.34862" lon="5.74497">
        <ele>971</ele>
        <time>2021-12-19T13:47:00Z</time>
      </trkpt>
      <trkpt lat="45.34862" lon="5.74493">
        <ele>970.9</ele>
        <time>2021-12-19T13:47:01Z</time>
      </trkpt>
      <trkpt lat="45.34862" lon="5.7449">
        <ele>970.9</ele>
        <time>2021-12-19T13:47:02Z</time>
      </trkpt>
      <trkpt lat="45.34861" lon="5.74486">
        <ele>970.8</ele>
        <time>2021-12-19T13:47:03Z</time>
      </trkpt>
      <trkpt lat="45.34862" lon="5.74482">
        <ele>970.7</ele>
        <time>2021-12-19T13:47:04Z</time>
      </trkpt>
      <trkpt lat="45.34862" lon="5.74478">
        <ele>970.6</ele>
        <time>2021-12-19T13:47:05Z</time>
      </trkpt>
      <trkpt lat="45.34863" lon="5.74475">
        <ele>970.6</ele>
        <time>2021-12-19T13:47:06Z</time>
      </trkpt>
      <trkpt lat="45.34863" lon="5.74471">
        <ele>970.5</ele>
        <time>2021-12-19T13:47:07Z</time>
      </trkpt>
      <trkpt lat="45.34864" lon="5.74468">
        <ele>970.4</ele>
        <time>2021-12-19T13:47:08Z</time>
      </trkpt>
      <trkpt lat="45.34865" lon="5.74465">
        <ele>970.3</ele>
        <time>2021-12-19T13:47:09Z</time>
      </trkpt>
      <trkpt lat="45.34867" lon="5.74461">
        <ele>970.2</ele>
        <time>2021-12-19T13:47:10Z</time>
      </trkpt>
      <trkpt lat="45.34869" lon="5.74458">
        <ele>970.1</ele>
        <time>2021-12-19T13:47:11Z</time>
      </trkpt>
      <trkpt lat="45.34871" lon="5.74455">
        <ele>970</ele>
        <time>2021-12-19T13:47:12Z</time>
      </trkpt>
      <trkpt lat="45.34873" lon="5.74452">
        <ele>969.8</ele>
        <time>2021-12-19T13:47:13Z</time>
      </trkpt>
      <trkpt lat="45.34875" lon="5.7445">
        <ele>969.7</ele>
        <time>2021-12-19T13:47:14Z</time>
      </trkpt>
      <trkpt lat="45.34877" lon="5.74448">
        <ele>969.6</ele>
        <time>2021-12-19T13:47:15Z</time>
      </trkpt>
      <trkpt lat="45.3488" lon="5.74448">
        <ele>969.5</ele>
        <time>2021-12-19T13:47:16Z</time>
      </trkpt>
      <trkpt lat="45.34882" lon="5.74448">
        <ele>969.4</ele>
        <time>2021-12-19T13:47:17Z</time>
      </trkpt>
      <trkpt lat="45.34884" lon="5.74449">
        <ele>969.3</ele>
        <time>2021-12-19T13:47:18Z</time>
      </trkpt>
      <trkpt lat="45.34887" lon="5.74449">
        <ele>969.2</ele>
        <time>2021-12-19T13:47:19Z</time>
      </trkpt>
      <trkpt lat="45.3489" lon="5.7445">
        <ele>969</ele>
        <time>2021-12-19T13:47:20Z</time>
      </trkpt>
      <trkpt lat="45.34893" lon="5.74451">
        <ele>968.9</ele>
        <time>2021-12-19T13:47:21Z</time>
      </trkpt>
      <trkpt lat="45.34895" lon="5.74452">
        <ele>968.8</ele>
        <time>2021-12-19T13:47:22Z</time>
      </trkpt>
      <trkpt lat="45.34897" lon="5.74453">
        <ele>968.6</ele>
        <time>2021-12-19T13:47:23Z</time>
      </trkpt>
      <trkpt lat="45.349" lon="5.74455">
        <ele>968.5</ele>
        <time>2021-12-19T13:47:24Z</time>
      </trkpt>
      <trkpt lat="45.34903" lon="5.74457">
        <ele>968.3</ele>
        <time>2021-12-19T13:47:25Z</time>
      </trkpt>
      <trkpt lat="45.34906" lon="5.7446">
        <ele>968.1</ele>
        <time>2021-12-19T13:47:26Z</time>
      </trkpt>
      <trkpt lat="45.34908" lon="5.74462">
        <ele>968</ele>
        <time>2021-12-19T13:47:27Z</time>
      </trkpt>
      <trkpt lat="45.34911" lon="5.74464">
        <ele>967.9</ele>
        <time>2021-12-19T13:47:28Z</time>
      </trkpt>
      <trkpt lat="45.34913" lon="5.74467">
        <ele>967.7</ele>
        <time>2021-12-19T13:47:29Z</time>
      </trkpt>
      <trkpt lat="45.34916" lon="5.74469">
        <ele>967.6</ele>
        <time>2021-12-19T13:47:30Z</time>
      </trkpt>
      <trkpt lat="45.34918" lon="5.74471">
        <ele>967.5</ele>
        <time>2021-12-19T13:47:31Z</time>
      </trkpt>
      <trkpt lat="45.3492" lon="5.74474">
        <ele>967.3</ele>
        <time>2021-12-19T13:47:32Z</time>
      </trkpt>
      <trkpt lat="45.34923" lon="5.74476">
        <ele>967.2</ele>
        <time>2021-12-19T13:47:33Z</time>
      </trkpt>
      <trkpt lat="45.34925" lon="5.74479">
        <ele>967.1</ele>
        <time>2021-12-19T13:47:34Z</time>
      </trkpt>
      <trkpt lat="45.34927" lon="5.74481">
        <ele>966.9</ele>
        <time>2021-12-19T13:47:35Z</time>
      </trkpt>
      <trkpt lat="45.34929" lon="5.74484">
        <ele>966.8</ele>
        <time>2021-12-19T13:47:36Z</time>
      </trkpt>
      <trkpt lat="45.34931" lon="5.74486">
        <ele>966.6</ele>
        <time>2021-12-19T13:47:37Z</time>
      </trkpt>
      <trkpt lat="45.34934" lon="5.74489">
        <ele>966.5</ele>
        <time>2021-12-19T13:47:38Z</time>
      </trkpt>
      <trkpt lat="45.34936" lon="5.74492">
        <ele>966.3</ele>
        <time>2021-12-19T13:47:39Z</time>
      </trkpt>
      <trkpt lat="45.34938" lon="5.74495">
        <ele>966.2</ele>
        <time>2021-12-19T13:47:40Z</time>
      </trkpt>
      <trkpt lat="45.3494" lon="5.74498">
        <ele>966</ele>
        <time>2021-12-19T13:47:41Z</time>
      </trkpt>
      <trkpt lat="45.34942" lon="5.745">
        <ele>965.9</ele>
        <time>2021-12-19T13:47:42Z</time>
      </trkpt>
      <trkpt lat="45.34943" lon="5.74503">
        <ele>965.8</ele>
        <time>2021-12-19T13:47:43Z</time>
      </trkpt>
      <trkpt lat="45.34946" lon="5.74505">
        <ele>965.6</ele>
        <time>2021-12-19T13:47:44Z</time>
      </trkpt>
      <trkpt lat="45.34948" lon="5.74508">
        <ele>965.4</ele>
        <time>2021-12-19T13:47:45Z</time>
      </trkpt>
      <trkpt lat="45.34951" lon="5.74511">
        <ele>965.3</ele>
        <time>2021-12-19T13:47:46Z</time>
      </trkpt>
      <trkpt lat="45.34952" lon="5.74514">
        <ele>965.1</ele>
        <time>2021-12-19T13:47:47Z</time>
      </trkpt>
      <trkpt lat="45.34955" lon="5.74517">
        <ele>965</ele>
        <time>2021-12-19T13:47:48Z</time>
      </trkpt>
      <trkpt lat="45.34957" lon="5.74521">
        <ele>964.8</ele>
        <time>2021-12-19T13:47:49Z</time>
      </trkpt>
      <trkpt lat="45.34959" lon="5.74525">
        <ele>964.6</ele>
        <time>2021-12-19T13:47:50Z</time>
      </trkpt>
      <trkpt lat="45.34962" lon="5.74529">
        <ele>964.4</ele>
        <time>2021-12-19T13:47:51Z</time>
      </trkpt>
      <trkpt lat="45.34964" lon="5.74534">
        <ele>964.2</ele>
        <time>2021-12-19T13:47:52Z</time>
      </trkpt>
      <trkpt lat="45.34967" lon="5.74538">
        <ele>963.9</ele>
        <time>2021-12-19T13:47:53Z</time>
      </trkpt>
      <trkpt lat="45.34969" lon="5.74543">
        <ele>963.6</ele>
        <time>2021-12-19T13:47:54Z</time>
      </trkpt>
      <trkpt lat="45.34972" lon="5.74548">
        <ele>963.3</ele>
        <time>2021-12-19T13:47:55Z</time>
      </trkpt>
      <trkpt lat="45.34974" lon="5.74553">
        <ele>963</ele>
        <time>2021-12-19T13:47:56Z</time>
      </trkpt>
      <trkpt lat="45.34977" lon="5.74558">
        <ele>962.7</ele>
        <time>2021-12-19T13:47:57Z</time>
      </trkpt>
      <trkpt lat="45.3498" lon="5.74562">
        <ele>962.4</ele>
        <time>2021-12-19T13:47:58Z</time>
      </trkpt>
      <trkpt lat="45.34983" lon="5.74567">
        <ele>962</ele>
        <time>2021-12-19T13:47:59Z</time>
      </trkpt>
      <trkpt lat="45.34986" lon="5.74571">
        <ele>961.7</ele>
        <time>2021-12-19T13:48:00Z</time>
      </trkpt>
      <trkpt lat="45.34989" lon="5.74576">
        <ele>961.4</ele>
        <time>2021-12-19T13:48:01Z</time>
      </trkpt>
      <trkpt lat="45.34992" lon="5.7458">
        <ele>961.1</ele>
        <time>2021-12-19T13:48:02Z</time>
      </trkpt>
      <trkpt lat="45.34995" lon="5.74584">
        <ele>960.9</ele>
        <time>2021-12-19T13:48:03Z</time>
      </trkpt>
      <trkpt lat="45.34998" lon="5.74587">
        <ele>960.6</ele>
        <time>2021-12-19T13:48:04Z</time>
      </trkpt>
      <trkpt lat="45.35001" lon="5.7459">
        <ele>960.4</ele>
        <time>2021-12-19T13:48:05Z</time>
      </trkpt>
      <trkpt lat="45.35004" lon="5.74592">
        <ele>960.2</ele>
        <time>2021-12-19T13:48:06Z</time>
      </trkpt>
      <trkpt lat="45.35007" lon="5.74595">
        <ele>959.9</ele>
        <time>2021-12-19T13:48:07Z</time>
      </trkpt>
      <trkpt lat="45.35009" lon="5.74598">
        <ele>959.7</ele>
        <time>2021-12-19T13:48:08Z</time>
      </trkpt>
      <trkpt lat="45.35012" lon="5.74601">
        <ele>959.5</ele>
        <time>2021-12-19T13:48:09Z</time>
      </trkpt>
      <trkpt lat="45.35015" lon="5.74603">
        <ele>959.3</ele>
        <time>2021-12-19T13:48:10Z</time>
      </trkpt>
      <trkpt lat="45.35018" lon="5.74605">
        <ele>959.1</ele>
        <time>2021-12-19T13:48:11Z</time>
      </trkpt>
      <trkpt lat="45.35021" lon="5.74608">
        <ele>958.8</ele>
        <time>2021-12-19T13:48:12Z</time>
      </trkpt>
      <trkpt lat="45.35025" lon="5.7461">
        <ele>958.6</ele>
        <time>2021-12-19T13:48:13Z</time>
      </trkpt>
      <trkpt lat="45.35029" lon="5.74612">
        <ele>958.3</ele>
        <time>2021-12-19T13:48:14Z</time>
      </trkpt>
      <trkpt lat="45.35032" lon="5.74615">
        <ele>958.1</ele>
        <time>2021-12-19T13:48:15Z</time>
      </trkpt>
      <trkpt lat="45.35035" lon="5.74618">
        <ele>957.8</ele>
        <time>2021-12-19T13:48:16Z</time>
      </trkpt>
      <trkpt lat="45.35039" lon="5.7462">
        <ele>957.6</ele>
        <time>2021-12-19T13:48:17Z</time>
      </trkpt>
      <trkpt lat="45.35042" lon="5.74623">
        <ele>957.3</ele>
        <time>2021-12-19T13:48:18Z</time>
      </trkpt>
      <trkpt lat="45.35045" lon="5.74625">
        <ele>957.1</ele>
        <time>2021-12-19T13:48:19Z</time>
      </trkpt>
      <trkpt lat="45.35048" lon="5.74628">
        <ele>956.9</ele>
        <time>2021-12-19T13:48:20Z</time>
      </trkpt>
      <trkpt lat="45.35051" lon="5.74631">
        <ele>956.7</ele>
        <time>2021-12-19T13:48:21Z</time>
      </trkpt>
      <trkpt lat="45.35054" lon="5.74635">
        <ele>956.5</ele>
        <time>2021-12-19T13:48:22Z</time>
      </trkpt>
      <trkpt lat="45.35057" lon="5.74638">
        <ele>956.3</ele>
        <time>2021-12-19T13:48:23Z</time>
      </trkpt>
      <trkpt lat="45.3506" lon="5.74641">
        <ele>956.1</ele>
        <time>2021-12-19T13:48:24Z</time>
      </trkpt>
      <trkpt lat="45.35064" lon="5.74644">
        <ele>955.8</ele>
        <time>2021-12-19T13:48:25Z</time>
      </trkpt>
      <trkpt lat="45.35067" lon="5.74648">
        <ele>955.6</ele>
        <time>2021-12-19T13:48:26Z</time>
      </trkpt>
      <trkpt lat="45.3507" lon="5.7465">
        <ele>955.4</ele>
        <time>2021-12-19T13:48:27Z</time>
      </trkpt>
      <trkpt lat="45.35073" lon="5.74653">
        <ele>955.2</ele>
        <time>2021-12-19T13:48:28Z</time>
      </trkpt>
      <trkpt lat="45.35077" lon="5.74656">
        <ele>955</ele>
        <time>2021-12-19T13:48:29Z</time>
      </trkpt>
      <trkpt lat="45.3508" lon="5.7466">
        <ele>954.8</ele>
        <time>2021-12-19T13:48:30Z</time>
      </trkpt>
      <trkpt lat="45.35084" lon="5.74664">
        <ele>954.6</ele>
        <time>2021-12-19T13:48:31Z</time>
      </trkpt>
      <trkpt lat="45.35087" lon="5.74668">
        <ele>954.4</ele>
        <time>2021-12-19T13:48:32Z</time>
      </trkpt>
      <trkpt lat="45.35089" lon="5.74672">
        <ele>954.2</ele>
        <time>2021-12-19T13:48:33Z</time>
      </trkpt>
      <trkpt lat="45.35091" lon="5.74675">
        <ele>954.1</ele>
        <time>2021-12-19T13:48:34Z</time>
      </trkpt>
      <trkpt lat="45.35093" lon="5.74679">
        <ele>953.9</ele>
        <time>2021-12-19T13:48:35Z</time>
      </trkpt>
      <trkpt lat="45.35095" lon="5.74681">
        <ele>953.8</ele>
        <time>2021-12-19T13:48:36Z</time>
      </trkpt>
      <trkpt lat="45.35098" lon="5.74683">
        <ele>953.7</ele>
        <time>2021-12-19T13:48:37Z</time>
      </trkpt>
      <trkpt lat="45.35101" lon="5.74685">
        <ele>953.5</ele>
        <time>2021-12-19T13:48:38Z</time>
      </trkpt>
      <trkpt lat="45.35105" lon="5.74687">
        <ele>953.4</ele>
        <time>2021-12-19T13:48:39Z</time>
      </trkpt>
      <trkpt lat="45.35108" lon="5.7469">
        <ele>953.2</ele>
        <time>2021-12-19T13:48:40Z</time>
      </trkpt>
      <trkpt lat="45.35111" lon="5.74693">
        <ele>953</ele>
        <time>2021-12-19T13:48:41Z</time>
      </trkpt>
      <trkpt lat="45.35114" lon="5.74696">
        <ele>952.9</ele>
        <time>2021-12-19T13:48:42Z</time>
      </trkpt>
      <trkpt lat="45.35117" lon="5.74698">
        <ele>952.7</ele>
        <time>2021-12-19T13:48:43Z</time>
      </trkpt>
      <trkpt lat="45.3512" lon="5.74701">
        <ele>952.6</ele>
        <time>2021-12-19T13:48:44Z</time>
      </trkpt>
      <trkpt lat="45.35123" lon="5.74703">
        <ele>952.4</ele>
        <time>2021-12-19T13:48:45Z</time>
      </trkpt>
      <trkpt lat="45.35125" lon="5.74705">
        <ele>952.3</ele>
        <time>2021-12-19T13:48:46Z</time>
      </trkpt>
      <trkpt lat="45.35128" lon="5.74707">
        <ele>952.1</ele>
        <time>2021-12-19T13:48:47Z</time>
      </trkpt>
      <trkpt lat="45.3513" lon="5.74709">
        <ele>952</ele>
        <time>2021-12-19T13:48:48Z</time>
      </trkpt>
      <trkpt lat="45.35133" lon="5.7471">
        <ele>951.9</ele>
        <time>2021-12-19T13:48:49Z</time>
      </trkpt>
      <trkpt lat="45.35135" lon="5.74713">
        <ele>951.8</ele>
        <time>2021-12-19T13:48:50Z</time>
      </trkpt>
      <trkpt lat="45.35137" lon="5.74715">
        <ele>951.6</ele>
        <time>2021-12-19T13:48:51Z</time>
      </trkpt>
      <trkpt lat="45.35139" lon="5.74717">
        <ele>951.5</ele>
        <time>2021-12-19T13:48:52Z</time>
      </trkpt>
      <trkpt lat="45.35141" lon="5.7472">
        <ele>951.4</ele>
        <time>2021-12-19T13:48:53Z</time>
      </trkpt>
      <trkpt lat="45.35143" lon="5.74723">
        <ele>951.2</ele>
        <time>2021-12-19T13:48:54Z</time>
      </trkpt>
      <trkpt lat="45.35144" lon="5.74724">
        <ele>951.1</ele>
        <time>2021-12-19T13:48:55Z</time>
      </trkpt>
      <trkpt lat="45.35145" lon="5.74726">
        <ele>951.1</ele>
        <time>2021-12-19T13:48:56Z</time>
      </trkpt>
      <trkpt lat="45.35145" lon="5.74726">
        <ele>951.1</ele>
        <time>2021-12-19T13:48:57Z</time>
      </trkpt>
      <trkpt lat="45.35145" lon="5.74726">
        <ele>951</ele>
        <time>2021-12-19T13:48:58Z</time>
      </trkpt>
      <trkpt lat="45.35145" lon="5.74726">
        <ele>951</ele>
        <time>2021-12-19T13:48:59Z</time>
      </trkpt>
      <trkpt lat="45.35145" lon="5.74726">
        <ele>951</ele>
        <time>2021-12-19T13:49:00Z</time>
      </trkpt>
      <trkpt lat="45.35145" lon="5.74725">
        <ele>951</ele>
        <time>2021-12-19T13:49:01Z</time>
      </trkpt>
      <trkpt lat="45.35145" lon="5.74725">
        <ele>951</ele>
        <time>2021-12-19T13:49:02Z</time>
      </trkpt>
      <trkpt lat="45.35145" lon="5.74725">
        <ele>951</ele>
        <time>2021-12-19T13:49:03Z</time>
      </trkpt>
      <trkpt lat="45.35145" lon="5.74725">
        <ele>951</ele>
        <time>2021-12-19T13:49:04Z</time>
      </trkpt>
      <trkpt lat="45.35145" lon="5.74725">
        <ele>951</ele>
        <time>2021-12-19T13:49:05Z</time>
      </trkpt>
      <trkpt lat="45.35145" lon="5.74725">
        <ele>951</ele>
        <time>2021-12-19T13:49:06Z</time>
      </trkpt>
      <trkpt lat="45.35145" lon="5.74725">
        <ele>951</ele>
        <time>2021-12-19T13:49:07Z</time>
      </trkpt>
      <trkpt lat="45.35145" lon="5.74725">
        <ele>951</ele>
        <time>2021-12-19T13:49:08Z</time>
      </trkpt>
      <trkpt lat="45.35145" lon="5.74725">
        <ele>951</ele>
        <time>2021-12-19T13:49:09Z</time>
      </trkpt>
      <trkpt lat="45.35145" lon="5.74725">
        <ele>951</ele>
        <time>2021-12-19T13:49:10Z</time>
      </trkpt>
      <trkpt lat="45.35144" lon="5.74726">
        <ele>950.9</ele>
        <time>2021-12-19T13:49:11Z</time>
      </trkpt>
      <trkpt lat="45.35144" lon="5.74726">
        <ele>950.9</ele>
        <time>2021-12-19T13:49:12Z</time>
      </trkpt>
      <trkpt lat="45.35144" lon="5.74726">
        <ele>950.9</ele>
        <time>2021-12-19T13:49:13Z</time>
      </trkpt>
      <trkpt lat="45.35144" lon="5.74726">
        <ele>950.9</ele>
        <time>2021-12-19T13:49:14Z</time>
      </trkpt>
      <trkpt lat="45.35144" lon="5.74726">
        <ele>950.9</ele>
        <time>2021-12-19T13:49:15Z</time>
      </trkpt>
      <trkpt lat="45.35144" lon="5.74726">
        <ele>950.9</ele>
        <time>2021-12-19T13:49:16Z</time>
      </trkpt>
      <trkpt lat="45.35144" lon="5.74726">
        <ele>950.9</ele>
        <time>2021-12-19T13:49:17Z</time>
      </trkpt>
      <trkpt lat="45.35144" lon="5.74727">
        <ele>950.9</ele>
        <time>2021-12-19T13:49:18Z</time>
      </trkpt>
      <trkpt lat="45.35143" lon="5.74727">
        <ele>950.9</ele>
        <time>2021-12-19T13:49:19Z</time>
      </trkpt>
      <trkpt lat="45.35143" lon="5.74728">
        <ele>950.8</ele>
        <time>2021-12-19T13:49:20Z</time>
      </trkpt>
      <trkpt lat="45.35144" lon="5.74729">
        <ele>950.8</ele>
        <time>2021-12-19T13:49:21Z</time>
      </trkpt>
      <trkpt lat="45.35145" lon="5.7473">
        <ele>950.7</ele>
        <time>2021-12-19T13:49:22Z</time>
      </trkpt>
      <trkpt lat="45.35147" lon="5.74733">
        <ele>950.5</ele>
        <time>2021-12-19T13:49:23Z</time>
      </trkpt>
      <trkpt lat="45.35149" lon="5.74736">
        <ele>950.3</ele>
        <time>2021-12-19T13:49:24Z</time>
      </trkpt>
      <trkpt lat="45.35151" lon="5.7474">
        <ele>950.1</ele>
        <time>2021-12-19T13:49:25Z</time>
      </trkpt>
      <trkpt lat="45.35153" lon="5.74744">
        <ele>949.9</ele>
        <time>2021-12-19T13:49:26Z</time>
      </trkpt>
      <trkpt lat="45.35153" lon="5.74746">
        <ele>949.8</ele>
        <time>2021-12-19T13:49:27Z</time>
      </trkpt>
      <trkpt lat="45.35153" lon="5.74747">
        <ele>949.7</ele>
        <time>2021-12-19T13:49:28Z</time>
      </trkpt>
      <trkpt lat="45.35153" lon="5.74747">
        <ele>949.7</ele>
        <time>2021-12-19T13:49:29Z</time>
      </trkpt>
      <trkpt lat="45.35152" lon="5.74747">
        <ele>949.7</ele>
        <time>2021-12-19T13:49:30Z</time>
      </trkpt>
      <trkpt lat="45.35152" lon="5.74748">
        <ele>949.7</ele>
        <time>2021-12-19T13:49:31Z</time>
      </trkpt>
      <trkpt lat="45.35151" lon="5.74748">
        <ele>949.6</ele>
        <time>2021-12-19T13:49:32Z</time>
      </trkpt>
      <trkpt lat="45.35151" lon="5.74748">
        <ele>949.6</ele>
        <time>2021-12-19T13:49:33Z</time>
      </trkpt>
      <trkpt lat="45.35151" lon="5.74748">
        <ele>949.6</ele>
        <time>2021-12-19T13:49:34Z</time>
      </trkpt>
      <trkpt lat="45.3515" lon="5.74747">
        <ele>949.5</ele>
        <time>2021-12-19T13:49:35Z</time>
      </trkpt>
      <trkpt lat="45.3515" lon="5.74747">
        <ele>949.5</ele>
        <time>2021-12-19T13:49:36Z</time>
      </trkpt>
      <trkpt lat="45.3515" lon="5.74747">
        <ele>949.5</ele>
        <time>2021-12-19T13:49:37Z</time>
      </trkpt>
      <trkpt lat="45.3515" lon="5.74746">
        <ele>949.5</ele>
        <time>2021-12-19T13:49:38Z</time>
      </trkpt>
      <trkpt lat="45.3515" lon="5.74746">
        <ele>949.5</ele>
        <time>2021-12-19T13:49:39Z</time>
      </trkpt>
      <trkpt lat="45.3515" lon="5.74746">
        <ele>949.6</ele>
        <time>2021-12-19T13:49:40Z</time>
      </trkpt>
      <trkpt lat="45.35149" lon="5.74746">
        <ele>949.5</ele>
        <time>2021-12-19T13:49:41Z</time>
      </trkpt>
      <trkpt lat="45.35149" lon="5.74745">
        <ele>949.5</ele>
        <time>2021-12-19T13:49:42Z</time>
      </trkpt>
      <trkpt lat="45.35149" lon="5.74745">
        <ele>949.5</ele>
        <time>2021-12-19T13:49:43Z</time>
      </trkpt>
      <trkpt lat="45.35149" lon="5.74744">
        <ele>949.4</ele>
        <time>2021-12-19T13:49:44Z</time>
      </trkpt>
      <trkpt lat="45.35149" lon="5.74744">
        <ele>949.4</ele>
        <time>2021-12-19T13:49:45Z</time>
      </trkpt>
      <trkpt lat="45.35149" lon="5.74744">
        <ele>949.4</ele>
        <time>2021-12-19T13:49:46Z</time>
      </trkpt>
      <trkpt lat="45.35149" lon="5.74744">
        <ele>949.4</ele>
        <time>2021-12-19T13:49:47Z</time>
      </trkpt>
      <trkpt lat="45.35149" lon="5.74744">
        <ele>949.5</ele>
        <time>2021-12-19T13:49:48Z</time>
      </trkpt>
      <trkpt lat="45.35149" lon="5.74744">
        <ele>949.5</ele>
        <time>2021-12-19T13:49:49Z</time>
      </trkpt>
      <trkpt lat="45.35149" lon="5.74743">
        <ele>949.5</ele>
        <time>2021-12-19T13:49:50Z</time>
      </trkpt>
      <trkpt lat="45.3515" lon="5.74744">
        <ele>949.4</ele>
        <time>2021-12-19T13:49:51Z</time>
      </trkpt>
      <trkpt lat="45.3515" lon="5.74744">
        <ele>949.4</ele>
        <time>2021-12-19T13:49:52Z</time>
      </trkpt>
      <trkpt lat="45.35151" lon="5.74745">
        <ele>949.3</ele>
        <time>2021-12-19T13:49:53Z</time>
      </trkpt>
      <trkpt lat="45.35152" lon="5.74745">
        <ele>949.3</ele>
        <time>2021-12-19T13:49:54Z</time>
      </trkpt>
      <trkpt lat="45.35153" lon="5.74747">
        <ele>949.2</ele>
        <time>2021-12-19T13:49:55Z</time>
      </trkpt>
      <trkpt lat="45.35154" lon="5.74749">
        <ele>949</ele>
        <time>2021-12-19T13:49:56Z</time>
      </trkpt>
      <trkpt lat="45.35156" lon="5.74751">
        <ele>948.9</ele>
        <time>2021-12-19T13:49:57Z</time>
      </trkpt>
      <trkpt lat="45.35159" lon="5.74753">
        <ele>948.7</ele>
        <time>2021-12-19T13:49:58Z</time>
      </trkpt>
      <trkpt lat="45.3516" lon="5.74755">
        <ele>948.6</ele>
        <time>2021-12-19T13:49:59Z</time>
      </trkpt>
      <trkpt lat="45.35162" lon="5.74755">
        <ele>948.5</ele>
        <time>2021-12-19T13:50:00Z</time>
      </trkpt>
      <trkpt lat="45.35162" lon="5.74756">
        <ele>948.5</ele>
        <time>2021-12-19T13:50:01Z</time>
      </trkpt>
      <trkpt lat="45.35162" lon="5.74755">
        <ele>948.5</ele>
        <time>2021-12-19T13:50:02Z</time>
      </trkpt>
      <trkpt lat="45.35163" lon="5.74756">
        <ele>948.5</ele>
        <time>2021-12-19T13:50:03Z</time>
      </trkpt>
      <trkpt lat="45.35164" lon="5.74756">
        <ele>948.4</ele>
        <time>2021-12-19T13:50:04Z</time>
      </trkpt>
      <trkpt lat="45.35165" lon="5.74757">
        <ele>948.3</ele>
        <time>2021-12-19T13:50:05Z</time>
      </trkpt>
      <trkpt lat="45.35167" lon="5.74758">
        <ele>948.2</ele>
        <time>2021-12-19T13:50:06Z</time>
      </trkpt>
      <trkpt lat="45.35168" lon="5.74761">
        <ele>948.1</ele>
        <time>2021-12-19T13:50:07Z</time>
      </trkpt>
      <trkpt lat="45.3517" lon="5.74763">
        <ele>947.9</ele>
        <time>2021-12-19T13:50:08Z</time>
      </trkpt>
      <trkpt lat="45.35172" lon="5.74767">
        <ele>947.8</ele>
        <time>2021-12-19T13:50:09Z</time>
      </trkpt>
      <trkpt lat="45.35174" lon="5.74771">
        <ele>947.4</ele>
        <time>2021-12-19T13:50:10Z</time>
      </trkpt>
      <trkpt lat="45.35178" lon="5.74775">
        <ele>947.2</ele>
        <time>2021-12-19T13:50:11Z</time>
      </trkpt>
      <trkpt lat="45.35182" lon="5.74779">
        <ele>946.9</ele>
        <time>2021-12-19T13:50:12Z</time>
      </trkpt>
      <trkpt lat="45.35185" lon="5.74783">
        <ele>946.7</ele>
        <time>2021-12-19T13:50:13Z</time>
      </trkpt>
      <trkpt lat="45.35188" lon="5.74787">
        <ele>946.5</ele>
        <time>2021-12-19T13:50:14Z</time>
      </trkpt>
      <trkpt lat="45.35191" lon="5.7479">
        <ele>946.3</ele>
        <time>2021-12-19T13:50:15Z</time>
      </trkpt>
      <trkpt lat="45.35195" lon="5.74794">
        <ele>946</ele>
        <time>2021-12-19T13:50:16Z</time>
      </trkpt>
      <trkpt lat="45.35198" lon="5.74798">
        <ele>945.7</ele>
        <time>2021-12-19T13:50:17Z</time>
      </trkpt>
      <trkpt lat="45.35201" lon="5.74803">
        <ele>945.3</ele>
        <time>2021-12-19T13:50:18Z</time>
      </trkpt>
      <trkpt lat="45.35204" lon="5.74807">
        <ele>945</ele>
        <time>2021-12-19T13:50:19Z</time>
      </trkpt>
      <trkpt lat="45.35207" lon="5.74809">
        <ele>944.7</ele>
        <time>2021-12-19T13:50:20Z</time>
      </trkpt>
      <trkpt lat="45.3521" lon="5.74812">
        <ele>944.5</ele>
        <time>2021-12-19T13:50:21Z</time>
      </trkpt>
      <trkpt lat="45.35212" lon="5.74814">
        <ele>944.3</ele>
        <time>2021-12-19T13:50:22Z</time>
      </trkpt>
      <trkpt lat="45.35214" lon="5.74815">
        <ele>944.2</ele>
        <time>2021-12-19T13:50:23Z</time>
      </trkpt>
      <trkpt lat="45.35214" lon="5.74815">
        <ele>944.2</ele>
        <time>2021-12-19T13:50:24Z</time>
      </trkpt>
      <trkpt lat="45.35214" lon="5.74815">
        <ele>944.2</ele>
        <time>2021-12-19T13:50:25Z</time>
      </trkpt>
      <trkpt lat="45.35215" lon="5.74816">
        <ele>944.1</ele>
        <time>2021-12-19T13:50:26Z</time>
      </trkpt>
      <trkpt lat="45.35215" lon="5.74816">
        <ele>944.1</ele>
        <time>2021-12-19T13:50:27Z</time>
      </trkpt>
      <trkpt lat="45.35216" lon="5.74816">
        <ele>944.1</ele>
        <time>2021-12-19T13:50:28Z</time>
      </trkpt>
      <trkpt lat="45.35216" lon="5.74816">
        <ele>944.1</ele>
        <time>2021-12-19T13:50:29Z</time>
      </trkpt>
      <trkpt lat="45.35216" lon="5.74817">
        <ele>944.1</ele>
        <time>2021-12-19T13:50:30Z</time>
      </trkpt>
      <trkpt lat="45.35217" lon="5.74817">
        <ele>944</ele>
        <time>2021-12-19T13:50:31Z</time>
      </trkpt>
      <trkpt lat="45.35217" lon="5.74817">
        <ele>944</ele>
        <time>2021-12-19T13:50:32Z</time>
      </trkpt>
      <trkpt lat="45.35217" lon="5.74818">
        <ele>944</ele>
        <time>2021-12-19T13:50:33Z</time>
      </trkpt>
      <trkpt lat="45.35218" lon="5.74818">
        <ele>944</ele>
        <time>2021-12-19T13:50:34Z</time>
      </trkpt>
      <trkpt lat="45.35218" lon="5.74818">
        <ele>944</ele>
        <time>2021-12-19T13:50:35Z</time>
      </trkpt>
      <trkpt lat="45.35219" lon="5.74818">
        <ele>944</ele>
        <time>2021-12-19T13:50:36Z</time>
      </trkpt>
      <trkpt lat="45.35219" lon="5.74819">
        <ele>944</ele>
        <time>2021-12-19T13:50:37Z</time>
      </trkpt>
      <trkpt lat="45.35219" lon="5.74819">
        <ele>944</ele>
        <time>2021-12-19T13:50:38Z</time>
      </trkpt>
      <trkpt lat="45.3522" lon="5.74819">
        <ele>944</ele>
        <time>2021-12-19T13:50:39Z</time>
      </trkpt>
      <trkpt lat="45.3522" lon="5.74819">
        <ele>943.9</ele>
        <time>2021-12-19T13:50:40Z</time>
      </trkpt>
      <trkpt lat="45.35221" lon="5.7482">
        <ele>943.9</ele>
        <time>2021-12-19T13:50:41Z</time>
      </trkpt>
      <trkpt lat="45.35221" lon="5.7482">
        <ele>943.9</ele>
        <time>2021-12-19T13:50:42Z</time>
      </trkpt>
      <trkpt lat="45.35221" lon="5.7482">
        <ele>943.9</ele>
        <time>2021-12-19T13:50:43Z</time>
      </trkpt>
      <trkpt lat="45.35222" lon="5.7482">
        <ele>943.9</ele>
        <time>2021-12-19T13:50:44Z</time>
      </trkpt>
      <trkpt lat="45.35222" lon="5.74821">
        <ele>943.9</ele>
        <time>2021-12-19T13:50:45Z</time>
      </trkpt>
      <trkpt lat="45.35222" lon="5.74821">
        <ele>943.9</ele>
        <time>2021-12-19T13:50:46Z</time>
      </trkpt>
      <trkpt lat="45.35223" lon="5.74821">
        <ele>943.9</ele>
        <time>2021-12-19T13:50:47Z</time>
      </trkpt>
      <trkpt lat="45.35223" lon="5.74822">
        <ele>943.8</ele>
        <time>2021-12-19T13:50:48Z</time>
      </trkpt>
      <trkpt lat="45.35224" lon="5.74822">
        <ele>943.8</ele>
        <time>2021-12-19T13:50:49Z</time>
      </trkpt>
      <trkpt lat="45.35224" lon="5.74822">
        <ele>943.8</ele>
        <time>2021-12-19T13:50:50Z</time>
      </trkpt>
      <trkpt lat="45.35224" lon="5.74822">
        <ele>943.8</ele>
        <time>2021-12-19T13:50:51Z</time>
      </trkpt>
      <trkpt lat="45.35225" lon="5.74823">
        <ele>943.8</ele>
        <time>2021-12-19T13:50:52Z</time>
      </trkpt>
      <trkpt lat="45.35225" lon="5.74823">
        <ele>943.8</ele>
        <time>2021-12-19T13:50:53Z</time>
      </trkpt>
      <trkpt lat="45.35225" lon="5.74823">
        <ele>943.8</ele>
        <time>2021-12-19T13:50:54Z</time>
      </trkpt>
      <trkpt lat="45.35226" lon="5.74823">
        <ele>943.8</ele>
        <time>2021-12-19T13:50:55Z</time>
      </trkpt>
      <trkpt lat="45.35226" lon="5.74824">
        <ele>943.8</ele>
        <time>2021-12-19T13:50:56Z</time>
      </trkpt>
      <trkpt lat="45.35227" lon="5.74824">
        <ele>943.7</ele>
        <time>2021-12-19T13:50:57Z</time>
      </trkpt>
      <trkpt lat="45.35227" lon="5.74824">
        <ele>943.7</ele>
        <time>2021-12-19T13:50:58Z</time>
      </trkpt>
      <trkpt lat="45.35227" lon="5.74824">
        <ele>943.7</ele>
        <time>2021-12-19T13:50:59Z</time>
      </trkpt>
      <trkpt lat="45.35228" lon="5.74825">
        <ele>943.7</ele>
        <time>2021-12-19T13:51:00Z</time>
      </trkpt>
      <trkpt lat="45.35228" lon="5.74825">
        <ele>943.7</ele>
        <time>2021-12-19T13:51:01Z</time>
      </trkpt>
      <trkpt lat="45.35228" lon="5.74825">
        <ele>943.7</ele>
        <time>2021-12-19T13:51:02Z</time>
      </trkpt>
      <trkpt lat="45.35229" lon="5.74826">
        <ele>943.7</ele>
        <time>2021-12-19T13:51:03Z</time>
      </trkpt>
      <trkpt lat="45.35229" lon="5.74826">
        <ele>943.7</ele>
        <time>2021-12-19T13:51:04Z</time>
      </trkpt>
      <trkpt lat="45.3523" lon="5.74826">
        <ele>943.6</ele>
        <time>2021-12-19T13:51:05Z</time>
      </trkpt>
      <trkpt lat="45.3523" lon="5.74826">
        <ele>943.6</ele>
        <time>2021-12-19T13:51:06Z</time>
      </trkpt>
      <trkpt lat="45.3523" lon="5.74827">
        <ele>943.6</ele>
        <time>2021-12-19T13:51:07Z</time>
      </trkpt>
      <trkpt lat="45.35231" lon="5.74827">
        <ele>943.6</ele>
        <time>2021-12-19T13:51:08Z</time>
      </trkpt>
      <trkpt lat="45.35231" lon="5.74827">
        <ele>943.6</ele>
        <time>2021-12-19T13:51:09Z</time>
      </trkpt>
      <trkpt lat="45.35232" lon="5.74827">
        <ele>943.6</ele>
        <time>2021-12-19T13:51:10Z</time>
      </trkpt>
      <trkpt lat="45.35232" lon="5.74828">
        <ele>943.6</ele>
        <time>2021-12-19T13:51:11Z</time>
      </trkpt>
      <trkpt lat="45.35232" lon="5.74828">
        <ele>943.6</ele>
        <time>2021-12-19T13:51:12Z</time>
      </trkpt>
      <trkpt lat="45.35233" lon="5.74828">
        <ele>943.6</ele>
        <time>2021-12-19T13:51:13Z</time>
      </trkpt>
      <trkpt lat="45.35233" lon="5.74828">
        <ele>943.5</ele>
        <time>2021-12-19T13:51:14Z</time>
      </trkpt>
      <trkpt lat="45.35233" lon="5.74829">
        <ele>943.5</ele>
        <time>2021-12-19T13:51:15Z</time>
      </trkpt>
      <trkpt lat="45.35235" lon="5.74832">
        <ele>943.5</ele>
        <time>2021-12-19T13:51:16Z</time>
      </trkpt>
      <trkpt lat="45.3524" lon="5.7483">
        <ele>943.3</ele>
        <time>2021-12-19T13:51:17Z</time>
      </trkpt>
      <trkpt lat="45.35243" lon="5.7483">
        <ele>943.2</ele>
        <time>2021-12-19T13:51:18Z</time>
      </trkpt>
      <trkpt lat="45.35246" lon="5.74831">
        <ele>943.2</ele>
        <time>2021-12-19T13:51:19Z</time>
      </trkpt>
      <trkpt lat="45.35249" lon="5.74832">
        <ele>943.1</ele>
        <time>2021-12-19T13:51:20Z</time>
      </trkpt>
      <trkpt lat="45.3525" lon="5.74832">
        <ele>943.1</ele>
        <time>2021-12-19T13:51:21Z</time>
      </trkpt>
      <trkpt lat="45.35251" lon="5.7483">
        <ele>943</ele>
        <time>2021-12-19T13:51:22Z</time>
      </trkpt>
      <trkpt lat="45.35252" lon="5.74831">
        <ele>943</ele>
        <time>2021-12-19T13:51:23Z</time>
      </trkpt>
      <trkpt lat="45.35252" lon="5.74832">
        <ele>943</ele>
        <time>2021-12-19T13:51:24Z</time>
      </trkpt>
      <trkpt lat="45.35253" lon="5.74831">
        <ele>943</ele>
        <time>2021-12-19T13:51:25Z</time>
      </trkpt>
      <trkpt lat="45.35254" lon="5.74831">
        <ele>942.9</ele>
        <time>2021-12-19T13:51:26Z</time>
      </trkpt>
      <trkpt lat="45.35255" lon="5.74831">
        <ele>942.9</ele>
        <time>2021-12-19T13:51:27Z</time>
      </trkpt>
      <trkpt lat="45.35255" lon="5.74831">
        <ele>942.9</ele>
        <time>2021-12-19T13:51:28Z</time>
      </trkpt>
      <trkpt lat="45.35255" lon="5.7483">
        <ele>942.9</ele>
        <time>2021-12-19T13:51:29Z</time>
      </trkpt>
      <trkpt lat="45.35256" lon="5.7483">
        <ele>942.9</ele>
        <time>2021-12-19T13:51:30Z</time>
      </trkpt>
      <trkpt lat="45.35256" lon="5.7483">
        <ele>942.9</ele>
        <time>2021-12-19T13:51:31Z</time>
      </trkpt>
      <trkpt lat="45.35256" lon="5.7483">
        <ele>942.9</ele>
        <time>2021-12-19T13:51:32Z</time>
      </trkpt>
      <trkpt lat="45.35255" lon="5.74832">
        <ele>942.8</ele>
        <time>2021-12-19T13:51:33Z</time>
      </trkpt>
      <trkpt lat="45.35255" lon="5.74832">
        <ele>942.8</ele>
        <time>2021-12-19T13:51:34Z</time>
      </trkpt>
      <trkpt lat="45.35254" lon="5.74832">
        <ele>942.8</ele>
        <time>2021-12-19T13:51:35Z</time>
      </trkpt>
      <trkpt lat="45.35254" lon="5.74832">
        <ele>942.8</ele>
        <time>2021-12-19T13:51:36Z</time>
      </trkpt>
      <trkpt lat="45.35254" lon="5.74832">
        <ele>942.8</ele>
        <time>2021-12-19T13:51:37Z</time>
      </trkpt>
      <trkpt lat="45.35253" lon="5.74832">
        <ele>942.8</ele>
        <time>2021-12-19T13:51:38Z</time>
      </trkpt>
      <trkpt lat="45.35254" lon="5.74831">
        <ele>942.7</ele>
        <time>2021-12-19T13:51:39Z</time>
      </trkpt>
      <trkpt lat="45.35254" lon="5.74832">
        <ele>942.7</ele>
        <time>2021-12-19T13:51:40Z</time>
      </trkpt>
      <trkpt lat="45.35254" lon="5.74831">
        <ele>942.7</ele>
        <time>2021-12-19T13:51:41Z</time>
      </trkpt>
      <trkpt lat="45.35254" lon="5.7483">
        <ele>942.7</ele>
        <time>2021-12-19T13:51:42Z</time>
      </trkpt>
      <trkpt lat="45.35254" lon="5.7483">
        <ele>942.7</ele>
        <time>2021-12-19T13:51:43Z</time>
      </trkpt>
      <trkpt lat="45.35254" lon="5.74829">
        <ele>942.7</ele>
        <time>2021-12-19T13:51:44Z</time>
      </trkpt>
      <trkpt lat="45.35254" lon="5.74829">
        <ele>942.7</ele>
        <time>2021-12-19T13:51:45Z</time>
      </trkpt>
      <trkpt lat="45.35254" lon="5.74829">
        <ele>942.7</ele>
        <time>2021-12-19T13:51:46Z</time>
      </trkpt>
      <trkpt lat="45.35253" lon="5.7483">
        <ele>942.6</ele>
        <time>2021-12-19T13:51:47Z</time>
      </trkpt>
      <trkpt lat="45.35254" lon="5.74831">
        <ele>942.6</ele>
        <time>2021-12-19T13:51:48Z</time>
      </trkpt>
      <trkpt lat="45.35253" lon="5.74833">
        <ele>942.6</ele>
        <time>2021-12-19T13:51:49Z</time>
      </trkpt>
      <trkpt lat="45.35253" lon="5.74834">
        <ele>942.6</ele>
        <time>2021-12-19T13:51:50Z</time>
      </trkpt>
      <trkpt lat="45.35253" lon="5.74834">
        <ele>942.6</ele>
        <time>2021-12-19T13:51:51Z</time>
      </trkpt>
      <trkpt lat="45.35252" lon="5.74835">
        <ele>942.5</ele>
        <time>2021-12-19T13:51:52Z</time>
      </trkpt>
      <trkpt lat="45.35252" lon="5.74836">
        <ele>942.5</ele>
        <time>2021-12-19T13:51:53Z</time>
      </trkpt>
      <trkpt lat="45.35252" lon="5.74836">
        <ele>942.5</ele>
        <time>2021-12-19T13:51:54Z</time>
      </trkpt>
      <trkpt lat="45.35252" lon="5.74836">
        <ele>942.5</ele>
        <time>2021-12-19T13:51:55Z</time>
      </trkpt>
      <trkpt lat="45.35252" lon="5.74836">
        <ele>942.5</ele>
        <time>2021-12-19T13:51:56Z</time>
      </trkpt>
      <trkpt lat="45.35252" lon="5.74837">
        <ele>942.5</ele>
        <time>2021-12-19T13:51:57Z</time>
      </trkpt>
      <trkpt lat="45.35252" lon="5.74835">
        <ele>942.5</ele>
        <time>2021-12-19T13:51:58Z</time>
      </trkpt>
      <trkpt lat="45.35252" lon="5.74833">
        <ele>942.4</ele>
        <time>2021-12-19T13:51:59Z</time>
      </trkpt>
      <trkpt lat="45.35252" lon="5.74831">
        <ele>942.4</ele>
        <time>2021-12-19T13:52:00Z</time>
      </trkpt>
      <trkpt lat="45.35251" lon="5.74829">
        <ele>942.3</ele>
        <time>2021-12-19T13:52:01Z</time>
      </trkpt>
      <trkpt lat="45.35251" lon="5.74828">
        <ele>942.3</ele>
        <time>2021-12-19T13:52:02Z</time>
      </trkpt>
      <trkpt lat="45.3525" lon="5.74827">
        <ele>942.3</ele>
        <time>2021-12-19T13:52:03Z</time>
      </trkpt>
      <trkpt lat="45.3525" lon="5.74827">
        <ele>942.3</ele>
        <time>2021-12-19T13:52:04Z</time>
      </trkpt>
      <trkpt lat="45.3525" lon="5.74827">
        <ele>942.3</ele>
        <time>2021-12-19T13:52:05Z</time>
      </trkpt>
      <trkpt lat="45.35249" lon="5.74826">
        <ele>942.3</ele>
        <time>2021-12-19T13:52:06Z</time>
      </trkpt>
      <trkpt lat="45.35249" lon="5.74827">
        <ele>942.3</ele>
        <time>2021-12-19T13:52:07Z</time>
      </trkpt>
      <trkpt lat="45.35249" lon="5.74828">
        <ele>942.2</ele>
        <time>2021-12-19T13:52:08Z</time>
      </trkpt>
      <trkpt lat="45.35249" lon="5.74828">
        <ele>942.2</ele>
        <time>2021-12-19T13:52:09Z</time>
      </trkpt>
      <trkpt lat="45.35249" lon="5.74829">
        <ele>942.2</ele>
        <time>2021-12-19T13:52:10Z</time>
      </trkpt>
      <trkpt lat="45.35249" lon="5.74829">
        <ele>942.2</ele>
        <time>2021-12-19T13:52:11Z</time>
      </trkpt>
      <trkpt lat="45.35249" lon="5.7483">
        <ele>942.2</ele>
        <time>2021-12-19T13:52:12Z</time>
      </trkpt>
      <trkpt lat="45.3525" lon="5.74831">
        <ele>942.2</ele>
        <time>2021-12-19T13:52:13Z</time>
      </trkpt>
      <trkpt lat="45.3525" lon="5.74832">
        <ele>942.2</ele>
        <time>2021-12-19T13:52:14Z</time>
      </trkpt>
      <trkpt lat="45.35249" lon="5.74832">
        <ele>942.2</ele>
        <time>2021-12-19T13:52:15Z</time>
      </trkpt>
      <trkpt lat="45.3525" lon="5.74832">
        <ele>942.2</ele>
        <time>2021-12-19T13:52:16Z</time>
      </trkpt>
      <trkpt lat="45.3525" lon="5.74833">
        <ele>942.1</ele>
        <time>2021-12-19T13:52:17Z</time>
      </trkpt>
      <trkpt lat="45.3525" lon="5.74835">
        <ele>942.1</ele>
        <time>2021-12-19T13:52:18Z</time>
      </trkpt>
      <trkpt lat="45.35251" lon="5.74836">
        <ele>942.1</ele>
        <time>2021-12-19T13:52:19Z</time>
      </trkpt>
      <trkpt lat="45.35251" lon="5.74837">
        <ele>942.1</ele>
        <time>2021-12-19T13:52:20Z</time>
      </trkpt>
      <trkpt lat="45.35251" lon="5.74838">
        <ele>942.1</ele>
        <time>2021-12-19T13:52:21Z</time>
      </trkpt>
      <trkpt lat="45.35252" lon="5.74838">
        <ele>942</ele>
        <time>2021-12-19T13:52:22Z</time>
      </trkpt>
      <trkpt lat="45.35253" lon="5.74839">
        <ele>942</ele>
        <time>2021-12-19T13:52:23Z</time>
      </trkpt>
      <trkpt lat="45.35253" lon="5.74839">
        <ele>942</ele>
        <time>2021-12-19T13:52:24Z</time>
      </trkpt>
      <trkpt lat="45.35254" lon="5.74839">
        <ele>942</ele>
        <time>2021-12-19T13:52:25Z</time>
      </trkpt>
      <trkpt lat="45.35254" lon="5.74839">
        <ele>942</ele>
        <time>2021-12-19T13:52:26Z</time>
      </trkpt>
      <trkpt lat="45.35255" lon="5.74838">
        <ele>942</ele>
        <time>2021-12-19T13:52:27Z</time>
      </trkpt>
      <trkpt lat="45.35255" lon="5.74838">
        <ele>942</ele>
        <time>2021-12-19T13:52:28Z</time>
      </trkpt>
      <trkpt lat="45.35255" lon="5.74838">
        <ele>941.9</ele>
        <time>2021-12-19T13:52:29Z</time>
      </trkpt>
      <trkpt lat="45.35255" lon="5.74837">
        <ele>941.9</ele>
        <time>2021-12-19T13:52:30Z</time>
      </trkpt>
      <trkpt lat="45.35255" lon="5.74837">
        <ele>941.9</ele>
        <time>2021-12-19T13:52:31Z</time>
      </trkpt>
      <trkpt lat="45.35255" lon="5.74837">
        <ele>941.9</ele>
        <time>2021-12-19T13:52:32Z</time>
      </trkpt>
      <trkpt lat="45.35255" lon="5.74837">
        <ele>941.9</ele>
        <time>2021-12-19T13:52:33Z</time>
      </trkpt>
      <trkpt lat="45.35255" lon="5.74837">
        <ele>941.9</ele>
        <time>2021-12-19T13:52:34Z</time>
      </trkpt>
      <trkpt lat="45.35255" lon="5.74837">
        <ele>941.9</ele>
        <time>2021-12-19T13:52:35Z</time>
      </trkpt>
      <trkpt lat="45.35254" lon="5.74837">
        <ele>941.9</ele>
        <time>2021-12-19T13:52:36Z</time>
      </trkpt>
      <trkpt lat="45.35254" lon="5.74836">
        <ele>941.9</ele>
        <time>2021-12-19T13:52:37Z</time>
      </trkpt>
      <trkpt lat="45.35255" lon="5.74836">
        <ele>941.9</ele>
        <time>2021-12-19T13:52:38Z</time>
      </trkpt>
      <trkpt lat="45.35255" lon="5.74836">
        <ele>941.9</ele>
        <time>2021-12-19T13:52:39Z</time>
      </trkpt>
      <trkpt lat="45.35255" lon="5.74836">
        <ele>941.9</ele>
        <time>2021-12-19T13:52:40Z</time>
      </trkpt>
      <trkpt lat="45.35256" lon="5.74836">
        <ele>941.9</ele>
        <time>2021-12-19T13:52:41Z</time>
      </trkpt>
      <trkpt lat="45.35256" lon="5.74836">
        <ele>941.9</ele>
        <time>2021-12-19T13:52:42Z</time>
      </trkpt>
      <trkpt lat="45.35256" lon="5.74836">
        <ele>941.8</ele>
        <time>2021-12-19T13:52:43Z</time>
      </trkpt>
      <trkpt lat="45.35256" lon="5.74836">
        <ele>941.8</ele>
        <time>2021-12-19T13:52:44Z</time>
      </trkpt>
      <trkpt lat="45.35256" lon="5.74837">
        <ele>941.8</ele>
        <time>2021-12-19T13:52:45Z</time>
      </trkpt>
      <trkpt lat="45.35256" lon="5.74837">
        <ele>941.8</ele>
        <time>2021-12-19T13:52:46Z</time>
      </trkpt>
      <trkpt lat="45.35256" lon="5.74837">
        <ele>941.8</ele>
        <time>2021-12-19T13:52:47Z</time>
      </trkpt>
      <trkpt lat="45.35256" lon="5.74837">
        <ele>941.8</ele>
        <time>2021-12-19T13:52:48Z</time>
      </trkpt>
      <trkpt lat="45.35255" lon="5.74837">
        <ele>941.8</ele>
        <time>2021-12-19T13:52:49Z</time>
      </trkpt>
      <trkpt lat="45.35255" lon="5.74838">
        <ele>941.8</ele>
        <time>2021-12-19T13:52:50Z</time>
      </trkpt>
      <trkpt lat="45.35255" lon="5.74839">
        <ele>941.8</ele>
        <time>2021-12-19T13:52:51Z</time>
      </trkpt>
      <trkpt lat="45.35254" lon="5.7484">
        <ele>941.7</ele>
        <time>2021-12-19T13:52:52Z</time>
      </trkpt>
      <trkpt lat="45.35254" lon="5.7484">
        <ele>941.7</ele>
        <time>2021-12-19T13:52:53Z</time>
      </trkpt>
      <trkpt lat="45.35254" lon="5.74841">
        <ele>941.7</ele>
        <time>2021-12-19T13:52:54Z</time>
      </trkpt>
      <trkpt lat="45.35254" lon="5.74841">
        <ele>941.7</ele>
        <time>2021-12-19T13:52:55Z</time>
      </trkpt>
      <trkpt lat="45.35253" lon="5.7484">
        <ele>941.7</ele>
        <time>2021-12-19T13:52:56Z</time>
      </trkpt>
      <trkpt lat="45.35253" lon="5.74841">
        <ele>941.7</ele>
        <time>2021-12-19T13:52:57Z</time>
      </trkpt>
      <trkpt lat="45.35253" lon="5.74842">
        <ele>941.7</ele>
        <time>2021-12-19T13:52:58Z</time>
      </trkpt>
      <trkpt lat="45.35253" lon="5.74842">
        <ele>941.7</ele>
        <time>2021-12-19T13:52:59Z</time>
      </trkpt>
      <trkpt lat="45.35253" lon="5.74844">
        <ele>941.6</ele>
        <time>2021-12-19T13:53:00Z</time>
      </trkpt>
      <trkpt lat="45.35253" lon="5.74844">
        <ele>941.6</ele>
        <time>2021-12-19T13:53:01Z</time>
      </trkpt>
      <trkpt lat="45.35253" lon="5.74844">
        <ele>941.6</ele>
        <time>2021-12-19T13:53:02Z</time>
      </trkpt>
      <trkpt lat="45.35253" lon="5.74844">
        <ele>941.6</ele>
        <time>2021-12-19T13:53:03Z</time>
      </trkpt>
      <trkpt lat="45.35253" lon="5.74844">
        <ele>941.6</ele>
        <time>2021-12-19T13:53:04Z</time>
      </trkpt>
      <trkpt lat="45.35253" lon="5.74845">
        <ele>941.6</ele>
        <time>2021-12-19T13:53:05Z</time>
      </trkpt>
      <trkpt lat="45.35253" lon="5.74846">
        <ele>941.6</ele>
        <time>2021-12-19T13:53:06Z</time>
      </trkpt>
      <trkpt lat="45.35253" lon="5.74846">
        <ele>941.6</ele>
        <time>2021-12-19T13:53:07Z</time>
      </trkpt>
      <trkpt lat="45.35253" lon="5.74847">
        <ele>941.5</ele>
        <time>2021-12-19T13:53:08Z</time>
      </trkpt>
      <trkpt lat="45.35252" lon="5.74849">
        <ele>941.5</ele>
        <time>2021-12-19T13:53:09Z</time>
      </trkpt>
      <trkpt lat="45.35252" lon="5.7485">
        <ele>941.5</ele>
        <time>2021-12-19T13:53:10Z</time>
      </trkpt>
      <trkpt lat="45.35253" lon="5.74851">
        <ele>941.5</ele>
        <time>2021-12-19T13:53:11Z</time>
      </trkpt>
      <trkpt lat="45.35253" lon="5.74851">
        <ele>941.4</ele>
        <time>2021-12-19T13:53:12Z</time>
      </trkpt>
      <trkpt lat="45.35254" lon="5.74852">
        <ele>941.4</ele>
        <time>2021-12-19T13:53:13Z</time>
      </trkpt>
      <trkpt lat="45.35254" lon="5.74853">
        <ele>941.4</ele>
        <time>2021-12-19T13:53:14Z</time>
      </trkpt>
      <trkpt lat="45.35255" lon="5.74853">
        <ele>941.4</ele>
        <time>2021-12-19T13:53:15Z</time>
      </trkpt>
      <trkpt lat="45.35255" lon="5.74854">
        <ele>941.4</ele>
        <time>2021-12-19T13:53:16Z</time>
      </trkpt>
      <trkpt lat="45.35256" lon="5.74854">
        <ele>941.4</ele>
        <time>2021-12-19T13:53:17Z</time>
      </trkpt>
      <trkpt lat="45.35256" lon="5.74855">
        <ele>941.3</ele>
        <time>2021-12-19T13:53:18Z</time>
      </trkpt>
      <trkpt lat="45.35256" lon="5.74856">
        <ele>941.3</ele>
        <time>2021-12-19T13:53:19Z</time>
      </trkpt>
      <trkpt lat="45.35256" lon="5.74857">
        <ele>941.3</ele>
        <time>2021-12-19T13:53:20Z</time>
      </trkpt>
      <trkpt lat="45.35256" lon="5.74857">
        <ele>941.3</ele>
        <time>2021-12-19T13:53:21Z</time>
      </trkpt>
      <trkpt lat="45.35257" lon="5.74859">
        <ele>941.2</ele>
        <time>2021-12-19T13:53:22Z</time>
      </trkpt>
      <trkpt lat="45.35256" lon="5.7486">
        <ele>941.2</ele>
        <time>2021-12-19T13:53:23Z</time>
      </trkpt>
      <trkpt lat="45.35256" lon="5.74861">
        <ele>941.2</ele>
        <time>2021-12-19T13:53:24Z</time>
      </trkpt>
      <trkpt lat="45.35256" lon="5.74861">
        <ele>941.2</ele>
        <time>2021-12-19T13:53:25Z</time>
      </trkpt>
      <trkpt lat="45.35256" lon="5.74861">
        <ele>941.2</ele>
        <time>2021-12-19T13:53:26Z</time>
      </trkpt>
      <trkpt lat="45.35256" lon="5.74861">
        <ele>941.2</ele>
        <time>2021-12-19T13:53:27Z</time>
      </trkpt>
      <trkpt lat="45.35256" lon="5.7486">
        <ele>941.2</ele>
        <time>2021-12-19T13:53:28Z</time>
      </trkpt>
      <trkpt lat="45.35256" lon="5.7486">
        <ele>941.2</ele>
        <time>2021-12-19T13:53:29Z</time>
      </trkpt>
      <trkpt lat="45.35255" lon="5.74859">
        <ele>941.1</ele>
        <time>2021-12-19T13:53:30Z</time>
      </trkpt>
      <trkpt lat="45.35255" lon="5.74857">
        <ele>941.1</ele>
        <time>2021-12-19T13:53:31Z</time>
      </trkpt>
      <trkpt lat="45.35255" lon="5.74855">
        <ele>941.1</ele>
        <time>2021-12-19T13:53:32Z</time>
      </trkpt>
      <trkpt lat="45.35254" lon="5.74854">
        <ele>941</ele>
        <time>2021-12-19T13:53:33Z</time>
      </trkpt>
      <trkpt lat="45.35254" lon="5.74852">
        <ele>941</ele>
        <time>2021-12-19T13:53:34Z</time>
      </trkpt>
      <trkpt lat="45.35254" lon="5.7485">
        <ele>941</ele>
        <time>2021-12-19T13:53:35Z</time>
      </trkpt>
      <trkpt lat="45.35253" lon="5.74849">
        <ele>940.9</ele>
        <time>2021-12-19T13:53:36Z</time>
      </trkpt>
      <trkpt lat="45.35253" lon="5.74847">
        <ele>940.9</ele>
        <time>2021-12-19T13:53:37Z</time>
      </trkpt>
      <trkpt lat="45.35253" lon="5.74845">
        <ele>940.9</ele>
        <time>2021-12-19T13:53:38Z</time>
      </trkpt>
      <trkpt lat="45.35253" lon="5.74843">
        <ele>940.8</ele>
        <time>2021-12-19T13:53:39Z</time>
      </trkpt>
      <trkpt lat="45.35253" lon="5.74842">
        <ele>940.8</ele>
        <time>2021-12-19T13:53:40Z</time>
      </trkpt>
      <trkpt lat="45.35253" lon="5.7484">
        <ele>940.8</ele>
        <time>2021-12-19T13:53:41Z</time>
      </trkpt>
      <trkpt lat="45.35253" lon="5.74839">
        <ele>940.7</ele>
        <time>2021-12-19T13:53:42Z</time>
      </trkpt>
      <trkpt lat="45.35253" lon="5.74838">
        <ele>940.7</ele>
        <time>2021-12-19T13:53:43Z</time>
      </trkpt>
      <trkpt lat="45.35253" lon="5.74837">
        <ele>940.7</ele>
        <time>2021-12-19T13:53:44Z</time>
      </trkpt>
      <trkpt lat="45.35253" lon="5.74836">
        <ele>940.7</ele>
        <time>2021-12-19T13:53:45Z</time>
      </trkpt>
      <trkpt lat="45.35252" lon="5.74835">
        <ele>940.7</ele>
        <time>2021-12-19T13:53:46Z</time>
      </trkpt>
      <trkpt lat="45.35253" lon="5.74834">
        <ele>940.6</ele>
        <time>2021-12-19T13:53:47Z</time>
      </trkpt>
      <trkpt lat="45.35252" lon="5.74833">
        <ele>940.6</ele>
        <time>2021-12-19T13:53:48Z</time>
      </trkpt>
      <trkpt lat="45.35252" lon="5.74832">
        <ele>940.6</ele>
        <time>2021-12-19T13:53:49Z</time>
      </trkpt>
      <trkpt lat="45.35252" lon="5.74831">
        <ele>940.6</ele>
        <time>2021-12-19T13:53:50Z</time>
      </trkpt>
      <trkpt lat="45.35252" lon="5.7483">
        <ele>940.6</ele>
        <time>2021-12-19T13:53:51Z</time>
      </trkpt>
      <trkpt lat="45.35252" lon="5.7483">
        <ele>940.5</ele>
        <time>2021-12-19T13:53:52Z</time>
      </trkpt>
      <trkpt lat="45.35252" lon="5.74829">
        <ele>940.5</ele>
        <time>2021-12-19T13:53:53Z</time>
      </trkpt>
      <trkpt lat="45.35252" lon="5.74828">
        <ele>940.5</ele>
        <time>2021-12-19T13:53:54Z</time>
      </trkpt>
      <trkpt lat="45.35252" lon="5.74827">
        <ele>940.5</ele>
        <time>2021-12-19T13:53:55Z</time>
      </trkpt>
      <trkpt lat="45.35252" lon="5.74827">
        <ele>940.5</ele>
        <time>2021-12-19T13:53:56Z</time>
      </trkpt>
      <trkpt lat="45.35252" lon="5.74826">
        <ele>940.5</ele>
        <time>2021-12-19T13:53:57Z</time>
      </trkpt>
      <trkpt lat="45.35252" lon="5.74826">
        <ele>940.5</ele>
        <time>2021-12-19T13:53:58Z</time>
      </trkpt>
      <trkpt lat="45.35252" lon="5.74825">
        <ele>940.5</ele>
        <time>2021-12-19T13:53:59Z</time>
      </trkpt>
      <trkpt lat="45.35252" lon="5.74825">
        <ele>940.5</ele>
        <time>2021-12-19T13:54:00Z</time>
      </trkpt>
      <trkpt lat="45.35252" lon="5.74825">
        <ele>940.5</ele>
        <time>2021-12-19T13:54:01Z</time>
      </trkpt>
      <trkpt lat="45.35252" lon="5.74825">
        <ele>940.4</ele>
        <time>2021-12-19T13:54:02Z</time>
      </trkpt>
      <trkpt lat="45.35252" lon="5.74825">
        <ele>940.4</ele>
        <time>2021-12-19T13:54:03Z</time>
      </trkpt>
      <trkpt lat="45.35252" lon="5.74824">
        <ele>940.4</ele>
        <time>2021-12-19T13:54:04Z</time>
      </trkpt>
      <trkpt lat="45.35252" lon="5.74824">
        <ele>940.4</ele>
        <time>2021-12-19T13:54:05Z</time>
      </trkpt>
      <trkpt lat="45.35252" lon="5.74823">
        <ele>940.4</ele>
        <time>2021-12-19T13:54:06Z</time>
      </trkpt>
      <trkpt lat="45.35253" lon="5.74823">
        <ele>940.4</ele>
        <time>2021-12-19T13:54:07Z</time>
      </trkpt>
      <trkpt lat="45.35253" lon="5.74823">
        <ele>940.4</ele>
        <time>2021-12-19T13:54:08Z</time>
      </trkpt>
      <trkpt lat="45.35253" lon="5.74823">
        <ele>940.4</ele>
        <time>2021-12-19T13:54:09Z</time>
      </trkpt>
      <trkpt lat="45.35253" lon="5.74823">
        <ele>940.4</ele>
        <time>2021-12-19T13:54:10Z</time>
      </trkpt>
      <trkpt lat="45.35253" lon="5.74823">
        <ele>940.4</ele>
        <time>2021-12-19T13:54:11Z</time>
      </trkpt>
      <trkpt lat="45.35253" lon="5.74824">
        <ele>940.4</ele>
        <time>2021-12-19T13:54:12Z</time>
      </trkpt>
      <trkpt lat="45.35253" lon="5.74824">
        <ele>940.4</ele>
        <time>2021-12-19T13:54:13Z</time>
      </trkpt>
      <trkpt lat="45.35252" lon="5.74825">
        <ele>940.3</ele>
        <time>2021-12-19T13:54:14Z</time>
      </trkpt>
      <trkpt lat="45.35253" lon="5.74825">
        <ele>940.3</ele>
        <time>2021-12-19T13:54:15Z</time>
      </trkpt>
      <trkpt lat="45.35253" lon="5.74826">
        <ele>940.3</ele>
        <time>2021-12-19T13:54:16Z</time>
      </trkpt>
      <trkpt lat="45.35254" lon="5.74827">
        <ele>940.3</ele>
        <time>2021-12-19T13:54:17Z</time>
      </trkpt>
      <trkpt lat="45.35255" lon="5.74827">
        <ele>940.2</ele>
        <time>2021-12-19T13:54:18Z</time>
      </trkpt>
      <trkpt lat="45.35256" lon="5.74826">
        <ele>940.2</ele>
        <time>2021-12-19T13:54:19Z</time>
      </trkpt>
      <trkpt lat="45.35257" lon="5.74826">
        <ele>940.2</ele>
        <time>2021-12-19T13:54:20Z</time>
      </trkpt>
      <trkpt lat="45.35258" lon="5.74827">
        <ele>940.1</ele>
        <time>2021-12-19T13:54:21Z</time>
      </trkpt>
      <trkpt lat="45.35259" lon="5.74829">
        <ele>940.1</ele>
        <time>2021-12-19T13:54:22Z</time>
      </trkpt>
      <trkpt lat="45.35261" lon="5.74831">
        <ele>940</ele>
        <time>2021-12-19T13:54:23Z</time>
      </trkpt>
      <trkpt lat="45.35262" lon="5.74835">
        <ele>940</ele>
        <time>2021-12-19T13:54:24Z</time>
      </trkpt>
      <trkpt lat="45.35263" lon="5.74836">
        <ele>939.9</ele>
        <time>2021-12-19T13:54:25Z</time>
      </trkpt>
      <trkpt lat="45.35265" lon="5.74837">
        <ele>939.8</ele>
        <time>2021-12-19T13:54:26Z</time>
      </trkpt>
      <trkpt lat="45.35268" lon="5.74838">
        <ele>939.8</ele>
        <time>2021-12-19T13:54:27Z</time>
      </trkpt>
      <trkpt lat="45.3527" lon="5.74839">
        <ele>939.7</ele>
        <time>2021-12-19T13:54:28Z</time>
      </trkpt>
      <trkpt lat="45.35272" lon="5.74841">
        <ele>939.7</ele>
        <time>2021-12-19T13:54:29Z</time>
      </trkpt>
      <trkpt lat="45.35274" lon="5.74843">
        <ele>939.6</ele>
        <time>2021-12-19T13:54:30Z</time>
      </trkpt>
      <trkpt lat="45.35276" lon="5.74845">
        <ele>939.5</ele>
        <time>2021-12-19T13:54:31Z</time>
      </trkpt>
      <trkpt lat="45.35279" lon="5.74848">
        <ele>939.5</ele>
        <time>2021-12-19T13:54:32Z</time>
      </trkpt>
      <trkpt lat="45.35281" lon="5.74851">
        <ele>939.4</ele>
        <time>2021-12-19T13:54:33Z</time>
      </trkpt>
      <trkpt lat="45.35283" lon="5.74853">
        <ele>939.3</ele>
        <time>2021-12-19T13:54:34Z</time>
      </trkpt>
      <trkpt lat="45.35284" lon="5.74855">
        <ele>939.3</ele>
        <time>2021-12-19T13:54:35Z</time>
      </trkpt>
      <trkpt lat="45.35284" lon="5.74856">
        <ele>939.3</ele>
        <time>2021-12-19T13:54:36Z</time>
      </trkpt>
      <trkpt lat="45.35285" lon="5.74857">
        <ele>939.2</ele>
        <time>2021-12-19T13:54:37Z</time>
      </trkpt>
      <trkpt lat="45.35286" lon="5.74859">
        <ele>939.2</ele>
        <time>2021-12-19T13:54:38Z</time>
      </trkpt>
      <trkpt lat="45.35287" lon="5.74862">
        <ele>939.1</ele>
        <time>2021-12-19T13:54:39Z</time>
      </trkpt>
      <trkpt lat="45.3529" lon="5.74865">
        <ele>939</ele>
        <time>2021-12-19T13:54:40Z</time>
      </trkpt>
      <trkpt lat="45.35292" lon="5.74867">
        <ele>938.9</ele>
        <time>2021-12-19T13:54:41Z</time>
      </trkpt>
      <trkpt lat="45.35294" lon="5.7487">
        <ele>938.9</ele>
        <time>2021-12-19T13:54:42Z</time>
      </trkpt>
      <trkpt lat="45.35296" lon="5.74873">
        <ele>938.8</ele>
        <time>2021-12-19T13:54:43Z</time>
      </trkpt>
      <trkpt lat="45.35297" lon="5.74876">
        <ele>938.7</ele>
        <time>2021-12-19T13:54:44Z</time>
      </trkpt>
      <trkpt lat="45.353" lon="5.74878">
        <ele>938.6</ele>
        <time>2021-12-19T13:54:45Z</time>
      </trkpt>
      <trkpt lat="45.35303" lon="5.7488">
        <ele>938.5</ele>
        <time>2021-12-19T13:54:46Z</time>
      </trkpt>
      <trkpt lat="45.35305" lon="5.74883">
        <ele>938.5</ele>
        <time>2021-12-19T13:54:47Z</time>
      </trkpt>
      <trkpt lat="45.35307" lon="5.74886">
        <ele>938.4</ele>
        <time>2021-12-19T13:54:48Z</time>
      </trkpt>
      <trkpt lat="45.35308" lon="5.74888">
        <ele>938.3</ele>
        <time>2021-12-19T13:54:49Z</time>
      </trkpt>
      <trkpt lat="45.3531" lon="5.74891">
        <ele>938.2</ele>
        <time>2021-12-19T13:54:50Z</time>
      </trkpt>
      <trkpt lat="45.35312" lon="5.74893">
        <ele>938.2</ele>
        <time>2021-12-19T13:54:51Z</time>
      </trkpt>
      <trkpt lat="45.35314" lon="5.74895">
        <ele>938.1</ele>
        <time>2021-12-19T13:54:52Z</time>
      </trkpt>
      <trkpt lat="45.35316" lon="5.74897">
        <ele>938</ele>
        <time>2021-12-19T13:54:53Z</time>
      </trkpt>
      <trkpt lat="45.35318" lon="5.74899">
        <ele>938</ele>
        <time>2021-12-19T13:54:54Z</time>
      </trkpt>
      <trkpt lat="45.3532" lon="5.74901">
        <ele>937.9</ele>
        <time>2021-12-19T13:54:55Z</time>
      </trkpt>
      <trkpt lat="45.35321" lon="5.74903">
        <ele>937.8</ele>
        <time>2021-12-19T13:54:56Z</time>
      </trkpt>
      <trkpt lat="45.35323" lon="5.74906">
        <ele>937.7</ele>
        <time>2021-12-19T13:54:57Z</time>
      </trkpt>
      <trkpt lat="45.35324" lon="5.74908">
        <ele>937.7</ele>
        <time>2021-12-19T13:54:58Z</time>
      </trkpt>
      <trkpt lat="45.35326" lon="5.7491">
        <ele>937.6</ele>
        <time>2021-12-19T13:54:59Z</time>
      </trkpt>
      <trkpt lat="45.35327" lon="5.74911">
        <ele>937.5</ele>
        <time>2021-12-19T13:55:00Z</time>
      </trkpt>
      <trkpt lat="45.35329" lon="5.74914">
        <ele>937.4</ele>
        <time>2021-12-19T13:55:01Z</time>
      </trkpt>
      <trkpt lat="45.35331" lon="5.74916">
        <ele>937.3</ele>
        <time>2021-12-19T13:55:02Z</time>
      </trkpt>
      <trkpt lat="45.35334" lon="5.74919">
        <ele>937.2</ele>
        <time>2021-12-19T13:55:03Z</time>
      </trkpt>
      <trkpt lat="45.35336" lon="5.74921">
        <ele>937.2</ele>
        <time>2021-12-19T13:55:04Z</time>
      </trkpt>
      <trkpt lat="45.35338" lon="5.74922">
        <ele>937.1</ele>
        <time>2021-12-19T13:55:05Z</time>
      </trkpt>
      <trkpt lat="45.3534" lon="5.74923">
        <ele>937</ele>
        <time>2021-12-19T13:55:06Z</time>
      </trkpt>
      <trkpt lat="45.35341" lon="5.74924">
        <ele>937</ele>
        <time>2021-12-19T13:55:07Z</time>
      </trkpt>
      <trkpt lat="45.35341" lon="5.74925">
        <ele>937</ele>
        <time>2021-12-19T13:55:08Z</time>
      </trkpt>
      <trkpt lat="45.35342" lon="5.74926">
        <ele>936.9</ele>
        <time>2021-12-19T13:55:09Z</time>
      </trkpt>
      <trkpt lat="45.35341" lon="5.74927">
        <ele>936.9</ele>
        <time>2021-12-19T13:55:10Z</time>
      </trkpt>
      <trkpt lat="45.35341" lon="5.74928">
        <ele>936.9</ele>
        <time>2021-12-19T13:55:11Z</time>
      </trkpt>
      <trkpt lat="45.35341" lon="5.74929">
        <ele>936.9</ele>
        <time>2021-12-19T13:55:12Z</time>
      </trkpt>
      <trkpt lat="45.35341" lon="5.7493">
        <ele>936.9</ele>
        <time>2021-12-19T13:55:13Z</time>
      </trkpt>
      <trkpt lat="45.35342" lon="5.74931">
        <ele>936.8</ele>
        <time>2021-12-19T13:55:14Z</time>
      </trkpt>
      <trkpt lat="45.35342" lon="5.74932">
        <ele>936.8</ele>
        <time>2021-12-19T13:55:15Z</time>
      </trkpt>
      <trkpt lat="45.35342" lon="5.74933">
        <ele>936.8</ele>
        <time>2021-12-19T13:55:16Z</time>
      </trkpt>
      <trkpt lat="45.35342" lon="5.74934">
        <ele>936.8</ele>
        <time>2021-12-19T13:55:17Z</time>
      </trkpt>
      <trkpt lat="45.35343" lon="5.74935">
        <ele>936.7</ele>
        <time>2021-12-19T13:55:18Z</time>
      </trkpt>
      <trkpt lat="45.35343" lon="5.74935">
        <ele>936.7</ele>
        <time>2021-12-19T13:55:19Z</time>
      </trkpt>
      <trkpt lat="45.35344" lon="5.74937">
        <ele>936.7</ele>
        <time>2021-12-19T13:55:20Z</time>
      </trkpt>
      <trkpt lat="45.35345" lon="5.74938">
        <ele>936.6</ele>
        <time>2021-12-19T13:55:21Z</time>
      </trkpt>
      <trkpt lat="45.35345" lon="5.74939">
        <ele>936.6</ele>
        <time>2021-12-19T13:55:22Z</time>
      </trkpt>
      <trkpt lat="45.35346" lon="5.74941">
        <ele>936.6</ele>
        <time>2021-12-19T13:55:23Z</time>
      </trkpt>
      <trkpt lat="45.35347" lon="5.74942">
        <ele>936.5</ele>
        <time>2021-12-19T13:55:24Z</time>
      </trkpt>
      <trkpt lat="45.35348" lon="5.74944">
        <ele>936.5</ele>
        <time>2021-12-19T13:55:25Z</time>
      </trkpt>
      <trkpt lat="45.35349" lon="5.74946">
        <ele>936.4</ele>
        <time>2021-12-19T13:55:26Z</time>
      </trkpt>
      <trkpt lat="45.3535" lon="5.74948">
        <ele>936.4</ele>
        <time>2021-12-19T13:55:27Z</time>
      </trkpt>
      <trkpt lat="45.35352" lon="5.7495">
        <ele>936.3</ele>
        <time>2021-12-19T13:55:28Z</time>
      </trkpt>
      <trkpt lat="45.35353" lon="5.74953">
        <ele>936.2</ele>
        <time>2021-12-19T13:55:29Z</time>
      </trkpt>
      <trkpt lat="45.35354" lon="5.74955">
        <ele>936.1</ele>
        <time>2021-12-19T13:55:30Z</time>
      </trkpt>
      <trkpt lat="45.35356" lon="5.74958">
        <ele>936.1</ele>
        <time>2021-12-19T13:55:31Z</time>
      </trkpt>
      <trkpt lat="45.35357" lon="5.7496">
        <ele>936</ele>
        <time>2021-12-19T13:55:32Z</time>
      </trkpt>
      <trkpt lat="45.35357" lon="5.74961">
        <ele>936</ele>
        <time>2021-12-19T13:55:33Z</time>
      </trkpt>
      <trkpt lat="45.35357" lon="5.74961">
        <ele>936</ele>
        <time>2021-12-19T13:55:34Z</time>
      </trkpt>
      <trkpt lat="45.35358" lon="5.7496">
        <ele>936</ele>
        <time>2021-12-19T13:55:35Z</time>
      </trkpt>
      <trkpt lat="45.35358" lon="5.7496">
        <ele>936</ele>
        <time>2021-12-19T13:55:36Z</time>
      </trkpt>
      <trkpt lat="45.35358" lon="5.7496">
        <ele>935.9</ele>
        <time>2021-12-19T13:55:37Z</time>
      </trkpt>
      <trkpt lat="45.35358" lon="5.7496">
        <ele>935.9</ele>
        <time>2021-12-19T13:55:38Z</time>
      </trkpt>
      <trkpt lat="45.35358" lon="5.7496">
        <ele>935.9</ele>
        <time>2021-12-19T13:55:39Z</time>
      </trkpt>
      <trkpt lat="45.35358" lon="5.7496">
        <ele>935.9</ele>
        <time>2021-12-19T13:55:40Z</time>
      </trkpt>
      <trkpt lat="45.35358" lon="5.7496">
        <ele>935.9</ele>
        <time>2021-12-19T13:55:41Z</time>
      </trkpt>
      <trkpt lat="45.35358" lon="5.7496">
        <ele>935.9</ele>
        <time>2021-12-19T13:55:42Z</time>
      </trkpt>
      <trkpt lat="45.35358" lon="5.7496">
        <ele>935.9</ele>
        <time>2021-12-19T13:55:43Z</time>
      </trkpt>
      <trkpt lat="45.35358" lon="5.7496">
        <ele>935.9</ele>
        <time>2021-12-19T13:55:44Z</time>
      </trkpt>
      <trkpt lat="45.35358" lon="5.7496">
        <ele>935.9</ele>
        <time>2021-12-19T13:55:45Z</time>
      </trkpt>
      <trkpt lat="45.35358" lon="5.7496">
        <ele>935.9</ele>
        <time>2021-12-19T13:55:46Z</time>
      </trkpt>
      <trkpt lat="45.35358" lon="5.7496">
        <ele>935.9</ele>
        <time>2021-12-19T13:55:47Z</time>
      </trkpt>
      <trkpt lat="45.35358" lon="5.74961">
        <ele>935.9</ele>
        <time>2021-12-19T13:55:48Z</time>
      </trkpt>
      <trkpt lat="45.35358" lon="5.74961">
        <ele>935.9</ele>
        <time>2021-12-19T13:55:49Z</time>
      </trkpt>
      <trkpt lat="45.35358" lon="5.74961">
        <ele>935.9</ele>
        <time>2021-12-19T13:55:50Z</time>
      </trkpt>
      <trkpt lat="45.35358" lon="5.74962">
        <ele>935.9</ele>
        <time>2021-12-19T13:55:51Z</time>
      </trkpt>
      <trkpt lat="45.35358" lon="5.74963">
        <ele>935.9</ele>
        <time>2021-12-19T13:55:52Z</time>
      </trkpt>
      <trkpt lat="45.35358" lon="5.74964">
        <ele>935.8</ele>
        <time>2021-12-19T13:55:53Z</time>
      </trkpt>
      <trkpt lat="45.35359" lon="5.74965">
        <ele>935.8</ele>
        <time>2021-12-19T13:55:54Z</time>
      </trkpt>
      <trkpt lat="45.35359" lon="5.74966">
        <ele>935.8</ele>
        <time>2021-12-19T13:55:55Z</time>
      </trkpt>
      <trkpt lat="45.35359" lon="5.74966">
        <ele>935.8</ele>
        <time>2021-12-19T13:55:56Z</time>
      </trkpt>
      <trkpt lat="45.35359" lon="5.74967">
        <ele>935.8</ele>
        <time>2021-12-19T13:55:57Z</time>
      </trkpt>
      <trkpt lat="45.35359" lon="5.74967">
        <ele>935.7</ele>
        <time>2021-12-19T13:55:58Z</time>
      </trkpt>
      <trkpt lat="45.3536" lon="5.74967">
        <ele>935.7</ele>
        <time>2021-12-19T13:55:59Z</time>
      </trkpt>
      <trkpt lat="45.3536" lon="5.74968">
        <ele>935.7</ele>
        <time>2021-12-19T13:56:00Z</time>
      </trkpt>
      <trkpt lat="45.3536" lon="5.74969">
        <ele>935.7</ele>
        <time>2021-12-19T13:56:01Z</time>
      </trkpt>
      <trkpt lat="45.3536" lon="5.74969">
        <ele>935.7</ele>
        <time>2021-12-19T13:56:02Z</time>
      </trkpt>
      <trkpt lat="45.3536" lon="5.74969">
        <ele>935.7</ele>
        <time>2021-12-19T13:56:03Z</time>
      </trkpt>
      <trkpt lat="45.3536" lon="5.7497">
        <ele>935.7</ele>
        <time>2021-12-19T13:56:04Z</time>
      </trkpt>
      <trkpt lat="45.3536" lon="5.7497">
        <ele>935.6</ele>
        <time>2021-12-19T13:56:05Z</time>
      </trkpt>
      <trkpt lat="45.3536" lon="5.7497">
        <ele>935.6</ele>
        <time>2021-12-19T13:56:06Z</time>
      </trkpt>
      <trkpt lat="45.3536" lon="5.7497">
        <ele>935.6</ele>
        <time>2021-12-19T13:56:07Z</time>
      </trkpt>
      <trkpt lat="45.3536" lon="5.7497">
        <ele>935.6</ele>
        <time>2021-12-19T13:56:08Z</time>
      </trkpt>
      <trkpt lat="45.3536" lon="5.7497">
        <ele>935.6</ele>
        <time>2021-12-19T13:56:09Z</time>
      </trkpt>
      <trkpt lat="45.3536" lon="5.74969">
        <ele>935.6</ele>
        <time>2021-12-19T13:56:10Z</time>
      </trkpt>
      <trkpt lat="45.3536" lon="5.7497">
        <ele>935.6</ele>
        <time>2021-12-19T13:56:11Z</time>
      </trkpt>
      <trkpt lat="45.35361" lon="5.7497">
        <ele>935.6</ele>
        <time>2021-12-19T13:56:12Z</time>
      </trkpt>
      <trkpt lat="45.35361" lon="5.7497">
        <ele>935.6</ele>
        <time>2021-12-19T13:56:13Z</time>
      </trkpt>
      <trkpt lat="45.35361" lon="5.74969">
        <ele>935.6</ele>
        <time>2021-12-19T13:56:14Z</time>
      </trkpt>
      <trkpt lat="45.35361" lon="5.74969">
        <ele>935.6</ele>
        <time>2021-12-19T13:56:15Z</time>
      </trkpt>
      <trkpt lat="45.35361" lon="5.74969">
        <ele>935.6</ele>
        <time>2021-12-19T13:56:16Z</time>
      </trkpt>
      <trkpt lat="45.35361" lon="5.74969">
        <ele>935.6</ele>
        <time>2021-12-19T13:56:17Z</time>
      </trkpt>
      <trkpt lat="45.35361" lon="5.74969">
        <ele>935.5</ele>
        <time>2021-12-19T13:56:18Z</time>
      </trkpt>
      <trkpt lat="45.35361" lon="5.74969">
        <ele>935.5</ele>
        <time>2021-12-19T13:56:19Z</time>
      </trkpt>
      <trkpt lat="45.35361" lon="5.74969">
        <ele>935.5</ele>
        <time>2021-12-19T13:56:20Z</time>
      </trkpt>
      <trkpt lat="45.35361" lon="5.7497">
        <ele>935.5</ele>
        <time>2021-12-19T13:56:21Z</time>
      </trkpt>
      <trkpt lat="45.35362" lon="5.7497">
        <ele>935.5</ele>
        <time>2021-12-19T13:56:22Z</time>
      </trkpt>
      <trkpt lat="45.35361" lon="5.7497">
        <ele>935.5</ele>
        <time>2021-12-19T13:56:23Z</time>
      </trkpt>
      <trkpt lat="45.35362" lon="5.74971">
        <ele>935.5</ele>
        <time>2021-12-19T13:56:24Z</time>
      </trkpt>
      <trkpt lat="45.35362" lon="5.74972">
        <ele>935.4</ele>
        <time>2021-12-19T13:56:25Z</time>
      </trkpt>
      <trkpt lat="45.35364" lon="5.74975">
        <ele>935.3</ele>
        <time>2021-12-19T13:56:26Z</time>
      </trkpt>
      <trkpt lat="45.35365" lon="5.74976">
        <ele>935.3</ele>
        <time>2021-12-19T13:56:27Z</time>
      </trkpt>
      <trkpt lat="45.35365" lon="5.74977">
        <ele>935.2</ele>
        <time>2021-12-19T13:56:28Z</time>
      </trkpt>
      <trkpt lat="45.35366" lon="5.74978">
        <ele>935.2</ele>
        <time>2021-12-19T13:56:29Z</time>
      </trkpt>
      <trkpt lat="45.35367" lon="5.74979">
        <ele>935.1</ele>
        <time>2021-12-19T13:56:30Z</time>
      </trkpt>
      <trkpt lat="45.35369" lon="5.74981">
        <ele>935</ele>
        <time>2021-12-19T13:56:31Z</time>
      </trkpt>
      <trkpt lat="45.3537" lon="5.74982">
        <ele>935</ele>
        <time>2021-12-19T13:56:32Z</time>
      </trkpt>
      <trkpt lat="45.3537" lon="5.74982">
        <ele>935</ele>
        <time>2021-12-19T13:56:33Z</time>
      </trkpt>
      <trkpt lat="45.3537" lon="5.74983">
        <ele>934.9</ele>
        <time>2021-12-19T13:56:34Z</time>
      </trkpt>
      <trkpt lat="45.3537" lon="5.74983">
        <ele>934.9</ele>
        <time>2021-12-19T13:56:35Z</time>
      </trkpt>
      <trkpt lat="45.3537" lon="5.74983">
        <ele>934.9</ele>
        <time>2021-12-19T13:56:36Z</time>
      </trkpt>
      <trkpt lat="45.3537" lon="5.74984">
        <ele>934.9</ele>
        <time>2021-12-19T13:56:37Z</time>
      </trkpt>
      <trkpt lat="45.35371" lon="5.74984">
        <ele>934.9</ele>
        <time>2021-12-19T13:56:38Z</time>
      </trkpt>
      <trkpt lat="45.35371" lon="5.74984">
        <ele>934.8</ele>
        <time>2021-12-19T13:56:39Z</time>
      </trkpt>
      <trkpt lat="45.35371" lon="5.74983">
        <ele>934.8</ele>
        <time>2021-12-19T13:56:40Z</time>
      </trkpt>
      <trkpt lat="45.35371" lon="5.74983">
        <ele>934.8</ele>
        <time>2021-12-19T13:56:41Z</time>
      </trkpt>
      <trkpt lat="45.3537" lon="5.74983">
        <ele>934.8</ele>
        <time>2021-12-19T13:56:42Z</time>
      </trkpt>
      <trkpt lat="45.35371" lon="5.74983">
        <ele>934.7</ele>
        <time>2021-12-19T13:56:43Z</time>
      </trkpt>
      <trkpt lat="45.35372" lon="5.74982">
        <ele>934.7</ele>
        <time>2021-12-19T13:56:44Z</time>
      </trkpt>
      <trkpt lat="45.35372" lon="5.74982">
        <ele>934.7</ele>
        <time>2021-12-19T13:56:45Z</time>
      </trkpt>
      <trkpt lat="45.35373" lon="5.74981">
        <ele>934.7</ele>
        <time>2021-12-19T13:56:46Z</time>
      </trkpt>
      <trkpt lat="45.35373" lon="5.74981">
        <ele>934.7</ele>
        <time>2021-12-19T13:56:47Z</time>
      </trkpt>
      <trkpt lat="45.35373" lon="5.74982">
        <ele>934.6</ele>
        <time>2021-12-19T13:56:48Z</time>
      </trkpt>
      <trkpt lat="45.35373" lon="5.74982">
        <ele>934.6</ele>
        <time>2021-12-19T13:56:49Z</time>
      </trkpt>
      <trkpt lat="45.35373" lon="5.74982">
        <ele>934.6</ele>
        <time>2021-12-19T13:56:50Z</time>
      </trkpt>
      <trkpt lat="45.35373" lon="5.74982">
        <ele>934.6</ele>
        <time>2021-12-19T13:56:51Z</time>
      </trkpt>
      <trkpt lat="45.35373" lon="5.74982">
        <ele>934.6</ele>
        <time>2021-12-19T13:56:52Z</time>
      </trkpt>
      <trkpt lat="45.35373" lon="5.74982">
        <ele>934.6</ele>
        <time>2021-12-19T13:56:53Z</time>
      </trkpt>
      <trkpt lat="45.35373" lon="5.74983">
        <ele>934.6</ele>
        <time>2021-12-19T13:56:54Z</time>
      </trkpt>
      <trkpt lat="45.35374" lon="5.74984">
        <ele>934.5</ele>
        <time>2021-12-19T13:56:55Z</time>
      </trkpt>
      <trkpt lat="45.35375" lon="5.74985">
        <ele>934.5</ele>
        <time>2021-12-19T13:56:56Z</time>
      </trkpt>
      <trkpt lat="45.35376" lon="5.74986">
        <ele>934.4</ele>
        <time>2021-12-19T13:56:57Z</time>
      </trkpt>
      <trkpt lat="45.35378" lon="5.74988">
        <ele>934.3</ele>
        <time>2021-12-19T13:56:58Z</time>
      </trkpt>
      <trkpt lat="45.3538" lon="5.74989">
        <ele>934.2</ele>
        <time>2021-12-19T13:56:59Z</time>
      </trkpt>
      <trkpt lat="45.35382" lon="5.74991">
        <ele>934.1</ele>
        <time>2021-12-19T13:57:00Z</time>
      </trkpt>
      <trkpt lat="45.35383" lon="5.74992">
        <ele>934.1</ele>
        <time>2021-12-19T13:57:01Z</time>
      </trkpt>
      <trkpt lat="45.35383" lon="5.74992">
        <ele>934.1</ele>
        <time>2021-12-19T13:57:02Z</time>
      </trkpt>
      <trkpt lat="45.35383" lon="5.74991">
        <ele>934.1</ele>
        <time>2021-12-19T13:57:03Z</time>
      </trkpt>
      <trkpt lat="45.35382" lon="5.74991">
        <ele>934</ele>
        <time>2021-12-19T13:57:04Z</time>
      </trkpt>
      <trkpt lat="45.35382" lon="5.74992">
        <ele>934</ele>
        <time>2021-12-19T13:57:05Z</time>
      </trkpt>
      <trkpt lat="45.35382" lon="5.74992">
        <ele>934</ele>
        <time>2021-12-19T13:57:06Z</time>
      </trkpt>
      <trkpt lat="45.35382" lon="5.74993">
        <ele>934</ele>
        <time>2021-12-19T13:57:07Z</time>
      </trkpt>
      <trkpt lat="45.35382" lon="5.74993">
        <ele>934</ele>
        <time>2021-12-19T13:57:08Z</time>
      </trkpt>
      <trkpt lat="45.35382" lon="5.74994">
        <ele>934</ele>
        <time>2021-12-19T13:57:09Z</time>
      </trkpt>
      <trkpt lat="45.35382" lon="5.74995">
        <ele>933.9</ele>
        <time>2021-12-19T13:57:10Z</time>
      </trkpt>
      <trkpt lat="45.35382" lon="5.74996">
        <ele>933.9</ele>
        <time>2021-12-19T13:57:11Z</time>
      </trkpt>
      <trkpt lat="45.35382" lon="5.74996">
        <ele>933.9</ele>
        <time>2021-12-19T13:57:12Z</time>
      </trkpt>
      <trkpt lat="45.35382" lon="5.74996">
        <ele>933.9</ele>
        <time>2021-12-19T13:57:13Z</time>
      </trkpt>
      <trkpt lat="45.35382" lon="5.74996">
        <ele>933.9</ele>
        <time>2021-12-19T13:57:14Z</time>
      </trkpt>
      <trkpt lat="45.35382" lon="5.74996">
        <ele>933.9</ele>
        <time>2021-12-19T13:57:15Z</time>
      </trkpt>
      <trkpt lat="45.35382" lon="5.74996">
        <ele>933.9</ele>
        <time>2021-12-19T13:57:16Z</time>
      </trkpt>
      <trkpt lat="45.35383" lon="5.74996">
        <ele>933.9</ele>
        <time>2021-12-19T13:57:17Z</time>
      </trkpt>
      <trkpt lat="45.35384" lon="5.74997">
        <ele>933.8</ele>
        <time>2021-12-19T13:57:18Z</time>
      </trkpt>
      <trkpt lat="45.35385" lon="5.74998">
        <ele>933.8</ele>
        <time>2021-12-19T13:57:19Z</time>
      </trkpt>
      <trkpt lat="45.35386" lon="5.75">
        <ele>933.7</ele>
        <time>2021-12-19T13:57:20Z</time>
      </trkpt>
      <trkpt lat="45.35388" lon="5.75002">
        <ele>933.6</ele>
        <time>2021-12-19T13:57:21Z</time>
      </trkpt>
      <trkpt lat="45.3539" lon="5.75003">
        <ele>933.5</ele>
        <time>2021-12-19T13:57:22Z</time>
      </trkpt>
      <trkpt lat="45.35392" lon="5.75005">
        <ele>933.4</ele>
        <time>2021-12-19T13:57:23Z</time>
      </trkpt>
      <trkpt lat="45.35394" lon="5.75007">
        <ele>933.3</ele>
        <time>2021-12-19T13:57:24Z</time>
      </trkpt>
      <trkpt lat="45.35395" lon="5.7501">
        <ele>933.2</ele>
        <time>2021-12-19T13:57:25Z</time>
      </trkpt>
      <trkpt lat="45.35396" lon="5.75011">
        <ele>933.1</ele>
        <time>2021-12-19T13:57:26Z</time>
      </trkpt>
      <trkpt lat="45.35396" lon="5.75011">
        <ele>933.1</ele>
        <time>2021-12-19T13:57:27Z</time>
      </trkpt>
      <trkpt lat="45.35396" lon="5.75011">
        <ele>933.1</ele>
        <time>2021-12-19T13:57:28Z</time>
      </trkpt>
      <trkpt lat="45.35396" lon="5.7501">
        <ele>933.1</ele>
        <time>2021-12-19T13:57:29Z</time>
      </trkpt>
      <trkpt lat="45.35397" lon="5.7501">
        <ele>933</ele>
        <time>2021-12-19T13:57:30Z</time>
      </trkpt>
      <trkpt lat="45.35397" lon="5.7501">
        <ele>933</ele>
        <time>2021-12-19T13:57:31Z</time>
      </trkpt>
      <trkpt lat="45.35397" lon="5.7501">
        <ele>933</ele>
        <time>2021-12-19T13:57:32Z</time>
      </trkpt>
      <trkpt lat="45.35398" lon="5.7501">
        <ele>933</ele>
        <time>2021-12-19T13:57:33Z</time>
      </trkpt>
      <trkpt lat="45.35398" lon="5.7501">
        <ele>933</ele>
        <time>2021-12-19T13:57:34Z</time>
      </trkpt>
      <trkpt lat="45.35398" lon="5.75009">
        <ele>933</ele>
        <time>2021-12-19T13:57:35Z</time>
      </trkpt>
      <trkpt lat="45.35398" lon="5.75009">
        <ele>933</ele>
        <time>2021-12-19T13:57:36Z</time>
      </trkpt>
      <trkpt lat="45.35399" lon="5.75009">
        <ele>932.9</ele>
        <time>2021-12-19T13:57:37Z</time>
      </trkpt>
      <trkpt lat="45.35399" lon="5.75009">
        <ele>932.9</ele>
        <time>2021-12-19T13:57:38Z</time>
      </trkpt>
      <trkpt lat="45.35399" lon="5.75009">
        <ele>932.9</ele>
        <time>2021-12-19T13:57:39Z</time>
      </trkpt>
      <trkpt lat="45.35399" lon="5.75009">
        <ele>932.9</ele>
        <time>2021-12-19T13:57:40Z</time>
      </trkpt>
      <trkpt lat="45.354" lon="5.75008">
        <ele>932.9</ele>
        <time>2021-12-19T13:57:41Z</time>
      </trkpt>
      <trkpt lat="45.354" lon="5.75008">
        <ele>932.8</ele>
        <time>2021-12-19T13:57:42Z</time>
      </trkpt>
      <trkpt lat="45.354" lon="5.75008">
        <ele>932.8</ele>
        <time>2021-12-19T13:57:43Z</time>
      </trkpt>
      <trkpt lat="45.354" lon="5.75008">
        <ele>932.8</ele>
        <time>2021-12-19T13:57:44Z</time>
      </trkpt>
      <trkpt lat="45.35401" lon="5.75008">
        <ele>932.8</ele>
        <time>2021-12-19T13:57:45Z</time>
      </trkpt>
      <trkpt lat="45.35401" lon="5.75008">
        <ele>932.8</ele>
        <time>2021-12-19T13:57:46Z</time>
      </trkpt>
      <trkpt lat="45.35401" lon="5.75007">
        <ele>932.8</ele>
        <time>2021-12-19T13:57:47Z</time>
      </trkpt>
      <trkpt lat="45.35401" lon="5.75007">
        <ele>932.7</ele>
        <time>2021-12-19T13:57:48Z</time>
      </trkpt>
      <trkpt lat="45.35402" lon="5.75007">
        <ele>932.7</ele>
        <time>2021-12-19T13:57:49Z</time>
      </trkpt>
      <trkpt lat="45.35402" lon="5.75007">
        <ele>932.7</ele>
        <time>2021-12-19T13:57:50Z</time>
      </trkpt>
      <trkpt lat="45.35402" lon="5.75007">
        <ele>932.7</ele>
        <time>2021-12-19T13:57:51Z</time>
      </trkpt>
      <trkpt lat="45.35402" lon="5.75007">
        <ele>932.7</ele>
        <time>2021-12-19T13:57:52Z</time>
      </trkpt>
      <trkpt lat="45.35403" lon="5.75006">
        <ele>932.7</ele>
        <time>2021-12-19T13:57:53Z</time>
      </trkpt>
      <trkpt lat="45.35403" lon="5.75006">
        <ele>932.8</ele>
        <time>2021-12-19T13:57:54Z</time>
      </trkpt>
      <trkpt lat="45.35403" lon="5.75006">
        <ele>932.8</ele>
        <time>2021-12-19T13:57:55Z</time>
      </trkpt>
      <trkpt lat="45.35403" lon="5.75006">
        <ele>932.9</ele>
        <time>2021-12-19T13:57:56Z</time>
      </trkpt>
      <trkpt lat="45.35404" lon="5.75006">
        <ele>932.9</ele>
        <time>2021-12-19T13:57:57Z</time>
      </trkpt>
      <trkpt lat="45.35404" lon="5.75006">
        <ele>932.9</ele>
        <time>2021-12-19T13:57:58Z</time>
      </trkpt>
      <trkpt lat="45.35404" lon="5.75005">
        <ele>933</ele>
        <time>2021-12-19T13:57:59Z</time>
      </trkpt>
      <trkpt lat="45.35404" lon="5.75005">
        <ele>933</ele>
        <time>2021-12-19T13:58:00Z</time>
      </trkpt>
      <trkpt lat="45.35405" lon="5.75005">
        <ele>933.1</ele>
        <time>2021-12-19T13:58:01Z</time>
      </trkpt>
      <trkpt lat="45.35405" lon="5.75005">
        <ele>933.1</ele>
        <time>2021-12-19T13:58:02Z</time>
      </trkpt>
      <trkpt lat="45.35405" lon="5.75005">
        <ele>933.2</ele>
        <time>2021-12-19T13:58:03Z</time>
      </trkpt>
      <trkpt lat="45.35405" lon="5.75005">
        <ele>933.2</ele>
        <time>2021-12-19T13:58:04Z</time>
      </trkpt>
      <trkpt lat="45.35406" lon="5.75004">
        <ele>933.3</ele>
        <time>2021-12-19T13:58:05Z</time>
      </trkpt>
      <trkpt lat="45.35406" lon="5.75004">
        <ele>933.3</ele>
        <time>2021-12-19T13:58:06Z</time>
      </trkpt>
      <trkpt lat="45.35406" lon="5.75004">
        <ele>933.4</ele>
        <time>2021-12-19T13:58:07Z</time>
      </trkpt>
      <trkpt lat="45.35406" lon="5.75004">
        <ele>933.4</ele>
        <time>2021-12-19T13:58:08Z</time>
      </trkpt>
      <trkpt lat="45.35407" lon="5.75004">
        <ele>933.4</ele>
        <time>2021-12-19T13:58:09Z</time>
      </trkpt>
      <trkpt lat="45.35407" lon="5.75003">
        <ele>933.5</ele>
        <time>2021-12-19T13:58:10Z</time>
      </trkpt>
      <trkpt lat="45.35407" lon="5.75003">
        <ele>933.5</ele>
        <time>2021-12-19T13:58:11Z</time>
      </trkpt>
      <trkpt lat="45.35408" lon="5.75003">
        <ele>933.6</ele>
        <time>2021-12-19T13:58:12Z</time>
      </trkpt>
      <trkpt lat="45.35408" lon="5.75003">
        <ele>933.6</ele>
        <time>2021-12-19T13:58:13Z</time>
      </trkpt>
      <trkpt lat="45.35408" lon="5.75003">
        <ele>933.7</ele>
        <time>2021-12-19T13:58:14Z</time>
      </trkpt>
      <trkpt lat="45.35408" lon="5.75003">
        <ele>933.7</ele>
        <time>2021-12-19T13:58:15Z</time>
      </trkpt>
      <trkpt lat="45.35409" lon="5.75002">
        <ele>933.8</ele>
        <time>2021-12-19T13:58:16Z</time>
      </trkpt>
      <trkpt lat="45.35409" lon="5.75002">
        <ele>933.8</ele>
        <time>2021-12-19T13:58:17Z</time>
      </trkpt>
      <trkpt lat="45.35409" lon="5.75002">
        <ele>933.8</ele>
        <time>2021-12-19T13:58:18Z</time>
      </trkpt>
      <trkpt lat="45.35409" lon="5.75002">
        <ele>933.9</ele>
        <time>2021-12-19T13:58:19Z</time>
      </trkpt>
      <trkpt lat="45.3541" lon="5.75002">
        <ele>933.9</ele>
        <time>2021-12-19T13:58:20Z</time>
      </trkpt>
      <trkpt lat="45.3541" lon="5.75002">
        <ele>934</ele>
        <time>2021-12-19T13:58:21Z</time>
      </trkpt>
      <trkpt lat="45.3541" lon="5.75001">
        <ele>934</ele>
        <time>2021-12-19T13:58:22Z</time>
      </trkpt>
      <trkpt lat="45.3541" lon="5.75001">
        <ele>934.1</ele>
        <time>2021-12-19T13:58:23Z</time>
      </trkpt>
      <trkpt lat="45.35411" lon="5.75001">
        <ele>934.1</ele>
        <time>2021-12-19T13:58:24Z</time>
      </trkpt>
      <trkpt lat="45.35411" lon="5.75001">
        <ele>934.2</ele>
        <time>2021-12-19T13:58:25Z</time>
      </trkpt>
      <trkpt lat="45.35411" lon="5.75001">
        <ele>934.2</ele>
        <time>2021-12-19T13:58:26Z</time>
      </trkpt>
      <trkpt lat="45.35411" lon="5.75001">
        <ele>934.3</ele>
        <time>2021-12-19T13:58:27Z</time>
      </trkpt>
      <trkpt lat="45.35412" lon="5.75">
        <ele>934.3</ele>
        <time>2021-12-19T13:58:28Z</time>
      </trkpt>
      <trkpt lat="45.35412" lon="5.75">
        <ele>934.3</ele>
        <time>2021-12-19T13:58:29Z</time>
      </trkpt>
      <trkpt lat="45.35412" lon="5.75">
        <ele>934.4</ele>
        <time>2021-12-19T13:58:30Z</time>
      </trkpt>
      <trkpt lat="45.35412" lon="5.75">
        <ele>934.4</ele>
        <time>2021-12-19T13:58:31Z</time>
      </trkpt>
      <trkpt lat="45.35413" lon="5.75">
        <ele>934.5</ele>
        <time>2021-12-19T13:58:32Z</time>
      </trkpt>
      <trkpt lat="45.35413" lon="5.75">
        <ele>934.5</ele>
        <time>2021-12-19T13:58:33Z</time>
      </trkpt>
      <trkpt lat="45.35413" lon="5.74999">
        <ele>934.6</ele>
        <time>2021-12-19T13:58:34Z</time>
      </trkpt>
      <trkpt lat="45.35413" lon="5.74999">
        <ele>934.6</ele>
        <time>2021-12-19T13:58:35Z</time>
      </trkpt>
      <trkpt lat="45.35414" lon="5.74999">
        <ele>934.7</ele>
        <time>2021-12-19T13:58:36Z</time>
      </trkpt>
      <trkpt lat="45.35414" lon="5.74999">
        <ele>934.7</ele>
        <time>2021-12-19T13:58:37Z</time>
      </trkpt>
      <trkpt lat="45.35414" lon="5.74999">
        <ele>934.8</ele>
        <time>2021-12-19T13:58:38Z</time>
      </trkpt>
      <trkpt lat="45.35414" lon="5.74999">
        <ele>934.8</ele>
        <time>2021-12-19T13:58:39Z</time>
      </trkpt>
      <trkpt lat="45.35415" lon="5.74998">
        <ele>934.9</ele>
        <time>2021-12-19T13:58:40Z</time>
      </trkpt>
      <trkpt lat="45.35415" lon="5.74998">
        <ele>934.9</ele>
        <time>2021-12-19T13:58:41Z</time>
      </trkpt>
      <trkpt lat="45.35415" lon="5.74998">
        <ele>934.9</ele>
        <time>2021-12-19T13:58:42Z</time>
      </trkpt>
      <trkpt lat="45.35415" lon="5.74998">
        <ele>935</ele>
        <time>2021-12-19T13:58:43Z</time>
      </trkpt>
      <trkpt lat="45.35416" lon="5.74998">
        <ele>935</ele>
        <time>2021-12-19T13:58:44Z</time>
      </trkpt>
      <trkpt lat="45.35416" lon="5.74998">
        <ele>935.1</ele>
        <time>2021-12-19T13:58:45Z</time>
      </trkpt>
      <trkpt lat="45.35416" lon="5.74997">
        <ele>935.1</ele>
        <time>2021-12-19T13:58:46Z</time>
      </trkpt>
      <trkpt lat="45.35416" lon="5.74997">
        <ele>935.2</ele>
        <time>2021-12-19T13:58:47Z</time>
      </trkpt>
      <trkpt lat="45.35417" lon="5.74997">
        <ele>935.2</ele>
        <time>2021-12-19T13:58:48Z</time>
      </trkpt>
      <trkpt lat="45.35417" lon="5.74997">
        <ele>935.3</ele>
        <time>2021-12-19T13:58:49Z</time>
      </trkpt>
      <trkpt lat="45.35417" lon="5.74997">
        <ele>935.3</ele>
        <time>2021-12-19T13:58:50Z</time>
      </trkpt>
      <trkpt lat="45.35418" lon="5.74997">
        <ele>935.3</ele>
        <time>2021-12-19T13:58:51Z</time>
      </trkpt>
      <trkpt lat="45.35418" lon="5.74996">
        <ele>935.4</ele>
        <time>2021-12-19T13:58:52Z</time>
      </trkpt>
      <trkpt lat="45.35418" lon="5.74996">
        <ele>935.4</ele>
        <time>2021-12-19T13:58:53Z</time>
      </trkpt>
      <trkpt lat="45.35418" lon="5.74996">
        <ele>935.5</ele>
        <time>2021-12-19T13:58:54Z</time>
      </trkpt>
      <trkpt lat="45.35419" lon="5.74996">
        <ele>935.5</ele>
        <time>2021-12-19T13:58:55Z</time>
      </trkpt>
      <trkpt lat="45.35419" lon="5.74996">
        <ele>935.6</ele>
        <time>2021-12-19T13:58:56Z</time>
      </trkpt>
      <trkpt lat="45.35419" lon="5.74996">
        <ele>935.6</ele>
        <time>2021-12-19T13:58:57Z</time>
      </trkpt>
      <trkpt lat="45.35419" lon="5.74995">
        <ele>935.7</ele>
        <time>2021-12-19T13:58:58Z</time>
      </trkpt>
      <trkpt lat="45.3542" lon="5.74995">
        <ele>935.7</ele>
        <time>2021-12-19T13:58:59Z</time>
      </trkpt>
      <trkpt lat="45.3542" lon="5.74995">
        <ele>935.8</ele>
        <time>2021-12-19T13:59:00Z</time>
      </trkpt>
      <trkpt lat="45.3542" lon="5.74995">
        <ele>935.8</ele>
        <time>2021-12-19T13:59:01Z</time>
      </trkpt>
      <trkpt lat="45.3542" lon="5.74995">
        <ele>935.8</ele>
        <time>2021-12-19T13:59:02Z</time>
      </trkpt>
      <trkpt lat="45.35421" lon="5.74995">
        <ele>935.9</ele>
        <time>2021-12-19T13:59:03Z</time>
      </trkpt>
      <trkpt lat="45.35421" lon="5.74994">
        <ele>935.9</ele>
        <time>2021-12-19T13:59:04Z</time>
      </trkpt>
      <trkpt lat="45.35421" lon="5.74994">
        <ele>936</ele>
        <time>2021-12-19T13:59:05Z</time>
      </trkpt>
      <trkpt lat="45.35421" lon="5.74994">
        <ele>936</ele>
        <time>2021-12-19T13:59:06Z</time>
      </trkpt>
      <trkpt lat="45.35422" lon="5.74994">
        <ele>936.1</ele>
        <time>2021-12-19T13:59:07Z</time>
      </trkpt>
      <trkpt lat="45.35422" lon="5.74994">
        <ele>936.1</ele>
        <time>2021-12-19T13:59:08Z</time>
      </trkpt>
      <trkpt lat="45.35422" lon="5.74993">
        <ele>936.2</ele>
        <time>2021-12-19T13:59:09Z</time>
      </trkpt>
      <trkpt lat="45.35422" lon="5.74993">
        <ele>936.2</ele>
        <time>2021-12-19T13:59:10Z</time>
      </trkpt>
      <trkpt lat="45.35423" lon="5.74993">
        <ele>936.2</ele>
        <time>2021-12-19T13:59:11Z</time>
      </trkpt>
      <trkpt lat="45.35423" lon="5.74993">
        <ele>936.3</ele>
        <time>2021-12-19T13:59:12Z</time>
      </trkpt>
      <trkpt lat="45.35423" lon="5.74993">
        <ele>936.3</ele>
        <time>2021-12-19T13:59:13Z</time>
      </trkpt>
      <trkpt lat="45.35423" lon="5.74993">
        <ele>936.4</ele>
        <time>2021-12-19T13:59:14Z</time>
      </trkpt>
      <trkpt lat="45.35424" lon="5.74992">
        <ele>936.4</ele>
        <time>2021-12-19T13:59:15Z</time>
      </trkpt>
      <trkpt lat="45.35424" lon="5.74992">
        <ele>936.5</ele>
        <time>2021-12-19T13:59:16Z</time>
      </trkpt>
      <trkpt lat="45.35424" lon="5.74992">
        <ele>936.5</ele>
        <time>2021-12-19T13:59:17Z</time>
      </trkpt>
      <trkpt lat="45.35424" lon="5.74992">
        <ele>936.5</ele>
        <time>2021-12-19T13:59:18Z</time>
      </trkpt>
      <trkpt lat="45.35425" lon="5.74992">
        <ele>936.6</ele>
        <time>2021-12-19T13:59:19Z</time>
      </trkpt>
      <trkpt lat="45.35425" lon="5.74992">
        <ele>936.6</ele>
        <time>2021-12-19T13:59:20Z</time>
      </trkpt>
      <trkpt lat="45.35425" lon="5.74991">
        <ele>936.7</ele>
        <time>2021-12-19T13:59:21Z</time>
      </trkpt>
      <trkpt lat="45.35425" lon="5.74991">
        <ele>936.7</ele>
        <time>2021-12-19T13:59:22Z</time>
      </trkpt>
      <trkpt lat="45.35426" lon="5.74991">
        <ele>936.8</ele>
        <time>2021-12-19T13:59:23Z</time>
      </trkpt>
      <trkpt lat="45.35426" lon="5.74991">
        <ele>936.8</ele>
        <time>2021-12-19T13:59:24Z</time>
      </trkpt>
      <trkpt lat="45.35426" lon="5.74991">
        <ele>936.8</ele>
        <time>2021-12-19T13:59:25Z</time>
      </trkpt>
      <trkpt lat="45.35426" lon="5.74991">
        <ele>936.9</ele>
        <time>2021-12-19T13:59:26Z</time>
      </trkpt>
      <trkpt lat="45.35427" lon="5.7499">
        <ele>936.9</ele>
        <time>2021-12-19T13:59:27Z</time>
      </trkpt>
      <trkpt lat="45.35427" lon="5.7499">
        <ele>937</ele>
        <time>2021-12-19T13:59:28Z</time>
      </trkpt>
      <trkpt lat="45.35427" lon="5.7499">
        <ele>937</ele>
        <time>2021-12-19T13:59:29Z</time>
      </trkpt>
      <trkpt lat="45.35428" lon="5.7499">
        <ele>937</ele>
        <time>2021-12-19T13:59:30Z</time>
      </trkpt>
      <trkpt lat="45.35428" lon="5.7499">
        <ele>937.1</ele>
        <time>2021-12-19T13:59:31Z</time>
      </trkpt>
      <trkpt lat="45.35428" lon="5.7499">
        <ele>937.1</ele>
        <time>2021-12-19T13:59:32Z</time>
      </trkpt>
      <trkpt lat="45.35428" lon="5.74989">
        <ele>937.1</ele>
        <time>2021-12-19T13:59:33Z</time>
      </trkpt>
      <trkpt lat="45.35429" lon="5.74989">
        <ele>937.2</ele>
        <time>2021-12-19T13:59:34Z</time>
      </trkpt>
      <trkpt lat="45.35429" lon="5.74989">
        <ele>937.2</ele>
        <time>2021-12-19T13:59:35Z</time>
      </trkpt>
      <trkpt lat="45.35429" lon="5.74989">
        <ele>937.2</ele>
        <time>2021-12-19T13:59:36Z</time>
      </trkpt>
      <trkpt lat="45.35429" lon="5.74989">
        <ele>937.3</ele>
        <time>2021-12-19T13:59:37Z</time>
      </trkpt>
      <trkpt lat="45.3543" lon="5.74989">
        <ele>937.3</ele>
        <time>2021-12-19T13:59:38Z</time>
      </trkpt>
      <trkpt lat="45.3543" lon="5.74988">
        <ele>937.3</ele>
        <time>2021-12-19T13:59:39Z</time>
      </trkpt>
      <trkpt lat="45.3543" lon="5.74988">
        <ele>937.4</ele>
        <time>2021-12-19T13:59:40Z</time>
      </trkpt>
      <trkpt lat="45.3543" lon="5.74988">
        <ele>937.4</ele>
        <time>2021-12-19T13:59:41Z</time>
      </trkpt>
      <trkpt lat="45.35431" lon="5.74988">
        <ele>937.4</ele>
        <time>2021-12-19T13:59:42Z</time>
      </trkpt>
      <trkpt lat="45.35431" lon="5.74988">
        <ele>937.5</ele>
        <time>2021-12-19T13:59:43Z</time>
      </trkpt>
      <trkpt lat="45.35431" lon="5.74988">
        <ele>937.5</ele>
        <time>2021-12-19T13:59:44Z</time>
      </trkpt>
      <trkpt lat="45.35431" lon="5.74987">
        <ele>937.5</ele>
        <time>2021-12-19T13:59:45Z</time>
      </trkpt>
      <trkpt lat="45.35432" lon="5.74987">
        <ele>937.6</ele>
        <time>2021-12-19T13:59:46Z</time>
      </trkpt>
      <trkpt lat="45.35432" lon="5.74987">
        <ele>937.6</ele>
        <time>2021-12-19T13:59:47Z</time>
      </trkpt>
      <trkpt lat="45.35432" lon="5.74987">
        <ele>937.7</ele>
        <time>2021-12-19T13:59:48Z</time>
      </trkpt>
      <trkpt lat="45.35432" lon="5.74987">
        <ele>937.7</ele>
        <time>2021-12-19T13:59:49Z</time>
      </trkpt>
      <trkpt lat="45.35433" lon="5.74987">
        <ele>937.7</ele>
        <time>2021-12-19T13:59:50Z</time>
      </trkpt>
      <trkpt lat="45.35433" lon="5.74986">
        <ele>937.8</ele>
        <time>2021-12-19T13:59:51Z</time>
      </trkpt>
      <trkpt lat="45.35433" lon="5.74986">
        <ele>937.8</ele>
        <time>2021-12-19T13:59:52Z</time>
      </trkpt>
      <trkpt lat="45.35433" lon="5.74986">
        <ele>937.8</ele>
        <time>2021-12-19T13:59:53Z</time>
      </trkpt>
      <trkpt lat="45.35434" lon="5.74986">
        <ele>937.8</ele>
        <time>2021-12-19T13:59:54Z</time>
      </trkpt>
      <trkpt lat="45.35434" lon="5.74986">
        <ele>937.8</ele>
        <time>2021-12-19T13:59:55Z</time>
      </trkpt>
      <trkpt lat="45.35434" lon="5.74986">
        <ele>937.8</ele>
        <time>2021-12-19T13:59:56Z</time>
      </trkpt>
      <trkpt lat="45.35434" lon="5.74985">
        <ele>937.9</ele>
        <time>2021-12-19T13:59:57Z</time>
      </trkpt>
      <trkpt lat="45.35435" lon="5.74985">
        <ele>937.9</ele>
        <time>2021-12-19T13:59:58Z</time>
      </trkpt>
      <trkpt lat="45.35435" lon="5.74985">
        <ele>937.9</ele>
        <time>2021-12-19T13:59:59Z</time>
      </trkpt>
      <trkpt lat="45.35435" lon="5.74985">
        <ele>937.9</ele>
        <time>2021-12-19T14:00:00Z</time>
      </trkpt>
      <trkpt lat="45.35435" lon="5.74985">
        <ele>937.9</ele>
        <time>2021-12-19T14:00:01Z</time>
      </trkpt>
      <trkpt lat="45.35436" lon="5.74984">
        <ele>938</ele>
        <time>2021-12-19T14:00:02Z</time>
      </trkpt>
      <trkpt lat="45.35436" lon="5.74984">
        <ele>938</ele>
        <time>2021-12-19T14:00:03Z</time>
      </trkpt>
      <trkpt lat="45.35436" lon="5.74984">
        <ele>938</ele>
        <time>2021-12-19T14:00:04Z</time>
      </trkpt>
      <trkpt lat="45.35437" lon="5.74984">
        <ele>938</ele>
        <time>2021-12-19T14:00:05Z</time>
      </trkpt>
      <trkpt lat="45.35437" lon="5.74984">
        <ele>938</ele>
        <time>2021-12-19T14:00:06Z</time>
      </trkpt>
      <trkpt lat="45.35437" lon="5.74984">
        <ele>938</ele>
        <time>2021-12-19T14:00:07Z</time>
      </trkpt>
      <trkpt lat="45.35437" lon="5.74983">
        <ele>938.1</ele>
        <time>2021-12-19T14:00:08Z</time>
      </trkpt>
      <trkpt lat="45.35438" lon="5.74983">
        <ele>938.1</ele>
        <time>2021-12-19T14:00:09Z</time>
      </trkpt>
      <trkpt lat="45.35438" lon="5.74983">
        <ele>938.1</ele>
        <time>2021-12-19T14:00:10Z</time>
      </trkpt>
      <trkpt lat="45.35438" lon="5.74983">
        <ele>938.1</ele>
        <time>2021-12-19T14:00:11Z</time>
      </trkpt>
      <trkpt lat="45.35438" lon="5.74983">
        <ele>938.1</ele>
        <time>2021-12-19T14:00:12Z</time>
      </trkpt>
      <trkpt lat="45.35439" lon="5.74983">
        <ele>938.1</ele>
        <time>2021-12-19T14:00:13Z</time>
      </trkpt>
      <trkpt lat="45.35439" lon="5.74982">
        <ele>938.2</ele>
        <time>2021-12-19T14:00:14Z</time>
      </trkpt>
      <trkpt lat="45.35439" lon="5.74982">
        <ele>938.2</ele>
        <time>2021-12-19T14:00:15Z</time>
      </trkpt>
      <trkpt lat="45.35439" lon="5.74982">
        <ele>938.2</ele>
        <time>2021-12-19T14:00:16Z</time>
      </trkpt>
      <trkpt lat="45.3544" lon="5.74982">
        <ele>938.2</ele>
        <time>2021-12-19T14:00:17Z</time>
      </trkpt>
      <trkpt lat="45.3544" lon="5.74982">
        <ele>938.2</ele>
        <time>2021-12-19T14:00:18Z</time>
      </trkpt>
      <trkpt lat="45.3544" lon="5.74982">
        <ele>938.1</ele>
        <time>2021-12-19T14:00:19Z</time>
      </trkpt>
      <trkpt lat="45.3544" lon="5.74981">
        <ele>938.1</ele>
        <time>2021-12-19T14:00:20Z</time>
      </trkpt>
      <trkpt lat="45.35441" lon="5.74981">
        <ele>938.1</ele>
        <time>2021-12-19T14:00:21Z</time>
      </trkpt>
      <trkpt lat="45.35441" lon="5.74981">
        <ele>938.1</ele>
        <time>2021-12-19T14:00:22Z</time>
      </trkpt>
      <trkpt lat="45.35441" lon="5.74981">
        <ele>938.1</ele>
        <time>2021-12-19T14:00:23Z</time>
      </trkpt>
      <trkpt lat="45.35441" lon="5.74981">
        <ele>938.1</ele>
        <time>2021-12-19T14:00:24Z</time>
      </trkpt>
      <trkpt lat="45.35442" lon="5.74981">
        <ele>938</ele>
        <time>2021-12-19T14:00:25Z</time>
      </trkpt>
      <trkpt lat="45.35442" lon="5.7498">
        <ele>938</ele>
        <time>2021-12-19T14:00:26Z</time>
      </trkpt>
      <trkpt lat="45.35442" lon="5.7498">
        <ele>938</ele>
        <time>2021-12-19T14:00:27Z</time>
      </trkpt>
      <trkpt lat="45.35442" lon="5.7498">
        <ele>938</ele>
        <time>2021-12-19T14:00:28Z</time>
      </trkpt>
      <trkpt lat="45.35443" lon="5.7498">
        <ele>938</ele>
        <time>2021-12-19T14:00:29Z</time>
      </trkpt>
      <trkpt lat="45.35443" lon="5.7498">
        <ele>938</ele>
        <time>2021-12-19T14:00:30Z</time>
      </trkpt>
      <trkpt lat="45.35443" lon="5.7498">
        <ele>938</ele>
        <time>2021-12-19T14:00:31Z</time>
      </trkpt>
      <trkpt lat="45.35443" lon="5.74979">
        <ele>937.9</ele>
        <time>2021-12-19T14:00:32Z</time>
      </trkpt>
      <trkpt lat="45.35444" lon="5.74979">
        <ele>937.9</ele>
        <time>2021-12-19T14:00:33Z</time>
      </trkpt>
      <trkpt lat="45.35444" lon="5.74979">
        <ele>937.9</ele>
        <time>2021-12-19T14:00:34Z</time>
      </trkpt>
      <trkpt lat="45.35444" lon="5.74979">
        <ele>937.9</ele>
        <time>2021-12-19T14:00:35Z</time>
      </trkpt>
      <trkpt lat="45.35444" lon="5.74979">
        <ele>937.9</ele>
        <time>2021-12-19T14:00:36Z</time>
      </trkpt>
      <trkpt lat="45.35445" lon="5.74979">
        <ele>937.9</ele>
        <time>2021-12-19T14:00:37Z</time>
      </trkpt>
      <trkpt lat="45.35445" lon="5.74978">
        <ele>937.8</ele>
        <time>2021-12-19T14:00:38Z</time>
      </trkpt>
      <trkpt lat="45.35445" lon="5.74978">
        <ele>937.8</ele>
        <time>2021-12-19T14:00:39Z</time>
      </trkpt>
      <trkpt lat="45.35445" lon="5.74978">
        <ele>937.8</ele>
        <time>2021-12-19T14:00:40Z</time>
      </trkpt>
      <trkpt lat="45.35446" lon="5.74978">
        <ele>937.7</ele>
        <time>2021-12-19T14:00:41Z</time>
      </trkpt>
      <trkpt lat="45.35446" lon="5.74978">
        <ele>937.7</ele>
        <time>2021-12-19T14:00:42Z</time>
      </trkpt>
      <trkpt lat="45.35446" lon="5.74978">
        <ele>937.6</ele>
        <time>2021-12-19T14:00:43Z</time>
      </trkpt>
      <trkpt lat="45.35447" lon="5.74977">
        <ele>937.5</ele>
        <time>2021-12-19T14:00:44Z</time>
      </trkpt>
      <trkpt lat="45.35447" lon="5.74977">
        <ele>937.5</ele>
        <time>2021-12-19T14:00:45Z</time>
      </trkpt>
      <trkpt lat="45.35447" lon="5.74977">
        <ele>937.4</ele>
        <time>2021-12-19T14:00:46Z</time>
      </trkpt>
      <trkpt lat="45.35447" lon="5.74977">
        <ele>937.4</ele>
        <time>2021-12-19T14:00:47Z</time>
      </trkpt>
      <trkpt lat="45.35448" lon="5.74977">
        <ele>937.3</ele>
        <time>2021-12-19T14:00:48Z</time>
      </trkpt>
      <trkpt lat="45.35448" lon="5.74977">
        <ele>937.2</ele>
        <time>2021-12-19T14:00:49Z</time>
      </trkpt>
      <trkpt lat="45.35448" lon="5.74976">
        <ele>937.2</ele>
        <time>2021-12-19T14:00:50Z</time>
      </trkpt>
      <trkpt lat="45.35448" lon="5.74976">
        <ele>937.1</ele>
        <time>2021-12-19T14:00:51Z</time>
      </trkpt>
      <trkpt lat="45.35449" lon="5.74976">
        <ele>937.1</ele>
        <time>2021-12-19T14:00:52Z</time>
      </trkpt>
      <trkpt lat="45.35449" lon="5.74976">
        <ele>937</ele>
        <time>2021-12-19T14:00:53Z</time>
      </trkpt>
      <trkpt lat="45.35449" lon="5.74976">
        <ele>936.9</ele>
        <time>2021-12-19T14:00:54Z</time>
      </trkpt>
      <trkpt lat="45.35449" lon="5.74976">
        <ele>936.9</ele>
        <time>2021-12-19T14:00:55Z</time>
      </trkpt>
      <trkpt lat="45.3545" lon="5.74975">
        <ele>936.8</ele>
        <time>2021-12-19T14:00:56Z</time>
      </trkpt>
      <trkpt lat="45.3545" lon="5.74975">
        <ele>936.7</ele>
        <time>2021-12-19T14:00:57Z</time>
      </trkpt>
      <trkpt lat="45.3545" lon="5.74975">
        <ele>936.7</ele>
        <time>2021-12-19T14:00:58Z</time>
      </trkpt>
      <trkpt lat="45.3545" lon="5.74975">
        <ele>936.6</ele>
        <time>2021-12-19T14:00:59Z</time>
      </trkpt>
      <trkpt lat="45.35451" lon="5.74975">
        <ele>936.5</ele>
        <time>2021-12-19T14:01:00Z</time>
      </trkpt>
      <trkpt lat="45.35451" lon="5.74974">
        <ele>936.5</ele>
        <time>2021-12-19T14:01:01Z</time>
      </trkpt>
      <trkpt lat="45.35451" lon="5.74974">
        <ele>936.4</ele>
        <time>2021-12-19T14:01:02Z</time>
      </trkpt>
      <trkpt lat="45.35451" lon="5.74974">
        <ele>936.4</ele>
        <time>2021-12-19T14:01:03Z</time>
      </trkpt>
      <trkpt lat="45.35452" lon="5.74974">
        <ele>936.3</ele>
        <time>2021-12-19T14:01:04Z</time>
      </trkpt>
      <trkpt lat="45.35452" lon="5.74974">
        <ele>936.2</ele>
        <time>2021-12-19T14:01:05Z</time>
      </trkpt>
      <trkpt lat="45.35452" lon="5.74974">
        <ele>936.1</ele>
        <time>2021-12-19T14:01:06Z</time>
      </trkpt>
      <trkpt lat="45.35452" lon="5.74973">
        <ele>936</ele>
        <time>2021-12-19T14:01:07Z</time>
      </trkpt>
      <trkpt lat="45.35453" lon="5.74973">
        <ele>935.9</ele>
        <time>2021-12-19T14:01:08Z</time>
      </trkpt>
      <trkpt lat="45.35453" lon="5.74973">
        <ele>935.8</ele>
        <time>2021-12-19T14:01:09Z</time>
      </trkpt>
      <trkpt lat="45.35453" lon="5.74973">
        <ele>935.7</ele>
        <time>2021-12-19T14:01:10Z</time>
      </trkpt>
      <trkpt lat="45.35453" lon="5.74973">
        <ele>935.5</ele>
        <time>2021-12-19T14:01:11Z</time>
      </trkpt>
      <trkpt lat="45.35454" lon="5.74973">
        <ele>935.5</ele>
        <time>2021-12-19T14:01:12Z</time>
      </trkpt>
      <trkpt lat="45.35454" lon="5.74972">
        <ele>935.3</ele>
        <time>2021-12-19T14:01:13Z</time>
      </trkpt>
      <trkpt lat="45.35454" lon="5.74972">
        <ele>935.2</ele>
        <time>2021-12-19T14:01:14Z</time>
      </trkpt>
      <trkpt lat="45.35454" lon="5.74972">
        <ele>935.1</ele>
        <time>2021-12-19T14:01:15Z</time>
      </trkpt>
      <trkpt lat="45.35455" lon="5.74972">
        <ele>935</ele>
        <time>2021-12-19T14:01:16Z</time>
      </trkpt>
      <trkpt lat="45.35455" lon="5.74972">
        <ele>934.9</ele>
        <time>2021-12-19T14:01:17Z</time>
      </trkpt>
      <trkpt lat="45.35455" lon="5.74972">
        <ele>934.8</ele>
        <time>2021-12-19T14:01:18Z</time>
      </trkpt>
      <trkpt lat="45.35455" lon="5.74971">
        <ele>934.7</ele>
        <time>2021-12-19T14:01:19Z</time>
      </trkpt>
      <trkpt lat="45.35456" lon="5.74971">
        <ele>934.6</ele>
        <time>2021-12-19T14:01:20Z</time>
      </trkpt>
      <trkpt lat="45.35456" lon="5.74971">
        <ele>934.5</ele>
        <time>2021-12-19T14:01:21Z</time>
      </trkpt>
      <trkpt lat="45.35456" lon="5.74971">
        <ele>934.4</ele>
        <time>2021-12-19T14:01:22Z</time>
      </trkpt>
      <trkpt lat="45.35457" lon="5.74971">
        <ele>934.3</ele>
        <time>2021-12-19T14:01:23Z</time>
      </trkpt>
      <trkpt lat="45.35457" lon="5.74971">
        <ele>934.2</ele>
        <time>2021-12-19T14:01:24Z</time>
      </trkpt>
      <trkpt lat="45.35457" lon="5.7497">
        <ele>934</ele>
        <time>2021-12-19T14:01:25Z</time>
      </trkpt>
      <trkpt lat="45.35457" lon="5.7497">
        <ele>934</ele>
        <time>2021-12-19T14:01:26Z</time>
      </trkpt>
      <trkpt lat="45.35458" lon="5.7497">
        <ele>933.8</ele>
        <time>2021-12-19T14:01:27Z</time>
      </trkpt>
      <trkpt lat="45.35458" lon="5.7497">
        <ele>933.8</ele>
        <time>2021-12-19T14:01:28Z</time>
      </trkpt>
      <trkpt lat="45.35458" lon="5.7497">
        <ele>933.6</ele>
        <time>2021-12-19T14:01:29Z</time>
      </trkpt>
      <trkpt lat="45.35458" lon="5.7497">
        <ele>933.5</ele>
        <time>2021-12-19T14:01:30Z</time>
      </trkpt>
      <trkpt lat="45.35459" lon="5.74969">
        <ele>933.4</ele>
        <time>2021-12-19T14:01:31Z</time>
      </trkpt>
      <trkpt lat="45.35459" lon="5.74969">
        <ele>933.3</ele>
        <time>2021-12-19T14:01:32Z</time>
      </trkpt>
      <trkpt lat="45.35459" lon="5.74969">
        <ele>933.2</ele>
        <time>2021-12-19T14:01:33Z</time>
      </trkpt>
      <trkpt lat="45.35459" lon="5.74969">
        <ele>933.1</ele>
        <time>2021-12-19T14:01:34Z</time>
      </trkpt>
      <trkpt lat="45.3546" lon="5.74969">
        <ele>933</ele>
        <time>2021-12-19T14:01:35Z</time>
      </trkpt>
      <trkpt lat="45.3546" lon="5.74969">
        <ele>932.8</ele>
        <time>2021-12-19T14:01:36Z</time>
      </trkpt>
      <trkpt lat="45.3546" lon="5.74968">
        <ele>932.7</ele>
        <time>2021-12-19T14:01:37Z</time>
      </trkpt>
      <trkpt lat="45.3546" lon="5.74968">
        <ele>932.6</ele>
        <time>2021-12-19T14:01:38Z</time>
      </trkpt>
      <trkpt lat="45.35461" lon="5.74968">
        <ele>932.5</ele>
        <time>2021-12-19T14:01:39Z</time>
      </trkpt>
      <trkpt lat="45.35461" lon="5.74968">
        <ele>932.4</ele>
        <time>2021-12-19T14:01:40Z</time>
      </trkpt>
      <trkpt lat="45.35461" lon="5.74968">
        <ele>932.3</ele>
        <time>2021-12-19T14:01:41Z</time>
      </trkpt>
      <trkpt lat="45.35461" lon="5.74968">
        <ele>932.2</ele>
        <time>2021-12-19T14:01:42Z</time>
      </trkpt>
      <trkpt lat="45.35462" lon="5.74967">
        <ele>932.1</ele>
        <time>2021-12-19T14:01:43Z</time>
      </trkpt>
      <trkpt lat="45.35462" lon="5.74967">
        <ele>932</ele>
        <time>2021-12-19T14:01:44Z</time>
      </trkpt>
      <trkpt lat="45.35462" lon="5.74967">
        <ele>931.8</ele>
        <time>2021-12-19T14:01:45Z</time>
      </trkpt>
      <trkpt lat="45.35462" lon="5.74967">
        <ele>931.7</ele>
        <time>2021-12-19T14:01:46Z</time>
      </trkpt>
      <trkpt lat="45.35463" lon="5.74967">
        <ele>931.6</ele>
        <time>2021-12-19T14:01:47Z</time>
      </trkpt>
      <trkpt lat="45.35463" lon="5.74967">
        <ele>931.5</ele>
        <time>2021-12-19T14:01:48Z</time>
      </trkpt>
      <trkpt lat="45.35463" lon="5.74966">
        <ele>931.4</ele>
        <time>2021-12-19T14:01:49Z</time>
      </trkpt>
      <trkpt lat="45.35463" lon="5.74966">
        <ele>931.3</ele>
        <time>2021-12-19T14:01:50Z</time>
      </trkpt>
      <trkpt lat="45.35464" lon="5.74966">
        <ele>931.2</ele>
        <time>2021-12-19T14:01:51Z</time>
      </trkpt>
      <trkpt lat="45.35464" lon="5.74966">
        <ele>931.1</ele>
        <time>2021-12-19T14:01:52Z</time>
      </trkpt>
      <trkpt lat="45.35464" lon="5.74966">
        <ele>931</ele>
        <time>2021-12-19T14:01:53Z</time>
      </trkpt>
      <trkpt lat="45.35464" lon="5.74966">
        <ele>930.9</ele>
        <time>2021-12-19T14:01:54Z</time>
      </trkpt>
      <trkpt lat="45.35465" lon="5.74965">
        <ele>930.8</ele>
        <time>2021-12-19T14:01:55Z</time>
      </trkpt>
      <trkpt lat="45.35465" lon="5.74965">
        <ele>930.7</ele>
        <time>2021-12-19T14:01:56Z</time>
      </trkpt>
      <trkpt lat="45.35465" lon="5.74965">
        <ele>930.6</ele>
        <time>2021-12-19T14:01:57Z</time>
      </trkpt>
      <trkpt lat="45.35465" lon="5.74965">
        <ele>930.6</ele>
        <time>2021-12-19T14:01:58Z</time>
      </trkpt>
      <trkpt lat="45.35466" lon="5.74965">
        <ele>930.5</ele>
        <time>2021-12-19T14:01:59Z</time>
      </trkpt>
      <trkpt lat="45.35466" lon="5.74964">
        <ele>930.4</ele>
        <time>2021-12-19T14:02:00Z</time>
      </trkpt>
      <trkpt lat="45.35466" lon="5.74964">
        <ele>930.3</ele>
        <time>2021-12-19T14:02:01Z</time>
      </trkpt>
      <trkpt lat="45.35467" lon="5.74964">
        <ele>930.2</ele>
        <time>2021-12-19T14:02:02Z</time>
      </trkpt>
      <trkpt lat="45.35467" lon="5.74964">
        <ele>930.1</ele>
        <time>2021-12-19T14:02:03Z</time>
      </trkpt>
      <trkpt lat="45.35467" lon="5.74964">
        <ele>930</ele>
        <time>2021-12-19T14:02:04Z</time>
      </trkpt>
      <trkpt lat="45.35467" lon="5.74964">
        <ele>930</ele>
        <time>2021-12-19T14:02:05Z</time>
      </trkpt>
      <trkpt lat="45.35468" lon="5.74963">
        <ele>929.9</ele>
        <time>2021-12-19T14:02:06Z</time>
      </trkpt>
      <trkpt lat="45.35468" lon="5.74963">
        <ele>929.8</ele>
        <time>2021-12-19T14:02:07Z</time>
      </trkpt>
      <trkpt lat="45.35468" lon="5.74963">
        <ele>929.7</ele>
        <time>2021-12-19T14:02:08Z</time>
      </trkpt>
      <trkpt lat="45.35468" lon="5.74963">
        <ele>929.6</ele>
        <time>2021-12-19T14:02:09Z</time>
      </trkpt>
      <trkpt lat="45.35469" lon="5.74963">
        <ele>929.6</ele>
        <time>2021-12-19T14:02:10Z</time>
      </trkpt>
      <trkpt lat="45.35469" lon="5.74963">
        <ele>929.5</ele>
        <time>2021-12-19T14:02:11Z</time>
      </trkpt>
      <trkpt lat="45.35469" lon="5.74962">
        <ele>929.4</ele>
        <time>2021-12-19T14:02:12Z</time>
      </trkpt>
      <trkpt lat="45.35469" lon="5.74962">
        <ele>929.3</ele>
        <time>2021-12-19T14:02:13Z</time>
      </trkpt>
      <trkpt lat="45.3547" lon="5.74962">
        <ele>929.2</ele>
        <time>2021-12-19T14:02:14Z</time>
      </trkpt>
      <trkpt lat="45.3547" lon="5.74962">
        <ele>929.1</ele>
        <time>2021-12-19T14:02:15Z</time>
      </trkpt>
      <trkpt lat="45.3547" lon="5.74962">
        <ele>929.1</ele>
        <time>2021-12-19T14:02:16Z</time>
      </trkpt>
      <trkpt lat="45.3547" lon="5.74962">
        <ele>929</ele>
        <time>2021-12-19T14:02:17Z</time>
      </trkpt>
      <trkpt lat="45.35471" lon="5.74961">
        <ele>929</ele>
        <time>2021-12-19T14:02:18Z</time>
      </trkpt>
      <trkpt lat="45.35471" lon="5.74961">
        <ele>928.9</ele>
        <time>2021-12-19T14:02:19Z</time>
      </trkpt>
      <trkpt lat="45.35471" lon="5.74961">
        <ele>928.9</ele>
        <time>2021-12-19T14:02:20Z</time>
      </trkpt>
      <trkpt lat="45.35471" lon="5.74961">
        <ele>928.8</ele>
        <time>2021-12-19T14:02:21Z</time>
      </trkpt>
      <trkpt lat="45.35472" lon="5.74961">
        <ele>928.8</ele>
        <time>2021-12-19T14:02:22Z</time>
      </trkpt>
      <trkpt lat="45.35472" lon="5.74961">
        <ele>928.7</ele>
        <time>2021-12-19T14:02:23Z</time>
      </trkpt>
      <trkpt lat="45.35472" lon="5.7496">
        <ele>928.7</ele>
        <time>2021-12-19T14:02:24Z</time>
      </trkpt>
      <trkpt lat="45.35472" lon="5.7496">
        <ele>928.6</ele>
        <time>2021-12-19T14:02:25Z</time>
      </trkpt>
      <trkpt lat="45.35473" lon="5.7496">
        <ele>928.6</ele>
        <time>2021-12-19T14:02:26Z</time>
      </trkpt>
      <trkpt lat="45.35473" lon="5.7496">
        <ele>928.5</ele>
        <time>2021-12-19T14:02:27Z</time>
      </trkpt>
      <trkpt lat="45.35473" lon="5.7496">
        <ele>928.5</ele>
        <time>2021-12-19T14:02:28Z</time>
      </trkpt>
      <trkpt lat="45.35473" lon="5.7496">
        <ele>928.4</ele>
        <time>2021-12-19T14:02:29Z</time>
      </trkpt>
      <trkpt lat="45.35474" lon="5.74959">
        <ele>928.4</ele>
        <time>2021-12-19T14:02:30Z</time>
      </trkpt>
      <trkpt lat="45.35474" lon="5.74959">
        <ele>928.3</ele>
        <time>2021-12-19T14:02:31Z</time>
      </trkpt>
      <trkpt lat="45.35474" lon="5.74959">
        <ele>928.3</ele>
        <time>2021-12-19T14:02:32Z</time>
      </trkpt>
      <trkpt lat="45.35474" lon="5.74959">
        <ele>928.2</ele>
        <time>2021-12-19T14:02:33Z</time>
      </trkpt>
      <trkpt lat="45.35475" lon="5.74959">
        <ele>928.2</ele>
        <time>2021-12-19T14:02:34Z</time>
      </trkpt>
      <trkpt lat="45.35475" lon="5.74959">
        <ele>928.1</ele>
        <time>2021-12-19T14:02:35Z</time>
      </trkpt>
      <trkpt lat="45.35475" lon="5.74958">
        <ele>928.1</ele>
        <time>2021-12-19T14:02:36Z</time>
      </trkpt>
      <trkpt lat="45.35475" lon="5.74958">
        <ele>928</ele>
        <time>2021-12-19T14:02:37Z</time>
      </trkpt>
      <trkpt lat="45.35476" lon="5.74958">
        <ele>928</ele>
        <time>2021-12-19T14:02:38Z</time>
      </trkpt>
      <trkpt lat="45.35476" lon="5.74958">
        <ele>927.9</ele>
        <time>2021-12-19T14:02:39Z</time>
      </trkpt>
      <trkpt lat="45.35476" lon="5.74958">
        <ele>927.9</ele>
        <time>2021-12-19T14:02:40Z</time>
      </trkpt>
      <trkpt lat="45.35477" lon="5.74958">
        <ele>927.8</ele>
        <time>2021-12-19T14:02:41Z</time>
      </trkpt>
      <trkpt lat="45.35477" lon="5.74957">
        <ele>927.8</ele>
        <time>2021-12-19T14:02:42Z</time>
      </trkpt>
      <trkpt lat="45.35477" lon="5.74957">
        <ele>927.8</ele>
        <time>2021-12-19T14:02:43Z</time>
      </trkpt>
      <trkpt lat="45.35477" lon="5.74957">
        <ele>927.8</ele>
        <time>2021-12-19T14:02:44Z</time>
      </trkpt>
      <trkpt lat="45.35478" lon="5.74957">
        <ele>927.7</ele>
        <time>2021-12-19T14:02:45Z</time>
      </trkpt>
      <trkpt lat="45.35478" lon="5.74957">
        <ele>927.7</ele>
        <time>2021-12-19T14:02:46Z</time>
      </trkpt>
      <trkpt lat="45.35478" lon="5.74957">
        <ele>927.7</ele>
        <time>2021-12-19T14:02:47Z</time>
      </trkpt>
      <trkpt lat="45.35478" lon="5.74956">
        <ele>927.6</ele>
        <time>2021-12-19T14:02:48Z</time>
      </trkpt>
      <trkpt lat="45.35479" lon="5.74956">
        <ele>927.6</ele>
        <time>2021-12-19T14:02:49Z</time>
      </trkpt>
      <trkpt lat="45.35479" lon="5.74956">
        <ele>927.6</ele>
        <time>2021-12-19T14:02:50Z</time>
      </trkpt>
      <trkpt lat="45.35479" lon="5.74956">
        <ele>927.6</ele>
        <time>2021-12-19T14:02:51Z</time>
      </trkpt>
      <trkpt lat="45.35479" lon="5.74956">
        <ele>927.5</ele>
        <time>2021-12-19T14:02:52Z</time>
      </trkpt>
      <trkpt lat="45.3548" lon="5.74956">
        <ele>927.5</ele>
        <time>2021-12-19T14:02:53Z</time>
      </trkpt>
      <trkpt lat="45.3548" lon="5.74955">
        <ele>927.5</ele>
        <time>2021-12-19T14:02:54Z</time>
      </trkpt>
      <trkpt lat="45.3548" lon="5.74955">
        <ele>927.5</ele>
        <time>2021-12-19T14:02:55Z</time>
      </trkpt>
      <trkpt lat="45.3548" lon="5.74955">
        <ele>927.4</ele>
        <time>2021-12-19T14:02:56Z</time>
      </trkpt>
      <trkpt lat="45.35481" lon="5.74955">
        <ele>927.4</ele>
        <time>2021-12-19T14:02:57Z</time>
      </trkpt>
      <trkpt lat="45.35481" lon="5.74955">
        <ele>927.4</ele>
        <time>2021-12-19T14:02:58Z</time>
      </trkpt>
      <trkpt lat="45.35481" lon="5.74954">
        <ele>927.3</ele>
        <time>2021-12-19T14:02:59Z</time>
      </trkpt>
      <trkpt lat="45.35481" lon="5.74954">
        <ele>927.3</ele>
        <time>2021-12-19T14:03:00Z</time>
      </trkpt>
      <trkpt lat="45.35482" lon="5.74954">
        <ele>927.3</ele>
        <time>2021-12-19T14:03:01Z</time>
      </trkpt>
      <trkpt lat="45.35482" lon="5.74954">
        <ele>927.3</ele>
        <time>2021-12-19T14:03:02Z</time>
      </trkpt>
      <trkpt lat="45.35482" lon="5.74954">
        <ele>927.2</ele>
        <time>2021-12-19T14:03:03Z</time>
      </trkpt>
      <trkpt lat="45.35482" lon="5.74954">
        <ele>927.2</ele>
        <time>2021-12-19T14:03:04Z</time>
      </trkpt>
      <trkpt lat="45.35483" lon="5.74953">
        <ele>927.2</ele>
        <time>2021-12-19T14:03:05Z</time>
      </trkpt>
      <trkpt lat="45.35483" lon="5.74953">
        <ele>927.2</ele>
        <time>2021-12-19T14:03:06Z</time>
      </trkpt>
      <trkpt lat="45.35483" lon="5.74953">
        <ele>927.1</ele>
        <time>2021-12-19T14:03:07Z</time>
      </trkpt>
      <trkpt lat="45.35483" lon="5.74953">
        <ele>927.1</ele>
        <time>2021-12-19T14:03:08Z</time>
      </trkpt>
      <trkpt lat="45.35484" lon="5.74953">
        <ele>927.1</ele>
        <time>2021-12-19T14:03:09Z</time>
      </trkpt>
      <trkpt lat="45.35484" lon="5.74953">
        <ele>927.1</ele>
        <time>2021-12-19T14:03:10Z</time>
      </trkpt>
      <trkpt lat="45.35484" lon="5.74952">
        <ele>927.1</ele>
        <time>2021-12-19T14:03:11Z</time>
      </trkpt>
      <trkpt lat="45.35484" lon="5.74952">
        <ele>927</ele>
        <time>2021-12-19T14:03:12Z</time>
      </trkpt>
      <trkpt lat="45.35485" lon="5.74952">
        <ele>927</ele>
        <time>2021-12-19T14:03:13Z</time>
      </trkpt>
      <trkpt lat="45.35485" lon="5.74952">
        <ele>927</ele>
        <time>2021-12-19T14:03:14Z</time>
      </trkpt>
      <trkpt lat="45.35485" lon="5.74952">
        <ele>927</ele>
        <time>2021-12-19T14:03:15Z</time>
      </trkpt>
      <trkpt lat="45.35485" lon="5.74952">
        <ele>927</ele>
        <time>2021-12-19T14:03:16Z</time>
      </trkpt>
      <trkpt lat="45.35486" lon="5.74951">
        <ele>926.9</ele>
        <time>2021-12-19T14:03:17Z</time>
      </trkpt>
      <trkpt lat="45.35486" lon="5.74951">
        <ele>926.9</ele>
        <time>2021-12-19T14:03:18Z</time>
      </trkpt>
      <trkpt lat="45.35486" lon="5.74951">
        <ele>926.9</ele>
        <time>2021-12-19T14:03:19Z</time>
      </trkpt>
      <trkpt lat="45.35487" lon="5.74951">
        <ele>926.9</ele>
        <time>2021-12-19T14:03:20Z</time>
      </trkpt>
      <trkpt lat="45.35487" lon="5.74951">
        <ele>926.9</ele>
        <time>2021-12-19T14:03:21Z</time>
      </trkpt>
      <trkpt lat="45.35487" lon="5.74951">
        <ele>926.8</ele>
        <time>2021-12-19T14:03:22Z</time>
      </trkpt>
      <trkpt lat="45.35487" lon="5.7495">
        <ele>926.8</ele>
        <time>2021-12-19T14:03:23Z</time>
      </trkpt>
      <trkpt lat="45.35488" lon="5.7495">
        <ele>926.8</ele>
        <time>2021-12-19T14:03:24Z</time>
      </trkpt>
      <trkpt lat="45.35488" lon="5.7495">
        <ele>926.8</ele>
        <time>2021-12-19T14:03:25Z</time>
      </trkpt>
      <trkpt lat="45.35488" lon="5.7495">
        <ele>926.8</ele>
        <time>2021-12-19T14:03:26Z</time>
      </trkpt>
      <trkpt lat="45.35488" lon="5.7495">
        <ele>926.7</ele>
        <time>2021-12-19T14:03:27Z</time>
      </trkpt>
      <trkpt lat="45.35489" lon="5.7495">
        <ele>926.7</ele>
        <time>2021-12-19T14:03:28Z</time>
      </trkpt>
      <trkpt lat="45.35489" lon="5.74949">
        <ele>926.7</ele>
        <time>2021-12-19T14:03:29Z</time>
      </trkpt>
      <trkpt lat="45.35489" lon="5.74949">
        <ele>926.7</ele>
        <time>2021-12-19T14:03:30Z</time>
      </trkpt>
      <trkpt lat="45.35489" lon="5.74949">
        <ele>926.7</ele>
        <time>2021-12-19T14:03:31Z</time>
      </trkpt>
      <trkpt lat="45.3549" lon="5.74949">
        <ele>926.7</ele>
        <time>2021-12-19T14:03:32Z</time>
      </trkpt>
      <trkpt lat="45.3549" lon="5.74949">
        <ele>926.6</ele>
        <time>2021-12-19T14:03:33Z</time>
      </trkpt>
      <trkpt lat="45.3549" lon="5.74949">
        <ele>926.6</ele>
        <time>2021-12-19T14:03:34Z</time>
      </trkpt>
      <trkpt lat="45.3549" lon="5.74948">
        <ele>926.6</ele>
        <time>2021-12-19T14:03:35Z</time>
      </trkpt>
      <trkpt lat="45.35491" lon="5.74948">
        <ele>926.6</ele>
        <time>2021-12-19T14:03:36Z</time>
      </trkpt>
      <trkpt lat="45.35491" lon="5.74948">
        <ele>926.6</ele>
        <time>2021-12-19T14:03:37Z</time>
      </trkpt>
      <trkpt lat="45.35491" lon="5.74948">
        <ele>926.5</ele>
        <time>2021-12-19T14:03:38Z</time>
      </trkpt>
      <trkpt lat="45.35491" lon="5.74948">
        <ele>926.5</ele>
        <time>2021-12-19T14:03:39Z</time>
      </trkpt>
      <trkpt lat="45.35492" lon="5.74948">
        <ele>926.5</ele>
        <time>2021-12-19T14:03:40Z</time>
      </trkpt>
      <trkpt lat="45.35492" lon="5.74947">
        <ele>926.5</ele>
        <time>2021-12-19T14:03:41Z</time>
      </trkpt>
      <trkpt lat="45.35492" lon="5.74947">
        <ele>926.5</ele>
        <time>2021-12-19T14:03:42Z</time>
      </trkpt>
      <trkpt lat="45.35492" lon="5.74947">
        <ele>926.5</ele>
        <time>2021-12-19T14:03:43Z</time>
      </trkpt>
      <trkpt lat="45.35493" lon="5.74947">
        <ele>926.5</ele>
        <time>2021-12-19T14:03:44Z</time>
      </trkpt>
      <trkpt lat="45.35493" lon="5.74947">
        <ele>926.4</ele>
        <time>2021-12-19T14:03:45Z</time>
      </trkpt>
      <trkpt lat="45.35493" lon="5.74947">
        <ele>926.4</ele>
        <time>2021-12-19T14:03:46Z</time>
      </trkpt>
      <trkpt lat="45.35493" lon="5.74946">
        <ele>926.4</ele>
        <time>2021-12-19T14:03:47Z</time>
      </trkpt>
      <trkpt lat="45.35494" lon="5.74946">
        <ele>926.4</ele>
        <time>2021-12-19T14:03:48Z</time>
      </trkpt>
      <trkpt lat="45.35494" lon="5.74946">
        <ele>926.4</ele>
        <time>2021-12-19T14:03:49Z</time>
      </trkpt>
      <trkpt lat="45.35494" lon="5.74946">
        <ele>926.3</ele>
        <time>2021-12-19T14:03:50Z</time>
      </trkpt>
      <trkpt lat="45.35494" lon="5.74946">
        <ele>926.3</ele>
        <time>2021-12-19T14:03:51Z</time>
      </trkpt>
      <trkpt lat="45.35495" lon="5.74945">
        <ele>926.3</ele>
        <time>2021-12-19T14:03:52Z</time>
      </trkpt>
      <trkpt lat="45.35495" lon="5.74945">
        <ele>926.3</ele>
        <time>2021-12-19T14:03:53Z</time>
      </trkpt>
      <trkpt lat="45.35495" lon="5.74945">
        <ele>926.3</ele>
        <time>2021-12-19T14:03:54Z</time>
      </trkpt>
      <trkpt lat="45.35495" lon="5.74945">
        <ele>926.3</ele>
        <time>2021-12-19T14:03:55Z</time>
      </trkpt>
      <trkpt lat="45.35496" lon="5.74945">
        <ele>926.3</ele>
        <time>2021-12-19T14:03:56Z</time>
      </trkpt>
      <trkpt lat="45.35496" lon="5.74945">
        <ele>926.2</ele>
        <time>2021-12-19T14:03:57Z</time>
      </trkpt>
      <trkpt lat="45.35496" lon="5.74944">
        <ele>926.2</ele>
        <time>2021-12-19T14:03:58Z</time>
      </trkpt>
      <trkpt lat="45.35497" lon="5.74944">
        <ele>926.2</ele>
        <time>2021-12-19T14:03:59Z</time>
      </trkpt>
      <trkpt lat="45.35497" lon="5.74944">
        <ele>926.2</ele>
        <time>2021-12-19T14:04:00Z</time>
      </trkpt>
      <trkpt lat="45.35497" lon="5.74944">
        <ele>926.2</ele>
        <time>2021-12-19T14:04:01Z</time>
      </trkpt>
      <trkpt lat="45.35497" lon="5.74944">
        <ele>926.2</ele>
        <time>2021-12-19T14:04:02Z</time>
      </trkpt>
      <trkpt lat="45.35498" lon="5.74944">
        <ele>926.2</ele>
        <time>2021-12-19T14:04:03Z</time>
      </trkpt>
      <trkpt lat="45.35498" lon="5.74943">
        <ele>926.1</ele>
        <time>2021-12-19T14:04:04Z</time>
      </trkpt>
      <trkpt lat="45.35498" lon="5.74943">
        <ele>926.1</ele>
        <time>2021-12-19T14:04:05Z</time>
      </trkpt>
      <trkpt lat="45.35498" lon="5.74943">
        <ele>926.1</ele>
        <time>2021-12-19T14:04:06Z</time>
      </trkpt>
      <trkpt lat="45.35499" lon="5.74943">
        <ele>926.1</ele>
        <time>2021-12-19T14:04:07Z</time>
      </trkpt>
      <trkpt lat="45.35499" lon="5.74943">
        <ele>926.1</ele>
        <time>2021-12-19T14:04:08Z</time>
      </trkpt>
      <trkpt lat="45.35499" lon="5.74943">
        <ele>926.1</ele>
        <time>2021-12-19T14:04:09Z</time>
      </trkpt>
      <trkpt lat="45.35499" lon="5.74942">
        <ele>926</ele>
        <time>2021-12-19T14:04:10Z</time>
      </trkpt>
      <trkpt lat="45.355" lon="5.74942">
        <ele>926</ele>
        <time>2021-12-19T14:04:11Z</time>
      </trkpt>
      <trkpt lat="45.355" lon="5.74942">
        <ele>926</ele>
        <time>2021-12-19T14:04:12Z</time>
      </trkpt>
      <trkpt lat="45.355" lon="5.74942">
        <ele>926</ele>
        <time>2021-12-19T14:04:13Z</time>
      </trkpt>
      <trkpt lat="45.355" lon="5.74942">
        <ele>926</ele>
        <time>2021-12-19T14:04:14Z</time>
      </trkpt>
      <trkpt lat="45.35584" lon="5.74868">
        <ele>921.2</ele>
        <time>2021-12-19T14:04:15Z</time>
      </trkpt>
      <trkpt lat="45.35586" lon="5.74865">
        <ele>921</ele>
        <time>2021-12-19T14:04:16Z</time>
      </trkpt>
      <trkpt lat="45.35552" lon="5.7487">
        <ele>919</ele>
        <time>2021-12-19T14:04:17Z</time>
      </trkpt>
      <trkpt lat="45.35555" lon="5.74868">
        <ele>918.8</ele>
        <time>2021-12-19T14:04:18Z</time>
      </trkpt>
      <trkpt lat="45.35562" lon="5.74862">
        <ele>918.4</ele>
        <time>2021-12-19T14:04:19Z</time>
      </trkpt>
      <trkpt lat="45.35565" lon="5.7486">
        <ele>918.3</ele>
        <time>2021-12-19T14:04:20Z</time>
      </trkpt>
      <trkpt lat="45.35568" lon="5.7486">
        <ele>918.2</ele>
        <time>2021-12-19T14:04:21Z</time>
      </trkpt>
      <trkpt lat="45.35573" lon="5.74861">
        <ele>918</ele>
        <time>2021-12-19T14:04:22Z</time>
      </trkpt>
      <trkpt lat="45.35574" lon="5.74862">
        <ele>917.9</ele>
        <time>2021-12-19T14:04:23Z</time>
      </trkpt>
      <trkpt lat="45.35576" lon="5.74862">
        <ele>917.9</ele>
        <time>2021-12-19T14:04:24Z</time>
      </trkpt>
      <trkpt lat="45.35577" lon="5.74862">
        <ele>917.8</ele>
        <time>2021-12-19T14:04:25Z</time>
      </trkpt>
      <trkpt lat="45.35578" lon="5.74862">
        <ele>917.8</ele>
        <time>2021-12-19T14:04:26Z</time>
      </trkpt>
      <trkpt lat="45.35578" lon="5.74862">
        <ele>917.8</ele>
        <time>2021-12-19T14:04:27Z</time>
      </trkpt>
      <trkpt lat="45.3558" lon="5.74861">
        <ele>917.7</ele>
        <time>2021-12-19T14:04:28Z</time>
      </trkpt>
      <trkpt lat="45.35581" lon="5.74861">
        <ele>917.7</ele>
        <time>2021-12-19T14:04:29Z</time>
      </trkpt>
      <trkpt lat="45.35582" lon="5.74861">
        <ele>917.6</ele>
        <time>2021-12-19T14:04:30Z</time>
      </trkpt>
      <trkpt lat="45.35583" lon="5.74861">
        <ele>917.6</ele>
        <time>2021-12-19T14:04:31Z</time>
      </trkpt>
      <trkpt lat="45.35584" lon="5.74861">
        <ele>917.6</ele>
        <time>2021-12-19T14:04:32Z</time>
      </trkpt>
      <trkpt lat="45.35584" lon="5.74861">
        <ele>917.5</ele>
        <time>2021-12-19T14:04:33Z</time>
      </trkpt>
      <trkpt lat="45.35585" lon="5.74861">
        <ele>917.5</ele>
        <time>2021-12-19T14:04:34Z</time>
      </trkpt>
      <trkpt lat="45.35585" lon="5.74862">
        <ele>917.5</ele>
        <time>2021-12-19T14:04:35Z</time>
      </trkpt>
      <trkpt lat="45.35586" lon="5.74862">
        <ele>917.5</ele>
        <time>2021-12-19T14:04:36Z</time>
      </trkpt>
      <trkpt lat="45.35586" lon="5.74862">
        <ele>917.4</ele>
        <time>2021-12-19T14:04:37Z</time>
      </trkpt>
      <trkpt lat="45.35587" lon="5.74863">
        <ele>917.4</ele>
        <time>2021-12-19T14:04:38Z</time>
      </trkpt>
      <trkpt lat="45.35587" lon="5.74863">
        <ele>917.4</ele>
        <time>2021-12-19T14:04:39Z</time>
      </trkpt>
      <trkpt lat="45.35589" lon="5.74863">
        <ele>917.3</ele>
        <time>2021-12-19T14:04:40Z</time>
      </trkpt>
      <trkpt lat="45.3559" lon="5.74863">
        <ele>917.3</ele>
        <time>2021-12-19T14:04:41Z</time>
      </trkpt>
      <trkpt lat="45.3559" lon="5.74863">
        <ele>917.2</ele>
        <time>2021-12-19T14:04:42Z</time>
      </trkpt>
      <trkpt lat="45.35591" lon="5.74862">
        <ele>917.2</ele>
        <time>2021-12-19T14:04:43Z</time>
      </trkpt>
      <trkpt lat="45.35591" lon="5.74863">
        <ele>917.2</ele>
        <time>2021-12-19T14:04:44Z</time>
      </trkpt>
      <trkpt lat="45.35591" lon="5.74863">
        <ele>917.2</ele>
        <time>2021-12-19T14:04:45Z</time>
      </trkpt>
      <trkpt lat="45.35592" lon="5.74862">
        <ele>917.1</ele>
        <time>2021-12-19T14:04:46Z</time>
      </trkpt>
      <trkpt lat="45.35592" lon="5.74862">
        <ele>917.1</ele>
        <time>2021-12-19T14:04:47Z</time>
      </trkpt>
      <trkpt lat="45.35594" lon="5.74862">
        <ele>917</ele>
        <time>2021-12-19T14:04:48Z</time>
      </trkpt>
      <trkpt lat="45.35595" lon="5.74862">
        <ele>917</ele>
        <time>2021-12-19T14:04:49Z</time>
      </trkpt>
      <trkpt lat="45.35596" lon="5.74861">
        <ele>916.9</ele>
        <time>2021-12-19T14:04:50Z</time>
      </trkpt>
      <trkpt lat="45.35596" lon="5.74861">
        <ele>916.9</ele>
        <time>2021-12-19T14:04:51Z</time>
      </trkpt>
      <trkpt lat="45.35596" lon="5.74861">
        <ele>916.9</ele>
        <time>2021-12-19T14:04:52Z</time>
      </trkpt>
      <trkpt lat="45.35596" lon="5.74861">
        <ele>916.9</ele>
        <time>2021-12-19T14:04:53Z</time>
      </trkpt>
      <trkpt lat="45.35596" lon="5.74862">
        <ele>916.9</ele>
        <time>2021-12-19T14:04:54Z</time>
      </trkpt>
      <trkpt lat="45.35596" lon="5.74862">
        <ele>916.8</ele>
        <time>2021-12-19T14:04:55Z</time>
      </trkpt>
      <trkpt lat="45.35596" lon="5.74862">
        <ele>916.8</ele>
        <time>2021-12-19T14:04:56Z</time>
      </trkpt>
      <trkpt lat="45.35596" lon="5.74862">
        <ele>916.8</ele>
        <time>2021-12-19T14:04:57Z</time>
      </trkpt>
      <trkpt lat="45.35596" lon="5.74862">
        <ele>916.8</ele>
        <time>2021-12-19T14:04:58Z</time>
      </trkpt>
      <trkpt lat="45.35596" lon="5.74862">
        <ele>916.8</ele>
        <time>2021-12-19T14:04:59Z</time>
      </trkpt>
      <trkpt lat="45.35596" lon="5.74862">
        <ele>916.8</ele>
        <time>2021-12-19T14:05:00Z</time>
      </trkpt>
      <trkpt lat="45.35596" lon="5.74862">
        <ele>916.8</ele>
        <time>2021-12-19T14:05:01Z</time>
      </trkpt>
      <trkpt lat="45.35596" lon="5.74862">
        <ele>916.8</ele>
        <time>2021-12-19T14:05:02Z</time>
      </trkpt>
      <trkpt lat="45.35596" lon="5.74862">
        <ele>916.8</ele>
        <time>2021-12-19T14:05:03Z</time>
      </trkpt>
      <trkpt lat="45.35595" lon="5.74863">
        <ele>916.8</ele>
        <time>2021-12-19T14:05:04Z</time>
      </trkpt>
      <trkpt lat="45.35595" lon="5.74863">
        <ele>916.8</ele>
        <time>2021-12-19T14:05:05Z</time>
      </trkpt>
      <trkpt lat="45.35595" lon="5.74862">
        <ele>916.7</ele>
        <time>2021-12-19T14:05:06Z</time>
      </trkpt>
      <trkpt lat="45.35595" lon="5.74862">
        <ele>916.7</ele>
        <time>2021-12-19T14:05:07Z</time>
      </trkpt>
      <trkpt lat="45.35595" lon="5.74862">
        <ele>916.7</ele>
        <time>2021-12-19T14:05:08Z</time>
      </trkpt>
      <trkpt lat="45.35595" lon="5.74862">
        <ele>916.7</ele>
        <time>2021-12-19T14:05:09Z</time>
      </trkpt>
      <trkpt lat="45.35594" lon="5.74862">
        <ele>916.7</ele>
        <time>2021-12-19T14:05:10Z</time>
      </trkpt>
      <trkpt lat="45.35594" lon="5.74862">
        <ele>916.6</ele>
        <time>2021-12-19T14:05:11Z</time>
      </trkpt>
      <trkpt lat="45.35593" lon="5.74862">
        <ele>916.6</ele>
        <time>2021-12-19T14:05:12Z</time>
      </trkpt>
      <trkpt lat="45.35593" lon="5.74862">
        <ele>916.6</ele>
        <time>2021-12-19T14:05:13Z</time>
      </trkpt>
      <trkpt lat="45.35592" lon="5.74861">
        <ele>916.5</ele>
        <time>2021-12-19T14:05:14Z</time>
      </trkpt>
      <trkpt lat="45.35592" lon="5.74861">
        <ele>916.5</ele>
        <time>2021-12-19T14:05:15Z</time>
      </trkpt>
      <trkpt lat="45.35592" lon="5.74861">
        <ele>916.5</ele>
        <time>2021-12-19T14:05:16Z</time>
      </trkpt>
      <trkpt lat="45.35592" lon="5.74861">
        <ele>916.5</ele>
        <time>2021-12-19T14:05:17Z</time>
      </trkpt>
      <trkpt lat="45.35591" lon="5.74861">
        <ele>916.5</ele>
        <time>2021-12-19T14:05:18Z</time>
      </trkpt>
      <trkpt lat="45.35591" lon="5.74862">
        <ele>916.4</ele>
        <time>2021-12-19T14:05:19Z</time>
      </trkpt>
      <trkpt lat="45.35591" lon="5.74862">
        <ele>916.4</ele>
        <time>2021-12-19T14:05:20Z</time>
      </trkpt>
      <trkpt lat="45.35591" lon="5.74861">
        <ele>916.4</ele>
        <time>2021-12-19T14:05:21Z</time>
      </trkpt>
      <trkpt lat="45.35592" lon="5.74861">
        <ele>916.3</ele>
        <time>2021-12-19T14:05:22Z</time>
      </trkpt>
      <trkpt lat="45.35594" lon="5.74861">
        <ele>916.2</ele>
        <time>2021-12-19T14:05:23Z</time>
      </trkpt>
      <trkpt lat="45.35595" lon="5.7486">
        <ele>916.1</ele>
        <time>2021-12-19T14:05:24Z</time>
      </trkpt>
      <trkpt lat="45.35597" lon="5.74859">
        <ele>915.9</ele>
        <time>2021-12-19T14:05:25Z</time>
      </trkpt>
      <trkpt lat="45.35598" lon="5.74859">
        <ele>915.9</ele>
        <time>2021-12-19T14:05:26Z</time>
      </trkpt>
      <trkpt lat="45.35599" lon="5.74858">
        <ele>915.8</ele>
        <time>2021-12-19T14:05:27Z</time>
      </trkpt>
      <trkpt lat="45.356" lon="5.74857">
        <ele>915.7</ele>
        <time>2021-12-19T14:05:28Z</time>
      </trkpt>
      <trkpt lat="45.35601" lon="5.74857">
        <ele>915.6</ele>
        <time>2021-12-19T14:05:29Z</time>
      </trkpt>
      <trkpt lat="45.35601" lon="5.74857">
        <ele>915.6</ele>
        <time>2021-12-19T14:05:30Z</time>
      </trkpt>
      <trkpt lat="45.35601" lon="5.74857">
        <ele>915.6</ele>
        <time>2021-12-19T14:05:31Z</time>
      </trkpt>
      <trkpt lat="45.35601" lon="5.74857">
        <ele>915.6</ele>
        <time>2021-12-19T14:05:32Z</time>
      </trkpt>
      <trkpt lat="45.35601" lon="5.74857">
        <ele>915.6</ele>
        <time>2021-12-19T14:05:33Z</time>
      </trkpt>
      <trkpt lat="45.35601" lon="5.74857">
        <ele>915.6</ele>
        <time>2021-12-19T14:05:34Z</time>
      </trkpt>
      <trkpt lat="45.35602" lon="5.74857">
        <ele>915.5</ele>
        <time>2021-12-19T14:05:35Z</time>
      </trkpt>
      <trkpt lat="45.35602" lon="5.74856">
        <ele>915.5</ele>
        <time>2021-12-19T14:05:36Z</time>
      </trkpt>
      <trkpt lat="45.35602" lon="5.74856">
        <ele>915.5</ele>
        <time>2021-12-19T14:05:37Z</time>
      </trkpt>
      <trkpt lat="45.35602" lon="5.74856">
        <ele>915.5</ele>
        <time>2021-12-19T14:05:38Z</time>
      </trkpt>
      <trkpt lat="45.35602" lon="5.74856">
        <ele>915.5</ele>
        <time>2021-12-19T14:05:39Z</time>
      </trkpt>
      <trkpt lat="45.35602" lon="5.74857">
        <ele>915.5</ele>
        <time>2021-12-19T14:05:40Z</time>
      </trkpt>
      <trkpt lat="45.35602" lon="5.74857">
        <ele>915.5</ele>
        <time>2021-12-19T14:05:41Z</time>
      </trkpt>
      <trkpt lat="45.35602" lon="5.74857">
        <ele>915.4</ele>
        <time>2021-12-19T14:05:42Z</time>
      </trkpt>
      <trkpt lat="45.35602" lon="5.74857">
        <ele>915.4</ele>
        <time>2021-12-19T14:05:43Z</time>
      </trkpt>
      <trkpt lat="45.35603" lon="5.74857">
        <ele>915.4</ele>
        <time>2021-12-19T14:05:44Z</time>
      </trkpt>
      <trkpt lat="45.35603" lon="5.74857">
        <ele>915.4</ele>
        <time>2021-12-19T14:05:45Z</time>
      </trkpt>
      <trkpt lat="45.35603" lon="5.74857">
        <ele>915.4</ele>
        <time>2021-12-19T14:05:46Z</time>
      </trkpt>
      <trkpt lat="45.35604" lon="5.74858">
        <ele>915.3</ele>
        <time>2021-12-19T14:05:47Z</time>
      </trkpt>
      <trkpt lat="45.35604" lon="5.74858">
        <ele>915.3</ele>
        <time>2021-12-19T14:05:48Z</time>
      </trkpt>
      <trkpt lat="45.35604" lon="5.74858">
        <ele>915.3</ele>
        <time>2021-12-19T14:05:49Z</time>
      </trkpt>
      <trkpt lat="45.35604" lon="5.74858">
        <ele>915.3</ele>
        <time>2021-12-19T14:05:50Z</time>
      </trkpt>
      <trkpt lat="45.35604" lon="5.74858">
        <ele>915.3</ele>
        <time>2021-12-19T14:05:51Z</time>
      </trkpt>
      <trkpt lat="45.35605" lon="5.74858">
        <ele>915.3</ele>
        <time>2021-12-19T14:05:52Z</time>
      </trkpt>
      <trkpt lat="45.35605" lon="5.74858">
        <ele>915.3</ele>
        <time>2021-12-19T14:05:53Z</time>
      </trkpt>
      <trkpt lat="45.35605" lon="5.74859">
        <ele>915.2</ele>
        <time>2021-12-19T14:05:54Z</time>
      </trkpt>
      <trkpt lat="45.35606" lon="5.74859">
        <ele>915.2</ele>
        <time>2021-12-19T14:05:55Z</time>
      </trkpt>
      <trkpt lat="45.35605" lon="5.74859">
        <ele>915.2</ele>
        <time>2021-12-19T14:05:56Z</time>
      </trkpt>
      <trkpt lat="45.35605" lon="5.74858">
        <ele>915.1</ele>
        <time>2021-12-19T14:05:57Z</time>
      </trkpt>
      <trkpt lat="45.35605" lon="5.74858">
        <ele>915.1</ele>
        <time>2021-12-19T14:05:58Z</time>
      </trkpt>
      <trkpt lat="45.35605" lon="5.74858">
        <ele>915.1</ele>
        <time>2021-12-19T14:05:59Z</time>
      </trkpt>
      <trkpt lat="45.35605" lon="5.74858">
        <ele>915.1</ele>
        <time>2021-12-19T14:06:00Z</time>
      </trkpt>
      <trkpt lat="45.35605" lon="5.74858">
        <ele>915</ele>
        <time>2021-12-19T14:06:01Z</time>
      </trkpt>
      <trkpt lat="45.35605" lon="5.74857">
        <ele>915</ele>
        <time>2021-12-19T14:06:02Z</time>
      </trkpt>
      <trkpt lat="45.35605" lon="5.74857">
        <ele>915</ele>
        <time>2021-12-19T14:06:03Z</time>
      </trkpt>
      <trkpt lat="45.35605" lon="5.74857">
        <ele>915</ele>
        <time>2021-12-19T14:06:04Z</time>
      </trkpt>
      <trkpt lat="45.35606" lon="5.74857">
        <ele>914.9</ele>
        <time>2021-12-19T14:06:05Z</time>
      </trkpt>
      <trkpt lat="45.35606" lon="5.74857">
        <ele>914.9</ele>
        <time>2021-12-19T14:06:06Z</time>
      </trkpt>
      <trkpt lat="45.35606" lon="5.74857">
        <ele>914.9</ele>
        <time>2021-12-19T14:06:07Z</time>
      </trkpt>
      <trkpt lat="45.35607" lon="5.74857">
        <ele>914.9</ele>
        <time>2021-12-19T14:06:08Z</time>
      </trkpt>
      <trkpt lat="45.35608" lon="5.74857">
        <ele>914.8</ele>
        <time>2021-12-19T14:06:09Z</time>
      </trkpt>
      <trkpt lat="45.35608" lon="5.74857">
        <ele>914.7</ele>
        <time>2021-12-19T14:06:10Z</time>
      </trkpt>
      <trkpt lat="45.35608" lon="5.74857">
        <ele>914.7</ele>
        <time>2021-12-19T14:06:11Z</time>
      </trkpt>
      <trkpt lat="45.35608" lon="5.74857">
        <ele>914.7</ele>
        <time>2021-12-19T14:06:12Z</time>
      </trkpt>
      <trkpt lat="45.35608" lon="5.74857">
        <ele>914.7</ele>
        <time>2021-12-19T14:06:13Z</time>
      </trkpt>
      <trkpt lat="45.35608" lon="5.74857">
        <ele>914.7</ele>
        <time>2021-12-19T14:06:14Z</time>
      </trkpt>
      <trkpt lat="45.35608" lon="5.74857">
        <ele>914.7</ele>
        <time>2021-12-19T14:06:15Z</time>
      </trkpt>
      <trkpt lat="45.35608" lon="5.74857">
        <ele>914.7</ele>
        <time>2021-12-19T14:06:16Z</time>
      </trkpt>
      <trkpt lat="45.35608" lon="5.74857">
        <ele>914.7</ele>
        <time>2021-12-19T14:06:17Z</time>
      </trkpt>
      <trkpt lat="45.35608" lon="5.74857">
        <ele>914.6</ele>
        <time>2021-12-19T14:06:18Z</time>
      </trkpt>
      <trkpt lat="45.35607" lon="5.74856">
        <ele>914.6</ele>
        <time>2021-12-19T14:06:19Z</time>
      </trkpt>
      <trkpt lat="45.35607" lon="5.74856">
        <ele>914.5</ele>
        <time>2021-12-19T14:06:20Z</time>
      </trkpt>
      <trkpt lat="45.35606" lon="5.74855">
        <ele>914.5</ele>
        <time>2021-12-19T14:06:21Z</time>
      </trkpt>
      <trkpt lat="45.35606" lon="5.74855">
        <ele>914.4</ele>
        <time>2021-12-19T14:06:22Z</time>
      </trkpt>
      <trkpt lat="45.35605" lon="5.74855">
        <ele>914.3</ele>
        <time>2021-12-19T14:06:23Z</time>
      </trkpt>
      <trkpt lat="45.35604" lon="5.74855">
        <ele>914.3</ele>
        <time>2021-12-19T14:06:24Z</time>
      </trkpt>
      <trkpt lat="45.35604" lon="5.74854">
        <ele>914.2</ele>
        <time>2021-12-19T14:06:25Z</time>
      </trkpt>
      <trkpt lat="45.35603" lon="5.74854">
        <ele>914.2</ele>
        <time>2021-12-19T14:06:26Z</time>
      </trkpt>
      <trkpt lat="45.35602" lon="5.74854">
        <ele>914.1</ele>
        <time>2021-12-19T14:06:27Z</time>
      </trkpt>
      <trkpt lat="45.35601" lon="5.74854">
        <ele>914</ele>
        <time>2021-12-19T14:06:28Z</time>
      </trkpt>
      <trkpt lat="45.35601" lon="5.74854">
        <ele>914</ele>
        <time>2021-12-19T14:06:29Z</time>
      </trkpt>
      <trkpt lat="45.35601" lon="5.74854">
        <ele>913.9</ele>
        <time>2021-12-19T14:06:30Z</time>
      </trkpt>
      <trkpt lat="45.35601" lon="5.74854">
        <ele>913.9</ele>
        <time>2021-12-19T14:06:31Z</time>
      </trkpt>
      <trkpt lat="45.35601" lon="5.74853">
        <ele>913.8</ele>
        <time>2021-12-19T14:06:32Z</time>
      </trkpt>
      <trkpt lat="45.35601" lon="5.74852">
        <ele>913.8</ele>
        <time>2021-12-19T14:06:33Z</time>
      </trkpt>
      <trkpt lat="45.356" lon="5.74852">
        <ele>913.7</ele>
        <time>2021-12-19T14:06:34Z</time>
      </trkpt>
      <trkpt lat="45.356" lon="5.74851">
        <ele>913.7</ele>
        <time>2021-12-19T14:06:35Z</time>
      </trkpt>
      <trkpt lat="45.356" lon="5.74851">
        <ele>913.7</ele>
        <time>2021-12-19T14:06:36Z</time>
      </trkpt>
      <trkpt lat="45.35599" lon="5.7485">
        <ele>913.5</ele>
        <time>2021-12-19T14:06:37Z</time>
      </trkpt>
      <trkpt lat="45.35599" lon="5.7485">
        <ele>913.5</ele>
        <time>2021-12-19T14:06:38Z</time>
      </trkpt>
      <trkpt lat="45.35599" lon="5.74851">
        <ele>913.4</ele>
        <time>2021-12-19T14:06:39Z</time>
      </trkpt>
      <trkpt lat="45.356" lon="5.74852">
        <ele>913.3</ele>
        <time>2021-12-19T14:06:40Z</time>
      </trkpt>
      <trkpt lat="45.356" lon="5.74852">
        <ele>913.3</ele>
        <time>2021-12-19T14:06:41Z</time>
      </trkpt>
      <trkpt lat="45.356" lon="5.74852">
        <ele>913.2</ele>
        <time>2021-12-19T14:06:42Z</time>
      </trkpt>
      <trkpt lat="45.35599" lon="5.74853">
        <ele>913.2</ele>
        <time>2021-12-19T14:06:43Z</time>
      </trkpt>
      <trkpt lat="45.356" lon="5.74853">
        <ele>913.1</ele>
        <time>2021-12-19T14:06:44Z</time>
      </trkpt>
      <trkpt lat="45.35601" lon="5.74852">
        <ele>913</ele>
        <time>2021-12-19T14:06:45Z</time>
      </trkpt>
      <trkpt lat="45.35601" lon="5.74852">
        <ele>912.9</ele>
        <time>2021-12-19T14:06:46Z</time>
      </trkpt>
      <trkpt lat="45.35602" lon="5.74852">
        <ele>912.9</ele>
        <time>2021-12-19T14:06:47Z</time>
      </trkpt>
      <trkpt lat="45.35602" lon="5.74852">
        <ele>912.9</ele>
        <time>2021-12-19T14:06:48Z</time>
      </trkpt>
      <trkpt lat="45.35602" lon="5.74853">
        <ele>912.8</ele>
        <time>2021-12-19T14:06:49Z</time>
      </trkpt>
      <trkpt lat="45.35603" lon="5.74853">
        <ele>912.7</ele>
        <time>2021-12-19T14:06:50Z</time>
      </trkpt>
      <trkpt lat="45.35604" lon="5.74853">
        <ele>912.7</ele>
        <time>2021-12-19T14:06:51Z</time>
      </trkpt>
      <trkpt lat="45.35605" lon="5.74853">
        <ele>912.6</ele>
        <time>2021-12-19T14:06:52Z</time>
      </trkpt>
      <trkpt lat="45.35605" lon="5.74853">
        <ele>912.5</ele>
        <time>2021-12-19T14:06:53Z</time>
      </trkpt>
      <trkpt lat="45.35607" lon="5.74854">
        <ele>912.3</ele>
        <time>2021-12-19T14:06:54Z</time>
      </trkpt>
      <trkpt lat="45.35607" lon="5.74853">
        <ele>912.3</ele>
        <time>2021-12-19T14:06:55Z</time>
      </trkpt>
      <trkpt lat="45.35607" lon="5.74853">
        <ele>912.3</ele>
        <time>2021-12-19T14:06:56Z</time>
      </trkpt>
      <trkpt lat="45.35608" lon="5.74853">
        <ele>912.2</ele>
        <time>2021-12-19T14:06:57Z</time>
      </trkpt>
      <trkpt lat="45.35609" lon="5.74853">
        <ele>912.1</ele>
        <time>2021-12-19T14:06:58Z</time>
      </trkpt>
      <trkpt lat="45.35609" lon="5.74852">
        <ele>912.1</ele>
        <time>2021-12-19T14:06:59Z</time>
      </trkpt>
      <trkpt lat="45.35609" lon="5.74852">
        <ele>912.1</ele>
        <time>2021-12-19T14:07:00Z</time>
      </trkpt>
      <trkpt lat="45.3561" lon="5.74851">
        <ele>912</ele>
        <time>2021-12-19T14:07:01Z</time>
      </trkpt>
      <trkpt lat="45.35611" lon="5.74851">
        <ele>910.7</ele>
        <time>2021-12-19T14:07:02Z</time>
      </trkpt>
      <trkpt lat="45.35612" lon="5.74851">
        <ele>910.4</ele>
        <time>2021-12-19T14:07:03Z</time>
      </trkpt>
      <trkpt lat="45.35614" lon="5.7485">
        <ele>910.1</ele>
        <time>2021-12-19T14:07:04Z</time>
      </trkpt>
      <trkpt lat="45.35615" lon="5.7485">
        <ele>909.8</ele>
        <time>2021-12-19T14:07:05Z</time>
      </trkpt>
      <trkpt lat="45.35616" lon="5.74851">
        <ele>909.6</ele>
        <time>2021-12-19T14:07:06Z</time>
      </trkpt>
      <trkpt lat="45.35616" lon="5.74851">
        <ele>909.5</ele>
        <time>2021-12-19T14:07:07Z</time>
      </trkpt>
      <trkpt lat="45.35617" lon="5.74851">
        <ele>909.4</ele>
        <time>2021-12-19T14:07:08Z</time>
      </trkpt>
      <trkpt lat="45.35617" lon="5.74851">
        <ele>909.3</ele>
        <time>2021-12-19T14:07:09Z</time>
      </trkpt>
      <trkpt lat="45.35618" lon="5.74851">
        <ele>909.2</ele>
        <time>2021-12-19T14:07:10Z</time>
      </trkpt>
      <trkpt lat="45.35618" lon="5.74851">
        <ele>909.2</ele>
        <time>2021-12-19T14:07:11Z</time>
      </trkpt>
      <trkpt lat="45.35618" lon="5.74852">
        <ele>909.2</ele>
        <time>2021-12-19T14:07:12Z</time>
      </trkpt>
      <trkpt lat="45.35618" lon="5.74852">
        <ele>909.1</ele>
        <time>2021-12-19T14:07:13Z</time>
      </trkpt>
      <trkpt lat="45.35617" lon="5.74852">
        <ele>909.1</ele>
        <time>2021-12-19T14:07:14Z</time>
      </trkpt>
      <trkpt lat="45.35617" lon="5.74852">
        <ele>909</ele>
        <time>2021-12-19T14:07:15Z</time>
      </trkpt>
      <trkpt lat="45.35617" lon="5.74852">
        <ele>909</ele>
        <time>2021-12-19T14:07:16Z</time>
      </trkpt>
      <trkpt lat="45.35617" lon="5.74852">
        <ele>908.9</ele>
        <time>2021-12-19T14:07:17Z</time>
      </trkpt>
      <trkpt lat="45.35617" lon="5.74851">
        <ele>908.8</ele>
        <time>2021-12-19T14:07:18Z</time>
      </trkpt>
      <trkpt lat="45.35617" lon="5.74851">
        <ele>908.7</ele>
        <time>2021-12-19T14:07:19Z</time>
      </trkpt>
      <trkpt lat="45.35618" lon="5.7485">
        <ele>908.6</ele>
        <time>2021-12-19T14:07:20Z</time>
      </trkpt>
      <trkpt lat="45.35618" lon="5.74849">
        <ele>908.5</ele>
        <time>2021-12-19T14:07:21Z</time>
      </trkpt>
      <trkpt lat="45.35618" lon="5.74849">
        <ele>908.4</ele>
        <time>2021-12-19T14:07:22Z</time>
      </trkpt>
      <trkpt lat="45.35618" lon="5.74848">
        <ele>908.2</ele>
        <time>2021-12-19T14:07:23Z</time>
      </trkpt>
      <trkpt lat="45.35617" lon="5.74846">
        <ele>908</ele>
        <time>2021-12-19T14:07:24Z</time>
      </trkpt>
      <trkpt lat="45.35617" lon="5.74844">
        <ele>907.7</ele>
        <time>2021-12-19T14:07:25Z</time>
      </trkpt>
      <trkpt lat="45.35616" lon="5.74841">
        <ele>907.3</ele>
        <time>2021-12-19T14:07:26Z</time>
      </trkpt>
      <trkpt lat="45.35615" lon="5.74838">
        <ele>906.9</ele>
        <time>2021-12-19T14:07:27Z</time>
      </trkpt>
      <trkpt lat="45.35614" lon="5.74836">
        <ele>906.5</ele>
        <time>2021-12-19T14:07:28Z</time>
      </trkpt>
      <trkpt lat="45.35613" lon="5.74833">
        <ele>906</ele>
        <time>2021-12-19T14:07:29Z</time>
      </trkpt>
      <trkpt lat="45.35612" lon="5.74829">
        <ele>905.5</ele>
        <time>2021-12-19T14:07:30Z</time>
      </trkpt>
      <trkpt lat="45.35611" lon="5.74824">
        <ele>904.8</ele>
        <time>2021-12-19T14:07:31Z</time>
      </trkpt>
      <trkpt lat="45.35611" lon="5.74818">
        <ele>904</ele>
        <time>2021-12-19T14:07:32Z</time>
      </trkpt>
      <trkpt lat="45.35611" lon="5.74811">
        <ele>903.1</ele>
        <time>2021-12-19T14:07:33Z</time>
      </trkpt>
      <trkpt lat="45.35611" lon="5.74804">
        <ele>902.2</ele>
        <time>2021-12-19T14:07:34Z</time>
      </trkpt>
      <trkpt lat="45.35611" lon="5.74796">
        <ele>901.2</ele>
        <time>2021-12-19T14:07:35Z</time>
      </trkpt>
      <trkpt lat="45.35612" lon="5.74789">
        <ele>900.2</ele>
        <time>2021-12-19T14:07:36Z</time>
      </trkpt>
      <trkpt lat="45.35612" lon="5.74781">
        <ele>899.3</ele>
        <time>2021-12-19T14:07:37Z</time>
      </trkpt>
      <trkpt lat="45.35613" lon="5.74774">
        <ele>898.3</ele>
        <time>2021-12-19T14:07:38Z</time>
      </trkpt>
      <trkpt lat="45.35615" lon="5.74766">
        <ele>897.4</ele>
        <time>2021-12-19T14:07:39Z</time>
      </trkpt>
      <trkpt lat="45.35616" lon="5.74758">
        <ele>896.4</ele>
        <time>2021-12-19T14:07:40Z</time>
      </trkpt>
      <trkpt lat="45.35618" lon="5.7475">
        <ele>895.4</ele>
        <time>2021-12-19T14:07:41Z</time>
      </trkpt>
      <trkpt lat="45.3562" lon="5.74743">
        <ele>894.4</ele>
        <time>2021-12-19T14:07:42Z</time>
      </trkpt>
      <trkpt lat="45.35622" lon="5.74735">
        <ele>893.4</ele>
        <time>2021-12-19T14:07:43Z</time>
      </trkpt>
      <trkpt lat="45.35624" lon="5.74726">
        <ele>892.3</ele>
        <time>2021-12-19T14:07:44Z</time>
      </trkpt>
      <trkpt lat="45.35627" lon="5.74719">
        <ele>891.3</ele>
        <time>2021-12-19T14:07:45Z</time>
      </trkpt>
      <trkpt lat="45.3563" lon="5.74711">
        <ele>890.2</ele>
        <time>2021-12-19T14:07:46Z</time>
      </trkpt>
      <trkpt lat="45.35633" lon="5.74704">
        <ele>889.2</ele>
        <time>2021-12-19T14:07:47Z</time>
      </trkpt>
      <trkpt lat="45.35637" lon="5.74697">
        <ele>888.2</ele>
        <time>2021-12-19T14:07:48Z</time>
      </trkpt>
      <trkpt lat="45.35641" lon="5.7469">
        <ele>887.2</ele>
        <time>2021-12-19T14:07:49Z</time>
      </trkpt>
      <trkpt lat="45.35644" lon="5.74683">
        <ele>886.3</ele>
        <time>2021-12-19T14:07:50Z</time>
      </trkpt>
      <trkpt lat="45.35648" lon="5.74677">
        <ele>885.3</ele>
        <time>2021-12-19T14:07:51Z</time>
      </trkpt>
      <trkpt lat="45.35651" lon="5.74671">
        <ele>884.4</ele>
        <time>2021-12-19T14:07:52Z</time>
      </trkpt>
      <trkpt lat="45.35655" lon="5.74664">
        <ele>883.4</ele>
        <time>2021-12-19T14:07:53Z</time>
      </trkpt>
      <trkpt lat="45.35658" lon="5.74658">
        <ele>882.5</ele>
        <time>2021-12-19T14:07:54Z</time>
      </trkpt>
      <trkpt lat="45.35661" lon="5.74653">
        <ele>881.7</ele>
        <time>2021-12-19T14:07:55Z</time>
      </trkpt>
      <trkpt lat="45.35664" lon="5.74647">
        <ele>880.8</ele>
        <time>2021-12-19T14:07:56Z</time>
      </trkpt>
      <trkpt lat="45.35668" lon="5.74642">
        <ele>879.8</ele>
        <time>2021-12-19T14:07:57Z</time>
      </trkpt>
      <trkpt lat="45.35672" lon="5.74636">
        <ele>878.9</ele>
        <time>2021-12-19T14:07:58Z</time>
      </trkpt>
      <trkpt lat="45.35676" lon="5.7463">
        <ele>877.9</ele>
        <time>2021-12-19T14:07:59Z</time>
      </trkpt>
      <trkpt lat="45.35679" lon="5.74623">
        <ele>876.9</ele>
        <time>2021-12-19T14:08:00Z</time>
      </trkpt>
      <trkpt lat="45.35684" lon="5.74617">
        <ele>875.9</ele>
        <time>2021-12-19T14:08:01Z</time>
      </trkpt>
      <trkpt lat="45.35688" lon="5.74611">
        <ele>874.9</ele>
        <time>2021-12-19T14:08:02Z</time>
      </trkpt>
      <trkpt lat="45.35692" lon="5.74605">
        <ele>873.9</ele>
        <time>2021-12-19T14:08:03Z</time>
      </trkpt>
      <trkpt lat="45.35695" lon="5.74598">
        <ele>872.9</ele>
        <time>2021-12-19T14:08:04Z</time>
      </trkpt>
      <trkpt lat="45.35699" lon="5.74592">
        <ele>871.9</ele>
        <time>2021-12-19T14:08:05Z</time>
      </trkpt>
      <trkpt lat="45.35703" lon="5.74586">
        <ele>870.9</ele>
        <time>2021-12-19T14:08:06Z</time>
      </trkpt>
      <trkpt lat="45.35707" lon="5.7458">
        <ele>870.1</ele>
        <time>2021-12-19T14:08:07Z</time>
      </trkpt>
      <trkpt lat="45.35711" lon="5.74574">
        <ele>869.1</ele>
        <time>2021-12-19T14:08:08Z</time>
      </trkpt>
      <trkpt lat="45.35714" lon="5.74568">
        <ele>868.3</ele>
        <time>2021-12-19T14:08:09Z</time>
      </trkpt>
      <trkpt lat="45.35718" lon="5.74562">
        <ele>867.4</ele>
        <time>2021-12-19T14:08:10Z</time>
      </trkpt>
      <trkpt lat="45.35721" lon="5.74557">
        <ele>866.6</ele>
        <time>2021-12-19T14:08:11Z</time>
      </trkpt>
      <trkpt lat="45.35725" lon="5.74551">
        <ele>865.7</ele>
        <time>2021-12-19T14:08:12Z</time>
      </trkpt>
      <trkpt lat="45.35728" lon="5.74546">
        <ele>864.9</ele>
        <time>2021-12-19T14:08:13Z</time>
      </trkpt>
      <trkpt lat="45.35732" lon="5.74541">
        <ele>864.1</ele>
        <time>2021-12-19T14:08:14Z</time>
      </trkpt>
      <trkpt lat="45.35736" lon="5.74536">
        <ele>863.3</ele>
        <time>2021-12-19T14:08:15Z</time>
      </trkpt>
      <trkpt lat="45.3574" lon="5.74531">
        <ele>862.6</ele>
        <time>2021-12-19T14:08:16Z</time>
      </trkpt>
      <trkpt lat="45.35743" lon="5.74526">
        <ele>862.1</ele>
        <time>2021-12-19T14:08:17Z</time>
      </trkpt>
      <trkpt lat="45.35747" lon="5.7452">
        <ele>861.6</ele>
        <time>2021-12-19T14:08:18Z</time>
      </trkpt>
      <trkpt lat="45.35751" lon="5.74515">
        <ele>861.2</ele>
        <time>2021-12-19T14:08:19Z</time>
      </trkpt>
      <trkpt lat="45.35755" lon="5.7451">
        <ele>860.7</ele>
        <time>2021-12-19T14:08:20Z</time>
      </trkpt>
      <trkpt lat="45.35758" lon="5.74505">
        <ele>860.3</ele>
        <time>2021-12-19T14:08:21Z</time>
      </trkpt>
      <trkpt lat="45.35762" lon="5.745">
        <ele>859.8</ele>
        <time>2021-12-19T14:08:22Z</time>
      </trkpt>
      <trkpt lat="45.35765" lon="5.74495">
        <ele>859.4</ele>
        <time>2021-12-19T14:08:23Z</time>
      </trkpt>
      <trkpt lat="45.35768" lon="5.74491">
        <ele>859</ele>
        <time>2021-12-19T14:08:24Z</time>
      </trkpt>
      <trkpt lat="45.35771" lon="5.74486">
        <ele>858.6</ele>
        <time>2021-12-19T14:08:25Z</time>
      </trkpt>
      <trkpt lat="45.35774" lon="5.74481">
        <ele>858.2</ele>
        <time>2021-12-19T14:08:26Z</time>
      </trkpt>
      <trkpt lat="45.35777" lon="5.74475">
        <ele>857.7</ele>
        <time>2021-12-19T14:08:27Z</time>
      </trkpt>
      <trkpt lat="45.35779" lon="5.7447">
        <ele>857.3</ele>
        <time>2021-12-19T14:08:28Z</time>
      </trkpt>
      <trkpt lat="45.35782" lon="5.74465">
        <ele>856.9</ele>
        <time>2021-12-19T14:08:29Z</time>
      </trkpt>
      <trkpt lat="45.35784" lon="5.7446">
        <ele>856.5</ele>
        <time>2021-12-19T14:08:30Z</time>
      </trkpt>
      <trkpt lat="45.35787" lon="5.74457">
        <ele>856.1</ele>
        <time>2021-12-19T14:08:31Z</time>
      </trkpt>
      <trkpt lat="45.35789" lon="5.74454">
        <ele>855.8</ele>
        <time>2021-12-19T14:08:32Z</time>
      </trkpt>
      <trkpt lat="45.3579" lon="5.74451">
        <ele>855.6</ele>
        <time>2021-12-19T14:08:33Z</time>
      </trkpt>
      <trkpt lat="45.35791" lon="5.7445">
        <ele>855.4</ele>
        <time>2021-12-19T14:08:34Z</time>
      </trkpt>
      <trkpt lat="45.35791" lon="5.74449">
        <ele>855.4</ele>
        <time>2021-12-19T14:08:35Z</time>
      </trkpt>
      <trkpt lat="45.35791" lon="5.74448">
        <ele>855.4</ele>
        <time>2021-12-19T14:08:36Z</time>
      </trkpt>
      <trkpt lat="45.35792" lon="5.74448">
        <ele>855.4</ele>
        <time>2021-12-19T14:08:37Z</time>
      </trkpt>
      <trkpt lat="45.35791" lon="5.74447">
        <ele>855.4</ele>
        <time>2021-12-19T14:08:38Z</time>
      </trkpt>
      <trkpt lat="45.35791" lon="5.74447">
        <ele>855.4</ele>
        <time>2021-12-19T14:08:39Z</time>
      </trkpt>
      <trkpt lat="45.3579" lon="5.74447">
        <ele>855.4</ele>
        <time>2021-12-19T14:08:40Z</time>
      </trkpt>
      <trkpt lat="45.3579" lon="5.74447">
        <ele>855.4</ele>
        <time>2021-12-19T14:08:41Z</time>
      </trkpt>
      <trkpt lat="45.3579" lon="5.74447">
        <ele>855.4</ele>
        <time>2021-12-19T14:08:42Z</time>
      </trkpt>
      <trkpt lat="45.3579" lon="5.74447">
        <ele>855.4</ele>
        <time>2021-12-19T14:08:43Z</time>
      </trkpt>
      <trkpt lat="45.3579" lon="5.74448">
        <ele>855.4</ele>
        <time>2021-12-19T14:08:44Z</time>
      </trkpt>
      <trkpt lat="45.3579" lon="5.74448">
        <ele>855.4</ele>
        <time>2021-12-19T14:08:45Z</time>
      </trkpt>
      <trkpt lat="45.35791" lon="5.74449">
        <ele>855.4</ele>
        <time>2021-12-19T14:08:46Z</time>
      </trkpt>
      <trkpt lat="45.35791" lon="5.74449">
        <ele>855.4</ele>
        <time>2021-12-19T14:08:47Z</time>
      </trkpt>
      <trkpt lat="45.35791" lon="5.74449">
        <ele>855.4</ele>
        <time>2021-12-19T14:08:48Z</time>
      </trkpt>
      <trkpt lat="45.35791" lon="5.74449">
        <ele>855.4</ele>
        <time>2021-12-19T14:08:49Z</time>
      </trkpt>
      <trkpt lat="45.35791" lon="5.74449">
        <ele>855.4</ele>
        <time>2021-12-19T14:08:50Z</time>
      </trkpt>
      <trkpt lat="45.35791" lon="5.74449">
        <ele>855.4</ele>
        <time>2021-12-19T14:08:51Z</time>
      </trkpt>
      <trkpt lat="45.35791" lon="5.74449">
        <ele>855.4</ele>
        <time>2021-12-19T14:08:52Z</time>
      </trkpt>
      <trkpt lat="45.35791" lon="5.74449">
        <ele>855.4</ele>
        <time>2021-12-19T14:08:53Z</time>
      </trkpt>
      <trkpt lat="45.35791" lon="5.74449">
        <ele>855.4</ele>
        <time>2021-12-19T14:08:54Z</time>
      </trkpt>
      <trkpt lat="45.35791" lon="5.74448">
        <ele>855.4</ele>
        <time>2021-12-19T14:08:55Z</time>
      </trkpt>
      <trkpt lat="45.35791" lon="5.74449">
        <ele>855.4</ele>
        <time>2021-12-19T14:08:56Z</time>
      </trkpt>
      <trkpt lat="45.35791" lon="5.74448">
        <ele>855.4</ele>
        <time>2021-12-19T14:08:57Z</time>
      </trkpt>
      <trkpt lat="45.35791" lon="5.74448">
        <ele>855.4</ele>
        <time>2021-12-19T14:08:58Z</time>
      </trkpt>
      <trkpt lat="45.35791" lon="5.74448">
        <ele>855.4</ele>
        <time>2021-12-19T14:08:59Z</time>
      </trkpt>
      <trkpt lat="45.35791" lon="5.74448">
        <ele>855.4</ele>
        <time>2021-12-19T14:09:00Z</time>
      </trkpt>
      <trkpt lat="45.35791" lon="5.74448">
        <ele>855.4</ele>
        <time>2021-12-19T14:09:01Z</time>
      </trkpt>
      <trkpt lat="45.35791" lon="5.74448">
        <ele>855.4</ele>
        <time>2021-12-19T14:09:02Z</time>
      </trkpt>
      <trkpt lat="45.35791" lon="5.74448">
        <ele>855.4</ele>
        <time>2021-12-19T14:09:03Z</time>
      </trkpt>
      <trkpt lat="45.35791" lon="5.74448">
        <ele>855.4</ele>
        <time>2021-12-19T14:09:04Z</time>
      </trkpt>
      <trkpt lat="45.35791" lon="5.74448">
        <ele>855.4</ele>
        <time>2021-12-19T14:09:05Z</time>
      </trkpt>
      <trkpt lat="45.35791" lon="5.74448">
        <ele>855.4</ele>
        <time>2021-12-19T14:09:06Z</time>
      </trkpt>
      <trkpt lat="45.35791" lon="5.74447">
        <ele>855.4</ele>
        <time>2021-12-19T14:09:07Z</time>
      </trkpt>
      <trkpt lat="45.35791" lon="5.74447">
        <ele>855.4</ele>
        <time>2021-12-19T14:09:08Z</time>
      </trkpt>
      <trkpt lat="45.35791" lon="5.74446">
        <ele>855.4</ele>
        <time>2021-12-19T14:09:09Z</time>
      </trkpt>
      <trkpt lat="45.35791" lon="5.74445">
        <ele>855.3</ele>
        <time>2021-12-19T14:09:10Z</time>
      </trkpt>
      <trkpt lat="45.35791" lon="5.74444">
        <ele>855.3</ele>
        <time>2021-12-19T14:09:11Z</time>
      </trkpt>
      <trkpt lat="45.35791" lon="5.74443">
        <ele>855.3</ele>
        <time>2021-12-19T14:09:12Z</time>
      </trkpt>
      <trkpt lat="45.35791" lon="5.74443">
        <ele>855.3</ele>
        <time>2021-12-19T14:09:13Z</time>
      </trkpt>
      <trkpt lat="45.35791" lon="5.74443">
        <ele>855.3</ele>
        <time>2021-12-19T14:09:14Z</time>
      </trkpt>
      <trkpt lat="45.35791" lon="5.74442">
        <ele>855.3</ele>
        <time>2021-12-19T14:09:15Z</time>
      </trkpt>
      <trkpt lat="45.35791" lon="5.74443">
        <ele>855.3</ele>
        <time>2021-12-19T14:09:16Z</time>
      </trkpt>
      <trkpt lat="45.35791" lon="5.74442">
        <ele>855.3</ele>
        <time>2021-12-19T14:09:17Z</time>
      </trkpt>
      <trkpt lat="45.35792" lon="5.74442">
        <ele>855.3</ele>
        <time>2021-12-19T14:09:18Z</time>
      </trkpt>
      <trkpt lat="45.35792" lon="5.74442">
        <ele>855.3</ele>
        <time>2021-12-19T14:09:19Z</time>
      </trkpt>
      <trkpt lat="45.35792" lon="5.74442">
        <ele>855.3</ele>
        <time>2021-12-19T14:09:20Z</time>
      </trkpt>
      <trkpt lat="45.35792" lon="5.74442">
        <ele>855.3</ele>
        <time>2021-12-19T14:09:21Z</time>
      </trkpt>
      <trkpt lat="45.35792" lon="5.74443">
        <ele>855.3</ele>
        <time>2021-12-19T14:09:22Z</time>
      </trkpt>
      <trkpt lat="45.35792" lon="5.74443">
        <ele>855.3</ele>
        <time>2021-12-19T14:09:23Z</time>
      </trkpt>
      <trkpt lat="45.35792" lon="5.74443">
        <ele>855.3</ele>
        <time>2021-12-19T14:09:24Z</time>
      </trkpt>
      <trkpt lat="45.35793" lon="5.74444">
        <ele>855.3</ele>
        <time>2021-12-19T14:09:25Z</time>
      </trkpt>
      <trkpt lat="45.35793" lon="5.74444">
        <ele>855.3</ele>
        <time>2021-12-19T14:09:26Z</time>
      </trkpt>
    </trkseg>
  </trk>
</gpx>